<?xml version="1.0" encoding="UTF-8"?>
<gpx version="1.1" creator="https://www.www-youtrack-es.amenigma.com" xsi:schemaLocation="http://www.topografix.com/GPX/1/1 http://www.topografix.com/GPX/1/1/gpx.xsd http://www.garmin.com/xmlschemas/GpxExtensions/v3 http://www.garmin.com/xmlschemas/GpxExtensionsv3.xsd http://www.garmin.com/xmlschemas/TrackPointExtension/v1 http://www.garmin.com/xmlschemas/TrackPointExtensionv1.xsd" xmlns:gpxtpx="http://www.garmin.com/xmlschemas/TrackPointExtension/v1" xmlns:gpxx="http://www.garmin.com/xmlschemas/GpxExtensions/v3" xmlns:xsi="http://www.w3.org/2001/XMLSchema-instance">
  <metadata>
    <link href="https://www.www-youtrack-es.amenigma.com">
      <text>YouTrack.es</text>
    </link>
    <time>2026-09-01T08:28:20Z</time>
  </metadata>
  <trk>
    <src>https://www.www-youtrack-es.amenigma.com</src>
    <link href="https://www.www-youtrack-es.amenigma.com/ruta/35386-scott--segundo-puerto">
      <text>YouTrack.es</text>
    </link>
    <trkseg>
      <trkpt lat="25.4756440" lon="-100.9760580">
        <ele>1526.6</ele>
        <time>2022-08-20T12:04:53Z</time>
      </trkpt>
      <trkpt lat="25.4756140" lon="-100.9761530">
        <ele>1526.6</ele>
        <time>2022-08-20T12:04:54Z</time>
      </trkpt>
      <trkpt lat="25.4755520" lon="-100.9762390">
        <ele>1526.6</ele>
        <time>2022-08-20T12:04:55Z</time>
      </trkpt>
      <trkpt lat="25.4755560" lon="-100.9762070">
        <ele>1526.6</ele>
        <time>2022-08-20T12:04:56Z</time>
      </trkpt>
      <trkpt lat="25.4755610" lon="-100.9761610">
        <ele>1526.6</ele>
        <time>2022-08-20T12:04:57Z</time>
      </trkpt>
      <trkpt lat="25.4755730" lon="-100.9761710">
        <ele>1526.6</ele>
        <time>2022-08-20T12:04:58Z</time>
      </trkpt>
      <trkpt lat="25.4755250" lon="-100.9760490">
        <ele>1526.2</ele>
        <time>2022-08-20T12:05:01Z</time>
      </trkpt>
      <trkpt lat="25.4753380" lon="-100.9760450">
        <ele>1526.2</ele>
        <time>2022-08-20T12:05:08Z</time>
      </trkpt>
      <trkpt lat="25.4751910" lon="-100.9760470">
        <ele>1526.4</ele>
        <time>2022-08-20T12:05:12Z</time>
      </trkpt>
      <trkpt lat="25.4749040" lon="-100.9762050">
        <ele>1526.6</ele>
        <time>2022-08-20T12:05:20Z</time>
      </trkpt>
      <trkpt lat="25.4745620" lon="-100.9763720">
        <ele>1527.2</ele>
        <time>2022-08-20T12:05:29Z</time>
      </trkpt>
      <trkpt lat="25.4740920" lon="-100.9765750">
        <ele>1527.6</ele>
        <time>2022-08-20T12:05:41Z</time>
      </trkpt>
      <trkpt lat="25.4737590" lon="-100.9767070">
        <ele>1528.2</ele>
        <time>2022-08-20T12:05:49Z</time>
      </trkpt>
      <trkpt lat="25.4735920" lon="-100.9767900">
        <ele>1528.4</ele>
        <time>2022-08-20T12:05:53Z</time>
      </trkpt>
      <trkpt lat="25.4734210" lon="-100.9768730">
        <ele>1528.6</ele>
        <time>2022-08-20T12:05:57Z</time>
      </trkpt>
      <trkpt lat="25.4733040" lon="-100.9769440">
        <ele>1529.0</ele>
        <time>2022-08-20T12:06:00Z</time>
      </trkpt>
      <trkpt lat="25.4731400" lon="-100.9770360">
        <ele>1529.4</ele>
        <time>2022-08-20T12:06:04Z</time>
      </trkpt>
      <trkpt lat="25.4729200" lon="-100.9771470">
        <ele>1530.0</ele>
        <time>2022-08-20T12:06:09Z</time>
      </trkpt>
      <trkpt lat="25.4725170" lon="-100.9773460">
        <ele>1530.2</ele>
        <time>2022-08-20T12:06:18Z</time>
      </trkpt>
      <trkpt lat="25.4723320" lon="-100.9774340">
        <ele>1530.8</ele>
        <time>2022-08-20T12:06:22Z</time>
      </trkpt>
      <trkpt lat="25.4721940" lon="-100.9774930">
        <ele>1530.8</ele>
        <time>2022-08-20T12:06:25Z</time>
      </trkpt>
      <trkpt lat="25.4721070" lon="-100.9775340">
        <ele>1531.0</ele>
        <time>2022-08-20T12:06:27Z</time>
      </trkpt>
      <trkpt lat="25.4719700" lon="-100.9775660">
        <ele>1531.0</ele>
        <time>2022-08-20T12:06:30Z</time>
      </trkpt>
      <trkpt lat="25.4718710" lon="-100.9774580">
        <ele>1531.4</ele>
        <time>2022-08-20T12:06:34Z</time>
      </trkpt>
      <trkpt lat="25.4719290" lon="-100.9773530">
        <ele>1531.4</ele>
        <time>2022-08-20T12:06:36Z</time>
      </trkpt>
      <trkpt lat="25.4720840" lon="-100.9772310">
        <ele>1531.6</ele>
        <time>2022-08-20T12:06:39Z</time>
      </trkpt>
      <trkpt lat="25.4721420" lon="-100.9771950">
        <ele>1531.6</ele>
        <time>2022-08-20T12:06:40Z</time>
      </trkpt>
      <trkpt lat="25.4725730" lon="-100.9769540">
        <ele>1531.4</ele>
        <time>2022-08-20T12:06:47Z</time>
      </trkpt>
      <trkpt lat="25.4731040" lon="-100.9766510">
        <ele>1530.4</ele>
        <time>2022-08-20T12:06:55Z</time>
      </trkpt>
      <trkpt lat="25.4731730" lon="-100.9766170">
        <ele>1530.4</ele>
        <time>2022-08-20T12:06:56Z</time>
      </trkpt>
      <trkpt lat="25.4735950" lon="-100.9764130">
        <ele>1529.4</ele>
        <time>2022-08-20T12:07:02Z</time>
      </trkpt>
      <trkpt lat="25.4738900" lon="-100.9762610">
        <ele>1528.8</ele>
        <time>2022-08-20T12:07:06Z</time>
      </trkpt>
      <trkpt lat="25.4741140" lon="-100.9761300">
        <ele>1528.6</ele>
        <time>2022-08-20T12:07:09Z</time>
      </trkpt>
      <trkpt lat="25.4745070" lon="-100.9759460">
        <ele>1527.6</ele>
        <time>2022-08-20T12:07:14Z</time>
      </trkpt>
      <trkpt lat="25.4745900" lon="-100.9759110">
        <ele>1527.4</ele>
        <time>2022-08-20T12:07:15Z</time>
      </trkpt>
      <trkpt lat="25.4750750" lon="-100.9756780">
        <ele>1526.4</ele>
        <time>2022-08-20T12:07:21Z</time>
      </trkpt>
      <trkpt lat="25.4751540" lon="-100.9756390">
        <ele>1526.4</ele>
        <time>2022-08-20T12:07:22Z</time>
      </trkpt>
      <trkpt lat="25.4755540" lon="-100.9754500">
        <ele>1525.6</ele>
        <time>2022-08-20T12:07:27Z</time>
      </trkpt>
      <trkpt lat="25.4760390" lon="-100.9752180">
        <ele>1524.6</ele>
        <time>2022-08-20T12:07:33Z</time>
      </trkpt>
      <trkpt lat="25.4761200" lon="-100.9751790">
        <ele>1524.6</ele>
        <time>2022-08-20T12:07:34Z</time>
      </trkpt>
      <trkpt lat="25.4765890" lon="-100.9749520">
        <ele>1523.6</ele>
        <time>2022-08-20T12:07:40Z</time>
      </trkpt>
      <trkpt lat="25.4767260" lon="-100.9748800">
        <ele>1523.4</ele>
        <time>2022-08-20T12:07:42Z</time>
      </trkpt>
      <trkpt lat="25.4767710" lon="-100.9748250">
        <ele>1523.2</ele>
        <time>2022-08-20T12:07:43Z</time>
      </trkpt>
      <trkpt lat="25.4768010" lon="-100.9746970">
        <ele>1522.8</ele>
        <time>2022-08-20T12:07:45Z</time>
      </trkpt>
      <trkpt lat="25.4767780" lon="-100.9746350">
        <ele>1522.8</ele>
        <time>2022-08-20T12:07:46Z</time>
      </trkpt>
      <trkpt lat="25.4767020" lon="-100.9745140">
        <ele>1522.8</ele>
        <time>2022-08-20T12:07:48Z</time>
      </trkpt>
      <trkpt lat="25.4766250" lon="-100.9743910">
        <ele>1522.8</ele>
        <time>2022-08-20T12:07:50Z</time>
      </trkpt>
      <trkpt lat="25.4765850" lon="-100.9743270">
        <ele>1522.8</ele>
        <time>2022-08-20T12:07:51Z</time>
      </trkpt>
      <trkpt lat="25.4762820" lon="-100.9738220">
        <ele>1522.8</ele>
        <time>2022-08-20T12:07:59Z</time>
      </trkpt>
      <trkpt lat="25.4760110" lon="-100.9732800">
        <ele>1522.8</ele>
        <time>2022-08-20T12:08:07Z</time>
      </trkpt>
      <trkpt lat="25.4758980" lon="-100.9728280">
        <ele>1523.0</ele>
        <time>2022-08-20T12:08:13Z</time>
      </trkpt>
      <trkpt lat="25.4758330" lon="-100.9722370">
        <ele>1523.0</ele>
        <time>2022-08-20T12:08:21Z</time>
      </trkpt>
      <trkpt lat="25.4757810" lon="-100.9716570">
        <ele>1523.8</ele>
        <time>2022-08-20T12:08:29Z</time>
      </trkpt>
      <trkpt lat="25.4757190" lon="-100.9710300">
        <ele>1524.8</ele>
        <time>2022-08-20T12:08:37Z</time>
      </trkpt>
      <trkpt lat="25.4757100" lon="-100.9709500">
        <ele>1524.8</ele>
        <time>2022-08-20T12:08:38Z</time>
      </trkpt>
      <trkpt lat="25.4755860" lon="-100.9703100">
        <ele>1525.2</ele>
        <time>2022-08-20T12:08:46Z</time>
      </trkpt>
      <trkpt lat="25.4753980" lon="-100.9697540">
        <ele>1525.4</ele>
        <time>2022-08-20T12:08:53Z</time>
      </trkpt>
      <trkpt lat="25.4751250" lon="-100.9692370">
        <ele>1525.4</ele>
        <time>2022-08-20T12:09:00Z</time>
      </trkpt>
      <trkpt lat="25.4747810" lon="-100.9686750">
        <ele>1525.2</ele>
        <time>2022-08-20T12:09:08Z</time>
      </trkpt>
      <trkpt lat="25.4744370" lon="-100.9681120">
        <ele>1525.0</ele>
        <time>2022-08-20T12:09:16Z</time>
      </trkpt>
      <trkpt lat="25.4743490" lon="-100.9679680">
        <ele>1525.0</ele>
        <time>2022-08-20T12:09:18Z</time>
      </trkpt>
      <trkpt lat="25.4740420" lon="-100.9674620">
        <ele>1524.8</ele>
        <time>2022-08-20T12:09:25Z</time>
      </trkpt>
      <trkpt lat="25.4738700" lon="-100.9671730">
        <ele>1524.8</ele>
        <time>2022-08-20T12:09:29Z</time>
      </trkpt>
      <trkpt lat="25.4737330" lon="-100.9668640">
        <ele>1524.8</ele>
        <time>2022-08-20T12:09:33Z</time>
      </trkpt>
      <trkpt lat="25.4736830" lon="-100.9667010">
        <ele>1524.8</ele>
        <time>2022-08-20T12:09:35Z</time>
      </trkpt>
      <trkpt lat="25.4736030" lon="-100.9661930">
        <ele>1524.8</ele>
        <time>2022-08-20T12:09:41Z</time>
      </trkpt>
      <trkpt lat="25.4735960" lon="-100.9661080">
        <ele>1524.6</ele>
        <time>2022-08-20T12:09:42Z</time>
      </trkpt>
      <trkpt lat="25.4734910" lon="-100.9655200">
        <ele>1524.4</ele>
        <time>2022-08-20T12:09:49Z</time>
      </trkpt>
      <trkpt lat="25.4734620" lon="-100.9654430">
        <ele>1524.2</ele>
        <time>2022-08-20T12:09:50Z</time>
      </trkpt>
      <trkpt lat="25.4732920" lon="-100.9650660">
        <ele>1523.8</ele>
        <time>2022-08-20T12:09:55Z</time>
      </trkpt>
      <trkpt lat="25.4730290" lon="-100.9644810">
        <ele>1524.0</ele>
        <time>2022-08-20T12:10:03Z</time>
      </trkpt>
      <trkpt lat="25.4729940" lon="-100.9644100">
        <ele>1524.0</ele>
        <time>2022-08-20T12:10:04Z</time>
      </trkpt>
      <trkpt lat="25.4727270" lon="-100.9638380">
        <ele>1524.6</ele>
        <time>2022-08-20T12:10:12Z</time>
      </trkpt>
      <trkpt lat="25.4726960" lon="-100.9637690">
        <ele>1524.6</ele>
        <time>2022-08-20T12:10:13Z</time>
      </trkpt>
      <trkpt lat="25.4724430" lon="-100.9632240">
        <ele>1525.2</ele>
        <time>2022-08-20T12:10:21Z</time>
      </trkpt>
      <trkpt lat="25.4724110" lon="-100.9631590">
        <ele>1525.2</ele>
        <time>2022-08-20T12:10:22Z</time>
      </trkpt>
      <trkpt lat="25.4721630" lon="-100.9626210">
        <ele>1525.6</ele>
        <time>2022-08-20T12:10:30Z</time>
      </trkpt>
      <trkpt lat="25.4721330" lon="-100.9625550">
        <ele>1525.6</ele>
        <time>2022-08-20T12:10:31Z</time>
      </trkpt>
      <trkpt lat="25.4718830" lon="-100.9620020">
        <ele>1525.6</ele>
        <time>2022-08-20T12:10:39Z</time>
      </trkpt>
      <trkpt lat="25.4718190" lon="-100.9618630">
        <ele>1525.8</ele>
        <time>2022-08-20T12:10:41Z</time>
      </trkpt>
      <trkpt lat="25.4715800" lon="-100.9613590">
        <ele>1525.6</ele>
        <time>2022-08-20T12:10:49Z</time>
      </trkpt>
      <trkpt lat="25.4714160" lon="-100.9611300">
        <ele>1525.4</ele>
        <time>2022-08-20T12:10:54Z</time>
      </trkpt>
      <trkpt lat="25.4713310" lon="-100.9610390">
        <ele>1525.4</ele>
        <time>2022-08-20T12:10:58Z</time>
      </trkpt>
      <trkpt lat="25.4713060" lon="-100.9610190">
        <ele>1525.4</ele>
        <time>2022-08-20T12:11:03Z</time>
      </trkpt>
      <trkpt lat="25.4712890" lon="-100.9610120">
        <ele>1525.8</ele>
        <time>2022-08-20T12:11:14Z</time>
      </trkpt>
      <trkpt lat="25.4712880" lon="-100.9610150">
        <ele>1526.0</ele>
        <time>2022-08-20T12:11:23Z</time>
      </trkpt>
      <trkpt lat="25.4712870" lon="-100.9610170">
        <ele>1526.4</ele>
        <time>2022-08-20T12:11:40Z</time>
      </trkpt>
      <trkpt lat="25.4712880" lon="-100.9610170">
        <ele>1526.2</ele>
        <time>2022-08-20T12:11:44Z</time>
      </trkpt>
      <trkpt lat="25.4712800" lon="-100.9610090">
        <ele>1526.0</ele>
        <time>2022-08-20T12:12:05Z</time>
      </trkpt>
      <trkpt lat="25.4711870" lon="-100.9609160">
        <ele>1526.0</ele>
        <time>2022-08-20T12:12:09Z</time>
      </trkpt>
      <trkpt lat="25.4709770" lon="-100.9607050">
        <ele>1526.0</ele>
        <time>2022-08-20T12:12:14Z</time>
      </trkpt>
      <trkpt lat="25.4708820" lon="-100.9606070">
        <ele>1525.8</ele>
        <time>2022-08-20T12:12:16Z</time>
      </trkpt>
      <trkpt lat="25.4705380" lon="-100.9602460">
        <ele>1525.6</ele>
        <time>2022-08-20T12:12:23Z</time>
      </trkpt>
      <trkpt lat="25.4701380" lon="-100.9598240">
        <ele>1525.8</ele>
        <time>2022-08-20T12:12:31Z</time>
      </trkpt>
      <trkpt lat="25.4700360" lon="-100.9597150">
        <ele>1526.0</ele>
        <time>2022-08-20T12:12:33Z</time>
      </trkpt>
      <trkpt lat="25.4698250" lon="-100.9595060">
        <ele>1526.0</ele>
        <time>2022-08-20T12:12:37Z</time>
      </trkpt>
      <trkpt lat="25.4694270" lon="-100.9590780">
        <ele>1526.0</ele>
        <time>2022-08-20T12:12:45Z</time>
      </trkpt>
      <trkpt lat="25.4693370" lon="-100.9589670">
        <ele>1526.0</ele>
        <time>2022-08-20T12:12:47Z</time>
      </trkpt>
      <trkpt lat="25.4689640" lon="-100.9585130">
        <ele>1526.2</ele>
        <time>2022-08-20T12:12:55Z</time>
      </trkpt>
      <trkpt lat="25.4688670" lon="-100.9584040">
        <ele>1526.4</ele>
        <time>2022-08-20T12:12:57Z</time>
      </trkpt>
      <trkpt lat="25.4684770" lon="-100.9579730">
        <ele>1527.0</ele>
        <time>2022-08-20T12:13:05Z</time>
      </trkpt>
      <trkpt lat="25.4683810" lon="-100.9578640">
        <ele>1527.2</ele>
        <time>2022-08-20T12:13:07Z</time>
      </trkpt>
      <trkpt lat="25.4679910" lon="-100.9574380">
        <ele>1527.6</ele>
        <time>2022-08-20T12:13:15Z</time>
      </trkpt>
      <trkpt lat="25.4679420" lon="-100.9573850">
        <ele>1527.8</ele>
        <time>2022-08-20T12:13:16Z</time>
      </trkpt>
      <trkpt lat="25.4675470" lon="-100.9569520">
        <ele>1528.4</ele>
        <time>2022-08-20T12:13:24Z</time>
      </trkpt>
      <trkpt lat="25.4673510" lon="-100.9567380">
        <ele>1528.6</ele>
        <time>2022-08-20T12:13:28Z</time>
      </trkpt>
      <trkpt lat="25.4669570" lon="-100.9563160">
        <ele>1528.8</ele>
        <time>2022-08-20T12:13:36Z</time>
      </trkpt>
      <trkpt lat="25.4668120" lon="-100.9561560">
        <ele>1529.0</ele>
        <time>2022-08-20T12:13:39Z</time>
      </trkpt>
      <trkpt lat="25.4665200" lon="-100.9558320">
        <ele>1529.0</ele>
        <time>2022-08-20T12:13:45Z</time>
      </trkpt>
      <trkpt lat="25.4662780" lon="-100.9555670">
        <ele>1529.4</ele>
        <time>2022-08-20T12:13:50Z</time>
      </trkpt>
      <trkpt lat="25.4659390" lon="-100.9552010">
        <ele>1529.8</ele>
        <time>2022-08-20T12:13:57Z</time>
      </trkpt>
      <trkpt lat="25.4657440" lon="-100.9549870">
        <ele>1530.0</ele>
        <time>2022-08-20T12:14:01Z</time>
      </trkpt>
      <trkpt lat="25.4653430" lon="-100.9545680">
        <ele>1530.2</ele>
        <time>2022-08-20T12:14:09Z</time>
      </trkpt>
      <trkpt lat="25.4651900" lon="-100.9544190">
        <ele>1530.2</ele>
        <time>2022-08-20T12:14:12Z</time>
      </trkpt>
      <trkpt lat="25.4647850" lon="-100.9540170">
        <ele>1530.6</ele>
        <time>2022-08-20T12:14:20Z</time>
      </trkpt>
      <trkpt lat="25.4646360" lon="-100.9538620">
        <ele>1530.8</ele>
        <time>2022-08-20T12:14:23Z</time>
      </trkpt>
      <trkpt lat="25.4644260" lon="-100.9535770">
        <ele>1531.2</ele>
        <time>2022-08-20T12:14:28Z</time>
      </trkpt>
      <trkpt lat="25.4641650" lon="-100.9530880">
        <ele>1531.4</ele>
        <time>2022-08-20T12:14:35Z</time>
      </trkpt>
      <trkpt lat="25.4638870" lon="-100.9525640">
        <ele>1531.8</ele>
        <time>2022-08-20T12:14:42Z</time>
      </trkpt>
      <trkpt lat="25.4636850" lon="-100.9521740">
        <ele>1531.8</ele>
        <time>2022-08-20T12:14:47Z</time>
      </trkpt>
      <trkpt lat="25.4633690" lon="-100.9516180">
        <ele>1532.0</ele>
        <time>2022-08-20T12:14:54Z</time>
      </trkpt>
      <trkpt lat="25.4630630" lon="-100.9510740">
        <ele>1532.2</ele>
        <time>2022-08-20T12:15:01Z</time>
      </trkpt>
      <trkpt lat="25.4630190" lon="-100.9509970">
        <ele>1532.0</ele>
        <time>2022-08-20T12:15:02Z</time>
      </trkpt>
      <trkpt lat="25.4627080" lon="-100.9504580">
        <ele>1531.8</ele>
        <time>2022-08-20T12:15:09Z</time>
      </trkpt>
      <trkpt lat="25.4625780" lon="-100.9502340">
        <ele>1531.6</ele>
        <time>2022-08-20T12:15:12Z</time>
      </trkpt>
      <trkpt lat="25.4622330" lon="-100.9496850">
        <ele>1531.8</ele>
        <time>2022-08-20T12:15:20Z</time>
      </trkpt>
      <trkpt lat="25.4619480" lon="-100.9494220">
        <ele>1531.8</ele>
        <time>2022-08-20T12:15:25Z</time>
      </trkpt>
      <trkpt lat="25.4615940" lon="-100.9491570">
        <ele>1531.8</ele>
        <time>2022-08-20T12:15:31Z</time>
      </trkpt>
      <trkpt lat="25.4613120" lon="-100.9487880">
        <ele>1532.2</ele>
        <time>2022-08-20T12:15:37Z</time>
      </trkpt>
      <trkpt lat="25.4611310" lon="-100.9483400">
        <ele>1532.8</ele>
        <time>2022-08-20T12:15:43Z</time>
      </trkpt>
      <trkpt lat="25.4610790" lon="-100.9478530">
        <ele>1532.6</ele>
        <time>2022-08-20T12:15:49Z</time>
      </trkpt>
      <trkpt lat="25.4611480" lon="-100.9474350">
        <ele>1532.6</ele>
        <time>2022-08-20T12:15:54Z</time>
      </trkpt>
      <trkpt lat="25.4612490" lon="-100.9472010">
        <ele>1532.0</ele>
        <time>2022-08-20T12:15:57Z</time>
      </trkpt>
      <trkpt lat="25.4613380" lon="-100.9470470">
        <ele>1531.8</ele>
        <time>2022-08-20T12:15:59Z</time>
      </trkpt>
      <trkpt lat="25.4616430" lon="-100.9467010">
        <ele>1531.2</ele>
        <time>2022-08-20T12:16:04Z</time>
      </trkpt>
      <trkpt lat="25.4617100" lon="-100.9466290">
        <ele>1531.2</ele>
        <time>2022-08-20T12:16:05Z</time>
      </trkpt>
      <trkpt lat="25.4619820" lon="-100.9463330">
        <ele>1530.0</ele>
        <time>2022-08-20T12:16:09Z</time>
      </trkpt>
      <trkpt lat="25.4621220" lon="-100.9461820">
        <ele>1528.8</ele>
        <time>2022-08-20T12:16:11Z</time>
      </trkpt>
      <trkpt lat="25.4622670" lon="-100.9460280">
        <ele>1528.2</ele>
        <time>2022-08-20T12:16:13Z</time>
      </trkpt>
      <trkpt lat="25.4623400" lon="-100.9459510">
        <ele>1527.8</ele>
        <time>2022-08-20T12:16:14Z</time>
      </trkpt>
      <trkpt lat="25.4626390" lon="-100.9456370">
        <ele>1526.6</ele>
        <time>2022-08-20T12:16:18Z</time>
      </trkpt>
      <trkpt lat="25.4629400" lon="-100.9453200">
        <ele>1525.8</ele>
        <time>2022-08-20T12:16:22Z</time>
      </trkpt>
      <trkpt lat="25.4633170" lon="-100.9449350">
        <ele>1524.8</ele>
        <time>2022-08-20T12:16:27Z</time>
      </trkpt>
      <trkpt lat="25.4635700" lon="-100.9447330">
        <ele>1524.2</ele>
        <time>2022-08-20T12:16:30Z</time>
      </trkpt>
      <trkpt lat="25.4638280" lon="-100.9445330">
        <ele>1523.8</ele>
        <time>2022-08-20T12:16:33Z</time>
      </trkpt>
      <trkpt lat="25.4643400" lon="-100.9441350">
        <ele>1523.2</ele>
        <time>2022-08-20T12:16:39Z</time>
      </trkpt>
      <trkpt lat="25.4644270" lon="-100.9440700">
        <ele>1522.8</ele>
        <time>2022-08-20T12:16:40Z</time>
      </trkpt>
      <trkpt lat="25.4649160" lon="-100.9436450">
        <ele>1522.2</ele>
        <time>2022-08-20T12:16:46Z</time>
      </trkpt>
      <trkpt lat="25.4649830" lon="-100.9435610">
        <ele>1522.0</ele>
        <time>2022-08-20T12:16:47Z</time>
      </trkpt>
      <trkpt lat="25.4650510" lon="-100.9434730">
        <ele>1521.8</ele>
        <time>2022-08-20T12:16:48Z</time>
      </trkpt>
      <trkpt lat="25.4652850" lon="-100.9430950">
        <ele>1521.4</ele>
        <time>2022-08-20T12:16:52Z</time>
      </trkpt>
      <trkpt lat="25.4653780" lon="-100.9429000">
        <ele>1520.8</ele>
        <time>2022-08-20T12:16:54Z</time>
      </trkpt>
      <trkpt lat="25.4655260" lon="-100.9424970">
        <ele>1520.4</ele>
        <time>2022-08-20T12:16:58Z</time>
      </trkpt>
      <trkpt lat="25.4656220" lon="-100.9419810">
        <ele>1520.4</ele>
        <time>2022-08-20T12:17:03Z</time>
      </trkpt>
      <trkpt lat="25.4656290" lon="-100.9414970">
        <ele>1520.8</ele>
        <time>2022-08-20T12:17:08Z</time>
      </trkpt>
      <trkpt lat="25.4655640" lon="-100.9410630">
        <ele>1521.6</ele>
        <time>2022-08-20T12:17:13Z</time>
      </trkpt>
      <trkpt lat="25.4655230" lon="-100.9409050">
        <ele>1522.4</ele>
        <time>2022-08-20T12:17:15Z</time>
      </trkpt>
      <trkpt lat="25.4654170" lon="-100.9406120">
        <ele>1523.4</ele>
        <time>2022-08-20T12:17:19Z</time>
      </trkpt>
      <trkpt lat="25.4653530" lon="-100.9404790">
        <ele>1523.8</ele>
        <time>2022-08-20T12:17:21Z</time>
      </trkpt>
      <trkpt lat="25.4652720" lon="-100.9402790">
        <ele>1524.2</ele>
        <time>2022-08-20T12:17:24Z</time>
      </trkpt>
      <trkpt lat="25.4651840" lon="-100.9400850">
        <ele>1525.0</ele>
        <time>2022-08-20T12:17:27Z</time>
      </trkpt>
      <trkpt lat="25.4650530" lon="-100.9398380">
        <ele>1526.0</ele>
        <time>2022-08-20T12:17:31Z</time>
      </trkpt>
      <trkpt lat="25.4650210" lon="-100.9397770">
        <ele>1526.2</ele>
        <time>2022-08-20T12:17:32Z</time>
      </trkpt>
      <trkpt lat="25.4649910" lon="-100.9397160">
        <ele>1526.4</ele>
        <time>2022-08-20T12:17:33Z</time>
      </trkpt>
      <trkpt lat="25.4648060" lon="-100.9393500">
        <ele>1527.4</ele>
        <time>2022-08-20T12:17:39Z</time>
      </trkpt>
      <trkpt lat="25.4645580" lon="-100.9389360">
        <ele>1528.2</ele>
        <time>2022-08-20T12:17:46Z</time>
      </trkpt>
      <trkpt lat="25.4642160" lon="-100.9386230">
        <ele>1528.6</ele>
        <time>2022-08-20T12:17:53Z</time>
      </trkpt>
      <trkpt lat="25.4640510" lon="-100.9385260">
        <ele>1528.6</ele>
        <time>2022-08-20T12:17:56Z</time>
      </trkpt>
      <trkpt lat="25.4638190" lon="-100.9384300">
        <ele>1529.4</ele>
        <time>2022-08-20T12:18:00Z</time>
      </trkpt>
      <trkpt lat="25.4635160" lon="-100.9383250">
        <ele>1530.2</ele>
        <time>2022-08-20T12:18:05Z</time>
      </trkpt>
      <trkpt lat="25.4631400" lon="-100.9382020">
        <ele>1530.6</ele>
        <time>2022-08-20T12:18:11Z</time>
      </trkpt>
      <trkpt lat="25.4626470" lon="-100.9380400">
        <ele>1531.4</ele>
        <time>2022-08-20T12:18:19Z</time>
      </trkpt>
      <trkpt lat="25.4625240" lon="-100.9380020">
        <ele>1531.6</ele>
        <time>2022-08-20T12:18:21Z</time>
      </trkpt>
      <trkpt lat="25.4619840" lon="-100.9378280">
        <ele>1532.0</ele>
        <time>2022-08-20T12:18:30Z</time>
      </trkpt>
      <trkpt lat="25.4617070" lon="-100.9377220">
        <ele>1532.6</ele>
        <time>2022-08-20T12:18:35Z</time>
      </trkpt>
      <trkpt lat="25.4616030" lon="-100.9376630">
        <ele>1532.8</ele>
        <time>2022-08-20T12:18:37Z</time>
      </trkpt>
      <trkpt lat="25.4613320" lon="-100.9374210">
        <ele>1533.6</ele>
        <time>2022-08-20T12:18:43Z</time>
      </trkpt>
      <trkpt lat="25.4612950" lon="-100.9373730">
        <ele>1533.8</ele>
        <time>2022-08-20T12:18:44Z</time>
      </trkpt>
      <trkpt lat="25.4611090" lon="-100.9370500">
        <ele>1534.6</ele>
        <time>2022-08-20T12:18:50Z</time>
      </trkpt>
      <trkpt lat="25.4609990" lon="-100.9368140">
        <ele>1535.0</ele>
        <time>2022-08-20T12:18:54Z</time>
      </trkpt>
      <trkpt lat="25.4608330" lon="-100.9364690">
        <ele>1535.6</ele>
        <time>2022-08-20T12:19:00Z</time>
      </trkpt>
      <trkpt lat="25.4605760" lon="-100.9359290">
        <ele>1536.4</ele>
        <time>2022-08-20T12:19:10Z</time>
      </trkpt>
      <trkpt lat="25.4604380" lon="-100.9356390">
        <ele>1537.2</ele>
        <time>2022-08-20T12:19:17Z</time>
      </trkpt>
      <trkpt lat="25.4604110" lon="-100.9355790">
        <ele>1537.6</ele>
        <time>2022-08-20T12:19:19Z</time>
      </trkpt>
      <trkpt lat="25.4603840" lon="-100.9355160">
        <ele>1538.0</ele>
        <time>2022-08-20T12:19:22Z</time>
      </trkpt>
      <trkpt lat="25.4603590" lon="-100.9354520">
        <ele>1538.8</ele>
        <time>2022-08-20T12:19:29Z</time>
      </trkpt>
      <trkpt lat="25.4603560" lon="-100.9354460">
        <ele>1539.0</ele>
        <time>2022-08-20T12:19:30Z</time>
      </trkpt>
      <trkpt lat="25.4603380" lon="-100.9354120">
        <ele>1539.6</ele>
        <time>2022-08-20T12:19:36Z</time>
      </trkpt>
      <trkpt lat="25.4603380" lon="-100.9354090">
        <ele>1539.6</ele>
        <time>2022-08-20T12:19:42Z</time>
      </trkpt>
      <trkpt lat="25.4603380" lon="-100.9354090">
        <ele>1539.6</ele>
        <time>2022-08-20T12:19:51Z</time>
      </trkpt>
      <trkpt lat="25.4603380" lon="-100.9354090">
        <ele>1539.2</ele>
        <time>2022-08-20T12:20:07Z</time>
      </trkpt>
      <trkpt lat="25.4603230" lon="-100.9353680">
        <ele>1539.2</ele>
        <time>2022-08-20T12:20:11Z</time>
      </trkpt>
      <trkpt lat="25.4603040" lon="-100.9353310">
        <ele>1539.2</ele>
        <time>2022-08-20T12:20:12Z</time>
      </trkpt>
      <trkpt lat="25.4602330" lon="-100.9351870">
        <ele>1539.2</ele>
        <time>2022-08-20T12:20:15Z</time>
      </trkpt>
      <trkpt lat="25.4600650" lon="-100.9348380">
        <ele>1539.0</ele>
        <time>2022-08-20T12:20:21Z</time>
      </trkpt>
      <trkpt lat="25.4600090" lon="-100.9347200">
        <ele>1538.8</ele>
        <time>2022-08-20T12:20:23Z</time>
      </trkpt>
      <trkpt lat="25.4597610" lon="-100.9341910">
        <ele>1539.0</ele>
        <time>2022-08-20T12:20:32Z</time>
      </trkpt>
      <trkpt lat="25.4597060" lon="-100.9340740">
        <ele>1539.2</ele>
        <time>2022-08-20T12:20:34Z</time>
      </trkpt>
      <trkpt lat="25.4594340" lon="-100.9335080">
        <ele>1540.4</ele>
        <time>2022-08-20T12:20:44Z</time>
      </trkpt>
      <trkpt lat="25.4593810" lon="-100.9333980">
        <ele>1540.6</ele>
        <time>2022-08-20T12:20:46Z</time>
      </trkpt>
      <trkpt lat="25.4592510" lon="-100.9331240">
        <ele>1541.4</ele>
        <time>2022-08-20T12:20:51Z</time>
      </trkpt>
      <trkpt lat="25.4590690" lon="-100.9327380">
        <ele>1542.6</ele>
        <time>2022-08-20T12:20:58Z</time>
      </trkpt>
      <trkpt lat="25.4590420" lon="-100.9326840">
        <ele>1542.8</ele>
        <time>2022-08-20T12:20:59Z</time>
      </trkpt>
      <trkpt lat="25.4588540" lon="-100.9323010">
        <ele>1544.0</ele>
        <time>2022-08-20T12:21:06Z</time>
      </trkpt>
      <trkpt lat="25.4587990" lon="-100.9321910">
        <ele>1544.2</ele>
        <time>2022-08-20T12:21:08Z</time>
      </trkpt>
      <trkpt lat="25.4587140" lon="-100.9320270">
        <ele>1545.0</ele>
        <time>2022-08-20T12:21:11Z</time>
      </trkpt>
      <trkpt lat="25.4586010" lon="-100.9318070">
        <ele>1545.8</ele>
        <time>2022-08-20T12:21:15Z</time>
      </trkpt>
      <trkpt lat="25.4585740" lon="-100.9317520">
        <ele>1546.0</ele>
        <time>2022-08-20T12:21:16Z</time>
      </trkpt>
      <trkpt lat="25.4583220" lon="-100.9312620">
        <ele>1547.4</ele>
        <time>2022-08-20T12:21:25Z</time>
      </trkpt>
      <trkpt lat="25.4580710" lon="-100.9309980">
        <ele>1548.4</ele>
        <time>2022-08-20T12:21:31Z</time>
      </trkpt>
      <trkpt lat="25.4580220" lon="-100.9309650">
        <ele>1548.6</ele>
        <time>2022-08-20T12:21:32Z</time>
      </trkpt>
      <trkpt lat="25.4577570" lon="-100.9308470">
        <ele>1549.4</ele>
        <time>2022-08-20T12:21:37Z</time>
      </trkpt>
      <trkpt lat="25.4575860" lon="-100.9308120">
        <ele>1549.8</ele>
        <time>2022-08-20T12:21:40Z</time>
      </trkpt>
      <trkpt lat="25.4574080" lon="-100.9308000">
        <ele>1550.4</ele>
        <time>2022-08-20T12:21:43Z</time>
      </trkpt>
      <trkpt lat="25.4570440" lon="-100.9307750">
        <ele>1551.0</ele>
        <time>2022-08-20T12:21:49Z</time>
      </trkpt>
      <trkpt lat="25.4566800" lon="-100.9307530">
        <ele>1551.4</ele>
        <time>2022-08-20T12:21:55Z</time>
      </trkpt>
      <trkpt lat="25.4561420" lon="-100.9307210">
        <ele>1552.0</ele>
        <time>2022-08-20T12:22:04Z</time>
      </trkpt>
      <trkpt lat="25.4558410" lon="-100.9307200">
        <ele>1552.4</ele>
        <time>2022-08-20T12:22:09Z</time>
      </trkpt>
      <trkpt lat="25.4555840" lon="-100.9307330">
        <ele>1552.8</ele>
        <time>2022-08-20T12:22:13Z</time>
      </trkpt>
      <trkpt lat="25.4550060" lon="-100.9307890">
        <ele>1553.4</ele>
        <time>2022-08-20T12:22:22Z</time>
      </trkpt>
      <trkpt lat="25.4548780" lon="-100.9308000">
        <ele>1553.4</ele>
        <time>2022-08-20T12:22:24Z</time>
      </trkpt>
      <trkpt lat="25.4544290" lon="-100.9308470">
        <ele>1553.6</ele>
        <time>2022-08-20T12:22:31Z</time>
      </trkpt>
      <trkpt lat="25.4538690" lon="-100.9308980">
        <ele>1554.6</ele>
        <time>2022-08-20T12:22:40Z</time>
      </trkpt>
      <trkpt lat="25.4537490" lon="-100.9309090">
        <ele>1555.0</ele>
        <time>2022-08-20T12:22:42Z</time>
      </trkpt>
      <trkpt lat="25.4536900" lon="-100.9309150">
        <ele>1555.2</ele>
        <time>2022-08-20T12:22:43Z</time>
      </trkpt>
      <trkpt lat="25.4532890" lon="-100.9309450">
        <ele>1556.0</ele>
        <time>2022-08-20T12:22:50Z</time>
      </trkpt>
      <trkpt lat="25.4530600" lon="-100.9309370">
        <ele>1556.4</ele>
        <time>2022-08-20T12:22:54Z</time>
      </trkpt>
      <trkpt lat="25.4528340" lon="-100.9308970">
        <ele>1557.4</ele>
        <time>2022-08-20T12:22:58Z</time>
      </trkpt>
      <trkpt lat="25.4526620" lon="-100.9308710">
        <ele>1558.0</ele>
        <time>2022-08-20T12:23:01Z</time>
      </trkpt>
      <trkpt lat="25.4524390" lon="-100.9307980">
        <ele>1558.4</ele>
        <time>2022-08-20T12:23:05Z</time>
      </trkpt>
      <trkpt lat="25.4522230" lon="-100.9307030">
        <ele>1559.0</ele>
        <time>2022-08-20T12:23:09Z</time>
      </trkpt>
      <trkpt lat="25.4518430" lon="-100.9305100">
        <ele>1559.8</ele>
        <time>2022-08-20T12:23:16Z</time>
      </trkpt>
      <trkpt lat="25.4517350" lon="-100.9304640">
        <ele>1559.8</ele>
        <time>2022-08-20T12:23:18Z</time>
      </trkpt>
      <trkpt lat="25.4513190" lon="-100.9303460">
        <ele>1560.6</ele>
        <time>2022-08-20T12:23:26Z</time>
      </trkpt>
      <trkpt lat="25.4512700" lon="-100.9303390">
        <ele>1561.0</ele>
        <time>2022-08-20T12:23:27Z</time>
      </trkpt>
      <trkpt lat="25.4510690" lon="-100.9303160">
        <ele>1562.2</ele>
        <time>2022-08-20T12:23:31Z</time>
      </trkpt>
      <trkpt lat="25.4508650" lon="-100.9303110">
        <ele>1562.8</ele>
        <time>2022-08-20T12:23:35Z</time>
      </trkpt>
      <trkpt lat="25.4508130" lon="-100.9303140">
        <ele>1563.4</ele>
        <time>2022-08-20T12:23:36Z</time>
      </trkpt>
      <trkpt lat="25.4504970" lon="-100.9303370">
        <ele>1564.6</ele>
        <time>2022-08-20T12:23:42Z</time>
      </trkpt>
      <trkpt lat="25.4504450" lon="-100.9303420">
        <ele>1564.8</ele>
        <time>2022-08-20T12:23:43Z</time>
      </trkpt>
      <trkpt lat="25.4502400" lon="-100.9303640">
        <ele>1565.8</ele>
        <time>2022-08-20T12:23:47Z</time>
      </trkpt>
      <trkpt lat="25.4498860" lon="-100.9303730">
        <ele>1566.2</ele>
        <time>2022-08-20T12:23:54Z</time>
      </trkpt>
      <trkpt lat="25.4496460" lon="-100.9303440">
        <ele>1567.0</ele>
        <time>2022-08-20T12:23:59Z</time>
      </trkpt>
      <trkpt lat="25.4494530" lon="-100.9303290">
        <ele>1567.4</ele>
        <time>2022-08-20T12:24:03Z</time>
      </trkpt>
      <trkpt lat="25.4492480" lon="-100.9302980">
        <ele>1568.0</ele>
        <time>2022-08-20T12:24:07Z</time>
      </trkpt>
      <trkpt lat="25.4490880" lon="-100.9302550">
        <ele>1568.6</ele>
        <time>2022-08-20T12:24:10Z</time>
      </trkpt>
      <trkpt lat="25.4489330" lon="-100.9302110">
        <ele>1569.2</ele>
        <time>2022-08-20T12:24:13Z</time>
      </trkpt>
      <trkpt lat="25.4486330" lon="-100.9301290">
        <ele>1570.4</ele>
        <time>2022-08-20T12:24:19Z</time>
      </trkpt>
      <trkpt lat="25.4485840" lon="-100.9301140">
        <ele>1570.6</ele>
        <time>2022-08-20T12:24:20Z</time>
      </trkpt>
      <trkpt lat="25.4482840" lon="-100.9300440">
        <ele>1571.4</ele>
        <time>2022-08-20T12:24:26Z</time>
      </trkpt>
      <trkpt lat="25.4480900" lon="-100.9300200">
        <ele>1572.2</ele>
        <time>2022-08-20T12:24:30Z</time>
      </trkpt>
      <trkpt lat="25.4479920" lon="-100.9300130">
        <ele>1572.8</ele>
        <time>2022-08-20T12:24:32Z</time>
      </trkpt>
      <trkpt lat="25.4477490" lon="-100.9300160">
        <ele>1573.8</ele>
        <time>2022-08-20T12:24:37Z</time>
      </trkpt>
      <trkpt lat="25.4477000" lon="-100.9300220">
        <ele>1574.0</ele>
        <time>2022-08-20T12:24:38Z</time>
      </trkpt>
      <trkpt lat="25.4474570" lon="-100.9300520">
        <ele>1575.2</ele>
        <time>2022-08-20T12:24:43Z</time>
      </trkpt>
      <trkpt lat="25.4472650" lon="-100.9301010">
        <ele>1575.6</ele>
        <time>2022-08-20T12:24:47Z</time>
      </trkpt>
      <trkpt lat="25.4471190" lon="-100.9301420">
        <ele>1576.4</ele>
        <time>2022-08-20T12:24:50Z</time>
      </trkpt>
      <trkpt lat="25.4468820" lon="-100.9302110">
        <ele>1577.6</ele>
        <time>2022-08-20T12:24:55Z</time>
      </trkpt>
      <trkpt lat="25.4467840" lon="-100.9302400">
        <ele>1577.8</ele>
        <time>2022-08-20T12:24:57Z</time>
      </trkpt>
      <trkpt lat="25.4467350" lon="-100.9302530">
        <ele>1578.2</ele>
        <time>2022-08-20T12:24:58Z</time>
      </trkpt>
      <trkpt lat="25.4465830" lon="-100.9302780">
        <ele>1579.0</ele>
        <time>2022-08-20T12:25:01Z</time>
      </trkpt>
      <trkpt lat="25.4464830" lon="-100.9302840">
        <ele>1579.6</ele>
        <time>2022-08-20T12:25:03Z</time>
      </trkpt>
      <trkpt lat="25.4463810" lon="-100.9302870">
        <ele>1580.0</ele>
        <time>2022-08-20T12:25:05Z</time>
      </trkpt>
      <trkpt lat="25.4461260" lon="-100.9302450">
        <ele>1580.8</ele>
        <time>2022-08-20T12:25:10Z</time>
      </trkpt>
      <trkpt lat="25.4460770" lon="-100.9302310">
        <ele>1581.2</ele>
        <time>2022-08-20T12:25:11Z</time>
      </trkpt>
      <trkpt lat="25.4458330" lon="-100.9301320">
        <ele>1582.4</ele>
        <time>2022-08-20T12:25:16Z</time>
      </trkpt>
      <trkpt lat="25.4457850" lon="-100.9301070">
        <ele>1582.6</ele>
        <time>2022-08-20T12:25:17Z</time>
      </trkpt>
      <trkpt lat="25.4455200" lon="-100.9299100">
        <ele>1583.4</ele>
        <time>2022-08-20T12:25:23Z</time>
      </trkpt>
      <trkpt lat="25.4454790" lon="-100.9298700">
        <ele>1583.6</ele>
        <time>2022-08-20T12:25:24Z</time>
      </trkpt>
      <trkpt lat="25.4452790" lon="-100.9296510">
        <ele>1584.6</ele>
        <time>2022-08-20T12:25:29Z</time>
      </trkpt>
      <trkpt lat="25.4451130" lon="-100.9294570">
        <ele>1585.2</ele>
        <time>2022-08-20T12:25:33Z</time>
      </trkpt>
      <trkpt lat="25.4446910" lon="-100.9289880">
        <ele>1585.6</ele>
        <time>2022-08-20T12:25:43Z</time>
      </trkpt>
      <trkpt lat="25.4445590" lon="-100.9288560">
        <ele>1585.8</ele>
        <time>2022-08-20T12:25:46Z</time>
      </trkpt>
      <trkpt lat="25.4442820" lon="-100.9286160">
        <ele>1586.4</ele>
        <time>2022-08-20T12:25:52Z</time>
      </trkpt>
      <trkpt lat="25.4439650" lon="-100.9283670">
        <ele>1586.6</ele>
        <time>2022-08-20T12:25:58Z</time>
      </trkpt>
      <trkpt lat="25.4434650" lon="-100.9280570">
        <ele>1587.4</ele>
        <time>2022-08-20T12:26:07Z</time>
      </trkpt>
      <trkpt lat="25.4429310" lon="-100.9277830">
        <ele>1588.2</ele>
        <time>2022-08-20T12:26:17Z</time>
      </trkpt>
      <trkpt lat="25.4428810" lon="-100.9277480">
        <ele>1588.4</ele>
        <time>2022-08-20T12:26:18Z</time>
      </trkpt>
      <trkpt lat="25.4426240" lon="-100.9275780">
        <ele>1589.0</ele>
        <time>2022-08-20T12:26:23Z</time>
      </trkpt>
      <trkpt lat="25.4424160" lon="-100.9274780">
        <ele>1589.6</ele>
        <time>2022-08-20T12:26:27Z</time>
      </trkpt>
      <trkpt lat="25.4422760" lon="-100.9274110">
        <ele>1589.8</ele>
        <time>2022-08-20T12:26:30Z</time>
      </trkpt>
      <trkpt lat="25.4421140" lon="-100.9274040">
        <ele>1589.8</ele>
        <time>2022-08-20T12:26:34Z</time>
      </trkpt>
      <trkpt lat="25.4419690" lon="-100.9273530">
        <ele>1590.6</ele>
        <time>2022-08-20T12:26:39Z</time>
      </trkpt>
      <trkpt lat="25.4418550" lon="-100.9273170">
        <ele>1590.8</ele>
        <time>2022-08-20T12:26:43Z</time>
      </trkpt>
      <trkpt lat="25.4417630" lon="-100.9272870">
        <ele>1591.4</ele>
        <time>2022-08-20T12:26:46Z</time>
      </trkpt>
      <trkpt lat="25.4416390" lon="-100.9272510">
        <ele>1591.8</ele>
        <time>2022-08-20T12:26:50Z</time>
      </trkpt>
      <trkpt lat="25.4415370" lon="-100.9272310">
        <ele>1592.2</ele>
        <time>2022-08-20T12:26:53Z</time>
      </trkpt>
      <trkpt lat="25.4412580" lon="-100.9271870">
        <ele>1593.0</ele>
        <time>2022-08-20T12:27:01Z</time>
      </trkpt>
      <trkpt lat="25.4412250" lon="-100.9271840">
        <ele>1593.0</ele>
        <time>2022-08-20T12:27:02Z</time>
      </trkpt>
      <trkpt lat="25.4411180" lon="-100.9271470">
        <ele>1593.6</ele>
        <time>2022-08-20T12:27:05Z</time>
      </trkpt>
      <trkpt lat="25.4410760" lon="-100.9271180">
        <ele>1594.0</ele>
        <time>2022-08-20T12:27:06Z</time>
      </trkpt>
      <trkpt lat="25.4410340" lon="-100.9270820">
        <ele>1594.2</ele>
        <time>2022-08-20T12:27:07Z</time>
      </trkpt>
      <trkpt lat="25.4409500" lon="-100.9269970">
        <ele>1594.8</ele>
        <time>2022-08-20T12:27:09Z</time>
      </trkpt>
      <trkpt lat="25.4408730" lon="-100.9268980">
        <ele>1595.4</ele>
        <time>2022-08-20T12:27:11Z</time>
      </trkpt>
      <trkpt lat="25.4407080" lon="-100.9265650">
        <ele>1596.4</ele>
        <time>2022-08-20T12:27:17Z</time>
      </trkpt>
      <trkpt lat="25.4406010" lon="-100.9262830">
        <ele>1596.6</ele>
        <time>2022-08-20T12:27:22Z</time>
      </trkpt>
      <trkpt lat="25.4405300" lon="-100.9260500">
        <ele>1597.4</ele>
        <time>2022-08-20T12:27:26Z</time>
      </trkpt>
      <trkpt lat="25.4405060" lon="-100.9259290">
        <ele>1597.6</ele>
        <time>2022-08-20T12:27:28Z</time>
      </trkpt>
      <trkpt lat="25.4404550" lon="-100.9255600">
        <ele>1598.4</ele>
        <time>2022-08-20T12:27:34Z</time>
      </trkpt>
      <trkpt lat="25.4404660" lon="-100.9250440">
        <ele>1598.8</ele>
        <time>2022-08-20T12:27:42Z</time>
      </trkpt>
      <trkpt lat="25.4405540" lon="-100.9244750">
        <ele>1598.8</ele>
        <time>2022-08-20T12:27:50Z</time>
      </trkpt>
      <trkpt lat="25.4406610" lon="-100.9238550">
        <ele>1598.6</ele>
        <time>2022-08-20T12:27:58Z</time>
      </trkpt>
      <trkpt lat="25.4407640" lon="-100.9232040">
        <ele>1598.0</ele>
        <time>2022-08-20T12:28:06Z</time>
      </trkpt>
      <trkpt lat="25.4408150" lon="-100.9228730">
        <ele>1598.0</ele>
        <time>2022-08-20T12:28:10Z</time>
      </trkpt>
      <trkpt lat="25.4409080" lon="-100.9222090">
        <ele>1598.0</ele>
        <time>2022-08-20T12:28:18Z</time>
      </trkpt>
      <trkpt lat="25.4409440" lon="-100.9219590">
        <ele>1598.0</ele>
        <time>2022-08-20T12:28:21Z</time>
      </trkpt>
      <trkpt lat="25.4410420" lon="-100.9212930">
        <ele>1597.8</ele>
        <time>2022-08-20T12:28:29Z</time>
      </trkpt>
      <trkpt lat="25.4410540" lon="-100.9212110">
        <ele>1597.8</ele>
        <time>2022-08-20T12:28:30Z</time>
      </trkpt>
      <trkpt lat="25.4411040" lon="-100.9208830">
        <ele>1597.4</ele>
        <time>2022-08-20T12:28:34Z</time>
      </trkpt>
      <trkpt lat="25.4412070" lon="-100.9202330">
        <ele>1597.4</ele>
        <time>2022-08-20T12:28:42Z</time>
      </trkpt>
      <trkpt lat="25.4412150" lon="-100.9201510">
        <ele>1597.4</ele>
        <time>2022-08-20T12:28:43Z</time>
      </trkpt>
      <trkpt lat="25.4413040" lon="-100.9194990">
        <ele>1597.8</ele>
        <time>2022-08-20T12:28:51Z</time>
      </trkpt>
      <trkpt lat="25.4413300" lon="-100.9193360">
        <ele>1597.8</ele>
        <time>2022-08-20T12:28:53Z</time>
      </trkpt>
      <trkpt lat="25.4414260" lon="-100.9186840">
        <ele>1598.0</ele>
        <time>2022-08-20T12:29:01Z</time>
      </trkpt>
      <trkpt lat="25.4414620" lon="-100.9184420">
        <ele>1598.0</ele>
        <time>2022-08-20T12:29:04Z</time>
      </trkpt>
      <trkpt lat="25.4415570" lon="-100.9177930">
        <ele>1598.0</ele>
        <time>2022-08-20T12:29:12Z</time>
      </trkpt>
      <trkpt lat="25.4415940" lon="-100.9175460">
        <ele>1598.2</ele>
        <time>2022-08-20T12:29:15Z</time>
      </trkpt>
      <trkpt lat="25.4416930" lon="-100.9168840">
        <ele>1598.4</ele>
        <time>2022-08-20T12:29:23Z</time>
      </trkpt>
      <trkpt lat="25.4417300" lon="-100.9166340">
        <ele>1598.4</ele>
        <time>2022-08-20T12:29:26Z</time>
      </trkpt>
      <trkpt lat="25.4418180" lon="-100.9159820">
        <ele>1598.6</ele>
        <time>2022-08-20T12:29:34Z</time>
      </trkpt>
      <trkpt lat="25.4418500" lon="-100.9157480">
        <ele>1598.6</ele>
        <time>2022-08-20T12:29:37Z</time>
      </trkpt>
      <trkpt lat="25.4419410" lon="-100.9150960">
        <ele>1599.0</ele>
        <time>2022-08-20T12:29:46Z</time>
      </trkpt>
      <trkpt lat="25.4419510" lon="-100.9150320">
        <ele>1599.2</ele>
        <time>2022-08-20T12:29:47Z</time>
      </trkpt>
      <trkpt lat="25.4419890" lon="-100.9147810">
        <ele>1599.6</ele>
        <time>2022-08-20T12:29:51Z</time>
      </trkpt>
      <trkpt lat="25.4420230" lon="-100.9145760">
        <ele>1599.6</ele>
        <time>2022-08-20T12:29:54Z</time>
      </trkpt>
      <trkpt lat="25.4421220" lon="-100.9139500">
        <ele>1600.0</ele>
        <time>2022-08-20T12:30:03Z</time>
      </trkpt>
      <trkpt lat="25.4421420" lon="-100.9138170">
        <ele>1600.4</ele>
        <time>2022-08-20T12:30:05Z</time>
      </trkpt>
      <trkpt lat="25.4422040" lon="-100.9134030">
        <ele>1600.8</ele>
        <time>2022-08-20T12:30:11Z</time>
      </trkpt>
      <trkpt lat="25.4422390" lon="-100.9131690">
        <ele>1601.4</ele>
        <time>2022-08-20T12:30:14Z</time>
      </trkpt>
      <trkpt lat="25.4423180" lon="-100.9125660">
        <ele>1602.0</ele>
        <time>2022-08-20T12:30:21Z</time>
      </trkpt>
      <trkpt lat="25.4423270" lon="-100.9124790">
        <ele>1602.0</ele>
        <time>2022-08-20T12:30:22Z</time>
      </trkpt>
      <trkpt lat="25.4424120" lon="-100.9118830">
        <ele>1602.2</ele>
        <time>2022-08-20T12:30:29Z</time>
      </trkpt>
      <trkpt lat="25.4424590" lon="-100.9115550">
        <ele>1602.2</ele>
        <time>2022-08-20T12:30:33Z</time>
      </trkpt>
      <trkpt lat="25.4425490" lon="-100.9109210">
        <ele>1602.6</ele>
        <time>2022-08-20T12:30:41Z</time>
      </trkpt>
      <trkpt lat="25.4425720" lon="-100.9107660">
        <ele>1603.0</ele>
        <time>2022-08-20T12:30:43Z</time>
      </trkpt>
      <trkpt lat="25.4426270" lon="-100.9103850">
        <ele>1603.2</ele>
        <time>2022-08-20T12:30:48Z</time>
      </trkpt>
      <trkpt lat="25.4427150" lon="-100.9097730">
        <ele>1603.6</ele>
        <time>2022-08-20T12:30:56Z</time>
      </trkpt>
      <trkpt lat="25.4427260" lon="-100.9096970">
        <ele>1603.6</ele>
        <time>2022-08-20T12:30:57Z</time>
      </trkpt>
      <trkpt lat="25.4427920" lon="-100.9092410">
        <ele>1604.4</ele>
        <time>2022-08-20T12:31:03Z</time>
      </trkpt>
      <trkpt lat="25.4428700" lon="-100.9086930">
        <ele>1604.8</ele>
        <time>2022-08-20T12:31:10Z</time>
      </trkpt>
      <trkpt lat="25.4429610" lon="-100.9080750">
        <ele>1605.2</ele>
        <time>2022-08-20T12:31:18Z</time>
      </trkpt>
      <trkpt lat="25.4430000" lon="-100.9077620">
        <ele>1605.4</ele>
        <time>2022-08-20T12:31:22Z</time>
      </trkpt>
      <trkpt lat="25.4430790" lon="-100.9072150">
        <ele>1605.8</ele>
        <time>2022-08-20T12:31:29Z</time>
      </trkpt>
      <trkpt lat="25.4431230" lon="-100.9068990">
        <ele>1605.8</ele>
        <time>2022-08-20T12:31:33Z</time>
      </trkpt>
      <trkpt lat="25.4432150" lon="-100.9062710">
        <ele>1606.4</ele>
        <time>2022-08-20T12:31:41Z</time>
      </trkpt>
      <trkpt lat="25.4432610" lon="-100.9059570">
        <ele>1606.4</ele>
        <time>2022-08-20T12:31:45Z</time>
      </trkpt>
      <trkpt lat="25.4433590" lon="-100.9053210">
        <ele>1606.8</ele>
        <time>2022-08-20T12:31:53Z</time>
      </trkpt>
      <trkpt lat="25.4433860" lon="-100.9051600">
        <ele>1607.0</ele>
        <time>2022-08-20T12:31:55Z</time>
      </trkpt>
      <trkpt lat="25.4434060" lon="-100.9050000">
        <ele>1607.2</ele>
        <time>2022-08-20T12:31:57Z</time>
      </trkpt>
      <trkpt lat="25.4435020" lon="-100.9043630">
        <ele>1607.6</ele>
        <time>2022-08-20T12:32:05Z</time>
      </trkpt>
      <trkpt lat="25.4435690" lon="-100.9038860">
        <ele>1607.8</ele>
        <time>2022-08-20T12:32:11Z</time>
      </trkpt>
      <trkpt lat="25.4435810" lon="-100.9038060">
        <ele>1608.0</ele>
        <time>2022-08-20T12:32:12Z</time>
      </trkpt>
      <trkpt lat="25.4436440" lon="-100.9033270">
        <ele>1608.2</ele>
        <time>2022-08-20T12:32:18Z</time>
      </trkpt>
      <trkpt lat="25.4436870" lon="-100.9030030">
        <ele>1608.8</ele>
        <time>2022-08-20T12:32:22Z</time>
      </trkpt>
      <trkpt lat="25.4437450" lon="-100.9025970">
        <ele>1609.4</ele>
        <time>2022-08-20T12:32:27Z</time>
      </trkpt>
      <trkpt lat="25.4438280" lon="-100.9020230">
        <ele>1609.8</ele>
        <time>2022-08-20T12:32:34Z</time>
      </trkpt>
      <trkpt lat="25.4439180" lon="-100.9013820">
        <ele>1610.4</ele>
        <time>2022-08-20T12:32:42Z</time>
      </trkpt>
      <trkpt lat="25.4439410" lon="-100.9012230">
        <ele>1610.4</ele>
        <time>2022-08-20T12:32:44Z</time>
      </trkpt>
      <trkpt lat="25.4440300" lon="-100.9005920">
        <ele>1610.6</ele>
        <time>2022-08-20T12:32:52Z</time>
      </trkpt>
      <trkpt lat="25.4440770" lon="-100.9002730">
        <ele>1610.6</ele>
        <time>2022-08-20T12:32:56Z</time>
      </trkpt>
      <trkpt lat="25.4441700" lon="-100.8996260">
        <ele>1611.4</ele>
        <time>2022-08-20T12:33:04Z</time>
      </trkpt>
      <trkpt lat="25.4442140" lon="-100.8993050">
        <ele>1611.6</ele>
        <time>2022-08-20T12:33:08Z</time>
      </trkpt>
      <trkpt lat="25.4443050" lon="-100.8986690">
        <ele>1611.6</ele>
        <time>2022-08-20T12:33:16Z</time>
      </trkpt>
      <trkpt lat="25.4443370" lon="-100.8984340">
        <ele>1611.8</ele>
        <time>2022-08-20T12:33:19Z</time>
      </trkpt>
      <trkpt lat="25.4443700" lon="-100.8982020">
        <ele>1612.2</ele>
        <time>2022-08-20T12:33:22Z</time>
      </trkpt>
      <trkpt lat="25.4444580" lon="-100.8975880">
        <ele>1612.8</ele>
        <time>2022-08-20T12:33:30Z</time>
      </trkpt>
      <trkpt lat="25.4445000" lon="-100.8972880">
        <ele>1613.2</ele>
        <time>2022-08-20T12:33:34Z</time>
      </trkpt>
      <trkpt lat="25.4445580" lon="-100.8968690">
        <ele>1614.0</ele>
        <time>2022-08-20T12:33:40Z</time>
      </trkpt>
      <trkpt lat="25.4445880" lon="-100.8966640">
        <ele>1614.6</ele>
        <time>2022-08-20T12:33:43Z</time>
      </trkpt>
      <trkpt lat="25.4446460" lon="-100.8962540">
        <ele>1615.6</ele>
        <time>2022-08-20T12:33:49Z</time>
      </trkpt>
      <trkpt lat="25.4446640" lon="-100.8961160">
        <ele>1615.6</ele>
        <time>2022-08-20T12:33:51Z</time>
      </trkpt>
      <trkpt lat="25.4447500" lon="-100.8955010">
        <ele>1616.4</ele>
        <time>2022-08-20T12:34:00Z</time>
      </trkpt>
      <trkpt lat="25.4447690" lon="-100.8953670">
        <ele>1616.6</ele>
        <time>2022-08-20T12:34:02Z</time>
      </trkpt>
      <trkpt lat="25.4448040" lon="-100.8951050">
        <ele>1616.8</ele>
        <time>2022-08-20T12:34:06Z</time>
      </trkpt>
      <trkpt lat="25.4448490" lon="-100.8947930">
        <ele>1617.0</ele>
        <time>2022-08-20T12:34:11Z</time>
      </trkpt>
      <trkpt lat="25.4449580" lon="-100.8941870">
        <ele>1617.8</ele>
        <time>2022-08-20T12:34:21Z</time>
      </trkpt>
      <trkpt lat="25.4449720" lon="-100.8941260">
        <ele>1617.8</ele>
        <time>2022-08-20T12:34:22Z</time>
      </trkpt>
      <trkpt lat="25.4449870" lon="-100.8940660">
        <ele>1617.8</ele>
        <time>2022-08-20T12:34:23Z</time>
      </trkpt>
      <trkpt lat="25.4451250" lon="-100.8935140">
        <ele>1619.0</ele>
        <time>2022-08-20T12:34:32Z</time>
      </trkpt>
      <trkpt lat="25.4451620" lon="-100.8933930">
        <ele>1619.4</ele>
        <time>2022-08-20T12:34:34Z</time>
      </trkpt>
      <trkpt lat="25.4453390" lon="-100.8928570">
        <ele>1620.0</ele>
        <time>2022-08-20T12:34:43Z</time>
      </trkpt>
      <trkpt lat="25.4454020" lon="-100.8926780">
        <ele>1620.4</ele>
        <time>2022-08-20T12:34:46Z</time>
      </trkpt>
      <trkpt lat="25.4455840" lon="-100.8922220">
        <ele>1620.4</ele>
        <time>2022-08-20T12:34:54Z</time>
      </trkpt>
      <trkpt lat="25.4458170" lon="-100.8917080">
        <ele>1620.4</ele>
        <time>2022-08-20T12:35:04Z</time>
      </trkpt>
      <trkpt lat="25.4459340" lon="-100.8914530">
        <ele>1620.8</ele>
        <time>2022-08-20T12:35:11Z</time>
      </trkpt>
      <trkpt lat="25.4459820" lon="-100.8913500">
        <ele>1621.6</ele>
        <time>2022-08-20T12:35:16Z</time>
      </trkpt>
      <trkpt lat="25.4459880" lon="-100.8913370">
        <ele>1621.6</ele>
        <time>2022-08-20T12:35:17Z</time>
      </trkpt>
      <trkpt lat="25.4460230" lon="-100.8912450">
        <ele>1622.6</ele>
        <time>2022-08-20T12:35:24Z</time>
      </trkpt>
      <trkpt lat="25.4460310" lon="-100.8912280">
        <ele>1622.8</ele>
        <time>2022-08-20T12:35:26Z</time>
      </trkpt>
      <trkpt lat="25.4460350" lon="-100.8912260">
        <ele>1623.0</ele>
        <time>2022-08-20T12:35:31Z</time>
      </trkpt>
      <trkpt lat="25.4460350" lon="-100.8912280">
        <ele>1623.2</ele>
        <time>2022-08-20T12:35:56Z</time>
      </trkpt>
      <trkpt lat="25.4460350" lon="-100.8912280">
        <ele>1623.4</ele>
        <time>2022-08-20T12:36:06Z</time>
      </trkpt>
      <trkpt lat="25.4460570" lon="-100.8911730">
        <ele>1623.4</ele>
        <time>2022-08-20T12:36:18Z</time>
      </trkpt>
      <trkpt lat="25.4461370" lon="-100.8910240">
        <ele>1623.4</ele>
        <time>2022-08-20T12:36:22Z</time>
      </trkpt>
      <trkpt lat="25.4462960" lon="-100.8906630">
        <ele>1623.0</ele>
        <time>2022-08-20T12:36:29Z</time>
      </trkpt>
      <trkpt lat="25.4465220" lon="-100.8901720">
        <ele>1622.4</ele>
        <time>2022-08-20T12:36:38Z</time>
      </trkpt>
      <trkpt lat="25.4467810" lon="-100.8896130">
        <ele>1622.8</ele>
        <time>2022-08-20T12:36:48Z</time>
      </trkpt>
      <trkpt lat="25.4468380" lon="-100.8895020">
        <ele>1623.2</ele>
        <time>2022-08-20T12:36:50Z</time>
      </trkpt>
      <trkpt lat="25.4471140" lon="-100.8889250">
        <ele>1623.6</ele>
        <time>2022-08-20T12:37:00Z</time>
      </trkpt>
      <trkpt lat="25.4473900" lon="-100.8883400">
        <ele>1623.4</ele>
        <time>2022-08-20T12:37:10Z</time>
      </trkpt>
      <trkpt lat="25.4475080" lon="-100.8880940">
        <ele>1623.2</ele>
        <time>2022-08-20T12:37:14Z</time>
      </trkpt>
      <trkpt lat="25.4477690" lon="-100.8875320">
        <ele>1623.4</ele>
        <time>2022-08-20T12:37:23Z</time>
      </trkpt>
      <trkpt lat="25.4478280" lon="-100.8874090">
        <ele>1623.2</ele>
        <time>2022-08-20T12:37:25Z</time>
      </trkpt>
      <trkpt lat="25.4481320" lon="-100.8868660">
        <ele>1623.0</ele>
        <time>2022-08-20T12:37:34Z</time>
      </trkpt>
      <trkpt lat="25.4481720" lon="-100.8868090">
        <ele>1623.0</ele>
        <time>2022-08-20T12:37:35Z</time>
      </trkpt>
      <trkpt lat="25.4484910" lon="-100.8864090">
        <ele>1623.0</ele>
        <time>2022-08-20T12:37:42Z</time>
      </trkpt>
      <trkpt lat="25.4488810" lon="-100.8860130">
        <ele>1622.4</ele>
        <time>2022-08-20T12:37:49Z</time>
      </trkpt>
      <trkpt lat="25.4490540" lon="-100.8858470">
        <ele>1622.0</ele>
        <time>2022-08-20T12:37:52Z</time>
      </trkpt>
      <trkpt lat="25.4492250" lon="-100.8856800">
        <ele>1621.4</ele>
        <time>2022-08-20T12:37:55Z</time>
      </trkpt>
      <trkpt lat="25.4496600" lon="-100.8852590">
        <ele>1620.6</ele>
        <time>2022-08-20T12:38:03Z</time>
      </trkpt>
      <trkpt lat="25.4500850" lon="-100.8848470">
        <ele>1620.6</ele>
        <time>2022-08-20T12:38:11Z</time>
      </trkpt>
      <trkpt lat="25.4502370" lon="-100.8846970">
        <ele>1621.0</ele>
        <time>2022-08-20T12:38:14Z</time>
      </trkpt>
      <trkpt lat="25.4505330" lon="-100.8843300">
        <ele>1621.8</ele>
        <time>2022-08-20T12:38:21Z</time>
      </trkpt>
      <trkpt lat="25.4505620" lon="-100.8842730">
        <ele>1621.8</ele>
        <time>2022-08-20T12:38:22Z</time>
      </trkpt>
      <trkpt lat="25.4506560" lon="-100.8840530">
        <ele>1622.2</ele>
        <time>2022-08-20T12:38:26Z</time>
      </trkpt>
      <trkpt lat="25.4506720" lon="-100.8840000">
        <ele>1622.4</ele>
        <time>2022-08-20T12:38:27Z</time>
      </trkpt>
      <trkpt lat="25.4507200" lon="-100.8838000">
        <ele>1622.8</ele>
        <time>2022-08-20T12:38:31Z</time>
      </trkpt>
      <trkpt lat="25.4507420" lon="-100.8836510">
        <ele>1623.6</ele>
        <time>2022-08-20T12:38:34Z</time>
      </trkpt>
      <trkpt lat="25.4507460" lon="-100.8836020">
        <ele>1623.8</ele>
        <time>2022-08-20T12:38:35Z</time>
      </trkpt>
      <trkpt lat="25.4507430" lon="-100.8834010">
        <ele>1624.8</ele>
        <time>2022-08-20T12:38:39Z</time>
      </trkpt>
      <trkpt lat="25.4507250" lon="-100.8832520">
        <ele>1625.4</ele>
        <time>2022-08-20T12:38:42Z</time>
      </trkpt>
      <trkpt lat="25.4506970" lon="-100.8831030">
        <ele>1625.8</ele>
        <time>2022-08-20T12:38:45Z</time>
      </trkpt>
      <trkpt lat="25.4506310" lon="-100.8828610">
        <ele>1626.6</ele>
        <time>2022-08-20T12:38:50Z</time>
      </trkpt>
      <trkpt lat="25.4505490" lon="-100.8826390">
        <ele>1627.0</ele>
        <time>2022-08-20T12:38:55Z</time>
      </trkpt>
      <trkpt lat="25.4505040" lon="-100.8825600">
        <ele>1627.4</ele>
        <time>2022-08-20T12:38:57Z</time>
      </trkpt>
      <trkpt lat="25.4503880" lon="-100.8823560">
        <ele>1628.2</ele>
        <time>2022-08-20T12:39:02Z</time>
      </trkpt>
      <trkpt lat="25.4503170" lon="-100.8822320">
        <ele>1628.8</ele>
        <time>2022-08-20T12:39:05Z</time>
      </trkpt>
      <trkpt lat="25.4502480" lon="-100.8821110">
        <ele>1629.2</ele>
        <time>2022-08-20T12:39:08Z</time>
      </trkpt>
      <trkpt lat="25.4501530" lon="-100.8819420">
        <ele>1629.8</ele>
        <time>2022-08-20T12:39:12Z</time>
      </trkpt>
      <trkpt lat="25.4501050" lon="-100.8818560">
        <ele>1630.4</ele>
        <time>2022-08-20T12:39:14Z</time>
      </trkpt>
      <trkpt lat="25.4499370" lon="-100.8815470">
        <ele>1631.6</ele>
        <time>2022-08-20T12:39:21Z</time>
      </trkpt>
      <trkpt lat="25.4498930" lon="-100.8814590">
        <ele>1632.0</ele>
        <time>2022-08-20T12:39:23Z</time>
      </trkpt>
      <trkpt lat="25.4497120" lon="-100.8811140">
        <ele>1633.0</ele>
        <time>2022-08-20T12:39:31Z</time>
      </trkpt>
      <trkpt lat="25.4494690" lon="-100.8806610">
        <ele>1634.0</ele>
        <time>2022-08-20T12:39:41Z</time>
      </trkpt>
      <trkpt lat="25.4494190" lon="-100.8805680">
        <ele>1634.0</ele>
        <time>2022-08-20T12:39:43Z</time>
      </trkpt>
      <trkpt lat="25.4492470" lon="-100.8802440">
        <ele>1635.2</ele>
        <time>2022-08-20T12:39:50Z</time>
      </trkpt>
      <trkpt lat="25.4491460" lon="-100.8800550">
        <ele>1635.4</ele>
        <time>2022-08-20T12:39:54Z</time>
      </trkpt>
      <trkpt lat="25.4488950" lon="-100.8795970">
        <ele>1635.6</ele>
        <time>2022-08-20T12:40:04Z</time>
      </trkpt>
      <trkpt lat="25.4487750" lon="-100.8793740">
        <ele>1636.2</ele>
        <time>2022-08-20T12:40:09Z</time>
      </trkpt>
      <trkpt lat="25.4486090" lon="-100.8790600">
        <ele>1636.6</ele>
        <time>2022-08-20T12:40:16Z</time>
      </trkpt>
      <trkpt lat="25.4485420" lon="-100.8789220">
        <ele>1637.4</ele>
        <time>2022-08-20T12:40:19Z</time>
      </trkpt>
      <trkpt lat="25.4484270" lon="-100.8786930">
        <ele>1638.2</ele>
        <time>2022-08-20T12:40:24Z</time>
      </trkpt>
      <trkpt lat="25.4483630" lon="-100.8785520">
        <ele>1638.6</ele>
        <time>2022-08-20T12:40:27Z</time>
      </trkpt>
      <trkpt lat="25.4482600" lon="-100.8782670">
        <ele>1639.8</ele>
        <time>2022-08-20T12:40:33Z</time>
      </trkpt>
      <trkpt lat="25.4481540" lon="-100.8779160">
        <ele>1640.8</ele>
        <time>2022-08-20T12:40:40Z</time>
      </trkpt>
      <trkpt lat="25.4481090" lon="-100.8777650">
        <ele>1641.4</ele>
        <time>2022-08-20T12:40:43Z</time>
      </trkpt>
      <trkpt lat="25.4480570" lon="-100.8775580">
        <ele>1641.8</ele>
        <time>2022-08-20T12:40:47Z</time>
      </trkpt>
      <trkpt lat="25.4479950" lon="-100.8772440">
        <ele>1642.6</ele>
        <time>2022-08-20T12:40:53Z</time>
      </trkpt>
      <trkpt lat="25.4479660" lon="-100.8770890">
        <ele>1643.2</ele>
        <time>2022-08-20T12:40:56Z</time>
      </trkpt>
      <trkpt lat="25.4479170" lon="-100.8767260">
        <ele>1644.0</ele>
        <time>2022-08-20T12:41:03Z</time>
      </trkpt>
      <trkpt lat="25.4478980" lon="-100.8765170">
        <ele>1644.4</ele>
        <time>2022-08-20T12:41:07Z</time>
      </trkpt>
      <trkpt lat="25.4478760" lon="-100.8761990">
        <ele>1645.0</ele>
        <time>2022-08-20T12:41:13Z</time>
      </trkpt>
      <trkpt lat="25.4478710" lon="-100.8760950">
        <ele>1645.4</ele>
        <time>2022-08-20T12:41:15Z</time>
      </trkpt>
      <trkpt lat="25.4478740" lon="-100.8757250">
        <ele>1646.0</ele>
        <time>2022-08-20T12:41:22Z</time>
      </trkpt>
      <trkpt lat="25.4478760" lon="-100.8755110">
        <ele>1646.6</ele>
        <time>2022-08-20T12:41:26Z</time>
      </trkpt>
      <trkpt lat="25.4478970" lon="-100.8751930">
        <ele>1647.0</ele>
        <time>2022-08-20T12:41:32Z</time>
      </trkpt>
      <trkpt lat="25.4479150" lon="-100.8750340">
        <ele>1647.8</ele>
        <time>2022-08-20T12:41:35Z</time>
      </trkpt>
      <trkpt lat="25.4479530" lon="-100.8747650">
        <ele>1648.8</ele>
        <time>2022-08-20T12:41:40Z</time>
      </trkpt>
      <trkpt lat="25.4479860" lon="-100.8745530">
        <ele>1649.4</ele>
        <time>2022-08-20T12:41:44Z</time>
      </trkpt>
      <trkpt lat="25.4480250" lon="-100.8742880">
        <ele>1650.0</ele>
        <time>2022-08-20T12:41:49Z</time>
      </trkpt>
      <trkpt lat="25.4480830" lon="-100.8739260">
        <ele>1650.8</ele>
        <time>2022-08-20T12:41:56Z</time>
      </trkpt>
      <trkpt lat="25.4481170" lon="-100.8737210">
        <ele>1651.2</ele>
        <time>2022-08-20T12:42:00Z</time>
      </trkpt>
      <trkpt lat="25.4481670" lon="-100.8734080">
        <ele>1651.8</ele>
        <time>2022-08-20T12:42:06Z</time>
      </trkpt>
      <trkpt lat="25.4481840" lon="-100.8733020">
        <ele>1652.2</ele>
        <time>2022-08-20T12:42:08Z</time>
      </trkpt>
      <trkpt lat="25.4482400" lon="-100.8729470">
        <ele>1653.4</ele>
        <time>2022-08-20T12:42:15Z</time>
      </trkpt>
      <trkpt lat="25.4482460" lon="-100.8728930">
        <ele>1653.6</ele>
        <time>2022-08-20T12:42:16Z</time>
      </trkpt>
      <trkpt lat="25.4483030" lon="-100.8725350">
        <ele>1654.6</ele>
        <time>2022-08-20T12:42:23Z</time>
      </trkpt>
      <trkpt lat="25.4483310" lon="-100.8723300">
        <ele>1655.2</ele>
        <time>2022-08-20T12:42:27Z</time>
      </trkpt>
      <trkpt lat="25.4483540" lon="-100.8721790">
        <ele>1655.6</ele>
        <time>2022-08-20T12:42:30Z</time>
      </trkpt>
      <trkpt lat="25.4484220" lon="-100.8717210">
        <ele>1656.8</ele>
        <time>2022-08-20T12:42:39Z</time>
      </trkpt>
      <trkpt lat="25.4484300" lon="-100.8716690">
        <ele>1657.0</ele>
        <time>2022-08-20T12:42:40Z</time>
      </trkpt>
      <trkpt lat="25.4484820" lon="-100.8713060">
        <ele>1658.0</ele>
        <time>2022-08-20T12:42:47Z</time>
      </trkpt>
      <trkpt lat="25.4485040" lon="-100.8711510">
        <ele>1658.6</ele>
        <time>2022-08-20T12:42:50Z</time>
      </trkpt>
      <trkpt lat="25.4485280" lon="-100.8709990">
        <ele>1659.0</ele>
        <time>2022-08-20T12:42:53Z</time>
      </trkpt>
      <trkpt lat="25.4485830" lon="-100.8706360">
        <ele>1659.8</ele>
        <time>2022-08-20T12:43:00Z</time>
      </trkpt>
      <trkpt lat="25.4486010" lon="-100.8705340">
        <ele>1660.0</ele>
        <time>2022-08-20T12:43:02Z</time>
      </trkpt>
      <trkpt lat="25.4486640" lon="-100.8701190">
        <ele>1660.8</ele>
        <time>2022-08-20T12:43:10Z</time>
      </trkpt>
      <trkpt lat="25.4486800" lon="-100.8700140">
        <ele>1661.2</ele>
        <time>2022-08-20T12:43:12Z</time>
      </trkpt>
      <trkpt lat="25.4487460" lon="-100.8695890">
        <ele>1662.2</ele>
        <time>2022-08-20T12:43:20Z</time>
      </trkpt>
      <trkpt lat="25.4488240" lon="-100.8690450">
        <ele>1663.2</ele>
        <time>2022-08-20T12:43:30Z</time>
      </trkpt>
      <trkpt lat="25.4488320" lon="-100.8689910">
        <ele>1663.4</ele>
        <time>2022-08-20T12:43:31Z</time>
      </trkpt>
      <trkpt lat="25.4489020" lon="-100.8685170">
        <ele>1664.6</ele>
        <time>2022-08-20T12:43:40Z</time>
      </trkpt>
      <trkpt lat="25.4489560" lon="-100.8681500">
        <ele>1665.6</ele>
        <time>2022-08-20T12:43:47Z</time>
      </trkpt>
      <trkpt lat="25.4489980" lon="-100.8678940">
        <ele>1666.2</ele>
        <time>2022-08-20T12:43:52Z</time>
      </trkpt>
      <trkpt lat="25.4490220" lon="-100.8677370">
        <ele>1666.6</ele>
        <time>2022-08-20T12:43:55Z</time>
      </trkpt>
      <trkpt lat="25.4490700" lon="-100.8674370">
        <ele>1667.6</ele>
        <time>2022-08-20T12:44:01Z</time>
      </trkpt>
      <trkpt lat="25.4490770" lon="-100.8673850">
        <ele>1667.8</ele>
        <time>2022-08-20T12:44:02Z</time>
      </trkpt>
      <trkpt lat="25.4491170" lon="-100.8670300">
        <ele>1668.8</ele>
        <time>2022-08-20T12:44:09Z</time>
      </trkpt>
      <trkpt lat="25.4491330" lon="-100.8667820">
        <ele>1669.8</ele>
        <time>2022-08-20T12:44:14Z</time>
      </trkpt>
      <trkpt lat="25.4491590" lon="-100.8664800">
        <ele>1671.2</ele>
        <time>2022-08-20T12:44:20Z</time>
      </trkpt>
      <trkpt lat="25.4491650" lon="-100.8663800">
        <ele>1671.6</ele>
        <time>2022-08-20T12:44:22Z</time>
      </trkpt>
      <trkpt lat="25.4491740" lon="-100.8661740">
        <ele>1672.2</ele>
        <time>2022-08-20T12:44:26Z</time>
      </trkpt>
      <trkpt lat="25.4491870" lon="-100.8658110">
        <ele>1673.4</ele>
        <time>2022-08-20T12:44:33Z</time>
      </trkpt>
      <trkpt lat="25.4491970" lon="-100.8654490">
        <ele>1674.6</ele>
        <time>2022-08-20T12:44:40Z</time>
      </trkpt>
      <trkpt lat="25.4492000" lon="-100.8653430">
        <ele>1675.0</ele>
        <time>2022-08-20T12:44:42Z</time>
      </trkpt>
      <trkpt lat="25.4492190" lon="-100.8649170">
        <ele>1675.6</ele>
        <time>2022-08-20T12:44:50Z</time>
      </trkpt>
      <trkpt lat="25.4492210" lon="-100.8648640">
        <ele>1675.6</ele>
        <time>2022-08-20T12:44:51Z</time>
      </trkpt>
      <trkpt lat="25.4492280" lon="-100.8645950">
        <ele>1676.6</ele>
        <time>2022-08-20T12:44:56Z</time>
      </trkpt>
      <trkpt lat="25.4492320" lon="-100.8645420">
        <ele>1676.6</ele>
        <time>2022-08-20T12:44:57Z</time>
      </trkpt>
      <trkpt lat="25.4492480" lon="-100.8643310">
        <ele>1677.0</ele>
        <time>2022-08-20T12:45:01Z</time>
      </trkpt>
      <trkpt lat="25.4492650" lon="-100.8638580">
        <ele>1677.6</ele>
        <time>2022-08-20T12:45:10Z</time>
      </trkpt>
      <trkpt lat="25.4492740" lon="-100.8637040">
        <ele>1677.8</ele>
        <time>2022-08-20T12:45:13Z</time>
      </trkpt>
      <trkpt lat="25.4492840" lon="-100.8633910">
        <ele>1678.8</ele>
        <time>2022-08-20T12:45:19Z</time>
      </trkpt>
      <trkpt lat="25.4492950" lon="-100.8630800">
        <ele>1679.4</ele>
        <time>2022-08-20T12:45:25Z</time>
      </trkpt>
      <trkpt lat="25.4493030" lon="-100.8628110">
        <ele>1679.8</ele>
        <time>2022-08-20T12:45:30Z</time>
      </trkpt>
      <trkpt lat="25.4493130" lon="-100.8625990">
        <ele>1680.2</ele>
        <time>2022-08-20T12:45:34Z</time>
      </trkpt>
      <trkpt lat="25.4493240" lon="-100.8622850">
        <ele>1681.0</ele>
        <time>2022-08-20T12:45:40Z</time>
      </trkpt>
      <trkpt lat="25.4493330" lon="-100.8620670">
        <ele>1681.4</ele>
        <time>2022-08-20T12:45:44Z</time>
      </trkpt>
      <trkpt lat="25.4493490" lon="-100.8618110">
        <ele>1682.2</ele>
        <time>2022-08-20T12:45:49Z</time>
      </trkpt>
      <trkpt lat="25.4493570" lon="-100.8616570">
        <ele>1682.6</ele>
        <time>2022-08-20T12:45:52Z</time>
      </trkpt>
      <trkpt lat="25.4493760" lon="-100.8610750">
        <ele>1683.0</ele>
        <time>2022-08-20T12:46:03Z</time>
      </trkpt>
      <trkpt lat="25.4493880" lon="-100.8609120">
        <ele>1683.2</ele>
        <time>2022-08-20T12:46:06Z</time>
      </trkpt>
      <trkpt lat="25.4494190" lon="-100.8605270">
        <ele>1683.6</ele>
        <time>2022-08-20T12:46:13Z</time>
      </trkpt>
      <trkpt lat="25.4494460" lon="-100.8602520">
        <ele>1684.4</ele>
        <time>2022-08-20T12:46:18Z</time>
      </trkpt>
      <trkpt lat="25.4494850" lon="-100.8598730">
        <ele>1685.2</ele>
        <time>2022-08-20T12:46:25Z</time>
      </trkpt>
      <trkpt lat="25.4495060" lon="-100.8597090">
        <ele>1685.4</ele>
        <time>2022-08-20T12:46:28Z</time>
      </trkpt>
      <trkpt lat="25.4495250" lon="-100.8594880">
        <ele>1685.6</ele>
        <time>2022-08-20T12:46:32Z</time>
      </trkpt>
      <trkpt lat="25.4495900" lon="-100.8588940">
        <ele>1686.2</ele>
        <time>2022-08-20T12:46:43Z</time>
      </trkpt>
      <trkpt lat="25.4495960" lon="-100.8588380">
        <ele>1686.4</ele>
        <time>2022-08-20T12:46:44Z</time>
      </trkpt>
      <trkpt lat="25.4496040" lon="-100.8587840">
        <ele>1686.4</ele>
        <time>2022-08-20T12:46:45Z</time>
      </trkpt>
      <trkpt lat="25.4496530" lon="-100.8584610">
        <ele>1687.8</ele>
        <time>2022-08-20T12:46:51Z</time>
      </trkpt>
      <trkpt lat="25.4496590" lon="-100.8584070">
        <ele>1688.0</ele>
        <time>2022-08-20T12:46:52Z</time>
      </trkpt>
      <trkpt lat="25.4497040" lon="-100.8578570">
        <ele>1688.2</ele>
        <time>2022-08-20T12:47:02Z</time>
      </trkpt>
      <trkpt lat="25.4497240" lon="-100.8577500">
        <ele>1688.2</ele>
        <time>2022-08-20T12:47:04Z</time>
      </trkpt>
      <trkpt lat="25.4497960" lon="-100.8576140">
        <ele>1688.4</ele>
        <time>2022-08-20T12:47:07Z</time>
      </trkpt>
      <trkpt lat="25.4499620" lon="-100.8575040">
        <ele>1688.4</ele>
        <time>2022-08-20T12:47:11Z</time>
      </trkpt>
      <trkpt lat="25.4500610" lon="-100.8574780">
        <ele>1688.6</ele>
        <time>2022-08-20T12:47:13Z</time>
      </trkpt>
      <trkpt lat="25.4502120" lon="-100.8574410">
        <ele>1689.0</ele>
        <time>2022-08-20T12:47:16Z</time>
      </trkpt>
      <trkpt lat="25.4503590" lon="-100.8574060">
        <ele>1690.0</ele>
        <time>2022-08-20T12:47:19Z</time>
      </trkpt>
      <trkpt lat="25.4504080" lon="-100.8573930">
        <ele>1690.2</ele>
        <time>2022-08-20T12:47:20Z</time>
      </trkpt>
      <trkpt lat="25.4507510" lon="-100.8573010">
        <ele>1690.8</ele>
        <time>2022-08-20T12:47:27Z</time>
      </trkpt>
      <trkpt lat="25.4511140" lon="-100.8571990">
        <ele>1691.2</ele>
        <time>2022-08-20T12:47:34Z</time>
      </trkpt>
      <trkpt lat="25.4513450" lon="-100.8571450">
        <ele>1691.2</ele>
        <time>2022-08-20T12:47:38Z</time>
      </trkpt>
      <trkpt lat="25.4516010" lon="-100.8570860">
        <ele>1691.4</ele>
        <time>2022-08-20T12:47:42Z</time>
      </trkpt>
      <trkpt lat="25.4520970" lon="-100.8569990">
        <ele>1691.2</ele>
        <time>2022-08-20T12:47:49Z</time>
      </trkpt>
      <trkpt lat="25.4523010" lon="-100.8569460">
        <ele>1690.4</ele>
        <time>2022-08-20T12:47:52Z</time>
      </trkpt>
      <trkpt lat="25.4523480" lon="-100.8569220">
        <ele>1690.2</ele>
        <time>2022-08-20T12:47:53Z</time>
      </trkpt>
      <trkpt lat="25.4523840" lon="-100.8567860">
        <ele>1689.0</ele>
        <time>2022-08-20T12:47:56Z</time>
      </trkpt>
      <trkpt lat="25.4523600" lon="-100.8566790">
        <ele>1688.2</ele>
        <time>2022-08-20T12:47:58Z</time>
      </trkpt>
      <trkpt lat="25.4523450" lon="-100.8566250">
        <ele>1687.8</ele>
        <time>2022-08-20T12:47:59Z</time>
      </trkpt>
      <trkpt lat="25.4522800" lon="-100.8564060">
        <ele>1686.8</ele>
        <time>2022-08-20T12:48:03Z</time>
      </trkpt>
      <trkpt lat="25.4522640" lon="-100.8563480">
        <ele>1686.8</ele>
        <time>2022-08-20T12:48:04Z</time>
      </trkpt>
      <trkpt lat="25.4520980" lon="-100.8557550">
        <ele>1686.8</ele>
        <time>2022-08-20T12:48:14Z</time>
      </trkpt>
      <trkpt lat="25.4519560" lon="-100.8552310">
        <ele>1687.8</ele>
        <time>2022-08-20T12:48:23Z</time>
      </trkpt>
      <trkpt lat="25.4518760" lon="-100.8549430">
        <ele>1688.8</ele>
        <time>2022-08-20T12:48:28Z</time>
      </trkpt>
      <trkpt lat="25.4518250" lon="-100.8547680">
        <ele>1689.6</ele>
        <time>2022-08-20T12:48:31Z</time>
      </trkpt>
      <trkpt lat="25.4517760" lon="-100.8545960">
        <ele>1690.2</ele>
        <time>2022-08-20T12:48:34Z</time>
      </trkpt>
      <trkpt lat="25.4517130" lon="-100.8543660">
        <ele>1691.2</ele>
        <time>2022-08-20T12:48:38Z</time>
      </trkpt>
      <trkpt lat="25.4516660" lon="-100.8541980">
        <ele>1691.8</ele>
        <time>2022-08-20T12:48:41Z</time>
      </trkpt>
      <trkpt lat="25.4515960" lon="-100.8539730">
        <ele>1692.4</ele>
        <time>2022-08-20T12:48:45Z</time>
      </trkpt>
      <trkpt lat="25.4515350" lon="-100.8537420">
        <ele>1692.8</ele>
        <time>2022-08-20T12:48:49Z</time>
      </trkpt>
      <trkpt lat="25.4515040" lon="-100.8536260">
        <ele>1693.4</ele>
        <time>2022-08-20T12:48:51Z</time>
      </trkpt>
      <trkpt lat="25.4514270" lon="-100.8533330">
        <ele>1694.4</ele>
        <time>2022-08-20T12:48:56Z</time>
      </trkpt>
      <trkpt lat="25.4513820" lon="-100.8531610">
        <ele>1695.2</ele>
        <time>2022-08-20T12:48:59Z</time>
      </trkpt>
      <trkpt lat="25.4513470" lon="-100.8530500">
        <ele>1695.6</ele>
        <time>2022-08-20T12:49:01Z</time>
      </trkpt>
      <trkpt lat="25.4512550" lon="-100.8527180">
        <ele>1695.8</ele>
        <time>2022-08-20T12:49:07Z</time>
      </trkpt>
      <trkpt lat="25.4511730" lon="-100.8523880">
        <ele>1696.6</ele>
        <time>2022-08-20T12:49:13Z</time>
      </trkpt>
      <trkpt lat="25.4511350" lon="-100.8522440">
        <ele>1697.0</ele>
        <time>2022-08-20T12:49:16Z</time>
      </trkpt>
      <trkpt lat="25.4510090" lon="-100.8518390">
        <ele>1697.6</ele>
        <time>2022-08-20T12:49:24Z</time>
      </trkpt>
      <trkpt lat="25.4509940" lon="-100.8517910">
        <ele>1697.8</ele>
        <time>2022-08-20T12:49:25Z</time>
      </trkpt>
      <trkpt lat="25.4508840" lon="-100.8514400">
        <ele>1698.4</ele>
        <time>2022-08-20T12:49:32Z</time>
      </trkpt>
      <trkpt lat="25.4508250" lon="-100.8512360">
        <ele>1698.8</ele>
        <time>2022-08-20T12:49:36Z</time>
      </trkpt>
      <trkpt lat="25.4507470" lon="-100.8509830">
        <ele>1699.2</ele>
        <time>2022-08-20T12:49:41Z</time>
      </trkpt>
      <trkpt lat="25.4506640" lon="-100.8507340">
        <ele>1700.0</ele>
        <time>2022-08-20T12:49:46Z</time>
      </trkpt>
      <trkpt lat="25.4505750" lon="-100.8504820">
        <ele>1700.4</ele>
        <time>2022-08-20T12:49:51Z</time>
      </trkpt>
      <trkpt lat="25.4505150" lon="-100.8502740">
        <ele>1701.2</ele>
        <time>2022-08-20T12:49:55Z</time>
      </trkpt>
      <trkpt lat="25.4504330" lon="-100.8500240">
        <ele>1702.0</ele>
        <time>2022-08-20T12:50:00Z</time>
      </trkpt>
      <trkpt lat="25.4502820" lon="-100.8495340">
        <ele>1702.2</ele>
        <time>2022-08-20T12:50:10Z</time>
      </trkpt>
      <trkpt lat="25.4502290" lon="-100.8493900">
        <ele>1702.2</ele>
        <time>2022-08-20T12:50:13Z</time>
      </trkpt>
      <trkpt lat="25.4501030" lon="-100.8490060">
        <ele>1703.4</ele>
        <time>2022-08-20T12:50:21Z</time>
      </trkpt>
      <trkpt lat="25.4499420" lon="-100.8484850">
        <ele>1703.6</ele>
        <time>2022-08-20T12:50:32Z</time>
      </trkpt>
      <trkpt lat="25.4497880" lon="-100.8480090">
        <ele>1703.8</ele>
        <time>2022-08-20T12:50:43Z</time>
      </trkpt>
      <trkpt lat="25.4497100" lon="-100.8477920">
        <ele>1704.2</ele>
        <time>2022-08-20T12:50:50Z</time>
      </trkpt>
      <trkpt lat="25.4497050" lon="-100.8477760">
        <ele>1704.4</ele>
        <time>2022-08-20T12:50:51Z</time>
      </trkpt>
      <trkpt lat="25.4496900" lon="-100.8477370">
        <ele>1705.0</ele>
        <time>2022-08-20T12:50:55Z</time>
      </trkpt>
      <trkpt lat="25.4496810" lon="-100.8476930">
        <ele>1705.2</ele>
        <time>2022-08-20T12:50:59Z</time>
      </trkpt>
      <trkpt lat="25.4497060" lon="-100.8476640">
        <ele>1705.4</ele>
        <time>2022-08-20T12:51:01Z</time>
      </trkpt>
      <trkpt lat="25.4497390" lon="-100.8476890">
        <ele>1705.6</ele>
        <time>2022-08-20T12:51:04Z</time>
      </trkpt>
      <trkpt lat="25.4497420" lon="-100.8477070">
        <ele>1705.8</ele>
        <time>2022-08-20T12:51:05Z</time>
      </trkpt>
      <trkpt lat="25.4494880" lon="-100.8481280">
        <ele>1702.8</ele>
        <time>2022-08-20T13:04:13Z</time>
      </trkpt>
      <trkpt lat="25.4494870" lon="-100.8481310">
        <ele>1702.8</ele>
        <time>2022-08-20T13:04:16Z</time>
      </trkpt>
      <trkpt lat="25.4494890" lon="-100.8481340">
        <ele>1702.8</ele>
        <time>2022-08-20T13:04:36Z</time>
      </trkpt>
      <trkpt lat="25.4494850" lon="-100.8481310">
        <ele>1702.6</ele>
        <time>2022-08-20T13:04:57Z</time>
      </trkpt>
      <trkpt lat="25.4495350" lon="-100.8481110">
        <ele>1702.8</ele>
        <time>2022-08-20T13:05:10Z</time>
      </trkpt>
      <trkpt lat="25.4495510" lon="-100.8481040">
        <ele>1702.8</ele>
        <time>2022-08-20T13:05:11Z</time>
      </trkpt>
      <trkpt lat="25.4496600" lon="-100.8480110">
        <ele>1703.2</ele>
        <time>2022-08-20T13:05:17Z</time>
      </trkpt>
      <trkpt lat="25.4496620" lon="-100.8478650">
        <ele>1703.6</ele>
        <time>2022-08-20T13:05:22Z</time>
      </trkpt>
      <trkpt lat="25.4496460" lon="-100.8477460">
        <ele>1703.6</ele>
        <time>2022-08-20T13:05:28Z</time>
      </trkpt>
      <trkpt lat="25.4496780" lon="-100.8477300">
        <ele>1704.2</ele>
        <time>2022-08-20T13:05:38Z</time>
      </trkpt>
      <trkpt lat="25.4496680" lon="-100.8477280">
        <ele>1704.6</ele>
        <time>2022-08-20T13:05:55Z</time>
      </trkpt>
      <trkpt lat="25.4496570" lon="-100.8477340">
        <ele>1704.4</ele>
        <time>2022-08-20T13:06:16Z</time>
      </trkpt>
      <trkpt lat="25.4496330" lon="-100.8477110">
        <ele>1704.2</ele>
        <time>2022-08-20T13:06:33Z</time>
      </trkpt>
      <trkpt lat="25.4496340" lon="-100.8476990">
        <ele>1703.8</ele>
        <time>2022-08-20T13:06:45Z</time>
      </trkpt>
      <trkpt lat="25.4496140" lon="-100.8476790">
        <ele>1704.2</ele>
        <time>2022-08-20T13:06:52Z</time>
      </trkpt>
      <trkpt lat="25.4495760" lon="-100.8475630">
        <ele>1704.0</ele>
        <time>2022-08-20T13:06:57Z</time>
      </trkpt>
      <trkpt lat="25.4495670" lon="-100.8475240">
        <ele>1703.8</ele>
        <time>2022-08-20T13:06:58Z</time>
      </trkpt>
      <trkpt lat="25.4494070" lon="-100.8471700">
        <ele>1703.2</ele>
        <time>2022-08-20T13:07:06Z</time>
      </trkpt>
      <trkpt lat="25.4492430" lon="-100.8467630">
        <ele>1702.4</ele>
        <time>2022-08-20T13:07:14Z</time>
      </trkpt>
      <trkpt lat="25.4491730" lon="-100.8466030">
        <ele>1702.0</ele>
        <time>2022-08-20T13:07:17Z</time>
      </trkpt>
      <trkpt lat="25.4491760" lon="-100.8465510">
        <ele>1701.8</ele>
        <time>2022-08-20T13:07:18Z</time>
      </trkpt>
      <trkpt lat="25.4491700" lon="-100.8464440">
        <ele>1701.2</ele>
        <time>2022-08-20T13:07:20Z</time>
      </trkpt>
      <trkpt lat="25.4491800" lon="-100.8463380">
        <ele>1700.2</ele>
        <time>2022-08-20T13:07:22Z</time>
      </trkpt>
      <trkpt lat="25.4490540" lon="-100.8460050">
        <ele>1699.6</ele>
        <time>2022-08-20T13:07:29Z</time>
      </trkpt>
      <trkpt lat="25.4489180" lon="-100.8456750">
        <ele>1699.2</ele>
        <time>2022-08-20T13:07:36Z</time>
      </trkpt>
      <trkpt lat="25.4488930" lon="-100.8456270">
        <ele>1699.2</ele>
        <time>2022-08-20T13:07:37Z</time>
      </trkpt>
      <trkpt lat="25.4488440" lon="-100.8455320">
        <ele>1699.2</ele>
        <time>2022-08-20T13:07:39Z</time>
      </trkpt>
      <trkpt lat="25.4487330" lon="-100.8452270">
        <ele>1698.0</ele>
        <time>2022-08-20T13:07:46Z</time>
      </trkpt>
      <trkpt lat="25.4487250" lon="-100.8448850">
        <ele>1697.6</ele>
        <time>2022-08-20T13:07:53Z</time>
      </trkpt>
      <trkpt lat="25.4487100" lon="-100.8443980">
        <ele>1697.4</ele>
        <time>2022-08-20T13:08:02Z</time>
      </trkpt>
      <trkpt lat="25.4486560" lon="-100.8438810">
        <ele>1697.2</ele>
        <time>2022-08-20T13:08:11Z</time>
      </trkpt>
      <trkpt lat="25.4486300" lon="-100.8437660">
        <ele>1697.0</ele>
        <time>2022-08-20T13:08:13Z</time>
      </trkpt>
      <trkpt lat="25.4485380" lon="-100.8434000">
        <ele>1696.4</ele>
        <time>2022-08-20T13:08:19Z</time>
      </trkpt>
      <trkpt lat="25.4484750" lon="-100.8429790">
        <ele>1696.6</ele>
        <time>2022-08-20T13:08:27Z</time>
      </trkpt>
      <trkpt lat="25.4484150" lon="-100.8425670">
        <ele>1697.8</ele>
        <time>2022-08-20T13:08:34Z</time>
      </trkpt>
      <trkpt lat="25.4483970" lon="-100.8424500">
        <ele>1698.0</ele>
        <time>2022-08-20T13:08:36Z</time>
      </trkpt>
      <trkpt lat="25.4483300" lon="-100.8420560">
        <ele>1699.0</ele>
        <time>2022-08-20T13:08:43Z</time>
      </trkpt>
      <trkpt lat="25.4483230" lon="-100.8420000">
        <ele>1699.2</ele>
        <time>2022-08-20T13:08:44Z</time>
      </trkpt>
      <trkpt lat="25.4482710" lon="-100.8415500">
        <ele>1700.0</ele>
        <time>2022-08-20T13:08:52Z</time>
      </trkpt>
      <trkpt lat="25.4482670" lon="-100.8414900">
        <ele>1700.2</ele>
        <time>2022-08-20T13:08:53Z</time>
      </trkpt>
      <trkpt lat="25.4482130" lon="-100.8409960">
        <ele>1700.6</ele>
        <time>2022-08-20T13:09:01Z</time>
      </trkpt>
      <trkpt lat="25.4482390" lon="-100.8406340">
        <ele>1700.8</ele>
        <time>2022-08-20T13:09:07Z</time>
      </trkpt>
      <trkpt lat="25.4483340" lon="-100.8402140">
        <ele>1700.8</ele>
        <time>2022-08-20T13:09:14Z</time>
      </trkpt>
      <trkpt lat="25.4483140" lon="-100.8397940">
        <ele>1700.2</ele>
        <time>2022-08-20T13:09:20Z</time>
      </trkpt>
      <trkpt lat="25.4483170" lon="-100.8396510">
        <ele>1700.0</ele>
        <time>2022-08-20T13:09:22Z</time>
      </trkpt>
      <trkpt lat="25.4483830" lon="-100.8394210">
        <ele>1699.4</ele>
        <time>2022-08-20T13:09:25Z</time>
      </trkpt>
      <trkpt lat="25.4484660" lon="-100.8392540">
        <ele>1698.6</ele>
        <time>2022-08-20T13:09:27Z</time>
      </trkpt>
      <trkpt lat="25.4485150" lon="-100.8391750">
        <ele>1698.0</ele>
        <time>2022-08-20T13:09:28Z</time>
      </trkpt>
      <trkpt lat="25.4485670" lon="-100.8390970">
        <ele>1697.4</ele>
        <time>2022-08-20T13:09:29Z</time>
      </trkpt>
      <trkpt lat="25.4486160" lon="-100.8390260">
        <ele>1697.2</ele>
        <time>2022-08-20T13:09:30Z</time>
      </trkpt>
      <trkpt lat="25.4487190" lon="-100.8388910">
        <ele>1696.4</ele>
        <time>2022-08-20T13:09:32Z</time>
      </trkpt>
      <trkpt lat="25.4488250" lon="-100.8387560">
        <ele>1694.4</ele>
        <time>2022-08-20T13:09:34Z</time>
      </trkpt>
      <trkpt lat="25.4489540" lon="-100.8385780">
        <ele>1693.4</ele>
        <time>2022-08-20T13:09:37Z</time>
      </trkpt>
      <trkpt lat="25.4490260" lon="-100.8384690">
        <ele>1693.2</ele>
        <time>2022-08-20T13:09:39Z</time>
      </trkpt>
      <trkpt lat="25.4492030" lon="-100.8381750">
        <ele>1693.4</ele>
        <time>2022-08-20T13:09:45Z</time>
      </trkpt>
      <trkpt lat="25.4494240" lon="-100.8377890">
        <ele>1694.2</ele>
        <time>2022-08-20T13:09:53Z</time>
      </trkpt>
      <trkpt lat="25.4495350" lon="-100.8375990">
        <ele>1694.6</ele>
        <time>2022-08-20T13:09:57Z</time>
      </trkpt>
      <trkpt lat="25.4497080" lon="-100.8372510">
        <ele>1695.0</ele>
        <time>2022-08-20T13:10:05Z</time>
      </trkpt>
      <trkpt lat="25.4497460" lon="-100.8371850">
        <ele>1695.2</ele>
        <time>2022-08-20T13:10:07Z</time>
      </trkpt>
      <trkpt lat="25.4498980" lon="-100.8369460">
        <ele>1696.0</ele>
        <time>2022-08-20T13:10:14Z</time>
      </trkpt>
      <trkpt lat="25.4499200" lon="-100.8369100">
        <ele>1696.2</ele>
        <time>2022-08-20T13:10:15Z</time>
      </trkpt>
      <trkpt lat="25.4500110" lon="-100.8367260">
        <ele>1697.4</ele>
        <time>2022-08-20T13:10:20Z</time>
      </trkpt>
      <trkpt lat="25.4500430" lon="-100.8366600">
        <ele>1698.0</ele>
        <time>2022-08-20T13:10:22Z</time>
      </trkpt>
      <trkpt lat="25.4501020" lon="-100.8365490">
        <ele>1698.8</ele>
        <time>2022-08-20T13:10:26Z</time>
      </trkpt>
      <trkpt lat="25.4501440" lon="-100.8364620">
        <ele>1700.0</ele>
        <time>2022-08-20T13:10:29Z</time>
      </trkpt>
      <trkpt lat="25.4501570" lon="-100.8364310">
        <ele>1700.4</ele>
        <time>2022-08-20T13:10:30Z</time>
      </trkpt>
      <trkpt lat="25.4501880" lon="-100.8363640">
        <ele>1701.2</ele>
        <time>2022-08-20T13:10:32Z</time>
      </trkpt>
      <trkpt lat="25.4502420" lon="-100.8362590">
        <ele>1702.4</ele>
        <time>2022-08-20T13:10:35Z</time>
      </trkpt>
      <trkpt lat="25.4503170" lon="-100.8361590">
        <ele>1702.8</ele>
        <time>2022-08-20T13:10:38Z</time>
      </trkpt>
      <trkpt lat="25.4505600" lon="-100.8359250">
        <ele>1703.2</ele>
        <time>2022-08-20T13:10:46Z</time>
      </trkpt>
      <trkpt lat="25.4506030" lon="-100.8359000">
        <ele>1703.2</ele>
        <time>2022-08-20T13:10:47Z</time>
      </trkpt>
      <trkpt lat="25.4509720" lon="-100.8356970">
        <ele>1703.8</ele>
        <time>2022-08-20T13:10:55Z</time>
      </trkpt>
      <trkpt lat="25.4513630" lon="-100.8354570">
        <ele>1703.8</ele>
        <time>2022-08-20T13:11:04Z</time>
      </trkpt>
      <trkpt lat="25.4518260" lon="-100.8351820">
        <ele>1703.4</ele>
        <time>2022-08-20T13:11:14Z</time>
      </trkpt>
      <trkpt lat="25.4522580" lon="-100.8348970">
        <ele>1702.8</ele>
        <time>2022-08-20T13:11:23Z</time>
      </trkpt>
      <trkpt lat="25.4526770" lon="-100.8346250">
        <ele>1702.6</ele>
        <time>2022-08-20T13:11:32Z</time>
      </trkpt>
      <trkpt lat="25.4531000" lon="-100.8343620">
        <ele>1703.0</ele>
        <time>2022-08-20T13:11:42Z</time>
      </trkpt>
      <trkpt lat="25.4533650" lon="-100.8341970">
        <ele>1704.0</ele>
        <time>2022-08-20T13:11:50Z</time>
      </trkpt>
      <trkpt lat="25.4534250" lon="-100.8341580">
        <ele>1704.8</ele>
        <time>2022-08-20T13:11:52Z</time>
      </trkpt>
      <trkpt lat="25.4534550" lon="-100.8341370">
        <ele>1705.8</ele>
        <time>2022-08-20T13:11:53Z</time>
      </trkpt>
      <trkpt lat="25.4535150" lon="-100.8340960">
        <ele>1706.8</ele>
        <time>2022-08-20T13:11:55Z</time>
      </trkpt>
      <trkpt lat="25.4537110" lon="-100.8339770">
        <ele>1707.6</ele>
        <time>2022-08-20T13:12:01Z</time>
      </trkpt>
      <trkpt lat="25.4537430" lon="-100.8339580">
        <ele>1707.8</ele>
        <time>2022-08-20T13:12:02Z</time>
      </trkpt>
      <trkpt lat="25.4538670" lon="-100.8338880">
        <ele>1709.0</ele>
        <time>2022-08-20T13:12:06Z</time>
      </trkpt>
      <trkpt lat="25.4539960" lon="-100.8338130">
        <ele>1710.2</ele>
        <time>2022-08-20T13:12:10Z</time>
      </trkpt>
      <trkpt lat="25.4540950" lon="-100.8337530">
        <ele>1711.0</ele>
        <time>2022-08-20T13:12:13Z</time>
      </trkpt>
      <trkpt lat="25.4541280" lon="-100.8337310">
        <ele>1711.2</ele>
        <time>2022-08-20T13:12:14Z</time>
      </trkpt>
      <trkpt lat="25.4543870" lon="-100.8335620">
        <ele>1712.4</ele>
        <time>2022-08-20T13:12:22Z</time>
      </trkpt>
      <trkpt lat="25.4545630" lon="-100.8334590">
        <ele>1713.0</ele>
        <time>2022-08-20T13:12:27Z</time>
      </trkpt>
      <trkpt lat="25.4547580" lon="-100.8333450">
        <ele>1713.2</ele>
        <time>2022-08-20T13:12:32Z</time>
      </trkpt>
      <trkpt lat="25.4549500" lon="-100.8332180">
        <ele>1713.4</ele>
        <time>2022-08-20T13:12:37Z</time>
      </trkpt>
      <trkpt lat="25.4552920" lon="-100.8329140">
        <ele>1714.0</ele>
        <time>2022-08-20T13:12:47Z</time>
      </trkpt>
      <trkpt lat="25.4553960" lon="-100.8328160">
        <ele>1714.2</ele>
        <time>2022-08-20T13:12:50Z</time>
      </trkpt>
      <trkpt lat="25.4557410" lon="-100.8325060">
        <ele>1713.8</ele>
        <time>2022-08-20T13:12:59Z</time>
      </trkpt>
      <trkpt lat="25.4560390" lon="-100.8322190">
        <ele>1713.6</ele>
        <time>2022-08-20T13:13:05Z</time>
      </trkpt>
      <trkpt lat="25.4562820" lon="-100.8320060">
        <ele>1712.8</ele>
        <time>2022-08-20T13:13:09Z</time>
      </trkpt>
      <trkpt lat="25.4565080" lon="-100.8318190">
        <ele>1711.6</ele>
        <time>2022-08-20T13:13:13Z</time>
      </trkpt>
      <trkpt lat="25.4566650" lon="-100.8316990">
        <ele>1710.6</ele>
        <time>2022-08-20T13:13:16Z</time>
      </trkpt>
      <trkpt lat="25.4568110" lon="-100.8315650">
        <ele>1709.4</ele>
        <time>2022-08-20T13:13:19Z</time>
      </trkpt>
      <trkpt lat="25.4571190" lon="-100.8312970">
        <ele>1708.4</ele>
        <time>2022-08-20T13:13:25Z</time>
      </trkpt>
      <trkpt lat="25.4574250" lon="-100.8310220">
        <ele>1707.8</ele>
        <time>2022-08-20T13:13:31Z</time>
      </trkpt>
      <trkpt lat="25.4577070" lon="-100.8306580">
        <ele>1707.2</ele>
        <time>2022-08-20T13:13:38Z</time>
      </trkpt>
      <trkpt lat="25.4579390" lon="-100.8302620">
        <ele>1707.0</ele>
        <time>2022-08-20T13:13:45Z</time>
      </trkpt>
      <trkpt lat="25.4583250" lon="-100.8298250">
        <ele>1706.2</ele>
        <time>2022-08-20T13:13:55Z</time>
      </trkpt>
      <trkpt lat="25.4587160" lon="-100.8294220">
        <ele>1707.2</ele>
        <time>2022-08-20T13:14:06Z</time>
      </trkpt>
      <trkpt lat="25.4590090" lon="-100.8290860">
        <ele>1708.0</ele>
        <time>2022-08-20T13:14:16Z</time>
      </trkpt>
      <trkpt lat="25.4591290" lon="-100.8289530">
        <ele>1709.2</ele>
        <time>2022-08-20T13:14:20Z</time>
      </trkpt>
      <trkpt lat="25.4592580" lon="-100.8288260">
        <ele>1710.6</ele>
        <time>2022-08-20T13:14:24Z</time>
      </trkpt>
      <trkpt lat="25.4593200" lon="-100.8287680">
        <ele>1711.6</ele>
        <time>2022-08-20T13:14:26Z</time>
      </trkpt>
      <trkpt lat="25.4593470" lon="-100.8287420">
        <ele>1712.0</ele>
        <time>2022-08-20T13:14:27Z</time>
      </trkpt>
      <trkpt lat="25.4594580" lon="-100.8286360">
        <ele>1712.8</ele>
        <time>2022-08-20T13:14:31Z</time>
      </trkpt>
      <trkpt lat="25.4595840" lon="-100.8285130">
        <ele>1713.8</ele>
        <time>2022-08-20T13:14:35Z</time>
      </trkpt>
      <trkpt lat="25.4596450" lon="-100.8284510">
        <ele>1714.6</ele>
        <time>2022-08-20T13:14:37Z</time>
      </trkpt>
      <trkpt lat="25.4596750" lon="-100.8284220">
        <ele>1715.0</ele>
        <time>2022-08-20T13:14:38Z</time>
      </trkpt>
      <trkpt lat="25.4597870" lon="-100.8283010">
        <ele>1716.2</ele>
        <time>2022-08-20T13:14:42Z</time>
      </trkpt>
      <trkpt lat="25.4599030" lon="-100.8281860">
        <ele>1717.2</ele>
        <time>2022-08-20T13:14:46Z</time>
      </trkpt>
      <trkpt lat="25.4599340" lon="-100.8281530">
        <ele>1717.8</ele>
        <time>2022-08-20T13:14:47Z</time>
      </trkpt>
      <trkpt lat="25.4599920" lon="-100.8280880">
        <ele>1718.6</ele>
        <time>2022-08-20T13:14:49Z</time>
      </trkpt>
      <trkpt lat="25.4602100" lon="-100.8278560">
        <ele>1719.6</ele>
        <time>2022-08-20T13:14:56Z</time>
      </trkpt>
      <trkpt lat="25.4602450" lon="-100.8278250">
        <ele>1719.6</ele>
        <time>2022-08-20T13:14:57Z</time>
      </trkpt>
      <trkpt lat="25.4605480" lon="-100.8275210">
        <ele>1719.8</ele>
        <time>2022-08-20T13:15:05Z</time>
      </trkpt>
      <trkpt lat="25.4609230" lon="-100.8271080">
        <ele>1718.4</ele>
        <time>2022-08-20T13:15:14Z</time>
      </trkpt>
      <trkpt lat="25.4609600" lon="-100.8270670">
        <ele>1718.4</ele>
        <time>2022-08-20T13:15:15Z</time>
      </trkpt>
      <trkpt lat="25.4611760" lon="-100.8268250">
        <ele>1718.2</ele>
        <time>2022-08-20T13:15:22Z</time>
      </trkpt>
      <trkpt lat="25.4613470" lon="-100.8266380">
        <ele>1719.6</ele>
        <time>2022-08-20T13:15:28Z</time>
      </trkpt>
      <trkpt lat="25.4614350" lon="-100.8265460">
        <ele>1720.8</ele>
        <time>2022-08-20T13:15:31Z</time>
      </trkpt>
      <trkpt lat="25.4615740" lon="-100.8263960">
        <ele>1721.8</ele>
        <time>2022-08-20T13:15:36Z</time>
      </trkpt>
      <trkpt lat="25.4616010" lon="-100.8263670">
        <ele>1722.0</ele>
        <time>2022-08-20T13:15:37Z</time>
      </trkpt>
      <trkpt lat="25.4617420" lon="-100.8262180">
        <ele>1723.0</ele>
        <time>2022-08-20T13:15:42Z</time>
      </trkpt>
      <trkpt lat="25.4619230" lon="-100.8260270">
        <ele>1724.2</ele>
        <time>2022-08-20T13:15:48Z</time>
      </trkpt>
      <trkpt lat="25.4619530" lon="-100.8259950">
        <ele>1724.4</ele>
        <time>2022-08-20T13:15:49Z</time>
      </trkpt>
      <trkpt lat="25.4623600" lon="-100.8255380">
        <ele>1725.2</ele>
        <time>2022-08-20T13:16:02Z</time>
      </trkpt>
      <trkpt lat="25.4627670" lon="-100.8251120">
        <ele>1726.2</ele>
        <time>2022-08-20T13:16:14Z</time>
      </trkpt>
      <trkpt lat="25.4627990" lon="-100.8250800">
        <ele>1726.2</ele>
        <time>2022-08-20T13:16:15Z</time>
      </trkpt>
      <trkpt lat="25.4629880" lon="-100.8248780">
        <ele>1727.2</ele>
        <time>2022-08-20T13:16:22Z</time>
      </trkpt>
      <trkpt lat="25.4630140" lon="-100.8248460">
        <ele>1727.6</ele>
        <time>2022-08-20T13:16:23Z</time>
      </trkpt>
      <trkpt lat="25.4631160" lon="-100.8247200">
        <ele>1728.6</ele>
        <time>2022-08-20T13:16:27Z</time>
      </trkpt>
      <trkpt lat="25.4632630" lon="-100.8245750">
        <ele>1729.6</ele>
        <time>2022-08-20T13:16:32Z</time>
      </trkpt>
      <trkpt lat="25.4633570" lon="-100.8244880">
        <ele>1730.0</ele>
        <time>2022-08-20T13:16:35Z</time>
      </trkpt>
      <trkpt lat="25.4634580" lon="-100.8243940">
        <ele>1730.6</ele>
        <time>2022-08-20T13:16:38Z</time>
      </trkpt>
      <trkpt lat="25.4636250" lon="-100.8242290">
        <ele>1731.8</ele>
        <time>2022-08-20T13:16:43Z</time>
      </trkpt>
      <trkpt lat="25.4637390" lon="-100.8241040">
        <ele>1732.2</ele>
        <time>2022-08-20T13:16:47Z</time>
      </trkpt>
      <trkpt lat="25.4638160" lon="-100.8240140">
        <ele>1733.0</ele>
        <time>2022-08-20T13:16:50Z</time>
      </trkpt>
      <trkpt lat="25.4639780" lon="-100.8238390">
        <ele>1734.0</ele>
        <time>2022-08-20T13:16:56Z</time>
      </trkpt>
      <trkpt lat="25.4641280" lon="-100.8236900">
        <ele>1735.4</ele>
        <time>2022-08-20T13:17:01Z</time>
      </trkpt>
      <trkpt lat="25.4641880" lon="-100.8236230">
        <ele>1736.0</ele>
        <time>2022-08-20T13:17:03Z</time>
      </trkpt>
      <trkpt lat="25.4643860" lon="-100.8233970">
        <ele>1736.4</ele>
        <time>2022-08-20T13:17:10Z</time>
      </trkpt>
      <trkpt lat="25.4644760" lon="-100.8232930">
        <ele>1736.4</ele>
        <time>2022-08-20T13:17:13Z</time>
      </trkpt>
      <trkpt lat="25.4647200" lon="-100.8229920">
        <ele>1736.6</ele>
        <time>2022-08-20T13:17:21Z</time>
      </trkpt>
      <trkpt lat="25.4650440" lon="-100.8226370">
        <ele>1736.4</ele>
        <time>2022-08-20T13:17:31Z</time>
      </trkpt>
      <trkpt lat="25.4654390" lon="-100.8222090">
        <ele>1737.0</ele>
        <time>2022-08-20T13:17:43Z</time>
      </trkpt>
      <trkpt lat="25.4654990" lon="-100.8221410">
        <ele>1737.2</ele>
        <time>2022-08-20T13:17:45Z</time>
      </trkpt>
      <trkpt lat="25.4657090" lon="-100.8218340">
        <ele>1738.4</ele>
        <time>2022-08-20T13:17:52Z</time>
      </trkpt>
      <trkpt lat="25.4659890" lon="-100.8213380">
        <ele>1739.4</ele>
        <time>2022-08-20T13:18:02Z</time>
      </trkpt>
      <trkpt lat="25.4660150" lon="-100.8212910">
        <ele>1739.4</ele>
        <time>2022-08-20T13:18:03Z</time>
      </trkpt>
      <trkpt lat="25.4661100" lon="-100.8211050">
        <ele>1740.6</ele>
        <time>2022-08-20T13:18:07Z</time>
      </trkpt>
      <trkpt lat="25.4662460" lon="-100.8208250">
        <ele>1741.8</ele>
        <time>2022-08-20T13:18:13Z</time>
      </trkpt>
      <trkpt lat="25.4662880" lon="-100.8207350">
        <ele>1742.2</ele>
        <time>2022-08-20T13:18:15Z</time>
      </trkpt>
      <trkpt lat="25.4664780" lon="-100.8203710">
        <ele>1742.8</ele>
        <time>2022-08-20T13:18:24Z</time>
      </trkpt>
      <trkpt lat="25.4665420" lon="-100.8202520">
        <ele>1743.0</ele>
        <time>2022-08-20T13:18:27Z</time>
      </trkpt>
      <trkpt lat="25.4666650" lon="-100.8199800">
        <ele>1743.8</ele>
        <time>2022-08-20T13:18:33Z</time>
      </trkpt>
      <trkpt lat="25.4668390" lon="-100.8196460">
        <ele>1744.2</ele>
        <time>2022-08-20T13:18:41Z</time>
      </trkpt>
      <trkpt lat="25.4670210" lon="-100.8193060">
        <ele>1744.8</ele>
        <time>2022-08-20T13:18:50Z</time>
      </trkpt>
      <trkpt lat="25.4670440" lon="-100.8192680">
        <ele>1744.8</ele>
        <time>2022-08-20T13:18:51Z</time>
      </trkpt>
      <trkpt lat="25.4671820" lon="-100.8190360">
        <ele>1745.8</ele>
        <time>2022-08-20T13:18:58Z</time>
      </trkpt>
      <trkpt lat="25.4672160" lon="-100.8189880">
        <ele>1746.0</ele>
        <time>2022-08-20T13:19:00Z</time>
      </trkpt>
      <trkpt lat="25.4672800" lon="-100.8188880">
        <ele>1747.2</ele>
        <time>2022-08-20T13:19:05Z</time>
      </trkpt>
      <trkpt lat="25.4673160" lon="-100.8188040">
        <ele>1748.0</ele>
        <time>2022-08-20T13:19:09Z</time>
      </trkpt>
      <trkpt lat="25.4673410" lon="-100.8187450">
        <ele>1748.4</ele>
        <time>2022-08-20T13:19:11Z</time>
      </trkpt>
      <trkpt lat="25.4674440" lon="-100.8185510">
        <ele>1749.2</ele>
        <time>2022-08-20T13:19:17Z</time>
      </trkpt>
      <trkpt lat="25.4674610" lon="-100.8185170">
        <ele>1749.4</ele>
        <time>2022-08-20T13:19:18Z</time>
      </trkpt>
      <trkpt lat="25.4676050" lon="-100.8182400">
        <ele>1750.4</ele>
        <time>2022-08-20T13:19:26Z</time>
      </trkpt>
      <trkpt lat="25.4676690" lon="-100.8181030">
        <ele>1751.4</ele>
        <time>2022-08-20T13:19:30Z</time>
      </trkpt>
      <trkpt lat="25.4676870" lon="-100.8180700">
        <ele>1751.6</ele>
        <time>2022-08-20T13:19:31Z</time>
      </trkpt>
      <trkpt lat="25.4677760" lon="-100.8179220">
        <ele>1752.6</ele>
        <time>2022-08-20T13:19:36Z</time>
      </trkpt>
      <trkpt lat="25.4678480" lon="-100.8178110">
        <ele>1753.6</ele>
        <time>2022-08-20T13:19:40Z</time>
      </trkpt>
      <trkpt lat="25.4678630" lon="-100.8177840">
        <ele>1753.8</ele>
        <time>2022-08-20T13:19:41Z</time>
      </trkpt>
      <trkpt lat="25.4679150" lon="-100.8176760">
        <ele>1754.6</ele>
        <time>2022-08-20T13:19:45Z</time>
      </trkpt>
      <trkpt lat="25.4679750" lon="-100.8175450">
        <ele>1755.8</ele>
        <time>2022-08-20T13:19:50Z</time>
      </trkpt>
      <trkpt lat="25.4680240" lon="-100.8174550">
        <ele>1756.6</ele>
        <time>2022-08-20T13:19:54Z</time>
      </trkpt>
      <trkpt lat="25.4680380" lon="-100.8174340">
        <ele>1756.8</ele>
        <time>2022-08-20T13:19:55Z</time>
      </trkpt>
      <trkpt lat="25.4681130" lon="-100.8172910">
        <ele>1757.8</ele>
        <time>2022-08-20T13:20:01Z</time>
      </trkpt>
      <trkpt lat="25.4682050" lon="-100.8171110">
        <ele>1759.0</ele>
        <time>2022-08-20T13:20:08Z</time>
      </trkpt>
      <trkpt lat="25.4682620" lon="-100.8170130">
        <ele>1760.0</ele>
        <time>2022-08-20T13:20:13Z</time>
      </trkpt>
      <trkpt lat="25.4682860" lon="-100.8169660">
        <ele>1760.6</ele>
        <time>2022-08-20T13:20:15Z</time>
      </trkpt>
      <trkpt lat="25.4683110" lon="-100.8169080">
        <ele>1761.2</ele>
        <time>2022-08-20T13:20:17Z</time>
      </trkpt>
      <trkpt lat="25.4684110" lon="-100.8167220">
        <ele>1762.2</ele>
        <time>2022-08-20T13:20:24Z</time>
      </trkpt>
      <trkpt lat="25.4684830" lon="-100.8165820">
        <ele>1762.8</ele>
        <time>2022-08-20T13:20:29Z</time>
      </trkpt>
      <trkpt lat="25.4684980" lon="-100.8165560">
        <ele>1763.0</ele>
        <time>2022-08-20T13:20:30Z</time>
      </trkpt>
      <trkpt lat="25.4685800" lon="-100.8163980">
        <ele>1764.0</ele>
        <time>2022-08-20T13:20:36Z</time>
      </trkpt>
      <trkpt lat="25.4686710" lon="-100.8162310">
        <ele>1765.0</ele>
        <time>2022-08-20T13:20:42Z</time>
      </trkpt>
      <trkpt lat="25.4686990" lon="-100.8161730">
        <ele>1765.4</ele>
        <time>2022-08-20T13:20:44Z</time>
      </trkpt>
      <trkpt lat="25.4687680" lon="-100.8160350">
        <ele>1766.2</ele>
        <time>2022-08-20T13:20:49Z</time>
      </trkpt>
      <trkpt lat="25.4688640" lon="-100.8158340">
        <ele>1767.2</ele>
        <time>2022-08-20T13:20:56Z</time>
      </trkpt>
      <trkpt lat="25.4688960" lon="-100.8157750">
        <ele>1767.4</ele>
        <time>2022-08-20T13:20:58Z</time>
      </trkpt>
      <trkpt lat="25.4690000" lon="-100.8155880">
        <ele>1768.4</ele>
        <time>2022-08-20T13:21:04Z</time>
      </trkpt>
      <trkpt lat="25.4691050" lon="-100.8153850">
        <ele>1768.6</ele>
        <time>2022-08-20T13:21:10Z</time>
      </trkpt>
      <trkpt lat="25.4692360" lon="-100.8151430">
        <ele>1769.4</ele>
        <time>2022-08-20T13:21:17Z</time>
      </trkpt>
      <trkpt lat="25.4693790" lon="-100.8148850">
        <ele>1770.4</ele>
        <time>2022-08-20T13:21:24Z</time>
      </trkpt>
      <trkpt lat="25.4695590" lon="-100.8145360">
        <ele>1770.4</ele>
        <time>2022-08-20T13:21:31Z</time>
      </trkpt>
      <trkpt lat="25.4697210" lon="-100.8142610">
        <ele>1770.0</ele>
        <time>2022-08-20T13:21:37Z</time>
      </trkpt>
      <trkpt lat="25.4699860" lon="-100.8137870">
        <ele>1771.2</ele>
        <time>2022-08-20T13:21:48Z</time>
      </trkpt>
      <trkpt lat="25.4700110" lon="-100.8137380">
        <ele>1771.2</ele>
        <time>2022-08-20T13:21:49Z</time>
      </trkpt>
      <trkpt lat="25.4702540" lon="-100.8132490">
        <ele>1771.4</ele>
        <time>2022-08-20T13:21:58Z</time>
      </trkpt>
      <trkpt lat="25.4705410" lon="-100.8126920">
        <ele>1770.4</ele>
        <time>2022-08-20T13:22:07Z</time>
      </trkpt>
      <trkpt lat="25.4705740" lon="-100.8126250">
        <ele>1770.2</ele>
        <time>2022-08-20T13:22:08Z</time>
      </trkpt>
      <trkpt lat="25.4708200" lon="-100.8121570">
        <ele>1769.0</ele>
        <time>2022-08-20T13:22:15Z</time>
      </trkpt>
      <trkpt lat="25.4709310" lon="-100.8119540">
        <ele>1767.8</ele>
        <time>2022-08-20T13:22:18Z</time>
      </trkpt>
      <trkpt lat="25.4709690" lon="-100.8118920">
        <ele>1767.6</ele>
        <time>2022-08-20T13:22:19Z</time>
      </trkpt>
      <trkpt lat="25.4712750" lon="-100.8113230">
        <ele>1766.8</ele>
        <time>2022-08-20T13:22:28Z</time>
      </trkpt>
      <trkpt lat="25.4713820" lon="-100.8111170">
        <ele>1766.8</ele>
        <time>2022-08-20T13:22:31Z</time>
      </trkpt>
      <trkpt lat="25.4716160" lon="-100.8106800">
        <ele>1766.6</ele>
        <time>2022-08-20T13:22:37Z</time>
      </trkpt>
      <trkpt lat="25.4717890" lon="-100.8103170">
        <ele>1766.6</ele>
        <time>2022-08-20T13:22:42Z</time>
      </trkpt>
      <trkpt lat="25.4718200" lon="-100.8101570">
        <ele>1766.6</ele>
        <time>2022-08-20T13:22:44Z</time>
      </trkpt>
      <trkpt lat="25.4718800" lon="-100.8096350">
        <ele>1767.2</ele>
        <time>2022-08-20T13:22:51Z</time>
      </trkpt>
      <trkpt lat="25.4720160" lon="-100.8091780">
        <ele>1767.6</ele>
        <time>2022-08-20T13:22:58Z</time>
      </trkpt>
      <trkpt lat="25.4721690" lon="-100.8086130">
        <ele>1767.8</ele>
        <time>2022-08-20T13:23:07Z</time>
      </trkpt>
      <trkpt lat="25.4722890" lon="-100.8082130">
        <ele>1768.8</ele>
        <time>2022-08-20T13:23:15Z</time>
      </trkpt>
      <trkpt lat="25.4723550" lon="-100.8080310">
        <ele>1769.8</ele>
        <time>2022-08-20T13:23:19Z</time>
      </trkpt>
      <trkpt lat="25.4724490" lon="-100.8077760">
        <ele>1770.8</ele>
        <time>2022-08-20T13:23:25Z</time>
      </trkpt>
      <trkpt lat="25.4724900" lon="-100.8076510">
        <ele>1771.4</ele>
        <time>2022-08-20T13:23:28Z</time>
      </trkpt>
      <trkpt lat="25.4725600" lon="-100.8073910">
        <ele>1771.8</ele>
        <time>2022-08-20T13:23:34Z</time>
      </trkpt>
      <trkpt lat="25.4726350" lon="-100.8071400">
        <ele>1772.8</ele>
        <time>2022-08-20T13:23:40Z</time>
      </trkpt>
      <trkpt lat="25.4727220" lon="-100.8068780">
        <ele>1773.6</ele>
        <time>2022-08-20T13:23:46Z</time>
      </trkpt>
      <trkpt lat="25.4727360" lon="-100.8068350">
        <ele>1773.6</ele>
        <time>2022-08-20T13:23:47Z</time>
      </trkpt>
      <trkpt lat="25.4728790" lon="-100.8063650">
        <ele>1774.8</ele>
        <time>2022-08-20T13:23:58Z</time>
      </trkpt>
      <trkpt lat="25.4728930" lon="-100.8063260">
        <ele>1775.0</ele>
        <time>2022-08-20T13:23:59Z</time>
      </trkpt>
      <trkpt lat="25.4729430" lon="-100.8061470">
        <ele>1775.8</ele>
        <time>2022-08-20T13:24:04Z</time>
      </trkpt>
      <trkpt lat="25.4729810" lon="-100.8059820">
        <ele>1776.6</ele>
        <time>2022-08-20T13:24:09Z</time>
      </trkpt>
      <trkpt lat="25.4729890" lon="-100.8059450">
        <ele>1776.8</ele>
        <time>2022-08-20T13:24:10Z</time>
      </trkpt>
      <trkpt lat="25.4730300" lon="-100.8057750">
        <ele>1778.0</ele>
        <time>2022-08-20T13:24:15Z</time>
      </trkpt>
      <trkpt lat="25.4730870" lon="-100.8056030">
        <ele>1778.8</ele>
        <time>2022-08-20T13:24:20Z</time>
      </trkpt>
      <trkpt lat="25.4730980" lon="-100.8055690">
        <ele>1779.0</ele>
        <time>2022-08-20T13:24:21Z</time>
      </trkpt>
      <trkpt lat="25.4731950" lon="-100.8053270">
        <ele>1780.2</ele>
        <time>2022-08-20T13:24:28Z</time>
      </trkpt>
      <trkpt lat="25.4732770" lon="-100.8051100">
        <ele>1781.0</ele>
        <time>2022-08-20T13:24:33Z</time>
      </trkpt>
      <trkpt lat="25.4733160" lon="-100.8050270">
        <ele>1781.2</ele>
        <time>2022-08-20T13:24:35Z</time>
      </trkpt>
      <trkpt lat="25.4735000" lon="-100.8047430">
        <ele>1782.2</ele>
        <time>2022-08-20T13:24:42Z</time>
      </trkpt>
      <trkpt lat="25.4735310" lon="-100.8046980">
        <ele>1782.4</ele>
        <time>2022-08-20T13:24:43Z</time>
      </trkpt>
      <trkpt lat="25.4736770" lon="-100.8044890">
        <ele>1782.4</ele>
        <time>2022-08-20T13:24:47Z</time>
      </trkpt>
      <trkpt lat="25.4737170" lon="-100.8044360">
        <ele>1782.4</ele>
        <time>2022-08-20T13:24:48Z</time>
      </trkpt>
      <trkpt lat="25.4740170" lon="-100.8040750">
        <ele>1782.4</ele>
        <time>2022-08-20T13:24:56Z</time>
      </trkpt>
      <trkpt lat="25.4742710" lon="-100.8037560">
        <ele>1782.8</ele>
        <time>2022-08-20T13:25:05Z</time>
      </trkpt>
      <trkpt lat="25.4743660" lon="-100.8036160">
        <ele>1783.4</ele>
        <time>2022-08-20T13:25:09Z</time>
      </trkpt>
      <trkpt lat="25.4744970" lon="-100.8033920">
        <ele>1784.6</ele>
        <time>2022-08-20T13:25:15Z</time>
      </trkpt>
      <trkpt lat="25.4745380" lon="-100.8033050">
        <ele>1785.0</ele>
        <time>2022-08-20T13:25:17Z</time>
      </trkpt>
      <trkpt lat="25.4746020" lon="-100.8031730">
        <ele>1785.8</ele>
        <time>2022-08-20T13:25:20Z</time>
      </trkpt>
      <trkpt lat="25.4747320" lon="-100.8029180">
        <ele>1786.6</ele>
        <time>2022-08-20T13:25:26Z</time>
      </trkpt>
      <trkpt lat="25.4748160" lon="-100.8027660">
        <ele>1786.6</ele>
        <time>2022-08-20T13:25:30Z</time>
      </trkpt>
      <trkpt lat="25.4748970" lon="-100.8026030">
        <ele>1787.6</ele>
        <time>2022-08-20T13:25:34Z</time>
      </trkpt>
      <trkpt lat="25.4750180" lon="-100.8023440">
        <ele>1788.6</ele>
        <time>2022-08-20T13:25:40Z</time>
      </trkpt>
      <trkpt lat="25.4750390" lon="-100.8023020">
        <ele>1788.8</ele>
        <time>2022-08-20T13:25:41Z</time>
      </trkpt>
      <trkpt lat="25.4752710" lon="-100.8017960">
        <ele>1789.8</ele>
        <time>2022-08-20T13:25:53Z</time>
      </trkpt>
      <trkpt lat="25.4753320" lon="-100.8016700">
        <ele>1790.0</ele>
        <time>2022-08-20T13:25:56Z</time>
      </trkpt>
      <trkpt lat="25.4755060" lon="-100.8013430">
        <ele>1790.6</ele>
        <time>2022-08-20T13:26:04Z</time>
      </trkpt>
      <trkpt lat="25.4755500" lon="-100.8012700">
        <ele>1790.6</ele>
        <time>2022-08-20T13:26:06Z</time>
      </trkpt>
      <trkpt lat="25.4756800" lon="-100.8010550">
        <ele>1791.6</ele>
        <time>2022-08-20T13:26:12Z</time>
      </trkpt>
      <trkpt lat="25.4757780" lon="-100.8008650">
        <ele>1792.6</ele>
        <time>2022-08-20T13:26:17Z</time>
      </trkpt>
      <trkpt lat="25.4759080" lon="-100.8006280">
        <ele>1793.8</ele>
        <time>2022-08-20T13:26:23Z</time>
      </trkpt>
      <trkpt lat="25.4760340" lon="-100.8004510">
        <ele>1794.2</ele>
        <time>2022-08-20T13:26:28Z</time>
      </trkpt>
      <trkpt lat="25.4762090" lon="-100.8002210">
        <ele>1794.6</ele>
        <time>2022-08-20T13:26:35Z</time>
      </trkpt>
      <trkpt lat="25.4763180" lon="-100.8000590">
        <ele>1795.6</ele>
        <time>2022-08-20T13:26:40Z</time>
      </trkpt>
      <trkpt lat="25.4763340" lon="-100.8000250">
        <ele>1795.8</ele>
        <time>2022-08-20T13:26:41Z</time>
      </trkpt>
      <trkpt lat="25.4763960" lon="-100.7998430">
        <ele>1796.8</ele>
        <time>2022-08-20T13:26:46Z</time>
      </trkpt>
      <trkpt lat="25.4764290" lon="-100.7997150">
        <ele>1797.4</ele>
        <time>2022-08-20T13:26:49Z</time>
      </trkpt>
      <trkpt lat="25.4764640" lon="-100.7995860">
        <ele>1797.8</ele>
        <time>2022-08-20T13:26:52Z</time>
      </trkpt>
      <trkpt lat="25.4765690" lon="-100.7990910">
        <ele>1798.6</ele>
        <time>2022-08-20T13:27:03Z</time>
      </trkpt>
      <trkpt lat="25.4765810" lon="-100.7990000">
        <ele>1799.0</ele>
        <time>2022-08-20T13:27:05Z</time>
      </trkpt>
      <trkpt lat="25.4766620" lon="-100.7987060">
        <ele>1800.0</ele>
        <time>2022-08-20T13:27:12Z</time>
      </trkpt>
      <trkpt lat="25.4766820" lon="-100.7986640">
        <ele>1800.0</ele>
        <time>2022-08-20T13:27:13Z</time>
      </trkpt>
      <trkpt lat="25.4768980" lon="-100.7982940">
        <ele>1801.0</ele>
        <time>2022-08-20T13:27:23Z</time>
      </trkpt>
      <trkpt lat="25.4769170" lon="-100.7982540">
        <ele>1801.0</ele>
        <time>2022-08-20T13:27:24Z</time>
      </trkpt>
      <trkpt lat="25.4770190" lon="-100.7979240">
        <ele>1801.4</ele>
        <time>2022-08-20T13:27:32Z</time>
      </trkpt>
      <trkpt lat="25.4770660" lon="-100.7977510">
        <ele>1801.8</ele>
        <time>2022-08-20T13:27:37Z</time>
      </trkpt>
      <trkpt lat="25.4771150" lon="-100.7975980">
        <ele>1802.2</ele>
        <time>2022-08-20T13:27:42Z</time>
      </trkpt>
      <trkpt lat="25.4771490" lon="-100.7975130">
        <ele>1802.8</ele>
        <time>2022-08-20T13:27:45Z</time>
      </trkpt>
      <trkpt lat="25.4771920" lon="-100.7974070">
        <ele>1804.0</ele>
        <time>2022-08-20T13:27:49Z</time>
      </trkpt>
      <trkpt lat="25.4772350" lon="-100.7972980">
        <ele>1805.2</ele>
        <time>2022-08-20T13:27:53Z</time>
      </trkpt>
      <trkpt lat="25.4772600" lon="-100.7972420">
        <ele>1805.8</ele>
        <time>2022-08-20T13:27:55Z</time>
      </trkpt>
      <trkpt lat="25.4772840" lon="-100.7971850">
        <ele>1806.4</ele>
        <time>2022-08-20T13:27:57Z</time>
      </trkpt>
      <trkpt lat="25.4773930" lon="-100.7969470">
        <ele>1807.2</ele>
        <time>2022-08-20T13:28:04Z</time>
      </trkpt>
      <trkpt lat="25.4776290" lon="-100.7965460">
        <ele>1807.2</ele>
        <time>2022-08-20T13:28:15Z</time>
      </trkpt>
      <trkpt lat="25.4777300" lon="-100.7963860">
        <ele>1807.2</ele>
        <time>2022-08-20T13:28:20Z</time>
      </trkpt>
      <trkpt lat="25.4778120" lon="-100.7962460">
        <ele>1807.8</ele>
        <time>2022-08-20T13:28:25Z</time>
      </trkpt>
      <trkpt lat="25.4778480" lon="-100.7961660">
        <ele>1808.4</ele>
        <time>2022-08-20T13:28:28Z</time>
      </trkpt>
      <trkpt lat="25.4778710" lon="-100.7960620">
        <ele>1809.4</ele>
        <time>2022-08-20T13:28:32Z</time>
      </trkpt>
      <trkpt lat="25.4778750" lon="-100.7960140">
        <ele>1809.8</ele>
        <time>2022-08-20T13:28:34Z</time>
      </trkpt>
      <trkpt lat="25.4778820" lon="-100.7959440">
        <ele>1810.4</ele>
        <time>2022-08-20T13:28:37Z</time>
      </trkpt>
      <trkpt lat="25.4778870" lon="-100.7958480">
        <ele>1811.6</ele>
        <time>2022-08-20T13:28:41Z</time>
      </trkpt>
      <trkpt lat="25.4778910" lon="-100.7957750">
        <ele>1812.6</ele>
        <time>2022-08-20T13:28:44Z</time>
      </trkpt>
      <trkpt lat="25.4779020" lon="-100.7956800">
        <ele>1813.0</ele>
        <time>2022-08-20T13:28:48Z</time>
      </trkpt>
      <trkpt lat="25.4779060" lon="-100.7956320">
        <ele>1813.6</ele>
        <time>2022-08-20T13:28:50Z</time>
      </trkpt>
      <trkpt lat="25.4779110" lon="-100.7955620">
        <ele>1814.6</ele>
        <time>2022-08-20T13:28:53Z</time>
      </trkpt>
      <trkpt lat="25.4779180" lon="-100.7954390">
        <ele>1815.8</ele>
        <time>2022-08-20T13:28:58Z</time>
      </trkpt>
      <trkpt lat="25.4779230" lon="-100.7954160">
        <ele>1816.0</ele>
        <time>2022-08-20T13:28:59Z</time>
      </trkpt>
      <trkpt lat="25.4779320" lon="-100.7953480">
        <ele>1816.8</ele>
        <time>2022-08-20T13:29:02Z</time>
      </trkpt>
      <trkpt lat="25.4779510" lon="-100.7951730">
        <ele>1817.8</ele>
        <time>2022-08-20T13:29:09Z</time>
      </trkpt>
      <trkpt lat="25.4779530" lon="-100.7951480">
        <ele>1817.8</ele>
        <time>2022-08-20T13:29:10Z</time>
      </trkpt>
      <trkpt lat="25.4779750" lon="-100.7949660">
        <ele>1819.0</ele>
        <time>2022-08-20T13:29:17Z</time>
      </trkpt>
      <trkpt lat="25.4779970" lon="-100.7947810">
        <ele>1820.0</ele>
        <time>2022-08-20T13:29:24Z</time>
      </trkpt>
      <trkpt lat="25.4779990" lon="-100.7947550">
        <ele>1819.8</ele>
        <time>2022-08-20T13:29:25Z</time>
      </trkpt>
      <trkpt lat="25.4780400" lon="-100.7944840">
        <ele>1820.8</ele>
        <time>2022-08-20T13:29:36Z</time>
      </trkpt>
      <trkpt lat="25.4780440" lon="-100.7944600">
        <ele>1821.0</ele>
        <time>2022-08-20T13:29:37Z</time>
      </trkpt>
      <trkpt lat="25.4780740" lon="-100.7942760">
        <ele>1822.2</ele>
        <time>2022-08-20T13:29:45Z</time>
      </trkpt>
      <trkpt lat="25.4780810" lon="-100.7942260">
        <ele>1822.2</ele>
        <time>2022-08-20T13:29:47Z</time>
      </trkpt>
      <trkpt lat="25.4781190" lon="-100.7940180">
        <ele>1823.0</ele>
        <time>2022-08-20T13:29:55Z</time>
      </trkpt>
      <trkpt lat="25.4781400" lon="-100.7939120">
        <ele>1823.0</ele>
        <time>2022-08-20T13:29:58Z</time>
      </trkpt>
      <trkpt lat="25.4781940" lon="-100.7936230">
        <ele>1822.8</ele>
        <time>2022-08-20T13:30:03Z</time>
      </trkpt>
      <trkpt lat="25.4782490" lon="-100.7932100">
        <ele>1822.0</ele>
        <time>2022-08-20T13:30:08Z</time>
      </trkpt>
      <trkpt lat="25.4782670" lon="-100.7929200">
        <ele>1820.4</ele>
        <time>2022-08-20T13:30:11Z</time>
      </trkpt>
      <trkpt lat="25.4782750" lon="-100.7927500">
        <ele>1818.8</ele>
        <time>2022-08-20T13:30:13Z</time>
      </trkpt>
      <trkpt lat="25.4782780" lon="-100.7926700">
        <ele>1818.0</ele>
        <time>2022-08-20T13:30:14Z</time>
      </trkpt>
      <trkpt lat="25.4782790" lon="-100.7925990">
        <ele>1817.6</ele>
        <time>2022-08-20T13:30:15Z</time>
      </trkpt>
      <trkpt lat="25.4782930" lon="-100.7922250">
        <ele>1817.2</ele>
        <time>2022-08-20T13:30:21Z</time>
      </trkpt>
      <trkpt lat="25.4783260" lon="-100.7916950">
        <ele>1818.0</ele>
        <time>2022-08-20T13:30:31Z</time>
      </trkpt>
      <trkpt lat="25.4783430" lon="-100.7914130">
        <ele>1818.6</ele>
        <time>2022-08-20T13:30:37Z</time>
      </trkpt>
      <trkpt lat="25.4783460" lon="-100.7912850">
        <ele>1819.2</ele>
        <time>2022-08-20T13:30:40Z</time>
      </trkpt>
      <trkpt lat="25.4783470" lon="-100.7912060">
        <ele>1819.6</ele>
        <time>2022-08-20T13:30:42Z</time>
      </trkpt>
      <trkpt lat="25.4783490" lon="-100.7910070">
        <ele>1820.8</ele>
        <time>2022-08-20T13:30:47Z</time>
      </trkpt>
      <trkpt lat="25.4783500" lon="-100.7908370">
        <ele>1822.0</ele>
        <time>2022-08-20T13:30:51Z</time>
      </trkpt>
      <trkpt lat="25.4783730" lon="-100.7903890">
        <ele>1823.0</ele>
        <time>2022-08-20T13:31:02Z</time>
      </trkpt>
      <trkpt lat="25.4783820" lon="-100.7903100">
        <ele>1823.4</ele>
        <time>2022-08-20T13:31:04Z</time>
      </trkpt>
      <trkpt lat="25.4784630" lon="-100.7897680">
        <ele>1824.2</ele>
        <time>2022-08-20T13:31:17Z</time>
      </trkpt>
      <trkpt lat="25.4784700" lon="-100.7897310">
        <ele>1824.2</ele>
        <time>2022-08-20T13:31:18Z</time>
      </trkpt>
      <trkpt lat="25.4785300" lon="-100.7894310">
        <ele>1825.2</ele>
        <time>2022-08-20T13:31:26Z</time>
      </trkpt>
      <trkpt lat="25.4785650" lon="-100.7891940">
        <ele>1825.8</ele>
        <time>2022-08-20T13:31:32Z</time>
      </trkpt>
      <trkpt lat="25.4785770" lon="-100.7891150">
        <ele>1826.2</ele>
        <time>2022-08-20T13:31:34Z</time>
      </trkpt>
      <trkpt lat="25.4786080" lon="-100.7888350">
        <ele>1827.2</ele>
        <time>2022-08-20T13:31:41Z</time>
      </trkpt>
      <trkpt lat="25.4786310" lon="-100.7886850">
        <ele>1827.4</ele>
        <time>2022-08-20T13:31:45Z</time>
      </trkpt>
      <trkpt lat="25.4786690" lon="-100.7884540">
        <ele>1828.0</ele>
        <time>2022-08-20T13:31:51Z</time>
      </trkpt>
      <trkpt lat="25.4787090" lon="-100.7881870">
        <ele>1828.6</ele>
        <time>2022-08-20T13:31:58Z</time>
      </trkpt>
      <trkpt lat="25.4787340" lon="-100.7879550">
        <ele>1829.2</ele>
        <time>2022-08-20T13:32:04Z</time>
      </trkpt>
      <trkpt lat="25.4787590" lon="-100.7877600">
        <ele>1829.8</ele>
        <time>2022-08-20T13:32:10Z</time>
      </trkpt>
      <trkpt lat="25.4787700" lon="-100.7876850">
        <ele>1830.2</ele>
        <time>2022-08-20T13:32:12Z</time>
      </trkpt>
      <trkpt lat="25.4787980" lon="-100.7875280">
        <ele>1831.2</ele>
        <time>2022-08-20T13:32:16Z</time>
      </trkpt>
      <trkpt lat="25.4788370" lon="-100.7873590">
        <ele>1832.0</ele>
        <time>2022-08-20T13:32:20Z</time>
      </trkpt>
      <trkpt lat="25.4788970" lon="-100.7870240">
        <ele>1832.4</ele>
        <time>2022-08-20T13:32:28Z</time>
      </trkpt>
      <trkpt lat="25.4789200" lon="-100.7868800">
        <ele>1832.6</ele>
        <time>2022-08-20T13:32:32Z</time>
      </trkpt>
      <trkpt lat="25.4789490" lon="-100.7866520">
        <ele>1833.2</ele>
        <time>2022-08-20T13:32:39Z</time>
      </trkpt>
      <trkpt lat="25.4789600" lon="-100.7865020">
        <ele>1834.2</ele>
        <time>2022-08-20T13:32:44Z</time>
      </trkpt>
      <trkpt lat="25.4789650" lon="-100.7863870">
        <ele>1835.4</ele>
        <time>2022-08-20T13:32:48Z</time>
      </trkpt>
      <trkpt lat="25.4789650" lon="-100.7862600">
        <ele>1836.8</ele>
        <time>2022-08-20T13:32:52Z</time>
      </trkpt>
      <trkpt lat="25.4789650" lon="-100.7862230">
        <ele>1837.0</ele>
        <time>2022-08-20T13:32:53Z</time>
      </trkpt>
      <trkpt lat="25.4789610" lon="-100.7859910">
        <ele>1837.6</ele>
        <time>2022-08-20T13:32:58Z</time>
      </trkpt>
      <trkpt lat="25.4789650" lon="-100.7859320">
        <ele>1837.6</ele>
        <time>2022-08-20T13:32:59Z</time>
      </trkpt>
      <trkpt lat="25.4790320" lon="-100.7855080">
        <ele>1838.0</ele>
        <time>2022-08-20T13:33:06Z</time>
      </trkpt>
      <trkpt lat="25.4790690" lon="-100.7850330">
        <ele>1838.0</ele>
        <time>2022-08-20T13:33:15Z</time>
      </trkpt>
      <trkpt lat="25.4790780" lon="-100.7848650">
        <ele>1838.8</ele>
        <time>2022-08-20T13:33:19Z</time>
      </trkpt>
      <trkpt lat="25.4790780" lon="-100.7847250">
        <ele>1839.4</ele>
        <time>2022-08-20T13:33:23Z</time>
      </trkpt>
      <trkpt lat="25.4790730" lon="-100.7846560">
        <ele>1840.0</ele>
        <time>2022-08-20T13:33:25Z</time>
      </trkpt>
      <trkpt lat="25.4790550" lon="-100.7845170">
        <ele>1841.2</ele>
        <time>2022-08-20T13:33:29Z</time>
      </trkpt>
      <trkpt lat="25.4790340" lon="-100.7844030">
        <ele>1842.4</ele>
        <time>2022-08-20T13:33:32Z</time>
      </trkpt>
      <trkpt lat="25.4790270" lon="-100.7843620">
        <ele>1842.6</ele>
        <time>2022-08-20T13:33:33Z</time>
      </trkpt>
      <trkpt lat="25.4789910" lon="-100.7841580">
        <ele>1843.4</ele>
        <time>2022-08-20T13:33:37Z</time>
      </trkpt>
      <trkpt lat="25.4789880" lon="-100.7840970">
        <ele>1843.4</ele>
        <time>2022-08-20T13:33:38Z</time>
      </trkpt>
      <trkpt lat="25.4790300" lon="-100.7838340">
        <ele>1844.0</ele>
        <time>2022-08-20T13:33:43Z</time>
      </trkpt>
      <trkpt lat="25.4790690" lon="-100.7837130">
        <ele>1844.4</ele>
        <time>2022-08-20T13:33:46Z</time>
      </trkpt>
      <trkpt lat="25.4791390" lon="-100.7834840">
        <ele>1845.0</ele>
        <time>2022-08-20T13:33:51Z</time>
      </trkpt>
      <trkpt lat="25.4791790" lon="-100.7833780">
        <ele>1845.2</ele>
        <time>2022-08-20T13:33:53Z</time>
      </trkpt>
      <trkpt lat="25.4792350" lon="-100.7832060">
        <ele>1845.6</ele>
        <time>2022-08-20T13:33:57Z</time>
      </trkpt>
      <trkpt lat="25.4793200" lon="-100.7829680">
        <ele>1846.2</ele>
        <time>2022-08-20T13:34:04Z</time>
      </trkpt>
      <trkpt lat="25.4793290" lon="-100.7829230">
        <ele>1846.6</ele>
        <time>2022-08-20T13:34:05Z</time>
      </trkpt>
      <trkpt lat="25.4793960" lon="-100.7826060">
        <ele>1847.2</ele>
        <time>2022-08-20T13:34:11Z</time>
      </trkpt>
      <trkpt lat="25.4794890" lon="-100.7822560">
        <ele>1847.4</ele>
        <time>2022-08-20T13:34:18Z</time>
      </trkpt>
      <trkpt lat="25.4795720" lon="-100.7818420">
        <ele>1847.6</ele>
        <time>2022-08-20T13:34:26Z</time>
      </trkpt>
      <trkpt lat="25.4795830" lon="-100.7817390">
        <ele>1848.0</ele>
        <time>2022-08-20T13:34:28Z</time>
      </trkpt>
      <trkpt lat="25.4795980" lon="-100.7815270">
        <ele>1848.6</ele>
        <time>2022-08-20T13:34:32Z</time>
      </trkpt>
      <trkpt lat="25.4796010" lon="-100.7811230">
        <ele>1849.4</ele>
        <time>2022-08-20T13:34:40Z</time>
      </trkpt>
      <trkpt lat="25.4796020" lon="-100.7810360">
        <ele>1849.4</ele>
        <time>2022-08-20T13:34:42Z</time>
      </trkpt>
      <trkpt lat="25.4796080" lon="-100.7808340">
        <ele>1850.4</ele>
        <time>2022-08-20T13:34:47Z</time>
      </trkpt>
      <trkpt lat="25.4796150" lon="-100.7806870">
        <ele>1851.4</ele>
        <time>2022-08-20T13:34:50Z</time>
      </trkpt>
      <trkpt lat="25.4796390" lon="-100.7805740">
        <ele>1851.6</ele>
        <time>2022-08-20T13:34:52Z</time>
      </trkpt>
      <trkpt lat="25.4796950" lon="-100.7803730">
        <ele>1851.6</ele>
        <time>2022-08-20T13:34:55Z</time>
      </trkpt>
      <trkpt lat="25.4798520" lon="-100.7799140">
        <ele>1852.0</ele>
        <time>2022-08-20T13:35:03Z</time>
      </trkpt>
      <trkpt lat="25.4799590" lon="-100.7796810">
        <ele>1852.4</ele>
        <time>2022-08-20T13:35:09Z</time>
      </trkpt>
      <trkpt lat="25.4799900" lon="-100.7796030">
        <ele>1853.2</ele>
        <time>2022-08-20T13:35:11Z</time>
      </trkpt>
      <trkpt lat="25.4800040" lon="-100.7795610">
        <ele>1853.6</ele>
        <time>2022-08-20T13:35:12Z</time>
      </trkpt>
      <trkpt lat="25.4800490" lon="-100.7794330">
        <ele>1854.8</ele>
        <time>2022-08-20T13:35:15Z</time>
      </trkpt>
      <trkpt lat="25.4801320" lon="-100.7791950">
        <ele>1855.0</ele>
        <time>2022-08-20T13:35:21Z</time>
      </trkpt>
      <trkpt lat="25.4802340" lon="-100.7789570">
        <ele>1855.8</ele>
        <time>2022-08-20T13:35:28Z</time>
      </trkpt>
      <trkpt lat="25.4803030" lon="-100.7788410">
        <ele>1856.6</ele>
        <time>2022-08-20T13:35:32Z</time>
      </trkpt>
      <trkpt lat="25.4803220" lon="-100.7788160">
        <ele>1857.0</ele>
        <time>2022-08-20T13:35:33Z</time>
      </trkpt>
      <trkpt lat="25.4804230" lon="-100.7786850">
        <ele>1857.8</ele>
        <time>2022-08-20T13:35:39Z</time>
      </trkpt>
      <trkpt lat="25.4805180" lon="-100.7785380">
        <ele>1858.8</ele>
        <time>2022-08-20T13:35:45Z</time>
      </trkpt>
      <trkpt lat="25.4805730" lon="-100.7784330">
        <ele>1859.8</ele>
        <time>2022-08-20T13:35:49Z</time>
      </trkpt>
      <trkpt lat="25.4805920" lon="-100.7784090">
        <ele>1860.0</ele>
        <time>2022-08-20T13:35:50Z</time>
      </trkpt>
      <trkpt lat="25.4806640" lon="-100.7782960">
        <ele>1861.0</ele>
        <time>2022-08-20T13:35:54Z</time>
      </trkpt>
      <trkpt lat="25.4807240" lon="-100.7781890">
        <ele>1861.6</ele>
        <time>2022-08-20T13:35:57Z</time>
      </trkpt>
      <trkpt lat="25.4809150" lon="-100.7777890">
        <ele>1861.8</ele>
        <time>2022-08-20T13:36:07Z</time>
      </trkpt>
      <trkpt lat="25.4810410" lon="-100.7774900">
        <ele>1861.8</ele>
        <time>2022-08-20T13:36:13Z</time>
      </trkpt>
      <trkpt lat="25.4812510" lon="-100.7770720">
        <ele>1861.2</ele>
        <time>2022-08-20T13:36:20Z</time>
      </trkpt>
      <trkpt lat="25.4812780" lon="-100.7770170">
        <ele>1860.8</ele>
        <time>2022-08-20T13:36:21Z</time>
      </trkpt>
      <trkpt lat="25.4814970" lon="-100.7765520">
        <ele>1860.4</ele>
        <time>2022-08-20T13:36:29Z</time>
      </trkpt>
      <trkpt lat="25.4817010" lon="-100.7760440">
        <ele>1861.0</ele>
        <time>2022-08-20T13:36:39Z</time>
      </trkpt>
      <trkpt lat="25.4817360" lon="-100.7759460">
        <ele>1861.4</ele>
        <time>2022-08-20T13:36:41Z</time>
      </trkpt>
      <trkpt lat="25.4817720" lon="-100.7758490">
        <ele>1861.6</ele>
        <time>2022-08-20T13:36:43Z</time>
      </trkpt>
      <trkpt lat="25.4819240" lon="-100.7754570">
        <ele>1862.6</ele>
        <time>2022-08-20T13:36:51Z</time>
      </trkpt>
      <trkpt lat="25.4819760" lon="-100.7753010">
        <ele>1862.8</ele>
        <time>2022-08-20T13:36:54Z</time>
      </trkpt>
      <trkpt lat="25.4820510" lon="-100.7749910">
        <ele>1863.0</ele>
        <time>2022-08-20T13:37:00Z</time>
      </trkpt>
      <trkpt lat="25.4821920" lon="-100.7746120">
        <ele>1863.6</ele>
        <time>2022-08-20T13:37:09Z</time>
      </trkpt>
      <trkpt lat="25.4822110" lon="-100.7745760">
        <ele>1863.8</ele>
        <time>2022-08-20T13:37:10Z</time>
      </trkpt>
      <trkpt lat="25.4823630" lon="-100.7743350">
        <ele>1865.2</ele>
        <time>2022-08-20T13:37:18Z</time>
      </trkpt>
      <trkpt lat="25.4823780" lon="-100.7743040">
        <ele>1865.4</ele>
        <time>2022-08-20T13:37:19Z</time>
      </trkpt>
      <trkpt lat="25.4824210" lon="-100.7741880">
        <ele>1866.2</ele>
        <time>2022-08-20T13:37:22Z</time>
      </trkpt>
      <trkpt lat="25.4824470" lon="-100.7740000">
        <ele>1867.2</ele>
        <time>2022-08-20T13:37:26Z</time>
      </trkpt>
      <trkpt lat="25.4824490" lon="-100.7738930">
        <ele>1867.2</ele>
        <time>2022-08-20T13:37:28Z</time>
      </trkpt>
      <trkpt lat="25.4824500" lon="-100.7734860">
        <ele>1867.4</ele>
        <time>2022-08-20T13:37:36Z</time>
      </trkpt>
      <trkpt lat="25.4824450" lon="-100.7733090">
        <ele>1867.8</ele>
        <time>2022-08-20T13:37:42Z</time>
      </trkpt>
      <trkpt lat="25.4824420" lon="-100.7732840">
        <ele>1868.2</ele>
        <time>2022-08-20T13:37:43Z</time>
      </trkpt>
      <trkpt lat="25.4824340" lon="-100.7732120">
        <ele>1869.2</ele>
        <time>2022-08-20T13:37:46Z</time>
      </trkpt>
      <trkpt lat="25.4824200" lon="-100.7731220">
        <ele>1870.4</ele>
        <time>2022-08-20T13:37:50Z</time>
      </trkpt>
      <trkpt lat="25.4823990" lon="-100.7730290">
        <ele>1871.4</ele>
        <time>2022-08-20T13:37:54Z</time>
      </trkpt>
      <trkpt lat="25.4823920" lon="-100.7730050">
        <ele>1871.8</ele>
        <time>2022-08-20T13:37:55Z</time>
      </trkpt>
      <trkpt lat="25.4823810" lon="-100.7729590">
        <ele>1872.4</ele>
        <time>2022-08-20T13:37:57Z</time>
      </trkpt>
      <trkpt lat="25.4823540" lon="-100.7728350">
        <ele>1873.8</ele>
        <time>2022-08-20T13:38:02Z</time>
      </trkpt>
      <trkpt lat="25.4823350" lon="-100.7727090">
        <ele>1874.8</ele>
        <time>2022-08-20T13:38:06Z</time>
      </trkpt>
      <trkpt lat="25.4823320" lon="-100.7726710">
        <ele>1875.0</ele>
        <time>2022-08-20T13:38:07Z</time>
      </trkpt>
      <trkpt lat="25.4823460" lon="-100.7724180">
        <ele>1875.2</ele>
        <time>2022-08-20T13:38:12Z</time>
      </trkpt>
      <trkpt lat="25.4824540" lon="-100.7719870">
        <ele>1873.8</ele>
        <time>2022-08-20T13:38:20Z</time>
      </trkpt>
      <trkpt lat="25.4824690" lon="-100.7719390">
        <ele>1873.6</ele>
        <time>2022-08-20T13:38:21Z</time>
      </trkpt>
      <trkpt lat="25.4825980" lon="-100.7715670">
        <ele>1873.6</ele>
        <time>2022-08-20T13:38:29Z</time>
      </trkpt>
      <trkpt lat="25.4828310" lon="-100.7712850">
        <ele>1873.6</ele>
        <time>2022-08-20T13:38:35Z</time>
      </trkpt>
      <trkpt lat="25.4831200" lon="-100.7710090">
        <ele>1873.6</ele>
        <time>2022-08-20T13:38:42Z</time>
      </trkpt>
      <trkpt lat="25.4834500" lon="-100.7707330">
        <ele>1874.2</ele>
        <time>2022-08-20T13:38:50Z</time>
      </trkpt>
      <trkpt lat="25.4835290" lon="-100.7706730">
        <ele>1874.4</ele>
        <time>2022-08-20T13:38:52Z</time>
      </trkpt>
      <trkpt lat="25.4836490" lon="-100.7705890">
        <ele>1874.6</ele>
        <time>2022-08-20T13:38:55Z</time>
      </trkpt>
      <trkpt lat="25.4839310" lon="-100.7703620">
        <ele>1875.4</ele>
        <time>2022-08-20T13:39:03Z</time>
      </trkpt>
      <trkpt lat="25.4840630" lon="-100.7702620">
        <ele>1875.8</ele>
        <time>2022-08-20T13:39:07Z</time>
      </trkpt>
      <trkpt lat="25.4842570" lon="-100.7700800">
        <ele>1876.4</ele>
        <time>2022-08-20T13:39:14Z</time>
      </trkpt>
      <trkpt lat="25.4844870" lon="-100.7698550">
        <ele>1876.8</ele>
        <time>2022-08-20T13:39:22Z</time>
      </trkpt>
      <trkpt lat="25.4846630" lon="-100.7695910">
        <ele>1877.4</ele>
        <time>2022-08-20T13:39:30Z</time>
      </trkpt>
      <trkpt lat="25.4847290" lon="-100.7694780">
        <ele>1877.8</ele>
        <time>2022-08-20T13:39:34Z</time>
      </trkpt>
      <trkpt lat="25.4847450" lon="-100.7694520">
        <ele>1878.0</ele>
        <time>2022-08-20T13:39:35Z</time>
      </trkpt>
      <trkpt lat="25.4848360" lon="-100.7692670">
        <ele>1878.6</ele>
        <time>2022-08-20T13:39:41Z</time>
      </trkpt>
      <trkpt lat="25.4848910" lon="-100.7691710">
        <ele>1879.2</ele>
        <time>2022-08-20T13:39:44Z</time>
      </trkpt>
      <trkpt lat="25.4849370" lon="-100.7690740">
        <ele>1879.8</ele>
        <time>2022-08-20T13:39:47Z</time>
      </trkpt>
      <trkpt lat="25.4850470" lon="-100.7688520">
        <ele>1881.0</ele>
        <time>2022-08-20T13:39:53Z</time>
      </trkpt>
      <trkpt lat="25.4850670" lon="-100.7688180">
        <ele>1881.2</ele>
        <time>2022-08-20T13:39:54Z</time>
      </trkpt>
      <trkpt lat="25.4851590" lon="-100.7686430">
        <ele>1882.0</ele>
        <time>2022-08-20T13:39:59Z</time>
      </trkpt>
      <trkpt lat="25.4852330" lon="-100.7685040">
        <ele>1883.0</ele>
        <time>2022-08-20T13:40:03Z</time>
      </trkpt>
      <trkpt lat="25.4852710" lon="-100.7684520">
        <ele>1883.2</ele>
        <time>2022-08-20T13:40:05Z</time>
      </trkpt>
      <trkpt lat="25.4854230" lon="-100.7683110">
        <ele>1884.2</ele>
        <time>2022-08-20T13:40:11Z</time>
      </trkpt>
      <trkpt lat="25.4856630" lon="-100.7681310">
        <ele>1885.2</ele>
        <time>2022-08-20T13:40:20Z</time>
      </trkpt>
      <trkpt lat="25.4857850" lon="-100.7680500">
        <ele>1885.4</ele>
        <time>2022-08-20T13:40:24Z</time>
      </trkpt>
      <trkpt lat="25.4859880" lon="-100.7679300">
        <ele>1885.8</ele>
        <time>2022-08-20T13:40:30Z</time>
      </trkpt>
      <trkpt lat="25.4861040" lon="-100.7678280">
        <ele>1886.2</ele>
        <time>2022-08-20T13:40:34Z</time>
      </trkpt>
      <trkpt lat="25.4862410" lon="-100.7676940">
        <ele>1886.6</ele>
        <time>2022-08-20T13:40:39Z</time>
      </trkpt>
      <trkpt lat="25.4864140" lon="-100.7675360">
        <ele>1887.2</ele>
        <time>2022-08-20T13:40:45Z</time>
      </trkpt>
      <trkpt lat="25.4865060" lon="-100.7674630">
        <ele>1887.4</ele>
        <time>2022-08-20T13:40:48Z</time>
      </trkpt>
      <trkpt lat="25.4867520" lon="-100.7672600">
        <ele>1888.4</ele>
        <time>2022-08-20T13:40:57Z</time>
      </trkpt>
      <trkpt lat="25.4870290" lon="-100.7670070">
        <ele>1889.0</ele>
        <time>2022-08-20T13:41:07Z</time>
      </trkpt>
      <trkpt lat="25.4870580" lon="-100.7669830">
        <ele>1889.2</ele>
        <time>2022-08-20T13:41:08Z</time>
      </trkpt>
      <trkpt lat="25.4872750" lon="-100.7667790">
        <ele>1890.2</ele>
        <time>2022-08-20T13:41:16Z</time>
      </trkpt>
      <trkpt lat="25.4873020" lon="-100.7667510">
        <ele>1890.4</ele>
        <time>2022-08-20T13:41:17Z</time>
      </trkpt>
      <trkpt lat="25.4875330" lon="-100.7664900">
        <ele>1891.2</ele>
        <time>2022-08-20T13:41:26Z</time>
      </trkpt>
      <trkpt lat="25.4876590" lon="-100.7663960">
        <ele>1891.2</ele>
        <time>2022-08-20T13:41:30Z</time>
      </trkpt>
      <trkpt lat="25.4878360" lon="-100.7662150">
        <ele>1891.8</ele>
        <time>2022-08-20T13:41:37Z</time>
      </trkpt>
      <trkpt lat="25.4879710" lon="-100.7661010">
        <ele>1892.4</ele>
        <time>2022-08-20T13:41:42Z</time>
      </trkpt>
      <trkpt lat="25.4881040" lon="-100.7659950">
        <ele>1893.0</ele>
        <time>2022-08-20T13:41:47Z</time>
      </trkpt>
      <trkpt lat="25.4882070" lon="-100.7658980">
        <ele>1893.4</ele>
        <time>2022-08-20T13:41:51Z</time>
      </trkpt>
      <trkpt lat="25.4883140" lon="-100.7658020">
        <ele>1894.0</ele>
        <time>2022-08-20T13:41:55Z</time>
      </trkpt>
      <trkpt lat="25.4883950" lon="-100.7657330">
        <ele>1894.6</ele>
        <time>2022-08-20T13:41:58Z</time>
      </trkpt>
      <trkpt lat="25.4885310" lon="-100.7656050">
        <ele>1895.0</ele>
        <time>2022-08-20T13:42:03Z</time>
      </trkpt>
      <trkpt lat="25.4886330" lon="-100.7654490">
        <ele>1895.4</ele>
        <time>2022-08-20T13:42:08Z</time>
      </trkpt>
      <trkpt lat="25.4887880" lon="-100.7651350">
        <ele>1895.8</ele>
        <time>2022-08-20T13:42:17Z</time>
      </trkpt>
      <trkpt lat="25.4889750" lon="-100.7647930">
        <ele>1896.4</ele>
        <time>2022-08-20T13:42:26Z</time>
      </trkpt>
      <trkpt lat="25.4890480" lon="-100.7646860">
        <ele>1896.6</ele>
        <time>2022-08-20T13:42:29Z</time>
      </trkpt>
      <trkpt lat="25.4892510" lon="-100.7644070">
        <ele>1897.0</ele>
        <time>2022-08-20T13:42:38Z</time>
      </trkpt>
      <trkpt lat="25.4893310" lon="-100.7642140">
        <ele>1897.0</ele>
        <time>2022-08-20T13:42:42Z</time>
      </trkpt>
      <trkpt lat="25.4893450" lon="-100.7641570">
        <ele>1897.0</ele>
        <time>2022-08-20T13:42:43Z</time>
      </trkpt>
      <trkpt lat="25.4893540" lon="-100.7638600">
        <ele>1896.4</ele>
        <time>2022-08-20T13:42:48Z</time>
      </trkpt>
      <trkpt lat="25.4893160" lon="-100.7637380">
        <ele>1895.4</ele>
        <time>2022-08-20T13:42:51Z</time>
      </trkpt>
      <trkpt lat="25.4892960" lon="-100.7636840">
        <ele>1894.8</ele>
        <time>2022-08-20T13:42:53Z</time>
      </trkpt>
      <trkpt lat="25.4892760" lon="-100.7636720">
        <ele>1894.4</ele>
        <time>2022-08-20T13:42:57Z</time>
      </trkpt>
      <trkpt lat="25.4892650" lon="-100.7636910">
        <ele>1894.4</ele>
        <time>2022-08-20T13:43:08Z</time>
      </trkpt>
      <trkpt lat="25.4892660" lon="-100.7636950">
        <ele>1894.2</ele>
        <time>2022-08-20T13:43:23Z</time>
      </trkpt>
      <trkpt lat="25.4892630" lon="-100.7637080">
        <ele>1894.2</ele>
        <time>2022-08-20T13:43:43Z</time>
      </trkpt>
      <trkpt lat="25.4892530" lon="-100.7637240">
        <ele>1894.6</ele>
        <time>2022-08-20T13:44:14Z</time>
      </trkpt>
      <trkpt lat="25.4892410" lon="-100.7637460">
        <ele>1894.4</ele>
        <time>2022-08-20T13:44:40Z</time>
      </trkpt>
      <trkpt lat="25.4892690" lon="-100.7637170">
        <ele>1894.4</ele>
        <time>2022-08-20T13:44:52Z</time>
      </trkpt>
      <trkpt lat="25.4893330" lon="-100.7637020">
        <ele>1894.2</ele>
        <time>2022-08-20T13:45:02Z</time>
      </trkpt>
      <trkpt lat="25.4893560" lon="-100.7636830">
        <ele>1894.2</ele>
        <time>2022-08-20T13:45:21Z</time>
      </trkpt>
      <trkpt lat="25.4893680" lon="-100.7636870">
        <ele>1894.2</ele>
        <time>2022-08-20T13:45:39Z</time>
      </trkpt>
      <trkpt lat="25.4893690" lon="-100.7636940">
        <ele>1894.0</ele>
        <time>2022-08-20T13:45:56Z</time>
      </trkpt>
      <trkpt lat="25.4893700" lon="-100.7636950">
        <ele>1894.0</ele>
        <time>2022-08-20T13:46:02Z</time>
      </trkpt>
      <trkpt lat="25.4893620" lon="-100.7637100">
        <ele>1894.0</ele>
        <time>2022-08-20T13:46:17Z</time>
      </trkpt>
      <trkpt lat="25.4893620" lon="-100.7637090">
        <ele>1894.0</ele>
        <time>2022-08-20T13:46:28Z</time>
      </trkpt>
      <trkpt lat="25.4893470" lon="-100.7637460">
        <ele>1894.2</ele>
        <time>2022-08-20T13:46:40Z</time>
      </trkpt>
      <trkpt lat="25.4893330" lon="-100.7638630">
        <ele>1894.4</ele>
        <time>2022-08-20T13:46:44Z</time>
      </trkpt>
      <trkpt lat="25.4893300" lon="-100.7639070">
        <ele>1894.4</ele>
        <time>2022-08-20T13:46:45Z</time>
      </trkpt>
      <trkpt lat="25.4892940" lon="-100.7642500">
        <ele>1894.6</ele>
        <time>2022-08-20T13:46:52Z</time>
      </trkpt>
      <trkpt lat="25.4892770" lon="-100.7642970">
        <ele>1894.8</ele>
        <time>2022-08-20T13:46:53Z</time>
      </trkpt>
      <trkpt lat="25.4891780" lon="-100.7644870">
        <ele>1895.6</ele>
        <time>2022-08-20T13:46:58Z</time>
      </trkpt>
      <trkpt lat="25.4891570" lon="-100.7645210">
        <ele>1895.8</ele>
        <time>2022-08-20T13:46:59Z</time>
      </trkpt>
      <trkpt lat="25.4890630" lon="-100.7646640">
        <ele>1896.6</ele>
        <time>2022-08-20T13:47:03Z</time>
      </trkpt>
      <trkpt lat="25.4889120" lon="-100.7648650">
        <ele>1897.4</ele>
        <time>2022-08-20T13:47:09Z</time>
      </trkpt>
      <trkpt lat="25.4888360" lon="-100.7649700">
        <ele>1897.4</ele>
        <time>2022-08-20T13:47:14Z</time>
      </trkpt>
      <trkpt lat="25.4888650" lon="-100.7649490">
        <ele>1897.4</ele>
        <time>2022-08-20T13:47:17Z</time>
      </trkpt>
      <trkpt lat="25.4888840" lon="-100.7649230">
        <ele>1897.4</ele>
        <time>2022-08-20T13:47:18Z</time>
      </trkpt>
      <trkpt lat="25.4889840" lon="-100.7647700">
        <ele>1897.2</ele>
        <time>2022-08-20T13:47:22Z</time>
      </trkpt>
      <trkpt lat="25.4891920" lon="-100.7644390">
        <ele>1896.6</ele>
        <time>2022-08-20T13:47:28Z</time>
      </trkpt>
      <trkpt lat="25.4892640" lon="-100.7642810">
        <ele>1896.6</ele>
        <time>2022-08-20T13:47:30Z</time>
      </trkpt>
      <trkpt lat="25.4893070" lon="-100.7641000">
        <ele>1896.2</ele>
        <time>2022-08-20T13:47:32Z</time>
      </trkpt>
      <trkpt lat="25.4893440" lon="-100.7638000">
        <ele>1895.4</ele>
        <time>2022-08-20T13:47:36Z</time>
      </trkpt>
      <trkpt lat="25.4893460" lon="-100.7637440">
        <ele>1894.8</ele>
        <time>2022-08-20T13:47:37Z</time>
      </trkpt>
      <trkpt lat="25.4893570" lon="-100.7636750">
        <ele>1894.6</ele>
        <time>2022-08-20T13:47:39Z</time>
      </trkpt>
      <trkpt lat="25.4893730" lon="-100.7636250">
        <ele>1894.4</ele>
        <time>2022-08-20T13:47:44Z</time>
      </trkpt>
      <trkpt lat="25.4893680" lon="-100.7636280">
        <ele>1894.6</ele>
        <time>2022-08-20T13:47:58Z</time>
      </trkpt>
      <trkpt lat="25.4893520" lon="-100.7636430">
        <ele>1894.2</ele>
        <time>2022-08-20T13:48:21Z</time>
      </trkpt>
      <trkpt lat="25.4893380" lon="-100.7636650">
        <ele>1893.8</ele>
        <time>2022-08-20T13:48:47Z</time>
      </trkpt>
      <trkpt lat="25.4893260" lon="-100.7636810">
        <ele>1893.6</ele>
        <time>2022-08-20T13:49:17Z</time>
      </trkpt>
      <trkpt lat="25.4893240" lon="-100.7636850">
        <ele>1893.8</ele>
        <time>2022-08-20T13:49:28Z</time>
      </trkpt>
      <trkpt lat="25.4893240" lon="-100.7636890">
        <ele>1893.6</ele>
        <time>2022-08-20T13:49:50Z</time>
      </trkpt>
      <trkpt lat="25.4893130" lon="-100.7637050">
        <ele>1893.4</ele>
        <time>2022-08-20T13:50:24Z</time>
      </trkpt>
      <trkpt lat="25.4893330" lon="-100.7637060">
        <ele>1893.4</ele>
        <time>2022-08-20T13:50:45Z</time>
      </trkpt>
      <trkpt lat="25.4893370" lon="-100.7637080">
        <ele>1893.6</ele>
        <time>2022-08-20T13:50:51Z</time>
      </trkpt>
      <trkpt lat="25.4893450" lon="-100.7637090">
        <ele>1893.4</ele>
        <time>2022-08-20T13:51:10Z</time>
      </trkpt>
      <trkpt lat="25.4893450" lon="-100.7637090">
        <ele>1893.4</ele>
        <time>2022-08-20T13:51:15Z</time>
      </trkpt>
      <trkpt lat="25.4893440" lon="-100.7637150">
        <ele>1893.6</ele>
        <time>2022-08-20T13:51:40Z</time>
      </trkpt>
      <trkpt lat="25.4893430" lon="-100.7637160">
        <ele>1893.8</ele>
        <time>2022-08-20T13:51:43Z</time>
      </trkpt>
      <trkpt lat="25.4893490" lon="-100.7637210">
        <ele>1893.8</ele>
        <time>2022-08-20T13:52:16Z</time>
      </trkpt>
      <trkpt lat="25.4893500" lon="-100.7637220">
        <ele>1893.4</ele>
        <time>2022-08-20T13:52:52Z</time>
      </trkpt>
      <trkpt lat="25.4893330" lon="-100.7637690">
        <ele>1893.6</ele>
        <time>2022-08-20T13:53:02Z</time>
      </trkpt>
      <trkpt lat="25.4893250" lon="-100.7638050">
        <ele>1893.6</ele>
        <time>2022-08-20T13:53:04Z</time>
      </trkpt>
      <trkpt lat="25.4893270" lon="-100.7638710">
        <ele>1893.6</ele>
        <time>2022-08-20T13:53:07Z</time>
      </trkpt>
      <trkpt lat="25.4893280" lon="-100.7639830">
        <ele>1893.8</ele>
        <time>2022-08-20T13:53:11Z</time>
      </trkpt>
      <trkpt lat="25.4893220" lon="-100.7642430">
        <ele>1894.4</ele>
        <time>2022-08-20T13:53:20Z</time>
      </trkpt>
      <trkpt lat="25.4892840" lon="-100.7643270">
        <ele>1894.8</ele>
        <time>2022-08-20T13:53:26Z</time>
      </trkpt>
      <trkpt lat="25.4892820" lon="-100.7642960">
        <ele>1894.8</ele>
        <time>2022-08-20T13:53:28Z</time>
      </trkpt>
      <trkpt lat="25.4892900" lon="-100.7642030">
        <ele>1894.8</ele>
        <time>2022-08-20T13:53:31Z</time>
      </trkpt>
      <trkpt lat="25.4892990" lon="-100.7638420">
        <ele>1893.8</ele>
        <time>2022-08-20T13:53:38Z</time>
      </trkpt>
      <trkpt lat="25.4892920" lon="-100.7635120">
        <ele>1893.0</ele>
        <time>2022-08-20T13:53:43Z</time>
      </trkpt>
      <trkpt lat="25.4892910" lon="-100.7633750">
        <ele>1892.6</ele>
        <time>2022-08-20T13:53:45Z</time>
      </trkpt>
      <trkpt lat="25.4893140" lon="-100.7629670">
        <ele>1892.0</ele>
        <time>2022-08-20T13:53:52Z</time>
      </trkpt>
      <trkpt lat="25.4893760" lon="-100.7628350">
        <ele>1892.0</ele>
        <time>2022-08-20T13:53:57Z</time>
      </trkpt>
      <trkpt lat="25.4894690" lon="-100.7628440">
        <ele>1893.6</ele>
        <time>2022-08-20T13:54:03Z</time>
      </trkpt>
      <trkpt lat="25.4894820" lon="-100.7628510">
        <ele>1894.0</ele>
        <time>2022-08-20T13:54:04Z</time>
      </trkpt>
      <trkpt lat="25.4895290" lon="-100.7628770">
        <ele>1895.0</ele>
        <time>2022-08-20T13:54:07Z</time>
      </trkpt>
      <trkpt lat="25.4896070" lon="-100.7629260">
        <ele>1896.4</ele>
        <time>2022-08-20T13:54:11Z</time>
      </trkpt>
      <trkpt lat="25.4896490" lon="-100.7629530">
        <ele>1897.0</ele>
        <time>2022-08-20T13:54:13Z</time>
      </trkpt>
      <trkpt lat="25.4896900" lon="-100.7629830">
        <ele>1897.4</ele>
        <time>2022-08-20T13:54:15Z</time>
      </trkpt>
      <trkpt lat="25.4898070" lon="-100.7630540">
        <ele>1898.6</ele>
        <time>2022-08-20T13:54:21Z</time>
      </trkpt>
      <trkpt lat="25.4898470" lon="-100.7630590">
        <ele>1899.2</ele>
        <time>2022-08-20T13:54:23Z</time>
      </trkpt>
      <trkpt lat="25.4899270" lon="-100.7630420">
        <ele>1899.8</ele>
        <time>2022-08-20T13:54:27Z</time>
      </trkpt>
      <trkpt lat="25.4900080" lon="-100.7630080">
        <ele>1901.0</ele>
        <time>2022-08-20T13:54:31Z</time>
      </trkpt>
      <trkpt lat="25.4900260" lon="-100.7629940">
        <ele>1901.2</ele>
        <time>2022-08-20T13:54:32Z</time>
      </trkpt>
      <trkpt lat="25.4900990" lon="-100.7629170">
        <ele>1901.8</ele>
        <time>2022-08-20T13:54:37Z</time>
      </trkpt>
      <trkpt lat="25.4901360" lon="-100.7628670">
        <ele>1902.2</ele>
        <time>2022-08-20T13:54:40Z</time>
      </trkpt>
      <trkpt lat="25.4901910" lon="-100.7627950">
        <ele>1903.0</ele>
        <time>2022-08-20T13:54:45Z</time>
      </trkpt>
      <trkpt lat="25.4902190" lon="-100.7627600">
        <ele>1903.6</ele>
        <time>2022-08-20T13:54:48Z</time>
      </trkpt>
      <trkpt lat="25.4902510" lon="-100.7627250">
        <ele>1904.2</ele>
        <time>2022-08-20T13:54:51Z</time>
      </trkpt>
      <trkpt lat="25.4903210" lon="-100.7626180">
        <ele>1905.2</ele>
        <time>2022-08-20T13:54:57Z</time>
      </trkpt>
      <trkpt lat="25.4903320" lon="-100.7626010">
        <ele>1905.4</ele>
        <time>2022-08-20T13:54:58Z</time>
      </trkpt>
      <trkpt lat="25.4903790" lon="-100.7625270">
        <ele>1906.0</ele>
        <time>2022-08-20T13:55:02Z</time>
      </trkpt>
      <trkpt lat="25.4904600" lon="-100.7624090">
        <ele>1907.2</ele>
        <time>2022-08-20T13:55:08Z</time>
      </trkpt>
      <trkpt lat="25.4904720" lon="-100.7623880">
        <ele>1907.4</ele>
        <time>2022-08-20T13:55:09Z</time>
      </trkpt>
      <trkpt lat="25.4905200" lon="-100.7622820">
        <ele>1908.2</ele>
        <time>2022-08-20T13:55:14Z</time>
      </trkpt>
      <trkpt lat="25.4905560" lon="-100.7621630">
        <ele>1909.4</ele>
        <time>2022-08-20T13:55:20Z</time>
      </trkpt>
      <trkpt lat="25.4905740" lon="-100.7620470">
        <ele>1910.6</ele>
        <time>2022-08-20T13:55:25Z</time>
      </trkpt>
      <trkpt lat="25.4905860" lon="-100.7619380">
        <ele>1911.6</ele>
        <time>2022-08-20T13:55:29Z</time>
      </trkpt>
      <trkpt lat="25.4905930" lon="-100.7618580">
        <ele>1912.2</ele>
        <time>2022-08-20T13:55:32Z</time>
      </trkpt>
      <trkpt lat="25.4905940" lon="-100.7617740">
        <ele>1912.6</ele>
        <time>2022-08-20T13:55:35Z</time>
      </trkpt>
      <trkpt lat="25.4905870" lon="-100.7615790">
        <ele>1913.6</ele>
        <time>2022-08-20T13:55:41Z</time>
      </trkpt>
      <trkpt lat="25.4905370" lon="-100.7612180">
        <ele>1914.2</ele>
        <time>2022-08-20T13:55:50Z</time>
      </trkpt>
      <trkpt lat="25.4903950" lon="-100.7608210">
        <ele>1914.2</ele>
        <time>2022-08-20T13:55:58Z</time>
      </trkpt>
      <trkpt lat="25.4901880" lon="-100.7603650">
        <ele>1913.2</ele>
        <time>2022-08-20T13:56:06Z</time>
      </trkpt>
      <trkpt lat="25.4899160" lon="-100.7598800">
        <ele>1913.2</ele>
        <time>2022-08-20T13:56:15Z</time>
      </trkpt>
      <trkpt lat="25.4897280" lon="-100.7594610">
        <ele>1913.8</ele>
        <time>2022-08-20T13:56:23Z</time>
      </trkpt>
      <trkpt lat="25.4896830" lon="-100.7593590">
        <ele>1914.4</ele>
        <time>2022-08-20T13:56:25Z</time>
      </trkpt>
      <trkpt lat="25.4895510" lon="-100.7590240">
        <ele>1915.8</ele>
        <time>2022-08-20T13:56:32Z</time>
      </trkpt>
      <trkpt lat="25.4894480" lon="-100.7587730">
        <ele>1916.8</ele>
        <time>2022-08-20T13:56:38Z</time>
      </trkpt>
      <trkpt lat="25.4893910" lon="-100.7586620">
        <ele>1917.4</ele>
        <time>2022-08-20T13:56:41Z</time>
      </trkpt>
      <trkpt lat="25.4893730" lon="-100.7586240">
        <ele>1917.6</ele>
        <time>2022-08-20T13:56:42Z</time>
      </trkpt>
      <trkpt lat="25.4893000" lon="-100.7584170">
        <ele>1919.0</ele>
        <time>2022-08-20T13:56:47Z</time>
      </trkpt>
      <trkpt lat="25.4892410" lon="-100.7582570">
        <ele>1919.8</ele>
        <time>2022-08-20T13:56:51Z</time>
      </trkpt>
      <trkpt lat="25.4892260" lon="-100.7582170">
        <ele>1920.2</ele>
        <time>2022-08-20T13:56:52Z</time>
      </trkpt>
      <trkpt lat="25.4891610" lon="-100.7580600">
        <ele>1921.2</ele>
        <time>2022-08-20T13:56:56Z</time>
      </trkpt>
      <trkpt lat="25.4890780" lon="-100.7578660">
        <ele>1922.4</ele>
        <time>2022-08-20T13:57:01Z</time>
      </trkpt>
      <trkpt lat="25.4890600" lon="-100.7578280">
        <ele>1922.6</ele>
        <time>2022-08-20T13:57:02Z</time>
      </trkpt>
      <trkpt lat="25.4889690" lon="-100.7575400">
        <ele>1923.2</ele>
        <time>2022-08-20T13:57:08Z</time>
      </trkpt>
      <trkpt lat="25.4889230" lon="-100.7574350">
        <ele>1923.2</ele>
        <time>2022-08-20T13:57:10Z</time>
      </trkpt>
      <trkpt lat="25.4888440" lon="-100.7573190">
        <ele>1923.4</ele>
        <time>2022-08-20T13:57:13Z</time>
      </trkpt>
      <trkpt lat="25.4887860" lon="-100.7572450">
        <ele>1923.6</ele>
        <time>2022-08-20T13:57:15Z</time>
      </trkpt>
      <trkpt lat="25.4887140" lon="-100.7570910">
        <ele>1923.8</ele>
        <time>2022-08-20T13:57:18Z</time>
      </trkpt>
      <trkpt lat="25.4886850" lon="-100.7569610">
        <ele>1923.6</ele>
        <time>2022-08-20T13:57:20Z</time>
      </trkpt>
      <trkpt lat="25.4886480" lon="-100.7567010">
        <ele>1923.8</ele>
        <time>2022-08-20T13:57:24Z</time>
      </trkpt>
      <trkpt lat="25.4885810" lon="-100.7562020">
        <ele>1924.0</ele>
        <time>2022-08-20T13:57:33Z</time>
      </trkpt>
      <trkpt lat="25.4885390" lon="-100.7559600">
        <ele>1924.6</ele>
        <time>2022-08-20T13:57:38Z</time>
      </trkpt>
      <trkpt lat="25.4885060" lon="-100.7557820">
        <ele>1925.6</ele>
        <time>2022-08-20T13:57:42Z</time>
      </trkpt>
      <trkpt lat="25.4884800" lon="-100.7556550">
        <ele>1926.0</ele>
        <time>2022-08-20T13:57:45Z</time>
      </trkpt>
      <trkpt lat="25.4884350" lon="-100.7554440">
        <ele>1926.8</ele>
        <time>2022-08-20T13:57:50Z</time>
      </trkpt>
      <trkpt lat="25.4884270" lon="-100.7553470">
        <ele>1926.8</ele>
        <time>2022-08-20T13:57:52Z</time>
      </trkpt>
      <trkpt lat="25.4883560" lon="-100.7550500">
        <ele>1927.6</ele>
        <time>2022-08-20T13:57:59Z</time>
      </trkpt>
      <trkpt lat="25.4883410" lon="-100.7550080">
        <ele>1927.6</ele>
        <time>2022-08-20T13:58:00Z</time>
      </trkpt>
      <trkpt lat="25.4882360" lon="-100.7548200">
        <ele>1929.0</ele>
        <time>2022-08-20T13:58:05Z</time>
      </trkpt>
      <trkpt lat="25.4881260" lon="-100.7546950">
        <ele>1930.2</ele>
        <time>2022-08-20T13:58:09Z</time>
      </trkpt>
      <trkpt lat="25.4880210" lon="-100.7545820">
        <ele>1930.4</ele>
        <time>2022-08-20T13:58:12Z</time>
      </trkpt>
      <trkpt lat="25.4876920" lon="-100.7542730">
        <ele>1930.4</ele>
        <time>2022-08-20T13:58:19Z</time>
      </trkpt>
      <trkpt lat="25.4873480" lon="-100.7540290">
        <ele>1928.6</ele>
        <time>2022-08-20T13:58:24Z</time>
      </trkpt>
      <trkpt lat="25.4870370" lon="-100.7538630">
        <ele>1927.2</ele>
        <time>2022-08-20T13:58:28Z</time>
      </trkpt>
      <trkpt lat="25.4869720" lon="-100.7538090">
        <ele>1926.6</ele>
        <time>2022-08-20T13:58:29Z</time>
      </trkpt>
      <trkpt lat="25.4869130" lon="-100.7537390">
        <ele>1926.0</ele>
        <time>2022-08-20T13:58:30Z</time>
      </trkpt>
      <trkpt lat="25.4868110" lon="-100.7535840">
        <ele>1925.0</ele>
        <time>2022-08-20T13:58:32Z</time>
      </trkpt>
      <trkpt lat="25.4867640" lon="-100.7535020">
        <ele>1924.6</ele>
        <time>2022-08-20T13:58:33Z</time>
      </trkpt>
      <trkpt lat="25.4866140" lon="-100.7532460">
        <ele>1923.8</ele>
        <time>2022-08-20T13:58:36Z</time>
      </trkpt>
      <trkpt lat="25.4864620" lon="-100.7529640">
        <ele>1922.4</ele>
        <time>2022-08-20T13:58:39Z</time>
      </trkpt>
      <trkpt lat="25.4864200" lon="-100.7528590">
        <ele>1922.0</ele>
        <time>2022-08-20T13:58:40Z</time>
      </trkpt>
      <trkpt lat="25.4863590" lon="-100.7526420">
        <ele>1921.0</ele>
        <time>2022-08-20T13:58:42Z</time>
      </trkpt>
      <trkpt lat="25.4863260" lon="-100.7524270">
        <ele>1919.8</ele>
        <time>2022-08-20T13:58:44Z</time>
      </trkpt>
      <trkpt lat="25.4863140" lon="-100.7523250">
        <ele>1918.8</ele>
        <time>2022-08-20T13:58:45Z</time>
      </trkpt>
      <trkpt lat="25.4863030" lon="-100.7521310">
        <ele>1917.0</ele>
        <time>2022-08-20T13:58:47Z</time>
      </trkpt>
      <trkpt lat="25.4863120" lon="-100.7519490">
        <ele>1915.6</ele>
        <time>2022-08-20T13:58:49Z</time>
      </trkpt>
      <trkpt lat="25.4863950" lon="-100.7514030">
        <ele>1914.4</ele>
        <time>2022-08-20T13:58:55Z</time>
      </trkpt>
      <trkpt lat="25.4864030" lon="-100.7513190">
        <ele>1914.4</ele>
        <time>2022-08-20T13:58:56Z</time>
      </trkpt>
      <trkpt lat="25.4864010" lon="-100.7512400">
        <ele>1914.4</ele>
        <time>2022-08-20T13:58:57Z</time>
      </trkpt>
      <trkpt lat="25.4863640" lon="-100.7510310">
        <ele>1914.4</ele>
        <time>2022-08-20T13:59:00Z</time>
      </trkpt>
      <trkpt lat="25.4862940" lon="-100.7508520">
        <ele>1914.8</ele>
        <time>2022-08-20T13:59:03Z</time>
      </trkpt>
      <trkpt lat="25.4861990" lon="-100.7506790">
        <ele>1915.6</ele>
        <time>2022-08-20T13:59:06Z</time>
      </trkpt>
      <trkpt lat="25.4861120" lon="-100.7505000">
        <ele>1916.6</ele>
        <time>2022-08-20T13:59:09Z</time>
      </trkpt>
      <trkpt lat="25.4860060" lon="-100.7502710">
        <ele>1917.2</ele>
        <time>2022-08-20T13:59:13Z</time>
      </trkpt>
      <trkpt lat="25.4858730" lon="-100.7500200">
        <ele>1917.6</ele>
        <time>2022-08-20T13:59:19Z</time>
      </trkpt>
      <trkpt lat="25.4858600" lon="-100.7499980">
        <ele>1917.6</ele>
        <time>2022-08-20T13:59:20Z</time>
      </trkpt>
      <trkpt lat="25.4858130" lon="-100.7499300">
        <ele>1918.8</ele>
        <time>2022-08-20T13:59:24Z</time>
      </trkpt>
      <trkpt lat="25.4858030" lon="-100.7499120">
        <ele>1919.0</ele>
        <time>2022-08-20T13:59:25Z</time>
      </trkpt>
      <trkpt lat="25.4857950" lon="-100.7498760">
        <ele>1920.0</ele>
        <time>2022-08-20T13:59:27Z</time>
      </trkpt>
      <trkpt lat="25.4858040" lon="-100.7498080">
        <ele>1921.2</ele>
        <time>2022-08-20T13:59:30Z</time>
      </trkpt>
      <trkpt lat="25.4858140" lon="-100.7497660">
        <ele>1922.2</ele>
        <time>2022-08-20T13:59:32Z</time>
      </trkpt>
      <trkpt lat="25.4858210" lon="-100.7497460">
        <ele>1922.6</ele>
        <time>2022-08-20T13:59:33Z</time>
      </trkpt>
      <trkpt lat="25.4858450" lon="-100.7496770">
        <ele>1923.8</ele>
        <time>2022-08-20T13:59:36Z</time>
      </trkpt>
      <trkpt lat="25.4858820" lon="-100.7496040">
        <ele>1924.8</ele>
        <time>2022-08-20T13:59:39Z</time>
      </trkpt>
      <trkpt lat="25.4859280" lon="-100.7495160">
        <ele>1925.4</ele>
        <time>2022-08-20T13:59:42Z</time>
      </trkpt>
      <trkpt lat="25.4860040" lon="-100.7494090">
        <ele>1925.8</ele>
        <time>2022-08-20T13:59:45Z</time>
      </trkpt>
      <trkpt lat="25.4860780" lon="-100.7493300">
        <ele>1925.8</ele>
        <time>2022-08-20T13:59:47Z</time>
      </trkpt>
      <trkpt lat="25.4863660" lon="-100.7491120">
        <ele>1925.8</ele>
        <time>2022-08-20T13:59:53Z</time>
      </trkpt>
      <trkpt lat="25.4866110" lon="-100.7489100">
        <ele>1924.6</ele>
        <time>2022-08-20T13:59:58Z</time>
      </trkpt>
      <trkpt lat="25.4866950" lon="-100.7488600">
        <ele>1924.2</ele>
        <time>2022-08-20T14:00:00Z</time>
      </trkpt>
      <trkpt lat="25.4868800" lon="-100.7487520">
        <ele>1924.0</ele>
        <time>2022-08-20T14:00:06Z</time>
      </trkpt>
      <trkpt lat="25.4870640" lon="-100.7486190">
        <ele>1925.6</ele>
        <time>2022-08-20T14:00:12Z</time>
      </trkpt>
      <trkpt lat="25.4870950" lon="-100.7485850">
        <ele>1926.0</ele>
        <time>2022-08-20T14:00:13Z</time>
      </trkpt>
      <trkpt lat="25.4871500" lon="-100.7485060">
        <ele>1926.8</ele>
        <time>2022-08-20T14:00:15Z</time>
      </trkpt>
      <trkpt lat="25.4873380" lon="-100.7482480">
        <ele>1927.6</ele>
        <time>2022-08-20T14:00:21Z</time>
      </trkpt>
      <trkpt lat="25.4875100" lon="-100.7479780">
        <ele>1927.8</ele>
        <time>2022-08-20T14:00:27Z</time>
      </trkpt>
      <trkpt lat="25.4875650" lon="-100.7478960">
        <ele>1927.6</ele>
        <time>2022-08-20T14:00:29Z</time>
      </trkpt>
      <trkpt lat="25.4877400" lon="-100.7475980">
        <ele>1927.8</ele>
        <time>2022-08-20T14:00:36Z</time>
      </trkpt>
      <trkpt lat="25.4878650" lon="-100.7475450">
        <ele>1928.0</ele>
        <time>2022-08-20T14:00:39Z</time>
      </trkpt>
      <trkpt lat="25.4880520" lon="-100.7475910">
        <ele>1928.2</ele>
        <time>2022-08-20T14:00:44Z</time>
      </trkpt>
      <trkpt lat="25.4881830" lon="-100.7476200">
        <ele>1928.6</ele>
        <time>2022-08-20T14:00:49Z</time>
      </trkpt>
      <trkpt lat="25.4882290" lon="-100.7476190">
        <ele>1929.4</ele>
        <time>2022-08-20T14:00:51Z</time>
      </trkpt>
      <trkpt lat="25.4882730" lon="-100.7476110">
        <ele>1929.8</ele>
        <time>2022-08-20T14:00:53Z</time>
      </trkpt>
      <trkpt lat="25.4883540" lon="-100.7475940">
        <ele>1931.0</ele>
        <time>2022-08-20T14:00:57Z</time>
      </trkpt>
      <trkpt lat="25.4884330" lon="-100.7475690">
        <ele>1932.2</ele>
        <time>2022-08-20T14:01:01Z</time>
      </trkpt>
      <trkpt lat="25.4884740" lon="-100.7475660">
        <ele>1932.8</ele>
        <time>2022-08-20T14:01:03Z</time>
      </trkpt>
      <trkpt lat="25.4885380" lon="-100.7475580">
        <ele>1933.4</ele>
        <time>2022-08-20T14:01:06Z</time>
      </trkpt>
      <trkpt lat="25.4886480" lon="-100.7475560">
        <ele>1934.4</ele>
        <time>2022-08-20T14:01:11Z</time>
      </trkpt>
      <trkpt lat="25.4887130" lon="-100.7475540">
        <ele>1935.4</ele>
        <time>2022-08-20T14:01:14Z</time>
      </trkpt>
      <trkpt lat="25.4887990" lon="-100.7475570">
        <ele>1936.2</ele>
        <time>2022-08-20T14:01:18Z</time>
      </trkpt>
      <trkpt lat="25.4888200" lon="-100.7475570">
        <ele>1936.4</ele>
        <time>2022-08-20T14:01:19Z</time>
      </trkpt>
      <trkpt lat="25.4889300" lon="-100.7475550">
        <ele>1937.6</ele>
        <time>2022-08-20T14:01:24Z</time>
      </trkpt>
      <trkpt lat="25.4890380" lon="-100.7475570">
        <ele>1938.8</ele>
        <time>2022-08-20T14:01:29Z</time>
      </trkpt>
      <trkpt lat="25.4890600" lon="-100.7475600">
        <ele>1939.0</ele>
        <time>2022-08-20T14:01:30Z</time>
      </trkpt>
      <trkpt lat="25.4891290" lon="-100.7475700">
        <ele>1940.0</ele>
        <time>2022-08-20T14:01:33Z</time>
      </trkpt>
      <trkpt lat="25.4892410" lon="-100.7475780">
        <ele>1941.0</ele>
        <time>2022-08-20T14:01:38Z</time>
      </trkpt>
      <trkpt lat="25.4893350" lon="-100.7475710">
        <ele>1942.0</ele>
        <time>2022-08-20T14:01:42Z</time>
      </trkpt>
      <trkpt lat="25.4893590" lon="-100.7475690">
        <ele>1942.2</ele>
        <time>2022-08-20T14:01:43Z</time>
      </trkpt>
      <trkpt lat="25.4894610" lon="-100.7475620">
        <ele>1943.2</ele>
        <time>2022-08-20T14:01:48Z</time>
      </trkpt>
      <trkpt lat="25.4895560" lon="-100.7475590">
        <ele>1944.2</ele>
        <time>2022-08-20T14:01:53Z</time>
      </trkpt>
      <trkpt lat="25.4896290" lon="-100.7475560">
        <ele>1945.2</ele>
        <time>2022-08-20T14:01:57Z</time>
      </trkpt>
      <trkpt lat="25.4897150" lon="-100.7475680">
        <ele>1946.4</ele>
        <time>2022-08-20T14:02:02Z</time>
      </trkpt>
      <trkpt lat="25.4897520" lon="-100.7475750">
        <ele>1947.0</ele>
        <time>2022-08-20T14:02:04Z</time>
      </trkpt>
      <trkpt lat="25.4897890" lon="-100.7475810">
        <ele>1947.6</ele>
        <time>2022-08-20T14:02:06Z</time>
      </trkpt>
      <trkpt lat="25.4898640" lon="-100.7475920">
        <ele>1948.8</ele>
        <time>2022-08-20T14:02:10Z</time>
      </trkpt>
      <trkpt lat="25.4899510" lon="-100.7475920">
        <ele>1949.8</ele>
        <time>2022-08-20T14:02:15Z</time>
      </trkpt>
      <trkpt lat="25.4899680" lon="-100.7475920">
        <ele>1950.0</ele>
        <time>2022-08-20T14:02:16Z</time>
      </trkpt>
      <trkpt lat="25.4900410" lon="-100.7475780">
        <ele>1950.8</ele>
        <time>2022-08-20T14:02:20Z</time>
      </trkpt>
      <trkpt lat="25.4901260" lon="-100.7475740">
        <ele>1952.0</ele>
        <time>2022-08-20T14:02:25Z</time>
      </trkpt>
      <trkpt lat="25.4901600" lon="-100.7475800">
        <ele>1952.4</ele>
        <time>2022-08-20T14:02:27Z</time>
      </trkpt>
      <trkpt lat="25.4902110" lon="-100.7476200">
        <ele>1953.2</ele>
        <time>2022-08-20T14:02:30Z</time>
      </trkpt>
      <trkpt lat="25.4902770" lon="-100.7476680">
        <ele>1954.0</ele>
        <time>2022-08-20T14:02:34Z</time>
      </trkpt>
      <trkpt lat="25.4903120" lon="-100.7476870">
        <ele>1954.2</ele>
        <time>2022-08-20T14:02:36Z</time>
      </trkpt>
      <trkpt lat="25.4903790" lon="-100.7477020">
        <ele>1955.2</ele>
        <time>2022-08-20T14:02:40Z</time>
      </trkpt>
      <trkpt lat="25.4904690" lon="-100.7477110">
        <ele>1956.4</ele>
        <time>2022-08-20T14:02:45Z</time>
      </trkpt>
      <trkpt lat="25.4904880" lon="-100.7477110">
        <ele>1956.6</ele>
        <time>2022-08-20T14:02:46Z</time>
      </trkpt>
      <trkpt lat="25.4905600" lon="-100.7477000">
        <ele>1957.6</ele>
        <time>2022-08-20T14:02:50Z</time>
      </trkpt>
      <trkpt lat="25.4906700" lon="-100.7476830">
        <ele>1958.4</ele>
        <time>2022-08-20T14:02:55Z</time>
      </trkpt>
      <trkpt lat="25.4909390" lon="-100.7476520">
        <ele>1959.2</ele>
        <time>2022-08-20T14:03:03Z</time>
      </trkpt>
      <trkpt lat="25.4912080" lon="-100.7476400">
        <ele>1959.4</ele>
        <time>2022-08-20T14:03:11Z</time>
      </trkpt>
      <trkpt lat="25.4912870" lon="-100.7476430">
        <ele>1960.6</ele>
        <time>2022-08-20T14:03:15Z</time>
      </trkpt>
      <trkpt lat="25.4913360" lon="-100.7476420">
        <ele>1961.6</ele>
        <time>2022-08-20T14:03:18Z</time>
      </trkpt>
      <trkpt lat="25.4913520" lon="-100.7476400">
        <ele>1962.2</ele>
        <time>2022-08-20T14:03:19Z</time>
      </trkpt>
      <trkpt lat="25.4913850" lon="-100.7476330">
        <ele>1962.8</ele>
        <time>2022-08-20T14:03:21Z</time>
      </trkpt>
      <trkpt lat="25.4914530" lon="-100.7476270">
        <ele>1964.0</ele>
        <time>2022-08-20T14:03:25Z</time>
      </trkpt>
      <trkpt lat="25.4915420" lon="-100.7476330">
        <ele>1965.0</ele>
        <time>2022-08-20T14:03:30Z</time>
      </trkpt>
      <trkpt lat="25.4916100" lon="-100.7476230">
        <ele>1966.0</ele>
        <time>2022-08-20T14:03:34Z</time>
      </trkpt>
      <trkpt lat="25.4916910" lon="-100.7475890">
        <ele>1967.0</ele>
        <time>2022-08-20T14:03:39Z</time>
      </trkpt>
      <trkpt lat="25.4917660" lon="-100.7475400">
        <ele>1968.0</ele>
        <time>2022-08-20T14:03:44Z</time>
      </trkpt>
      <trkpt lat="25.4918220" lon="-100.7474910">
        <ele>1969.2</ele>
        <time>2022-08-20T14:03:48Z</time>
      </trkpt>
      <trkpt lat="25.4918640" lon="-100.7474590">
        <ele>1969.8</ele>
        <time>2022-08-20T14:03:51Z</time>
      </trkpt>
      <trkpt lat="25.4918930" lon="-100.7474410">
        <ele>1970.4</ele>
        <time>2022-08-20T14:03:53Z</time>
      </trkpt>
      <trkpt lat="25.4919650" lon="-100.7474140">
        <ele>1971.6</ele>
        <time>2022-08-20T14:03:58Z</time>
      </trkpt>
      <trkpt lat="25.4920090" lon="-100.7473910">
        <ele>1972.6</ele>
        <time>2022-08-20T14:04:01Z</time>
      </trkpt>
      <trkpt lat="25.4920210" lon="-100.7473790">
        <ele>1973.0</ele>
        <time>2022-08-20T14:04:02Z</time>
      </trkpt>
      <trkpt lat="25.4920570" lon="-100.7473420">
        <ele>1974.0</ele>
        <time>2022-08-20T14:04:05Z</time>
      </trkpt>
      <trkpt lat="25.4921390" lon="-100.7472680">
        <ele>1975.0</ele>
        <time>2022-08-20T14:04:11Z</time>
      </trkpt>
      <trkpt lat="25.4922660" lon="-100.7472270">
        <ele>1976.2</ele>
        <time>2022-08-20T14:04:17Z</time>
      </trkpt>
      <trkpt lat="25.4923800" lon="-100.7472130">
        <ele>1977.2</ele>
        <time>2022-08-20T14:04:22Z</time>
      </trkpt>
      <trkpt lat="25.4924040" lon="-100.7472100">
        <ele>1977.4</ele>
        <time>2022-08-20T14:04:23Z</time>
      </trkpt>
      <trkpt lat="25.4925210" lon="-100.7471710">
        <ele>1978.4</ele>
        <time>2022-08-20T14:04:28Z</time>
      </trkpt>
      <trkpt lat="25.4926460" lon="-100.7471220">
        <ele>1979.4</ele>
        <time>2022-08-20T14:04:33Z</time>
      </trkpt>
      <trkpt lat="25.4926720" lon="-100.7471130">
        <ele>1979.6</ele>
        <time>2022-08-20T14:04:34Z</time>
      </trkpt>
      <trkpt lat="25.4928270" lon="-100.7471050">
        <ele>1980.4</ele>
        <time>2022-08-20T14:04:39Z</time>
      </trkpt>
      <trkpt lat="25.4928960" lon="-100.7471130">
        <ele>1980.8</ele>
        <time>2022-08-20T14:04:41Z</time>
      </trkpt>
      <trkpt lat="25.4929700" lon="-100.7471240">
        <ele>1981.0</ele>
        <time>2022-08-20T14:04:43Z</time>
      </trkpt>
      <trkpt lat="25.4931240" lon="-100.7471400">
        <ele>1981.4</ele>
        <time>2022-08-20T14:04:47Z</time>
      </trkpt>
      <trkpt lat="25.4932370" lon="-100.7471390">
        <ele>1981.8</ele>
        <time>2022-08-20T14:04:50Z</time>
      </trkpt>
      <trkpt lat="25.4933830" lon="-100.7471370">
        <ele>1982.4</ele>
        <time>2022-08-20T14:04:54Z</time>
      </trkpt>
      <trkpt lat="25.4935690" lon="-100.7471510">
        <ele>1983.6</ele>
        <time>2022-08-20T14:04:59Z</time>
      </trkpt>
      <trkpt lat="25.4936070" lon="-100.7471530">
        <ele>1983.6</ele>
        <time>2022-08-20T14:05:00Z</time>
      </trkpt>
      <trkpt lat="25.4937930" lon="-100.7471820">
        <ele>1984.6</ele>
        <time>2022-08-20T14:05:05Z</time>
      </trkpt>
      <trkpt lat="25.4938860" lon="-100.7471790">
        <ele>1985.0</ele>
        <time>2022-08-20T14:05:08Z</time>
      </trkpt>
      <trkpt lat="25.4939910" lon="-100.7471120">
        <ele>1985.8</ele>
        <time>2022-08-20T14:05:13Z</time>
      </trkpt>
      <trkpt lat="25.4940040" lon="-100.7470910">
        <ele>1986.0</ele>
        <time>2022-08-20T14:05:14Z</time>
      </trkpt>
      <trkpt lat="25.4940470" lon="-100.7470320">
        <ele>1986.8</ele>
        <time>2022-08-20T14:05:17Z</time>
      </trkpt>
      <trkpt lat="25.4941300" lon="-100.7469580">
        <ele>1988.0</ele>
        <time>2022-08-20T14:05:22Z</time>
      </trkpt>
      <trkpt lat="25.4941980" lon="-100.7469430">
        <ele>1988.6</ele>
        <time>2022-08-20T14:05:25Z</time>
      </trkpt>
      <trkpt lat="25.4942670" lon="-100.7469640">
        <ele>1989.2</ele>
        <time>2022-08-20T14:05:28Z</time>
      </trkpt>
      <trkpt lat="25.4943660" lon="-100.7470110">
        <ele>1990.2</ele>
        <time>2022-08-20T14:05:32Z</time>
      </trkpt>
      <trkpt lat="25.4944990" lon="-100.7470500">
        <ele>1991.2</ele>
        <time>2022-08-20T14:05:37Z</time>
      </trkpt>
      <trkpt lat="25.4945930" lon="-100.7470590">
        <ele>1992.4</ele>
        <time>2022-08-20T14:05:41Z</time>
      </trkpt>
      <trkpt lat="25.4946810" lon="-100.7470810">
        <ele>1993.6</ele>
        <time>2022-08-20T14:05:45Z</time>
      </trkpt>
      <trkpt lat="25.4947560" lon="-100.7470800">
        <ele>1994.4</ele>
        <time>2022-08-20T14:05:49Z</time>
      </trkpt>
      <trkpt lat="25.4947940" lon="-100.7470740">
        <ele>1994.6</ele>
        <time>2022-08-20T14:05:51Z</time>
      </trkpt>
      <trkpt lat="25.4948900" lon="-100.7470590">
        <ele>1995.6</ele>
        <time>2022-08-20T14:05:56Z</time>
      </trkpt>
      <trkpt lat="25.4949350" lon="-100.7470410">
        <ele>1996.2</ele>
        <time>2022-08-20T14:05:59Z</time>
      </trkpt>
      <trkpt lat="25.4949620" lon="-100.7470220">
        <ele>1996.6</ele>
        <time>2022-08-20T14:06:01Z</time>
      </trkpt>
      <trkpt lat="25.4950180" lon="-100.7469780">
        <ele>1997.8</ele>
        <time>2022-08-20T14:06:05Z</time>
      </trkpt>
      <trkpt lat="25.4951050" lon="-100.7469250">
        <ele>1999.0</ele>
        <time>2022-08-20T14:06:11Z</time>
      </trkpt>
      <trkpt lat="25.4951190" lon="-100.7469170">
        <ele>1999.0</ele>
        <time>2022-08-20T14:06:12Z</time>
      </trkpt>
      <trkpt lat="25.4951720" lon="-100.7468780">
        <ele>2000.0</ele>
        <time>2022-08-20T14:06:16Z</time>
      </trkpt>
      <trkpt lat="25.4952310" lon="-100.7468170">
        <ele>2001.2</ele>
        <time>2022-08-20T14:06:21Z</time>
      </trkpt>
      <trkpt lat="25.4952570" lon="-100.7467940">
        <ele>2001.6</ele>
        <time>2022-08-20T14:06:23Z</time>
      </trkpt>
      <trkpt lat="25.4952920" lon="-100.7467490">
        <ele>2002.2</ele>
        <time>2022-08-20T14:06:26Z</time>
      </trkpt>
      <trkpt lat="25.4953480" lon="-100.7466820">
        <ele>2003.4</ele>
        <time>2022-08-20T14:06:31Z</time>
      </trkpt>
      <trkpt lat="25.4953760" lon="-100.7466480">
        <ele>2003.8</ele>
        <time>2022-08-20T14:06:33Z</time>
      </trkpt>
      <trkpt lat="25.4954240" lon="-100.7465780">
        <ele>2004.6</ele>
        <time>2022-08-20T14:06:37Z</time>
      </trkpt>
      <trkpt lat="25.4955010" lon="-100.7464900">
        <ele>2005.8</ele>
        <time>2022-08-20T14:06:42Z</time>
      </trkpt>
      <trkpt lat="25.4955180" lon="-100.7464740">
        <ele>2005.8</ele>
        <time>2022-08-20T14:06:43Z</time>
      </trkpt>
      <trkpt lat="25.4956210" lon="-100.7464020">
        <ele>2006.6</ele>
        <time>2022-08-20T14:06:48Z</time>
      </trkpt>
      <trkpt lat="25.4957090" lon="-100.7463930">
        <ele>2007.2</ele>
        <time>2022-08-20T14:06:51Z</time>
      </trkpt>
      <trkpt lat="25.4957830" lon="-100.7464120">
        <ele>2007.6</ele>
        <time>2022-08-20T14:06:53Z</time>
      </trkpt>
      <trkpt lat="25.4958680" lon="-100.7464510">
        <ele>2008.0</ele>
        <time>2022-08-20T14:06:55Z</time>
      </trkpt>
      <trkpt lat="25.4959070" lon="-100.7464760">
        <ele>2008.0</ele>
        <time>2022-08-20T14:06:56Z</time>
      </trkpt>
      <trkpt lat="25.4961170" lon="-100.7466260">
        <ele>2008.2</ele>
        <time>2022-08-20T14:07:01Z</time>
      </trkpt>
      <trkpt lat="25.4961680" lon="-100.7466520">
        <ele>2008.4</ele>
        <time>2022-08-20T14:07:02Z</time>
      </trkpt>
      <trkpt lat="25.4962260" lon="-100.7466670">
        <ele>2008.4</ele>
        <time>2022-08-20T14:07:03Z</time>
      </trkpt>
      <trkpt lat="25.4963900" lon="-100.7466490">
        <ele>2008.8</ele>
        <time>2022-08-20T14:07:06Z</time>
      </trkpt>
      <trkpt lat="25.4965360" lon="-100.7465750">
        <ele>2010.0</ele>
        <time>2022-08-20T14:07:09Z</time>
      </trkpt>
      <trkpt lat="25.4966300" lon="-100.7465190">
        <ele>2010.6</ele>
        <time>2022-08-20T14:07:11Z</time>
      </trkpt>
      <trkpt lat="25.4967720" lon="-100.7464220">
        <ele>2010.8</ele>
        <time>2022-08-20T14:07:14Z</time>
      </trkpt>
      <trkpt lat="25.4970360" lon="-100.7462760">
        <ele>2010.8</ele>
        <time>2022-08-20T14:07:19Z</time>
      </trkpt>
      <trkpt lat="25.4973020" lon="-100.7461600">
        <ele>2010.4</ele>
        <time>2022-08-20T14:07:24Z</time>
      </trkpt>
      <trkpt lat="25.4973770" lon="-100.7460890">
        <ele>2010.4</ele>
        <time>2022-08-20T14:07:26Z</time>
      </trkpt>
      <trkpt lat="25.4975730" lon="-100.7459850">
        <ele>2010.2</ele>
        <time>2022-08-20T14:07:31Z</time>
      </trkpt>
      <trkpt lat="25.4976120" lon="-100.7459770">
        <ele>2010.2</ele>
        <time>2022-08-20T14:07:32Z</time>
      </trkpt>
      <trkpt lat="25.4977640" lon="-100.7459480">
        <ele>2010.8</ele>
        <time>2022-08-20T14:07:37Z</time>
      </trkpt>
      <trkpt lat="25.4978870" lon="-100.7459740">
        <ele>2011.8</ele>
        <time>2022-08-20T14:07:42Z</time>
      </trkpt>
      <trkpt lat="25.4979150" lon="-100.7459910">
        <ele>2012.2</ele>
        <time>2022-08-20T14:07:43Z</time>
      </trkpt>
      <trkpt lat="25.4979740" lon="-100.7460330">
        <ele>2013.0</ele>
        <time>2022-08-20T14:07:45Z</time>
      </trkpt>
      <trkpt lat="25.4981240" lon="-100.7461350">
        <ele>2014.0</ele>
        <time>2022-08-20T14:07:50Z</time>
      </trkpt>
      <trkpt lat="25.4981540" lon="-100.7461460">
        <ele>2014.2</ele>
        <time>2022-08-20T14:07:51Z</time>
      </trkpt>
      <trkpt lat="25.4983360" lon="-100.7461360">
        <ele>2015.2</ele>
        <time>2022-08-20T14:07:57Z</time>
      </trkpt>
      <trkpt lat="25.4984610" lon="-100.7459820">
        <ele>2015.4</ele>
        <time>2022-08-20T14:08:02Z</time>
      </trkpt>
      <trkpt lat="25.4985590" lon="-100.7457690">
        <ele>2015.4</ele>
        <time>2022-08-20T14:08:09Z</time>
      </trkpt>
      <trkpt lat="25.4985700" lon="-100.7455480">
        <ele>2015.4</ele>
        <time>2022-08-20T14:08:16Z</time>
      </trkpt>
      <trkpt lat="25.4985340" lon="-100.7454320">
        <ele>2016.0</ele>
        <time>2022-08-20T14:08:21Z</time>
      </trkpt>
      <trkpt lat="25.4985140" lon="-100.7453680">
        <ele>2016.8</ele>
        <time>2022-08-20T14:08:24Z</time>
      </trkpt>
      <trkpt lat="25.4985070" lon="-100.7453470">
        <ele>2017.2</ele>
        <time>2022-08-20T14:08:25Z</time>
      </trkpt>
      <trkpt lat="25.4984860" lon="-100.7452670">
        <ele>2018.4</ele>
        <time>2022-08-20T14:08:29Z</time>
      </trkpt>
      <trkpt lat="25.4984620" lon="-100.7451640">
        <ele>2019.4</ele>
        <time>2022-08-20T14:08:33Z</time>
      </trkpt>
      <trkpt lat="25.4984560" lon="-100.7451430">
        <ele>2019.6</ele>
        <time>2022-08-20T14:08:34Z</time>
      </trkpt>
      <trkpt lat="25.4984460" lon="-100.7450350">
        <ele>2020.4</ele>
        <time>2022-08-20T14:08:38Z</time>
      </trkpt>
      <trkpt lat="25.4984410" lon="-100.7449360">
        <ele>2021.2</ele>
        <time>2022-08-20T14:08:41Z</time>
      </trkpt>
      <trkpt lat="25.4984460" lon="-100.7449010">
        <ele>2021.4</ele>
        <time>2022-08-20T14:08:42Z</time>
      </trkpt>
      <trkpt lat="25.4985100" lon="-100.7447330">
        <ele>2022.4</ele>
        <time>2022-08-20T14:08:47Z</time>
      </trkpt>
      <trkpt lat="25.4985340" lon="-100.7446960">
        <ele>2022.6</ele>
        <time>2022-08-20T14:08:48Z</time>
      </trkpt>
      <trkpt lat="25.4987000" lon="-100.7445000">
        <ele>2023.0</ele>
        <time>2022-08-20T14:08:54Z</time>
      </trkpt>
      <trkpt lat="25.4990330" lon="-100.7442530">
        <ele>2023.2</ele>
        <time>2022-08-20T14:09:04Z</time>
      </trkpt>
      <trkpt lat="25.4992000" lon="-100.7441880">
        <ele>2023.4</ele>
        <time>2022-08-20T14:09:08Z</time>
      </trkpt>
      <trkpt lat="25.4992920" lon="-100.7441530">
        <ele>2023.4</ele>
        <time>2022-08-20T14:09:10Z</time>
      </trkpt>
      <trkpt lat="25.4995720" lon="-100.7440800">
        <ele>2024.2</ele>
        <time>2022-08-20T14:09:17Z</time>
      </trkpt>
      <trkpt lat="25.4996710" lon="-100.7440700">
        <ele>2024.4</ele>
        <time>2022-08-20T14:09:19Z</time>
      </trkpt>
      <trkpt lat="25.4998290" lon="-100.7440710">
        <ele>2025.6</ele>
        <time>2022-08-20T14:09:22Z</time>
      </trkpt>
      <trkpt lat="25.4998810" lon="-100.7440810">
        <ele>2026.0</ele>
        <time>2022-08-20T14:09:23Z</time>
      </trkpt>
      <trkpt lat="25.4999860" lon="-100.7441040">
        <ele>2026.4</ele>
        <time>2022-08-20T14:09:25Z</time>
      </trkpt>
      <trkpt lat="25.5002570" lon="-100.7441160">
        <ele>2026.8</ele>
        <time>2022-08-20T14:09:30Z</time>
      </trkpt>
      <trkpt lat="25.5006800" lon="-100.7441560">
        <ele>2027.6</ele>
        <time>2022-08-20T14:09:39Z</time>
      </trkpt>
      <trkpt lat="25.5008840" lon="-100.7441870">
        <ele>2028.6</ele>
        <time>2022-08-20T14:09:43Z</time>
      </trkpt>
      <trkpt lat="25.5010010" lon="-100.7441840">
        <ele>2029.6</ele>
        <time>2022-08-20T14:09:45Z</time>
      </trkpt>
      <trkpt lat="25.5011300" lon="-100.7441830">
        <ele>2030.6</ele>
        <time>2022-08-20T14:09:47Z</time>
      </trkpt>
      <trkpt lat="25.5013340" lon="-100.7441770">
        <ele>2031.6</ele>
        <time>2022-08-20T14:09:50Z</time>
      </trkpt>
      <trkpt lat="25.5014090" lon="-100.7441560">
        <ele>2031.6</ele>
        <time>2022-08-20T14:09:51Z</time>
      </trkpt>
      <trkpt lat="25.5017240" lon="-100.7439960">
        <ele>2031.8</ele>
        <time>2022-08-20T14:09:55Z</time>
      </trkpt>
      <trkpt lat="25.5022230" lon="-100.7436310">
        <ele>2031.2</ele>
        <time>2022-08-20T14:10:02Z</time>
      </trkpt>
      <trkpt lat="25.5026810" lon="-100.7432940">
        <ele>2031.2</ele>
        <time>2022-08-20T14:10:09Z</time>
      </trkpt>
      <trkpt lat="25.5028100" lon="-100.7432300">
        <ele>2031.6</ele>
        <time>2022-08-20T14:10:11Z</time>
      </trkpt>
      <trkpt lat="25.5029930" lon="-100.7431650">
        <ele>2032.2</ele>
        <time>2022-08-20T14:10:14Z</time>
      </trkpt>
      <trkpt lat="25.5030900" lon="-100.7430930">
        <ele>2032.4</ele>
        <time>2022-08-20T14:10:16Z</time>
      </trkpt>
      <trkpt lat="25.5031470" lon="-100.7429890">
        <ele>2032.4</ele>
        <time>2022-08-20T14:10:18Z</time>
      </trkpt>
      <trkpt lat="25.5031820" lon="-100.7428800">
        <ele>2032.6</ele>
        <time>2022-08-20T14:10:20Z</time>
      </trkpt>
      <trkpt lat="25.5031950" lon="-100.7428270">
        <ele>2032.6</ele>
        <time>2022-08-20T14:10:21Z</time>
      </trkpt>
      <trkpt lat="25.5032300" lon="-100.7426890">
        <ele>2033.0</ele>
        <time>2022-08-20T14:10:25Z</time>
      </trkpt>
      <trkpt lat="25.5032660" lon="-100.7426180">
        <ele>2034.0</ele>
        <time>2022-08-20T14:10:28Z</time>
      </trkpt>
      <trkpt lat="25.5032790" lon="-100.7425930">
        <ele>2034.4</ele>
        <time>2022-08-20T14:10:29Z</time>
      </trkpt>
      <trkpt lat="25.5032920" lon="-100.7425680">
        <ele>2034.8</ele>
        <time>2022-08-20T14:10:30Z</time>
      </trkpt>
      <trkpt lat="25.5033250" lon="-100.7425180">
        <ele>2036.0</ele>
        <time>2022-08-20T14:10:32Z</time>
      </trkpt>
      <trkpt lat="25.5033420" lon="-100.7424910">
        <ele>2036.6</ele>
        <time>2022-08-20T14:10:33Z</time>
      </trkpt>
      <trkpt lat="25.5033600" lon="-100.7424660">
        <ele>2037.2</ele>
        <time>2022-08-20T14:10:34Z</time>
      </trkpt>
      <trkpt lat="25.5034310" lon="-100.7423800">
        <ele>2038.4</ele>
        <time>2022-08-20T14:10:38Z</time>
      </trkpt>
      <trkpt lat="25.5034920" lon="-100.7422950">
        <ele>2039.4</ele>
        <time>2022-08-20T14:10:42Z</time>
      </trkpt>
      <trkpt lat="25.5035060" lon="-100.7422780">
        <ele>2039.6</ele>
        <time>2022-08-20T14:10:43Z</time>
      </trkpt>
      <trkpt lat="25.5035650" lon="-100.7421860">
        <ele>2041.0</ele>
        <time>2022-08-20T14:10:48Z</time>
      </trkpt>
      <trkpt lat="25.5035960" lon="-100.7421110">
        <ele>2042.0</ele>
        <time>2022-08-20T14:10:52Z</time>
      </trkpt>
      <trkpt lat="25.5036250" lon="-100.7419330">
        <ele>2043.0</ele>
        <time>2022-08-20T14:10:59Z</time>
      </trkpt>
      <trkpt lat="25.5036270" lon="-100.7418900">
        <ele>2043.4</ele>
        <time>2022-08-20T14:11:01Z</time>
      </trkpt>
      <trkpt lat="25.5036220" lon="-100.7418160">
        <ele>2044.0</ele>
        <time>2022-08-20T14:11:04Z</time>
      </trkpt>
      <trkpt lat="25.5036340" lon="-100.7417160">
        <ele>2045.2</ele>
        <time>2022-08-20T14:11:08Z</time>
      </trkpt>
      <trkpt lat="25.5036530" lon="-100.7416580">
        <ele>2045.6</ele>
        <time>2022-08-20T14:11:10Z</time>
      </trkpt>
      <trkpt lat="25.5036910" lon="-100.7416060">
        <ele>2046.0</ele>
        <time>2022-08-20T14:11:12Z</time>
      </trkpt>
      <trkpt lat="25.5037720" lon="-100.7415230">
        <ele>2046.8</ele>
        <time>2022-08-20T14:11:15Z</time>
      </trkpt>
      <trkpt lat="25.5038360" lon="-100.7414580">
        <ele>2047.2</ele>
        <time>2022-08-20T14:11:17Z</time>
      </trkpt>
      <trkpt lat="25.5039820" lon="-100.7413450">
        <ele>2047.4</ele>
        <time>2022-08-20T14:11:21Z</time>
      </trkpt>
      <trkpt lat="25.5042550" lon="-100.7412040">
        <ele>2047.6</ele>
        <time>2022-08-20T14:11:28Z</time>
      </trkpt>
      <trkpt lat="25.5044280" lon="-100.7411350">
        <ele>2048.2</ele>
        <time>2022-08-20T14:11:33Z</time>
      </trkpt>
      <trkpt lat="25.5045140" lon="-100.7411110">
        <ele>2049.0</ele>
        <time>2022-08-20T14:11:36Z</time>
      </trkpt>
      <trkpt lat="25.5045440" lon="-100.7411000">
        <ele>2049.4</ele>
        <time>2022-08-20T14:11:37Z</time>
      </trkpt>
      <trkpt lat="25.5046720" lon="-100.7410370">
        <ele>2050.6</ele>
        <time>2022-08-20T14:11:41Z</time>
      </trkpt>
      <trkpt lat="25.5048260" lon="-100.7409460">
        <ele>2052.0</ele>
        <time>2022-08-20T14:11:45Z</time>
      </trkpt>
      <trkpt lat="25.5052000" lon="-100.7406510">
        <ele>2053.0</ele>
        <time>2022-08-20T14:11:56Z</time>
      </trkpt>
      <trkpt lat="25.5053600" lon="-100.7404500">
        <ele>2054.0</ele>
        <time>2022-08-20T14:12:02Z</time>
      </trkpt>
      <trkpt lat="25.5054030" lon="-100.7403830">
        <ele>2054.6</ele>
        <time>2022-08-20T14:12:04Z</time>
      </trkpt>
      <trkpt lat="25.5054230" lon="-100.7403500">
        <ele>2055.0</ele>
        <time>2022-08-20T14:12:05Z</time>
      </trkpt>
      <trkpt lat="25.5055410" lon="-100.7402520">
        <ele>2056.0</ele>
        <time>2022-08-20T14:12:09Z</time>
      </trkpt>
      <trkpt lat="25.5055730" lon="-100.7402360">
        <ele>2056.2</ele>
        <time>2022-08-20T14:12:10Z</time>
      </trkpt>
      <trkpt lat="25.5057330" lon="-100.7401670">
        <ele>2057.2</ele>
        <time>2022-08-20T14:12:16Z</time>
      </trkpt>
      <trkpt lat="25.5057810" lon="-100.7401410">
        <ele>2057.8</ele>
        <time>2022-08-20T14:12:18Z</time>
      </trkpt>
      <trkpt lat="25.5058230" lon="-100.7401140">
        <ele>2058.4</ele>
        <time>2022-08-20T14:12:20Z</time>
      </trkpt>
      <trkpt lat="25.5058990" lon="-100.7400620">
        <ele>2059.8</ele>
        <time>2022-08-20T14:12:24Z</time>
      </trkpt>
      <trkpt lat="25.5059680" lon="-100.7399880">
        <ele>2060.6</ele>
        <time>2022-08-20T14:12:28Z</time>
      </trkpt>
      <trkpt lat="25.5060690" lon="-100.7398950">
        <ele>2061.8</ele>
        <time>2022-08-20T14:12:33Z</time>
      </trkpt>
      <trkpt lat="25.5061910" lon="-100.7397780">
        <ele>2063.0</ele>
        <time>2022-08-20T14:12:39Z</time>
      </trkpt>
      <trkpt lat="25.5062670" lon="-100.7397160">
        <ele>2064.2</ele>
        <time>2022-08-20T14:12:42Z</time>
      </trkpt>
      <trkpt lat="25.5063550" lon="-100.7396210">
        <ele>2064.6</ele>
        <time>2022-08-20T14:12:45Z</time>
      </trkpt>
      <trkpt lat="25.5065140" lon="-100.7393580">
        <ele>2064.8</ele>
        <time>2022-08-20T14:12:51Z</time>
      </trkpt>
      <trkpt lat="25.5066040" lon="-100.7391500">
        <ele>2065.0</ele>
        <time>2022-08-20T14:12:56Z</time>
      </trkpt>
      <trkpt lat="25.5066700" lon="-100.7390280">
        <ele>2065.4</ele>
        <time>2022-08-20T14:12:59Z</time>
      </trkpt>
      <trkpt lat="25.5067960" lon="-100.7387060">
        <ele>2065.4</ele>
        <time>2022-08-20T14:13:05Z</time>
      </trkpt>
      <trkpt lat="25.5068250" lon="-100.7385870">
        <ele>2065.8</ele>
        <time>2022-08-20T14:13:09Z</time>
      </trkpt>
      <trkpt lat="25.5068320" lon="-100.7385320">
        <ele>2066.2</ele>
        <time>2022-08-20T14:13:12Z</time>
      </trkpt>
      <trkpt lat="25.5068420" lon="-100.7384680">
        <ele>2067.4</ele>
        <time>2022-08-20T14:13:16Z</time>
      </trkpt>
      <trkpt lat="25.5068470" lon="-100.7384530">
        <ele>2067.8</ele>
        <time>2022-08-20T14:13:17Z</time>
      </trkpt>
      <trkpt lat="25.5068490" lon="-100.7384260">
        <ele>2068.6</ele>
        <time>2022-08-20T14:13:19Z</time>
      </trkpt>
      <trkpt lat="25.5068480" lon="-100.7383510">
        <ele>2069.6</ele>
        <time>2022-08-20T14:13:24Z</time>
      </trkpt>
      <trkpt lat="25.5068570" lon="-100.7382960">
        <ele>2070.4</ele>
        <time>2022-08-20T14:13:27Z</time>
      </trkpt>
      <trkpt lat="25.5068570" lon="-100.7382830">
        <ele>2070.6</ele>
        <time>2022-08-20T14:13:28Z</time>
      </trkpt>
      <trkpt lat="25.5068740" lon="-100.7382060">
        <ele>2071.8</ele>
        <time>2022-08-20T14:13:33Z</time>
      </trkpt>
      <trkpt lat="25.5068940" lon="-100.7381470">
        <ele>2072.6</ele>
        <time>2022-08-20T14:13:36Z</time>
      </trkpt>
      <trkpt lat="25.5069020" lon="-100.7381110">
        <ele>2073.2</ele>
        <time>2022-08-20T14:13:38Z</time>
      </trkpt>
      <trkpt lat="25.5069330" lon="-100.7380090">
        <ele>2074.0</ele>
        <time>2022-08-20T14:13:43Z</time>
      </trkpt>
      <trkpt lat="25.5069350" lon="-100.7379810">
        <ele>2074.2</ele>
        <time>2022-08-20T14:13:44Z</time>
      </trkpt>
      <trkpt lat="25.5069370" lon="-100.7378600">
        <ele>2075.0</ele>
        <time>2022-08-20T14:13:49Z</time>
      </trkpt>
      <trkpt lat="25.5069360" lon="-100.7377660">
        <ele>2075.6</ele>
        <time>2022-08-20T14:13:53Z</time>
      </trkpt>
      <trkpt lat="25.5069390" lon="-100.7376950">
        <ele>2076.2</ele>
        <time>2022-08-20T14:13:56Z</time>
      </trkpt>
      <trkpt lat="25.5069850" lon="-100.7375830">
        <ele>2077.0</ele>
        <time>2022-08-20T14:14:01Z</time>
      </trkpt>
      <trkpt lat="25.5070010" lon="-100.7375630">
        <ele>2077.2</ele>
        <time>2022-08-20T14:14:02Z</time>
      </trkpt>
      <trkpt lat="25.5071030" lon="-100.7374710">
        <ele>2078.4</ele>
        <time>2022-08-20T14:14:08Z</time>
      </trkpt>
      <trkpt lat="25.5072500" lon="-100.7373950">
        <ele>2079.2</ele>
        <time>2022-08-20T14:14:13Z</time>
      </trkpt>
      <trkpt lat="25.5073200" lon="-100.7373600">
        <ele>2079.2</ele>
        <time>2022-08-20T14:14:15Z</time>
      </trkpt>
      <trkpt lat="25.5075010" lon="-100.7371910">
        <ele>2079.4</ele>
        <time>2022-08-20T14:14:21Z</time>
      </trkpt>
      <trkpt lat="25.5075700" lon="-100.7369960">
        <ele>2080.6</ele>
        <time>2022-08-20T14:14:28Z</time>
      </trkpt>
      <trkpt lat="25.5075690" lon="-100.7369270">
        <ele>2081.8</ele>
        <time>2022-08-20T14:14:31Z</time>
      </trkpt>
      <trkpt lat="25.5075520" lon="-100.7368400">
        <ele>2082.8</ele>
        <time>2022-08-20T14:14:35Z</time>
      </trkpt>
      <trkpt lat="25.5075450" lon="-100.7368230">
        <ele>2083.2</ele>
        <time>2022-08-20T14:14:36Z</time>
      </trkpt>
      <trkpt lat="25.5075240" lon="-100.7368030">
        <ele>2083.8</ele>
        <time>2022-08-20T14:14:38Z</time>
      </trkpt>
      <trkpt lat="25.5074970" lon="-100.7367200">
        <ele>2085.0</ele>
        <time>2022-08-20T14:14:42Z</time>
      </trkpt>
      <trkpt lat="25.5074940" lon="-100.7366820">
        <ele>2085.6</ele>
        <time>2022-08-20T14:14:44Z</time>
      </trkpt>
      <trkpt lat="25.5074970" lon="-100.7366470">
        <ele>2086.2</ele>
        <time>2022-08-20T14:14:46Z</time>
      </trkpt>
      <trkpt lat="25.5075040" lon="-100.7365800">
        <ele>2087.4</ele>
        <time>2022-08-20T14:14:50Z</time>
      </trkpt>
      <trkpt lat="25.5075070" lon="-100.7365010">
        <ele>2088.4</ele>
        <time>2022-08-20T14:14:54Z</time>
      </trkpt>
      <trkpt lat="25.5075130" lon="-100.7364670">
        <ele>2089.0</ele>
        <time>2022-08-20T14:14:56Z</time>
      </trkpt>
      <trkpt lat="25.5075230" lon="-100.7364370">
        <ele>2089.6</ele>
        <time>2022-08-20T14:14:58Z</time>
      </trkpt>
      <trkpt lat="25.5075440" lon="-100.7363690">
        <ele>2090.6</ele>
        <time>2022-08-20T14:15:03Z</time>
      </trkpt>
      <trkpt lat="25.5075600" lon="-100.7363170">
        <ele>2091.6</ele>
        <time>2022-08-20T14:15:06Z</time>
      </trkpt>
      <trkpt lat="25.5075640" lon="-100.7363010">
        <ele>2091.8</ele>
        <time>2022-08-20T14:15:07Z</time>
      </trkpt>
      <trkpt lat="25.5075940" lon="-100.7361690">
        <ele>2092.8</ele>
        <time>2022-08-20T14:15:13Z</time>
      </trkpt>
      <trkpt lat="25.5076130" lon="-100.7361160">
        <ele>2093.6</ele>
        <time>2022-08-20T14:15:16Z</time>
      </trkpt>
      <trkpt lat="25.5076220" lon="-100.7360670">
        <ele>2094.2</ele>
        <time>2022-08-20T14:15:19Z</time>
      </trkpt>
      <trkpt lat="25.5076550" lon="-100.7359780">
        <ele>2095.2</ele>
        <time>2022-08-20T14:15:24Z</time>
      </trkpt>
      <trkpt lat="25.5076640" lon="-100.7359320">
        <ele>2095.8</ele>
        <time>2022-08-20T14:15:26Z</time>
      </trkpt>
      <trkpt lat="25.5076720" lon="-100.7358760">
        <ele>2096.2</ele>
        <time>2022-08-20T14:15:28Z</time>
      </trkpt>
      <trkpt lat="25.5077190" lon="-100.7356740">
        <ele>2096.6</ele>
        <time>2022-08-20T14:15:33Z</time>
      </trkpt>
      <trkpt lat="25.5078320" lon="-100.7355700">
        <ele>2096.6</ele>
        <time>2022-08-20T14:15:37Z</time>
      </trkpt>
      <trkpt lat="25.5081000" lon="-100.7355190">
        <ele>2096.8</ele>
        <time>2022-08-20T14:15:44Z</time>
      </trkpt>
      <trkpt lat="25.5083070" lon="-100.7354820">
        <ele>2097.4</ele>
        <time>2022-08-20T14:15:49Z</time>
      </trkpt>
      <trkpt lat="25.5084120" lon="-100.7354540">
        <ele>2097.8</ele>
        <time>2022-08-20T14:15:52Z</time>
      </trkpt>
      <trkpt lat="25.5084690" lon="-100.7354380">
        <ele>2098.4</ele>
        <time>2022-08-20T14:15:54Z</time>
      </trkpt>
      <trkpt lat="25.5085390" lon="-100.7353750">
        <ele>2099.0</ele>
        <time>2022-08-20T14:15:58Z</time>
      </trkpt>
      <trkpt lat="25.5085690" lon="-100.7353490">
        <ele>2099.4</ele>
        <time>2022-08-20T14:16:00Z</time>
      </trkpt>
      <trkpt lat="25.5086190" lon="-100.7353000">
        <ele>2100.6</ele>
        <time>2022-08-20T14:16:04Z</time>
      </trkpt>
      <trkpt lat="25.5086730" lon="-100.7352490">
        <ele>2101.6</ele>
        <time>2022-08-20T14:16:08Z</time>
      </trkpt>
      <trkpt lat="25.5087140" lon="-100.7351830">
        <ele>2102.6</ele>
        <time>2022-08-20T14:16:12Z</time>
      </trkpt>
      <trkpt lat="25.5087530" lon="-100.7350690">
        <ele>2103.8</ele>
        <time>2022-08-20T14:16:17Z</time>
      </trkpt>
      <trkpt lat="25.5087590" lon="-100.7350010">
        <ele>2104.2</ele>
        <time>2022-08-20T14:16:20Z</time>
      </trkpt>
      <trkpt lat="25.5087760" lon="-100.7349310">
        <ele>2105.0</ele>
        <time>2022-08-20T14:16:23Z</time>
      </trkpt>
      <trkpt lat="25.5088090" lon="-100.7348160">
        <ele>2105.6</ele>
        <time>2022-08-20T14:16:28Z</time>
      </trkpt>
      <trkpt lat="25.5088210" lon="-100.7347660">
        <ele>2106.2</ele>
        <time>2022-08-20T14:16:30Z</time>
      </trkpt>
      <trkpt lat="25.5088370" lon="-100.7346270">
        <ele>2107.2</ele>
        <time>2022-08-20T14:16:35Z</time>
      </trkpt>
      <trkpt lat="25.5088580" lon="-100.7345230">
        <ele>2108.0</ele>
        <time>2022-08-20T14:16:39Z</time>
      </trkpt>
      <trkpt lat="25.5088640" lon="-100.7344970">
        <ele>2108.2</ele>
        <time>2022-08-20T14:16:40Z</time>
      </trkpt>
      <trkpt lat="25.5089470" lon="-100.7342500">
        <ele>2109.0</ele>
        <time>2022-08-20T14:16:49Z</time>
      </trkpt>
      <trkpt lat="25.5089640" lon="-100.7340190">
        <ele>2110.0</ele>
        <time>2022-08-20T14:16:56Z</time>
      </trkpt>
      <trkpt lat="25.5089850" lon="-100.7338550">
        <ele>2111.2</ele>
        <time>2022-08-20T14:17:03Z</time>
      </trkpt>
      <trkpt lat="25.5089940" lon="-100.7338380">
        <ele>2111.4</ele>
        <time>2022-08-20T14:17:04Z</time>
      </trkpt>
      <trkpt lat="25.5090300" lon="-100.7337750">
        <ele>2112.4</ele>
        <time>2022-08-20T14:17:07Z</time>
      </trkpt>
      <trkpt lat="25.5090660" lon="-100.7336890">
        <ele>2113.6</ele>
        <time>2022-08-20T14:17:11Z</time>
      </trkpt>
      <trkpt lat="25.5090740" lon="-100.7336670">
        <ele>2113.8</ele>
        <time>2022-08-20T14:17:12Z</time>
      </trkpt>
      <trkpt lat="25.5090990" lon="-100.7335750">
        <ele>2114.6</ele>
        <time>2022-08-20T14:17:16Z</time>
      </trkpt>
      <trkpt lat="25.5091410" lon="-100.7334880">
        <ele>2115.6</ele>
        <time>2022-08-20T14:17:21Z</time>
      </trkpt>
      <trkpt lat="25.5091500" lon="-100.7334680">
        <ele>2115.8</ele>
        <time>2022-08-20T14:17:22Z</time>
      </trkpt>
      <trkpt lat="25.5091910" lon="-100.7333890">
        <ele>2117.0</ele>
        <time>2022-08-20T14:17:26Z</time>
      </trkpt>
      <trkpt lat="25.5092410" lon="-100.7333250">
        <ele>2118.2</ele>
        <time>2022-08-20T14:17:31Z</time>
      </trkpt>
      <trkpt lat="25.5092500" lon="-100.7333030">
        <ele>2118.6</ele>
        <time>2022-08-20T14:17:32Z</time>
      </trkpt>
      <trkpt lat="25.5092820" lon="-100.7332080">
        <ele>2119.2</ele>
        <time>2022-08-20T14:17:36Z</time>
      </trkpt>
      <trkpt lat="25.5093030" lon="-100.7330900">
        <ele>2120.2</ele>
        <time>2022-08-20T14:17:41Z</time>
      </trkpt>
      <trkpt lat="25.5093030" lon="-100.7330480">
        <ele>2120.6</ele>
        <time>2022-08-20T14:17:43Z</time>
      </trkpt>
      <trkpt lat="25.5092970" lon="-100.7329720">
        <ele>2121.4</ele>
        <time>2022-08-20T14:17:47Z</time>
      </trkpt>
      <trkpt lat="25.5092980" lon="-100.7329000">
        <ele>2122.4</ele>
        <time>2022-08-20T14:17:51Z</time>
      </trkpt>
      <trkpt lat="25.5093070" lon="-100.7328510">
        <ele>2123.0</ele>
        <time>2022-08-20T14:17:54Z</time>
      </trkpt>
      <trkpt lat="25.5093090" lon="-100.7328340">
        <ele>2123.4</ele>
        <time>2022-08-20T14:17:55Z</time>
      </trkpt>
      <trkpt lat="25.5093120" lon="-100.7327800">
        <ele>2124.6</ele>
        <time>2022-08-20T14:17:59Z</time>
      </trkpt>
      <trkpt lat="25.5093100" lon="-100.7327160">
        <ele>2125.4</ele>
        <time>2022-08-20T14:18:03Z</time>
      </trkpt>
      <trkpt lat="25.5093100" lon="-100.7326960">
        <ele>2125.8</ele>
        <time>2022-08-20T14:18:04Z</time>
      </trkpt>
      <trkpt lat="25.5092740" lon="-100.7325930">
        <ele>2126.8</ele>
        <time>2022-08-20T14:18:10Z</time>
      </trkpt>
      <trkpt lat="25.5092640" lon="-100.7325480">
        <ele>2127.2</ele>
        <time>2022-08-20T14:18:12Z</time>
      </trkpt>
      <trkpt lat="25.5092530" lon="-100.7324770">
        <ele>2128.0</ele>
        <time>2022-08-20T14:18:15Z</time>
      </trkpt>
      <trkpt lat="25.5092980" lon="-100.7323450">
        <ele>2128.8</ele>
        <time>2022-08-20T14:18:21Z</time>
      </trkpt>
      <trkpt lat="25.5093330" lon="-100.7322260">
        <ele>2130.0</ele>
        <time>2022-08-20T14:18:26Z</time>
      </trkpt>
      <trkpt lat="25.5093290" lon="-100.7321520">
        <ele>2130.6</ele>
        <time>2022-08-20T14:18:29Z</time>
      </trkpt>
      <trkpt lat="25.5093260" lon="-100.7321090">
        <ele>2131.2</ele>
        <time>2022-08-20T14:18:31Z</time>
      </trkpt>
      <trkpt lat="25.5092980" lon="-100.7319610">
        <ele>2132.2</ele>
        <time>2022-08-20T14:18:38Z</time>
      </trkpt>
      <trkpt lat="25.5092950" lon="-100.7318950">
        <ele>2132.6</ele>
        <time>2022-08-20T14:18:41Z</time>
      </trkpt>
      <trkpt lat="25.5092990" lon="-100.7318180">
        <ele>2133.2</ele>
        <time>2022-08-20T14:18:44Z</time>
      </trkpt>
      <trkpt lat="25.5093200" lon="-100.7316780">
        <ele>2134.4</ele>
        <time>2022-08-20T14:18:50Z</time>
      </trkpt>
      <trkpt lat="25.5093330" lon="-100.7316280">
        <ele>2134.8</ele>
        <time>2022-08-20T14:18:52Z</time>
      </trkpt>
      <trkpt lat="25.5093780" lon="-100.7315270">
        <ele>2135.4</ele>
        <time>2022-08-20T14:18:56Z</time>
      </trkpt>
      <trkpt lat="25.5094430" lon="-100.7313800">
        <ele>2136.6</ele>
        <time>2022-08-20T14:19:02Z</time>
      </trkpt>
      <trkpt lat="25.5094740" lon="-100.7312680">
        <ele>2137.4</ele>
        <time>2022-08-20T14:19:06Z</time>
      </trkpt>
      <trkpt lat="25.5094790" lon="-100.7311570">
        <ele>2137.8</ele>
        <time>2022-08-20T14:19:10Z</time>
      </trkpt>
      <trkpt lat="25.5094600" lon="-100.7310670">
        <ele>2138.6</ele>
        <time>2022-08-20T14:19:14Z</time>
      </trkpt>
      <trkpt lat="25.5094470" lon="-100.7309650">
        <ele>2139.6</ele>
        <time>2022-08-20T14:19:18Z</time>
      </trkpt>
      <trkpt lat="25.5094430" lon="-100.7309360">
        <ele>2139.8</ele>
        <time>2022-08-20T14:19:19Z</time>
      </trkpt>
      <trkpt lat="25.5094320" lon="-100.7307770">
        <ele>2140.8</ele>
        <time>2022-08-20T14:19:24Z</time>
      </trkpt>
      <trkpt lat="25.5094310" lon="-100.7306390">
        <ele>2141.0</ele>
        <time>2022-08-20T14:19:28Z</time>
      </trkpt>
      <trkpt lat="25.5094330" lon="-100.7305880">
        <ele>2141.0</ele>
        <time>2022-08-20T14:19:29Z</time>
      </trkpt>
      <trkpt lat="25.5094340" lon="-100.7303860">
        <ele>2141.0</ele>
        <time>2022-08-20T14:19:32Z</time>
      </trkpt>
      <trkpt lat="25.5094280" lon="-100.7303300">
        <ele>2141.0</ele>
        <time>2022-08-20T14:19:33Z</time>
      </trkpt>
      <trkpt lat="25.5094190" lon="-100.7302010">
        <ele>2140.8</ele>
        <time>2022-08-20T14:19:36Z</time>
      </trkpt>
      <trkpt lat="25.5094310" lon="-100.7300040">
        <ele>2140.8</ele>
        <time>2022-08-20T14:19:43Z</time>
      </trkpt>
      <trkpt lat="25.5094380" lon="-100.7299130">
        <ele>2141.6</ele>
        <time>2022-08-20T14:19:48Z</time>
      </trkpt>
      <trkpt lat="25.5094570" lon="-100.7298450">
        <ele>2142.8</ele>
        <time>2022-08-20T14:19:52Z</time>
      </trkpt>
      <trkpt lat="25.5094580" lon="-100.7298290">
        <ele>2143.0</ele>
        <time>2022-08-20T14:19:53Z</time>
      </trkpt>
      <trkpt lat="25.5094640" lon="-100.7297810">
        <ele>2143.8</ele>
        <time>2022-08-20T14:19:56Z</time>
      </trkpt>
      <trkpt lat="25.5094740" lon="-100.7297220">
        <ele>2145.0</ele>
        <time>2022-08-20T14:20:00Z</time>
      </trkpt>
      <trkpt lat="25.5094760" lon="-100.7296780">
        <ele>2145.8</ele>
        <time>2022-08-20T14:20:03Z</time>
      </trkpt>
      <trkpt lat="25.5094760" lon="-100.7296460">
        <ele>2146.2</ele>
        <time>2022-08-20T14:20:05Z</time>
      </trkpt>
      <trkpt lat="25.5094760" lon="-100.7295390">
        <ele>2147.2</ele>
        <time>2022-08-20T14:20:11Z</time>
      </trkpt>
      <trkpt lat="25.5094770" lon="-100.7295200">
        <ele>2147.4</ele>
        <time>2022-08-20T14:20:12Z</time>
      </trkpt>
      <trkpt lat="25.5094820" lon="-100.7294310">
        <ele>2148.4</ele>
        <time>2022-08-20T14:20:17Z</time>
      </trkpt>
      <trkpt lat="25.5094780" lon="-100.7293440">
        <ele>2149.4</ele>
        <time>2022-08-20T14:20:22Z</time>
      </trkpt>
      <trkpt lat="25.5094790" lon="-100.7293270">
        <ele>2149.6</ele>
        <time>2022-08-20T14:20:23Z</time>
      </trkpt>
      <trkpt lat="25.5094940" lon="-100.7292250">
        <ele>2150.6</ele>
        <time>2022-08-20T14:20:29Z</time>
      </trkpt>
      <trkpt lat="25.5095020" lon="-100.7291940">
        <ele>2151.0</ele>
        <time>2022-08-20T14:20:31Z</time>
      </trkpt>
      <trkpt lat="25.5095160" lon="-100.7291430">
        <ele>2151.8</ele>
        <time>2022-08-20T14:20:34Z</time>
      </trkpt>
      <trkpt lat="25.5095490" lon="-100.7290630">
        <ele>2152.8</ele>
        <time>2022-08-20T14:20:39Z</time>
      </trkpt>
      <trkpt lat="25.5095570" lon="-100.7290470">
        <ele>2153.0</ele>
        <time>2022-08-20T14:20:40Z</time>
      </trkpt>
      <trkpt lat="25.5095950" lon="-100.7289830">
        <ele>2154.0</ele>
        <time>2022-08-20T14:20:45Z</time>
      </trkpt>
      <trkpt lat="25.5096010" lon="-100.7289610">
        <ele>2154.4</ele>
        <time>2022-08-20T14:20:47Z</time>
      </trkpt>
      <trkpt lat="25.5096100" lon="-100.7289220">
        <ele>2155.0</ele>
        <time>2022-08-20T14:20:49Z</time>
      </trkpt>
      <trkpt lat="25.5096380" lon="-100.7288100">
        <ele>2156.2</ele>
        <time>2022-08-20T14:20:55Z</time>
      </trkpt>
      <trkpt lat="25.5096450" lon="-100.7287910">
        <ele>2156.4</ele>
        <time>2022-08-20T14:20:56Z</time>
      </trkpt>
      <trkpt lat="25.5096690" lon="-100.7287220">
        <ele>2157.2</ele>
        <time>2022-08-20T14:21:00Z</time>
      </trkpt>
      <trkpt lat="25.5097100" lon="-100.7286420">
        <ele>2158.4</ele>
        <time>2022-08-20T14:21:05Z</time>
      </trkpt>
      <trkpt lat="25.5097180" lon="-100.7286280">
        <ele>2158.6</ele>
        <time>2022-08-20T14:21:06Z</time>
      </trkpt>
      <trkpt lat="25.5097410" lon="-100.7285860">
        <ele>2159.2</ele>
        <time>2022-08-20T14:21:09Z</time>
      </trkpt>
      <trkpt lat="25.5097560" lon="-100.7285270">
        <ele>2160.2</ele>
        <time>2022-08-20T14:21:13Z</time>
      </trkpt>
      <trkpt lat="25.5097590" lon="-100.7284970">
        <ele>2160.6</ele>
        <time>2022-08-20T14:21:15Z</time>
      </trkpt>
      <trkpt lat="25.5097580" lon="-100.7284580">
        <ele>2161.4</ele>
        <time>2022-08-20T14:21:18Z</time>
      </trkpt>
      <trkpt lat="25.5097480" lon="-100.7283860">
        <ele>2162.4</ele>
        <time>2022-08-20T14:21:22Z</time>
      </trkpt>
      <trkpt lat="25.5097450" lon="-100.7283640">
        <ele>2162.6</ele>
        <time>2022-08-20T14:21:23Z</time>
      </trkpt>
      <trkpt lat="25.5097350" lon="-100.7282720">
        <ele>2163.4</ele>
        <time>2022-08-20T14:21:27Z</time>
      </trkpt>
      <trkpt lat="25.5097170" lon="-100.7281560">
        <ele>2164.6</ele>
        <time>2022-08-20T14:21:32Z</time>
      </trkpt>
      <trkpt lat="25.5097170" lon="-100.7281010">
        <ele>2165.4</ele>
        <time>2022-08-20T14:21:35Z</time>
      </trkpt>
      <trkpt lat="25.5097230" lon="-100.7280370">
        <ele>2165.8</ele>
        <time>2022-08-20T14:21:38Z</time>
      </trkpt>
      <trkpt lat="25.5097000" lon="-100.7279240">
        <ele>2166.4</ele>
        <time>2022-08-20T14:21:43Z</time>
      </trkpt>
      <trkpt lat="25.5096720" lon="-100.7278440">
        <ele>2166.6</ele>
        <time>2022-08-20T14:21:46Z</time>
      </trkpt>
      <trkpt lat="25.5096400" lon="-100.7277370">
        <ele>2167.2</ele>
        <time>2022-08-20T14:21:50Z</time>
      </trkpt>
      <trkpt lat="25.5096100" lon="-100.7276350">
        <ele>2167.8</ele>
        <time>2022-08-20T14:21:54Z</time>
      </trkpt>
      <trkpt lat="25.5095730" lon="-100.7274510">
        <ele>2168.6</ele>
        <time>2022-08-20T14:22:00Z</time>
      </trkpt>
      <trkpt lat="25.5095610" lon="-100.7272850">
        <ele>2169.8</ele>
        <time>2022-08-20T14:22:05Z</time>
      </trkpt>
      <trkpt lat="25.5095450" lon="-100.7272070">
        <ele>2169.8</ele>
        <time>2022-08-20T14:22:07Z</time>
      </trkpt>
      <trkpt lat="25.5095300" lon="-100.7271020">
        <ele>2169.8</ele>
        <time>2022-08-20T14:22:09Z</time>
      </trkpt>
      <trkpt lat="25.5095420" lon="-100.7269060">
        <ele>2169.8</ele>
        <time>2022-08-20T14:22:12Z</time>
      </trkpt>
      <trkpt lat="25.5094690" lon="-100.7267100">
        <ele>2169.0</ele>
        <time>2022-08-20T14:22:16Z</time>
      </trkpt>
      <trkpt lat="25.5093810" lon="-100.7266300">
        <ele>2168.8</ele>
        <time>2022-08-20T14:22:21Z</time>
      </trkpt>
      <trkpt lat="25.5092640" lon="-100.7265280">
        <ele>2170.8</ele>
        <time>2022-08-20T14:22:30Z</time>
      </trkpt>
      <trkpt lat="25.5092580" lon="-100.7265060">
        <ele>2171.0</ele>
        <time>2022-08-20T14:22:31Z</time>
      </trkpt>
      <trkpt lat="25.5092410" lon="-100.7264130">
        <ele>2171.8</ele>
        <time>2022-08-20T14:22:35Z</time>
      </trkpt>
      <trkpt lat="25.5092340" lon="-100.7263060">
        <ele>2172.4</ele>
        <time>2022-08-20T14:22:40Z</time>
      </trkpt>
      <trkpt lat="25.5092360" lon="-100.7262660">
        <ele>2172.8</ele>
        <time>2022-08-20T14:22:42Z</time>
      </trkpt>
      <trkpt lat="25.5092570" lon="-100.7261670">
        <ele>2173.8</ele>
        <time>2022-08-20T14:22:47Z</time>
      </trkpt>
      <trkpt lat="25.5092510" lon="-100.7261250">
        <ele>2174.2</ele>
        <time>2022-08-20T14:22:49Z</time>
      </trkpt>
      <trkpt lat="25.5092380" lon="-100.7260720">
        <ele>2174.8</ele>
        <time>2022-08-20T14:22:52Z</time>
      </trkpt>
      <trkpt lat="25.5091930" lon="-100.7260020">
        <ele>2176.0</ele>
        <time>2022-08-20T14:22:56Z</time>
      </trkpt>
      <trkpt lat="25.5091750" lon="-100.7259920">
        <ele>2176.2</ele>
        <time>2022-08-20T14:22:57Z</time>
      </trkpt>
      <trkpt lat="25.5091190" lon="-100.7259170">
        <ele>2177.0</ele>
        <time>2022-08-20T14:23:01Z</time>
      </trkpt>
      <trkpt lat="25.5090880" lon="-100.7258430">
        <ele>2177.8</ele>
        <time>2022-08-20T14:23:05Z</time>
      </trkpt>
      <trkpt lat="25.5090800" lon="-100.7258220">
        <ele>2178.0</ele>
        <time>2022-08-20T14:23:06Z</time>
      </trkpt>
      <trkpt lat="25.5090490" lon="-100.7257640">
        <ele>2179.0</ele>
        <time>2022-08-20T14:23:11Z</time>
      </trkpt>
      <trkpt lat="25.5090400" lon="-100.7257540">
        <ele>2179.2</ele>
        <time>2022-08-20T14:23:12Z</time>
      </trkpt>
      <trkpt lat="25.5090080" lon="-100.7257160">
        <ele>2180.2</ele>
        <time>2022-08-20T14:23:15Z</time>
      </trkpt>
      <trkpt lat="25.5089710" lon="-100.7256790">
        <ele>2180.8</ele>
        <time>2022-08-20T14:23:19Z</time>
      </trkpt>
      <trkpt lat="25.5089170" lon="-100.7256790">
        <ele>2181.4</ele>
        <time>2022-08-20T14:23:22Z</time>
      </trkpt>
      <trkpt lat="25.5088610" lon="-100.7256380">
        <ele>2182.4</ele>
        <time>2022-08-20T14:23:27Z</time>
      </trkpt>
      <trkpt lat="25.5088360" lon="-100.7256180">
        <ele>2183.0</ele>
        <time>2022-08-20T14:23:29Z</time>
      </trkpt>
      <trkpt lat="25.5087990" lon="-100.7255870">
        <ele>2183.6</ele>
        <time>2022-08-20T14:23:32Z</time>
      </trkpt>
      <trkpt lat="25.5087600" lon="-100.7255360">
        <ele>2184.8</ele>
        <time>2022-08-20T14:23:36Z</time>
      </trkpt>
      <trkpt lat="25.5086560" lon="-100.7253660">
        <ele>2185.6</ele>
        <time>2022-08-20T14:23:45Z</time>
      </trkpt>
      <trkpt lat="25.5086390" lon="-100.7253220">
        <ele>2185.8</ele>
        <time>2022-08-20T14:23:47Z</time>
      </trkpt>
      <trkpt lat="25.5086000" lon="-100.7252070">
        <ele>2186.8</ele>
        <time>2022-08-20T14:23:52Z</time>
      </trkpt>
      <trkpt lat="25.5085810" lon="-100.7251510">
        <ele>2187.4</ele>
        <time>2022-08-20T14:23:55Z</time>
      </trkpt>
      <trkpt lat="25.5085700" lon="-100.7251050">
        <ele>2187.8</ele>
        <time>2022-08-20T14:23:58Z</time>
      </trkpt>
      <trkpt lat="25.5085420" lon="-100.7250200">
        <ele>2189.0</ele>
        <time>2022-08-20T14:24:02Z</time>
      </trkpt>
      <trkpt lat="25.5085270" lon="-100.7249780">
        <ele>2189.6</ele>
        <time>2022-08-20T14:24:04Z</time>
      </trkpt>
      <trkpt lat="25.5085080" lon="-100.7249230">
        <ele>2190.0</ele>
        <time>2022-08-20T14:24:07Z</time>
      </trkpt>
      <trkpt lat="25.5084790" lon="-100.7248320">
        <ele>2191.2</ele>
        <time>2022-08-20T14:24:12Z</time>
      </trkpt>
      <trkpt lat="25.5084650" lon="-100.7248000">
        <ele>2191.4</ele>
        <time>2022-08-20T14:24:14Z</time>
      </trkpt>
      <trkpt lat="25.5084340" lon="-100.7247190">
        <ele>2192.2</ele>
        <time>2022-08-20T14:24:19Z</time>
      </trkpt>
      <trkpt lat="25.5084040" lon="-100.7246040">
        <ele>2193.0</ele>
        <time>2022-08-20T14:24:24Z</time>
      </trkpt>
      <trkpt lat="25.5083910" lon="-100.7245640">
        <ele>2193.2</ele>
        <time>2022-08-20T14:24:26Z</time>
      </trkpt>
      <trkpt lat="25.5083380" lon="-100.7244410">
        <ele>2194.2</ele>
        <time>2022-08-20T14:24:33Z</time>
      </trkpt>
      <trkpt lat="25.5083160" lon="-100.7243780">
        <ele>2194.8</ele>
        <time>2022-08-20T14:24:36Z</time>
      </trkpt>
      <trkpt lat="25.5082960" lon="-100.7243140">
        <ele>2195.4</ele>
        <time>2022-08-20T14:24:39Z</time>
      </trkpt>
      <trkpt lat="25.5082650" lon="-100.7242460">
        <ele>2196.6</ele>
        <time>2022-08-20T14:24:43Z</time>
      </trkpt>
      <trkpt lat="25.5082320" lon="-100.7241990">
        <ele>2197.2</ele>
        <time>2022-08-20T14:24:47Z</time>
      </trkpt>
      <trkpt lat="25.5082270" lon="-100.7241730">
        <ele>2197.6</ele>
        <time>2022-08-20T14:24:49Z</time>
      </trkpt>
      <trkpt lat="25.5082160" lon="-100.7240990">
        <ele>2198.6</ele>
        <time>2022-08-20T14:24:54Z</time>
      </trkpt>
      <trkpt lat="25.5082150" lon="-100.7240810">
        <ele>2199.0</ele>
        <time>2022-08-20T14:24:55Z</time>
      </trkpt>
      <trkpt lat="25.5082030" lon="-100.7240320">
        <ele>2199.6</ele>
        <time>2022-08-20T14:24:58Z</time>
      </trkpt>
      <trkpt lat="25.5081760" lon="-100.7239660">
        <ele>2200.8</ele>
        <time>2022-08-20T14:25:03Z</time>
      </trkpt>
      <trkpt lat="25.5081670" lon="-100.7239460">
        <ele>2201.0</ele>
        <time>2022-08-20T14:25:05Z</time>
      </trkpt>
      <trkpt lat="25.5081340" lon="-100.7238830">
        <ele>2201.8</ele>
        <time>2022-08-20T14:25:09Z</time>
      </trkpt>
      <trkpt lat="25.5080650" lon="-100.7238110">
        <ele>2203.0</ele>
        <time>2022-08-20T14:25:14Z</time>
      </trkpt>
      <trkpt lat="25.5080080" lon="-100.7237540">
        <ele>2204.0</ele>
        <time>2022-08-20T14:25:18Z</time>
      </trkpt>
      <trkpt lat="25.5079520" lon="-100.7236900">
        <ele>2205.0</ele>
        <time>2022-08-20T14:25:23Z</time>
      </trkpt>
      <trkpt lat="25.5079220" lon="-100.7236510">
        <ele>2205.6</ele>
        <time>2022-08-20T14:25:26Z</time>
      </trkpt>
      <trkpt lat="25.5079030" lon="-100.7236160">
        <ele>2206.0</ele>
        <time>2022-08-20T14:25:28Z</time>
      </trkpt>
      <trkpt lat="25.5078390" lon="-100.7235180">
        <ele>2207.2</ele>
        <time>2022-08-20T14:25:35Z</time>
      </trkpt>
      <trkpt lat="25.5078330" lon="-100.7235030">
        <ele>2207.4</ele>
        <time>2022-08-20T14:25:36Z</time>
      </trkpt>
      <trkpt lat="25.5077890" lon="-100.7234230">
        <ele>2208.0</ele>
        <time>2022-08-20T14:25:41Z</time>
      </trkpt>
      <trkpt lat="25.5077500" lon="-100.7233470">
        <ele>2209.2</ele>
        <time>2022-08-20T14:25:46Z</time>
      </trkpt>
      <trkpt lat="25.5077200" lon="-100.7233070">
        <ele>2209.8</ele>
        <time>2022-08-20T14:25:49Z</time>
      </trkpt>
      <trkpt lat="25.5076920" lon="-100.7232810">
        <ele>2210.2</ele>
        <time>2022-08-20T14:25:51Z</time>
      </trkpt>
      <trkpt lat="25.5076380" lon="-100.7232050">
        <ele>2211.4</ele>
        <time>2022-08-20T14:25:56Z</time>
      </trkpt>
      <trkpt lat="25.5076170" lon="-100.7231750">
        <ele>2212.0</ele>
        <time>2022-08-20T14:25:58Z</time>
      </trkpt>
      <trkpt lat="25.5075580" lon="-100.7231080">
        <ele>2212.4</ele>
        <time>2022-08-20T14:26:02Z</time>
      </trkpt>
      <trkpt lat="25.5074750" lon="-100.7230140">
        <ele>2212.8</ele>
        <time>2022-08-20T14:26:07Z</time>
      </trkpt>
      <trkpt lat="25.5073900" lon="-100.7228810">
        <ele>2213.4</ele>
        <time>2022-08-20T14:26:13Z</time>
      </trkpt>
      <trkpt lat="25.5073720" lon="-100.7228240">
        <ele>2214.0</ele>
        <time>2022-08-20T14:26:16Z</time>
      </trkpt>
      <trkpt lat="25.5073580" lon="-100.7227760">
        <ele>2214.4</ele>
        <time>2022-08-20T14:26:19Z</time>
      </trkpt>
      <trkpt lat="25.5073290" lon="-100.7226530">
        <ele>2214.6</ele>
        <time>2022-08-20T14:26:24Z</time>
      </trkpt>
      <trkpt lat="25.5072250" lon="-100.7223920">
        <ele>2214.4</ele>
        <time>2022-08-20T14:26:31Z</time>
      </trkpt>
      <trkpt lat="25.5070970" lon="-100.7221350">
        <ele>2213.2</ele>
        <time>2022-08-20T14:26:36Z</time>
      </trkpt>
      <trkpt lat="25.5070710" lon="-100.7220770">
        <ele>2212.8</ele>
        <time>2022-08-20T14:26:37Z</time>
      </trkpt>
      <trkpt lat="25.5069880" lon="-100.7218950">
        <ele>2212.0</ele>
        <time>2022-08-20T14:26:40Z</time>
      </trkpt>
      <trkpt lat="25.5069190" lon="-100.7217470">
        <ele>2211.0</ele>
        <time>2022-08-20T14:26:42Z</time>
      </trkpt>
      <trkpt lat="25.5068790" lon="-100.7216620">
        <ele>2210.4</ele>
        <time>2022-08-20T14:26:43Z</time>
      </trkpt>
      <trkpt lat="25.5067910" lon="-100.7214950">
        <ele>2209.6</ele>
        <time>2022-08-20T14:26:45Z</time>
      </trkpt>
      <trkpt lat="25.5066000" lon="-100.7212050">
        <ele>2208.4</ele>
        <time>2022-08-20T14:26:49Z</time>
      </trkpt>
      <trkpt lat="25.5065510" lon="-100.7211390">
        <ele>2207.6</ele>
        <time>2022-08-20T14:26:50Z</time>
      </trkpt>
      <trkpt lat="25.5064980" lon="-100.7210710">
        <ele>2207.2</ele>
        <time>2022-08-20T14:26:51Z</time>
      </trkpt>
      <trkpt lat="25.5062680" lon="-100.7207860">
        <ele>2206.0</ele>
        <time>2022-08-20T14:26:56Z</time>
      </trkpt>
      <trkpt lat="25.5060150" lon="-100.7205450">
        <ele>2205.4</ele>
        <time>2022-08-20T14:27:02Z</time>
      </trkpt>
      <trkpt lat="25.5056480" lon="-100.7202150">
        <ele>2205.4</ele>
        <time>2022-08-20T14:27:10Z</time>
      </trkpt>
      <trkpt lat="25.5052820" lon="-100.7198270">
        <ele>2204.8</ele>
        <time>2022-08-20T14:27:17Z</time>
      </trkpt>
      <trkpt lat="25.5052440" lon="-100.7197550">
        <ele>2204.2</ele>
        <time>2022-08-20T14:27:18Z</time>
      </trkpt>
      <trkpt lat="25.5051700" lon="-100.7195900">
        <ele>2203.4</ele>
        <time>2022-08-20T14:27:20Z</time>
      </trkpt>
      <trkpt lat="25.5051410" lon="-100.7195080">
        <ele>2203.0</ele>
        <time>2022-08-20T14:27:21Z</time>
      </trkpt>
      <trkpt lat="25.5051170" lon="-100.7194180">
        <ele>2202.4</ele>
        <time>2022-08-20T14:27:22Z</time>
      </trkpt>
      <trkpt lat="25.5050660" lon="-100.7191690">
        <ele>2201.2</ele>
        <time>2022-08-20T14:27:25Z</time>
      </trkpt>
      <trkpt lat="25.5050490" lon="-100.7190920">
        <ele>2200.8</ele>
        <time>2022-08-20T14:27:26Z</time>
      </trkpt>
      <trkpt lat="25.5050040" lon="-100.7189490">
        <ele>2199.6</ele>
        <time>2022-08-20T14:27:28Z</time>
      </trkpt>
      <trkpt lat="25.5049360" lon="-100.7188030">
        <ele>2198.4</ele>
        <time>2022-08-20T14:27:30Z</time>
      </trkpt>
      <trkpt lat="25.5048980" lon="-100.7187340">
        <ele>2198.2</ele>
        <time>2022-08-20T14:27:31Z</time>
      </trkpt>
      <trkpt lat="25.5047680" lon="-100.7185240">
        <ele>2197.0</ele>
        <time>2022-08-20T14:27:34Z</time>
      </trkpt>
      <trkpt lat="25.5046660" lon="-100.7183680">
        <ele>2195.6</ele>
        <time>2022-08-20T14:27:36Z</time>
      </trkpt>
      <trkpt lat="25.5046120" lon="-100.7182810">
        <ele>2194.8</ele>
        <time>2022-08-20T14:27:37Z</time>
      </trkpt>
      <trkpt lat="25.5044940" lon="-100.7181130">
        <ele>2193.0</ele>
        <time>2022-08-20T14:27:39Z</time>
      </trkpt>
      <trkpt lat="25.5043560" lon="-100.7179570">
        <ele>2191.8</ele>
        <time>2022-08-20T14:27:41Z</time>
      </trkpt>
      <trkpt lat="25.5042850" lon="-100.7178870">
        <ele>2191.2</ele>
        <time>2022-08-20T14:27:42Z</time>
      </trkpt>
      <trkpt lat="25.5042130" lon="-100.7178180">
        <ele>2190.4</ele>
        <time>2022-08-20T14:27:43Z</time>
      </trkpt>
      <trkpt lat="25.5040720" lon="-100.7176890">
        <ele>2189.2</ele>
        <time>2022-08-20T14:27:45Z</time>
      </trkpt>
      <trkpt lat="25.5038670" lon="-100.7174770">
        <ele>2187.2</ele>
        <time>2022-08-20T14:27:48Z</time>
      </trkpt>
      <trkpt lat="25.5037360" lon="-100.7173340">
        <ele>2186.0</ele>
        <time>2022-08-20T14:27:50Z</time>
      </trkpt>
      <trkpt lat="25.5036750" lon="-100.7172620">
        <ele>2185.6</ele>
        <time>2022-08-20T14:27:51Z</time>
      </trkpt>
      <trkpt lat="25.5035640" lon="-100.7171110">
        <ele>2184.6</ele>
        <time>2022-08-20T14:27:53Z</time>
      </trkpt>
      <trkpt lat="25.5034320" lon="-100.7168840">
        <ele>2183.2</ele>
        <time>2022-08-20T14:27:56Z</time>
      </trkpt>
      <trkpt lat="25.5033980" lon="-100.7168130">
        <ele>2182.6</ele>
        <time>2022-08-20T14:27:57Z</time>
      </trkpt>
      <trkpt lat="25.5033620" lon="-100.7167440">
        <ele>2181.8</ele>
        <time>2022-08-20T14:27:58Z</time>
      </trkpt>
      <trkpt lat="25.5032000" lon="-100.7165290">
        <ele>2180.2</ele>
        <time>2022-08-20T14:28:02Z</time>
      </trkpt>
      <trkpt lat="25.5031190" lon="-100.7164390">
        <ele>2178.8</ele>
        <time>2022-08-20T14:28:04Z</time>
      </trkpt>
      <trkpt lat="25.5030940" lon="-100.7163870">
        <ele>2178.2</ele>
        <time>2022-08-20T14:28:05Z</time>
      </trkpt>
      <trkpt lat="25.5030870" lon="-100.7163360">
        <ele>2177.8</ele>
        <time>2022-08-20T14:28:06Z</time>
      </trkpt>
      <trkpt lat="25.5031190" lon="-100.7162340">
        <ele>2176.6</ele>
        <time>2022-08-20T14:28:08Z</time>
      </trkpt>
      <trkpt lat="25.5031550" lon="-100.7161800">
        <ele>2175.8</ele>
        <time>2022-08-20T14:28:09Z</time>
      </trkpt>
      <trkpt lat="25.5032000" lon="-100.7161210">
        <ele>2175.4</ele>
        <time>2022-08-20T14:28:10Z</time>
      </trkpt>
      <trkpt lat="25.5032770" lon="-100.7160010">
        <ele>2174.0</ele>
        <time>2022-08-20T14:28:12Z</time>
      </trkpt>
      <trkpt lat="25.5033530" lon="-100.7158860">
        <ele>2172.8</ele>
        <time>2022-08-20T14:28:14Z</time>
      </trkpt>
      <trkpt lat="25.5034340" lon="-100.7157820">
        <ele>2171.2</ele>
        <time>2022-08-20T14:28:16Z</time>
      </trkpt>
      <trkpt lat="25.5035330" lon="-100.7156840">
        <ele>2169.4</ele>
        <time>2022-08-20T14:28:18Z</time>
      </trkpt>
      <trkpt lat="25.5035860" lon="-100.7156360">
        <ele>2169.0</ele>
        <time>2022-08-20T14:28:19Z</time>
      </trkpt>
      <trkpt lat="25.5038530" lon="-100.7154320">
        <ele>2168.4</ele>
        <time>2022-08-20T14:28:23Z</time>
      </trkpt>
      <trkpt lat="25.5042200" lon="-100.7152650">
        <ele>2167.0</ele>
        <time>2022-08-20T14:28:28Z</time>
      </trkpt>
      <trkpt lat="25.5043760" lon="-100.7152260">
        <ele>2165.4</ele>
        <time>2022-08-20T14:28:30Z</time>
      </trkpt>
      <trkpt lat="25.5045400" lon="-100.7152040">
        <ele>2164.2</ele>
        <time>2022-08-20T14:28:32Z</time>
      </trkpt>
      <trkpt lat="25.5046150" lon="-100.7151960">
        <ele>2163.4</ele>
        <time>2022-08-20T14:28:33Z</time>
      </trkpt>
      <trkpt lat="25.5046770" lon="-100.7151910">
        <ele>2163.0</ele>
        <time>2022-08-20T14:28:34Z</time>
      </trkpt>
      <trkpt lat="25.5047580" lon="-100.7151500">
        <ele>2161.8</ele>
        <time>2022-08-20T14:28:36Z</time>
      </trkpt>
      <trkpt lat="25.5047560" lon="-100.7150850">
        <ele>2160.4</ele>
        <time>2022-08-20T14:28:38Z</time>
      </trkpt>
      <trkpt lat="25.5047440" lon="-100.7150580">
        <ele>2159.8</ele>
        <time>2022-08-20T14:28:39Z</time>
      </trkpt>
      <trkpt lat="25.5047100" lon="-100.7150190">
        <ele>2159.4</ele>
        <time>2022-08-20T14:28:41Z</time>
      </trkpt>
      <trkpt lat="25.5046920" lon="-100.7149940">
        <ele>2159.2</ele>
        <time>2022-08-20T14:28:42Z</time>
      </trkpt>
      <trkpt lat="25.5046290" lon="-100.7149450">
        <ele>2159.2</ele>
        <time>2022-08-20T14:28:45Z</time>
      </trkpt>
      <trkpt lat="25.5043650" lon="-100.7148230">
        <ele>2160.4</ele>
        <time>2022-08-20T14:28:54Z</time>
      </trkpt>
      <trkpt lat="25.5042670" lon="-100.7147750">
        <ele>2161.6</ele>
        <time>2022-08-20T14:28:58Z</time>
      </trkpt>
      <trkpt lat="25.5041910" lon="-100.7147190">
        <ele>2162.6</ele>
        <time>2022-08-20T14:29:02Z</time>
      </trkpt>
      <trkpt lat="25.5041760" lon="-100.7147020">
        <ele>2163.0</ele>
        <time>2022-08-20T14:29:03Z</time>
      </trkpt>
      <trkpt lat="25.5041250" lon="-100.7146440">
        <ele>2163.8</ele>
        <time>2022-08-20T14:29:06Z</time>
      </trkpt>
      <trkpt lat="25.5040290" lon="-100.7145500">
        <ele>2165.2</ele>
        <time>2022-08-20T14:29:11Z</time>
      </trkpt>
      <trkpt lat="25.5039770" lon="-100.7144930">
        <ele>2165.6</ele>
        <time>2022-08-20T14:29:14Z</time>
      </trkpt>
      <trkpt lat="25.5039020" lon="-100.7144110">
        <ele>2166.2</ele>
        <time>2022-08-20T14:29:18Z</time>
      </trkpt>
      <trkpt lat="25.5038120" lon="-100.7143120">
        <ele>2166.8</ele>
        <time>2022-08-20T14:29:23Z</time>
      </trkpt>
      <trkpt lat="25.5037950" lon="-100.7142950">
        <ele>2167.0</ele>
        <time>2022-08-20T14:29:24Z</time>
      </trkpt>
      <trkpt lat="25.5037000" lon="-100.7141680">
        <ele>2168.2</ele>
        <time>2022-08-20T14:29:30Z</time>
      </trkpt>
      <trkpt lat="25.5036450" lon="-100.7140990">
        <ele>2168.8</ele>
        <time>2022-08-20T14:29:33Z</time>
      </trkpt>
      <trkpt lat="25.5035920" lon="-100.7140250">
        <ele>2169.4</ele>
        <time>2022-08-20T14:29:36Z</time>
      </trkpt>
      <trkpt lat="25.5035280" lon="-100.7138960">
        <ele>2170.6</ele>
        <time>2022-08-20T14:29:41Z</time>
      </trkpt>
      <trkpt lat="25.5035040" lon="-100.7138360">
        <ele>2170.8</ele>
        <time>2022-08-20T14:29:43Z</time>
      </trkpt>
      <trkpt lat="25.5034590" lon="-100.7137080">
        <ele>2171.6</ele>
        <time>2022-08-20T14:29:48Z</time>
      </trkpt>
      <trkpt lat="25.5034210" lon="-100.7135270">
        <ele>2172.8</ele>
        <time>2022-08-20T14:29:54Z</time>
      </trkpt>
      <trkpt lat="25.5033820" lon="-100.7131640">
        <ele>2173.0</ele>
        <time>2022-08-20T14:30:02Z</time>
      </trkpt>
      <trkpt lat="25.5033720" lon="-100.7127670">
        <ele>2172.4</ele>
        <time>2022-08-20T14:30:09Z</time>
      </trkpt>
      <trkpt lat="25.5032960" lon="-100.7123460">
        <ele>2171.8</ele>
        <time>2022-08-20T14:30:15Z</time>
      </trkpt>
      <trkpt lat="25.5032760" lon="-100.7122700">
        <ele>2171.4</ele>
        <time>2022-08-20T14:30:16Z</time>
      </trkpt>
      <trkpt lat="25.5032350" lon="-100.7121020">
        <ele>2170.4</ele>
        <time>2022-08-20T14:30:18Z</time>
      </trkpt>
      <trkpt lat="25.5031830" lon="-100.7118680">
        <ele>2168.8</ele>
        <time>2022-08-20T14:30:21Z</time>
      </trkpt>
      <trkpt lat="25.5031610" lon="-100.7116930">
        <ele>2167.6</ele>
        <time>2022-08-20T14:30:23Z</time>
      </trkpt>
      <trkpt lat="25.5031620" lon="-100.7114980">
        <ele>2166.2</ele>
        <time>2022-08-20T14:30:25Z</time>
      </trkpt>
      <trkpt lat="25.5031910" lon="-100.7112960">
        <ele>2165.2</ele>
        <time>2022-08-20T14:30:27Z</time>
      </trkpt>
      <trkpt lat="25.5032040" lon="-100.7110830">
        <ele>2164.0</ele>
        <time>2022-08-20T14:30:29Z</time>
      </trkpt>
      <trkpt lat="25.5031810" lon="-100.7108840">
        <ele>2162.8</ele>
        <time>2022-08-20T14:30:31Z</time>
      </trkpt>
      <trkpt lat="25.5031240" lon="-100.7106980">
        <ele>2161.0</ele>
        <time>2022-08-20T14:30:33Z</time>
      </trkpt>
      <trkpt lat="25.5030310" lon="-100.7104990">
        <ele>2159.4</ele>
        <time>2022-08-20T14:30:35Z</time>
      </trkpt>
      <trkpt lat="25.5029850" lon="-100.7104070">
        <ele>2157.6</ele>
        <time>2022-08-20T14:30:36Z</time>
      </trkpt>
      <trkpt lat="25.5028920" lon="-100.7102320">
        <ele>2156.4</ele>
        <time>2022-08-20T14:30:38Z</time>
      </trkpt>
      <trkpt lat="25.5028060" lon="-100.7100560">
        <ele>2155.6</ele>
        <time>2022-08-20T14:30:40Z</time>
      </trkpt>
      <trkpt lat="25.5027840" lon="-100.7099680">
        <ele>2155.0</ele>
        <time>2022-08-20T14:30:41Z</time>
      </trkpt>
      <trkpt lat="25.5027800" lon="-100.7098040">
        <ele>2154.0</ele>
        <time>2022-08-20T14:30:43Z</time>
      </trkpt>
      <trkpt lat="25.5027960" lon="-100.7097280">
        <ele>2153.4</ele>
        <time>2022-08-20T14:30:44Z</time>
      </trkpt>
      <trkpt lat="25.5029270" lon="-100.7094920">
        <ele>2152.8</ele>
        <time>2022-08-20T14:30:48Z</time>
      </trkpt>
      <trkpt lat="25.5030960" lon="-100.7092840">
        <ele>2152.6</ele>
        <time>2022-08-20T14:30:52Z</time>
      </trkpt>
      <trkpt lat="25.5031310" lon="-100.7092130">
        <ele>2152.2</ele>
        <time>2022-08-20T14:30:53Z</time>
      </trkpt>
      <trkpt lat="25.5031560" lon="-100.7091440">
        <ele>2152.4</ele>
        <time>2022-08-20T14:30:54Z</time>
      </trkpt>
      <trkpt lat="25.5032250" lon="-100.7087810">
        <ele>2151.6</ele>
        <time>2022-08-20T14:30:59Z</time>
      </trkpt>
      <trkpt lat="25.5033810" lon="-100.7085100">
        <ele>2150.2</ele>
        <time>2022-08-20T14:31:03Z</time>
      </trkpt>
      <trkpt lat="25.5036000" lon="-100.7084030">
        <ele>2149.4</ele>
        <time>2022-08-20T14:31:06Z</time>
      </trkpt>
      <trkpt lat="25.5036820" lon="-100.7083700">
        <ele>2149.0</ele>
        <time>2022-08-20T14:31:07Z</time>
      </trkpt>
      <trkpt lat="25.5038260" lon="-100.7082800">
        <ele>2147.4</ele>
        <time>2022-08-20T14:31:09Z</time>
      </trkpt>
      <trkpt lat="25.5038870" lon="-100.7082320">
        <ele>2146.8</ele>
        <time>2022-08-20T14:31:10Z</time>
      </trkpt>
      <trkpt lat="25.5039440" lon="-100.7081880">
        <ele>2146.0</ele>
        <time>2022-08-20T14:31:11Z</time>
      </trkpt>
      <trkpt lat="25.5040490" lon="-100.7081160">
        <ele>2145.0</ele>
        <time>2022-08-20T14:31:13Z</time>
      </trkpt>
      <trkpt lat="25.5041440" lon="-100.7080590">
        <ele>2144.4</ele>
        <time>2022-08-20T14:31:15Z</time>
      </trkpt>
      <trkpt lat="25.5043710" lon="-100.7079390">
        <ele>2144.4</ele>
        <time>2022-08-20T14:31:21Z</time>
      </trkpt>
      <trkpt lat="25.5045280" lon="-100.7078170">
        <ele>2146.0</ele>
        <time>2022-08-20T14:31:27Z</time>
      </trkpt>
      <trkpt lat="25.5045470" lon="-100.7078010">
        <ele>2146.4</ele>
        <time>2022-08-20T14:31:28Z</time>
      </trkpt>
      <trkpt lat="25.5045780" lon="-100.7077670">
        <ele>2147.0</ele>
        <time>2022-08-20T14:31:30Z</time>
      </trkpt>
      <trkpt lat="25.5046150" lon="-100.7077230">
        <ele>2148.2</ele>
        <time>2022-08-20T14:31:33Z</time>
      </trkpt>
      <trkpt lat="25.5046450" lon="-100.7076850">
        <ele>2148.8</ele>
        <time>2022-08-20T14:31:35Z</time>
      </trkpt>
      <trkpt lat="25.5046620" lon="-100.7076660">
        <ele>2149.2</ele>
        <time>2022-08-20T14:31:36Z</time>
      </trkpt>
      <trkpt lat="25.5047050" lon="-100.7075970">
        <ele>2150.2</ele>
        <time>2022-08-20T14:31:40Z</time>
      </trkpt>
      <trkpt lat="25.5047260" lon="-100.7075360">
        <ele>2151.0</ele>
        <time>2022-08-20T14:31:44Z</time>
      </trkpt>
      <trkpt lat="25.5047390" lon="-100.7075030">
        <ele>2151.4</ele>
        <time>2022-08-20T14:31:46Z</time>
      </trkpt>
      <trkpt lat="25.5047760" lon="-100.7074000">
        <ele>2152.4</ele>
        <time>2022-08-20T14:31:52Z</time>
      </trkpt>
      <trkpt lat="25.5047810" lon="-100.7073770">
        <ele>2152.6</ele>
        <time>2022-08-20T14:31:53Z</time>
      </trkpt>
      <trkpt lat="25.5048100" lon="-100.7072590">
        <ele>2153.6</ele>
        <time>2022-08-20T14:31:58Z</time>
      </trkpt>
      <trkpt lat="25.5048450" lon="-100.7071720">
        <ele>2154.2</ele>
        <time>2022-08-20T14:32:03Z</time>
      </trkpt>
      <trkpt lat="25.5048670" lon="-100.7071210">
        <ele>2154.4</ele>
        <time>2022-08-20T14:32:06Z</time>
      </trkpt>
      <trkpt lat="25.5049190" lon="-100.7070290">
        <ele>2155.6</ele>
        <time>2022-08-20T14:32:11Z</time>
      </trkpt>
      <trkpt lat="25.5049280" lon="-100.7070050">
        <ele>2155.8</ele>
        <time>2022-08-20T14:32:12Z</time>
      </trkpt>
      <trkpt lat="25.5049720" lon="-100.7069110">
        <ele>2156.6</ele>
        <time>2022-08-20T14:32:16Z</time>
      </trkpt>
      <trkpt lat="25.5050340" lon="-100.7068110">
        <ele>2157.2</ele>
        <time>2022-08-20T14:32:20Z</time>
      </trkpt>
      <trkpt lat="25.5051050" lon="-100.7066940">
        <ele>2157.4</ele>
        <time>2022-08-20T14:32:24Z</time>
      </trkpt>
      <trkpt lat="25.5051810" lon="-100.7065380">
        <ele>2157.4</ele>
        <time>2022-08-20T14:32:28Z</time>
      </trkpt>
      <trkpt lat="25.5051970" lon="-100.7064900">
        <ele>2157.4</ele>
        <time>2022-08-20T14:32:29Z</time>
      </trkpt>
      <trkpt lat="25.5051990" lon="-100.7063340">
        <ele>2157.0</ele>
        <time>2022-08-20T14:32:32Z</time>
      </trkpt>
      <trkpt lat="25.5050630" lon="-100.7061800">
        <ele>2156.0</ele>
        <time>2022-08-20T14:32:35Z</time>
      </trkpt>
      <trkpt lat="25.5049930" lon="-100.7061240">
        <ele>2155.8</ele>
        <time>2022-08-20T14:32:36Z</time>
      </trkpt>
      <trkpt lat="25.5048530" lon="-100.7060130">
        <ele>2155.2</ele>
        <time>2022-08-20T14:32:38Z</time>
      </trkpt>
      <trkpt lat="25.5047320" lon="-100.7059000">
        <ele>2154.2</ele>
        <time>2022-08-20T14:32:40Z</time>
      </trkpt>
      <trkpt lat="25.5046320" lon="-100.7057700">
        <ele>2152.2</ele>
        <time>2022-08-20T14:32:42Z</time>
      </trkpt>
      <trkpt lat="25.5046000" lon="-100.7057000">
        <ele>2151.2</ele>
        <time>2022-08-20T14:32:43Z</time>
      </trkpt>
      <trkpt lat="25.5045790" lon="-100.7056280">
        <ele>2150.4</ele>
        <time>2022-08-20T14:32:44Z</time>
      </trkpt>
      <trkpt lat="25.5045640" lon="-100.7055610">
        <ele>2149.8</ele>
        <time>2022-08-20T14:32:45Z</time>
      </trkpt>
      <trkpt lat="25.5045540" lon="-100.7055010">
        <ele>2149.2</ele>
        <time>2022-08-20T14:32:46Z</time>
      </trkpt>
      <trkpt lat="25.5045440" lon="-100.7054030">
        <ele>2148.8</ele>
        <time>2022-08-20T14:32:48Z</time>
      </trkpt>
      <trkpt lat="25.5045480" lon="-100.7052880">
        <ele>2148.2</ele>
        <time>2022-08-20T14:32:52Z</time>
      </trkpt>
      <trkpt lat="25.5045330" lon="-100.7051140">
        <ele>2148.0</ele>
        <time>2022-08-20T14:32:59Z</time>
      </trkpt>
      <trkpt lat="25.5045990" lon="-100.7048100">
        <ele>2148.0</ele>
        <time>2022-08-20T14:33:07Z</time>
      </trkpt>
      <trkpt lat="25.5047090" lon="-100.7045200">
        <ele>2148.2</ele>
        <time>2022-08-20T14:33:16Z</time>
      </trkpt>
      <trkpt lat="25.5048340" lon="-100.7041250">
        <ele>2149.6</ele>
        <time>2022-08-20T14:33:27Z</time>
      </trkpt>
      <trkpt lat="25.5048540" lon="-100.7040630">
        <ele>2149.8</ele>
        <time>2022-08-20T14:33:29Z</time>
      </trkpt>
      <trkpt lat="25.5049600" lon="-100.7037980">
        <ele>2150.4</ele>
        <time>2022-08-20T14:33:37Z</time>
      </trkpt>
      <trkpt lat="25.5050060" lon="-100.7037090">
        <ele>2150.8</ele>
        <time>2022-08-20T14:33:40Z</time>
      </trkpt>
      <trkpt lat="25.5050790" lon="-100.7035540">
        <ele>2151.8</ele>
        <time>2022-08-20T14:33:45Z</time>
      </trkpt>
      <trkpt lat="25.5050870" lon="-100.7035140">
        <ele>2152.0</ele>
        <time>2022-08-20T14:33:46Z</time>
      </trkpt>
      <trkpt lat="25.5051060" lon="-100.7033140">
        <ele>2153.2</ele>
        <time>2022-08-20T14:33:51Z</time>
      </trkpt>
      <trkpt lat="25.5050930" lon="-100.7031720">
        <ele>2153.8</ele>
        <time>2022-08-20T14:33:55Z</time>
      </trkpt>
      <trkpt lat="25.5050830" lon="-100.7031020">
        <ele>2154.0</ele>
        <time>2022-08-20T14:33:57Z</time>
      </trkpt>
      <trkpt lat="25.5051110" lon="-100.7028600">
        <ele>2154.6</ele>
        <time>2022-08-20T14:34:04Z</time>
      </trkpt>
      <trkpt lat="25.5051840" lon="-100.7027390">
        <ele>2155.0</ele>
        <time>2022-08-20T14:34:08Z</time>
      </trkpt>
      <trkpt lat="25.5052500" lon="-100.7026520">
        <ele>2155.6</ele>
        <time>2022-08-20T14:34:11Z</time>
      </trkpt>
      <trkpt lat="25.5053550" lon="-100.7025080">
        <ele>2156.0</ele>
        <time>2022-08-20T14:34:16Z</time>
      </trkpt>
      <trkpt lat="25.5054300" lon="-100.7024330">
        <ele>2156.2</ele>
        <time>2022-08-20T14:34:19Z</time>
      </trkpt>
      <trkpt lat="25.5056490" lon="-100.7023280">
        <ele>2156.8</ele>
        <time>2022-08-20T14:34:25Z</time>
      </trkpt>
      <trkpt lat="25.5057110" lon="-100.7023200">
        <ele>2157.0</ele>
        <time>2022-08-20T14:34:27Z</time>
      </trkpt>
      <trkpt lat="25.5058700" lon="-100.7023210">
        <ele>2157.8</ele>
        <time>2022-08-20T14:34:32Z</time>
      </trkpt>
      <trkpt lat="25.5059640" lon="-100.7023200">
        <ele>2158.0</ele>
        <time>2022-08-20T14:34:34Z</time>
      </trkpt>
      <trkpt lat="25.5060390" lon="-100.7022740">
        <ele>2158.0</ele>
        <time>2022-08-20T14:34:36Z</time>
      </trkpt>
      <trkpt lat="25.5061420" lon="-100.7020940">
        <ele>2157.8</ele>
        <time>2022-08-20T14:34:40Z</time>
      </trkpt>
      <trkpt lat="25.5061600" lon="-100.7020550">
        <ele>2157.4</ele>
        <time>2022-08-20T14:34:41Z</time>
      </trkpt>
      <trkpt lat="25.5062360" lon="-100.7019050">
        <ele>2156.8</ele>
        <time>2022-08-20T14:34:46Z</time>
      </trkpt>
      <trkpt lat="25.5063120" lon="-100.7016700">
        <ele>2157.0</ele>
        <time>2022-08-20T14:34:56Z</time>
      </trkpt>
      <trkpt lat="25.5063370" lon="-100.7014980">
        <ele>2157.0</ele>
        <time>2022-08-20T14:35:02Z</time>
      </trkpt>
      <trkpt lat="25.5063420" lon="-100.7013950">
        <ele>2157.0</ele>
        <time>2022-08-20T14:35:05Z</time>
      </trkpt>
      <trkpt lat="25.5063390" lon="-100.7011160">
        <ele>2157.6</ele>
        <time>2022-08-20T14:35:14Z</time>
      </trkpt>
      <trkpt lat="25.5063570" lon="-100.7010120">
        <ele>2157.8</ele>
        <time>2022-08-20T14:35:17Z</time>
      </trkpt>
      <trkpt lat="25.5063960" lon="-100.7007940">
        <ele>2158.8</ele>
        <time>2022-08-20T14:35:23Z</time>
      </trkpt>
      <trkpt lat="25.5064050" lon="-100.7007600">
        <ele>2159.0</ele>
        <time>2022-08-20T14:35:24Z</time>
      </trkpt>
      <trkpt lat="25.5064400" lon="-100.7005480">
        <ele>2159.8</ele>
        <time>2022-08-20T14:35:30Z</time>
      </trkpt>
      <trkpt lat="25.5064780" lon="-100.7002930">
        <ele>2160.4</ele>
        <time>2022-08-20T14:35:37Z</time>
      </trkpt>
      <trkpt lat="25.5065000" lon="-100.7002260">
        <ele>2160.8</ele>
        <time>2022-08-20T14:35:39Z</time>
      </trkpt>
      <trkpt lat="25.5066020" lon="-100.7000040">
        <ele>2161.8</ele>
        <time>2022-08-20T14:35:46Z</time>
      </trkpt>
      <trkpt lat="25.5066970" lon="-100.6998640">
        <ele>2163.0</ele>
        <time>2022-08-20T14:35:51Z</time>
      </trkpt>
      <trkpt lat="25.5068190" lon="-100.6997050">
        <ele>2163.8</ele>
        <time>2022-08-20T14:35:56Z</time>
      </trkpt>
      <trkpt lat="25.5070690" lon="-100.6994420">
        <ele>2163.8</ele>
        <time>2022-08-20T14:36:04Z</time>
      </trkpt>
      <trkpt lat="25.5071020" lon="-100.6993370">
        <ele>2163.6</ele>
        <time>2022-08-20T14:36:06Z</time>
      </trkpt>
      <trkpt lat="25.5071180" lon="-100.6992320">
        <ele>2163.6</ele>
        <time>2022-08-20T14:36:08Z</time>
      </trkpt>
      <trkpt lat="25.5071660" lon="-100.6989340">
        <ele>2163.6</ele>
        <time>2022-08-20T14:36:15Z</time>
      </trkpt>
      <trkpt lat="25.5071450" lon="-100.6987960">
        <ele>2164.0</ele>
        <time>2022-08-20T14:36:20Z</time>
      </trkpt>
      <trkpt lat="25.5071320" lon="-100.6987700">
        <ele>2164.4</ele>
        <time>2022-08-20T14:36:21Z</time>
      </trkpt>
      <trkpt lat="25.5071160" lon="-100.6987470">
        <ele>2165.4</ele>
        <time>2022-08-20T14:36:22Z</time>
      </trkpt>
      <trkpt lat="25.5070080" lon="-100.6986580">
        <ele>2166.4</ele>
        <time>2022-08-20T14:36:26Z</time>
      </trkpt>
      <trkpt lat="25.5068980" lon="-100.6985580">
        <ele>2166.4</ele>
        <time>2022-08-20T14:36:30Z</time>
      </trkpt>
      <trkpt lat="25.5068250" lon="-100.6984920">
        <ele>2166.6</ele>
        <time>2022-08-20T14:36:33Z</time>
      </trkpt>
      <trkpt lat="25.5067380" lon="-100.6984050">
        <ele>2166.6</ele>
        <time>2022-08-20T14:36:39Z</time>
      </trkpt>
      <trkpt lat="25.5066910" lon="-100.6983390">
        <ele>2167.4</ele>
        <time>2022-08-20T14:36:42Z</time>
      </trkpt>
      <trkpt lat="25.5066520" lon="-100.6982600">
        <ele>2168.6</ele>
        <time>2022-08-20T14:36:46Z</time>
      </trkpt>
      <trkpt lat="25.5066310" lon="-100.6981900">
        <ele>2169.4</ele>
        <time>2022-08-20T14:36:49Z</time>
      </trkpt>
      <trkpt lat="25.5066260" lon="-100.6981690">
        <ele>2169.4</ele>
        <time>2022-08-20T14:36:50Z</time>
      </trkpt>
      <trkpt lat="25.5066080" lon="-100.6981100">
        <ele>2170.4</ele>
        <time>2022-08-20T14:36:53Z</time>
      </trkpt>
      <trkpt lat="25.5065830" lon="-100.6980390">
        <ele>2171.6</ele>
        <time>2022-08-20T14:36:57Z</time>
      </trkpt>
      <trkpt lat="25.5065550" lon="-100.6979760">
        <ele>2172.6</ele>
        <time>2022-08-20T14:37:01Z</time>
      </trkpt>
      <trkpt lat="25.5065490" lon="-100.6979620">
        <ele>2172.8</ele>
        <time>2022-08-20T14:37:02Z</time>
      </trkpt>
      <trkpt lat="25.5065360" lon="-100.6978500">
        <ele>2174.0</ele>
        <time>2022-08-20T14:37:07Z</time>
      </trkpt>
      <trkpt lat="25.5065470" lon="-100.6978040">
        <ele>2174.4</ele>
        <time>2022-08-20T14:37:09Z</time>
      </trkpt>
      <trkpt lat="25.5065930" lon="-100.6977210">
        <ele>2175.0</ele>
        <time>2022-08-20T14:37:13Z</time>
      </trkpt>
      <trkpt lat="25.5066500" lon="-100.6976830">
        <ele>2175.4</ele>
        <time>2022-08-20T14:37:16Z</time>
      </trkpt>
      <trkpt lat="25.5067770" lon="-100.6976800">
        <ele>2175.8</ele>
        <time>2022-08-20T14:37:22Z</time>
      </trkpt>
      <trkpt lat="25.5068100" lon="-100.6976840">
        <ele>2175.8</ele>
        <time>2022-08-20T14:37:24Z</time>
      </trkpt>
      <trkpt lat="25.5069170" lon="-100.6977110">
        <ele>2176.2</ele>
        <time>2022-08-20T14:37:31Z</time>
      </trkpt>
      <trkpt lat="25.5071030" lon="-100.6976890">
        <ele>2176.2</ele>
        <time>2022-08-20T14:37:40Z</time>
      </trkpt>
      <trkpt lat="25.5072730" lon="-100.6975840">
        <ele>2176.4</ele>
        <time>2022-08-20T14:37:48Z</time>
      </trkpt>
      <trkpt lat="25.5074080" lon="-100.6974250">
        <ele>2176.8</ele>
        <time>2022-08-20T14:37:56Z</time>
      </trkpt>
      <trkpt lat="25.5074390" lon="-100.6973860">
        <ele>2177.0</ele>
        <time>2022-08-20T14:37:58Z</time>
      </trkpt>
      <trkpt lat="25.5075800" lon="-100.6971990">
        <ele>2177.0</ele>
        <time>2022-08-20T14:38:07Z</time>
      </trkpt>
      <trkpt lat="25.5077000" lon="-100.6969810">
        <ele>2177.2</ele>
        <time>2022-08-20T14:38:15Z</time>
      </trkpt>
      <trkpt lat="25.5078000" lon="-100.6967350">
        <ele>2177.6</ele>
        <time>2022-08-20T14:38:23Z</time>
      </trkpt>
      <trkpt lat="25.5078290" lon="-100.6966710">
        <ele>2177.6</ele>
        <time>2022-08-20T14:38:25Z</time>
      </trkpt>
      <trkpt lat="25.5079200" lon="-100.6964560">
        <ele>2178.8</ele>
        <time>2022-08-20T14:38:32Z</time>
      </trkpt>
      <trkpt lat="25.5079670" lon="-100.6963650">
        <ele>2179.8</ele>
        <time>2022-08-20T14:38:35Z</time>
      </trkpt>
      <trkpt lat="25.5080090" lon="-100.6962890">
        <ele>2181.4</ele>
        <time>2022-08-20T14:38:38Z</time>
      </trkpt>
      <trkpt lat="25.5080380" lon="-100.6962410">
        <ele>2182.0</ele>
        <time>2022-08-20T14:38:40Z</time>
      </trkpt>
      <trkpt lat="25.5080510" lon="-100.6962210">
        <ele>2182.2</ele>
        <time>2022-08-20T14:38:41Z</time>
      </trkpt>
      <trkpt lat="25.5080960" lon="-100.6961270">
        <ele>2183.4</ele>
        <time>2022-08-20T14:38:46Z</time>
      </trkpt>
      <trkpt lat="25.5080990" lon="-100.6960740">
        <ele>2183.8</ele>
        <time>2022-08-20T14:38:48Z</time>
      </trkpt>
      <trkpt lat="25.5081060" lon="-100.6960230">
        <ele>2184.6</ele>
        <time>2022-08-20T14:38:50Z</time>
      </trkpt>
      <trkpt lat="25.5081180" lon="-100.6959620">
        <ele>2185.6</ele>
        <time>2022-08-20T14:38:53Z</time>
      </trkpt>
      <trkpt lat="25.5081440" lon="-100.6958810">
        <ele>2186.8</ele>
        <time>2022-08-20T14:38:57Z</time>
      </trkpt>
      <trkpt lat="25.5082030" lon="-100.6957800">
        <ele>2187.8</ele>
        <time>2022-08-20T14:39:02Z</time>
      </trkpt>
      <trkpt lat="25.5082610" lon="-100.6956840">
        <ele>2188.6</ele>
        <time>2022-08-20T14:39:08Z</time>
      </trkpt>
      <trkpt lat="25.5082900" lon="-100.6956430">
        <ele>2188.8</ele>
        <time>2022-08-20T14:39:11Z</time>
      </trkpt>
      <trkpt lat="25.5083820" lon="-100.6955450">
        <ele>2189.8</ele>
        <time>2022-08-20T14:39:19Z</time>
      </trkpt>
      <trkpt lat="25.5083960" lon="-100.6955340">
        <ele>2190.0</ele>
        <time>2022-08-20T14:39:20Z</time>
      </trkpt>
      <trkpt lat="25.5084960" lon="-100.6954230">
        <ele>2190.8</ele>
        <time>2022-08-20T14:39:27Z</time>
      </trkpt>
      <trkpt lat="25.5085100" lon="-100.6954060">
        <ele>2190.8</ele>
        <time>2022-08-20T14:39:28Z</time>
      </trkpt>
      <trkpt lat="25.5086250" lon="-100.6952940">
        <ele>2191.6</ele>
        <time>2022-08-20T14:39:36Z</time>
      </trkpt>
      <trkpt lat="25.5086810" lon="-100.6952610">
        <ele>2191.8</ele>
        <time>2022-08-20T14:39:39Z</time>
      </trkpt>
      <trkpt lat="25.5087400" lon="-100.6951960">
        <ele>2192.0</ele>
        <time>2022-08-20T14:39:43Z</time>
      </trkpt>
      <trkpt lat="25.5087940" lon="-100.6951240">
        <ele>2192.8</ele>
        <time>2022-08-20T14:39:49Z</time>
      </trkpt>
      <trkpt lat="25.5088210" lon="-100.6951030">
        <ele>2193.0</ele>
        <time>2022-08-20T14:39:51Z</time>
      </trkpt>
      <trkpt lat="25.5089170" lon="-100.6950070">
        <ele>2193.8</ele>
        <time>2022-08-20T14:39:59Z</time>
      </trkpt>
      <trkpt lat="25.5089250" lon="-100.6949910">
        <ele>2194.0</ele>
        <time>2022-08-20T14:40:00Z</time>
      </trkpt>
      <trkpt lat="25.5089780" lon="-100.6949560">
        <ele>2195.0</ele>
        <time>2022-08-20T14:40:06Z</time>
      </trkpt>
      <trkpt lat="25.5090040" lon="-100.6949320">
        <ele>2195.6</ele>
        <time>2022-08-20T14:40:09Z</time>
      </trkpt>
      <trkpt lat="25.5090230" lon="-100.6949070">
        <ele>2195.8</ele>
        <time>2022-08-20T14:40:11Z</time>
      </trkpt>
      <trkpt lat="25.5090400" lon="-100.6948810">
        <ele>2197.0</ele>
        <time>2022-08-20T14:40:16Z</time>
      </trkpt>
      <trkpt lat="25.5090610" lon="-100.6948340">
        <ele>2197.8</ele>
        <time>2022-08-20T14:40:21Z</time>
      </trkpt>
      <trkpt lat="25.5090740" lon="-100.6948250">
        <ele>2198.0</ele>
        <time>2022-08-20T14:40:22Z</time>
      </trkpt>
      <trkpt lat="25.5091110" lon="-100.6947770">
        <ele>2199.0</ele>
        <time>2022-08-20T14:40:27Z</time>
      </trkpt>
      <trkpt lat="25.5091380" lon="-100.6947300">
        <ele>2199.6</ele>
        <time>2022-08-20T14:40:30Z</time>
      </trkpt>
      <trkpt lat="25.5091540" lon="-100.6947130">
        <ele>2200.0</ele>
        <time>2022-08-20T14:40:32Z</time>
      </trkpt>
      <trkpt lat="25.5092130" lon="-100.6946620">
        <ele>2201.4</ele>
        <time>2022-08-20T14:40:37Z</time>
      </trkpt>
      <trkpt lat="25.5092440" lon="-100.6946310">
        <ele>2201.8</ele>
        <time>2022-08-20T14:40:39Z</time>
      </trkpt>
      <trkpt lat="25.5092830" lon="-100.6945730">
        <ele>2202.4</ele>
        <time>2022-08-20T14:40:43Z</time>
      </trkpt>
      <trkpt lat="25.5093350" lon="-100.6944810">
        <ele>2203.0</ele>
        <time>2022-08-20T14:40:48Z</time>
      </trkpt>
      <trkpt lat="25.5093560" lon="-100.6944240">
        <ele>2203.6</ele>
        <time>2022-08-20T14:40:51Z</time>
      </trkpt>
      <trkpt lat="25.5094020" lon="-100.6942980">
        <ele>2204.0</ele>
        <time>2022-08-20T14:40:56Z</time>
      </trkpt>
      <trkpt lat="25.5095020" lon="-100.6940570">
        <ele>2204.2</ele>
        <time>2022-08-20T14:41:04Z</time>
      </trkpt>
      <trkpt lat="25.5095870" lon="-100.6938430">
        <ele>2204.2</ele>
        <time>2022-08-20T14:41:12Z</time>
      </trkpt>
      <trkpt lat="25.5096200" lon="-100.6936250">
        <ele>2204.0</ele>
        <time>2022-08-20T14:41:19Z</time>
      </trkpt>
      <trkpt lat="25.5095870" lon="-100.6933910">
        <ele>2203.8</ele>
        <time>2022-08-20T14:41:24Z</time>
      </trkpt>
      <trkpt lat="25.5095540" lon="-100.6930300">
        <ele>2202.8</ele>
        <time>2022-08-20T14:41:29Z</time>
      </trkpt>
      <trkpt lat="25.5095250" lon="-100.6928910">
        <ele>2201.8</ele>
        <time>2022-08-20T14:41:31Z</time>
      </trkpt>
      <trkpt lat="25.5094950" lon="-100.6927820">
        <ele>2200.8</ele>
        <time>2022-08-20T14:41:33Z</time>
      </trkpt>
      <trkpt lat="25.5094850" lon="-100.6927380">
        <ele>2200.0</ele>
        <time>2022-08-20T14:41:34Z</time>
      </trkpt>
      <trkpt lat="25.5094710" lon="-100.6926480">
        <ele>2198.6</ele>
        <time>2022-08-20T14:41:36Z</time>
      </trkpt>
      <trkpt lat="25.5094600" lon="-100.6924940">
        <ele>2197.2</ele>
        <time>2022-08-20T14:41:39Z</time>
      </trkpt>
      <trkpt lat="25.5094630" lon="-100.6924450">
        <ele>2197.2</ele>
        <time>2022-08-20T14:41:40Z</time>
      </trkpt>
      <trkpt lat="25.5095430" lon="-100.6922070">
        <ele>2197.0</ele>
        <time>2022-08-20T14:41:47Z</time>
      </trkpt>
      <trkpt lat="25.5097050" lon="-100.6919890">
        <ele>2196.8</ele>
        <time>2022-08-20T14:41:55Z</time>
      </trkpt>
      <trkpt lat="25.5097560" lon="-100.6918640">
        <ele>2197.0</ele>
        <time>2022-08-20T14:42:01Z</time>
      </trkpt>
      <trkpt lat="25.5097740" lon="-100.6917930">
        <ele>2198.4</ele>
        <time>2022-08-20T14:42:05Z</time>
      </trkpt>
      <trkpt lat="25.5098030" lon="-100.6917140">
        <ele>2199.6</ele>
        <time>2022-08-20T14:42:09Z</time>
      </trkpt>
      <trkpt lat="25.5098290" lon="-100.6916430">
        <ele>2200.0</ele>
        <time>2022-08-20T14:42:12Z</time>
      </trkpt>
      <trkpt lat="25.5098460" lon="-100.6915790">
        <ele>2200.6</ele>
        <time>2022-08-20T14:42:15Z</time>
      </trkpt>
      <trkpt lat="25.5098770" lon="-100.6914670">
        <ele>2201.2</ele>
        <time>2022-08-20T14:42:21Z</time>
      </trkpt>
      <trkpt lat="25.5098930" lon="-100.6914180">
        <ele>2201.6</ele>
        <time>2022-08-20T14:42:24Z</time>
      </trkpt>
      <trkpt lat="25.5099130" lon="-100.6913560">
        <ele>2202.6</ele>
        <time>2022-08-20T14:42:29Z</time>
      </trkpt>
      <trkpt lat="25.5099200" lon="-100.6913230">
        <ele>2202.8</ele>
        <time>2022-08-20T14:42:31Z</time>
      </trkpt>
      <trkpt lat="25.5099260" lon="-100.6912570">
        <ele>2203.6</ele>
        <time>2022-08-20T14:42:35Z</time>
      </trkpt>
      <trkpt lat="25.5099320" lon="-100.6911790">
        <ele>2204.8</ele>
        <time>2022-08-20T14:42:40Z</time>
      </trkpt>
      <trkpt lat="25.5099320" lon="-100.6911390">
        <ele>2205.2</ele>
        <time>2022-08-20T14:42:42Z</time>
      </trkpt>
      <trkpt lat="25.5099330" lon="-100.6910830">
        <ele>2206.0</ele>
        <time>2022-08-20T14:42:45Z</time>
      </trkpt>
      <trkpt lat="25.5099450" lon="-100.6909650">
        <ele>2207.2</ele>
        <time>2022-08-20T14:42:51Z</time>
      </trkpt>
      <trkpt lat="25.5099530" lon="-100.6909510">
        <ele>2207.4</ele>
        <time>2022-08-20T14:42:52Z</time>
      </trkpt>
      <trkpt lat="25.5099790" lon="-100.6908940">
        <ele>2208.4</ele>
        <time>2022-08-20T14:42:56Z</time>
      </trkpt>
      <trkpt lat="25.5100060" lon="-100.6908270">
        <ele>2209.2</ele>
        <time>2022-08-20T14:43:00Z</time>
      </trkpt>
      <trkpt lat="25.5100080" lon="-100.6907990">
        <ele>2210.0</ele>
        <time>2022-08-20T14:43:02Z</time>
      </trkpt>
      <trkpt lat="25.5100190" lon="-100.6907750">
        <ele>2210.4</ele>
        <time>2022-08-20T14:43:04Z</time>
      </trkpt>
      <trkpt lat="25.5100450" lon="-100.6906940">
        <ele>2211.6</ele>
        <time>2022-08-20T14:43:09Z</time>
      </trkpt>
      <trkpt lat="25.5100660" lon="-100.6906520">
        <ele>2212.2</ele>
        <time>2022-08-20T14:43:12Z</time>
      </trkpt>
      <trkpt lat="25.5100720" lon="-100.6906400">
        <ele>2212.6</ele>
        <time>2022-08-20T14:43:13Z</time>
      </trkpt>
      <trkpt lat="25.5100950" lon="-100.6906130">
        <ele>2213.6</ele>
        <time>2022-08-20T14:43:16Z</time>
      </trkpt>
      <trkpt lat="25.5101120" lon="-100.6905470">
        <ele>2214.4</ele>
        <time>2022-08-20T14:43:20Z</time>
      </trkpt>
      <trkpt lat="25.5101150" lon="-100.6905250">
        <ele>2214.8</ele>
        <time>2022-08-20T14:43:21Z</time>
      </trkpt>
      <trkpt lat="25.5101560" lon="-100.6903600">
        <ele>2215.6</ele>
        <time>2022-08-20T14:43:27Z</time>
      </trkpt>
      <trkpt lat="25.5101640" lon="-100.6903320">
        <ele>2215.6</ele>
        <time>2022-08-20T14:43:28Z</time>
      </trkpt>
      <trkpt lat="25.5102090" lon="-100.6901400">
        <ele>2215.8</ele>
        <time>2022-08-20T14:43:36Z</time>
      </trkpt>
      <trkpt lat="25.5101480" lon="-100.6899360">
        <ele>2215.8</ele>
        <time>2022-08-20T14:43:43Z</time>
      </trkpt>
      <trkpt lat="25.5101050" lon="-100.6897490">
        <ele>2215.8</ele>
        <time>2022-08-20T14:43:49Z</time>
      </trkpt>
      <trkpt lat="25.5100740" lon="-100.6896550">
        <ele>2216.6</ele>
        <time>2022-08-20T14:43:53Z</time>
      </trkpt>
      <trkpt lat="25.5100510" lon="-100.6895630">
        <ele>2217.2</ele>
        <time>2022-08-20T14:43:56Z</time>
      </trkpt>
      <trkpt lat="25.5100370" lon="-100.6894900">
        <ele>2217.6</ele>
        <time>2022-08-20T14:43:58Z</time>
      </trkpt>
      <trkpt lat="25.5100230" lon="-100.6893120">
        <ele>2218.6</ele>
        <time>2022-08-20T14:44:03Z</time>
      </trkpt>
      <trkpt lat="25.5100200" lon="-100.6892750">
        <ele>2218.8</ele>
        <time>2022-08-20T14:44:04Z</time>
      </trkpt>
      <trkpt lat="25.5100080" lon="-100.6889940">
        <ele>2219.2</ele>
        <time>2022-08-20T14:44:12Z</time>
      </trkpt>
      <trkpt lat="25.5100460" lon="-100.6886520">
        <ele>2219.2</ele>
        <time>2022-08-20T14:44:20Z</time>
      </trkpt>
      <trkpt lat="25.5100270" lon="-100.6885150">
        <ele>2219.0</ele>
        <time>2022-08-20T14:44:23Z</time>
      </trkpt>
      <trkpt lat="25.5099900" lon="-100.6883930">
        <ele>2218.8</ele>
        <time>2022-08-20T14:44:25Z</time>
      </trkpt>
      <trkpt lat="25.5098160" lon="-100.6880490">
        <ele>2217.4</ele>
        <time>2022-08-20T14:44:30Z</time>
      </trkpt>
      <trkpt lat="25.5097170" lon="-100.6878800">
        <ele>2216.4</ele>
        <time>2022-08-20T14:44:32Z</time>
      </trkpt>
      <trkpt lat="25.5096810" lon="-100.6877980">
        <ele>2215.2</ele>
        <time>2022-08-20T14:44:33Z</time>
      </trkpt>
      <trkpt lat="25.5096630" lon="-100.6877110">
        <ele>2214.2</ele>
        <time>2022-08-20T14:44:34Z</time>
      </trkpt>
      <trkpt lat="25.5096660" lon="-100.6876110">
        <ele>2213.2</ele>
        <time>2022-08-20T14:44:35Z</time>
      </trkpt>
      <trkpt lat="25.5096860" lon="-100.6875070">
        <ele>2212.0</ele>
        <time>2022-08-20T14:44:36Z</time>
      </trkpt>
      <trkpt lat="25.5097180" lon="-100.6874160">
        <ele>2210.8</ele>
        <time>2022-08-20T14:44:37Z</time>
      </trkpt>
      <trkpt lat="25.5097590" lon="-100.6873460">
        <ele>2209.4</ele>
        <time>2022-08-20T14:44:38Z</time>
      </trkpt>
      <trkpt lat="25.5098000" lon="-100.6872830">
        <ele>2208.2</ele>
        <time>2022-08-20T14:44:39Z</time>
      </trkpt>
      <trkpt lat="25.5098360" lon="-100.6872270">
        <ele>2207.0</ele>
        <time>2022-08-20T14:44:40Z</time>
      </trkpt>
      <trkpt lat="25.5098720" lon="-100.6871720">
        <ele>2206.0</ele>
        <time>2022-08-20T14:44:41Z</time>
      </trkpt>
      <trkpt lat="25.5099080" lon="-100.6871140">
        <ele>2204.8</ele>
        <time>2022-08-20T14:44:42Z</time>
      </trkpt>
      <trkpt lat="25.5099690" lon="-100.6870130">
        <ele>2203.0</ele>
        <time>2022-08-20T14:44:44Z</time>
      </trkpt>
      <trkpt lat="25.5100100" lon="-100.6869170">
        <ele>2201.2</ele>
        <time>2022-08-20T14:44:46Z</time>
      </trkpt>
      <trkpt lat="25.5100850" lon="-100.6867170">
        <ele>2200.4</ele>
        <time>2022-08-20T14:44:52Z</time>
      </trkpt>
      <trkpt lat="25.5101180" lon="-100.6865670">
        <ele>2202.2</ele>
        <time>2022-08-20T14:44:59Z</time>
      </trkpt>
      <trkpt lat="25.5101210" lon="-100.6865460">
        <ele>2202.4</ele>
        <time>2022-08-20T14:45:00Z</time>
      </trkpt>
      <trkpt lat="25.5101320" lon="-100.6864800">
        <ele>2203.6</ele>
        <time>2022-08-20T14:45:04Z</time>
      </trkpt>
      <trkpt lat="25.5101330" lon="-100.6864360">
        <ele>2204.2</ele>
        <time>2022-08-20T14:45:07Z</time>
      </trkpt>
      <trkpt lat="25.5101320" lon="-100.6863970">
        <ele>2204.8</ele>
        <time>2022-08-20T14:45:10Z</time>
      </trkpt>
      <trkpt lat="25.5101400" lon="-100.6863540">
        <ele>2205.8</ele>
        <time>2022-08-20T14:45:14Z</time>
      </trkpt>
      <trkpt lat="25.5101440" lon="-100.6863250">
        <ele>2206.2</ele>
        <time>2022-08-20T14:45:16Z</time>
      </trkpt>
      <trkpt lat="25.5101500" lon="-100.6862840">
        <ele>2206.8</ele>
        <time>2022-08-20T14:45:19Z</time>
      </trkpt>
      <trkpt lat="25.5101570" lon="-100.6862100">
        <ele>2207.8</ele>
        <time>2022-08-20T14:45:24Z</time>
      </trkpt>
      <trkpt lat="25.5101610" lon="-100.6861940">
        <ele>2208.0</ele>
        <time>2022-08-20T14:45:25Z</time>
      </trkpt>
      <trkpt lat="25.5101780" lon="-100.6861340">
        <ele>2209.0</ele>
        <time>2022-08-20T14:45:29Z</time>
      </trkpt>
      <trkpt lat="25.5101800" lon="-100.6860900">
        <ele>2209.6</ele>
        <time>2022-08-20T14:45:32Z</time>
      </trkpt>
      <trkpt lat="25.5101760" lon="-100.6860350">
        <ele>2210.2</ele>
        <time>2022-08-20T14:45:35Z</time>
      </trkpt>
      <trkpt lat="25.5101800" lon="-100.6859480">
        <ele>2211.2</ele>
        <time>2022-08-20T14:45:40Z</time>
      </trkpt>
      <trkpt lat="25.5101840" lon="-100.6859270">
        <ele>2211.4</ele>
        <time>2022-08-20T14:45:41Z</time>
      </trkpt>
      <trkpt lat="25.5101920" lon="-100.6858570">
        <ele>2212.4</ele>
        <time>2022-08-20T14:45:45Z</time>
      </trkpt>
      <trkpt lat="25.5101850" lon="-100.6857890">
        <ele>2212.8</ele>
        <time>2022-08-20T14:45:49Z</time>
      </trkpt>
      <trkpt lat="25.5101780" lon="-100.6857420">
        <ele>2213.2</ele>
        <time>2022-08-20T14:45:51Z</time>
      </trkpt>
      <trkpt lat="25.5101460" lon="-100.6856610">
        <ele>2214.2</ele>
        <time>2022-08-20T14:45:56Z</time>
      </trkpt>
      <trkpt lat="25.5101430" lon="-100.6855990">
        <ele>2214.6</ele>
        <time>2022-08-20T14:45:59Z</time>
      </trkpt>
      <trkpt lat="25.5101570" lon="-100.6854790">
        <ele>2215.4</ele>
        <time>2022-08-20T14:46:05Z</time>
      </trkpt>
      <trkpt lat="25.5101560" lon="-100.6854110">
        <ele>2216.2</ele>
        <time>2022-08-20T14:46:09Z</time>
      </trkpt>
      <trkpt lat="25.5101520" lon="-100.6853900">
        <ele>2216.4</ele>
        <time>2022-08-20T14:46:10Z</time>
      </trkpt>
      <trkpt lat="25.5101290" lon="-100.6852830">
        <ele>2217.4</ele>
        <time>2022-08-20T14:46:15Z</time>
      </trkpt>
      <trkpt lat="25.5101190" lon="-100.6852670">
        <ele>2217.8</ele>
        <time>2022-08-20T14:46:16Z</time>
      </trkpt>
      <trkpt lat="25.5101040" lon="-100.6852450">
        <ele>2218.4</ele>
        <time>2022-08-20T14:46:18Z</time>
      </trkpt>
      <trkpt lat="25.5100760" lon="-100.6851820">
        <ele>2219.4</ele>
        <time>2022-08-20T14:46:22Z</time>
      </trkpt>
      <trkpt lat="25.5100620" lon="-100.6851400">
        <ele>2220.2</ele>
        <time>2022-08-20T14:46:25Z</time>
      </trkpt>
      <trkpt lat="25.5100570" lon="-100.6851300">
        <ele>2220.6</ele>
        <time>2022-08-20T14:46:26Z</time>
      </trkpt>
      <trkpt lat="25.5100060" lon="-100.6850770">
        <ele>2221.4</ele>
        <time>2022-08-20T14:46:32Z</time>
      </trkpt>
      <trkpt lat="25.5099890" lon="-100.6850610">
        <ele>2222.0</ele>
        <time>2022-08-20T14:46:34Z</time>
      </trkpt>
      <trkpt lat="25.5099490" lon="-100.6850370">
        <ele>2222.8</ele>
        <time>2022-08-20T14:46:37Z</time>
      </trkpt>
      <trkpt lat="25.5098520" lon="-100.6850210">
        <ele>2224.0</ele>
        <time>2022-08-20T14:46:43Z</time>
      </trkpt>
      <trkpt lat="25.5097480" lon="-100.6850130">
        <ele>2225.0</ele>
        <time>2022-08-20T14:46:49Z</time>
      </trkpt>
      <trkpt lat="25.5096840" lon="-100.6850000">
        <ele>2226.0</ele>
        <time>2022-08-20T14:46:53Z</time>
      </trkpt>
      <trkpt lat="25.5096540" lon="-100.6849880">
        <ele>2226.2</ele>
        <time>2022-08-20T14:46:55Z</time>
      </trkpt>
      <trkpt lat="25.5095790" lon="-100.6849190">
        <ele>2227.0</ele>
        <time>2022-08-20T14:47:01Z</time>
      </trkpt>
      <trkpt lat="25.5095670" lon="-100.6849040">
        <ele>2227.2</ele>
        <time>2022-08-20T14:47:02Z</time>
      </trkpt>
      <trkpt lat="25.5094660" lon="-100.6847290">
        <ele>2227.8</ele>
        <time>2022-08-20T14:47:12Z</time>
      </trkpt>
      <trkpt lat="25.5094200" lon="-100.6846230">
        <ele>2228.2</ele>
        <time>2022-08-20T14:47:17Z</time>
      </trkpt>
      <trkpt lat="25.5093750" lon="-100.6845110">
        <ele>2228.6</ele>
        <time>2022-08-20T14:47:22Z</time>
      </trkpt>
      <trkpt lat="25.5093280" lon="-100.6843380">
        <ele>2229.0</ele>
        <time>2022-08-20T14:47:29Z</time>
      </trkpt>
      <trkpt lat="25.5093100" lon="-100.6842970">
        <ele>2229.0</ele>
        <time>2022-08-20T14:47:31Z</time>
      </trkpt>
      <trkpt lat="25.5092660" lon="-100.6841310">
        <ele>2230.0</ele>
        <time>2022-08-20T14:47:39Z</time>
      </trkpt>
      <trkpt lat="25.5092060" lon="-100.6839520">
        <ele>2231.0</ele>
        <time>2022-08-20T14:47:48Z</time>
      </trkpt>
      <trkpt lat="25.5091990" lon="-100.6839300">
        <ele>2231.2</ele>
        <time>2022-08-20T14:47:49Z</time>
      </trkpt>
      <trkpt lat="25.5091560" lon="-100.6837730">
        <ele>2232.2</ele>
        <time>2022-08-20T14:47:56Z</time>
      </trkpt>
      <trkpt lat="25.5091280" lon="-100.6836850">
        <ele>2232.8</ele>
        <time>2022-08-20T14:48:00Z</time>
      </trkpt>
      <trkpt lat="25.5091090" lon="-100.6836220">
        <ele>2233.4</ele>
        <time>2022-08-20T14:48:03Z</time>
      </trkpt>
      <trkpt lat="25.5090670" lon="-100.6834990">
        <ele>2234.4</ele>
        <time>2022-08-20T14:48:09Z</time>
      </trkpt>
      <trkpt lat="25.5090090" lon="-100.6833010">
        <ele>2235.2</ele>
        <time>2022-08-20T14:48:17Z</time>
      </trkpt>
      <trkpt lat="25.5089830" lon="-100.6832220">
        <ele>2235.6</ele>
        <time>2022-08-20T14:48:20Z</time>
      </trkpt>
      <trkpt lat="25.5089310" lon="-100.6830670">
        <ele>2236.0</ele>
        <time>2022-08-20T14:48:27Z</time>
      </trkpt>
      <trkpt lat="25.5088990" lon="-100.6829070">
        <ele>2236.6</ele>
        <time>2022-08-20T14:48:33Z</time>
      </trkpt>
      <trkpt lat="25.5088950" lon="-100.6828890">
        <ele>2236.6</ele>
        <time>2022-08-20T14:48:34Z</time>
      </trkpt>
      <trkpt lat="25.5088340" lon="-100.6827100">
        <ele>2237.6</ele>
        <time>2022-08-20T14:48:42Z</time>
      </trkpt>
      <trkpt lat="25.5088270" lon="-100.6826920">
        <ele>2237.8</ele>
        <time>2022-08-20T14:48:43Z</time>
      </trkpt>
      <trkpt lat="25.5087650" lon="-100.6825930">
        <ele>2238.8</ele>
        <time>2022-08-20T14:48:49Z</time>
      </trkpt>
      <trkpt lat="25.5087550" lon="-100.6825780">
        <ele>2238.8</ele>
        <time>2022-08-20T14:48:50Z</time>
      </trkpt>
      <trkpt lat="25.5086700" lon="-100.6824510">
        <ele>2239.8</ele>
        <time>2022-08-20T14:48:57Z</time>
      </trkpt>
      <trkpt lat="25.5086600" lon="-100.6824350">
        <ele>2239.8</ele>
        <time>2022-08-20T14:48:58Z</time>
      </trkpt>
      <trkpt lat="25.5085740" lon="-100.6823580">
        <ele>2241.0</ele>
        <time>2022-08-20T14:49:04Z</time>
      </trkpt>
      <trkpt lat="25.5085560" lon="-100.6823500">
        <ele>2241.4</ele>
        <time>2022-08-20T14:49:05Z</time>
      </trkpt>
      <trkpt lat="25.5084830" lon="-100.6823120">
        <ele>2242.2</ele>
        <time>2022-08-20T14:49:09Z</time>
      </trkpt>
      <trkpt lat="25.5083620" lon="-100.6822600">
        <ele>2243.2</ele>
        <time>2022-08-20T14:49:15Z</time>
      </trkpt>
      <trkpt lat="25.5083040" lon="-100.6822080">
        <ele>2243.6</ele>
        <time>2022-08-20T14:49:18Z</time>
      </trkpt>
      <trkpt lat="25.5082190" lon="-100.6821300">
        <ele>2244.2</ele>
        <time>2022-08-20T14:49:23Z</time>
      </trkpt>
      <trkpt lat="25.5081580" lon="-100.6820830">
        <ele>2244.8</ele>
        <time>2022-08-20T14:49:27Z</time>
      </trkpt>
      <trkpt lat="25.5080990" lon="-100.6820310">
        <ele>2245.2</ele>
        <time>2022-08-20T14:49:31Z</time>
      </trkpt>
      <trkpt lat="25.5080390" lon="-100.6819870">
        <ele>2245.4</ele>
        <time>2022-08-20T14:49:34Z</time>
      </trkpt>
      <trkpt lat="25.5079070" lon="-100.6818930">
        <ele>2246.2</ele>
        <time>2022-08-20T14:49:42Z</time>
      </trkpt>
      <trkpt lat="25.5078910" lon="-100.6818740">
        <ele>2246.2</ele>
        <time>2022-08-20T14:49:43Z</time>
      </trkpt>
      <trkpt lat="25.5077330" lon="-100.6817680">
        <ele>2247.0</ele>
        <time>2022-08-20T14:49:52Z</time>
      </trkpt>
      <trkpt lat="25.5076980" lon="-100.6817540">
        <ele>2247.2</ele>
        <time>2022-08-20T14:49:54Z</time>
      </trkpt>
      <trkpt lat="25.5075760" lon="-100.6816690">
        <ele>2248.2</ele>
        <time>2022-08-20T14:50:00Z</time>
      </trkpt>
      <trkpt lat="25.5074000" lon="-100.6815730">
        <ele>2249.2</ele>
        <time>2022-08-20T14:50:09Z</time>
      </trkpt>
      <trkpt lat="25.5073810" lon="-100.6815660">
        <ele>2249.2</ele>
        <time>2022-08-20T14:50:10Z</time>
      </trkpt>
      <trkpt lat="25.5073070" lon="-100.6815310">
        <ele>2250.2</ele>
        <time>2022-08-20T14:50:14Z</time>
      </trkpt>
      <trkpt lat="25.5072300" lon="-100.6814750">
        <ele>2250.4</ele>
        <time>2022-08-20T14:50:18Z</time>
      </trkpt>
      <trkpt lat="25.5071380" lon="-100.6814040">
        <ele>2251.2</ele>
        <time>2022-08-20T14:50:22Z</time>
      </trkpt>
      <trkpt lat="25.5070410" lon="-100.6813520">
        <ele>2251.6</ele>
        <time>2022-08-20T14:50:26Z</time>
      </trkpt>
      <trkpt lat="25.5069970" lon="-100.6813360">
        <ele>2252.2</ele>
        <time>2022-08-20T14:50:28Z</time>
      </trkpt>
      <trkpt lat="25.5069140" lon="-100.6812770">
        <ele>2252.8</ele>
        <time>2022-08-20T14:50:32Z</time>
      </trkpt>
      <trkpt lat="25.5068300" lon="-100.6812410">
        <ele>2253.2</ele>
        <time>2022-08-20T14:50:36Z</time>
      </trkpt>
      <trkpt lat="25.5067680" lon="-100.6812030">
        <ele>2253.6</ele>
        <time>2022-08-20T14:50:39Z</time>
      </trkpt>
      <trkpt lat="25.5066680" lon="-100.6811490">
        <ele>2254.2</ele>
        <time>2022-08-20T14:50:44Z</time>
      </trkpt>
      <trkpt lat="25.5066000" lon="-100.6810800">
        <ele>2254.6</ele>
        <time>2022-08-20T14:50:48Z</time>
      </trkpt>
      <trkpt lat="25.5065050" lon="-100.6809450">
        <ele>2254.8</ele>
        <time>2022-08-20T14:50:55Z</time>
      </trkpt>
      <trkpt lat="25.5064890" lon="-100.6809030">
        <ele>2255.2</ele>
        <time>2022-08-20T14:50:57Z</time>
      </trkpt>
      <trkpt lat="25.5064450" lon="-100.6807950">
        <ele>2256.2</ele>
        <time>2022-08-20T14:51:02Z</time>
      </trkpt>
      <trkpt lat="25.5064180" lon="-100.6806390">
        <ele>2257.4</ele>
        <time>2022-08-20T14:51:08Z</time>
      </trkpt>
      <trkpt lat="25.5064190" lon="-100.6805670">
        <ele>2257.6</ele>
        <time>2022-08-20T14:51:11Z</time>
      </trkpt>
      <trkpt lat="25.5064250" lon="-100.6804350">
        <ele>2258.4</ele>
        <time>2022-08-20T14:51:17Z</time>
      </trkpt>
      <trkpt lat="25.5064100" lon="-100.6803490">
        <ele>2259.0</ele>
        <time>2022-08-20T14:51:21Z</time>
      </trkpt>
      <trkpt lat="25.5063940" lon="-100.6802600">
        <ele>2259.6</ele>
        <time>2022-08-20T14:51:25Z</time>
      </trkpt>
      <trkpt lat="25.5063690" lon="-100.6801740">
        <ele>2260.2</ele>
        <time>2022-08-20T14:51:29Z</time>
      </trkpt>
      <trkpt lat="25.5063430" lon="-100.6800900">
        <ele>2260.6</ele>
        <time>2022-08-20T14:51:33Z</time>
      </trkpt>
      <trkpt lat="25.5063230" lon="-100.6800240">
        <ele>2260.8</ele>
        <time>2022-08-20T14:51:37Z</time>
      </trkpt>
      <trkpt lat="25.5063090" lon="-100.6799840">
        <ele>2261.4</ele>
        <time>2022-08-20T14:51:43Z</time>
      </trkpt>
      <trkpt lat="25.5063050" lon="-100.6799800">
        <ele>2261.4</ele>
        <time>2022-08-20T14:51:46Z</time>
      </trkpt>
      <trkpt lat="25.5062960" lon="-100.6799360">
        <ele>2261.4</ele>
        <time>2022-08-20T14:51:59Z</time>
      </trkpt>
      <trkpt lat="25.5062650" lon="-100.6798010">
        <ele>2261.4</ele>
        <time>2022-08-20T14:52:06Z</time>
      </trkpt>
      <trkpt lat="25.5062460" lon="-100.6796780">
        <ele>2261.0</ele>
        <time>2022-08-20T14:52:14Z</time>
      </trkpt>
      <trkpt lat="25.5062420" lon="-100.6796610">
        <ele>2261.0</ele>
        <time>2022-08-20T14:52:15Z</time>
      </trkpt>
      <trkpt lat="25.5061660" lon="-100.6795070">
        <ele>2261.0</ele>
        <time>2022-08-20T14:52:23Z</time>
      </trkpt>
      <trkpt lat="25.5060500" lon="-100.6793100">
        <ele>2261.0</ele>
        <time>2022-08-20T14:52:32Z</time>
      </trkpt>
      <trkpt lat="25.5060130" lon="-100.6791040">
        <ele>2261.0</ele>
        <time>2022-08-20T14:52:39Z</time>
      </trkpt>
      <trkpt lat="25.5060210" lon="-100.6789080">
        <ele>2260.8</ele>
        <time>2022-08-20T14:52:46Z</time>
      </trkpt>
      <trkpt lat="25.5060840" lon="-100.6786640">
        <ele>2260.6</ele>
        <time>2022-08-20T14:52:54Z</time>
      </trkpt>
      <trkpt lat="25.5061510" lon="-100.6783550">
        <ele>2260.6</ele>
        <time>2022-08-20T14:53:03Z</time>
      </trkpt>
      <trkpt lat="25.5061870" lon="-100.6781040">
        <ele>2260.2</ele>
        <time>2022-08-20T14:53:11Z</time>
      </trkpt>
      <trkpt lat="25.5061660" lon="-100.6778460">
        <ele>2260.0</ele>
        <time>2022-08-20T14:53:19Z</time>
      </trkpt>
      <trkpt lat="25.5061330" lon="-100.6776030">
        <ele>2259.8</ele>
        <time>2022-08-20T14:53:26Z</time>
      </trkpt>
      <trkpt lat="25.5061210" lon="-100.6775170">
        <ele>2259.6</ele>
        <time>2022-08-20T14:53:29Z</time>
      </trkpt>
      <trkpt lat="25.5060810" lon="-100.6773460">
        <ele>2258.8</ele>
        <time>2022-08-20T14:53:37Z</time>
      </trkpt>
      <trkpt lat="25.5060660" lon="-100.6773420">
        <ele>2258.8</ele>
        <time>2022-08-20T14:53:40Z</time>
      </trkpt>
      <trkpt lat="25.5060680" lon="-100.6773450">
        <ele>2258.6</ele>
        <time>2022-08-20T14:53:45Z</time>
      </trkpt>
      <trkpt lat="25.5060610" lon="-100.6773480">
        <ele>2258.6</ele>
        <time>2022-08-20T14:53:50Z</time>
      </trkpt>
      <trkpt lat="25.5060440" lon="-100.6773290">
        <ele>2258.2</ele>
        <time>2022-08-20T14:54:01Z</time>
      </trkpt>
      <trkpt lat="25.5059660" lon="-100.6771950">
        <ele>2258.2</ele>
        <time>2022-08-20T14:54:09Z</time>
      </trkpt>
      <trkpt lat="25.5058890" lon="-100.6771420">
        <ele>2258.2</ele>
        <time>2022-08-20T14:54:11Z</time>
      </trkpt>
      <trkpt lat="25.5057970" lon="-100.6771120">
        <ele>2258.0</ele>
        <time>2022-08-20T14:54:13Z</time>
      </trkpt>
      <trkpt lat="25.5056020" lon="-100.6770660">
        <ele>2257.0</ele>
        <time>2022-08-20T14:54:17Z</time>
      </trkpt>
      <trkpt lat="25.5055300" lon="-100.6770460">
        <ele>2256.2</ele>
        <time>2022-08-20T14:54:19Z</time>
      </trkpt>
      <trkpt lat="25.5055010" lon="-100.6770270">
        <ele>2256.0</ele>
        <time>2022-08-20T14:54:20Z</time>
      </trkpt>
      <trkpt lat="25.5054350" lon="-100.6769360">
        <ele>2255.4</ele>
        <time>2022-08-20T14:54:23Z</time>
      </trkpt>
      <trkpt lat="25.5053980" lon="-100.6767010">
        <ele>2255.2</ele>
        <time>2022-08-20T14:54:29Z</time>
      </trkpt>
      <trkpt lat="25.5054500" lon="-100.6765520">
        <ele>2255.2</ele>
        <time>2022-08-20T14:54:33Z</time>
      </trkpt>
      <trkpt lat="25.5055790" lon="-100.6765040">
        <ele>2255.4</ele>
        <time>2022-08-20T14:54:40Z</time>
      </trkpt>
      <trkpt lat="25.5056660" lon="-100.6764650">
        <ele>2256.8</ele>
        <time>2022-08-20T14:54:47Z</time>
      </trkpt>
      <trkpt lat="25.5057200" lon="-100.6764220">
        <ele>2257.8</ele>
        <time>2022-08-20T14:54:52Z</time>
      </trkpt>
      <trkpt lat="25.5057290" lon="-100.6764140">
        <ele>2258.0</ele>
        <time>2022-08-20T14:54:53Z</time>
      </trkpt>
      <trkpt lat="25.5057810" lon="-100.6763290">
        <ele>2259.2</ele>
        <time>2022-08-20T14:55:00Z</time>
      </trkpt>
      <trkpt lat="25.5057950" lon="-100.6762890">
        <ele>2259.6</ele>
        <time>2022-08-20T14:55:03Z</time>
      </trkpt>
      <trkpt lat="25.5058020" lon="-100.6762570">
        <ele>2260.2</ele>
        <time>2022-08-20T14:55:05Z</time>
      </trkpt>
      <trkpt lat="25.5057970" lon="-100.6761680">
        <ele>2261.2</ele>
        <time>2022-08-20T14:55:11Z</time>
      </trkpt>
      <trkpt lat="25.5057830" lon="-100.6761120">
        <ele>2261.6</ele>
        <time>2022-08-20T14:55:15Z</time>
      </trkpt>
      <trkpt lat="25.5057740" lon="-100.6760670">
        <ele>2262.2</ele>
        <time>2022-08-20T14:55:18Z</time>
      </trkpt>
      <trkpt lat="25.5057540" lon="-100.6759680">
        <ele>2263.2</ele>
        <time>2022-08-20T14:55:25Z</time>
      </trkpt>
      <trkpt lat="25.5057510" lon="-100.6759550">
        <ele>2263.2</ele>
        <time>2022-08-20T14:55:26Z</time>
      </trkpt>
      <trkpt lat="25.5057380" lon="-100.6758620">
        <ele>2264.2</ele>
        <time>2022-08-20T14:55:32Z</time>
      </trkpt>
      <trkpt lat="25.5057400" lon="-100.6758340">
        <ele>2264.6</ele>
        <time>2022-08-20T14:55:34Z</time>
      </trkpt>
      <trkpt lat="25.5057300" lon="-100.6757630">
        <ele>2265.2</ele>
        <time>2022-08-20T14:55:39Z</time>
      </trkpt>
      <trkpt lat="25.5057050" lon="-100.6756780">
        <ele>2266.0</ele>
        <time>2022-08-20T14:55:44Z</time>
      </trkpt>
      <trkpt lat="25.5056980" lon="-100.6756350">
        <ele>2266.2</ele>
        <time>2022-08-20T14:55:46Z</time>
      </trkpt>
      <trkpt lat="25.5056620" lon="-100.6755170">
        <ele>2267.0</ele>
        <time>2022-08-20T14:55:52Z</time>
      </trkpt>
      <trkpt lat="25.5056600" lon="-100.6755010">
        <ele>2267.2</ele>
        <time>2022-08-20T14:55:53Z</time>
      </trkpt>
      <trkpt lat="25.5056560" lon="-100.6753760">
        <ele>2268.4</ele>
        <time>2022-08-20T14:56:01Z</time>
      </trkpt>
      <trkpt lat="25.5056610" lon="-100.6752990">
        <ele>2269.4</ele>
        <time>2022-08-20T14:56:06Z</time>
      </trkpt>
      <trkpt lat="25.5056530" lon="-100.6752100">
        <ele>2269.8</ele>
        <time>2022-08-20T14:56:11Z</time>
      </trkpt>
      <trkpt lat="25.5056540" lon="-100.6751720">
        <ele>2270.2</ele>
        <time>2022-08-20T14:56:13Z</time>
      </trkpt>
      <trkpt lat="25.5056720" lon="-100.6750630">
        <ele>2271.4</ele>
        <time>2022-08-20T14:56:20Z</time>
      </trkpt>
      <trkpt lat="25.5056710" lon="-100.6749580">
        <ele>2272.4</ele>
        <time>2022-08-20T14:56:25Z</time>
      </trkpt>
      <trkpt lat="25.5056670" lon="-100.6749100">
        <ele>2272.8</ele>
        <time>2022-08-20T14:56:27Z</time>
      </trkpt>
      <trkpt lat="25.5056520" lon="-100.6748760">
        <ele>2273.4</ele>
        <time>2022-08-20T14:56:30Z</time>
      </trkpt>
      <trkpt lat="25.5056420" lon="-100.6747840">
        <ele>2274.2</ele>
        <time>2022-08-20T14:56:35Z</time>
      </trkpt>
      <trkpt lat="25.5056420" lon="-100.6747690">
        <ele>2274.6</ele>
        <time>2022-08-20T14:56:36Z</time>
      </trkpt>
      <trkpt lat="25.5056390" lon="-100.6747380">
        <ele>2274.8</ele>
        <time>2022-08-20T14:56:38Z</time>
      </trkpt>
      <trkpt lat="25.5056200" lon="-100.6746330">
        <ele>2275.6</ele>
        <time>2022-08-20T14:56:44Z</time>
      </trkpt>
      <trkpt lat="25.5056200" lon="-100.6746170">
        <ele>2275.6</ele>
        <time>2022-08-20T14:56:45Z</time>
      </trkpt>
      <trkpt lat="25.5055910" lon="-100.6745240">
        <ele>2276.8</ele>
        <time>2022-08-20T14:56:51Z</time>
      </trkpt>
      <trkpt lat="25.5055650" lon="-100.6744790">
        <ele>2277.2</ele>
        <time>2022-08-20T14:56:54Z</time>
      </trkpt>
      <trkpt lat="25.5055370" lon="-100.6744330">
        <ele>2277.8</ele>
        <time>2022-08-20T14:56:57Z</time>
      </trkpt>
      <trkpt lat="25.5054560" lon="-100.6743430">
        <ele>2278.8</ele>
        <time>2022-08-20T14:57:04Z</time>
      </trkpt>
      <trkpt lat="25.5053710" lon="-100.6742770">
        <ele>2279.6</ele>
        <time>2022-08-20T14:57:11Z</time>
      </trkpt>
      <trkpt lat="25.5053350" lon="-100.6742490">
        <ele>2280.0</ele>
        <time>2022-08-20T14:57:14Z</time>
      </trkpt>
      <trkpt lat="25.5052850" lon="-100.6742190">
        <ele>2281.0</ele>
        <time>2022-08-20T14:57:18Z</time>
      </trkpt>
      <trkpt lat="25.5052560" lon="-100.6742000">
        <ele>2281.2</ele>
        <time>2022-08-20T14:57:20Z</time>
      </trkpt>
      <trkpt lat="25.5052110" lon="-100.6741670">
        <ele>2282.0</ele>
        <time>2022-08-20T14:57:24Z</time>
      </trkpt>
      <trkpt lat="25.5051970" lon="-100.6741600">
        <ele>2282.2</ele>
        <time>2022-08-20T14:57:25Z</time>
      </trkpt>
      <trkpt lat="25.5051480" lon="-100.6741230">
        <ele>2283.2</ele>
        <time>2022-08-20T14:57:29Z</time>
      </trkpt>
      <trkpt lat="25.5051040" lon="-100.6740960">
        <ele>2283.6</ele>
        <time>2022-08-20T14:57:32Z</time>
      </trkpt>
      <trkpt lat="25.5050710" lon="-100.6740730">
        <ele>2284.2</ele>
        <time>2022-08-20T14:57:34Z</time>
      </trkpt>
      <trkpt lat="25.5049800" lon="-100.6740160">
        <ele>2285.2</ele>
        <time>2022-08-20T14:57:40Z</time>
      </trkpt>
      <trkpt lat="25.5049400" lon="-100.6739870">
        <ele>2285.6</ele>
        <time>2022-08-20T14:57:43Z</time>
      </trkpt>
      <trkpt lat="25.5048910" lon="-100.6739710">
        <ele>2286.0</ele>
        <time>2022-08-20T14:57:46Z</time>
      </trkpt>
      <trkpt lat="25.5048530" lon="-100.6739590">
        <ele>2286.4</ele>
        <time>2022-08-20T14:57:48Z</time>
      </trkpt>
      <trkpt lat="25.5048010" lon="-100.6739340">
        <ele>2287.2</ele>
        <time>2022-08-20T14:57:52Z</time>
      </trkpt>
      <trkpt lat="25.5047190" lon="-100.6738660">
        <ele>2288.2</ele>
        <time>2022-08-20T14:58:00Z</time>
      </trkpt>
      <trkpt lat="25.5047070" lon="-100.6738520">
        <ele>2288.4</ele>
        <time>2022-08-20T14:58:01Z</time>
      </trkpt>
      <trkpt lat="25.5046560" lon="-100.6738070">
        <ele>2289.2</ele>
        <time>2022-08-20T14:58:06Z</time>
      </trkpt>
      <trkpt lat="25.5046480" lon="-100.6738000">
        <ele>2289.4</ele>
        <time>2022-08-20T14:58:07Z</time>
      </trkpt>
      <trkpt lat="25.5045960" lon="-100.6737580">
        <ele>2290.4</ele>
        <time>2022-08-20T14:58:13Z</time>
      </trkpt>
      <trkpt lat="25.5045850" lon="-100.6737520">
        <ele>2290.4</ele>
        <time>2022-08-20T14:58:14Z</time>
      </trkpt>
      <trkpt lat="25.5045340" lon="-100.6737060">
        <ele>2291.4</ele>
        <time>2022-08-20T14:58:20Z</time>
      </trkpt>
      <trkpt lat="25.5045270" lon="-100.6736990">
        <ele>2291.6</ele>
        <time>2022-08-20T14:58:21Z</time>
      </trkpt>
      <trkpt lat="25.5044920" lon="-100.6736500">
        <ele>2292.4</ele>
        <time>2022-08-20T14:58:26Z</time>
      </trkpt>
      <trkpt lat="25.5044720" lon="-100.6736350">
        <ele>2292.8</ele>
        <time>2022-08-20T14:58:28Z</time>
      </trkpt>
      <trkpt lat="25.5044360" lon="-100.6736000">
        <ele>2293.6</ele>
        <time>2022-08-20T14:58:32Z</time>
      </trkpt>
      <trkpt lat="25.5044280" lon="-100.6735930">
        <ele>2293.8</ele>
        <time>2022-08-20T14:58:33Z</time>
      </trkpt>
      <trkpt lat="25.5043810" lon="-100.6735340">
        <ele>2294.6</ele>
        <time>2022-08-20T14:58:39Z</time>
      </trkpt>
      <trkpt lat="25.5043460" lon="-100.6734780">
        <ele>2295.0</ele>
        <time>2022-08-20T14:58:43Z</time>
      </trkpt>
      <trkpt lat="25.5043150" lon="-100.6734090">
        <ele>2295.6</ele>
        <time>2022-08-20T14:58:48Z</time>
      </trkpt>
      <trkpt lat="25.5042770" lon="-100.6733660">
        <ele>2296.2</ele>
        <time>2022-08-20T14:58:51Z</time>
      </trkpt>
      <trkpt lat="25.5042610" lon="-100.6733490">
        <ele>2296.6</ele>
        <time>2022-08-20T14:58:53Z</time>
      </trkpt>
      <trkpt lat="25.5042570" lon="-100.6733430">
        <ele>2297.2</ele>
        <time>2022-08-20T14:58:57Z</time>
      </trkpt>
      <trkpt lat="25.5041960" lon="-100.6732490">
        <ele>2297.6</ele>
        <time>2022-08-20T14:59:03Z</time>
      </trkpt>
      <trkpt lat="25.5041550" lon="-100.6732150">
        <ele>2297.6</ele>
        <time>2022-08-20T14:59:06Z</time>
      </trkpt>
      <trkpt lat="25.5040890" lon="-100.6731720">
        <ele>2297.8</ele>
        <time>2022-08-20T14:59:11Z</time>
      </trkpt>
      <trkpt lat="25.5039460" lon="-100.6730600">
        <ele>2298.4</ele>
        <time>2022-08-20T14:59:19Z</time>
      </trkpt>
      <trkpt lat="25.5039320" lon="-100.6730490">
        <ele>2298.6</ele>
        <time>2022-08-20T14:59:20Z</time>
      </trkpt>
      <trkpt lat="25.5038690" lon="-100.6730150">
        <ele>2299.4</ele>
        <time>2022-08-20T14:59:25Z</time>
      </trkpt>
      <trkpt lat="25.5038450" lon="-100.6730030">
        <ele>2299.6</ele>
        <time>2022-08-20T14:59:27Z</time>
      </trkpt>
      <trkpt lat="25.5037790" lon="-100.6729840">
        <ele>2300.4</ele>
        <time>2022-08-20T14:59:32Z</time>
      </trkpt>
      <trkpt lat="25.5037480" lon="-100.6729690">
        <ele>2300.8</ele>
        <time>2022-08-20T14:59:34Z</time>
      </trkpt>
      <trkpt lat="25.5036930" lon="-100.6729450">
        <ele>2301.6</ele>
        <time>2022-08-20T14:59:38Z</time>
      </trkpt>
      <trkpt lat="25.5036780" lon="-100.6729360">
        <ele>2302.0</ele>
        <time>2022-08-20T14:59:39Z</time>
      </trkpt>
      <trkpt lat="25.5035780" lon="-100.6728730">
        <ele>2302.6</ele>
        <time>2022-08-20T14:59:45Z</time>
      </trkpt>
      <trkpt lat="25.5035290" lon="-100.6728460">
        <ele>2303.0</ele>
        <time>2022-08-20T14:59:48Z</time>
      </trkpt>
      <trkpt lat="25.5034910" lon="-100.6728110">
        <ele>2303.4</ele>
        <time>2022-08-20T14:59:52Z</time>
      </trkpt>
      <trkpt lat="25.5034420" lon="-100.6727950">
        <ele>2303.8</ele>
        <time>2022-08-20T14:59:56Z</time>
      </trkpt>
      <trkpt lat="25.5034220" lon="-100.6727880">
        <ele>2304.0</ele>
        <time>2022-08-20T14:59:58Z</time>
      </trkpt>
      <trkpt lat="25.5034110" lon="-100.6727770">
        <ele>2304.2</ele>
        <time>2022-08-20T14:59:59Z</time>
      </trkpt>
      <trkpt lat="25.5033960" lon="-100.6727700">
        <ele>2304.2</ele>
        <time>2022-08-20T15:00:00Z</time>
      </trkpt>
      <trkpt lat="25.5033250" lon="-100.6727140">
        <ele>2304.8</ele>
        <time>2022-08-20T15:00:06Z</time>
      </trkpt>
      <trkpt lat="25.5032920" lon="-100.6726740">
        <ele>2305.4</ele>
        <time>2022-08-20T15:00:09Z</time>
      </trkpt>
      <trkpt lat="25.5032760" lon="-100.6726490">
        <ele>2305.8</ele>
        <time>2022-08-20T15:00:11Z</time>
      </trkpt>
      <trkpt lat="25.5032590" lon="-100.6726340">
        <ele>2306.0</ele>
        <time>2022-08-20T15:00:12Z</time>
      </trkpt>
      <trkpt lat="25.5031910" lon="-100.6725560">
        <ele>2306.8</ele>
        <time>2022-08-20T15:00:18Z</time>
      </trkpt>
      <trkpt lat="25.5031630" lon="-100.6725210">
        <ele>2307.2</ele>
        <time>2022-08-20T15:00:21Z</time>
      </trkpt>
      <trkpt lat="25.5031110" lon="-100.6724610">
        <ele>2307.8</ele>
        <time>2022-08-20T15:00:26Z</time>
      </trkpt>
      <trkpt lat="25.5030850" lon="-100.6724190">
        <ele>2308.2</ele>
        <time>2022-08-20T15:00:29Z</time>
      </trkpt>
      <trkpt lat="25.5030440" lon="-100.6723560">
        <ele>2308.8</ele>
        <time>2022-08-20T15:00:32Z</time>
      </trkpt>
      <trkpt lat="25.5029910" lon="-100.6722960">
        <ele>2308.8</ele>
        <time>2022-08-20T15:00:35Z</time>
      </trkpt>
      <trkpt lat="25.5028240" lon="-100.6721390">
        <ele>2308.8</ele>
        <time>2022-08-20T15:00:41Z</time>
      </trkpt>
      <trkpt lat="25.5026650" lon="-100.6720110">
        <ele>2308.6</ele>
        <time>2022-08-20T15:00:45Z</time>
      </trkpt>
      <trkpt lat="25.5025850" lon="-100.6719690">
        <ele>2308.2</ele>
        <time>2022-08-20T15:00:47Z</time>
      </trkpt>
      <trkpt lat="25.5025130" lon="-100.6719290">
        <ele>2307.8</ele>
        <time>2022-08-20T15:00:49Z</time>
      </trkpt>
      <trkpt lat="25.5023050" lon="-100.6718210">
        <ele>2307.0</ele>
        <time>2022-08-20T15:00:55Z</time>
      </trkpt>
      <trkpt lat="25.5020830" lon="-100.6717170">
        <ele>2306.6</ele>
        <time>2022-08-20T15:01:02Z</time>
      </trkpt>
      <trkpt lat="25.5018570" lon="-100.6716430">
        <ele>2306.6</ele>
        <time>2022-08-20T15:01:09Z</time>
      </trkpt>
      <trkpt lat="25.5016850" lon="-100.6715620">
        <ele>2306.6</ele>
        <time>2022-08-20T15:01:13Z</time>
      </trkpt>
      <trkpt lat="25.5016020" lon="-100.6715210">
        <ele>2306.6</ele>
        <time>2022-08-20T15:01:15Z</time>
      </trkpt>
      <trkpt lat="25.5015090" lon="-100.6714880">
        <ele>2306.4</ele>
        <time>2022-08-20T15:01:18Z</time>
      </trkpt>
      <trkpt lat="25.5013410" lon="-100.6714190">
        <ele>2306.4</ele>
        <time>2022-08-20T15:01:24Z</time>
      </trkpt>
      <trkpt lat="25.5011650" lon="-100.6713560">
        <ele>2307.0</ele>
        <time>2022-08-20T15:01:31Z</time>
      </trkpt>
      <trkpt lat="25.5011140" lon="-100.6713430">
        <ele>2307.4</ele>
        <time>2022-08-20T15:01:33Z</time>
      </trkpt>
      <trkpt lat="25.5010880" lon="-100.6713360">
        <ele>2307.6</ele>
        <time>2022-08-20T15:01:34Z</time>
      </trkpt>
      <trkpt lat="25.5009820" lon="-100.6712930">
        <ele>2308.2</ele>
        <time>2022-08-20T15:01:38Z</time>
      </trkpt>
      <trkpt lat="25.5008720" lon="-100.6712370">
        <ele>2308.4</ele>
        <time>2022-08-20T15:01:42Z</time>
      </trkpt>
      <trkpt lat="25.5008330" lon="-100.6712090">
        <ele>2308.6</ele>
        <time>2022-08-20T15:01:43Z</time>
      </trkpt>
      <trkpt lat="25.5006160" lon="-100.6710360">
        <ele>2308.8</ele>
        <time>2022-08-20T15:01:49Z</time>
      </trkpt>
      <trkpt lat="25.5005320" lon="-100.6710100">
        <ele>2308.8</ele>
        <time>2022-08-20T15:01:51Z</time>
      </trkpt>
      <trkpt lat="25.5004840" lon="-100.6710120">
        <ele>2308.8</ele>
        <time>2022-08-20T15:01:52Z</time>
      </trkpt>
      <trkpt lat="25.5004420" lon="-100.6710630">
        <ele>2308.6</ele>
        <time>2022-08-20T15:01:54Z</time>
      </trkpt>
      <trkpt lat="25.5004030" lon="-100.6710980">
        <ele>2308.6</ele>
        <time>2022-08-20T15:01:57Z</time>
      </trkpt>
      <trkpt lat="25.5003550" lon="-100.6711360">
        <ele>2308.6</ele>
        <time>2022-08-20T15:02:01Z</time>
      </trkpt>
      <trkpt lat="25.5002480" lon="-100.6711460">
        <ele>2309.6</ele>
        <time>2022-08-20T15:02:07Z</time>
      </trkpt>
      <trkpt lat="25.5001610" lon="-100.6711010">
        <ele>2310.4</ele>
        <time>2022-08-20T15:02:14Z</time>
      </trkpt>
      <trkpt lat="25.5000900" lon="-100.6710170">
        <ele>2310.8</ele>
        <time>2022-08-20T15:02:20Z</time>
      </trkpt>
      <trkpt lat="25.4999650" lon="-100.6710070">
        <ele>2311.4</ele>
        <time>2022-08-20T15:02:27Z</time>
      </trkpt>
      <trkpt lat="25.4998210" lon="-100.6709580">
        <ele>2312.6</ele>
        <time>2022-08-20T15:02:35Z</time>
      </trkpt>
      <trkpt lat="25.4997690" lon="-100.6709240">
        <ele>2313.4</ele>
        <time>2022-08-20T15:02:40Z</time>
      </trkpt>
      <trkpt lat="25.4997440" lon="-100.6708960">
        <ele>2313.6</ele>
        <time>2022-08-20T15:02:42Z</time>
      </trkpt>
      <trkpt lat="25.4997060" lon="-100.6707990">
        <ele>2314.6</ele>
        <time>2022-08-20T15:02:48Z</time>
      </trkpt>
      <trkpt lat="25.4997030" lon="-100.6707690">
        <ele>2314.8</ele>
        <time>2022-08-20T15:02:50Z</time>
      </trkpt>
      <trkpt lat="25.4997040" lon="-100.6707050">
        <ele>2315.6</ele>
        <time>2022-08-20T15:02:54Z</time>
      </trkpt>
      <trkpt lat="25.4997130" lon="-100.6706430">
        <ele>2316.2</ele>
        <time>2022-08-20T15:02:58Z</time>
      </trkpt>
      <trkpt lat="25.4997120" lon="-100.6705900">
        <ele>2316.8</ele>
        <time>2022-08-20T15:03:01Z</time>
      </trkpt>
      <trkpt lat="25.4996690" lon="-100.6705230">
        <ele>2317.8</ele>
        <time>2022-08-20T15:03:06Z</time>
      </trkpt>
      <trkpt lat="25.4995910" lon="-100.6705360">
        <ele>2318.4</ele>
        <time>2022-08-20T15:03:11Z</time>
      </trkpt>
      <trkpt lat="25.4995370" lon="-100.6705430">
        <ele>2318.8</ele>
        <time>2022-08-20T15:03:14Z</time>
      </trkpt>
      <trkpt lat="25.4994680" lon="-100.6705510">
        <ele>2319.2</ele>
        <time>2022-08-20T15:03:18Z</time>
      </trkpt>
      <trkpt lat="25.4994160" lon="-100.6705530">
        <ele>2320.0</ele>
        <time>2022-08-20T15:03:22Z</time>
      </trkpt>
      <trkpt lat="25.4993760" lon="-100.6705380">
        <ele>2320.4</ele>
        <time>2022-08-20T15:03:25Z</time>
      </trkpt>
      <trkpt lat="25.4993210" lon="-100.6705150">
        <ele>2321.0</ele>
        <time>2022-08-20T15:03:29Z</time>
      </trkpt>
      <trkpt lat="25.4992610" lon="-100.6704880">
        <ele>2321.6</ele>
        <time>2022-08-20T15:03:33Z</time>
      </trkpt>
      <trkpt lat="25.4992370" lon="-100.6704740">
        <ele>2322.0</ele>
        <time>2022-08-20T15:03:35Z</time>
      </trkpt>
      <trkpt lat="25.4991700" lon="-100.6704330">
        <ele>2322.6</ele>
        <time>2022-08-20T15:03:40Z</time>
      </trkpt>
      <trkpt lat="25.4991610" lon="-100.6704270">
        <ele>2323.0</ele>
        <time>2022-08-20T15:03:41Z</time>
      </trkpt>
      <trkpt lat="25.4990810" lon="-100.6703660">
        <ele>2324.0</ele>
        <time>2022-08-20T15:03:47Z</time>
      </trkpt>
      <trkpt lat="25.4990390" lon="-100.6703200">
        <ele>2324.6</ele>
        <time>2022-08-20T15:03:51Z</time>
      </trkpt>
      <trkpt lat="25.4990180" lon="-100.6703010">
        <ele>2325.0</ele>
        <time>2022-08-20T15:03:54Z</time>
      </trkpt>
      <trkpt lat="25.4989890" lon="-100.6702730">
        <ele>2325.8</ele>
        <time>2022-08-20T15:03:57Z</time>
      </trkpt>
      <trkpt lat="25.4989730" lon="-100.6702500">
        <ele>2326.2</ele>
        <time>2022-08-20T15:03:59Z</time>
      </trkpt>
      <trkpt lat="25.4989190" lon="-100.6701950">
        <ele>2327.2</ele>
        <time>2022-08-20T15:04:04Z</time>
      </trkpt>
      <trkpt lat="25.4988920" lon="-100.6701650">
        <ele>2327.8</ele>
        <time>2022-08-20T15:04:07Z</time>
      </trkpt>
      <trkpt lat="25.4988810" lon="-100.6701570">
        <ele>2328.0</ele>
        <time>2022-08-20T15:04:08Z</time>
      </trkpt>
      <trkpt lat="25.4988700" lon="-100.6701490">
        <ele>2328.2</ele>
        <time>2022-08-20T15:04:09Z</time>
      </trkpt>
      <trkpt lat="25.4988570" lon="-100.6701380">
        <ele>2328.4</ele>
        <time>2022-08-20T15:04:10Z</time>
      </trkpt>
      <trkpt lat="25.4988330" lon="-100.6701100">
        <ele>2329.0</ele>
        <time>2022-08-20T15:04:13Z</time>
      </trkpt>
      <trkpt lat="25.4988150" lon="-100.6700900">
        <ele>2329.4</ele>
        <time>2022-08-20T15:04:15Z</time>
      </trkpt>
      <trkpt lat="25.4987670" lon="-100.6700470">
        <ele>2330.2</ele>
        <time>2022-08-20T15:04:20Z</time>
      </trkpt>
      <trkpt lat="25.4987590" lon="-100.6700370">
        <ele>2330.2</ele>
        <time>2022-08-20T15:04:21Z</time>
      </trkpt>
      <trkpt lat="25.4986960" lon="-100.6699620">
        <ele>2331.4</ele>
        <time>2022-08-20T15:04:26Z</time>
      </trkpt>
      <trkpt lat="25.4986780" lon="-100.6699470">
        <ele>2331.8</ele>
        <time>2022-08-20T15:04:28Z</time>
      </trkpt>
      <trkpt lat="25.4986520" lon="-100.6699240">
        <ele>2332.4</ele>
        <time>2022-08-20T15:04:31Z</time>
      </trkpt>
      <trkpt lat="25.4986230" lon="-100.6698840">
        <ele>2333.4</ele>
        <time>2022-08-20T15:04:36Z</time>
      </trkpt>
      <trkpt lat="25.4986210" lon="-100.6698800">
        <ele>2333.2</ele>
        <time>2022-08-20T15:04:37Z</time>
      </trkpt>
      <trkpt lat="25.4985830" lon="-100.6698450">
        <ele>2334.4</ele>
        <time>2022-08-20T15:04:44Z</time>
      </trkpt>
      <trkpt lat="25.4985750" lon="-100.6698380">
        <ele>2334.6</ele>
        <time>2022-08-20T15:04:45Z</time>
      </trkpt>
      <trkpt lat="25.4985450" lon="-100.6698130">
        <ele>2335.4</ele>
        <time>2022-08-20T15:04:49Z</time>
      </trkpt>
      <trkpt lat="25.4985270" lon="-100.6697990">
        <ele>2335.6</ele>
        <time>2022-08-20T15:04:51Z</time>
      </trkpt>
      <trkpt lat="25.4984930" lon="-100.6697800">
        <ele>2336.2</ele>
        <time>2022-08-20T15:04:54Z</time>
      </trkpt>
      <trkpt lat="25.4984820" lon="-100.6697730">
        <ele>2336.4</ele>
        <time>2022-08-20T15:04:55Z</time>
      </trkpt>
      <trkpt lat="25.4984260" lon="-100.6697290">
        <ele>2337.2</ele>
        <time>2022-08-20T15:04:59Z</time>
      </trkpt>
      <trkpt lat="25.4984010" lon="-100.6697060">
        <ele>2337.4</ele>
        <time>2022-08-20T15:05:01Z</time>
      </trkpt>
      <trkpt lat="25.4983240" lon="-100.6696650">
        <ele>2338.0</ele>
        <time>2022-08-20T15:05:07Z</time>
      </trkpt>
      <trkpt lat="25.4982720" lon="-100.6696210">
        <ele>2338.4</ele>
        <time>2022-08-20T15:05:10Z</time>
      </trkpt>
      <trkpt lat="25.4982220" lon="-100.6695980">
        <ele>2339.0</ele>
        <time>2022-08-20T15:05:13Z</time>
      </trkpt>
      <trkpt lat="25.4981390" lon="-100.6695610">
        <ele>2339.6</ele>
        <time>2022-08-20T15:05:18Z</time>
      </trkpt>
      <trkpt lat="25.4981200" lon="-100.6695540">
        <ele>2339.6</ele>
        <time>2022-08-20T15:05:19Z</time>
      </trkpt>
      <trkpt lat="25.4980520" lon="-100.6695080">
        <ele>2340.4</ele>
        <time>2022-08-20T15:05:25Z</time>
      </trkpt>
      <trkpt lat="25.4980430" lon="-100.6695030">
        <ele>2340.6</ele>
        <time>2022-08-20T15:05:26Z</time>
      </trkpt>
      <trkpt lat="25.4980030" lon="-100.6694670">
        <ele>2341.0</ele>
        <time>2022-08-20T15:05:31Z</time>
      </trkpt>
      <trkpt lat="25.4979900" lon="-100.6694410">
        <ele>2341.4</ele>
        <time>2022-08-20T15:05:34Z</time>
      </trkpt>
      <trkpt lat="25.4979560" lon="-100.6694230">
        <ele>2342.2</ele>
        <time>2022-08-20T15:05:39Z</time>
      </trkpt>
      <trkpt lat="25.4979510" lon="-100.6694240">
        <ele>2342.6</ele>
        <time>2022-08-20T15:05:42Z</time>
      </trkpt>
      <trkpt lat="25.4980220" lon="-100.6694010">
        <ele>2342.6</ele>
        <time>2022-08-20T15:05:53Z</time>
      </trkpt>
      <trkpt lat="25.4980490" lon="-100.6694210">
        <ele>2342.8</ele>
        <time>2022-08-20T15:06:09Z</time>
      </trkpt>
      <trkpt lat="25.4980450" lon="-100.6694270">
        <ele>2342.4</ele>
        <time>2022-08-20T15:06:25Z</time>
      </trkpt>
      <trkpt lat="25.4980240" lon="-100.6693820">
        <ele>2342.4</ele>
        <time>2022-08-20T15:06:35Z</time>
      </trkpt>
      <trkpt lat="25.4979810" lon="-100.6693250">
        <ele>2342.6</ele>
        <time>2022-08-20T15:06:48Z</time>
      </trkpt>
      <trkpt lat="25.4979640" lon="-100.6693060">
        <ele>2342.8</ele>
        <time>2022-08-20T15:06:51Z</time>
      </trkpt>
      <trkpt lat="25.4979290" lon="-100.6692630">
        <ele>2343.0</ele>
        <time>2022-08-20T15:06:55Z</time>
      </trkpt>
      <trkpt lat="25.4978810" lon="-100.6692070">
        <ele>2343.2</ele>
        <time>2022-08-20T15:07:01Z</time>
      </trkpt>
      <trkpt lat="25.4978590" lon="-100.6691750">
        <ele>2343.6</ele>
        <time>2022-08-20T15:07:04Z</time>
      </trkpt>
      <trkpt lat="25.4978400" lon="-100.6691420">
        <ele>2344.0</ele>
        <time>2022-08-20T15:07:07Z</time>
      </trkpt>
      <trkpt lat="25.4978120" lon="-100.6690970">
        <ele>2344.6</ele>
        <time>2022-08-20T15:07:10Z</time>
      </trkpt>
      <trkpt lat="25.4977900" lon="-100.6690580">
        <ele>2345.2</ele>
        <time>2022-08-20T15:07:13Z</time>
      </trkpt>
      <trkpt lat="25.4977760" lon="-100.6690340">
        <ele>2345.6</ele>
        <time>2022-08-20T15:07:15Z</time>
      </trkpt>
      <trkpt lat="25.4977460" lon="-100.6689770">
        <ele>2346.0</ele>
        <time>2022-08-20T15:07:20Z</time>
      </trkpt>
      <trkpt lat="25.4977300" lon="-100.6689460">
        <ele>2346.4</ele>
        <time>2022-08-20T15:07:22Z</time>
      </trkpt>
      <trkpt lat="25.4977050" lon="-100.6689000">
        <ele>2347.0</ele>
        <time>2022-08-20T15:07:26Z</time>
      </trkpt>
      <trkpt lat="25.4976780" lon="-100.6688720">
        <ele>2347.6</ele>
        <time>2022-08-20T15:07:29Z</time>
      </trkpt>
      <trkpt lat="25.4976470" lon="-100.6688250">
        <ele>2348.0</ele>
        <time>2022-08-20T15:07:32Z</time>
      </trkpt>
      <trkpt lat="25.4976130" lon="-100.6687420">
        <ele>2348.4</ele>
        <time>2022-08-20T15:07:37Z</time>
      </trkpt>
      <trkpt lat="25.4975950" lon="-100.6686970">
        <ele>2348.8</ele>
        <time>2022-08-20T15:07:40Z</time>
      </trkpt>
      <trkpt lat="25.4975870" lon="-100.6686520">
        <ele>2349.4</ele>
        <time>2022-08-20T15:07:43Z</time>
      </trkpt>
      <trkpt lat="25.4975670" lon="-100.6685940">
        <ele>2350.0</ele>
        <time>2022-08-20T15:07:47Z</time>
      </trkpt>
      <trkpt lat="25.4975650" lon="-100.6685570">
        <ele>2350.8</ele>
        <time>2022-08-20T15:07:49Z</time>
      </trkpt>
      <trkpt lat="25.4975610" lon="-100.6684640">
        <ele>2351.8</ele>
        <time>2022-08-20T15:07:54Z</time>
      </trkpt>
      <trkpt lat="25.4975580" lon="-100.6684470">
        <ele>2351.8</ele>
        <time>2022-08-20T15:07:55Z</time>
      </trkpt>
      <trkpt lat="25.4975290" lon="-100.6683530">
        <ele>2352.4</ele>
        <time>2022-08-20T15:08:01Z</time>
      </trkpt>
      <trkpt lat="25.4975140" lon="-100.6683480">
        <ele>2352.6</ele>
        <time>2022-08-20T15:08:02Z</time>
      </trkpt>
      <trkpt lat="25.4975060" lon="-100.6683440">
        <ele>2353.0</ele>
        <time>2022-08-20T15:08:03Z</time>
      </trkpt>
      <trkpt lat="25.4975080" lon="-100.6683390">
        <ele>2353.6</ele>
        <time>2022-08-20T15:08:06Z</time>
      </trkpt>
      <trkpt lat="25.4975080" lon="-100.6683140">
        <ele>2354.2</ele>
        <time>2022-08-20T15:08:09Z</time>
      </trkpt>
      <trkpt lat="25.4975070" lon="-100.6682890">
        <ele>2354.6</ele>
        <time>2022-08-20T15:08:12Z</time>
      </trkpt>
      <trkpt lat="25.4975000" lon="-100.6682640">
        <ele>2355.0</ele>
        <time>2022-08-20T15:08:14Z</time>
      </trkpt>
      <trkpt lat="25.4975010" lon="-100.6682050">
        <ele>2355.2</ele>
        <time>2022-08-20T15:08:18Z</time>
      </trkpt>
      <trkpt lat="25.4975040" lon="-100.6681540">
        <ele>2355.6</ele>
        <time>2022-08-20T15:08:21Z</time>
      </trkpt>
      <trkpt lat="25.4975040" lon="-100.6680680">
        <ele>2356.4</ele>
        <time>2022-08-20T15:08:26Z</time>
      </trkpt>
      <trkpt lat="25.4975060" lon="-100.6680240">
        <ele>2356.6</ele>
        <time>2022-08-20T15:08:29Z</time>
      </trkpt>
      <trkpt lat="25.4975180" lon="-100.6679640">
        <ele>2357.2</ele>
        <time>2022-08-20T15:08:33Z</time>
      </trkpt>
      <trkpt lat="25.4975430" lon="-100.6679030">
        <ele>2357.8</ele>
        <time>2022-08-20T15:08:37Z</time>
      </trkpt>
      <trkpt lat="25.4975520" lon="-100.6678700">
        <ele>2358.4</ele>
        <time>2022-08-20T15:08:39Z</time>
      </trkpt>
      <trkpt lat="25.4975500" lon="-100.6677760">
        <ele>2359.4</ele>
        <time>2022-08-20T15:08:44Z</time>
      </trkpt>
      <trkpt lat="25.4975400" lon="-100.6677590">
        <ele>2359.4</ele>
        <time>2022-08-20T15:08:45Z</time>
      </trkpt>
      <trkpt lat="25.4975140" lon="-100.6677420">
        <ele>2359.8</ele>
        <time>2022-08-20T15:08:47Z</time>
      </trkpt>
      <trkpt lat="25.4974820" lon="-100.6677480">
        <ele>2359.8</ele>
        <time>2022-08-20T15:08:49Z</time>
      </trkpt>
      <trkpt lat="25.4974040" lon="-100.6677810">
        <ele>2360.2</ele>
        <time>2022-08-20T15:08:54Z</time>
      </trkpt>
      <trkpt lat="25.4973950" lon="-100.6678000">
        <ele>2360.2</ele>
        <time>2022-08-20T15:08:55Z</time>
      </trkpt>
      <trkpt lat="25.4973250" lon="-100.6678470">
        <ele>2360.6</ele>
        <time>2022-08-20T15:08:59Z</time>
      </trkpt>
      <trkpt lat="25.4972490" lon="-100.6678720">
        <ele>2361.0</ele>
        <time>2022-08-20T15:09:03Z</time>
      </trkpt>
      <trkpt lat="25.4972100" lon="-100.6678780">
        <ele>2361.2</ele>
        <time>2022-08-20T15:09:05Z</time>
      </trkpt>
      <trkpt lat="25.4971880" lon="-100.6678740">
        <ele>2361.4</ele>
        <time>2022-08-20T15:09:06Z</time>
      </trkpt>
      <trkpt lat="25.4971000" lon="-100.6678770">
        <ele>2362.0</ele>
        <time>2022-08-20T15:09:10Z</time>
      </trkpt>
      <trkpt lat="25.4970600" lon="-100.6678810">
        <ele>2362.4</ele>
        <time>2022-08-20T15:09:12Z</time>
      </trkpt>
      <trkpt lat="25.4969350" lon="-100.6678640">
        <ele>2363.2</ele>
        <time>2022-08-20T15:09:19Z</time>
      </trkpt>
      <trkpt lat="25.4968790" lon="-100.6678330">
        <ele>2363.4</ele>
        <time>2022-08-20T15:09:22Z</time>
      </trkpt>
      <trkpt lat="25.4968220" lon="-100.6677720">
        <ele>2363.8</ele>
        <time>2022-08-20T15:09:26Z</time>
      </trkpt>
      <trkpt lat="25.4967800" lon="-100.6677090">
        <ele>2364.4</ele>
        <time>2022-08-20T15:09:30Z</time>
      </trkpt>
      <trkpt lat="25.4967570" lon="-100.6676470">
        <ele>2365.2</ele>
        <time>2022-08-20T15:09:33Z</time>
      </trkpt>
      <trkpt lat="25.4967510" lon="-100.6676270">
        <ele>2365.6</ele>
        <time>2022-08-20T15:09:34Z</time>
      </trkpt>
      <trkpt lat="25.4967210" lon="-100.6675320">
        <ele>2366.6</ele>
        <time>2022-08-20T15:09:39Z</time>
      </trkpt>
      <trkpt lat="25.4967060" lon="-100.6674660">
        <ele>2367.2</ele>
        <time>2022-08-20T15:09:43Z</time>
      </trkpt>
      <trkpt lat="25.4967020" lon="-100.6674480">
        <ele>2367.4</ele>
        <time>2022-08-20T15:09:44Z</time>
      </trkpt>
      <trkpt lat="25.4967060" lon="-100.6673750">
        <ele>2368.6</ele>
        <time>2022-08-20T15:09:48Z</time>
      </trkpt>
      <trkpt lat="25.4967050" lon="-100.6673580">
        <ele>2368.8</ele>
        <time>2022-08-20T15:09:49Z</time>
      </trkpt>
      <trkpt lat="25.4966890" lon="-100.6672840">
        <ele>2369.8</ele>
        <time>2022-08-20T15:09:54Z</time>
      </trkpt>
      <trkpt lat="25.4966850" lon="-100.6672530">
        <ele>2370.4</ele>
        <time>2022-08-20T15:09:56Z</time>
      </trkpt>
      <trkpt lat="25.4966740" lon="-100.6672210">
        <ele>2371.0</ele>
        <time>2022-08-20T15:09:58Z</time>
      </trkpt>
      <trkpt lat="25.4966390" lon="-100.6671280">
        <ele>2372.2</ele>
        <time>2022-08-20T15:10:04Z</time>
      </trkpt>
      <trkpt lat="25.4966370" lon="-100.6671140">
        <ele>2372.4</ele>
        <time>2022-08-20T15:10:05Z</time>
      </trkpt>
      <trkpt lat="25.4966170" lon="-100.6670130">
        <ele>2373.4</ele>
        <time>2022-08-20T15:10:11Z</time>
      </trkpt>
      <trkpt lat="25.4966040" lon="-100.6669580">
        <ele>2373.8</ele>
        <time>2022-08-20T15:10:14Z</time>
      </trkpt>
      <trkpt lat="25.4965860" lon="-100.6669090">
        <ele>2374.4</ele>
        <time>2022-08-20T15:10:17Z</time>
      </trkpt>
      <trkpt lat="25.4965750" lon="-100.6668620">
        <ele>2375.0</ele>
        <time>2022-08-20T15:10:20Z</time>
      </trkpt>
      <trkpt lat="25.4965710" lon="-100.6668350">
        <ele>2375.0</ele>
        <time>2022-08-20T15:10:22Z</time>
      </trkpt>
      <trkpt lat="25.4965650" lon="-100.6668220">
        <ele>2375.2</ele>
        <time>2022-08-20T15:10:23Z</time>
      </trkpt>
      <trkpt lat="25.4965310" lon="-100.6667650">
        <ele>2376.2</ele>
        <time>2022-08-20T15:10:28Z</time>
      </trkpt>
      <trkpt lat="25.4965120" lon="-100.6667460">
        <ele>2376.6</ele>
        <time>2022-08-20T15:10:30Z</time>
      </trkpt>
      <trkpt lat="25.4964520" lon="-100.6666980">
        <ele>2377.4</ele>
        <time>2022-08-20T15:10:34Z</time>
      </trkpt>
      <trkpt lat="25.4964310" lon="-100.6666610">
        <ele>2377.8</ele>
        <time>2022-08-20T15:10:36Z</time>
      </trkpt>
      <trkpt lat="25.4964130" lon="-100.6666210">
        <ele>2378.4</ele>
        <time>2022-08-20T15:10:38Z</time>
      </trkpt>
      <trkpt lat="25.4963670" lon="-100.6664990">
        <ele>2379.4</ele>
        <time>2022-08-20T15:10:44Z</time>
      </trkpt>
      <trkpt lat="25.4963590" lon="-100.6664790">
        <ele>2379.6</ele>
        <time>2022-08-20T15:10:45Z</time>
      </trkpt>
      <trkpt lat="25.4963260" lon="-100.6664030">
        <ele>2380.4</ele>
        <time>2022-08-20T15:10:49Z</time>
      </trkpt>
      <trkpt lat="25.4962910" lon="-100.6663190">
        <ele>2381.0</ele>
        <time>2022-08-20T15:10:54Z</time>
      </trkpt>
      <trkpt lat="25.4962780" lon="-100.6662620">
        <ele>2381.6</ele>
        <time>2022-08-20T15:10:57Z</time>
      </trkpt>
      <trkpt lat="25.4962480" lon="-100.6661750">
        <ele>2382.2</ele>
        <time>2022-08-20T15:11:02Z</time>
      </trkpt>
      <trkpt lat="25.4962260" lon="-100.6661040">
        <ele>2382.6</ele>
        <time>2022-08-20T15:11:06Z</time>
      </trkpt>
      <trkpt lat="25.4961880" lon="-100.6659990">
        <ele>2383.8</ele>
        <time>2022-08-20T15:11:12Z</time>
      </trkpt>
      <trkpt lat="25.4961500" lon="-100.6658940">
        <ele>2384.6</ele>
        <time>2022-08-20T15:11:18Z</time>
      </trkpt>
      <trkpt lat="25.4961410" lon="-100.6658540">
        <ele>2385.0</ele>
        <time>2022-08-20T15:11:20Z</time>
      </trkpt>
      <trkpt lat="25.4961260" lon="-100.6657720">
        <ele>2385.6</ele>
        <time>2022-08-20T15:11:24Z</time>
      </trkpt>
      <trkpt lat="25.4961080" lon="-100.6656910">
        <ele>2386.0</ele>
        <time>2022-08-20T15:11:28Z</time>
      </trkpt>
      <trkpt lat="25.4960990" lon="-100.6656170">
        <ele>2386.4</ele>
        <time>2022-08-20T15:11:32Z</time>
      </trkpt>
      <trkpt lat="25.4960960" lon="-100.6655780">
        <ele>2386.6</ele>
        <time>2022-08-20T15:11:34Z</time>
      </trkpt>
      <trkpt lat="25.4960940" lon="-100.6655630">
        <ele>2386.8</ele>
        <time>2022-08-20T15:11:35Z</time>
      </trkpt>
      <trkpt lat="25.4960810" lon="-100.6654730">
        <ele>2387.2</ele>
        <time>2022-08-20T15:11:42Z</time>
      </trkpt>
      <trkpt lat="25.4960460" lon="-100.6653750">
        <ele>2387.2</ele>
        <time>2022-08-20T15:11:48Z</time>
      </trkpt>
      <trkpt lat="25.4960440" lon="-100.6653390">
        <ele>2387.0</ele>
        <time>2022-08-20T15:11:53Z</time>
      </trkpt>
      <trkpt lat="25.4960320" lon="-100.6653170">
        <ele>2387.2</ele>
        <time>2022-08-20T15:12:15Z</time>
      </trkpt>
      <trkpt lat="25.4960260" lon="-100.6653180">
        <ele>2387.2</ele>
        <time>2022-08-20T15:12:32Z</time>
      </trkpt>
      <trkpt lat="25.4960210" lon="-100.6653200">
        <ele>2387.4</ele>
        <time>2022-08-20T15:12:50Z</time>
      </trkpt>
      <trkpt lat="25.4960200" lon="-100.6653200">
        <ele>2387.4</ele>
        <time>2022-08-20T15:12:58Z</time>
      </trkpt>
      <trkpt lat="25.4960190" lon="-100.6653190">
        <ele>2387.4</ele>
        <time>2022-08-20T15:13:13Z</time>
      </trkpt>
      <trkpt lat="25.4960140" lon="-100.6653140">
        <ele>2387.4</ele>
        <time>2022-08-20T15:14:15Z</time>
      </trkpt>
      <trkpt lat="25.4960140" lon="-100.6653130">
        <ele>2387.6</ele>
        <time>2022-08-20T15:14:42Z</time>
      </trkpt>
      <trkpt lat="25.4960130" lon="-100.6653080">
        <ele>2387.6</ele>
        <time>2022-08-20T15:16:15Z</time>
      </trkpt>
      <trkpt lat="25.4960130" lon="-100.6653080">
        <ele>2387.8</ele>
        <time>2022-08-20T15:16:23Z</time>
      </trkpt>
      <trkpt lat="25.4960130" lon="-100.6653080">
        <ele>2387.8</ele>
        <time>2022-08-20T15:16:26Z</time>
      </trkpt>
      <trkpt lat="25.4960190" lon="-100.6653090">
        <ele>2387.4</ele>
        <time>2022-08-20T15:17:06Z</time>
      </trkpt>
      <trkpt lat="25.4960170" lon="-100.6653110">
        <ele>2388.0</ele>
        <time>2022-08-20T15:18:35Z</time>
      </trkpt>
      <trkpt lat="25.4960170" lon="-100.6653110">
        <ele>2387.8</ele>
        <time>2022-08-20T15:18:48Z</time>
      </trkpt>
      <trkpt lat="25.4960280" lon="-100.6653150">
        <ele>2387.8</ele>
        <time>2022-08-20T15:19:25Z</time>
      </trkpt>
      <trkpt lat="25.4960310" lon="-100.6653260">
        <ele>2388.0</ele>
        <time>2022-08-20T15:20:32Z</time>
      </trkpt>
      <trkpt lat="25.4960340" lon="-100.6653340">
        <ele>2388.2</ele>
        <time>2022-08-20T15:20:49Z</time>
      </trkpt>
      <trkpt lat="25.4960410" lon="-100.6653470">
        <ele>2388.0</ele>
        <time>2022-08-20T15:21:17Z</time>
      </trkpt>
      <trkpt lat="25.4960360" lon="-100.6653530">
        <ele>2387.6</ele>
        <time>2022-08-20T15:21:44Z</time>
      </trkpt>
      <trkpt lat="25.4960430" lon="-100.6654460">
        <ele>2387.8</ele>
        <time>2022-08-20T15:21:55Z</time>
      </trkpt>
      <trkpt lat="25.4960490" lon="-100.6654670">
        <ele>2388.0</ele>
        <time>2022-08-20T15:22:05Z</time>
      </trkpt>
      <trkpt lat="25.4960660" lon="-100.6654780">
        <ele>2388.0</ele>
        <time>2022-08-20T15:22:17Z</time>
      </trkpt>
      <trkpt lat="25.4960680" lon="-100.6654840">
        <ele>2388.6</ele>
        <time>2022-08-20T15:22:39Z</time>
      </trkpt>
      <trkpt lat="25.4960680" lon="-100.6654860">
        <ele>2388.8</ele>
        <time>2022-08-20T15:22:54Z</time>
      </trkpt>
      <trkpt lat="25.4960650" lon="-100.6654810">
        <ele>2388.8</ele>
        <time>2022-08-20T15:24:03Z</time>
      </trkpt>
      <trkpt lat="25.4960650" lon="-100.6654890">
        <ele>2388.8</ele>
        <time>2022-08-20T15:24:12Z</time>
      </trkpt>
      <trkpt lat="25.4960720" lon="-100.6655020">
        <ele>2388.6</ele>
        <time>2022-08-20T15:24:26Z</time>
      </trkpt>
      <trkpt lat="25.4960670" lon="-100.6655040">
        <ele>2388.2</ele>
        <time>2022-08-20T15:24:42Z</time>
      </trkpt>
      <trkpt lat="25.4960670" lon="-100.6655140">
        <ele>2388.2</ele>
        <time>2022-08-20T15:24:55Z</time>
      </trkpt>
      <trkpt lat="25.4960650" lon="-100.6655160">
        <ele>2388.4</ele>
        <time>2022-08-20T15:25:15Z</time>
      </trkpt>
      <trkpt lat="25.4960640" lon="-100.6655080">
        <ele>2388.2</ele>
        <time>2022-08-20T15:25:32Z</time>
      </trkpt>
      <trkpt lat="25.4960650" lon="-100.6655070">
        <ele>2388.2</ele>
        <time>2022-08-20T15:25:49Z</time>
      </trkpt>
      <trkpt lat="25.4960630" lon="-100.6655080">
        <ele>2388.0</ele>
        <time>2022-08-20T15:26:04Z</time>
      </trkpt>
      <trkpt lat="25.4960650" lon="-100.6655230">
        <ele>2388.2</ele>
        <time>2022-08-20T15:26:11Z</time>
      </trkpt>
      <trkpt lat="25.4960710" lon="-100.6655680">
        <ele>2388.2</ele>
        <time>2022-08-20T15:26:14Z</time>
      </trkpt>
      <trkpt lat="25.4961070" lon="-100.6657350">
        <ele>2388.0</ele>
        <time>2022-08-20T15:26:21Z</time>
      </trkpt>
      <trkpt lat="25.4961890" lon="-100.6659880">
        <ele>2387.4</ele>
        <time>2022-08-20T15:26:28Z</time>
      </trkpt>
      <trkpt lat="25.4962820" lon="-100.6662910">
        <ele>2386.8</ele>
        <time>2022-08-20T15:26:34Z</time>
      </trkpt>
      <trkpt lat="25.4963510" lon="-100.6665220">
        <ele>2385.8</ele>
        <time>2022-08-20T15:26:38Z</time>
      </trkpt>
      <trkpt lat="25.4963950" lon="-100.6666360">
        <ele>2385.2</ele>
        <time>2022-08-20T15:26:40Z</time>
      </trkpt>
      <trkpt lat="25.4964260" lon="-100.6666870">
        <ele>2384.8</ele>
        <time>2022-08-20T15:26:41Z</time>
      </trkpt>
      <trkpt lat="25.4965380" lon="-100.6668270">
        <ele>2383.0</ele>
        <time>2022-08-20T15:26:44Z</time>
      </trkpt>
      <trkpt lat="25.4965650" lon="-100.6668850">
        <ele>2382.8</ele>
        <time>2022-08-20T15:26:45Z</time>
      </trkpt>
      <trkpt lat="25.4965870" lon="-100.6669440">
        <ele>2382.4</ele>
        <time>2022-08-20T15:26:46Z</time>
      </trkpt>
      <trkpt lat="25.4966020" lon="-100.6670020">
        <ele>2381.8</ele>
        <time>2022-08-20T15:26:47Z</time>
      </trkpt>
      <trkpt lat="25.4966360" lon="-100.6671570">
        <ele>2380.4</ele>
        <time>2022-08-20T15:26:50Z</time>
      </trkpt>
      <trkpt lat="25.4966540" lon="-100.6672030">
        <ele>2380.0</ele>
        <time>2022-08-20T15:26:51Z</time>
      </trkpt>
      <trkpt lat="25.4966710" lon="-100.6672550">
        <ele>2379.4</ele>
        <time>2022-08-20T15:26:52Z</time>
      </trkpt>
      <trkpt lat="25.4966870" lon="-100.6673080">
        <ele>2378.4</ele>
        <time>2022-08-20T15:26:53Z</time>
      </trkpt>
      <trkpt lat="25.4966990" lon="-100.6673620">
        <ele>2377.6</ele>
        <time>2022-08-20T15:26:54Z</time>
      </trkpt>
      <trkpt lat="25.4967280" lon="-100.6674700">
        <ele>2376.2</ele>
        <time>2022-08-20T15:26:56Z</time>
      </trkpt>
      <trkpt lat="25.4967540" lon="-100.6675690">
        <ele>2375.0</ele>
        <time>2022-08-20T15:26:58Z</time>
      </trkpt>
      <trkpt lat="25.4967870" lon="-100.6676780">
        <ele>2374.0</ele>
        <time>2022-08-20T15:27:00Z</time>
      </trkpt>
      <trkpt lat="25.4968170" lon="-100.6677350">
        <ele>2373.6</ele>
        <time>2022-08-20T15:27:01Z</time>
      </trkpt>
      <trkpt lat="25.4969190" lon="-100.6678310">
        <ele>2372.6</ele>
        <time>2022-08-20T15:27:03Z</time>
      </trkpt>
      <trkpt lat="25.4969840" lon="-100.6678660">
        <ele>2371.8</ele>
        <time>2022-08-20T15:27:04Z</time>
      </trkpt>
      <trkpt lat="25.4970510" lon="-100.6678910">
        <ele>2371.0</ele>
        <time>2022-08-20T15:27:05Z</time>
      </trkpt>
      <trkpt lat="25.4971740" lon="-100.6679080">
        <ele>2369.8</ele>
        <time>2022-08-20T15:27:07Z</time>
      </trkpt>
      <trkpt lat="25.4972270" lon="-100.6679000">
        <ele>2369.0</ele>
        <time>2022-08-20T15:27:08Z</time>
      </trkpt>
      <trkpt lat="25.4972750" lon="-100.6678850">
        <ele>2368.4</ele>
        <time>2022-08-20T15:27:09Z</time>
      </trkpt>
      <trkpt lat="25.4973490" lon="-100.6678430">
        <ele>2367.0</ele>
        <time>2022-08-20T15:27:11Z</time>
      </trkpt>
      <trkpt lat="25.4973770" lon="-100.6678190">
        <ele>2365.8</ele>
        <time>2022-08-20T15:27:12Z</time>
      </trkpt>
      <trkpt lat="25.4974270" lon="-100.6677660">
        <ele>2364.2</ele>
        <time>2022-08-20T15:27:14Z</time>
      </trkpt>
      <trkpt lat="25.4975180" lon="-100.6677160">
        <ele>2363.0</ele>
        <time>2022-08-20T15:27:18Z</time>
      </trkpt>
      <trkpt lat="25.4975480" lon="-100.6677900">
        <ele>2361.8</ele>
        <time>2022-08-20T15:27:23Z</time>
      </trkpt>
      <trkpt lat="25.4975310" lon="-100.6678200">
        <ele>2361.2</ele>
        <time>2022-08-20T15:27:28Z</time>
      </trkpt>
      <trkpt lat="25.4975260" lon="-100.6678230">
        <ele>2360.8</ele>
        <time>2022-08-20T15:27:36Z</time>
      </trkpt>
      <trkpt lat="25.4975230" lon="-100.6678240">
        <ele>2360.4</ele>
        <time>2022-08-20T15:27:43Z</time>
      </trkpt>
      <trkpt lat="25.4975140" lon="-100.6678310">
        <ele>2360.4</ele>
        <time>2022-08-20T15:27:59Z</time>
      </trkpt>
      <trkpt lat="25.4975110" lon="-100.6678310">
        <ele>2360.4</ele>
        <time>2022-08-20T15:28:17Z</time>
      </trkpt>
      <trkpt lat="25.4975230" lon="-100.6678260">
        <ele>2360.4</ele>
        <time>2022-08-20T15:28:26Z</time>
      </trkpt>
      <trkpt lat="25.4975240" lon="-100.6678350">
        <ele>2360.6</ele>
        <time>2022-08-20T15:28:42Z</time>
      </trkpt>
      <trkpt lat="25.4975110" lon="-100.6678670">
        <ele>2360.6</ele>
        <time>2022-08-20T15:28:54Z</time>
      </trkpt>
      <trkpt lat="25.4974970" lon="-100.6678940">
        <ele>2360.4</ele>
        <time>2022-08-20T15:28:56Z</time>
      </trkpt>
      <trkpt lat="25.4974770" lon="-100.6679630">
        <ele>2360.4</ele>
        <time>2022-08-20T15:28:59Z</time>
      </trkpt>
      <trkpt lat="25.4974600" lon="-100.6681720">
        <ele>2360.0</ele>
        <time>2022-08-20T15:29:05Z</time>
      </trkpt>
      <trkpt lat="25.4974850" lon="-100.6682840">
        <ele>2359.4</ele>
        <time>2022-08-20T15:29:08Z</time>
      </trkpt>
      <trkpt lat="25.4975190" lon="-100.6684400">
        <ele>2358.4</ele>
        <time>2022-08-20T15:29:11Z</time>
      </trkpt>
      <trkpt lat="25.4975520" lon="-100.6686260">
        <ele>2357.4</ele>
        <time>2022-08-20T15:29:14Z</time>
      </trkpt>
      <trkpt lat="25.4975970" lon="-100.6687500">
        <ele>2356.6</ele>
        <time>2022-08-20T15:29:16Z</time>
      </trkpt>
      <trkpt lat="25.4976260" lon="-100.6688120">
        <ele>2355.8</ele>
        <time>2022-08-20T15:29:17Z</time>
      </trkpt>
      <trkpt lat="25.4976810" lon="-100.6689390">
        <ele>2354.4</ele>
        <time>2022-08-20T15:29:19Z</time>
      </trkpt>
      <trkpt lat="25.4977360" lon="-100.6690590">
        <ele>2353.0</ele>
        <time>2022-08-20T15:29:21Z</time>
      </trkpt>
      <trkpt lat="25.4977620" lon="-100.6691030">
        <ele>2352.6</ele>
        <time>2022-08-20T15:29:22Z</time>
      </trkpt>
      <trkpt lat="25.4977880" lon="-100.6691420">
        <ele>2351.8</ele>
        <time>2022-08-20T15:29:23Z</time>
      </trkpt>
      <trkpt lat="25.4978540" lon="-100.6692350">
        <ele>2350.0</ele>
        <time>2022-08-20T15:29:25Z</time>
      </trkpt>
      <trkpt lat="25.4978950" lon="-100.6692860">
        <ele>2349.2</ele>
        <time>2022-08-20T15:29:26Z</time>
      </trkpt>
      <trkpt lat="25.4979400" lon="-100.6693430">
        <ele>2347.4</ele>
        <time>2022-08-20T15:29:27Z</time>
      </trkpt>
      <trkpt lat="25.4979890" lon="-100.6693990">
        <ele>2347.0</ele>
        <time>2022-08-20T15:29:28Z</time>
      </trkpt>
      <trkpt lat="25.4980430" lon="-100.6694510">
        <ele>2346.4</ele>
        <time>2022-08-20T15:29:29Z</time>
      </trkpt>
      <trkpt lat="25.4981000" lon="-100.6694920">
        <ele>2345.6</ele>
        <time>2022-08-20T15:29:30Z</time>
      </trkpt>
      <trkpt lat="25.4981600" lon="-100.6695310">
        <ele>2345.2</ele>
        <time>2022-08-20T15:29:31Z</time>
      </trkpt>
      <trkpt lat="25.4982650" lon="-100.6695920">
        <ele>2343.6</ele>
        <time>2022-08-20T15:29:33Z</time>
      </trkpt>
      <trkpt lat="25.4983000" lon="-100.6696180">
        <ele>2342.8</ele>
        <time>2022-08-20T15:29:34Z</time>
      </trkpt>
      <trkpt lat="25.4983300" lon="-100.6696380">
        <ele>2342.2</ele>
        <time>2022-08-20T15:29:35Z</time>
      </trkpt>
      <trkpt lat="25.4983750" lon="-100.6696690">
        <ele>2340.6</ele>
        <time>2022-08-20T15:29:37Z</time>
      </trkpt>
      <trkpt lat="25.4983960" lon="-100.6696810">
        <ele>2339.8</ele>
        <time>2022-08-20T15:29:38Z</time>
      </trkpt>
      <trkpt lat="25.4984240" lon="-100.6696960">
        <ele>2339.2</ele>
        <time>2022-08-20T15:29:39Z</time>
      </trkpt>
      <trkpt lat="25.4985280" lon="-100.6697730">
        <ele>2338.0</ele>
        <time>2022-08-20T15:29:42Z</time>
      </trkpt>
      <trkpt lat="25.4986280" lon="-100.6698790">
        <ele>2337.4</ele>
        <time>2022-08-20T15:29:45Z</time>
      </trkpt>
      <trkpt lat="25.4986950" lon="-100.6699480">
        <ele>2337.0</ele>
        <time>2022-08-20T15:29:47Z</time>
      </trkpt>
      <trkpt lat="25.4987310" lon="-100.6699820">
        <ele>2336.6</ele>
        <time>2022-08-20T15:29:48Z</time>
      </trkpt>
      <trkpt lat="25.4988220" lon="-100.6700610">
        <ele>2335.6</ele>
        <time>2022-08-20T15:29:50Z</time>
      </trkpt>
      <trkpt lat="25.4989240" lon="-100.6701460">
        <ele>2334.4</ele>
        <time>2022-08-20T15:29:52Z</time>
      </trkpt>
      <trkpt lat="25.4989700" lon="-100.6701880">
        <ele>2333.6</ele>
        <time>2022-08-20T15:29:53Z</time>
      </trkpt>
      <trkpt lat="25.4990140" lon="-100.6702280">
        <ele>2332.6</ele>
        <time>2022-08-20T15:29:54Z</time>
      </trkpt>
      <trkpt lat="25.4991050" lon="-100.6702940">
        <ele>2331.2</ele>
        <time>2022-08-20T15:29:56Z</time>
      </trkpt>
      <trkpt lat="25.4991990" lon="-100.6703590">
        <ele>2329.8</ele>
        <time>2022-08-20T15:29:58Z</time>
      </trkpt>
      <trkpt lat="25.4992490" lon="-100.6703910">
        <ele>2329.0</ele>
        <time>2022-08-20T15:29:59Z</time>
      </trkpt>
      <trkpt lat="25.4992990" lon="-100.6704190">
        <ele>2328.4</ele>
        <time>2022-08-20T15:30:00Z</time>
      </trkpt>
      <trkpt lat="25.4993490" lon="-100.6704390">
        <ele>2327.6</ele>
        <time>2022-08-20T15:30:01Z</time>
      </trkpt>
      <trkpt lat="25.4994020" lon="-100.6704500">
        <ele>2327.0</ele>
        <time>2022-08-20T15:30:02Z</time>
      </trkpt>
      <trkpt lat="25.4994600" lon="-100.6704470">
        <ele>2326.2</ele>
        <time>2022-08-20T15:30:03Z</time>
      </trkpt>
      <trkpt lat="25.4995210" lon="-100.6704350">
        <ele>2325.2</ele>
        <time>2022-08-20T15:30:04Z</time>
      </trkpt>
      <trkpt lat="25.4996280" lon="-100.6704220">
        <ele>2323.6</ele>
        <time>2022-08-20T15:30:06Z</time>
      </trkpt>
      <trkpt lat="25.4996710" lon="-100.6704390">
        <ele>2322.8</ele>
        <time>2022-08-20T15:30:07Z</time>
      </trkpt>
      <trkpt lat="25.4996980" lon="-100.6704720">
        <ele>2322.0</ele>
        <time>2022-08-20T15:30:08Z</time>
      </trkpt>
      <trkpt lat="25.4997120" lon="-100.6705650">
        <ele>2320.8</ele>
        <time>2022-08-20T15:30:10Z</time>
      </trkpt>
      <trkpt lat="25.4997060" lon="-100.6706190">
        <ele>2320.4</ele>
        <time>2022-08-20T15:30:11Z</time>
      </trkpt>
      <trkpt lat="25.4997030" lon="-100.6706690">
        <ele>2320.0</ele>
        <time>2022-08-20T15:30:12Z</time>
      </trkpt>
      <trkpt lat="25.4997070" lon="-100.6707260">
        <ele>2319.4</ele>
        <time>2022-08-20T15:30:13Z</time>
      </trkpt>
      <trkpt lat="25.4997480" lon="-100.6708330">
        <ele>2318.8</ele>
        <time>2022-08-20T15:30:15Z</time>
      </trkpt>
      <trkpt lat="25.4998270" lon="-100.6709100">
        <ele>2318.2</ele>
        <time>2022-08-20T15:30:17Z</time>
      </trkpt>
      <trkpt lat="25.4998780" lon="-100.6709310">
        <ele>2318.0</ele>
        <time>2022-08-20T15:30:18Z</time>
      </trkpt>
      <trkpt lat="25.5000210" lon="-100.6709470">
        <ele>2317.2</ele>
        <time>2022-08-20T15:30:21Z</time>
      </trkpt>
      <trkpt lat="25.5000630" lon="-100.6709520">
        <ele>2316.8</ele>
        <time>2022-08-20T15:30:22Z</time>
      </trkpt>
      <trkpt lat="25.5001010" lon="-100.6709610">
        <ele>2316.2</ele>
        <time>2022-08-20T15:30:23Z</time>
      </trkpt>
      <trkpt lat="25.5001350" lon="-100.6709730">
        <ele>2315.0</ele>
        <time>2022-08-20T15:30:24Z</time>
      </trkpt>
      <trkpt lat="25.5001820" lon="-100.6710140">
        <ele>2313.6</ele>
        <time>2022-08-20T15:30:26Z</time>
      </trkpt>
      <trkpt lat="25.5002360" lon="-100.6710520">
        <ele>2312.4</ele>
        <time>2022-08-20T15:30:28Z</time>
      </trkpt>
      <trkpt lat="25.5003150" lon="-100.6710490">
        <ele>2311.0</ele>
        <time>2022-08-20T15:30:30Z</time>
      </trkpt>
      <trkpt lat="25.5004120" lon="-100.6709520">
        <ele>2310.2</ele>
        <time>2022-08-20T15:30:33Z</time>
      </trkpt>
      <trkpt lat="25.5004650" lon="-100.6708860">
        <ele>2310.0</ele>
        <time>2022-08-20T15:30:35Z</time>
      </trkpt>
      <trkpt lat="25.5005230" lon="-100.6708730">
        <ele>2309.4</ele>
        <time>2022-08-20T15:30:37Z</time>
      </trkpt>
      <trkpt lat="25.5005580" lon="-100.6708920">
        <ele>2308.4</ele>
        <time>2022-08-20T15:30:39Z</time>
      </trkpt>
      <trkpt lat="25.5005920" lon="-100.6709230">
        <ele>2307.4</ele>
        <time>2022-08-20T15:30:41Z</time>
      </trkpt>
      <trkpt lat="25.5006100" lon="-100.6709390">
        <ele>2307.2</ele>
        <time>2022-08-20T15:30:42Z</time>
      </trkpt>
      <trkpt lat="25.5007730" lon="-100.6710470">
        <ele>2307.0</ele>
        <time>2022-08-20T15:30:49Z</time>
      </trkpt>
      <trkpt lat="25.5009540" lon="-100.6711420">
        <ele>2307.4</ele>
        <time>2022-08-20T15:30:55Z</time>
      </trkpt>
      <trkpt lat="25.5012160" lon="-100.6712530">
        <ele>2307.4</ele>
        <time>2022-08-20T15:31:02Z</time>
      </trkpt>
      <trkpt lat="25.5014620" lon="-100.6713650">
        <ele>2307.4</ele>
        <time>2022-08-20T15:31:07Z</time>
      </trkpt>
      <trkpt lat="25.5017910" lon="-100.6715310">
        <ele>2306.4</ele>
        <time>2022-08-20T15:31:13Z</time>
      </trkpt>
      <trkpt lat="25.5018410" lon="-100.6715560">
        <ele>2306.0</ele>
        <time>2022-08-20T15:31:14Z</time>
      </trkpt>
      <trkpt lat="25.5019320" lon="-100.6715970">
        <ele>2305.4</ele>
        <time>2022-08-20T15:31:16Z</time>
      </trkpt>
      <trkpt lat="25.5021350" lon="-100.6717070">
        <ele>2305.2</ele>
        <time>2022-08-20T15:31:20Z</time>
      </trkpt>
      <trkpt lat="25.5024710" lon="-100.6718820">
        <ele>2305.2</ele>
        <time>2022-08-20T15:31:27Z</time>
      </trkpt>
      <trkpt lat="25.5027240" lon="-100.6720210">
        <ele>2305.2</ele>
        <time>2022-08-20T15:31:32Z</time>
      </trkpt>
      <trkpt lat="25.5027710" lon="-100.6720580">
        <ele>2305.4</ele>
        <time>2022-08-20T15:31:33Z</time>
      </trkpt>
      <trkpt lat="25.5029870" lon="-100.6722600">
        <ele>2305.4</ele>
        <time>2022-08-20T15:31:39Z</time>
      </trkpt>
      <trkpt lat="25.5031510" lon="-100.6724970">
        <ele>2306.4</ele>
        <time>2022-08-20T15:31:45Z</time>
      </trkpt>
      <trkpt lat="25.5031880" lon="-100.6725450">
        <ele>2306.6</ele>
        <time>2022-08-20T15:31:46Z</time>
      </trkpt>
      <trkpt lat="25.5034420" lon="-100.6727710">
        <ele>2306.6</ele>
        <time>2022-08-20T15:31:51Z</time>
      </trkpt>
      <trkpt lat="25.5037250" lon="-100.6729060">
        <ele>2305.2</ele>
        <time>2022-08-20T15:31:56Z</time>
      </trkpt>
      <trkpt lat="25.5037810" lon="-100.6729300">
        <ele>2305.0</ele>
        <time>2022-08-20T15:31:57Z</time>
      </trkpt>
      <trkpt lat="25.5039000" lon="-100.6729880">
        <ele>2303.6</ele>
        <time>2022-08-20T15:31:59Z</time>
      </trkpt>
      <trkpt lat="25.5040760" lon="-100.6731080">
        <ele>2302.2</ele>
        <time>2022-08-20T15:32:02Z</time>
      </trkpt>
      <trkpt lat="25.5042560" lon="-100.6732590">
        <ele>2301.0</ele>
        <time>2022-08-20T15:32:05Z</time>
      </trkpt>
      <trkpt lat="25.5043380" lon="-100.6733710">
        <ele>2299.8</ele>
        <time>2022-08-20T15:32:07Z</time>
      </trkpt>
      <trkpt lat="25.5043930" lon="-100.6734790">
        <ele>2298.6</ele>
        <time>2022-08-20T15:32:09Z</time>
      </trkpt>
      <trkpt lat="25.5044710" lon="-100.6735750">
        <ele>2297.2</ele>
        <time>2022-08-20T15:32:11Z</time>
      </trkpt>
      <trkpt lat="25.5045170" lon="-100.6736220">
        <ele>2296.4</ele>
        <time>2022-08-20T15:32:12Z</time>
      </trkpt>
      <trkpt lat="25.5045650" lon="-100.6736690">
        <ele>2296.0</ele>
        <time>2022-08-20T15:32:13Z</time>
      </trkpt>
      <trkpt lat="25.5047210" lon="-100.6737990">
        <ele>2294.2</ele>
        <time>2022-08-20T15:32:16Z</time>
      </trkpt>
      <trkpt lat="25.5047720" lon="-100.6738370">
        <ele>2293.8</ele>
        <time>2022-08-20T15:32:17Z</time>
      </trkpt>
      <trkpt lat="25.5048740" lon="-100.6739110">
        <ele>2292.4</ele>
        <time>2022-08-20T15:32:19Z</time>
      </trkpt>
      <trkpt lat="25.5049750" lon="-100.6739820">
        <ele>2290.8</ele>
        <time>2022-08-20T15:32:21Z</time>
      </trkpt>
      <trkpt lat="25.5050260" lon="-100.6740180">
        <ele>2289.6</ele>
        <time>2022-08-20T15:32:22Z</time>
      </trkpt>
      <trkpt lat="25.5051350" lon="-100.6740910">
        <ele>2288.0</ele>
        <time>2022-08-20T15:32:24Z</time>
      </trkpt>
      <trkpt lat="25.5051900" lon="-100.6741280">
        <ele>2287.6</ele>
        <time>2022-08-20T15:32:25Z</time>
      </trkpt>
      <trkpt lat="25.5052480" lon="-100.6741670">
        <ele>2287.0</ele>
        <time>2022-08-20T15:32:26Z</time>
      </trkpt>
      <trkpt lat="25.5053620" lon="-100.6742510">
        <ele>2286.0</ele>
        <time>2022-08-20T15:32:28Z</time>
      </trkpt>
      <trkpt lat="25.5054660" lon="-100.6743480">
        <ele>2284.6</ele>
        <time>2022-08-20T15:32:30Z</time>
      </trkpt>
      <trkpt lat="25.5055110" lon="-100.6744040">
        <ele>2284.0</ele>
        <time>2022-08-20T15:32:31Z</time>
      </trkpt>
      <trkpt lat="25.5055500" lon="-100.6744640">
        <ele>2283.2</ele>
        <time>2022-08-20T15:32:32Z</time>
      </trkpt>
      <trkpt lat="25.5056170" lon="-100.6745860">
        <ele>2281.8</ele>
        <time>2022-08-20T15:32:34Z</time>
      </trkpt>
      <trkpt lat="25.5056360" lon="-100.6746510">
        <ele>2280.6</ele>
        <time>2022-08-20T15:32:35Z</time>
      </trkpt>
      <trkpt lat="25.5056470" lon="-100.6747190">
        <ele>2279.6</ele>
        <time>2022-08-20T15:32:36Z</time>
      </trkpt>
      <trkpt lat="25.5056620" lon="-100.6748550">
        <ele>2278.0</ele>
        <time>2022-08-20T15:32:38Z</time>
      </trkpt>
      <trkpt lat="25.5056660" lon="-100.6749240">
        <ele>2277.2</ele>
        <time>2022-08-20T15:32:39Z</time>
      </trkpt>
      <trkpt lat="25.5056710" lon="-100.6749910">
        <ele>2276.6</ele>
        <time>2022-08-20T15:32:40Z</time>
      </trkpt>
      <trkpt lat="25.5056900" lon="-100.6751660">
        <ele>2275.2</ele>
        <time>2022-08-20T15:32:43Z</time>
      </trkpt>
      <trkpt lat="25.5056930" lon="-100.6752710">
        <ele>2274.2</ele>
        <time>2022-08-20T15:32:45Z</time>
      </trkpt>
      <trkpt lat="25.5056880" lon="-100.6753270">
        <ele>2273.8</ele>
        <time>2022-08-20T15:32:46Z</time>
      </trkpt>
      <trkpt lat="25.5056770" lon="-100.6754510">
        <ele>2273.0</ele>
        <time>2022-08-20T15:32:48Z</time>
      </trkpt>
      <trkpt lat="25.5056910" lon="-100.6756720">
        <ele>2271.6</ele>
        <time>2022-08-20T15:32:51Z</time>
      </trkpt>
      <trkpt lat="25.5057080" lon="-100.6758360">
        <ele>2270.4</ele>
        <time>2022-08-20T15:32:53Z</time>
      </trkpt>
      <trkpt lat="25.5057330" lon="-100.6760420">
        <ele>2269.0</ele>
        <time>2022-08-20T15:32:56Z</time>
      </trkpt>
      <trkpt lat="25.5057460" lon="-100.6761080">
        <ele>2268.4</ele>
        <time>2022-08-20T15:32:57Z</time>
      </trkpt>
      <trkpt lat="25.5057610" lon="-100.6761720">
        <ele>2268.0</ele>
        <time>2022-08-20T15:32:58Z</time>
      </trkpt>
      <trkpt lat="25.5057670" lon="-100.6762400">
        <ele>2267.6</ele>
        <time>2022-08-20T15:32:59Z</time>
      </trkpt>
      <trkpt lat="25.5057600" lon="-100.6763070">
        <ele>2266.8</ele>
        <time>2022-08-20T15:33:00Z</time>
      </trkpt>
      <trkpt lat="25.5057400" lon="-100.6763730">
        <ele>2266.0</ele>
        <time>2022-08-20T15:33:01Z</time>
      </trkpt>
      <trkpt lat="25.5057080" lon="-100.6764330">
        <ele>2265.4</ele>
        <time>2022-08-20T15:33:02Z</time>
      </trkpt>
      <trkpt lat="25.5056190" lon="-100.6765270">
        <ele>2264.0</ele>
        <time>2022-08-20T15:33:04Z</time>
      </trkpt>
      <trkpt lat="25.5055160" lon="-100.6765790">
        <ele>2262.8</ele>
        <time>2022-08-20T15:33:06Z</time>
      </trkpt>
      <trkpt lat="25.5054690" lon="-100.6765990">
        <ele>2262.0</ele>
        <time>2022-08-20T15:33:07Z</time>
      </trkpt>
      <trkpt lat="25.5054310" lon="-100.6766260">
        <ele>2261.4</ele>
        <time>2022-08-20T15:33:08Z</time>
      </trkpt>
      <trkpt lat="25.5053930" lon="-100.6766910">
        <ele>2260.4</ele>
        <time>2022-08-20T15:33:10Z</time>
      </trkpt>
      <trkpt lat="25.5053950" lon="-100.6767200">
        <ele>2259.8</ele>
        <time>2022-08-20T15:33:11Z</time>
      </trkpt>
      <trkpt lat="25.5054030" lon="-100.6767520">
        <ele>2258.4</ele>
        <time>2022-08-20T15:33:12Z</time>
      </trkpt>
      <trkpt lat="25.5054160" lon="-100.6768340">
        <ele>2256.6</ele>
        <time>2022-08-20T15:33:14Z</time>
      </trkpt>
      <trkpt lat="25.5054180" lon="-100.6768730">
        <ele>2256.0</ele>
        <time>2022-08-20T15:33:15Z</time>
      </trkpt>
      <trkpt lat="25.5054230" lon="-100.6769100">
        <ele>2255.4</ele>
        <time>2022-08-20T15:33:16Z</time>
      </trkpt>
      <trkpt lat="25.5054880" lon="-100.6770110">
        <ele>2255.0</ele>
        <time>2022-08-20T15:33:20Z</time>
      </trkpt>
      <trkpt lat="25.5056530" lon="-100.6770620">
        <ele>2254.8</ele>
        <time>2022-08-20T15:33:25Z</time>
      </trkpt>
      <trkpt lat="25.5057830" lon="-100.6771140">
        <ele>2254.8</ele>
        <time>2022-08-20T15:33:30Z</time>
      </trkpt>
      <trkpt lat="25.5059220" lon="-100.6771600">
        <ele>2255.0</ele>
        <time>2022-08-20T15:33:37Z</time>
      </trkpt>
      <trkpt lat="25.5060200" lon="-100.6772890">
        <ele>2255.6</ele>
        <time>2022-08-20T15:33:44Z</time>
      </trkpt>
      <trkpt lat="25.5060420" lon="-100.6774010">
        <ele>2256.6</ele>
        <time>2022-08-20T15:33:48Z</time>
      </trkpt>
      <trkpt lat="25.5060460" lon="-100.6774530">
        <ele>2257.0</ele>
        <time>2022-08-20T15:33:50Z</time>
      </trkpt>
      <trkpt lat="25.5060750" lon="-100.6776310">
        <ele>2257.6</ele>
        <time>2022-08-20T15:33:57Z</time>
      </trkpt>
      <trkpt lat="25.5061180" lon="-100.6779010">
        <ele>2258.8</ele>
        <time>2022-08-20T15:34:07Z</time>
      </trkpt>
      <trkpt lat="25.5061230" lon="-100.6779290">
        <ele>2258.8</ele>
        <time>2022-08-20T15:34:08Z</time>
      </trkpt>
      <trkpt lat="25.5061460" lon="-100.6781670">
        <ele>2259.4</ele>
        <time>2022-08-20T15:34:17Z</time>
      </trkpt>
      <trkpt lat="25.5061340" lon="-100.6783790">
        <ele>2259.8</ele>
        <time>2022-08-20T15:34:24Z</time>
      </trkpt>
      <trkpt lat="25.5061220" lon="-100.6785470">
        <ele>2259.8</ele>
        <time>2022-08-20T15:34:29Z</time>
      </trkpt>
      <trkpt lat="25.5060940" lon="-100.6786940">
        <ele>2259.8</ele>
        <time>2022-08-20T15:34:33Z</time>
      </trkpt>
      <trkpt lat="25.5060210" lon="-100.6789850">
        <ele>2260.0</ele>
        <time>2022-08-20T15:34:41Z</time>
      </trkpt>
      <trkpt lat="25.5060280" lon="-100.6792590">
        <ele>2260.0</ele>
        <time>2022-08-20T15:34:47Z</time>
      </trkpt>
      <trkpt lat="25.5060340" lon="-100.6793080">
        <ele>2260.0</ele>
        <time>2022-08-20T15:34:48Z</time>
      </trkpt>
      <trkpt lat="25.5061060" lon="-100.6794910">
        <ele>2260.0</ele>
        <time>2022-08-20T15:34:52Z</time>
      </trkpt>
      <trkpt lat="25.5061300" lon="-100.6795340">
        <ele>2260.0</ele>
        <time>2022-08-20T15:34:53Z</time>
      </trkpt>
      <trkpt lat="25.5061800" lon="-100.6796180">
        <ele>2260.0</ele>
        <time>2022-08-20T15:34:55Z</time>
      </trkpt>
      <trkpt lat="25.5062140" lon="-100.6797130">
        <ele>2260.0</ele>
        <time>2022-08-20T15:34:57Z</time>
      </trkpt>
      <trkpt lat="25.5063320" lon="-100.6800270">
        <ele>2260.2</ele>
        <time>2022-08-20T15:35:04Z</time>
      </trkpt>
      <trkpt lat="25.5063920" lon="-100.6803500">
        <ele>2260.2</ele>
        <time>2022-08-20T15:35:10Z</time>
      </trkpt>
      <trkpt lat="25.5064210" lon="-100.6807610">
        <ele>2260.0</ele>
        <time>2022-08-20T15:35:16Z</time>
      </trkpt>
      <trkpt lat="25.5064930" lon="-100.6809640">
        <ele>2259.2</ele>
        <time>2022-08-20T15:35:19Z</time>
      </trkpt>
      <trkpt lat="25.5065420" lon="-100.6810230">
        <ele>2259.0</ele>
        <time>2022-08-20T15:35:20Z</time>
      </trkpt>
      <trkpt lat="25.5066650" lon="-100.6811250">
        <ele>2258.6</ele>
        <time>2022-08-20T15:35:22Z</time>
      </trkpt>
      <trkpt lat="25.5068110" lon="-100.6812100">
        <ele>2257.6</ele>
        <time>2022-08-20T15:35:24Z</time>
      </trkpt>
      <trkpt lat="25.5068850" lon="-100.6812470">
        <ele>2256.8</ele>
        <time>2022-08-20T15:35:25Z</time>
      </trkpt>
      <trkpt lat="25.5069590" lon="-100.6812820">
        <ele>2256.2</ele>
        <time>2022-08-20T15:35:26Z</time>
      </trkpt>
      <trkpt lat="25.5070320" lon="-100.6813190">
        <ele>2255.8</ele>
        <time>2022-08-20T15:35:27Z</time>
      </trkpt>
      <trkpt lat="25.5071030" lon="-100.6813550">
        <ele>2255.2</ele>
        <time>2022-08-20T15:35:28Z</time>
      </trkpt>
      <trkpt lat="25.5072300" lon="-100.6814270">
        <ele>2253.6</ele>
        <time>2022-08-20T15:35:30Z</time>
      </trkpt>
      <trkpt lat="25.5073570" lon="-100.6815010">
        <ele>2252.4</ele>
        <time>2022-08-20T15:35:32Z</time>
      </trkpt>
      <trkpt lat="25.5074200" lon="-100.6815380">
        <ele>2251.8</ele>
        <time>2022-08-20T15:35:33Z</time>
      </trkpt>
      <trkpt lat="25.5074820" lon="-100.6815730">
        <ele>2251.4</ele>
        <time>2022-08-20T15:35:34Z</time>
      </trkpt>
      <trkpt lat="25.5076760" lon="-100.6816810">
        <ele>2250.4</ele>
        <time>2022-08-20T15:35:37Z</time>
      </trkpt>
      <trkpt lat="25.5078040" lon="-100.6817750">
        <ele>2249.4</ele>
        <time>2022-08-20T15:35:39Z</time>
      </trkpt>
      <trkpt lat="25.5078640" lon="-100.6818270">
        <ele>2248.8</ele>
        <time>2022-08-20T15:35:40Z</time>
      </trkpt>
      <trkpt lat="25.5080550" lon="-100.6819890">
        <ele>2247.4</ele>
        <time>2022-08-20T15:35:43Z</time>
      </trkpt>
      <trkpt lat="25.5081830" lon="-100.6820820">
        <ele>2246.6</ele>
        <time>2022-08-20T15:35:45Z</time>
      </trkpt>
      <trkpt lat="25.5082450" lon="-100.6821290">
        <ele>2246.0</ele>
        <time>2022-08-20T15:35:46Z</time>
      </trkpt>
      <trkpt lat="25.5084510" lon="-100.6822890">
        <ele>2244.6</ele>
        <time>2022-08-20T15:35:49Z</time>
      </trkpt>
      <trkpt lat="25.5085600" lon="-100.6823630">
        <ele>2244.0</ele>
        <time>2022-08-20T15:35:51Z</time>
      </trkpt>
      <trkpt lat="25.5087090" lon="-100.6824570">
        <ele>2243.2</ele>
        <time>2022-08-20T15:35:54Z</time>
      </trkpt>
      <trkpt lat="25.5087940" lon="-100.6825570">
        <ele>2242.4</ele>
        <time>2022-08-20T15:35:56Z</time>
      </trkpt>
      <trkpt lat="25.5088330" lon="-100.6826200">
        <ele>2242.0</ele>
        <time>2022-08-20T15:35:57Z</time>
      </trkpt>
      <trkpt lat="25.5089170" lon="-100.6828540">
        <ele>2240.4</ele>
        <time>2022-08-20T15:36:00Z</time>
      </trkpt>
      <trkpt lat="25.5089650" lon="-100.6830290">
        <ele>2239.4</ele>
        <time>2022-08-20T15:36:02Z</time>
      </trkpt>
      <trkpt lat="25.5090100" lon="-100.6832040">
        <ele>2238.6</ele>
        <time>2022-08-20T15:36:04Z</time>
      </trkpt>
      <trkpt lat="25.5090880" lon="-100.6834620">
        <ele>2236.8</ele>
        <time>2022-08-20T15:36:07Z</time>
      </trkpt>
      <trkpt lat="25.5091670" lon="-100.6837330">
        <ele>2235.2</ele>
        <time>2022-08-20T15:36:10Z</time>
      </trkpt>
      <trkpt lat="25.5092500" lon="-100.6840140">
        <ele>2234.0</ele>
        <time>2022-08-20T15:36:13Z</time>
      </trkpt>
      <trkpt lat="25.5092770" lon="-100.6841110">
        <ele>2233.6</ele>
        <time>2022-08-20T15:36:14Z</time>
      </trkpt>
      <trkpt lat="25.5093300" lon="-100.6843110">
        <ele>2232.8</ele>
        <time>2022-08-20T15:36:16Z</time>
      </trkpt>
      <trkpt lat="25.5094600" lon="-100.6847010">
        <ele>2231.0</ele>
        <time>2022-08-20T15:36:20Z</time>
      </trkpt>
      <trkpt lat="25.5095000" lon="-100.6847930">
        <ele>2230.2</ele>
        <time>2022-08-20T15:36:21Z</time>
      </trkpt>
      <trkpt lat="25.5095430" lon="-100.6848730">
        <ele>2229.8</ele>
        <time>2022-08-20T15:36:22Z</time>
      </trkpt>
      <trkpt lat="25.5096480" lon="-100.6849950">
        <ele>2228.6</ele>
        <time>2022-08-20T15:36:24Z</time>
      </trkpt>
      <trkpt lat="25.5098320" lon="-100.6850680">
        <ele>2227.2</ele>
        <time>2022-08-20T15:36:27Z</time>
      </trkpt>
      <trkpt lat="25.5099860" lon="-100.6851260">
        <ele>2226.2</ele>
        <time>2022-08-20T15:36:30Z</time>
      </trkpt>
      <trkpt lat="25.5100710" lon="-100.6852130">
        <ele>2225.6</ele>
        <time>2022-08-20T15:36:32Z</time>
      </trkpt>
      <trkpt lat="25.5101190" lon="-100.6853340">
        <ele>2225.0</ele>
        <time>2022-08-20T15:36:34Z</time>
      </trkpt>
      <trkpt lat="25.5101270" lon="-100.6854050">
        <ele>2224.6</ele>
        <time>2022-08-20T15:36:35Z</time>
      </trkpt>
      <trkpt lat="25.5101280" lon="-100.6854790">
        <ele>2224.4</ele>
        <time>2022-08-20T15:36:36Z</time>
      </trkpt>
      <trkpt lat="25.5101260" lon="-100.6856320">
        <ele>2223.4</ele>
        <time>2022-08-20T15:36:38Z</time>
      </trkpt>
      <trkpt lat="25.5101280" lon="-100.6857790">
        <ele>2222.2</ele>
        <time>2022-08-20T15:36:40Z</time>
      </trkpt>
      <trkpt lat="25.5101350" lon="-100.6858420">
        <ele>2221.6</ele>
        <time>2022-08-20T15:36:41Z</time>
      </trkpt>
      <trkpt lat="25.5101400" lon="-100.6859030">
        <ele>2220.6</ele>
        <time>2022-08-20T15:36:42Z</time>
      </trkpt>
      <trkpt lat="25.5101430" lon="-100.6859640">
        <ele>2219.6</ele>
        <time>2022-08-20T15:36:43Z</time>
      </trkpt>
      <trkpt lat="25.5101420" lon="-100.6860200">
        <ele>2218.4</ele>
        <time>2022-08-20T15:36:44Z</time>
      </trkpt>
      <trkpt lat="25.5101370" lon="-100.6860790">
        <ele>2217.6</ele>
        <time>2022-08-20T15:36:45Z</time>
      </trkpt>
      <trkpt lat="25.5101230" lon="-100.6861890">
        <ele>2215.8</ele>
        <time>2022-08-20T15:36:47Z</time>
      </trkpt>
      <trkpt lat="25.5101070" lon="-100.6862880">
        <ele>2214.2</ele>
        <time>2022-08-20T15:36:49Z</time>
      </trkpt>
      <trkpt lat="25.5100940" lon="-100.6863760">
        <ele>2212.8</ele>
        <time>2022-08-20T15:36:51Z</time>
      </trkpt>
      <trkpt lat="25.5100800" lon="-100.6864630">
        <ele>2211.6</ele>
        <time>2022-08-20T15:36:53Z</time>
      </trkpt>
      <trkpt lat="25.5100640" lon="-100.6865610">
        <ele>2210.6</ele>
        <time>2022-08-20T15:36:55Z</time>
      </trkpt>
      <trkpt lat="25.5100370" lon="-100.6866700">
        <ele>2209.4</ele>
        <time>2022-08-20T15:36:57Z</time>
      </trkpt>
      <trkpt lat="25.5100220" lon="-100.6867260">
        <ele>2208.4</ele>
        <time>2022-08-20T15:36:58Z</time>
      </trkpt>
      <trkpt lat="25.5100080" lon="-100.6867760">
        <ele>2207.0</ele>
        <time>2022-08-20T15:36:59Z</time>
      </trkpt>
      <trkpt lat="25.5099760" lon="-100.6868660">
        <ele>2205.8</ele>
        <time>2022-08-20T15:37:01Z</time>
      </trkpt>
      <trkpt lat="25.5099130" lon="-100.6869860">
        <ele>2204.2</ele>
        <time>2022-08-20T15:37:04Z</time>
      </trkpt>
      <trkpt lat="25.5098620" lon="-100.6870600">
        <ele>2203.2</ele>
        <time>2022-08-20T15:37:06Z</time>
      </trkpt>
      <trkpt lat="25.5098120" lon="-100.6871410">
        <ele>2202.2</ele>
        <time>2022-08-20T15:37:08Z</time>
      </trkpt>
      <trkpt lat="25.5097690" lon="-100.6872070">
        <ele>2201.2</ele>
        <time>2022-08-20T15:37:10Z</time>
      </trkpt>
      <trkpt lat="25.5097560" lon="-100.6872230">
        <ele>2200.8</ele>
        <time>2022-08-20T15:37:11Z</time>
      </trkpt>
      <trkpt lat="25.5097330" lon="-100.6872480">
        <ele>2200.2</ele>
        <time>2022-08-20T15:37:14Z</time>
      </trkpt>
      <trkpt lat="25.5097170" lon="-100.6872630">
        <ele>2200.0</ele>
        <time>2022-08-20T15:37:16Z</time>
      </trkpt>
      <trkpt lat="25.5096770" lon="-100.6873290">
        <ele>2199.8</ele>
        <time>2022-08-20T15:37:22Z</time>
      </trkpt>
      <trkpt lat="25.5096040" lon="-100.6874620">
        <ele>2200.2</ele>
        <time>2022-08-20T15:37:29Z</time>
      </trkpt>
      <trkpt lat="25.5095900" lon="-100.6876280">
        <ele>2200.8</ele>
        <time>2022-08-20T15:37:36Z</time>
      </trkpt>
      <trkpt lat="25.5095940" lon="-100.6876460">
        <ele>2201.0</ele>
        <time>2022-08-20T15:37:37Z</time>
      </trkpt>
      <trkpt lat="25.5096140" lon="-100.6877360">
        <ele>2202.0</ele>
        <time>2022-08-20T15:37:42Z</time>
      </trkpt>
      <trkpt lat="25.5096250" lon="-100.6877650">
        <ele>2202.4</ele>
        <time>2022-08-20T15:37:44Z</time>
      </trkpt>
      <trkpt lat="25.5096520" lon="-100.6878090">
        <ele>2203.6</ele>
        <time>2022-08-20T15:37:47Z</time>
      </trkpt>
      <trkpt lat="25.5097010" lon="-100.6878840">
        <ele>2204.8</ele>
        <time>2022-08-20T15:37:53Z</time>
      </trkpt>
      <trkpt lat="25.5097420" lon="-100.6879370">
        <ele>2206.0</ele>
        <time>2022-08-20T15:37:58Z</time>
      </trkpt>
      <trkpt lat="25.5097560" lon="-100.6879560">
        <ele>2206.4</ele>
        <time>2022-08-20T15:38:00Z</time>
      </trkpt>
      <trkpt lat="25.5097800" lon="-100.6880070">
        <ele>2207.0</ele>
        <time>2022-08-20T15:38:05Z</time>
      </trkpt>
      <trkpt lat="25.5097940" lon="-100.6880380">
        <ele>2207.6</ele>
        <time>2022-08-20T15:38:08Z</time>
      </trkpt>
      <trkpt lat="25.5098050" lon="-100.6880650">
        <ele>2208.2</ele>
        <time>2022-08-20T15:38:10Z</time>
      </trkpt>
      <trkpt lat="25.5098230" lon="-100.6881150">
        <ele>2209.4</ele>
        <time>2022-08-20T15:38:15Z</time>
      </trkpt>
      <trkpt lat="25.5098330" lon="-100.6881490">
        <ele>2210.4</ele>
        <time>2022-08-20T15:38:20Z</time>
      </trkpt>
      <trkpt lat="25.5098460" lon="-100.6881770">
        <ele>2211.0</ele>
        <time>2022-08-20T15:38:23Z</time>
      </trkpt>
      <trkpt lat="25.5098610" lon="-100.6882030">
        <ele>2211.4</ele>
        <time>2022-08-20T15:38:25Z</time>
      </trkpt>
      <trkpt lat="25.5098920" lon="-100.6882820">
        <ele>2212.2</ele>
        <time>2022-08-20T15:38:30Z</time>
      </trkpt>
      <trkpt lat="25.5098980" lon="-100.6883070">
        <ele>2212.6</ele>
        <time>2022-08-20T15:38:32Z</time>
      </trkpt>
      <trkpt lat="25.5099160" lon="-100.6883900">
        <ele>2213.4</ele>
        <time>2022-08-20T15:38:37Z</time>
      </trkpt>
      <trkpt lat="25.5099230" lon="-100.6884090">
        <ele>2213.6</ele>
        <time>2022-08-20T15:38:38Z</time>
      </trkpt>
      <trkpt lat="25.5099640" lon="-100.6885120">
        <ele>2214.6</ele>
        <time>2022-08-20T15:38:44Z</time>
      </trkpt>
      <trkpt lat="25.5099900" lon="-100.6886530">
        <ele>2215.8</ele>
        <time>2022-08-20T15:38:51Z</time>
      </trkpt>
      <trkpt lat="25.5099940" lon="-100.6887150">
        <ele>2216.4</ele>
        <time>2022-08-20T15:38:54Z</time>
      </trkpt>
      <trkpt lat="25.5099920" lon="-100.6887590">
        <ele>2216.8</ele>
        <time>2022-08-20T15:38:56Z</time>
      </trkpt>
      <trkpt lat="25.5099920" lon="-100.6888250">
        <ele>2217.2</ele>
        <time>2022-08-20T15:38:59Z</time>
      </trkpt>
      <trkpt lat="25.5099750" lon="-100.6889700">
        <ele>2218.0</ele>
        <time>2022-08-20T15:39:04Z</time>
      </trkpt>
      <trkpt lat="25.5099700" lon="-100.6890060">
        <ele>2218.0</ele>
        <time>2022-08-20T15:39:05Z</time>
      </trkpt>
      <trkpt lat="25.5099920" lon="-100.6892030">
        <ele>2218.2</ele>
        <time>2022-08-20T15:39:10Z</time>
      </trkpt>
      <trkpt lat="25.5100390" lon="-100.6893810">
        <ele>2218.4</ele>
        <time>2022-08-20T15:39:14Z</time>
      </trkpt>
      <trkpt lat="25.5100720" lon="-100.6895390">
        <ele>2218.4</ele>
        <time>2022-08-20T15:39:17Z</time>
      </trkpt>
      <trkpt lat="25.5101560" lon="-100.6899000">
        <ele>2217.6</ele>
        <time>2022-08-20T15:39:23Z</time>
      </trkpt>
      <trkpt lat="25.5101870" lon="-100.6901900">
        <ele>2216.8</ele>
        <time>2022-08-20T15:39:27Z</time>
      </trkpt>
      <trkpt lat="25.5101580" lon="-100.6903340">
        <ele>2216.2</ele>
        <time>2022-08-20T15:39:29Z</time>
      </trkpt>
      <trkpt lat="25.5101160" lon="-100.6904750">
        <ele>2215.6</ele>
        <time>2022-08-20T15:39:31Z</time>
      </trkpt>
      <trkpt lat="25.5100690" lon="-100.6906170">
        <ele>2214.6</ele>
        <time>2022-08-20T15:39:33Z</time>
      </trkpt>
      <trkpt lat="25.5099510" lon="-100.6909200">
        <ele>2213.8</ele>
        <time>2022-08-20T15:39:37Z</time>
      </trkpt>
      <trkpt lat="25.5099030" lon="-100.6910400">
        <ele>2213.6</ele>
        <time>2022-08-20T15:39:39Z</time>
      </trkpt>
      <trkpt lat="25.5098890" lon="-100.6911600">
        <ele>2213.4</ele>
        <time>2022-08-20T15:39:41Z</time>
      </trkpt>
      <trkpt lat="25.5098840" lon="-100.6912740">
        <ele>2212.2</ele>
        <time>2022-08-20T15:39:43Z</time>
      </trkpt>
      <trkpt lat="25.5098850" lon="-100.6913250">
        <ele>2211.2</ele>
        <time>2022-08-20T15:39:44Z</time>
      </trkpt>
      <trkpt lat="25.5098770" lon="-100.6913740">
        <ele>2210.0</ele>
        <time>2022-08-20T15:39:45Z</time>
      </trkpt>
      <trkpt lat="25.5098620" lon="-100.6914230">
        <ele>2209.4</ele>
        <time>2022-08-20T15:39:46Z</time>
      </trkpt>
      <trkpt lat="25.5098420" lon="-100.6914740">
        <ele>2208.6</ele>
        <time>2022-08-20T15:39:47Z</time>
      </trkpt>
      <trkpt lat="25.5098050" lon="-100.6915850">
        <ele>2206.8</ele>
        <time>2022-08-20T15:39:49Z</time>
      </trkpt>
      <trkpt lat="25.5097950" lon="-100.6916440">
        <ele>2206.2</ele>
        <time>2022-08-20T15:39:50Z</time>
      </trkpt>
      <trkpt lat="25.5097840" lon="-100.6917030">
        <ele>2205.4</ele>
        <time>2022-08-20T15:39:51Z</time>
      </trkpt>
      <trkpt lat="25.5097730" lon="-100.6917630">
        <ele>2204.6</ele>
        <time>2022-08-20T15:39:52Z</time>
      </trkpt>
      <trkpt lat="25.5097570" lon="-100.6918270">
        <ele>2204.0</ele>
        <time>2022-08-20T15:39:53Z</time>
      </trkpt>
      <trkpt lat="25.5097110" lon="-100.6919590">
        <ele>2202.6</ele>
        <time>2022-08-20T15:39:55Z</time>
      </trkpt>
      <trkpt lat="25.5096310" lon="-100.6920980">
        <ele>2201.4</ele>
        <time>2022-08-20T15:39:57Z</time>
      </trkpt>
      <trkpt lat="25.5096030" lon="-100.6921550">
        <ele>2201.0</ele>
        <time>2022-08-20T15:39:58Z</time>
      </trkpt>
      <trkpt lat="25.5095740" lon="-100.6922000">
        <ele>2200.4</ele>
        <time>2022-08-20T15:39:59Z</time>
      </trkpt>
      <trkpt lat="25.5095220" lon="-100.6922890">
        <ele>2199.4</ele>
        <time>2022-08-20T15:40:01Z</time>
      </trkpt>
      <trkpt lat="25.5095000" lon="-100.6923440">
        <ele>2198.2</ele>
        <time>2022-08-20T15:40:02Z</time>
      </trkpt>
      <trkpt lat="25.5094740" lon="-100.6924610">
        <ele>2196.8</ele>
        <time>2022-08-20T15:40:04Z</time>
      </trkpt>
      <trkpt lat="25.5094660" lon="-100.6925300">
        <ele>2196.2</ele>
        <time>2022-08-20T15:40:05Z</time>
      </trkpt>
      <trkpt lat="25.5094700" lon="-100.6926610">
        <ele>2195.6</ele>
        <time>2022-08-20T15:40:07Z</time>
      </trkpt>
      <trkpt lat="25.5094950" lon="-100.6928400">
        <ele>2195.4</ele>
        <time>2022-08-20T15:40:10Z</time>
      </trkpt>
      <trkpt lat="25.5095290" lon="-100.6929370">
        <ele>2195.4</ele>
        <time>2022-08-20T15:40:12Z</time>
      </trkpt>
      <trkpt lat="25.5095400" lon="-100.6929900">
        <ele>2195.4</ele>
        <time>2022-08-20T15:40:13Z</time>
      </trkpt>
      <trkpt lat="25.5095480" lon="-100.6931370">
        <ele>2195.4</ele>
        <time>2022-08-20T15:40:16Z</time>
      </trkpt>
      <trkpt lat="25.5095610" lon="-100.6933130">
        <ele>2195.4</ele>
        <time>2022-08-20T15:40:21Z</time>
      </trkpt>
      <trkpt lat="25.5095970" lon="-100.6934530">
        <ele>2196.8</ele>
        <time>2022-08-20T15:40:26Z</time>
      </trkpt>
      <trkpt lat="25.5096220" lon="-100.6935430">
        <ele>2198.0</ele>
        <time>2022-08-20T15:40:29Z</time>
      </trkpt>
      <trkpt lat="25.5096230" lon="-100.6936130">
        <ele>2198.8</ele>
        <time>2022-08-20T15:40:31Z</time>
      </trkpt>
      <trkpt lat="25.5096180" lon="-100.6936450">
        <ele>2199.2</ele>
        <time>2022-08-20T15:40:32Z</time>
      </trkpt>
      <trkpt lat="25.5095940" lon="-100.6937680">
        <ele>2200.4</ele>
        <time>2022-08-20T15:40:36Z</time>
      </trkpt>
      <trkpt lat="25.5095630" lon="-100.6939010">
        <ele>2201.8</ele>
        <time>2022-08-20T15:40:40Z</time>
      </trkpt>
      <trkpt lat="25.5095520" lon="-100.6939370">
        <ele>2202.2</ele>
        <time>2022-08-20T15:40:41Z</time>
      </trkpt>
      <trkpt lat="25.5094670" lon="-100.6941240">
        <ele>2202.4</ele>
        <time>2022-08-20T15:40:46Z</time>
      </trkpt>
      <trkpt lat="25.5093680" lon="-100.6944100">
        <ele>2202.6</ele>
        <time>2022-08-20T15:40:52Z</time>
      </trkpt>
      <trkpt lat="25.5093410" lon="-100.6944590">
        <ele>2202.6</ele>
        <time>2022-08-20T15:40:53Z</time>
      </trkpt>
      <trkpt lat="25.5091430" lon="-100.6947050">
        <ele>2202.6</ele>
        <time>2022-08-20T15:40:58Z</time>
      </trkpt>
      <trkpt lat="25.5088620" lon="-100.6949970">
        <ele>2201.8</ele>
        <time>2022-08-20T15:41:03Z</time>
      </trkpt>
      <trkpt lat="25.5086580" lon="-100.6951980">
        <ele>2200.6</ele>
        <time>2022-08-20T15:41:06Z</time>
      </trkpt>
      <trkpt lat="25.5085110" lon="-100.6953420">
        <ele>2199.2</ele>
        <time>2022-08-20T15:41:08Z</time>
      </trkpt>
      <trkpt lat="25.5084380" lon="-100.6954130">
        <ele>2198.2</ele>
        <time>2022-08-20T15:41:09Z</time>
      </trkpt>
      <trkpt lat="25.5083670" lon="-100.6954860">
        <ele>2196.8</ele>
        <time>2022-08-20T15:41:10Z</time>
      </trkpt>
      <trkpt lat="25.5083000" lon="-100.6955600">
        <ele>2195.4</ele>
        <time>2022-08-20T15:41:11Z</time>
      </trkpt>
      <trkpt lat="25.5082390" lon="-100.6956360">
        <ele>2194.0</ele>
        <time>2022-08-20T15:41:12Z</time>
      </trkpt>
      <trkpt lat="25.5081860" lon="-100.6957270">
        <ele>2192.6</ele>
        <time>2022-08-20T15:41:13Z</time>
      </trkpt>
      <trkpt lat="25.5081340" lon="-100.6958200">
        <ele>2191.2</ele>
        <time>2022-08-20T15:41:14Z</time>
      </trkpt>
      <trkpt lat="25.5080860" lon="-100.6959060">
        <ele>2190.2</ele>
        <time>2022-08-20T15:41:15Z</time>
      </trkpt>
      <trkpt lat="25.5080510" lon="-100.6959810">
        <ele>2189.2</ele>
        <time>2022-08-20T15:41:16Z</time>
      </trkpt>
      <trkpt lat="25.5080300" lon="-100.6960480">
        <ele>2188.6</ele>
        <time>2022-08-20T15:41:17Z</time>
      </trkpt>
      <trkpt lat="25.5079500" lon="-100.6962620">
        <ele>2187.2</ele>
        <time>2022-08-20T15:41:20Z</time>
      </trkpt>
      <trkpt lat="25.5079080" lon="-100.6963330">
        <ele>2186.6</ele>
        <time>2022-08-20T15:41:21Z</time>
      </trkpt>
      <trkpt lat="25.5078640" lon="-100.6964030">
        <ele>2186.2</ele>
        <time>2022-08-20T15:41:22Z</time>
      </trkpt>
      <trkpt lat="25.5077520" lon="-100.6966390">
        <ele>2185.0</ele>
        <time>2022-08-20T15:41:25Z</time>
      </trkpt>
      <trkpt lat="25.5077160" lon="-100.6967300">
        <ele>2184.8</ele>
        <time>2022-08-20T15:41:26Z</time>
      </trkpt>
      <trkpt lat="25.5076100" lon="-100.6969930">
        <ele>2183.4</ele>
        <time>2022-08-20T15:41:29Z</time>
      </trkpt>
      <trkpt lat="25.5075750" lon="-100.6970720">
        <ele>2182.2</ele>
        <time>2022-08-20T15:41:30Z</time>
      </trkpt>
      <trkpt lat="25.5075060" lon="-100.6972050">
        <ele>2180.4</ele>
        <time>2022-08-20T15:41:32Z</time>
      </trkpt>
      <trkpt lat="25.5074460" lon="-100.6973120">
        <ele>2178.6</ele>
        <time>2022-08-20T15:41:34Z</time>
      </trkpt>
      <trkpt lat="25.5074120" lon="-100.6973630">
        <ele>2177.6</ele>
        <time>2022-08-20T15:41:35Z</time>
      </trkpt>
      <trkpt lat="25.5073750" lon="-100.6974100">
        <ele>2176.6</ele>
        <time>2022-08-20T15:41:36Z</time>
      </trkpt>
      <trkpt lat="25.5073360" lon="-100.6974540">
        <ele>2176.0</ele>
        <time>2022-08-20T15:41:37Z</time>
      </trkpt>
      <trkpt lat="25.5072530" lon="-100.6975450">
        <ele>2175.6</ele>
        <time>2022-08-20T15:41:39Z</time>
      </trkpt>
      <trkpt lat="25.5072100" lon="-100.6975850">
        <ele>2175.2</ele>
        <time>2022-08-20T15:41:40Z</time>
      </trkpt>
      <trkpt lat="25.5071130" lon="-100.6976430">
        <ele>2175.2</ele>
        <time>2022-08-20T15:41:42Z</time>
      </trkpt>
      <trkpt lat="25.5068680" lon="-100.6976780">
        <ele>2174.6</ele>
        <time>2022-08-20T15:41:47Z</time>
      </trkpt>
      <trkpt lat="25.5068290" lon="-100.6976740">
        <ele>2174.6</ele>
        <time>2022-08-20T15:41:48Z</time>
      </trkpt>
      <trkpt lat="25.5067390" lon="-100.6976800">
        <ele>2174.6</ele>
        <time>2022-08-20T15:41:51Z</time>
      </trkpt>
      <trkpt lat="25.5066860" lon="-100.6976890">
        <ele>2174.4</ele>
        <time>2022-08-20T15:41:53Z</time>
      </trkpt>
      <trkpt lat="25.5065700" lon="-100.6977740">
        <ele>2174.0</ele>
        <time>2022-08-20T15:41:58Z</time>
      </trkpt>
      <trkpt lat="25.5065630" lon="-100.6979460">
        <ele>2174.0</ele>
        <time>2022-08-20T15:42:02Z</time>
      </trkpt>
      <trkpt lat="25.5066620" lon="-100.6982630">
        <ele>2173.6</ele>
        <time>2022-08-20T15:42:08Z</time>
      </trkpt>
      <trkpt lat="25.5067760" lon="-100.6983960">
        <ele>2173.2</ele>
        <time>2022-08-20T15:42:11Z</time>
      </trkpt>
      <trkpt lat="25.5068210" lon="-100.6984290">
        <ele>2172.6</ele>
        <time>2022-08-20T15:42:12Z</time>
      </trkpt>
      <trkpt lat="25.5068680" lon="-100.6984670">
        <ele>2172.0</ele>
        <time>2022-08-20T15:42:13Z</time>
      </trkpt>
      <trkpt lat="25.5069900" lon="-100.6985890">
        <ele>2170.8</ele>
        <time>2022-08-20T15:42:16Z</time>
      </trkpt>
      <trkpt lat="25.5070270" lon="-100.6986250">
        <ele>2169.8</ele>
        <time>2022-08-20T15:42:17Z</time>
      </trkpt>
      <trkpt lat="25.5070760" lon="-100.6986920">
        <ele>2168.2</ele>
        <time>2022-08-20T15:42:19Z</time>
      </trkpt>
      <trkpt lat="25.5070930" lon="-100.6987270">
        <ele>2167.0</ele>
        <time>2022-08-20T15:42:20Z</time>
      </trkpt>
      <trkpt lat="25.5071060" lon="-100.6987650">
        <ele>2166.2</ele>
        <time>2022-08-20T15:42:21Z</time>
      </trkpt>
      <trkpt lat="25.5071160" lon="-100.6988050">
        <ele>2165.8</ele>
        <time>2022-08-20T15:42:22Z</time>
      </trkpt>
      <trkpt lat="25.5071260" lon="-100.6988910">
        <ele>2165.4</ele>
        <time>2022-08-20T15:42:24Z</time>
      </trkpt>
      <trkpt lat="25.5071080" lon="-100.6989960">
        <ele>2165.0</ele>
        <time>2022-08-20T15:42:26Z</time>
      </trkpt>
      <trkpt lat="25.5070760" lon="-100.6991340">
        <ele>2165.0</ele>
        <time>2022-08-20T15:42:28Z</time>
      </trkpt>
      <trkpt lat="25.5070510" lon="-100.6992970">
        <ele>2164.6</ele>
        <time>2022-08-20T15:42:30Z</time>
      </trkpt>
      <trkpt lat="25.5070120" lon="-100.6994450">
        <ele>2164.4</ele>
        <time>2022-08-20T15:42:32Z</time>
      </trkpt>
      <trkpt lat="25.5069460" lon="-100.6995590">
        <ele>2164.4</ele>
        <time>2022-08-20T15:42:34Z</time>
      </trkpt>
      <trkpt lat="25.5068780" lon="-100.6996340">
        <ele>2163.2</ele>
        <time>2022-08-20T15:42:36Z</time>
      </trkpt>
      <trkpt lat="25.5068180" lon="-100.6997050">
        <ele>2162.4</ele>
        <time>2022-08-20T15:42:38Z</time>
      </trkpt>
      <trkpt lat="25.5067910" lon="-100.6997440">
        <ele>2162.2</ele>
        <time>2022-08-20T15:42:39Z</time>
      </trkpt>
      <trkpt lat="25.5065900" lon="-100.7000230">
        <ele>2162.0</ele>
        <time>2022-08-20T15:42:46Z</time>
      </trkpt>
      <trkpt lat="25.5064990" lon="-100.7001800">
        <ele>2162.0</ele>
        <time>2022-08-20T15:42:49Z</time>
      </trkpt>
      <trkpt lat="25.5064510" lon="-100.7003030">
        <ele>2162.0</ele>
        <time>2022-08-20T15:42:51Z</time>
      </trkpt>
      <trkpt lat="25.5063980" lon="-100.7005010">
        <ele>2162.0</ele>
        <time>2022-08-20T15:42:54Z</time>
      </trkpt>
      <trkpt lat="25.5063620" lon="-100.7007000">
        <ele>2161.2</ele>
        <time>2022-08-20T15:42:57Z</time>
      </trkpt>
      <trkpt lat="25.5063350" lon="-100.7009070">
        <ele>2160.0</ele>
        <time>2022-08-20T15:43:00Z</time>
      </trkpt>
      <trkpt lat="25.5063250" lon="-100.7011240">
        <ele>2158.8</ele>
        <time>2022-08-20T15:43:03Z</time>
      </trkpt>
      <trkpt lat="25.5063230" lon="-100.7012000">
        <ele>2158.6</ele>
        <time>2022-08-20T15:43:04Z</time>
      </trkpt>
      <trkpt lat="25.5063140" lon="-100.7014520">
        <ele>2157.8</ele>
        <time>2022-08-20T15:43:08Z</time>
      </trkpt>
      <trkpt lat="25.5063130" lon="-100.7015060">
        <ele>2157.4</ele>
        <time>2022-08-20T15:43:09Z</time>
      </trkpt>
      <trkpt lat="25.5062960" lon="-100.7016970">
        <ele>2156.6</ele>
        <time>2022-08-20T15:43:13Z</time>
      </trkpt>
      <trkpt lat="25.5062960" lon="-100.7017790">
        <ele>2156.2</ele>
        <time>2022-08-20T15:43:15Z</time>
      </trkpt>
      <trkpt lat="25.5062460" lon="-100.7019080">
        <ele>2155.4</ele>
        <time>2022-08-20T15:43:19Z</time>
      </trkpt>
      <trkpt lat="25.5061830" lon="-100.7020520">
        <ele>2155.0</ele>
        <time>2022-08-20T15:43:24Z</time>
      </trkpt>
      <trkpt lat="25.5060590" lon="-100.7022800">
        <ele>2154.8</ele>
        <time>2022-08-20T15:43:30Z</time>
      </trkpt>
      <trkpt lat="25.5060300" lon="-100.7023150">
        <ele>2154.8</ele>
        <time>2022-08-20T15:43:31Z</time>
      </trkpt>
      <trkpt lat="25.5059160" lon="-100.7023680">
        <ele>2154.8</ele>
        <time>2022-08-20T15:43:34Z</time>
      </trkpt>
      <trkpt lat="25.5058350" lon="-100.7023650">
        <ele>2154.8</ele>
        <time>2022-08-20T15:43:36Z</time>
      </trkpt>
      <trkpt lat="25.5057930" lon="-100.7023670">
        <ele>2155.0</ele>
        <time>2022-08-20T15:43:37Z</time>
      </trkpt>
      <trkpt lat="25.5057070" lon="-100.7023750">
        <ele>2155.2</ele>
        <time>2022-08-20T15:43:39Z</time>
      </trkpt>
      <trkpt lat="25.5056170" lon="-100.7023870">
        <ele>2155.2</ele>
        <time>2022-08-20T15:43:41Z</time>
      </trkpt>
      <trkpt lat="25.5054910" lon="-100.7024430">
        <ele>2156.0</ele>
        <time>2022-08-20T15:43:44Z</time>
      </trkpt>
      <trkpt lat="25.5054220" lon="-100.7024980">
        <ele>2156.0</ele>
        <time>2022-08-20T15:43:46Z</time>
      </trkpt>
      <trkpt lat="25.5053380" lon="-100.7025820">
        <ele>2156.0</ele>
        <time>2022-08-20T15:43:50Z</time>
      </trkpt>
      <trkpt lat="25.5053170" lon="-100.7026050">
        <ele>2155.8</ele>
        <time>2022-08-20T15:43:57Z</time>
      </trkpt>
      <trkpt lat="25.5053040" lon="-100.7026210">
        <ele>2155.6</ele>
        <time>2022-08-20T15:44:09Z</time>
      </trkpt>
      <trkpt lat="25.5052670" lon="-100.7026520">
        <ele>2155.6</ele>
        <time>2022-08-20T15:44:20Z</time>
      </trkpt>
      <trkpt lat="25.5052200" lon="-100.7026540">
        <ele>2155.2</ele>
        <time>2022-08-20T15:44:34Z</time>
      </trkpt>
      <trkpt lat="25.5051800" lon="-100.7027200">
        <ele>2155.2</ele>
        <time>2022-08-20T15:44:38Z</time>
      </trkpt>
      <trkpt lat="25.5051170" lon="-100.7028020">
        <ele>2155.2</ele>
        <time>2022-08-20T15:44:41Z</time>
      </trkpt>
      <trkpt lat="25.5050740" lon="-100.7028780">
        <ele>2155.2</ele>
        <time>2022-08-20T15:44:43Z</time>
      </trkpt>
      <trkpt lat="25.5050590" lon="-100.7029230">
        <ele>2155.2</ele>
        <time>2022-08-20T15:44:44Z</time>
      </trkpt>
      <trkpt lat="25.5050480" lon="-100.7031010">
        <ele>2154.6</ele>
        <time>2022-08-20T15:44:47Z</time>
      </trkpt>
      <trkpt lat="25.5050480" lon="-100.7031630">
        <ele>2154.6</ele>
        <time>2022-08-20T15:44:48Z</time>
      </trkpt>
      <trkpt lat="25.5050680" lon="-100.7034750">
        <ele>2153.6</ele>
        <time>2022-08-20T15:44:53Z</time>
      </trkpt>
      <trkpt lat="25.5050630" lon="-100.7035380">
        <ele>2153.4</ele>
        <time>2022-08-20T15:44:54Z</time>
      </trkpt>
      <trkpt lat="25.5050050" lon="-100.7037190">
        <ele>2153.0</ele>
        <time>2022-08-20T15:44:57Z</time>
      </trkpt>
      <trkpt lat="25.5049720" lon="-100.7037830">
        <ele>2152.6</ele>
        <time>2022-08-20T15:44:58Z</time>
      </trkpt>
      <trkpt lat="25.5049370" lon="-100.7038520">
        <ele>2152.2</ele>
        <time>2022-08-20T15:44:59Z</time>
      </trkpt>
      <trkpt lat="25.5048140" lon="-100.7041420">
        <ele>2151.4</ele>
        <time>2022-08-20T15:45:03Z</time>
      </trkpt>
      <trkpt lat="25.5047620" lon="-100.7042960">
        <ele>2151.0</ele>
        <time>2022-08-20T15:45:05Z</time>
      </trkpt>
      <trkpt lat="25.5047100" lon="-100.7044550">
        <ele>2149.8</ele>
        <time>2022-08-20T15:45:07Z</time>
      </trkpt>
      <trkpt lat="25.5046680" lon="-100.7046100">
        <ele>2148.6</ele>
        <time>2022-08-20T15:45:09Z</time>
      </trkpt>
      <trkpt lat="25.5045910" lon="-100.7048410">
        <ele>2147.6</ele>
        <time>2022-08-20T15:45:12Z</time>
      </trkpt>
      <trkpt lat="25.5045590" lon="-100.7049170">
        <ele>2147.4</ele>
        <time>2022-08-20T15:45:13Z</time>
      </trkpt>
      <trkpt lat="25.5045360" lon="-100.7049890">
        <ele>2147.4</ele>
        <time>2022-08-20T15:45:14Z</time>
      </trkpt>
      <trkpt lat="25.5045210" lon="-100.7051710">
        <ele>2146.6</ele>
        <time>2022-08-20T15:45:17Z</time>
      </trkpt>
      <trkpt lat="25.5045280" lon="-100.7052180">
        <ele>2146.4</ele>
        <time>2022-08-20T15:45:18Z</time>
      </trkpt>
      <trkpt lat="25.5045360" lon="-100.7052660">
        <ele>2146.4</ele>
        <time>2022-08-20T15:45:19Z</time>
      </trkpt>
      <trkpt lat="25.5045400" lon="-100.7053120">
        <ele>2146.4</ele>
        <time>2022-08-20T15:45:20Z</time>
      </trkpt>
      <trkpt lat="25.5045430" lon="-100.7053950">
        <ele>2146.2</ele>
        <time>2022-08-20T15:45:22Z</time>
      </trkpt>
      <trkpt lat="25.5045470" lon="-100.7054890">
        <ele>2145.4</ele>
        <time>2022-08-20T15:45:24Z</time>
      </trkpt>
      <trkpt lat="25.5045710" lon="-100.7056360">
        <ele>2145.2</ele>
        <time>2022-08-20T15:45:27Z</time>
      </trkpt>
      <trkpt lat="25.5046340" lon="-100.7058480">
        <ele>2145.2</ele>
        <time>2022-08-20T15:45:32Z</time>
      </trkpt>
      <trkpt lat="25.5046570" lon="-100.7058870">
        <ele>2145.2</ele>
        <time>2022-08-20T15:45:33Z</time>
      </trkpt>
      <trkpt lat="25.5048060" lon="-100.7060570">
        <ele>2146.4</ele>
        <time>2022-08-20T15:45:38Z</time>
      </trkpt>
      <trkpt lat="25.5048400" lon="-100.7060860">
        <ele>2146.6</ele>
        <time>2022-08-20T15:45:39Z</time>
      </trkpt>
      <trkpt lat="25.5050190" lon="-100.7062120">
        <ele>2147.2</ele>
        <time>2022-08-20T15:45:45Z</time>
      </trkpt>
      <trkpt lat="25.5051150" lon="-100.7062900">
        <ele>2147.4</ele>
        <time>2022-08-20T15:45:51Z</time>
      </trkpt>
      <trkpt lat="25.5051350" lon="-100.7063080">
        <ele>2148.2</ele>
        <time>2022-08-20T15:45:53Z</time>
      </trkpt>
      <trkpt lat="25.5051570" lon="-100.7063270">
        <ele>2149.2</ele>
        <time>2022-08-20T15:45:55Z</time>
      </trkpt>
      <trkpt lat="25.5052020" lon="-100.7063930">
        <ele>2150.2</ele>
        <time>2022-08-20T15:45:59Z</time>
      </trkpt>
      <trkpt lat="25.5052060" lon="-100.7064160">
        <ele>2150.4</ele>
        <time>2022-08-20T15:46:00Z</time>
      </trkpt>
      <trkpt lat="25.5052090" lon="-100.7065220">
        <ele>2151.6</ele>
        <time>2022-08-20T15:46:04Z</time>
      </trkpt>
      <trkpt lat="25.5052010" lon="-100.7065600">
        <ele>2152.2</ele>
        <time>2022-08-20T15:46:06Z</time>
      </trkpt>
      <trkpt lat="25.5051910" lon="-100.7066030">
        <ele>2152.6</ele>
        <time>2022-08-20T15:46:08Z</time>
      </trkpt>
      <trkpt lat="25.5051300" lon="-100.7067030">
        <ele>2153.8</ele>
        <time>2022-08-20T15:46:13Z</time>
      </trkpt>
      <trkpt lat="25.5050040" lon="-100.7068850">
        <ele>2155.0</ele>
        <time>2022-08-20T15:46:21Z</time>
      </trkpt>
      <trkpt lat="25.5049880" lon="-100.7069070">
        <ele>2155.0</ele>
        <time>2022-08-20T15:46:22Z</time>
      </trkpt>
      <trkpt lat="25.5048600" lon="-100.7070860">
        <ele>2155.4</ele>
        <time>2022-08-20T15:46:28Z</time>
      </trkpt>
      <trkpt lat="25.5047540" lon="-100.7072960">
        <ele>2155.4</ele>
        <time>2022-08-20T15:46:32Z</time>
      </trkpt>
      <trkpt lat="25.5045830" lon="-100.7076790">
        <ele>2155.2</ele>
        <time>2022-08-20T15:46:37Z</time>
      </trkpt>
      <trkpt lat="25.5045390" lon="-100.7077580">
        <ele>2154.6</ele>
        <time>2022-08-20T15:46:38Z</time>
      </trkpt>
      <trkpt lat="25.5044850" lon="-100.7078350">
        <ele>2154.0</ele>
        <time>2022-08-20T15:46:39Z</time>
      </trkpt>
      <trkpt lat="25.5043430" lon="-100.7079710">
        <ele>2152.6</ele>
        <time>2022-08-20T15:46:41Z</time>
      </trkpt>
      <trkpt lat="25.5041790" lon="-100.7080830">
        <ele>2151.6</ele>
        <time>2022-08-20T15:46:43Z</time>
      </trkpt>
      <trkpt lat="25.5040210" lon="-100.7081850">
        <ele>2150.0</ele>
        <time>2022-08-20T15:46:45Z</time>
      </trkpt>
      <trkpt lat="25.5039460" lon="-100.7082370">
        <ele>2149.0</ele>
        <time>2022-08-20T15:46:46Z</time>
      </trkpt>
      <trkpt lat="25.5038750" lon="-100.7082900">
        <ele>2148.2</ele>
        <time>2022-08-20T15:46:47Z</time>
      </trkpt>
      <trkpt lat="25.5038040" lon="-100.7083430">
        <ele>2147.0</ele>
        <time>2022-08-20T15:46:48Z</time>
      </trkpt>
      <trkpt lat="25.5036760" lon="-100.7084590">
        <ele>2145.0</ele>
        <time>2022-08-20T15:46:50Z</time>
      </trkpt>
      <trkpt lat="25.5036040" lon="-100.7085030">
        <ele>2143.8</ele>
        <time>2022-08-20T15:46:51Z</time>
      </trkpt>
      <trkpt lat="25.5033950" lon="-100.7085770">
        <ele>2142.6</ele>
        <time>2022-08-20T15:46:54Z</time>
      </trkpt>
      <trkpt lat="25.5032590" lon="-100.7087140">
        <ele>2142.6</ele>
        <time>2022-08-20T15:46:57Z</time>
      </trkpt>
      <trkpt lat="25.5032000" lon="-100.7088200">
        <ele>2142.4</ele>
        <time>2022-08-20T15:46:59Z</time>
      </trkpt>
      <trkpt lat="25.5031710" lon="-100.7089390">
        <ele>2142.4</ele>
        <time>2022-08-20T15:47:01Z</time>
      </trkpt>
      <trkpt lat="25.5031460" lon="-100.7091700">
        <ele>2143.8</ele>
        <time>2022-08-20T15:47:05Z</time>
      </trkpt>
      <trkpt lat="25.5031330" lon="-100.7092850">
        <ele>2145.2</ele>
        <time>2022-08-20T15:47:07Z</time>
      </trkpt>
      <trkpt lat="25.5031190" lon="-100.7093390">
        <ele>2145.8</ele>
        <time>2022-08-20T15:47:08Z</time>
      </trkpt>
      <trkpt lat="25.5031000" lon="-100.7093900">
        <ele>2146.4</ele>
        <time>2022-08-20T15:47:09Z</time>
      </trkpt>
      <trkpt lat="25.5030470" lon="-100.7094790">
        <ele>2147.2</ele>
        <time>2022-08-20T15:47:11Z</time>
      </trkpt>
      <trkpt lat="25.5030180" lon="-100.7095170">
        <ele>2147.8</ele>
        <time>2022-08-20T15:47:12Z</time>
      </trkpt>
      <trkpt lat="25.5029890" lon="-100.7095540">
        <ele>2148.0</ele>
        <time>2022-08-20T15:47:13Z</time>
      </trkpt>
      <trkpt lat="25.5028880" lon="-100.7097090">
        <ele>2148.8</ele>
        <time>2022-08-20T15:47:17Z</time>
      </trkpt>
      <trkpt lat="25.5028650" lon="-100.7097500">
        <ele>2149.0</ele>
        <time>2022-08-20T15:47:18Z</time>
      </trkpt>
      <trkpt lat="25.5028000" lon="-100.7098790">
        <ele>2150.0</ele>
        <time>2022-08-20T15:47:21Z</time>
      </trkpt>
      <trkpt lat="25.5027730" lon="-100.7100260">
        <ele>2150.6</ele>
        <time>2022-08-20T15:47:24Z</time>
      </trkpt>
      <trkpt lat="25.5028290" lon="-100.7102230">
        <ele>2151.0</ele>
        <time>2022-08-20T15:47:28Z</time>
      </trkpt>
      <trkpt lat="25.5028540" lon="-100.7102670">
        <ele>2151.0</ele>
        <time>2022-08-20T15:47:29Z</time>
      </trkpt>
      <trkpt lat="25.5028800" lon="-100.7103090">
        <ele>2151.2</ele>
        <time>2022-08-20T15:47:30Z</time>
      </trkpt>
      <trkpt lat="25.5030100" lon="-100.7105170">
        <ele>2151.6</ele>
        <time>2022-08-20T15:47:35Z</time>
      </trkpt>
      <trkpt lat="25.5031800" lon="-100.7107950">
        <ele>2152.4</ele>
        <time>2022-08-20T15:47:43Z</time>
      </trkpt>
      <trkpt lat="25.5032480" lon="-100.7109680">
        <ele>2153.6</ele>
        <time>2022-08-20T15:47:49Z</time>
      </trkpt>
      <trkpt lat="25.5032640" lon="-100.7110640">
        <ele>2154.6</ele>
        <time>2022-08-20T15:47:52Z</time>
      </trkpt>
      <trkpt lat="25.5032650" lon="-100.7111890">
        <ele>2155.8</ele>
        <time>2022-08-20T15:47:56Z</time>
      </trkpt>
      <trkpt lat="25.5032660" lon="-100.7112190">
        <ele>2156.0</ele>
        <time>2022-08-20T15:47:57Z</time>
      </trkpt>
      <trkpt lat="25.5032600" lon="-100.7113400">
        <ele>2157.0</ele>
        <time>2022-08-20T15:48:01Z</time>
      </trkpt>
      <trkpt lat="25.5032300" lon="-100.7114240">
        <ele>2157.6</ele>
        <time>2022-08-20T15:48:04Z</time>
      </trkpt>
      <trkpt lat="25.5032000" lon="-100.7115400">
        <ele>2158.0</ele>
        <time>2022-08-20T15:48:08Z</time>
      </trkpt>
      <trkpt lat="25.5031870" lon="-100.7116610">
        <ele>2158.4</ele>
        <time>2022-08-20T15:48:12Z</time>
      </trkpt>
      <trkpt lat="25.5031840" lon="-100.7118240">
        <ele>2159.2</ele>
        <time>2022-08-20T15:48:18Z</time>
      </trkpt>
      <trkpt lat="25.5031870" lon="-100.7118510">
        <ele>2159.4</ele>
        <time>2022-08-20T15:48:19Z</time>
      </trkpt>
      <trkpt lat="25.5032020" lon="-100.7119030">
        <ele>2160.2</ele>
        <time>2022-08-20T15:48:21Z</time>
      </trkpt>
      <trkpt lat="25.5032480" lon="-100.7119860">
        <ele>2161.6</ele>
        <time>2022-08-20T15:48:24Z</time>
      </trkpt>
      <trkpt lat="25.5032720" lon="-100.7120800">
        <ele>2162.6</ele>
        <time>2022-08-20T15:48:27Z</time>
      </trkpt>
      <trkpt lat="25.5032870" lon="-100.7121710">
        <ele>2163.4</ele>
        <time>2022-08-20T15:48:30Z</time>
      </trkpt>
      <trkpt lat="25.5032950" lon="-100.7122210">
        <ele>2163.8</ele>
        <time>2022-08-20T15:48:32Z</time>
      </trkpt>
      <trkpt lat="25.5033330" lon="-100.7123650">
        <ele>2164.8</ele>
        <time>2022-08-20T15:48:37Z</time>
      </trkpt>
      <trkpt lat="25.5033830" lon="-100.7125720">
        <ele>2165.8</ele>
        <time>2022-08-20T15:48:44Z</time>
      </trkpt>
      <trkpt lat="25.5033880" lon="-100.7125980">
        <ele>2166.0</ele>
        <time>2022-08-20T15:48:45Z</time>
      </trkpt>
      <trkpt lat="25.5034180" lon="-100.7127830">
        <ele>2167.2</ele>
        <time>2022-08-20T15:48:51Z</time>
      </trkpt>
      <trkpt lat="25.5034270" lon="-100.7129100">
        <ele>2168.4</ele>
        <time>2022-08-20T15:48:55Z</time>
      </trkpt>
      <trkpt lat="25.5034250" lon="-100.7130510">
        <ele>2169.0</ele>
        <time>2022-08-20T15:48:59Z</time>
      </trkpt>
      <trkpt lat="25.5034260" lon="-100.7131660">
        <ele>2169.6</ele>
        <time>2022-08-20T15:49:02Z</time>
      </trkpt>
      <trkpt lat="25.5034270" lon="-100.7132900">
        <ele>2170.2</ele>
        <time>2022-08-20T15:49:05Z</time>
      </trkpt>
      <trkpt lat="25.5034520" lon="-100.7135500">
        <ele>2170.4</ele>
        <time>2022-08-20T15:49:11Z</time>
      </trkpt>
      <trkpt lat="25.5035340" lon="-100.7138720">
        <ele>2170.4</ele>
        <time>2022-08-20T15:49:17Z</time>
      </trkpt>
      <trkpt lat="25.5035910" lon="-100.7140020">
        <ele>2170.4</ele>
        <time>2022-08-20T15:49:19Z</time>
      </trkpt>
      <trkpt lat="25.5036740" lon="-100.7141230">
        <ele>2170.4</ele>
        <time>2022-08-20T15:49:21Z</time>
      </trkpt>
      <trkpt lat="25.5039800" lon="-100.7144940">
        <ele>2169.0</ele>
        <time>2022-08-20T15:49:26Z</time>
      </trkpt>
      <trkpt lat="25.5040490" lon="-100.7145690">
        <ele>2168.6</ele>
        <time>2022-08-20T15:49:27Z</time>
      </trkpt>
      <trkpt lat="25.5041820" lon="-100.7146970">
        <ele>2167.4</ele>
        <time>2022-08-20T15:49:29Z</time>
      </trkpt>
      <trkpt lat="25.5043180" lon="-100.7148060">
        <ele>2165.8</ele>
        <time>2022-08-20T15:49:31Z</time>
      </trkpt>
      <trkpt lat="25.5044660" lon="-100.7148860">
        <ele>2164.4</ele>
        <time>2022-08-20T15:49:33Z</time>
      </trkpt>
      <trkpt lat="25.5046010" lon="-100.7149600">
        <ele>2163.0</ele>
        <time>2022-08-20T15:49:35Z</time>
      </trkpt>
      <trkpt lat="25.5047200" lon="-100.7150500">
        <ele>2162.0</ele>
        <time>2022-08-20T15:49:37Z</time>
      </trkpt>
      <trkpt lat="25.5047810" lon="-100.7151610">
        <ele>2161.0</ele>
        <time>2022-08-20T15:49:39Z</time>
      </trkpt>
      <trkpt lat="25.5047800" lon="-100.7152160">
        <ele>2160.4</ele>
        <time>2022-08-20T15:49:40Z</time>
      </trkpt>
      <trkpt lat="25.5047580" lon="-100.7152580">
        <ele>2159.4</ele>
        <time>2022-08-20T15:49:41Z</time>
      </trkpt>
      <trkpt lat="25.5046900" lon="-100.7152920">
        <ele>2157.8</ele>
        <time>2022-08-20T15:49:43Z</time>
      </trkpt>
      <trkpt lat="25.5046530" lon="-100.7152980">
        <ele>2157.2</ele>
        <time>2022-08-20T15:49:44Z</time>
      </trkpt>
      <trkpt lat="25.5045860" lon="-100.7153100">
        <ele>2156.8</ele>
        <time>2022-08-20T15:49:46Z</time>
      </trkpt>
      <trkpt lat="25.5044280" lon="-100.7153290">
        <ele>2156.6</ele>
        <time>2022-08-20T15:49:51Z</time>
      </trkpt>
      <trkpt lat="25.5042110" lon="-100.7153820">
        <ele>2157.8</ele>
        <time>2022-08-20T15:49:58Z</time>
      </trkpt>
      <trkpt lat="25.5041500" lon="-100.7154060">
        <ele>2158.2</ele>
        <time>2022-08-20T15:50:00Z</time>
      </trkpt>
      <trkpt lat="25.5040240" lon="-100.7154690">
        <ele>2159.2</ele>
        <time>2022-08-20T15:50:04Z</time>
      </trkpt>
      <trkpt lat="25.5039630" lon="-100.7154970">
        <ele>2159.8</ele>
        <time>2022-08-20T15:50:06Z</time>
      </trkpt>
      <trkpt lat="25.5038990" lon="-100.7155290">
        <ele>2160.2</ele>
        <time>2022-08-20T15:50:08Z</time>
      </trkpt>
      <trkpt lat="25.5037790" lon="-100.7156150">
        <ele>2161.4</ele>
        <time>2022-08-20T15:50:12Z</time>
      </trkpt>
      <trkpt lat="25.5037250" lon="-100.7156530">
        <ele>2162.4</ele>
        <time>2022-08-20T15:50:14Z</time>
      </trkpt>
      <trkpt lat="25.5037020" lon="-100.7156730">
        <ele>2162.6</ele>
        <time>2022-08-20T15:50:15Z</time>
      </trkpt>
      <trkpt lat="25.5035440" lon="-100.7158180">
        <ele>2164.2</ele>
        <time>2022-08-20T15:50:22Z</time>
      </trkpt>
      <trkpt lat="25.5035240" lon="-100.7158440">
        <ele>2164.6</ele>
        <time>2022-08-20T15:50:23Z</time>
      </trkpt>
      <trkpt lat="25.5034840" lon="-100.7158920">
        <ele>2165.2</ele>
        <time>2022-08-20T15:50:25Z</time>
      </trkpt>
      <trkpt lat="25.5034070" lon="-100.7160290">
        <ele>2166.4</ele>
        <time>2022-08-20T15:50:30Z</time>
      </trkpt>
      <trkpt lat="25.5033230" lon="-100.7162100">
        <ele>2167.4</ele>
        <time>2022-08-20T15:50:36Z</time>
      </trkpt>
      <trkpt lat="25.5032480" lon="-100.7163110">
        <ele>2167.6</ele>
        <time>2022-08-20T15:50:42Z</time>
      </trkpt>
      <trkpt lat="25.5032240" lon="-100.7163480">
        <ele>2167.6</ele>
        <time>2022-08-20T15:50:45Z</time>
      </trkpt>
      <trkpt lat="25.5032070" lon="-100.7164350">
        <ele>2168.4</ele>
        <time>2022-08-20T15:50:50Z</time>
      </trkpt>
      <trkpt lat="25.5032060" lon="-100.7164680">
        <ele>2168.8</ele>
        <time>2022-08-20T15:50:52Z</time>
      </trkpt>
      <trkpt lat="25.5032190" lon="-100.7165350">
        <ele>2170.0</ele>
        <time>2022-08-20T15:50:57Z</time>
      </trkpt>
      <trkpt lat="25.5032260" lon="-100.7165490">
        <ele>2170.4</ele>
        <time>2022-08-20T15:50:58Z</time>
      </trkpt>
      <trkpt lat="25.5032660" lon="-100.7165930">
        <ele>2171.2</ele>
        <time>2022-08-20T15:51:02Z</time>
      </trkpt>
      <trkpt lat="25.5033130" lon="-100.7166320">
        <ele>2171.8</ele>
        <time>2022-08-20T15:51:06Z</time>
      </trkpt>
      <trkpt lat="25.5033570" lon="-100.7166810">
        <ele>2172.2</ele>
        <time>2022-08-20T15:51:10Z</time>
      </trkpt>
      <trkpt lat="25.5033970" lon="-100.7167340">
        <ele>2172.8</ele>
        <time>2022-08-20T15:51:14Z</time>
      </trkpt>
      <trkpt lat="25.5034190" lon="-100.7167630">
        <ele>2173.4</ele>
        <time>2022-08-20T15:51:16Z</time>
      </trkpt>
      <trkpt lat="25.5034900" lon="-100.7168440">
        <ele>2174.4</ele>
        <time>2022-08-20T15:51:22Z</time>
      </trkpt>
      <trkpt lat="25.5035570" lon="-100.7169460">
        <ele>2175.6</ele>
        <time>2022-08-20T15:51:29Z</time>
      </trkpt>
      <trkpt lat="25.5035770" lon="-100.7169740">
        <ele>2176.0</ele>
        <time>2022-08-20T15:51:31Z</time>
      </trkpt>
      <trkpt lat="25.5036220" lon="-100.7170480">
        <ele>2176.6</ele>
        <time>2022-08-20T15:51:36Z</time>
      </trkpt>
      <trkpt lat="25.5036500" lon="-100.7170980">
        <ele>2177.2</ele>
        <time>2022-08-20T15:51:39Z</time>
      </trkpt>
      <trkpt lat="25.5036740" lon="-100.7171320">
        <ele>2178.0</ele>
        <time>2022-08-20T15:51:41Z</time>
      </trkpt>
      <trkpt lat="25.5037220" lon="-100.7172240">
        <ele>2179.0</ele>
        <time>2022-08-20T15:51:46Z</time>
      </trkpt>
      <trkpt lat="25.5037470" lon="-100.7172590">
        <ele>2179.2</ele>
        <time>2022-08-20T15:51:48Z</time>
      </trkpt>
      <trkpt lat="25.5038060" lon="-100.7173460">
        <ele>2180.2</ele>
        <time>2022-08-20T15:51:53Z</time>
      </trkpt>
      <trkpt lat="25.5038590" lon="-100.7174140">
        <ele>2180.6</ele>
        <time>2022-08-20T15:51:57Z</time>
      </trkpt>
      <trkpt lat="25.5039240" lon="-100.7174990">
        <ele>2181.2</ele>
        <time>2022-08-20T15:52:02Z</time>
      </trkpt>
      <trkpt lat="25.5039900" lon="-100.7175540">
        <ele>2181.6</ele>
        <time>2022-08-20T15:52:06Z</time>
      </trkpt>
      <trkpt lat="25.5040790" lon="-100.7176570">
        <ele>2182.2</ele>
        <time>2022-08-20T15:52:11Z</time>
      </trkpt>
      <trkpt lat="25.5041160" lon="-100.7177010">
        <ele>2182.4</ele>
        <time>2022-08-20T15:52:13Z</time>
      </trkpt>
      <trkpt lat="25.5042490" lon="-100.7178540">
        <ele>2183.6</ele>
        <time>2022-08-20T15:52:20Z</time>
      </trkpt>
      <trkpt lat="25.5043090" lon="-100.7179150">
        <ele>2184.2</ele>
        <time>2022-08-20T15:52:23Z</time>
      </trkpt>
      <trkpt lat="25.5044240" lon="-100.7180110">
        <ele>2184.6</ele>
        <time>2022-08-20T15:52:28Z</time>
      </trkpt>
      <trkpt lat="25.5044940" lon="-100.7180540">
        <ele>2184.8</ele>
        <time>2022-08-20T15:52:31Z</time>
      </trkpt>
      <trkpt lat="25.5045890" lon="-100.7181430">
        <ele>2185.6</ele>
        <time>2022-08-20T15:52:36Z</time>
      </trkpt>
      <trkpt lat="25.5046060" lon="-100.7181660">
        <ele>2185.8</ele>
        <time>2022-08-20T15:52:37Z</time>
      </trkpt>
      <trkpt lat="25.5047260" lon="-100.7183630">
        <ele>2186.8</ele>
        <time>2022-08-20T15:52:45Z</time>
      </trkpt>
      <trkpt lat="25.5048180" lon="-100.7185320">
        <ele>2188.0</ele>
        <time>2022-08-20T15:52:52Z</time>
      </trkpt>
      <trkpt lat="25.5048870" lon="-100.7186540">
        <ele>2189.0</ele>
        <time>2022-08-20T15:52:57Z</time>
      </trkpt>
      <trkpt lat="25.5049600" lon="-100.7187820">
        <ele>2190.2</ele>
        <time>2022-08-20T15:53:02Z</time>
      </trkpt>
      <trkpt lat="25.5050500" lon="-100.7189240">
        <ele>2191.2</ele>
        <time>2022-08-20T15:53:08Z</time>
      </trkpt>
      <trkpt lat="25.5050740" lon="-100.7189740">
        <ele>2191.6</ele>
        <time>2022-08-20T15:53:10Z</time>
      </trkpt>
      <trkpt lat="25.5051120" lon="-100.7190950">
        <ele>2192.2</ele>
        <time>2022-08-20T15:53:15Z</time>
      </trkpt>
      <trkpt lat="25.5051790" lon="-100.7191970">
        <ele>2193.2</ele>
        <time>2022-08-20T15:53:20Z</time>
      </trkpt>
      <trkpt lat="25.5051870" lon="-100.7192180">
        <ele>2193.6</ele>
        <time>2022-08-20T15:53:21Z</time>
      </trkpt>
      <trkpt lat="25.5052160" lon="-100.7193190">
        <ele>2194.4</ele>
        <time>2022-08-20T15:53:25Z</time>
      </trkpt>
      <trkpt lat="25.5052470" lon="-100.7194230">
        <ele>2195.2</ele>
        <time>2022-08-20T15:53:29Z</time>
      </trkpt>
      <trkpt lat="25.5052610" lon="-100.7194810">
        <ele>2195.4</ele>
        <time>2022-08-20T15:53:31Z</time>
      </trkpt>
      <trkpt lat="25.5052790" lon="-100.7196130">
        <ele>2196.4</ele>
        <time>2022-08-20T15:53:36Z</time>
      </trkpt>
      <trkpt lat="25.5052790" lon="-100.7196390">
        <ele>2196.6</ele>
        <time>2022-08-20T15:53:37Z</time>
      </trkpt>
      <trkpt lat="25.5053070" lon="-100.7197490">
        <ele>2197.6</ele>
        <time>2022-08-20T15:53:41Z</time>
      </trkpt>
      <trkpt lat="25.5053330" lon="-100.7198000">
        <ele>2197.8</ele>
        <time>2022-08-20T15:53:43Z</time>
      </trkpt>
      <trkpt lat="25.5054280" lon="-100.7199400">
        <ele>2198.8</ele>
        <time>2022-08-20T15:53:49Z</time>
      </trkpt>
      <trkpt lat="25.5054640" lon="-100.7199790">
        <ele>2199.0</ele>
        <time>2022-08-20T15:53:51Z</time>
      </trkpt>
      <trkpt lat="25.5055690" lon="-100.7200880">
        <ele>2199.8</ele>
        <time>2022-08-20T15:53:57Z</time>
      </trkpt>
      <trkpt lat="25.5056280" lon="-100.7201300">
        <ele>2200.2</ele>
        <time>2022-08-20T15:54:00Z</time>
      </trkpt>
      <trkpt lat="25.5057240" lon="-100.7202180">
        <ele>2201.0</ele>
        <time>2022-08-20T15:54:05Z</time>
      </trkpt>
      <trkpt lat="25.5057860" lon="-100.7202620">
        <ele>2201.2</ele>
        <time>2022-08-20T15:54:08Z</time>
      </trkpt>
      <trkpt lat="25.5059040" lon="-100.7203700">
        <ele>2202.0</ele>
        <time>2022-08-20T15:54:14Z</time>
      </trkpt>
      <trkpt lat="25.5060730" lon="-100.7205490">
        <ele>2203.2</ele>
        <time>2022-08-20T15:54:22Z</time>
      </trkpt>
      <trkpt lat="25.5062440" lon="-100.7207170">
        <ele>2203.6</ele>
        <time>2022-08-20T15:54:28Z</time>
      </trkpt>
      <trkpt lat="25.5064100" lon="-100.7209150">
        <ele>2203.6</ele>
        <time>2022-08-20T15:54:34Z</time>
      </trkpt>
      <trkpt lat="25.5066490" lon="-100.7212010">
        <ele>2203.8</ele>
        <time>2022-08-20T15:54:42Z</time>
      </trkpt>
      <trkpt lat="25.5068290" lon="-100.7214440">
        <ele>2204.2</ele>
        <time>2022-08-20T15:54:49Z</time>
      </trkpt>
      <trkpt lat="25.5069050" lon="-100.7215870">
        <ele>2204.4</ele>
        <time>2022-08-20T15:54:53Z</time>
      </trkpt>
      <trkpt lat="25.5069580" lon="-100.7216980">
        <ele>2204.8</ele>
        <time>2022-08-20T15:54:56Z</time>
      </trkpt>
      <trkpt lat="25.5070350" lon="-100.7218400">
        <ele>2205.4</ele>
        <time>2022-08-20T15:55:00Z</time>
      </trkpt>
      <trkpt lat="25.5070700" lon="-100.7219160">
        <ele>2205.8</ele>
        <time>2022-08-20T15:55:02Z</time>
      </trkpt>
      <trkpt lat="25.5071540" lon="-100.7221080">
        <ele>2206.6</ele>
        <time>2022-08-20T15:55:07Z</time>
      </trkpt>
      <trkpt lat="25.5071750" lon="-100.7221460">
        <ele>2206.8</ele>
        <time>2022-08-20T15:55:08Z</time>
      </trkpt>
      <trkpt lat="25.5072670" lon="-100.7223570">
        <ele>2207.6</ele>
        <time>2022-08-20T15:55:14Z</time>
      </trkpt>
      <trkpt lat="25.5073470" lon="-100.7225450">
        <ele>2208.6</ele>
        <time>2022-08-20T15:55:20Z</time>
      </trkpt>
      <trkpt lat="25.5073570" lon="-100.7225760">
        <ele>2208.8</ele>
        <time>2022-08-20T15:55:21Z</time>
      </trkpt>
      <trkpt lat="25.5073960" lon="-100.7226990">
        <ele>2210.0</ele>
        <time>2022-08-20T15:55:26Z</time>
      </trkpt>
      <trkpt lat="25.5074080" lon="-100.7227300">
        <ele>2211.0</ele>
        <time>2022-08-20T15:55:30Z</time>
      </trkpt>
      <trkpt lat="25.5074110" lon="-100.7227320">
        <ele>2211.2</ele>
        <time>2022-08-20T15:55:31Z</time>
      </trkpt>
      <trkpt lat="25.5074170" lon="-100.7227480">
        <ele>2211.8</ele>
        <time>2022-08-20T15:55:54Z</time>
      </trkpt>
      <trkpt lat="25.5074150" lon="-100.7227510">
        <ele>2211.8</ele>
        <time>2022-08-20T15:56:10Z</time>
      </trkpt>
      <trkpt lat="25.5074110" lon="-100.7227570">
        <ele>2211.8</ele>
        <time>2022-08-20T15:56:17Z</time>
      </trkpt>
      <trkpt lat="25.5074070" lon="-100.7227740">
        <ele>2212.2</ele>
        <time>2022-08-20T15:56:58Z</time>
      </trkpt>
      <trkpt lat="25.5074110" lon="-100.7227620">
        <ele>2212.2</ele>
        <time>2022-08-20T15:57:04Z</time>
      </trkpt>
      <trkpt lat="25.5074050" lon="-100.7227590">
        <ele>2211.8</ele>
        <time>2022-08-20T15:57:35Z</time>
      </trkpt>
      <trkpt lat="25.5073990" lon="-100.7227550">
        <ele>2212.0</ele>
        <time>2022-08-20T15:58:11Z</time>
      </trkpt>
      <trkpt lat="25.5073750" lon="-100.7227580">
        <ele>2211.8</ele>
        <time>2022-08-20T15:58:51Z</time>
      </trkpt>
      <trkpt lat="25.5073780" lon="-100.7227450">
        <ele>2211.6</ele>
        <time>2022-08-20T15:59:22Z</time>
      </trkpt>
      <trkpt lat="25.5073790" lon="-100.7227450">
        <ele>2211.8</ele>
        <time>2022-08-20T15:59:33Z</time>
      </trkpt>
      <trkpt lat="25.5073780" lon="-100.7227450">
        <ele>2212.2</ele>
        <time>2022-08-20T15:59:59Z</time>
      </trkpt>
      <trkpt lat="25.5073980" lon="-100.7227240">
        <ele>2212.2</ele>
        <time>2022-08-20T16:00:57Z</time>
      </trkpt>
      <trkpt lat="25.5074030" lon="-100.7227160">
        <ele>2212.0</ele>
        <time>2022-08-20T16:01:34Z</time>
      </trkpt>
      <trkpt lat="25.5074040" lon="-100.7227160">
        <ele>2212.0</ele>
        <time>2022-08-20T16:01:53Z</time>
      </trkpt>
      <trkpt lat="25.5074000" lon="-100.7227180">
        <ele>2212.4</ele>
        <time>2022-08-20T16:02:19Z</time>
      </trkpt>
      <trkpt lat="25.5073880" lon="-100.7227260">
        <ele>2212.4</ele>
        <time>2022-08-20T16:02:53Z</time>
      </trkpt>
      <trkpt lat="25.5073890" lon="-100.7227290">
        <ele>2212.2</ele>
        <time>2022-08-20T16:03:15Z</time>
      </trkpt>
      <trkpt lat="25.5073870" lon="-100.7227330">
        <ele>2212.6</ele>
        <time>2022-08-20T16:03:22Z</time>
      </trkpt>
      <trkpt lat="25.5074060" lon="-100.7227350">
        <ele>2212.8</ele>
        <time>2022-08-20T16:03:40Z</time>
      </trkpt>
      <trkpt lat="25.5074370" lon="-100.7227540">
        <ele>2212.8</ele>
        <time>2022-08-20T16:04:06Z</time>
      </trkpt>
      <trkpt lat="25.5074330" lon="-100.7227540">
        <ele>2212.6</ele>
        <time>2022-08-20T16:04:19Z</time>
      </trkpt>
      <trkpt lat="25.5074320" lon="-100.7227610">
        <ele>2212.8</ele>
        <time>2022-08-20T16:04:39Z</time>
      </trkpt>
      <trkpt lat="25.5074160" lon="-100.7227640">
        <ele>2212.8</ele>
        <time>2022-08-20T16:05:03Z</time>
      </trkpt>
      <trkpt lat="25.5074580" lon="-100.7227700">
        <ele>2212.4</ele>
        <time>2022-08-20T16:05:25Z</time>
      </trkpt>
      <trkpt lat="25.5074600" lon="-100.7227730">
        <ele>2212.6</ele>
        <time>2022-08-20T16:05:41Z</time>
      </trkpt>
      <trkpt lat="25.5074530" lon="-100.7227770">
        <ele>2212.2</ele>
        <time>2022-08-20T16:06:03Z</time>
      </trkpt>
      <trkpt lat="25.5074540" lon="-100.7227780">
        <ele>2212.2</ele>
        <time>2022-08-20T16:06:13Z</time>
      </trkpt>
      <trkpt lat="25.5074660" lon="-100.7227870">
        <ele>2212.2</ele>
        <time>2022-08-20T16:06:24Z</time>
      </trkpt>
      <trkpt lat="25.5074730" lon="-100.7227870">
        <ele>2212.2</ele>
        <time>2022-08-20T16:06:37Z</time>
      </trkpt>
      <trkpt lat="25.5074570" lon="-100.7227660">
        <ele>2212.0</ele>
        <time>2022-08-20T16:06:44Z</time>
      </trkpt>
      <trkpt lat="25.5074450" lon="-100.7227970">
        <ele>2212.0</ele>
        <time>2022-08-20T16:06:55Z</time>
      </trkpt>
      <trkpt lat="25.5074440" lon="-100.7228460">
        <ele>2212.0</ele>
        <time>2022-08-20T16:07:03Z</time>
      </trkpt>
      <trkpt lat="25.5074430" lon="-100.7228410">
        <ele>2211.6</ele>
        <time>2022-08-20T16:07:21Z</time>
      </trkpt>
      <trkpt lat="25.5074430" lon="-100.7228440">
        <ele>2211.6</ele>
        <time>2022-08-20T16:07:29Z</time>
      </trkpt>
      <trkpt lat="25.5074410" lon="-100.7228380">
        <ele>2211.6</ele>
        <time>2022-08-20T16:07:58Z</time>
      </trkpt>
      <trkpt lat="25.5074440" lon="-100.7228170">
        <ele>2211.4</ele>
        <time>2022-08-20T16:08:07Z</time>
      </trkpt>
      <trkpt lat="25.5074400" lon="-100.7228160">
        <ele>2211.6</ele>
        <time>2022-08-20T16:08:09Z</time>
      </trkpt>
      <trkpt lat="25.5074380" lon="-100.7228270">
        <ele>2211.6</ele>
        <time>2022-08-20T16:08:14Z</time>
      </trkpt>
      <trkpt lat="25.5074570" lon="-100.7229160">
        <ele>2211.8</ele>
        <time>2022-08-20T16:08:20Z</time>
      </trkpt>
      <trkpt lat="25.5075150" lon="-100.7230130">
        <ele>2211.8</ele>
        <time>2022-08-20T16:08:23Z</time>
      </trkpt>
      <trkpt lat="25.5075780" lon="-100.7230970">
        <ele>2211.8</ele>
        <time>2022-08-20T16:08:25Z</time>
      </trkpt>
      <trkpt lat="25.5076130" lon="-100.7231380">
        <ele>2211.8</ele>
        <time>2022-08-20T16:08:26Z</time>
      </trkpt>
      <trkpt lat="25.5077660" lon="-100.7233200">
        <ele>2211.6</ele>
        <time>2022-08-20T16:08:30Z</time>
      </trkpt>
      <trkpt lat="25.5079650" lon="-100.7235750">
        <ele>2210.2</ele>
        <time>2022-08-20T16:08:34Z</time>
      </trkpt>
      <trkpt lat="25.5080130" lon="-100.7236340">
        <ele>2209.4</ele>
        <time>2022-08-20T16:08:35Z</time>
      </trkpt>
      <trkpt lat="25.5080570" lon="-100.7236910">
        <ele>2209.0</ele>
        <time>2022-08-20T16:08:36Z</time>
      </trkpt>
      <trkpt lat="25.5081200" lon="-100.7237740">
        <ele>2207.6</ele>
        <time>2022-08-20T16:08:38Z</time>
      </trkpt>
      <trkpt lat="25.5081370" lon="-100.7238030">
        <ele>2207.2</ele>
        <time>2022-08-20T16:08:39Z</time>
      </trkpt>
      <trkpt lat="25.5081540" lon="-100.7238290">
        <ele>2206.6</ele>
        <time>2022-08-20T16:08:40Z</time>
      </trkpt>
      <trkpt lat="25.5081910" lon="-100.7238820">
        <ele>2205.2</ele>
        <time>2022-08-20T16:08:42Z</time>
      </trkpt>
      <trkpt lat="25.5082190" lon="-100.7239430">
        <ele>2203.8</ele>
        <time>2022-08-20T16:08:44Z</time>
      </trkpt>
      <trkpt lat="25.5082280" lon="-100.7239760">
        <ele>2203.4</ele>
        <time>2022-08-20T16:08:45Z</time>
      </trkpt>
      <trkpt lat="25.5082410" lon="-100.7240420">
        <ele>2202.4</ele>
        <time>2022-08-20T16:08:47Z</time>
      </trkpt>
      <trkpt lat="25.5082540" lon="-100.7241360">
        <ele>2201.4</ele>
        <time>2022-08-20T16:08:50Z</time>
      </trkpt>
      <trkpt lat="25.5082570" lon="-100.7242000">
        <ele>2200.8</ele>
        <time>2022-08-20T16:08:52Z</time>
      </trkpt>
      <trkpt lat="25.5082540" lon="-100.7242270">
        <ele>2200.4</ele>
        <time>2022-08-20T16:08:53Z</time>
      </trkpt>
      <trkpt lat="25.5082470" lon="-100.7242760">
        <ele>2199.2</ele>
        <time>2022-08-20T16:08:56Z</time>
      </trkpt>
      <trkpt lat="25.5082490" lon="-100.7242880">
        <ele>2198.4</ele>
        <time>2022-08-20T16:08:57Z</time>
      </trkpt>
      <trkpt lat="25.5082470" lon="-100.7243030">
        <ele>2198.0</ele>
        <time>2022-08-20T16:08:58Z</time>
      </trkpt>
      <trkpt lat="25.5082610" lon="-100.7243400">
        <ele>2196.8</ele>
        <time>2022-08-20T16:09:02Z</time>
      </trkpt>
      <trkpt lat="25.5082630" lon="-100.7243500">
        <ele>2196.0</ele>
        <time>2022-08-20T16:09:08Z</time>
      </trkpt>
      <trkpt lat="25.5082630" lon="-100.7243500">
        <ele>2196.0</ele>
        <time>2022-08-20T16:09:09Z</time>
      </trkpt>
      <trkpt lat="25.5082450" lon="-100.7243280">
        <ele>2195.6</ele>
        <time>2022-08-20T16:09:28Z</time>
      </trkpt>
      <trkpt lat="25.5082300" lon="-100.7243140">
        <ele>2195.8</ele>
        <time>2022-08-20T16:10:00Z</time>
      </trkpt>
      <trkpt lat="25.5082490" lon="-100.7243020">
        <ele>2195.8</ele>
        <time>2022-08-20T16:10:09Z</time>
      </trkpt>
      <trkpt lat="25.5082580" lon="-100.7243090">
        <ele>2195.8</ele>
        <time>2022-08-20T16:10:10Z</time>
      </trkpt>
      <trkpt lat="25.5083120" lon="-100.7243760">
        <ele>2195.8</ele>
        <time>2022-08-20T16:10:13Z</time>
      </trkpt>
      <trkpt lat="25.5083900" lon="-100.7245660">
        <ele>2195.8</ele>
        <time>2022-08-20T16:10:17Z</time>
      </trkpt>
      <trkpt lat="25.5084650" lon="-100.7248110">
        <ele>2195.0</ele>
        <time>2022-08-20T16:10:21Z</time>
      </trkpt>
      <trkpt lat="25.5084780" lon="-100.7248620">
        <ele>2194.8</ele>
        <time>2022-08-20T16:10:22Z</time>
      </trkpt>
      <trkpt lat="25.5084890" lon="-100.7249160">
        <ele>2194.6</ele>
        <time>2022-08-20T16:10:23Z</time>
      </trkpt>
      <trkpt lat="25.5085240" lon="-100.7250300">
        <ele>2193.6</ele>
        <time>2022-08-20T16:10:25Z</time>
      </trkpt>
      <trkpt lat="25.5085480" lon="-100.7250930">
        <ele>2192.8</ele>
        <time>2022-08-20T16:10:26Z</time>
      </trkpt>
      <trkpt lat="25.5085760" lon="-100.7251640">
        <ele>2192.2</ele>
        <time>2022-08-20T16:10:27Z</time>
      </trkpt>
      <trkpt lat="25.5086370" lon="-100.7253070">
        <ele>2191.0</ele>
        <time>2022-08-20T16:10:29Z</time>
      </trkpt>
      <trkpt lat="25.5087050" lon="-100.7254500">
        <ele>2189.6</ele>
        <time>2022-08-20T16:10:31Z</time>
      </trkpt>
      <trkpt lat="25.5088170" lon="-100.7256550">
        <ele>2187.8</ele>
        <time>2022-08-20T16:10:34Z</time>
      </trkpt>
      <trkpt lat="25.5088630" lon="-100.7257070">
        <ele>2187.0</ele>
        <time>2022-08-20T16:10:35Z</time>
      </trkpt>
      <trkpt lat="25.5089170" lon="-100.7257400">
        <ele>2186.2</ele>
        <time>2022-08-20T16:10:36Z</time>
      </trkpt>
      <trkpt lat="25.5090250" lon="-100.7257960">
        <ele>2184.6</ele>
        <time>2022-08-20T16:10:38Z</time>
      </trkpt>
      <trkpt lat="25.5090790" lon="-100.7258310">
        <ele>2183.6</ele>
        <time>2022-08-20T16:10:39Z</time>
      </trkpt>
      <trkpt lat="25.5091280" lon="-100.7258800">
        <ele>2183.2</ele>
        <time>2022-08-20T16:10:40Z</time>
      </trkpt>
      <trkpt lat="25.5091730" lon="-100.7259440">
        <ele>2182.6</ele>
        <time>2022-08-20T16:10:41Z</time>
      </trkpt>
      <trkpt lat="25.5092140" lon="-100.7260210">
        <ele>2181.8</ele>
        <time>2022-08-20T16:10:42Z</time>
      </trkpt>
      <trkpt lat="25.5092650" lon="-100.7261880">
        <ele>2180.8</ele>
        <time>2022-08-20T16:10:44Z</time>
      </trkpt>
      <trkpt lat="25.5092820" lon="-100.7263370">
        <ele>2179.6</ele>
        <time>2022-08-20T16:10:46Z</time>
      </trkpt>
      <trkpt lat="25.5092870" lon="-100.7264580">
        <ele>2178.6</ele>
        <time>2022-08-20T16:10:48Z</time>
      </trkpt>
      <trkpt lat="25.5092930" lon="-100.7265140">
        <ele>2177.8</ele>
        <time>2022-08-20T16:10:49Z</time>
      </trkpt>
      <trkpt lat="25.5093460" lon="-100.7266160">
        <ele>2174.6</ele>
        <time>2022-08-20T16:10:51Z</time>
      </trkpt>
      <trkpt lat="25.5093930" lon="-100.7266530">
        <ele>2173.4</ele>
        <time>2022-08-20T16:10:52Z</time>
      </trkpt>
      <trkpt lat="25.5094440" lon="-100.7266820">
        <ele>2172.4</ele>
        <time>2022-08-20T16:10:53Z</time>
      </trkpt>
      <trkpt lat="25.5094920" lon="-100.7267160">
        <ele>2171.6</ele>
        <time>2022-08-20T16:10:54Z</time>
      </trkpt>
      <trkpt lat="25.5095270" lon="-100.7267590">
        <ele>2170.8</ele>
        <time>2022-08-20T16:10:55Z</time>
      </trkpt>
      <trkpt lat="25.5095470" lon="-100.7268520">
        <ele>2170.0</ele>
        <time>2022-08-20T16:10:57Z</time>
      </trkpt>
      <trkpt lat="25.5095360" lon="-100.7268970">
        <ele>2169.2</ele>
        <time>2022-08-20T16:10:58Z</time>
      </trkpt>
      <trkpt lat="25.5095220" lon="-100.7269400">
        <ele>2168.6</ele>
        <time>2022-08-20T16:10:59Z</time>
      </trkpt>
      <trkpt lat="25.5095030" lon="-100.7270240">
        <ele>2167.2</ele>
        <time>2022-08-20T16:11:01Z</time>
      </trkpt>
      <trkpt lat="25.5095110" lon="-100.7271420">
        <ele>2166.0</ele>
        <time>2022-08-20T16:11:04Z</time>
      </trkpt>
      <trkpt lat="25.5095520" lon="-100.7273590">
        <ele>2165.8</ele>
        <time>2022-08-20T16:11:09Z</time>
      </trkpt>
      <trkpt lat="25.5095580" lon="-100.7274050">
        <ele>2165.8</ele>
        <time>2022-08-20T16:11:10Z</time>
      </trkpt>
      <trkpt lat="25.5096070" lon="-100.7276330">
        <ele>2166.0</ele>
        <time>2022-08-20T16:11:14Z</time>
      </trkpt>
      <trkpt lat="25.5096980" lon="-100.7278960">
        <ele>2166.0</ele>
        <time>2022-08-20T16:11:18Z</time>
      </trkpt>
      <trkpt lat="25.5097150" lon="-100.7279700">
        <ele>2166.0</ele>
        <time>2022-08-20T16:11:19Z</time>
      </trkpt>
      <trkpt lat="25.5097400" lon="-100.7282850">
        <ele>2165.6</ele>
        <time>2022-08-20T16:11:23Z</time>
      </trkpt>
      <trkpt lat="25.5097600" lon="-100.7284480">
        <ele>2165.0</ele>
        <time>2022-08-20T16:11:25Z</time>
      </trkpt>
      <trkpt lat="25.5097530" lon="-100.7285340">
        <ele>2164.8</ele>
        <time>2022-08-20T16:11:26Z</time>
      </trkpt>
      <trkpt lat="25.5097370" lon="-100.7286180">
        <ele>2164.6</ele>
        <time>2022-08-20T16:11:27Z</time>
      </trkpt>
      <trkpt lat="25.5096730" lon="-100.7287730">
        <ele>2163.8</ele>
        <time>2022-08-20T16:11:29Z</time>
      </trkpt>
      <trkpt lat="25.5096370" lon="-100.7288470">
        <ele>2163.2</ele>
        <time>2022-08-20T16:11:30Z</time>
      </trkpt>
      <trkpt lat="25.5096000" lon="-100.7289240">
        <ele>2162.8</ele>
        <time>2022-08-20T16:11:31Z</time>
      </trkpt>
      <trkpt lat="25.5095680" lon="-100.7290000">
        <ele>2162.4</ele>
        <time>2022-08-20T16:11:32Z</time>
      </trkpt>
      <trkpt lat="25.5095180" lon="-100.7291620">
        <ele>2161.0</ele>
        <time>2022-08-20T16:11:34Z</time>
      </trkpt>
      <trkpt lat="25.5095000" lon="-100.7292510">
        <ele>2160.2</ele>
        <time>2022-08-20T16:11:35Z</time>
      </trkpt>
      <trkpt lat="25.5094870" lon="-100.7293380">
        <ele>2159.2</ele>
        <time>2022-08-20T16:11:36Z</time>
      </trkpt>
      <trkpt lat="25.5094740" lon="-100.7295090">
        <ele>2157.2</ele>
        <time>2022-08-20T16:11:38Z</time>
      </trkpt>
      <trkpt lat="25.5094630" lon="-100.7296710">
        <ele>2155.4</ele>
        <time>2022-08-20T16:11:40Z</time>
      </trkpt>
      <trkpt lat="25.5094570" lon="-100.7297440">
        <ele>2154.6</ele>
        <time>2022-08-20T16:11:41Z</time>
      </trkpt>
      <trkpt lat="25.5094500" lon="-100.7298160">
        <ele>2153.8</ele>
        <time>2022-08-20T16:11:42Z</time>
      </trkpt>
      <trkpt lat="25.5094400" lon="-100.7298910">
        <ele>2152.6</ele>
        <time>2022-08-20T16:11:43Z</time>
      </trkpt>
      <trkpt lat="25.5094290" lon="-100.7299650">
        <ele>2151.6</ele>
        <time>2022-08-20T16:11:44Z</time>
      </trkpt>
      <trkpt lat="25.5094220" lon="-100.7300410">
        <ele>2150.2</ele>
        <time>2022-08-20T16:11:45Z</time>
      </trkpt>
      <trkpt lat="25.5094160" lon="-100.7301180">
        <ele>2149.0</ele>
        <time>2022-08-20T16:11:46Z</time>
      </trkpt>
      <trkpt lat="25.5094140" lon="-100.7301910">
        <ele>2148.0</ele>
        <time>2022-08-20T16:11:47Z</time>
      </trkpt>
      <trkpt lat="25.5094140" lon="-100.7302600">
        <ele>2147.4</ele>
        <time>2022-08-20T16:11:48Z</time>
      </trkpt>
      <trkpt lat="25.5094200" lon="-100.7303240">
        <ele>2145.8</ele>
        <time>2022-08-20T16:11:49Z</time>
      </trkpt>
      <trkpt lat="25.5094320" lon="-100.7303920">
        <ele>2145.0</ele>
        <time>2022-08-20T16:11:50Z</time>
      </trkpt>
      <trkpt lat="25.5094440" lon="-100.7304600">
        <ele>2144.4</ele>
        <time>2022-08-20T16:11:51Z</time>
      </trkpt>
      <trkpt lat="25.5094400" lon="-100.7305780">
        <ele>2142.6</ele>
        <time>2022-08-20T16:11:53Z</time>
      </trkpt>
      <trkpt lat="25.5094320" lon="-100.7306310">
        <ele>2141.8</ele>
        <time>2022-08-20T16:11:54Z</time>
      </trkpt>
      <trkpt lat="25.5094270" lon="-100.7306800">
        <ele>2140.6</ele>
        <time>2022-08-20T16:11:55Z</time>
      </trkpt>
      <trkpt lat="25.5094270" lon="-100.7307610">
        <ele>2139.4</ele>
        <time>2022-08-20T16:11:57Z</time>
      </trkpt>
      <trkpt lat="25.5094290" lon="-100.7309020">
        <ele>2139.0</ele>
        <time>2022-08-20T16:12:00Z</time>
      </trkpt>
      <trkpt lat="25.5094430" lon="-100.7311300">
        <ele>2138.4</ele>
        <time>2022-08-20T16:12:04Z</time>
      </trkpt>
      <trkpt lat="25.5094470" lon="-100.7312610">
        <ele>2138.0</ele>
        <time>2022-08-20T16:12:06Z</time>
      </trkpt>
      <trkpt lat="25.5094440" lon="-100.7313380">
        <ele>2138.0</ele>
        <time>2022-08-20T16:12:07Z</time>
      </trkpt>
      <trkpt lat="25.5093760" lon="-100.7315840">
        <ele>2137.8</ele>
        <time>2022-08-20T16:12:10Z</time>
      </trkpt>
      <trkpt lat="25.5092950" lon="-100.7319310">
        <ele>2137.4</ele>
        <time>2022-08-20T16:12:14Z</time>
      </trkpt>
      <trkpt lat="25.5092970" lon="-100.7321010">
        <ele>2136.2</ele>
        <time>2022-08-20T16:12:16Z</time>
      </trkpt>
      <trkpt lat="25.5093070" lon="-100.7321780">
        <ele>2135.6</ele>
        <time>2022-08-20T16:12:17Z</time>
      </trkpt>
      <trkpt lat="25.5093140" lon="-100.7322580">
        <ele>2135.0</ele>
        <time>2022-08-20T16:12:18Z</time>
      </trkpt>
      <trkpt lat="25.5093130" lon="-100.7324200">
        <ele>2134.0</ele>
        <time>2022-08-20T16:12:20Z</time>
      </trkpt>
      <trkpt lat="25.5093030" lon="-100.7324990">
        <ele>2133.6</ele>
        <time>2022-08-20T16:12:21Z</time>
      </trkpt>
      <trkpt lat="25.5092880" lon="-100.7326510">
        <ele>2132.6</ele>
        <time>2022-08-20T16:12:23Z</time>
      </trkpt>
      <trkpt lat="25.5092860" lon="-100.7327160">
        <ele>2131.8</ele>
        <time>2022-08-20T16:12:24Z</time>
      </trkpt>
      <trkpt lat="25.5092960" lon="-100.7328040">
        <ele>2130.4</ele>
        <time>2022-08-20T16:12:26Z</time>
      </trkpt>
      <trkpt lat="25.5093070" lon="-100.7328960">
        <ele>2129.0</ele>
        <time>2022-08-20T16:12:28Z</time>
      </trkpt>
      <trkpt lat="25.5093090" lon="-100.7329510">
        <ele>2128.4</ele>
        <time>2022-08-20T16:12:29Z</time>
      </trkpt>
      <trkpt lat="25.5093050" lon="-100.7330130">
        <ele>2128.2</ele>
        <time>2022-08-20T16:12:30Z</time>
      </trkpt>
      <trkpt lat="25.5092990" lon="-100.7330760">
        <ele>2127.6</ele>
        <time>2022-08-20T16:12:31Z</time>
      </trkpt>
      <trkpt lat="25.5092880" lon="-100.7331420">
        <ele>2126.6</ele>
        <time>2022-08-20T16:12:32Z</time>
      </trkpt>
      <trkpt lat="25.5092710" lon="-100.7332090">
        <ele>2126.2</ele>
        <time>2022-08-20T16:12:33Z</time>
      </trkpt>
      <trkpt lat="25.5092400" lon="-100.7333440">
        <ele>2125.4</ele>
        <time>2022-08-20T16:12:35Z</time>
      </trkpt>
      <trkpt lat="25.5092260" lon="-100.7334080">
        <ele>2125.0</ele>
        <time>2022-08-20T16:12:36Z</time>
      </trkpt>
      <trkpt lat="25.5092100" lon="-100.7334700">
        <ele>2124.4</ele>
        <time>2022-08-20T16:12:37Z</time>
      </trkpt>
      <trkpt lat="25.5091690" lon="-100.7335890">
        <ele>2122.6</ele>
        <time>2022-08-20T16:12:39Z</time>
      </trkpt>
      <trkpt lat="25.5091230" lon="-100.7337020">
        <ele>2121.0</ele>
        <time>2022-08-20T16:12:41Z</time>
      </trkpt>
      <trkpt lat="25.5090980" lon="-100.7337580">
        <ele>2119.8</ele>
        <time>2022-08-20T16:12:42Z</time>
      </trkpt>
      <trkpt lat="25.5090700" lon="-100.7338130">
        <ele>2118.8</ele>
        <time>2022-08-20T16:12:43Z</time>
      </trkpt>
      <trkpt lat="25.5090390" lon="-100.7338750">
        <ele>2118.2</ele>
        <time>2022-08-20T16:12:44Z</time>
      </trkpt>
      <trkpt lat="25.5089930" lon="-100.7340050">
        <ele>2116.8</ele>
        <time>2022-08-20T16:12:46Z</time>
      </trkpt>
      <trkpt lat="25.5089790" lon="-100.7340730">
        <ele>2115.4</ele>
        <time>2022-08-20T16:12:47Z</time>
      </trkpt>
      <trkpt lat="25.5089680" lon="-100.7341440">
        <ele>2114.6</ele>
        <time>2022-08-20T16:12:48Z</time>
      </trkpt>
      <trkpt lat="25.5089530" lon="-100.7342160">
        <ele>2114.0</ele>
        <time>2022-08-20T16:12:49Z</time>
      </trkpt>
      <trkpt lat="25.5089060" lon="-100.7343600">
        <ele>2113.0</ele>
        <time>2022-08-20T16:12:51Z</time>
      </trkpt>
      <trkpt lat="25.5088540" lon="-100.7345030">
        <ele>2111.4</ele>
        <time>2022-08-20T16:12:53Z</time>
      </trkpt>
      <trkpt lat="25.5088090" lon="-100.7346460">
        <ele>2110.2</ele>
        <time>2022-08-20T16:12:55Z</time>
      </trkpt>
      <trkpt lat="25.5087770" lon="-100.7348050">
        <ele>2109.2</ele>
        <time>2022-08-20T16:12:57Z</time>
      </trkpt>
      <trkpt lat="25.5087620" lon="-100.7348900">
        <ele>2108.4</ele>
        <time>2022-08-20T16:12:58Z</time>
      </trkpt>
      <trkpt lat="25.5087440" lon="-100.7349770">
        <ele>2107.8</ele>
        <time>2022-08-20T16:12:59Z</time>
      </trkpt>
      <trkpt lat="25.5086900" lon="-100.7351570">
        <ele>2106.8</ele>
        <time>2022-08-20T16:13:01Z</time>
      </trkpt>
      <trkpt lat="25.5086480" lon="-100.7352360">
        <ele>2106.6</ele>
        <time>2022-08-20T16:13:02Z</time>
      </trkpt>
      <trkpt lat="25.5085460" lon="-100.7353660">
        <ele>2105.4</ele>
        <time>2022-08-20T16:13:04Z</time>
      </trkpt>
      <trkpt lat="25.5084330" lon="-100.7354680">
        <ele>2104.2</ele>
        <time>2022-08-20T16:13:06Z</time>
      </trkpt>
      <trkpt lat="25.5082930" lon="-100.7355450">
        <ele>2102.8</ele>
        <time>2022-08-20T16:13:08Z</time>
      </trkpt>
      <trkpt lat="25.5081460" lon="-100.7355930">
        <ele>2101.4</ele>
        <time>2022-08-20T16:13:10Z</time>
      </trkpt>
      <trkpt lat="25.5080680" lon="-100.7356120">
        <ele>2100.4</ele>
        <time>2022-08-20T16:13:11Z</time>
      </trkpt>
      <trkpt lat="25.5079900" lon="-100.7356340">
        <ele>2099.6</ele>
        <time>2022-08-20T16:13:12Z</time>
      </trkpt>
      <trkpt lat="25.5078380" lon="-100.7356760">
        <ele>2098.0</ele>
        <time>2022-08-20T16:13:14Z</time>
      </trkpt>
      <trkpt lat="25.5077770" lon="-100.7356960">
        <ele>2097.4</ele>
        <time>2022-08-20T16:13:15Z</time>
      </trkpt>
      <trkpt lat="25.5077310" lon="-100.7357150">
        <ele>2096.8</ele>
        <time>2022-08-20T16:13:16Z</time>
      </trkpt>
      <trkpt lat="25.5076820" lon="-100.7357720">
        <ele>2095.8</ele>
        <time>2022-08-20T16:13:18Z</time>
      </trkpt>
      <trkpt lat="25.5076720" lon="-100.7358090">
        <ele>2095.2</ele>
        <time>2022-08-20T16:13:19Z</time>
      </trkpt>
      <trkpt lat="25.5076650" lon="-100.7358460">
        <ele>2095.2</ele>
        <time>2022-08-20T16:13:20Z</time>
      </trkpt>
      <trkpt lat="25.5076480" lon="-100.7359690">
        <ele>2094.8</ele>
        <time>2022-08-20T16:13:23Z</time>
      </trkpt>
      <trkpt lat="25.5075860" lon="-100.7361730">
        <ele>2094.4</ele>
        <time>2022-08-20T16:13:27Z</time>
      </trkpt>
      <trkpt lat="25.5075620" lon="-100.7362280">
        <ele>2094.2</ele>
        <time>2022-08-20T16:13:28Z</time>
      </trkpt>
      <trkpt lat="25.5074980" lon="-100.7364210">
        <ele>2094.0</ele>
        <time>2022-08-20T16:13:31Z</time>
      </trkpt>
      <trkpt lat="25.5074700" lon="-100.7365590">
        <ele>2093.8</ele>
        <time>2022-08-20T16:13:33Z</time>
      </trkpt>
      <trkpt lat="25.5074590" lon="-100.7367010">
        <ele>2093.4</ele>
        <time>2022-08-20T16:13:35Z</time>
      </trkpt>
      <trkpt lat="25.5074710" lon="-100.7367740">
        <ele>2092.8</ele>
        <time>2022-08-20T16:13:36Z</time>
      </trkpt>
      <trkpt lat="25.5074840" lon="-100.7368450">
        <ele>2092.6</ele>
        <time>2022-08-20T16:13:37Z</time>
      </trkpt>
      <trkpt lat="25.5074980" lon="-100.7369170">
        <ele>2091.6</ele>
        <time>2022-08-20T16:13:38Z</time>
      </trkpt>
      <trkpt lat="25.5075060" lon="-100.7370510">
        <ele>2090.2</ele>
        <time>2022-08-20T16:13:40Z</time>
      </trkpt>
      <trkpt lat="25.5074880" lon="-100.7371100">
        <ele>2089.6</ele>
        <time>2022-08-20T16:13:41Z</time>
      </trkpt>
      <trkpt lat="25.5074580" lon="-100.7371700">
        <ele>2088.6</ele>
        <time>2022-08-20T16:13:42Z</time>
      </trkpt>
      <trkpt lat="25.5074130" lon="-100.7372310">
        <ele>2087.6</ele>
        <time>2022-08-20T16:13:43Z</time>
      </trkpt>
      <trkpt lat="25.5073530" lon="-100.7372910">
        <ele>2086.4</ele>
        <time>2022-08-20T16:13:44Z</time>
      </trkpt>
      <trkpt lat="25.5072860" lon="-100.7373410">
        <ele>2084.6</ele>
        <time>2022-08-20T16:13:45Z</time>
      </trkpt>
      <trkpt lat="25.5071490" lon="-100.7374260">
        <ele>2082.8</ele>
        <time>2022-08-20T16:13:47Z</time>
      </trkpt>
      <trkpt lat="25.5070840" lon="-100.7374610">
        <ele>2082.2</ele>
        <time>2022-08-20T16:13:48Z</time>
      </trkpt>
      <trkpt lat="25.5070220" lon="-100.7375050">
        <ele>2081.4</ele>
        <time>2022-08-20T16:13:49Z</time>
      </trkpt>
      <trkpt lat="25.5069680" lon="-100.7375550">
        <ele>2080.6</ele>
        <time>2022-08-20T16:13:50Z</time>
      </trkpt>
      <trkpt lat="25.5069230" lon="-100.7376250">
        <ele>2079.6</ele>
        <time>2022-08-20T16:13:51Z</time>
      </trkpt>
      <trkpt lat="25.5068940" lon="-100.7376970">
        <ele>2078.4</ele>
        <time>2022-08-20T16:13:52Z</time>
      </trkpt>
      <trkpt lat="25.5068830" lon="-100.7378790">
        <ele>2077.4</ele>
        <time>2022-08-20T16:13:54Z</time>
      </trkpt>
      <trkpt lat="25.5068800" lon="-100.7379670">
        <ele>2077.0</ele>
        <time>2022-08-20T16:13:55Z</time>
      </trkpt>
      <trkpt lat="25.5068630" lon="-100.7380470">
        <ele>2077.0</ele>
        <time>2022-08-20T16:13:56Z</time>
      </trkpt>
      <trkpt lat="25.5068230" lon="-100.7382970">
        <ele>2076.4</ele>
        <time>2022-08-20T16:13:59Z</time>
      </trkpt>
      <trkpt lat="25.5068160" lon="-100.7383750">
        <ele>2075.6</ele>
        <time>2022-08-20T16:14:00Z</time>
      </trkpt>
      <trkpt lat="25.5068080" lon="-100.7384500">
        <ele>2074.8</ele>
        <time>2022-08-20T16:14:01Z</time>
      </trkpt>
      <trkpt lat="25.5067790" lon="-100.7385970">
        <ele>2073.6</ele>
        <time>2022-08-20T16:14:03Z</time>
      </trkpt>
      <trkpt lat="25.5067230" lon="-100.7387580">
        <ele>2072.4</ele>
        <time>2022-08-20T16:14:05Z</time>
      </trkpt>
      <trkpt lat="25.5066510" lon="-100.7389260">
        <ele>2071.0</ele>
        <time>2022-08-20T16:14:07Z</time>
      </trkpt>
      <trkpt lat="25.5066010" lon="-100.7390630">
        <ele>2069.2</ele>
        <time>2022-08-20T16:14:09Z</time>
      </trkpt>
      <trkpt lat="25.5065770" lon="-100.7391130">
        <ele>2068.2</ele>
        <time>2022-08-20T16:14:10Z</time>
      </trkpt>
      <trkpt lat="25.5065220" lon="-100.7391900">
        <ele>2066.0</ele>
        <time>2022-08-20T16:14:12Z</time>
      </trkpt>
      <trkpt lat="25.5064690" lon="-100.7392870">
        <ele>2064.8</ele>
        <time>2022-08-20T16:14:14Z</time>
      </trkpt>
      <trkpt lat="25.5064460" lon="-100.7393430">
        <ele>2064.6</ele>
        <time>2022-08-20T16:14:15Z</time>
      </trkpt>
      <trkpt lat="25.5064280" lon="-100.7393970">
        <ele>2064.4</ele>
        <time>2022-08-20T16:14:16Z</time>
      </trkpt>
      <trkpt lat="25.5063520" lon="-100.7395710">
        <ele>2064.0</ele>
        <time>2022-08-20T16:14:19Z</time>
      </trkpt>
      <trkpt lat="25.5063180" lon="-100.7396290">
        <ele>2064.0</ele>
        <time>2022-08-20T16:14:20Z</time>
      </trkpt>
      <trkpt lat="25.5062790" lon="-100.7396830">
        <ele>2063.6</ele>
        <time>2022-08-20T16:14:21Z</time>
      </trkpt>
      <trkpt lat="25.5059580" lon="-100.7400530">
        <ele>2063.6</ele>
        <time>2022-08-20T16:14:28Z</time>
      </trkpt>
      <trkpt lat="25.5057060" lon="-100.7402530">
        <ele>2062.8</ele>
        <time>2022-08-20T16:14:32Z</time>
      </trkpt>
      <trkpt lat="25.5056370" lon="-100.7402860">
        <ele>2062.6</ele>
        <time>2022-08-20T16:14:33Z</time>
      </trkpt>
      <trkpt lat="25.5054220" lon="-100.7403570">
        <ele>2061.6</ele>
        <time>2022-08-20T16:14:36Z</time>
      </trkpt>
      <trkpt lat="25.5053100" lon="-100.7404550">
        <ele>2060.6</ele>
        <time>2022-08-20T16:14:38Z</time>
      </trkpt>
      <trkpt lat="25.5052630" lon="-100.7405200">
        <ele>2059.8</ele>
        <time>2022-08-20T16:14:39Z</time>
      </trkpt>
      <trkpt lat="25.5052160" lon="-100.7405840">
        <ele>2059.2</ele>
        <time>2022-08-20T16:14:40Z</time>
      </trkpt>
      <trkpt lat="25.5051640" lon="-100.7406530">
        <ele>2057.8</ele>
        <time>2022-08-20T16:14:41Z</time>
      </trkpt>
      <trkpt lat="25.5050390" lon="-100.7407740">
        <ele>2056.4</ele>
        <time>2022-08-20T16:14:43Z</time>
      </trkpt>
      <trkpt lat="25.5048900" lon="-100.7408840">
        <ele>2055.0</ele>
        <time>2022-08-20T16:14:45Z</time>
      </trkpt>
      <trkpt lat="25.5046570" lon="-100.7410330">
        <ele>2053.8</ele>
        <time>2022-08-20T16:14:48Z</time>
      </trkpt>
      <trkpt lat="25.5045080" lon="-100.7411230">
        <ele>2052.8</ele>
        <time>2022-08-20T16:14:50Z</time>
      </trkpt>
      <trkpt lat="25.5042620" lon="-100.7412370">
        <ele>2051.4</ele>
        <time>2022-08-20T16:14:53Z</time>
      </trkpt>
      <trkpt lat="25.5041760" lon="-100.7412720">
        <ele>2050.8</ele>
        <time>2022-08-20T16:14:54Z</time>
      </trkpt>
      <trkpt lat="25.5040930" lon="-100.7413080">
        <ele>2050.2</ele>
        <time>2022-08-20T16:14:55Z</time>
      </trkpt>
      <trkpt lat="25.5039240" lon="-100.7413900">
        <ele>2049.6</ele>
        <time>2022-08-20T16:14:57Z</time>
      </trkpt>
      <trkpt lat="25.5038490" lon="-100.7414400">
        <ele>2049.2</ele>
        <time>2022-08-20T16:14:58Z</time>
      </trkpt>
      <trkpt lat="25.5037760" lon="-100.7414970">
        <ele>2049.0</ele>
        <time>2022-08-20T16:14:59Z</time>
      </trkpt>
      <trkpt lat="25.5036530" lon="-100.7416130">
        <ele>2047.8</ele>
        <time>2022-08-20T16:15:01Z</time>
      </trkpt>
      <trkpt lat="25.5036130" lon="-100.7416640">
        <ele>2047.0</ele>
        <time>2022-08-20T16:15:02Z</time>
      </trkpt>
      <trkpt lat="25.5035870" lon="-100.7417220">
        <ele>2046.2</ele>
        <time>2022-08-20T16:15:03Z</time>
      </trkpt>
      <trkpt lat="25.5035750" lon="-100.7418720">
        <ele>2044.6</ele>
        <time>2022-08-20T16:15:05Z</time>
      </trkpt>
      <trkpt lat="25.5035280" lon="-100.7421280">
        <ele>2044.2</ele>
        <time>2022-08-20T16:15:08Z</time>
      </trkpt>
      <trkpt lat="25.5033830" lon="-100.7423670">
        <ele>2043.8</ele>
        <time>2022-08-20T16:15:11Z</time>
      </trkpt>
      <trkpt lat="25.5033270" lon="-100.7424440">
        <ele>2043.8</ele>
        <time>2022-08-20T16:15:12Z</time>
      </trkpt>
      <trkpt lat="25.5032700" lon="-100.7425190">
        <ele>2043.6</ele>
        <time>2022-08-20T16:15:13Z</time>
      </trkpt>
      <trkpt lat="25.5031620" lon="-100.7426650">
        <ele>2042.4</ele>
        <time>2022-08-20T16:15:15Z</time>
      </trkpt>
      <trkpt lat="25.5030750" lon="-100.7428210">
        <ele>2040.8</ele>
        <time>2022-08-20T16:15:17Z</time>
      </trkpt>
      <trkpt lat="25.5030110" lon="-100.7429930">
        <ele>2039.6</ele>
        <time>2022-08-20T16:15:19Z</time>
      </trkpt>
      <trkpt lat="25.5029780" lon="-100.7430700">
        <ele>2038.8</ele>
        <time>2022-08-20T16:15:20Z</time>
      </trkpt>
      <trkpt lat="25.5029440" lon="-100.7431360">
        <ele>2038.2</ele>
        <time>2022-08-20T16:15:21Z</time>
      </trkpt>
      <trkpt lat="25.5029030" lon="-100.7431840">
        <ele>2037.4</ele>
        <time>2022-08-20T16:15:22Z</time>
      </trkpt>
      <trkpt lat="25.5028060" lon="-100.7432420">
        <ele>2036.2</ele>
        <time>2022-08-20T16:15:24Z</time>
      </trkpt>
      <trkpt lat="25.5027030" lon="-100.7432710">
        <ele>2034.6</ele>
        <time>2022-08-20T16:15:26Z</time>
      </trkpt>
      <trkpt lat="25.5026500" lon="-100.7432830">
        <ele>2033.4</ele>
        <time>2022-08-20T16:15:27Z</time>
      </trkpt>
      <trkpt lat="25.5025980" lon="-100.7433010">
        <ele>2032.8</ele>
        <time>2022-08-20T16:15:28Z</time>
      </trkpt>
      <trkpt lat="25.5025470" lon="-100.7433230">
        <ele>2032.4</ele>
        <time>2022-08-20T16:15:29Z</time>
      </trkpt>
      <trkpt lat="25.5022270" lon="-100.7435240">
        <ele>2031.8</ele>
        <time>2022-08-20T16:15:35Z</time>
      </trkpt>
      <trkpt lat="25.5018260" lon="-100.7438630">
        <ele>2031.6</ele>
        <time>2022-08-20T16:15:42Z</time>
      </trkpt>
      <trkpt lat="25.5016340" lon="-100.7440070">
        <ele>2031.4</ele>
        <time>2022-08-20T16:15:45Z</time>
      </trkpt>
      <trkpt lat="25.5014460" lon="-100.7441190">
        <ele>2030.8</ele>
        <time>2022-08-20T16:15:48Z</time>
      </trkpt>
      <trkpt lat="25.5013100" lon="-100.7441730">
        <ele>2030.4</ele>
        <time>2022-08-20T16:15:50Z</time>
      </trkpt>
      <trkpt lat="25.5011710" lon="-100.7442020">
        <ele>2030.4</ele>
        <time>2022-08-20T16:15:52Z</time>
      </trkpt>
      <trkpt lat="25.5011020" lon="-100.7442060">
        <ele>2030.4</ele>
        <time>2022-08-20T16:15:53Z</time>
      </trkpt>
      <trkpt lat="25.5008370" lon="-100.7441940">
        <ele>2030.4</ele>
        <time>2022-08-20T16:15:57Z</time>
      </trkpt>
      <trkpt lat="25.5007660" lon="-100.7441800">
        <ele>2030.4</ele>
        <time>2022-08-20T16:15:58Z</time>
      </trkpt>
      <trkpt lat="25.5003420" lon="-100.7441300">
        <ele>2030.6</ele>
        <time>2022-08-20T16:16:03Z</time>
      </trkpt>
      <trkpt lat="25.4997630" lon="-100.7440520">
        <ele>2030.0</ele>
        <time>2022-08-20T16:16:09Z</time>
      </trkpt>
      <trkpt lat="25.4996770" lon="-100.7440350">
        <ele>2029.4</ele>
        <time>2022-08-20T16:16:10Z</time>
      </trkpt>
      <trkpt lat="25.4995190" lon="-100.7440340">
        <ele>2027.8</ele>
        <time>2022-08-20T16:16:12Z</time>
      </trkpt>
      <trkpt lat="25.4994410" lon="-100.7440560">
        <ele>2027.0</ele>
        <time>2022-08-20T16:16:13Z</time>
      </trkpt>
      <trkpt lat="25.4992720" lon="-100.7441190">
        <ele>2025.8</ele>
        <time>2022-08-20T16:16:15Z</time>
      </trkpt>
      <trkpt lat="25.4990210" lon="-100.7442310">
        <ele>2025.4</ele>
        <time>2022-08-20T16:16:18Z</time>
      </trkpt>
      <trkpt lat="25.4989470" lon="-100.7442790">
        <ele>2025.2</ele>
        <time>2022-08-20T16:16:19Z</time>
      </trkpt>
      <trkpt lat="25.4987400" lon="-100.7444570">
        <ele>2025.0</ele>
        <time>2022-08-20T16:16:22Z</time>
      </trkpt>
      <trkpt lat="25.4986750" lon="-100.7445180">
        <ele>2024.4</ele>
        <time>2022-08-20T16:16:23Z</time>
      </trkpt>
      <trkpt lat="25.4985590" lon="-100.7446520">
        <ele>2023.2</ele>
        <time>2022-08-20T16:16:25Z</time>
      </trkpt>
      <trkpt lat="25.4984790" lon="-100.7448030">
        <ele>2022.4</ele>
        <time>2022-08-20T16:16:27Z</time>
      </trkpt>
      <trkpt lat="25.4984570" lon="-100.7448840">
        <ele>2022.2</ele>
        <time>2022-08-20T16:16:28Z</time>
      </trkpt>
      <trkpt lat="25.4984510" lon="-100.7450450">
        <ele>2021.6</ele>
        <time>2022-08-20T16:16:30Z</time>
      </trkpt>
      <trkpt lat="25.4984970" lon="-100.7453010">
        <ele>2021.4</ele>
        <time>2022-08-20T16:16:33Z</time>
      </trkpt>
      <trkpt lat="25.4985190" lon="-100.7453830">
        <ele>2021.4</ele>
        <time>2022-08-20T16:16:34Z</time>
      </trkpt>
      <trkpt lat="25.4985410" lon="-100.7455360">
        <ele>2021.2</ele>
        <time>2022-08-20T16:16:36Z</time>
      </trkpt>
      <trkpt lat="25.4985290" lon="-100.7456140">
        <ele>2021.2</ele>
        <time>2022-08-20T16:16:37Z</time>
      </trkpt>
      <trkpt lat="25.4984340" lon="-100.7458490">
        <ele>2019.8</ele>
        <time>2022-08-20T16:16:40Z</time>
      </trkpt>
      <trkpt lat="25.4983900" lon="-100.7459210">
        <ele>2018.8</ele>
        <time>2022-08-20T16:16:41Z</time>
      </trkpt>
      <trkpt lat="25.4983410" lon="-100.7459840">
        <ele>2018.0</ele>
        <time>2022-08-20T16:16:42Z</time>
      </trkpt>
      <trkpt lat="25.4982870" lon="-100.7460360">
        <ele>2017.2</ele>
        <time>2022-08-20T16:16:43Z</time>
      </trkpt>
      <trkpt lat="25.4982250" lon="-100.7460730">
        <ele>2016.2</ele>
        <time>2022-08-20T16:16:44Z</time>
      </trkpt>
      <trkpt lat="25.4981610" lon="-100.7460890">
        <ele>2015.4</ele>
        <time>2022-08-20T16:16:45Z</time>
      </trkpt>
      <trkpt lat="25.4980950" lon="-100.7460880">
        <ele>2015.2</ele>
        <time>2022-08-20T16:16:46Z</time>
      </trkpt>
      <trkpt lat="25.4979620" lon="-100.7460410">
        <ele>2014.6</ele>
        <time>2022-08-20T16:16:48Z</time>
      </trkpt>
      <trkpt lat="25.4976960" lon="-100.7459240">
        <ele>2014.2</ele>
        <time>2022-08-20T16:16:52Z</time>
      </trkpt>
      <trkpt lat="25.4975330" lon="-100.7459540">
        <ele>2014.0</ele>
        <time>2022-08-20T16:16:54Z</time>
      </trkpt>
      <trkpt lat="25.4973700" lon="-100.7460020">
        <ele>2013.8</ele>
        <time>2022-08-20T16:16:56Z</time>
      </trkpt>
      <trkpt lat="25.4971900" lon="-100.7461450">
        <ele>2012.8</ele>
        <time>2022-08-20T16:16:59Z</time>
      </trkpt>
      <trkpt lat="25.4969790" lon="-100.7462640">
        <ele>2011.6</ele>
        <time>2022-08-20T16:17:02Z</time>
      </trkpt>
      <trkpt lat="25.4969100" lon="-100.7462960">
        <ele>2011.2</ele>
        <time>2022-08-20T16:17:03Z</time>
      </trkpt>
      <trkpt lat="25.4968450" lon="-100.7463320">
        <ele>2010.6</ele>
        <time>2022-08-20T16:17:04Z</time>
      </trkpt>
      <trkpt lat="25.4966250" lon="-100.7464880">
        <ele>2009.6</ele>
        <time>2022-08-20T16:17:08Z</time>
      </trkpt>
      <trkpt lat="25.4963820" lon="-100.7466370">
        <ele>2009.6</ele>
        <time>2022-08-20T16:17:13Z</time>
      </trkpt>
      <trkpt lat="25.4963280" lon="-100.7466510">
        <ele>2009.6</ele>
        <time>2022-08-20T16:17:14Z</time>
      </trkpt>
      <trkpt lat="25.4960990" lon="-100.7466130">
        <ele>2010.2</ele>
        <time>2022-08-20T16:17:18Z</time>
      </trkpt>
      <trkpt lat="25.4959260" lon="-100.7464760">
        <ele>2010.2</ele>
        <time>2022-08-20T16:17:21Z</time>
      </trkpt>
      <trkpt lat="25.4958610" lon="-100.7464290">
        <ele>2010.2</ele>
        <time>2022-08-20T16:17:22Z</time>
      </trkpt>
      <trkpt lat="25.4956440" lon="-100.7463540">
        <ele>2010.2</ele>
        <time>2022-08-20T16:17:25Z</time>
      </trkpt>
      <trkpt lat="25.4954650" lon="-100.7464580">
        <ele>2010.0</ele>
        <time>2022-08-20T16:17:28Z</time>
      </trkpt>
      <trkpt lat="25.4954180" lon="-100.7465210">
        <ele>2009.6</ele>
        <time>2022-08-20T16:17:29Z</time>
      </trkpt>
      <trkpt lat="25.4953720" lon="-100.7465850">
        <ele>2008.0</ele>
        <time>2022-08-20T16:17:30Z</time>
      </trkpt>
      <trkpt lat="25.4952180" lon="-100.7467790">
        <ele>2007.0</ele>
        <time>2022-08-20T16:17:33Z</time>
      </trkpt>
      <trkpt lat="25.4951580" lon="-100.7468460">
        <ele>2006.8</ele>
        <time>2022-08-20T16:17:34Z</time>
      </trkpt>
      <trkpt lat="25.4948690" lon="-100.7470640">
        <ele>2005.6</ele>
        <time>2022-08-20T16:17:38Z</time>
      </trkpt>
      <trkpt lat="25.4947100" lon="-100.7471040">
        <ele>2004.4</ele>
        <time>2022-08-20T16:17:40Z</time>
      </trkpt>
      <trkpt lat="25.4946270" lon="-100.7470940">
        <ele>2003.6</ele>
        <time>2022-08-20T16:17:41Z</time>
      </trkpt>
      <trkpt lat="25.4945380" lon="-100.7470770">
        <ele>2002.8</ele>
        <time>2022-08-20T16:17:42Z</time>
      </trkpt>
      <trkpt lat="25.4943610" lon="-100.7470310">
        <ele>2001.4</ele>
        <time>2022-08-20T16:17:44Z</time>
      </trkpt>
      <trkpt lat="25.4942800" lon="-100.7470070">
        <ele>2000.4</ele>
        <time>2022-08-20T16:17:45Z</time>
      </trkpt>
      <trkpt lat="25.4942050" lon="-100.7469850">
        <ele>1999.6</ele>
        <time>2022-08-20T16:17:46Z</time>
      </trkpt>
      <trkpt lat="25.4941300" lon="-100.7469780">
        <ele>1998.4</ele>
        <time>2022-08-20T16:17:47Z</time>
      </trkpt>
      <trkpt lat="25.4940540" lon="-100.7469900">
        <ele>1997.0</ele>
        <time>2022-08-20T16:17:48Z</time>
      </trkpt>
      <trkpt lat="25.4939820" lon="-100.7470240">
        <ele>1995.6</ele>
        <time>2022-08-20T16:17:49Z</time>
      </trkpt>
      <trkpt lat="25.4938520" lon="-100.7471180">
        <ele>1993.4</ele>
        <time>2022-08-20T16:17:51Z</time>
      </trkpt>
      <trkpt lat="25.4937050" lon="-100.7471700">
        <ele>1991.4</ele>
        <time>2022-08-20T16:17:53Z</time>
      </trkpt>
      <trkpt lat="25.4935370" lon="-100.7471670">
        <ele>1990.4</ele>
        <time>2022-08-20T16:17:55Z</time>
      </trkpt>
      <trkpt lat="25.4933650" lon="-100.7471550">
        <ele>1989.0</ele>
        <time>2022-08-20T16:17:57Z</time>
      </trkpt>
      <trkpt lat="25.4931880" lon="-100.7471440">
        <ele>1987.6</ele>
        <time>2022-08-20T16:17:59Z</time>
      </trkpt>
      <trkpt lat="25.4930070" lon="-100.7471470">
        <ele>1985.8</ele>
        <time>2022-08-20T16:18:01Z</time>
      </trkpt>
      <trkpt lat="25.4928250" lon="-100.7471390">
        <ele>1984.4</ele>
        <time>2022-08-20T16:18:03Z</time>
      </trkpt>
      <trkpt lat="25.4926650" lon="-100.7471410">
        <ele>1983.6</ele>
        <time>2022-08-20T16:18:05Z</time>
      </trkpt>
      <trkpt lat="25.4925930" lon="-100.7471560">
        <ele>1983.2</ele>
        <time>2022-08-20T16:18:06Z</time>
      </trkpt>
      <trkpt lat="25.4925230" lon="-100.7471740">
        <ele>1983.0</ele>
        <time>2022-08-20T16:18:07Z</time>
      </trkpt>
      <trkpt lat="25.4922820" lon="-100.7472300">
        <ele>1982.2</ele>
        <time>2022-08-20T16:18:10Z</time>
      </trkpt>
      <trkpt lat="25.4921090" lon="-100.7472720">
        <ele>1981.2</ele>
        <time>2022-08-20T16:18:12Z</time>
      </trkpt>
      <trkpt lat="25.4920270" lon="-100.7473100">
        <ele>1980.8</ele>
        <time>2022-08-20T16:18:13Z</time>
      </trkpt>
      <trkpt lat="25.4917980" lon="-100.7474450">
        <ele>1979.6</ele>
        <time>2022-08-20T16:18:16Z</time>
      </trkpt>
      <trkpt lat="25.4915780" lon="-100.7475760">
        <ele>1977.8</ele>
        <time>2022-08-20T16:18:19Z</time>
      </trkpt>
      <trkpt lat="25.4915050" lon="-100.7476050">
        <ele>1977.0</ele>
        <time>2022-08-20T16:18:20Z</time>
      </trkpt>
      <trkpt lat="25.4914260" lon="-100.7476190">
        <ele>1976.0</ele>
        <time>2022-08-20T16:18:21Z</time>
      </trkpt>
      <trkpt lat="25.4912520" lon="-100.7476190">
        <ele>1974.6</ele>
        <time>2022-08-20T16:18:23Z</time>
      </trkpt>
      <trkpt lat="25.4910790" lon="-100.7476150">
        <ele>1972.6</ele>
        <time>2022-08-20T16:18:25Z</time>
      </trkpt>
      <trkpt lat="25.4909900" lon="-100.7476150">
        <ele>1971.2</ele>
        <time>2022-08-20T16:18:26Z</time>
      </trkpt>
      <trkpt lat="25.4908980" lon="-100.7476150">
        <ele>1970.0</ele>
        <time>2022-08-20T16:18:27Z</time>
      </trkpt>
      <trkpt lat="25.4908090" lon="-100.7476190">
        <ele>1969.0</ele>
        <time>2022-08-20T16:18:28Z</time>
      </trkpt>
      <trkpt lat="25.4907250" lon="-100.7476270">
        <ele>1967.0</ele>
        <time>2022-08-20T16:18:29Z</time>
      </trkpt>
      <trkpt lat="25.4906470" lon="-100.7476330">
        <ele>1966.0</ele>
        <time>2022-08-20T16:18:30Z</time>
      </trkpt>
      <trkpt lat="25.4905770" lon="-100.7476420">
        <ele>1964.6</ele>
        <time>2022-08-20T16:18:31Z</time>
      </trkpt>
      <trkpt lat="25.4905130" lon="-100.7476500">
        <ele>1963.4</ele>
        <time>2022-08-20T16:18:32Z</time>
      </trkpt>
      <trkpt lat="25.4903860" lon="-100.7476560">
        <ele>1961.8</ele>
        <time>2022-08-20T16:18:34Z</time>
      </trkpt>
      <trkpt lat="25.4903180" lon="-100.7476440">
        <ele>1960.6</ele>
        <time>2022-08-20T16:18:35Z</time>
      </trkpt>
      <trkpt lat="25.4901810" lon="-100.7476050">
        <ele>1959.2</ele>
        <time>2022-08-20T16:18:37Z</time>
      </trkpt>
      <trkpt lat="25.4900400" lon="-100.7475720">
        <ele>1958.8</ele>
        <time>2022-08-20T16:18:39Z</time>
      </trkpt>
      <trkpt lat="25.4898250" lon="-100.7475460">
        <ele>1958.0</ele>
        <time>2022-08-20T16:18:42Z</time>
      </trkpt>
      <trkpt lat="25.4895870" lon="-100.7475420">
        <ele>1956.6</ele>
        <time>2022-08-20T16:18:45Z</time>
      </trkpt>
      <trkpt lat="25.4894120" lon="-100.7475400">
        <ele>1954.8</ele>
        <time>2022-08-20T16:18:47Z</time>
      </trkpt>
      <trkpt lat="25.4892320" lon="-100.7475400">
        <ele>1953.0</ele>
        <time>2022-08-20T16:18:49Z</time>
      </trkpt>
      <trkpt lat="25.4890540" lon="-100.7475450">
        <ele>1951.2</ele>
        <time>2022-08-20T16:18:51Z</time>
      </trkpt>
      <trkpt lat="25.4889660" lon="-100.7475490">
        <ele>1950.6</ele>
        <time>2022-08-20T16:18:52Z</time>
      </trkpt>
      <trkpt lat="25.4888810" lon="-100.7475520">
        <ele>1949.6</ele>
        <time>2022-08-20T16:18:53Z</time>
      </trkpt>
      <trkpt lat="25.4887980" lon="-100.7475520">
        <ele>1948.6</ele>
        <time>2022-08-20T16:18:54Z</time>
      </trkpt>
      <trkpt lat="25.4887170" lon="-100.7475530">
        <ele>1947.4</ele>
        <time>2022-08-20T16:18:55Z</time>
      </trkpt>
      <trkpt lat="25.4886380" lon="-100.7475550">
        <ele>1946.4</ele>
        <time>2022-08-20T16:18:56Z</time>
      </trkpt>
      <trkpt lat="25.4885610" lon="-100.7475580">
        <ele>1944.8</ele>
        <time>2022-08-20T16:18:57Z</time>
      </trkpt>
      <trkpt lat="25.4884870" lon="-100.7475630">
        <ele>1943.8</ele>
        <time>2022-08-20T16:18:58Z</time>
      </trkpt>
      <trkpt lat="25.4883480" lon="-100.7475770">
        <ele>1942.2</ele>
        <time>2022-08-20T16:19:00Z</time>
      </trkpt>
      <trkpt lat="25.4882180" lon="-100.7476060">
        <ele>1940.8</ele>
        <time>2022-08-20T16:19:02Z</time>
      </trkpt>
      <trkpt lat="25.4881570" lon="-100.7476200">
        <ele>1940.2</ele>
        <time>2022-08-20T16:19:03Z</time>
      </trkpt>
      <trkpt lat="25.4880950" lon="-100.7476250">
        <ele>1939.4</ele>
        <time>2022-08-20T16:19:04Z</time>
      </trkpt>
      <trkpt lat="25.4879610" lon="-100.7476080">
        <ele>1937.8</ele>
        <time>2022-08-20T16:19:06Z</time>
      </trkpt>
      <trkpt lat="25.4879010" lon="-100.7475870">
        <ele>1937.0</ele>
        <time>2022-08-20T16:19:07Z</time>
      </trkpt>
      <trkpt lat="25.4878480" lon="-100.7475630">
        <ele>1936.0</ele>
        <time>2022-08-20T16:19:08Z</time>
      </trkpt>
      <trkpt lat="25.4878020" lon="-100.7475470">
        <ele>1935.2</ele>
        <time>2022-08-20T16:19:09Z</time>
      </trkpt>
      <trkpt lat="25.4877590" lon="-100.7475470">
        <ele>1934.6</ele>
        <time>2022-08-20T16:19:10Z</time>
      </trkpt>
      <trkpt lat="25.4877220" lon="-100.7475610">
        <ele>1934.0</ele>
        <time>2022-08-20T16:19:11Z</time>
      </trkpt>
      <trkpt lat="25.4876920" lon="-100.7475870">
        <ele>1933.4</ele>
        <time>2022-08-20T16:19:12Z</time>
      </trkpt>
      <trkpt lat="25.4876530" lon="-100.7476500">
        <ele>1932.0</ele>
        <time>2022-08-20T16:19:14Z</time>
      </trkpt>
      <trkpt lat="25.4876320" lon="-100.7476820">
        <ele>1931.0</ele>
        <time>2022-08-20T16:19:15Z</time>
      </trkpt>
      <trkpt lat="25.4875890" lon="-100.7477560">
        <ele>1929.8</ele>
        <time>2022-08-20T16:19:17Z</time>
      </trkpt>
      <trkpt lat="25.4874970" lon="-100.7479310">
        <ele>1929.2</ele>
        <time>2022-08-20T16:19:21Z</time>
      </trkpt>
      <trkpt lat="25.4872690" lon="-100.7483160">
        <ele>1929.0</ele>
        <time>2022-08-20T16:19:29Z</time>
      </trkpt>
      <trkpt lat="25.4871680" lon="-100.7484620">
        <ele>1929.0</ele>
        <time>2022-08-20T16:19:32Z</time>
      </trkpt>
      <trkpt lat="25.4870120" lon="-100.7486450">
        <ele>1928.6</ele>
        <time>2022-08-20T16:19:36Z</time>
      </trkpt>
      <trkpt lat="25.4869260" lon="-100.7487170">
        <ele>1928.6</ele>
        <time>2022-08-20T16:19:38Z</time>
      </trkpt>
      <trkpt lat="25.4868240" lon="-100.7487780">
        <ele>1928.6</ele>
        <time>2022-08-20T16:19:40Z</time>
      </trkpt>
      <trkpt lat="25.4865680" lon="-100.7489600">
        <ele>1928.4</ele>
        <time>2022-08-20T16:19:45Z</time>
      </trkpt>
      <trkpt lat="25.4864740" lon="-100.7490520">
        <ele>1928.4</ele>
        <time>2022-08-20T16:19:47Z</time>
      </trkpt>
      <trkpt lat="25.4863880" lon="-100.7491070">
        <ele>1928.0</ele>
        <time>2022-08-20T16:19:49Z</time>
      </trkpt>
      <trkpt lat="25.4863080" lon="-100.7491590">
        <ele>1927.0</ele>
        <time>2022-08-20T16:19:51Z</time>
      </trkpt>
      <trkpt lat="25.4862670" lon="-100.7491880">
        <ele>1926.6</ele>
        <time>2022-08-20T16:19:52Z</time>
      </trkpt>
      <trkpt lat="25.4861900" lon="-100.7492440">
        <ele>1925.6</ele>
        <time>2022-08-20T16:19:54Z</time>
      </trkpt>
      <trkpt lat="25.4861230" lon="-100.7492980">
        <ele>1925.2</ele>
        <time>2022-08-20T16:19:56Z</time>
      </trkpt>
      <trkpt lat="25.4859450" lon="-100.7495210">
        <ele>1925.0</ele>
        <time>2022-08-20T16:20:03Z</time>
      </trkpt>
      <trkpt lat="25.4858450" lon="-100.7497850">
        <ele>1926.2</ele>
        <time>2022-08-20T16:20:09Z</time>
      </trkpt>
      <trkpt lat="25.4858350" lon="-100.7500430">
        <ele>1926.2</ele>
        <time>2022-08-20T16:20:13Z</time>
      </trkpt>
      <trkpt lat="25.4859460" lon="-100.7502920">
        <ele>1926.2</ele>
        <time>2022-08-20T16:20:16Z</time>
      </trkpt>
      <trkpt lat="25.4862010" lon="-100.7507890">
        <ele>1924.0</ele>
        <time>2022-08-20T16:20:22Z</time>
      </trkpt>
      <trkpt lat="25.4862420" lon="-100.7508600">
        <ele>1922.8</ele>
        <time>2022-08-20T16:20:23Z</time>
      </trkpt>
      <trkpt lat="25.4862820" lon="-100.7509280">
        <ele>1921.6</ele>
        <time>2022-08-20T16:20:24Z</time>
      </trkpt>
      <trkpt lat="25.4863520" lon="-100.7510610">
        <ele>1920.4</ele>
        <time>2022-08-20T16:20:26Z</time>
      </trkpt>
      <trkpt lat="25.4864050" lon="-100.7512010">
        <ele>1920.0</ele>
        <time>2022-08-20T16:20:28Z</time>
      </trkpt>
      <trkpt lat="25.4864550" lon="-100.7514320">
        <ele>1919.8</ele>
        <time>2022-08-20T16:20:31Z</time>
      </trkpt>
      <trkpt lat="25.4864590" lon="-100.7516050">
        <ele>1919.8</ele>
        <time>2022-08-20T16:20:33Z</time>
      </trkpt>
      <trkpt lat="25.4864440" lon="-100.7517900">
        <ele>1919.6</ele>
        <time>2022-08-20T16:20:35Z</time>
      </trkpt>
      <trkpt lat="25.4864330" lon="-100.7518800">
        <ele>1919.4</ele>
        <time>2022-08-20T16:20:36Z</time>
      </trkpt>
      <trkpt lat="25.4864080" lon="-100.7521330">
        <ele>1919.0</ele>
        <time>2022-08-20T16:20:39Z</time>
      </trkpt>
      <trkpt lat="25.4864050" lon="-100.7522080">
        <ele>1918.6</ele>
        <time>2022-08-20T16:20:40Z</time>
      </trkpt>
      <trkpt lat="25.4864080" lon="-100.7524160">
        <ele>1917.2</ele>
        <time>2022-08-20T16:20:43Z</time>
      </trkpt>
      <trkpt lat="25.4864120" lon="-100.7524870">
        <ele>1917.0</ele>
        <time>2022-08-20T16:20:44Z</time>
      </trkpt>
      <trkpt lat="25.4864760" lon="-100.7529020">
        <ele>1916.8</ele>
        <time>2022-08-20T16:20:50Z</time>
      </trkpt>
      <trkpt lat="25.4866030" lon="-100.7532080">
        <ele>1916.8</ele>
        <time>2022-08-20T16:20:55Z</time>
      </trkpt>
      <trkpt lat="25.4867190" lon="-100.7533820">
        <ele>1917.0</ele>
        <time>2022-08-20T16:21:00Z</time>
      </trkpt>
      <trkpt lat="25.4867900" lon="-100.7534730">
        <ele>1918.4</ele>
        <time>2022-08-20T16:21:04Z</time>
      </trkpt>
      <trkpt lat="25.4868240" lon="-100.7535260">
        <ele>1919.6</ele>
        <time>2022-08-20T16:21:06Z</time>
      </trkpt>
      <trkpt lat="25.4868560" lon="-100.7535820">
        <ele>1920.8</ele>
        <time>2022-08-20T16:21:08Z</time>
      </trkpt>
      <trkpt lat="25.4869050" lon="-100.7536700">
        <ele>1922.0</ele>
        <time>2022-08-20T16:21:11Z</time>
      </trkpt>
      <trkpt lat="25.4869950" lon="-100.7538170">
        <ele>1923.2</ele>
        <time>2022-08-20T16:21:16Z</time>
      </trkpt>
      <trkpt lat="25.4870140" lon="-100.7538430">
        <ele>1923.2</ele>
        <time>2022-08-20T16:21:17Z</time>
      </trkpt>
      <trkpt lat="25.4871530" lon="-100.7539860">
        <ele>1924.4</ele>
        <time>2022-08-20T16:21:24Z</time>
      </trkpt>
      <trkpt lat="25.4871820" lon="-100.7540010">
        <ele>1924.4</ele>
        <time>2022-08-20T16:21:25Z</time>
      </trkpt>
      <trkpt lat="25.4873780" lon="-100.7540890">
        <ele>1925.2</ele>
        <time>2022-08-20T16:21:31Z</time>
      </trkpt>
      <trkpt lat="25.4876110" lon="-100.7542420">
        <ele>1925.4</ele>
        <time>2022-08-20T16:21:39Z</time>
      </trkpt>
      <trkpt lat="25.4878100" lon="-100.7544270">
        <ele>1926.6</ele>
        <time>2022-08-20T16:21:48Z</time>
      </trkpt>
      <trkpt lat="25.4878320" lon="-100.7544490">
        <ele>1927.0</ele>
        <time>2022-08-20T16:21:49Z</time>
      </trkpt>
      <trkpt lat="25.4879380" lon="-100.7545430">
        <ele>1928.2</ele>
        <time>2022-08-20T16:21:53Z</time>
      </trkpt>
      <trkpt lat="25.4879660" lon="-100.7545640">
        <ele>1928.4</ele>
        <time>2022-08-20T16:21:54Z</time>
      </trkpt>
      <trkpt lat="25.4880690" lon="-100.7546540">
        <ele>1929.2</ele>
        <time>2022-08-20T16:21:58Z</time>
      </trkpt>
      <trkpt lat="25.4881960" lon="-100.7547900">
        <ele>1929.6</ele>
        <time>2022-08-20T16:22:03Z</time>
      </trkpt>
      <trkpt lat="25.4882500" lon="-100.7548600">
        <ele>1929.8</ele>
        <time>2022-08-20T16:22:05Z</time>
      </trkpt>
      <trkpt lat="25.4883290" lon="-100.7549990">
        <ele>1930.2</ele>
        <time>2022-08-20T16:22:08Z</time>
      </trkpt>
      <trkpt lat="25.4884560" lon="-100.7553140">
        <ele>1930.2</ele>
        <time>2022-08-20T16:22:13Z</time>
      </trkpt>
      <trkpt lat="25.4885660" lon="-100.7557930">
        <ele>1930.0</ele>
        <time>2022-08-20T16:22:19Z</time>
      </trkpt>
      <trkpt lat="25.4886000" lon="-100.7559610">
        <ele>1929.4</ele>
        <time>2022-08-20T16:22:21Z</time>
      </trkpt>
      <trkpt lat="25.4886130" lon="-100.7560450">
        <ele>1929.0</ele>
        <time>2022-08-20T16:22:22Z</time>
      </trkpt>
      <trkpt lat="25.4886360" lon="-100.7562230">
        <ele>1928.0</ele>
        <time>2022-08-20T16:22:24Z</time>
      </trkpt>
      <trkpt lat="25.4886590" lon="-100.7563990">
        <ele>1927.0</ele>
        <time>2022-08-20T16:22:26Z</time>
      </trkpt>
      <trkpt lat="25.4886990" lon="-100.7567780">
        <ele>1925.8</ele>
        <time>2022-08-20T16:22:30Z</time>
      </trkpt>
      <trkpt lat="25.4887120" lon="-100.7568760">
        <ele>1925.6</ele>
        <time>2022-08-20T16:22:31Z</time>
      </trkpt>
      <trkpt lat="25.4887660" lon="-100.7571610">
        <ele>1924.4</ele>
        <time>2022-08-20T16:22:34Z</time>
      </trkpt>
      <trkpt lat="25.4888460" lon="-100.7573050">
        <ele>1923.8</ele>
        <time>2022-08-20T16:22:36Z</time>
      </trkpt>
      <trkpt lat="25.4889450" lon="-100.7574420">
        <ele>1923.6</ele>
        <time>2022-08-20T16:22:38Z</time>
      </trkpt>
      <trkpt lat="25.4889820" lon="-100.7575250">
        <ele>1923.4</ele>
        <time>2022-08-20T16:22:39Z</time>
      </trkpt>
      <trkpt lat="25.4890140" lon="-100.7576150">
        <ele>1923.4</ele>
        <time>2022-08-20T16:22:40Z</time>
      </trkpt>
      <trkpt lat="25.4891020" lon="-100.7578600">
        <ele>1923.0</ele>
        <time>2022-08-20T16:22:43Z</time>
      </trkpt>
      <trkpt lat="25.4891410" lon="-100.7579380">
        <ele>1922.8</ele>
        <time>2022-08-20T16:22:44Z</time>
      </trkpt>
      <trkpt lat="25.4893640" lon="-100.7584670">
        <ele>1922.4</ele>
        <time>2022-08-20T16:22:50Z</time>
      </trkpt>
      <trkpt lat="25.4895970" lon="-100.7590610">
        <ele>1922.0</ele>
        <time>2022-08-20T16:22:56Z</time>
      </trkpt>
      <trkpt lat="25.4896340" lon="-100.7591580">
        <ele>1921.8</ele>
        <time>2022-08-20T16:22:57Z</time>
      </trkpt>
      <trkpt lat="25.4896700" lon="-100.7592540">
        <ele>1921.4</ele>
        <time>2022-08-20T16:22:58Z</time>
      </trkpt>
      <trkpt lat="25.4897810" lon="-100.7595420">
        <ele>1919.2</ele>
        <time>2022-08-20T16:23:01Z</time>
      </trkpt>
      <trkpt lat="25.4898180" lon="-100.7596350">
        <ele>1918.0</ele>
        <time>2022-08-20T16:23:02Z</time>
      </trkpt>
      <trkpt lat="25.4898990" lon="-100.7598180">
        <ele>1916.8</ele>
        <time>2022-08-20T16:23:04Z</time>
      </trkpt>
      <trkpt lat="25.4899410" lon="-100.7599100">
        <ele>1916.4</ele>
        <time>2022-08-20T16:23:05Z</time>
      </trkpt>
      <trkpt lat="25.4901420" lon="-100.7602580">
        <ele>1915.6</ele>
        <time>2022-08-20T16:23:09Z</time>
      </trkpt>
      <trkpt lat="25.4901960" lon="-100.7603400">
        <ele>1915.2</ele>
        <time>2022-08-20T16:23:10Z</time>
      </trkpt>
      <trkpt lat="25.4902920" lon="-100.7605130">
        <ele>1914.2</ele>
        <time>2022-08-20T16:23:12Z</time>
      </trkpt>
      <trkpt lat="25.4904140" lon="-100.7607820">
        <ele>1913.4</ele>
        <time>2022-08-20T16:23:15Z</time>
      </trkpt>
      <trkpt lat="25.4904500" lon="-100.7608700">
        <ele>1913.0</ele>
        <time>2022-08-20T16:23:16Z</time>
      </trkpt>
      <trkpt lat="25.4905960" lon="-100.7612900">
        <ele>1912.0</ele>
        <time>2022-08-20T16:23:21Z</time>
      </trkpt>
      <trkpt lat="25.4906330" lon="-100.7615270">
        <ele>1912.0</ele>
        <time>2022-08-20T16:23:24Z</time>
      </trkpt>
      <trkpt lat="25.4906420" lon="-100.7616820">
        <ele>1912.0</ele>
        <time>2022-08-20T16:23:26Z</time>
      </trkpt>
      <trkpt lat="25.4906100" lon="-100.7620690">
        <ele>1912.4</ele>
        <time>2022-08-20T16:23:31Z</time>
      </trkpt>
      <trkpt lat="25.4904970" lon="-100.7624110">
        <ele>1912.4</ele>
        <time>2022-08-20T16:23:35Z</time>
      </trkpt>
      <trkpt lat="25.4904530" lon="-100.7624960">
        <ele>1912.4</ele>
        <time>2022-08-20T16:23:36Z</time>
      </trkpt>
      <trkpt lat="25.4902270" lon="-100.7628170">
        <ele>1911.8</ele>
        <time>2022-08-20T16:23:40Z</time>
      </trkpt>
      <trkpt lat="25.4901630" lon="-100.7628970">
        <ele>1911.4</ele>
        <time>2022-08-20T16:23:41Z</time>
      </trkpt>
      <trkpt lat="25.4900380" lon="-100.7630360">
        <ele>1910.0</ele>
        <time>2022-08-20T16:23:43Z</time>
      </trkpt>
      <trkpt lat="25.4899720" lon="-100.7630850">
        <ele>1909.2</ele>
        <time>2022-08-20T16:23:44Z</time>
      </trkpt>
      <trkpt lat="25.4898990" lon="-100.7631140">
        <ele>1908.4</ele>
        <time>2022-08-20T16:23:45Z</time>
      </trkpt>
      <trkpt lat="25.4897390" lon="-100.7630940">
        <ele>1906.8</ele>
        <time>2022-08-20T16:23:47Z</time>
      </trkpt>
      <trkpt lat="25.4895890" lon="-100.7629980">
        <ele>1905.2</ele>
        <time>2022-08-20T16:23:49Z</time>
      </trkpt>
      <trkpt lat="25.4895210" lon="-100.7629560">
        <ele>1904.0</ele>
        <time>2022-08-20T16:23:50Z</time>
      </trkpt>
      <trkpt lat="25.4894050" lon="-100.7629290">
        <ele>1902.6</ele>
        <time>2022-08-20T16:23:52Z</time>
      </trkpt>
      <trkpt lat="25.4893560" lon="-100.7629450">
        <ele>1902.0</ele>
        <time>2022-08-20T16:23:53Z</time>
      </trkpt>
      <trkpt lat="25.4893200" lon="-100.7629780">
        <ele>1901.2</ele>
        <time>2022-08-20T16:23:54Z</time>
      </trkpt>
      <trkpt lat="25.4892850" lon="-100.7630790">
        <ele>1899.4</ele>
        <time>2022-08-20T16:23:56Z</time>
      </trkpt>
      <trkpt lat="25.4892860" lon="-100.7632140">
        <ele>1897.8</ele>
        <time>2022-08-20T16:23:58Z</time>
      </trkpt>
      <trkpt lat="25.4893040" lon="-100.7633630">
        <ele>1896.4</ele>
        <time>2022-08-20T16:24:00Z</time>
      </trkpt>
      <trkpt lat="25.4893070" lon="-100.7635100">
        <ele>1895.4</ele>
        <time>2022-08-20T16:24:02Z</time>
      </trkpt>
      <trkpt lat="25.4893190" lon="-100.7636720">
        <ele>1894.0</ele>
        <time>2022-08-20T16:24:05Z</time>
      </trkpt>
      <trkpt lat="25.4893520" lon="-100.7637700">
        <ele>1893.0</ele>
        <time>2022-08-20T16:24:09Z</time>
      </trkpt>
      <trkpt lat="25.4893570" lon="-100.7637840">
        <ele>1893.0</ele>
        <time>2022-08-20T16:24:13Z</time>
      </trkpt>
      <trkpt lat="25.4893480" lon="-100.7637870">
        <ele>1893.6</ele>
        <time>2022-08-20T16:24:32Z</time>
      </trkpt>
      <trkpt lat="25.4893520" lon="-100.7637680">
        <ele>1893.4</ele>
        <time>2022-08-20T16:24:52Z</time>
      </trkpt>
      <trkpt lat="25.4893510" lon="-100.7637650">
        <ele>1893.4</ele>
        <time>2022-08-20T16:25:06Z</time>
      </trkpt>
      <trkpt lat="25.4893560" lon="-100.7637750">
        <ele>1893.6</ele>
        <time>2022-08-20T16:25:29Z</time>
      </trkpt>
      <trkpt lat="25.4893540" lon="-100.7637770">
        <ele>1893.8</ele>
        <time>2022-08-20T16:25:40Z</time>
      </trkpt>
      <trkpt lat="25.4893570" lon="-100.7637750">
        <ele>1893.8</ele>
        <time>2022-08-20T16:25:57Z</time>
      </trkpt>
      <trkpt lat="25.4893520" lon="-100.7637710">
        <ele>1893.8</ele>
        <time>2022-08-20T16:26:18Z</time>
      </trkpt>
      <trkpt lat="25.4893380" lon="-100.7637810">
        <ele>1894.2</ele>
        <time>2022-08-20T16:26:31Z</time>
      </trkpt>
      <trkpt lat="25.4893320" lon="-100.7637910">
        <ele>1894.2</ele>
        <time>2022-08-20T16:26:37Z</time>
      </trkpt>
      <trkpt lat="25.4893260" lon="-100.7638300">
        <ele>1894.0</ele>
        <time>2022-08-20T16:26:40Z</time>
      </trkpt>
      <trkpt lat="25.4893250" lon="-100.7638870">
        <ele>1894.0</ele>
        <time>2022-08-20T16:26:43Z</time>
      </trkpt>
      <trkpt lat="25.4893300" lon="-100.7639860">
        <ele>1894.0</ele>
        <time>2022-08-20T16:26:47Z</time>
      </trkpt>
      <trkpt lat="25.4893200" lon="-100.7642020">
        <ele>1894.4</ele>
        <time>2022-08-20T16:26:53Z</time>
      </trkpt>
      <trkpt lat="25.4892040" lon="-100.7644810">
        <ele>1894.6</ele>
        <time>2022-08-20T16:27:01Z</time>
      </trkpt>
      <trkpt lat="25.4890160" lon="-100.7647380">
        <ele>1895.4</ele>
        <time>2022-08-20T16:27:08Z</time>
      </trkpt>
      <trkpt lat="25.4888160" lon="-100.7650620">
        <ele>1895.6</ele>
        <time>2022-08-20T16:27:15Z</time>
      </trkpt>
      <trkpt lat="25.4886040" lon="-100.7654630">
        <ele>1895.0</ele>
        <time>2022-08-20T16:27:22Z</time>
      </trkpt>
      <trkpt lat="25.4883470" lon="-100.7657830">
        <ele>1894.2</ele>
        <time>2022-08-20T16:27:28Z</time>
      </trkpt>
      <trkpt lat="25.4882930" lon="-100.7658310">
        <ele>1894.2</ele>
        <time>2022-08-20T16:27:29Z</time>
      </trkpt>
      <trkpt lat="25.4881270" lon="-100.7659740">
        <ele>1893.0</ele>
        <time>2022-08-20T16:27:32Z</time>
      </trkpt>
      <trkpt lat="25.4878880" lon="-100.7661720">
        <ele>1892.6</ele>
        <time>2022-08-20T16:27:36Z</time>
      </trkpt>
      <trkpt lat="25.4875840" lon="-100.7664380">
        <ele>1891.8</ele>
        <time>2022-08-20T16:27:41Z</time>
      </trkpt>
      <trkpt lat="25.4874620" lon="-100.7665490">
        <ele>1890.6</ele>
        <time>2022-08-20T16:27:43Z</time>
      </trkpt>
      <trkpt lat="25.4872820" lon="-100.7667160">
        <ele>1889.8</ele>
        <time>2022-08-20T16:27:46Z</time>
      </trkpt>
      <trkpt lat="25.4872220" lon="-100.7667730">
        <ele>1889.6</ele>
        <time>2022-08-20T16:27:47Z</time>
      </trkpt>
      <trkpt lat="25.4869820" lon="-100.7670020">
        <ele>1888.4</ele>
        <time>2022-08-20T16:27:51Z</time>
      </trkpt>
      <trkpt lat="25.4867350" lon="-100.7672360">
        <ele>1887.6</ele>
        <time>2022-08-20T16:27:55Z</time>
      </trkpt>
      <trkpt lat="25.4866100" lon="-100.7673500">
        <ele>1887.2</ele>
        <time>2022-08-20T16:27:57Z</time>
      </trkpt>
      <trkpt lat="25.4862990" lon="-100.7676350">
        <ele>1886.4</ele>
        <time>2022-08-20T16:28:02Z</time>
      </trkpt>
      <trkpt lat="25.4860330" lon="-100.7678450">
        <ele>1885.6</ele>
        <time>2022-08-20T16:28:06Z</time>
      </trkpt>
      <trkpt lat="25.4859630" lon="-100.7678960">
        <ele>1885.4</ele>
        <time>2022-08-20T16:28:07Z</time>
      </trkpt>
      <trkpt lat="25.4855350" lon="-100.7681870">
        <ele>1884.4</ele>
        <time>2022-08-20T16:28:13Z</time>
      </trkpt>
      <trkpt lat="25.4854680" lon="-100.7682440">
        <ele>1884.2</ele>
        <time>2022-08-20T16:28:14Z</time>
      </trkpt>
      <trkpt lat="25.4852870" lon="-100.7684450">
        <ele>1883.0</ele>
        <time>2022-08-20T16:28:17Z</time>
      </trkpt>
      <trkpt lat="25.4850320" lon="-100.7688580">
        <ele>1881.8</ele>
        <time>2022-08-20T16:28:22Z</time>
      </trkpt>
      <trkpt lat="25.4847360" lon="-100.7694200">
        <ele>1880.8</ele>
        <time>2022-08-20T16:28:28Z</time>
      </trkpt>
      <trkpt lat="25.4846850" lon="-100.7695160">
        <ele>1880.4</ele>
        <time>2022-08-20T16:28:29Z</time>
      </trkpt>
      <trkpt lat="25.4846340" lon="-100.7696060">
        <ele>1879.6</ele>
        <time>2022-08-20T16:28:30Z</time>
      </trkpt>
      <trkpt lat="25.4845260" lon="-100.7697740">
        <ele>1878.4</ele>
        <time>2022-08-20T16:28:32Z</time>
      </trkpt>
      <trkpt lat="25.4844050" lon="-100.7699280">
        <ele>1877.4</ele>
        <time>2022-08-20T16:28:34Z</time>
      </trkpt>
      <trkpt lat="25.4843400" lon="-100.7700000">
        <ele>1876.6</ele>
        <time>2022-08-20T16:28:35Z</time>
      </trkpt>
      <trkpt lat="25.4842030" lon="-100.7701360">
        <ele>1875.6</ele>
        <time>2022-08-20T16:28:37Z</time>
      </trkpt>
      <trkpt lat="25.4839910" lon="-100.7703250">
        <ele>1874.4</ele>
        <time>2022-08-20T16:28:40Z</time>
      </trkpt>
      <trkpt lat="25.4837740" lon="-100.7705090">
        <ele>1873.0</ele>
        <time>2022-08-20T16:28:43Z</time>
      </trkpt>
      <trkpt lat="25.4833260" lon="-100.7708680">
        <ele>1871.8</ele>
        <time>2022-08-20T16:28:49Z</time>
      </trkpt>
      <trkpt lat="25.4831740" lon="-100.7709880">
        <ele>1871.4</ele>
        <time>2022-08-20T16:28:51Z</time>
      </trkpt>
      <trkpt lat="25.4828920" lon="-100.7712500">
        <ele>1870.8</ele>
        <time>2022-08-20T16:28:55Z</time>
      </trkpt>
      <trkpt lat="25.4827690" lon="-100.7714000">
        <ele>1870.2</ele>
        <time>2022-08-20T16:28:57Z</time>
      </trkpt>
      <trkpt lat="25.4826550" lon="-100.7715520">
        <ele>1869.8</ele>
        <time>2022-08-20T16:28:59Z</time>
      </trkpt>
      <trkpt lat="25.4825580" lon="-100.7717130">
        <ele>1869.6</ele>
        <time>2022-08-20T16:29:01Z</time>
      </trkpt>
      <trkpt lat="25.4825250" lon="-100.7718030">
        <ele>1869.6</ele>
        <time>2022-08-20T16:29:02Z</time>
      </trkpt>
      <trkpt lat="25.4823900" lon="-100.7723560">
        <ele>1869.0</ele>
        <time>2022-08-20T16:29:08Z</time>
      </trkpt>
      <trkpt lat="25.4823450" lon="-100.7727780">
        <ele>1869.2</ele>
        <time>2022-08-20T16:29:13Z</time>
      </trkpt>
      <trkpt lat="25.4824180" lon="-100.7731960">
        <ele>1869.2</ele>
        <time>2022-08-20T16:29:18Z</time>
      </trkpt>
      <trkpt lat="25.4824470" lon="-100.7736390">
        <ele>1869.2</ele>
        <time>2022-08-20T16:29:22Z</time>
      </trkpt>
      <trkpt lat="25.4824270" lon="-100.7742230">
        <ele>1868.4</ele>
        <time>2022-08-20T16:29:27Z</time>
      </trkpt>
      <trkpt lat="25.4824030" lon="-100.7743240">
        <ele>1867.8</ele>
        <time>2022-08-20T16:29:28Z</time>
      </trkpt>
      <trkpt lat="25.4823670" lon="-100.7744180">
        <ele>1866.8</ele>
        <time>2022-08-20T16:29:29Z</time>
      </trkpt>
      <trkpt lat="25.4823230" lon="-100.7745080">
        <ele>1865.8</ele>
        <time>2022-08-20T16:29:30Z</time>
      </trkpt>
      <trkpt lat="25.4822730" lon="-100.7745960">
        <ele>1864.6</ele>
        <time>2022-08-20T16:29:31Z</time>
      </trkpt>
      <trkpt lat="25.4822220" lon="-100.7746880">
        <ele>1863.6</ele>
        <time>2022-08-20T16:29:32Z</time>
      </trkpt>
      <trkpt lat="25.4821730" lon="-100.7747830">
        <ele>1863.2</ele>
        <time>2022-08-20T16:29:33Z</time>
      </trkpt>
      <trkpt lat="25.4820560" lon="-100.7750940">
        <ele>1862.6</ele>
        <time>2022-08-20T16:29:36Z</time>
      </trkpt>
      <trkpt lat="25.4819400" lon="-100.7755110">
        <ele>1861.6</ele>
        <time>2022-08-20T16:29:40Z</time>
      </trkpt>
      <trkpt lat="25.4818710" lon="-100.7757070">
        <ele>1860.4</ele>
        <time>2022-08-20T16:29:42Z</time>
      </trkpt>
      <trkpt lat="25.4818360" lon="-100.7758030">
        <ele>1859.6</ele>
        <time>2022-08-20T16:29:43Z</time>
      </trkpt>
      <trkpt lat="25.4817990" lon="-100.7758980">
        <ele>1859.2</ele>
        <time>2022-08-20T16:29:44Z</time>
      </trkpt>
      <trkpt lat="25.4816130" lon="-100.7763690">
        <ele>1858.2</ele>
        <time>2022-08-20T16:29:49Z</time>
      </trkpt>
      <trkpt lat="25.4814110" lon="-100.7768300">
        <ele>1857.6</ele>
        <time>2022-08-20T16:29:54Z</time>
      </trkpt>
      <trkpt lat="25.4812010" lon="-100.7772720">
        <ele>1856.8</ele>
        <time>2022-08-20T16:29:59Z</time>
      </trkpt>
      <trkpt lat="25.4810690" lon="-100.7775380">
        <ele>1855.8</ele>
        <time>2022-08-20T16:30:02Z</time>
      </trkpt>
      <trkpt lat="25.4808920" lon="-100.7779300">
        <ele>1855.2</ele>
        <time>2022-08-20T16:30:07Z</time>
      </trkpt>
      <trkpt lat="25.4806020" lon="-100.7784610">
        <ele>1856.0</ele>
        <time>2022-08-20T16:30:14Z</time>
      </trkpt>
      <trkpt lat="25.4802890" lon="-100.7789390">
        <ele>1856.4</ele>
        <time>2022-08-20T16:30:20Z</time>
      </trkpt>
      <trkpt lat="25.4800990" lon="-100.7793240">
        <ele>1856.4</ele>
        <time>2022-08-20T16:30:24Z</time>
      </trkpt>
      <trkpt lat="25.4799850" lon="-100.7796360">
        <ele>1854.4</ele>
        <time>2022-08-20T16:30:27Z</time>
      </trkpt>
      <trkpt lat="25.4799160" lon="-100.7798420">
        <ele>1852.6</ele>
        <time>2022-08-20T16:30:29Z</time>
      </trkpt>
      <trkpt lat="25.4798530" lon="-100.7800410">
        <ele>1851.4</ele>
        <time>2022-08-20T16:30:31Z</time>
      </trkpt>
      <trkpt lat="25.4797890" lon="-100.7802490">
        <ele>1850.4</ele>
        <time>2022-08-20T16:30:33Z</time>
      </trkpt>
      <trkpt lat="25.4796900" lon="-100.7805770">
        <ele>1849.2</ele>
        <time>2022-08-20T16:30:36Z</time>
      </trkpt>
      <trkpt lat="25.4796380" lon="-100.7807910">
        <ele>1848.8</ele>
        <time>2022-08-20T16:30:38Z</time>
      </trkpt>
      <trkpt lat="25.4796240" lon="-100.7808920">
        <ele>1848.8</ele>
        <time>2022-08-20T16:30:39Z</time>
      </trkpt>
      <trkpt lat="25.4796120" lon="-100.7812020">
        <ele>1848.2</ele>
        <time>2022-08-20T16:30:42Z</time>
      </trkpt>
      <trkpt lat="25.4796090" lon="-100.7813110">
        <ele>1847.8</ele>
        <time>2022-08-20T16:30:43Z</time>
      </trkpt>
      <trkpt lat="25.4795950" lon="-100.7816500">
        <ele>1846.4</ele>
        <time>2022-08-20T16:30:46Z</time>
      </trkpt>
      <trkpt lat="25.4795530" lon="-100.7820980">
        <ele>1846.0</ele>
        <time>2022-08-20T16:30:50Z</time>
      </trkpt>
      <trkpt lat="25.4794790" lon="-100.7824220">
        <ele>1845.4</ele>
        <time>2022-08-20T16:30:53Z</time>
      </trkpt>
      <trkpt lat="25.4794220" lon="-100.7826340">
        <ele>1844.6</ele>
        <time>2022-08-20T16:30:55Z</time>
      </trkpt>
      <trkpt lat="25.4793940" lon="-100.7827400">
        <ele>1844.2</ele>
        <time>2022-08-20T16:30:56Z</time>
      </trkpt>
      <trkpt lat="25.4793170" lon="-100.7830540">
        <ele>1843.0</ele>
        <time>2022-08-20T16:30:59Z</time>
      </trkpt>
      <trkpt lat="25.4792410" lon="-100.7833500">
        <ele>1842.4</ele>
        <time>2022-08-20T16:31:02Z</time>
      </trkpt>
      <trkpt lat="25.4792130" lon="-100.7834560">
        <ele>1842.0</ele>
        <time>2022-08-20T16:31:03Z</time>
      </trkpt>
      <trkpt lat="25.4790960" lon="-100.7838880">
        <ele>1841.6</ele>
        <time>2022-08-20T16:31:07Z</time>
      </trkpt>
      <trkpt lat="25.4790290" lon="-100.7842200">
        <ele>1841.4</ele>
        <time>2022-08-20T16:31:10Z</time>
      </trkpt>
      <trkpt lat="25.4790310" lon="-100.7843360">
        <ele>1841.2</ele>
        <time>2022-08-20T16:31:11Z</time>
      </trkpt>
      <trkpt lat="25.4790640" lon="-100.7845490">
        <ele>1840.8</ele>
        <time>2022-08-20T16:31:13Z</time>
      </trkpt>
      <trkpt lat="25.4790960" lon="-100.7847580">
        <ele>1840.4</ele>
        <time>2022-08-20T16:31:15Z</time>
      </trkpt>
      <trkpt lat="25.4791070" lon="-100.7850990">
        <ele>1840.0</ele>
        <time>2022-08-20T16:31:18Z</time>
      </trkpt>
      <trkpt lat="25.4791020" lon="-100.7852190">
        <ele>1839.4</ele>
        <time>2022-08-20T16:31:19Z</time>
      </trkpt>
      <trkpt lat="25.4790520" lon="-100.7856920">
        <ele>1838.8</ele>
        <time>2022-08-20T16:31:23Z</time>
      </trkpt>
      <trkpt lat="25.4790190" lon="-100.7859240">
        <ele>1837.2</ele>
        <time>2022-08-20T16:31:25Z</time>
      </trkpt>
      <trkpt lat="25.4790040" lon="-100.7860390">
        <ele>1836.0</ele>
        <time>2022-08-20T16:31:26Z</time>
      </trkpt>
      <trkpt lat="25.4789940" lon="-100.7861480">
        <ele>1834.8</ele>
        <time>2022-08-20T16:31:27Z</time>
      </trkpt>
      <trkpt lat="25.4789860" lon="-100.7862540">
        <ele>1833.8</ele>
        <time>2022-08-20T16:31:28Z</time>
      </trkpt>
      <trkpt lat="25.4789740" lon="-100.7865690">
        <ele>1832.8</ele>
        <time>2022-08-20T16:31:31Z</time>
      </trkpt>
      <trkpt lat="25.4789660" lon="-100.7866820">
        <ele>1832.8</ele>
        <time>2022-08-20T16:31:32Z</time>
      </trkpt>
      <trkpt lat="25.4789180" lon="-100.7870500">
        <ele>1832.4</ele>
        <time>2022-08-20T16:31:35Z</time>
      </trkpt>
      <trkpt lat="25.4788160" lon="-100.7876600">
        <ele>1832.0</ele>
        <time>2022-08-20T16:31:40Z</time>
      </trkpt>
      <trkpt lat="25.4787790" lon="-100.7878940">
        <ele>1829.8</ele>
        <time>2022-08-20T16:31:42Z</time>
      </trkpt>
      <trkpt lat="25.4787630" lon="-100.7880120">
        <ele>1828.6</ele>
        <time>2022-08-20T16:31:43Z</time>
      </trkpt>
      <trkpt lat="25.4787170" lon="-100.7883830">
        <ele>1827.4</ele>
        <time>2022-08-20T16:31:46Z</time>
      </trkpt>
      <trkpt lat="25.4786360" lon="-100.7890000">
        <ele>1826.6</ele>
        <time>2022-08-20T16:31:51Z</time>
      </trkpt>
      <trkpt lat="25.4786200" lon="-100.7891200">
        <ele>1826.2</ele>
        <time>2022-08-20T16:31:52Z</time>
      </trkpt>
      <trkpt lat="25.4785910" lon="-100.7893590">
        <ele>1825.0</ele>
        <time>2022-08-20T16:31:54Z</time>
      </trkpt>
      <trkpt lat="25.4785350" lon="-100.7897170">
        <ele>1823.6</ele>
        <time>2022-08-20T16:31:57Z</time>
      </trkpt>
      <trkpt lat="25.4784940" lon="-100.7899530">
        <ele>1822.4</ele>
        <time>2022-08-20T16:31:59Z</time>
      </trkpt>
      <trkpt lat="25.4784600" lon="-100.7901850">
        <ele>1821.8</ele>
        <time>2022-08-20T16:32:01Z</time>
      </trkpt>
      <trkpt lat="25.4784440" lon="-100.7903020">
        <ele>1821.4</ele>
        <time>2022-08-20T16:32:02Z</time>
      </trkpt>
      <trkpt lat="25.4784030" lon="-100.7906480">
        <ele>1820.2</ele>
        <time>2022-08-20T16:32:05Z</time>
      </trkpt>
      <trkpt lat="25.4783860" lon="-100.7908730">
        <ele>1818.8</ele>
        <time>2022-08-20T16:32:07Z</time>
      </trkpt>
      <trkpt lat="25.4783790" lon="-100.7910920">
        <ele>1818.0</ele>
        <time>2022-08-20T16:32:09Z</time>
      </trkpt>
      <trkpt lat="25.4783750" lon="-100.7917530">
        <ele>1816.6</ele>
        <time>2022-08-20T16:32:15Z</time>
      </trkpt>
      <trkpt lat="25.4783600" lon="-100.7919700">
        <ele>1816.0</ele>
        <time>2022-08-20T16:32:17Z</time>
      </trkpt>
      <trkpt lat="25.4783460" lon="-100.7921870">
        <ele>1815.4</ele>
        <time>2022-08-20T16:32:19Z</time>
      </trkpt>
      <trkpt lat="25.4783240" lon="-100.7926240">
        <ele>1814.2</ele>
        <time>2022-08-20T16:32:23Z</time>
      </trkpt>
      <trkpt lat="25.4783140" lon="-100.7929580">
        <ele>1813.0</ele>
        <time>2022-08-20T16:32:26Z</time>
      </trkpt>
      <trkpt lat="25.4783110" lon="-100.7930710">
        <ele>1812.8</ele>
        <time>2022-08-20T16:32:27Z</time>
      </trkpt>
      <trkpt lat="25.4782720" lon="-100.7935140">
        <ele>1812.2</ele>
        <time>2022-08-20T16:32:31Z</time>
      </trkpt>
      <trkpt lat="25.4782440" lon="-100.7937030">
        <ele>1812.0</ele>
        <time>2022-08-20T16:32:33Z</time>
      </trkpt>
      <trkpt lat="25.4781390" lon="-100.7941770">
        <ele>1812.0</ele>
        <time>2022-08-20T16:32:39Z</time>
      </trkpt>
      <trkpt lat="25.4780920" lon="-100.7944050">
        <ele>1813.2</ele>
        <time>2022-08-20T16:32:42Z</time>
      </trkpt>
      <trkpt lat="25.4780670" lon="-100.7945620">
        <ele>1815.2</ele>
        <time>2022-08-20T16:32:44Z</time>
      </trkpt>
      <trkpt lat="25.4780320" lon="-100.7948900">
        <ele>1816.4</ele>
        <time>2022-08-20T16:32:48Z</time>
      </trkpt>
      <trkpt lat="25.4779480" lon="-100.7955630">
        <ele>1816.0</ele>
        <time>2022-08-20T16:32:56Z</time>
      </trkpt>
      <trkpt lat="25.4779360" lon="-100.7956560">
        <ele>1815.6</ele>
        <time>2022-08-20T16:32:57Z</time>
      </trkpt>
      <trkpt lat="25.4779100" lon="-100.7958570">
        <ele>1815.2</ele>
        <time>2022-08-20T16:32:59Z</time>
      </trkpt>
      <trkpt lat="25.4778730" lon="-100.7960760">
        <ele>1814.4</ele>
        <time>2022-08-20T16:33:01Z</time>
      </trkpt>
      <trkpt lat="25.4778460" lon="-100.7961920">
        <ele>1813.8</ele>
        <time>2022-08-20T16:33:02Z</time>
      </trkpt>
      <trkpt lat="25.4778080" lon="-100.7963060">
        <ele>1813.4</ele>
        <time>2022-08-20T16:33:03Z</time>
      </trkpt>
      <trkpt lat="25.4777000" lon="-100.7965250">
        <ele>1813.0</ele>
        <time>2022-08-20T16:33:05Z</time>
      </trkpt>
      <trkpt lat="25.4776390" lon="-100.7966300">
        <ele>1812.6</ele>
        <time>2022-08-20T16:33:06Z</time>
      </trkpt>
      <trkpt lat="25.4775130" lon="-100.7968400">
        <ele>1811.2</ele>
        <time>2022-08-20T16:33:08Z</time>
      </trkpt>
      <trkpt lat="25.4774530" lon="-100.7969430">
        <ele>1810.2</ele>
        <time>2022-08-20T16:33:09Z</time>
      </trkpt>
      <trkpt lat="25.4773970" lon="-100.7970430">
        <ele>1809.0</ele>
        <time>2022-08-20T16:33:10Z</time>
      </trkpt>
      <trkpt lat="25.4773480" lon="-100.7971410">
        <ele>1807.6</ele>
        <time>2022-08-20T16:33:11Z</time>
      </trkpt>
      <trkpt lat="25.4773030" lon="-100.7972380">
        <ele>1806.2</ele>
        <time>2022-08-20T16:33:12Z</time>
      </trkpt>
      <trkpt lat="25.4772610" lon="-100.7973340">
        <ele>1805.0</ele>
        <time>2022-08-20T16:33:13Z</time>
      </trkpt>
      <trkpt lat="25.4771820" lon="-100.7975220">
        <ele>1803.4</ele>
        <time>2022-08-20T16:33:15Z</time>
      </trkpt>
      <trkpt lat="25.4770710" lon="-100.7978180">
        <ele>1802.4</ele>
        <time>2022-08-20T16:33:18Z</time>
      </trkpt>
      <trkpt lat="25.4770370" lon="-100.7979230">
        <ele>1802.2</ele>
        <time>2022-08-20T16:33:19Z</time>
      </trkpt>
      <trkpt lat="25.4767970" lon="-100.7985530">
        <ele>1801.8</ele>
        <time>2022-08-20T16:33:25Z</time>
      </trkpt>
      <trkpt lat="25.4767430" lon="-100.7986480">
        <ele>1801.2</ele>
        <time>2022-08-20T16:33:26Z</time>
      </trkpt>
      <trkpt lat="25.4766070" lon="-100.7989420">
        <ele>1800.0</ele>
        <time>2022-08-20T16:33:29Z</time>
      </trkpt>
      <trkpt lat="25.4765760" lon="-100.7990440">
        <ele>1799.4</ele>
        <time>2022-08-20T16:33:30Z</time>
      </trkpt>
      <trkpt lat="25.4765510" lon="-100.7991480">
        <ele>1798.8</ele>
        <time>2022-08-20T16:33:31Z</time>
      </trkpt>
      <trkpt lat="25.4764880" lon="-100.7994600">
        <ele>1797.8</ele>
        <time>2022-08-20T16:33:34Z</time>
      </trkpt>
      <trkpt lat="25.4764630" lon="-100.7995600">
        <ele>1797.2</ele>
        <time>2022-08-20T16:33:35Z</time>
      </trkpt>
      <trkpt lat="25.4764120" lon="-100.7997530">
        <ele>1796.6</ele>
        <time>2022-08-20T16:33:37Z</time>
      </trkpt>
      <trkpt lat="25.4763330" lon="-100.8000260">
        <ele>1795.6</ele>
        <time>2022-08-20T16:33:40Z</time>
      </trkpt>
      <trkpt lat="25.4763020" lon="-100.8001130">
        <ele>1795.4</ele>
        <time>2022-08-20T16:33:41Z</time>
      </trkpt>
      <trkpt lat="25.4762640" lon="-100.8001960">
        <ele>1795.2</ele>
        <time>2022-08-20T16:33:42Z</time>
      </trkpt>
      <trkpt lat="25.4761060" lon="-100.8004290">
        <ele>1794.8</ele>
        <time>2022-08-20T16:33:45Z</time>
      </trkpt>
      <trkpt lat="25.4760460" lon="-100.8005070">
        <ele>1794.6</ele>
        <time>2022-08-20T16:33:46Z</time>
      </trkpt>
      <trkpt lat="25.4759850" lon="-100.8005870">
        <ele>1794.4</ele>
        <time>2022-08-20T16:33:47Z</time>
      </trkpt>
      <trkpt lat="25.4757150" lon="-100.8010160">
        <ele>1793.0</ele>
        <time>2022-08-20T16:33:52Z</time>
      </trkpt>
      <trkpt lat="25.4756190" lon="-100.8011930">
        <ele>1792.0</ele>
        <time>2022-08-20T16:33:54Z</time>
      </trkpt>
      <trkpt lat="25.4754700" lon="-100.8014610">
        <ele>1790.8</ele>
        <time>2022-08-20T16:33:57Z</time>
      </trkpt>
      <trkpt lat="25.4752290" lon="-100.8019180">
        <ele>1789.8</ele>
        <time>2022-08-20T16:34:02Z</time>
      </trkpt>
      <trkpt lat="25.4750920" lon="-100.8021990">
        <ele>1788.4</ele>
        <time>2022-08-20T16:34:05Z</time>
      </trkpt>
      <trkpt lat="25.4749600" lon="-100.8024670">
        <ele>1787.0</ele>
        <time>2022-08-20T16:34:08Z</time>
      </trkpt>
      <trkpt lat="25.4748210" lon="-100.8027280">
        <ele>1786.0</ele>
        <time>2022-08-20T16:34:11Z</time>
      </trkpt>
      <trkpt lat="25.4746300" lon="-100.8030830">
        <ele>1785.2</ele>
        <time>2022-08-20T16:34:15Z</time>
      </trkpt>
      <trkpt lat="25.4744350" lon="-100.8034500">
        <ele>1784.0</ele>
        <time>2022-08-20T16:34:19Z</time>
      </trkpt>
      <trkpt lat="25.4743370" lon="-100.8036350">
        <ele>1782.8</ele>
        <time>2022-08-20T16:34:21Z</time>
      </trkpt>
      <trkpt lat="25.4742280" lon="-100.8038180">
        <ele>1781.6</ele>
        <time>2022-08-20T16:34:23Z</time>
      </trkpt>
      <trkpt lat="25.4740410" lon="-100.8040790">
        <ele>1780.4</ele>
        <time>2022-08-20T16:34:26Z</time>
      </trkpt>
      <trkpt lat="25.4739750" lon="-100.8041630">
        <ele>1780.2</ele>
        <time>2022-08-20T16:34:27Z</time>
      </trkpt>
      <trkpt lat="25.4737720" lon="-100.8044140">
        <ele>1779.2</ele>
        <time>2022-08-20T16:34:30Z</time>
      </trkpt>
      <trkpt lat="25.4735120" lon="-100.8047540">
        <ele>1778.0</ele>
        <time>2022-08-20T16:34:34Z</time>
      </trkpt>
      <trkpt lat="25.4733970" lon="-100.8049210">
        <ele>1777.4</ele>
        <time>2022-08-20T16:34:36Z</time>
      </trkpt>
      <trkpt lat="25.4732940" lon="-100.8050940">
        <ele>1776.8</ele>
        <time>2022-08-20T16:34:38Z</time>
      </trkpt>
      <trkpt lat="25.4731730" lon="-100.8053880">
        <ele>1776.6</ele>
        <time>2022-08-20T16:34:41Z</time>
      </trkpt>
      <trkpt lat="25.4729630" lon="-100.8060340">
        <ele>1776.0</ele>
        <time>2022-08-20T16:34:47Z</time>
      </trkpt>
      <trkpt lat="25.4729270" lon="-100.8061430">
        <ele>1775.8</ele>
        <time>2022-08-20T16:34:48Z</time>
      </trkpt>
      <trkpt lat="25.4727850" lon="-100.8065930">
        <ele>1774.8</ele>
        <time>2022-08-20T16:34:52Z</time>
      </trkpt>
      <trkpt lat="25.4727160" lon="-100.8068200">
        <ele>1773.4</ele>
        <time>2022-08-20T16:34:54Z</time>
      </trkpt>
      <trkpt lat="25.4726430" lon="-100.8070450">
        <ele>1772.0</ele>
        <time>2022-08-20T16:34:56Z</time>
      </trkpt>
      <trkpt lat="25.4726090" lon="-100.8071570">
        <ele>1771.6</ele>
        <time>2022-08-20T16:34:57Z</time>
      </trkpt>
      <trkpt lat="25.4725400" lon="-100.8073800">
        <ele>1771.0</ele>
        <time>2022-08-20T16:34:59Z</time>
      </trkpt>
      <trkpt lat="25.4724690" lon="-100.8075990">
        <ele>1769.8</ele>
        <time>2022-08-20T16:35:01Z</time>
      </trkpt>
      <trkpt lat="25.4723640" lon="-100.8079220">
        <ele>1768.8</ele>
        <time>2022-08-20T16:35:04Z</time>
      </trkpt>
      <trkpt lat="25.4722620" lon="-100.8082420">
        <ele>1768.0</ele>
        <time>2022-08-20T16:35:07Z</time>
      </trkpt>
      <trkpt lat="25.4722290" lon="-100.8083480">
        <ele>1767.6</ele>
        <time>2022-08-20T16:35:08Z</time>
      </trkpt>
      <trkpt lat="25.4721660" lon="-100.8085620">
        <ele>1766.6</ele>
        <time>2022-08-20T16:35:10Z</time>
      </trkpt>
      <trkpt lat="25.4720760" lon="-100.8088890">
        <ele>1765.2</ele>
        <time>2022-08-20T16:35:13Z</time>
      </trkpt>
      <trkpt lat="25.4719920" lon="-100.8092200">
        <ele>1764.6</ele>
        <time>2022-08-20T16:35:16Z</time>
      </trkpt>
      <trkpt lat="25.4718990" lon="-100.8095350">
        <ele>1764.2</ele>
        <time>2022-08-20T16:35:19Z</time>
      </trkpt>
      <trkpt lat="25.4718020" lon="-100.8098340">
        <ele>1763.6</ele>
        <time>2022-08-20T16:35:22Z</time>
      </trkpt>
      <trkpt lat="25.4717810" lon="-100.8099340">
        <ele>1763.2</ele>
        <time>2022-08-20T16:35:23Z</time>
      </trkpt>
      <trkpt lat="25.4717370" lon="-100.8103430">
        <ele>1762.2</ele>
        <time>2022-08-20T16:35:27Z</time>
      </trkpt>
      <trkpt lat="25.4716980" lon="-100.8105440">
        <ele>1762.0</ele>
        <time>2022-08-20T16:35:29Z</time>
      </trkpt>
      <trkpt lat="25.4716220" lon="-100.8107330">
        <ele>1762.0</ele>
        <time>2022-08-20T16:35:31Z</time>
      </trkpt>
      <trkpt lat="25.4713330" lon="-100.8112680">
        <ele>1762.0</ele>
        <time>2022-08-20T16:35:37Z</time>
      </trkpt>
      <trkpt lat="25.4712380" lon="-100.8114440">
        <ele>1762.0</ele>
        <time>2022-08-20T16:35:39Z</time>
      </trkpt>
      <trkpt lat="25.4709160" lon="-100.8120380">
        <ele>1762.0</ele>
        <time>2022-08-20T16:35:46Z</time>
      </trkpt>
      <trkpt lat="25.4707370" lon="-100.8123670">
        <ele>1761.8</ele>
        <time>2022-08-20T16:35:50Z</time>
      </trkpt>
      <trkpt lat="25.4704510" lon="-100.8128870">
        <ele>1761.6</ele>
        <time>2022-08-20T16:35:57Z</time>
      </trkpt>
      <trkpt lat="25.4704150" lon="-100.8129560">
        <ele>1761.6</ele>
        <time>2022-08-20T16:35:58Z</time>
      </trkpt>
      <trkpt lat="25.4701370" lon="-100.8134900">
        <ele>1763.0</ele>
        <time>2022-08-20T16:36:06Z</time>
      </trkpt>
      <trkpt lat="25.4700460" lon="-100.8136820">
        <ele>1764.0</ele>
        <time>2022-08-20T16:36:09Z</time>
      </trkpt>
      <trkpt lat="25.4698510" lon="-100.8140730">
        <ele>1765.2</ele>
        <time>2022-08-20T16:36:15Z</time>
      </trkpt>
      <trkpt lat="25.4697790" lon="-100.8142060">
        <ele>1766.0</ele>
        <time>2022-08-20T16:36:17Z</time>
      </trkpt>
      <trkpt lat="25.4694880" lon="-100.8146960">
        <ele>1766.2</ele>
        <time>2022-08-20T16:36:24Z</time>
      </trkpt>
      <trkpt lat="25.4692720" lon="-100.8151110">
        <ele>1765.4</ele>
        <time>2022-08-20T16:36:30Z</time>
      </trkpt>
      <trkpt lat="25.4689700" lon="-100.8156760">
        <ele>1765.2</ele>
        <time>2022-08-20T16:36:38Z</time>
      </trkpt>
      <trkpt lat="25.4686610" lon="-100.8162660">
        <ele>1765.0</ele>
        <time>2022-08-20T16:36:45Z</time>
      </trkpt>
      <trkpt lat="25.4686150" lon="-100.8163540">
        <ele>1765.0</ele>
        <time>2022-08-20T16:36:46Z</time>
      </trkpt>
      <trkpt lat="25.4684200" lon="-100.8167230">
        <ele>1764.2</ele>
        <time>2022-08-20T16:36:50Z</time>
      </trkpt>
      <trkpt lat="25.4682670" lon="-100.8170140">
        <ele>1763.2</ele>
        <time>2022-08-20T16:36:53Z</time>
      </trkpt>
      <trkpt lat="25.4682140" lon="-100.8171130">
        <ele>1763.0</ele>
        <time>2022-08-20T16:36:54Z</time>
      </trkpt>
      <trkpt lat="25.4681070" lon="-100.8173120">
        <ele>1762.0</ele>
        <time>2022-08-20T16:36:56Z</time>
      </trkpt>
      <trkpt lat="25.4679960" lon="-100.8175160">
        <ele>1760.8</ele>
        <time>2022-08-20T16:36:58Z</time>
      </trkpt>
      <trkpt lat="25.4678820" lon="-100.8177250">
        <ele>1759.2</ele>
        <time>2022-08-20T16:37:00Z</time>
      </trkpt>
      <trkpt lat="25.4677620" lon="-100.8179410">
        <ele>1757.4</ele>
        <time>2022-08-20T16:37:02Z</time>
      </trkpt>
      <trkpt lat="25.4676460" lon="-100.8181600">
        <ele>1755.8</ele>
        <time>2022-08-20T16:37:04Z</time>
      </trkpt>
      <trkpt lat="25.4675880" lon="-100.8182710">
        <ele>1755.0</ele>
        <time>2022-08-20T16:37:05Z</time>
      </trkpt>
      <trkpt lat="25.4675300" lon="-100.8183850">
        <ele>1754.2</ele>
        <time>2022-08-20T16:37:06Z</time>
      </trkpt>
      <trkpt lat="25.4674110" lon="-100.8186140">
        <ele>1753.0</ele>
        <time>2022-08-20T16:37:08Z</time>
      </trkpt>
      <trkpt lat="25.4673520" lon="-100.8187270">
        <ele>1752.2</ele>
        <time>2022-08-20T16:37:09Z</time>
      </trkpt>
      <trkpt lat="25.4672940" lon="-100.8188390">
        <ele>1751.4</ele>
        <time>2022-08-20T16:37:10Z</time>
      </trkpt>
      <trkpt lat="25.4671750" lon="-100.8190620">
        <ele>1750.0</ele>
        <time>2022-08-20T16:37:12Z</time>
      </trkpt>
      <trkpt lat="25.4670560" lon="-100.8192830">
        <ele>1748.4</ele>
        <time>2022-08-20T16:37:14Z</time>
      </trkpt>
      <trkpt lat="25.4669390" lon="-100.8195020">
        <ele>1746.6</ele>
        <time>2022-08-20T16:37:16Z</time>
      </trkpt>
      <trkpt lat="25.4668830" lon="-100.8196100">
        <ele>1745.4</ele>
        <time>2022-08-20T16:37:17Z</time>
      </trkpt>
      <trkpt lat="25.4668290" lon="-100.8197180">
        <ele>1744.2</ele>
        <time>2022-08-20T16:37:18Z</time>
      </trkpt>
      <trkpt lat="25.4667230" lon="-100.8199280">
        <ele>1742.0</ele>
        <time>2022-08-20T16:37:20Z</time>
      </trkpt>
      <trkpt lat="25.4666710" lon="-100.8200280">
        <ele>1740.6</ele>
        <time>2022-08-20T16:37:21Z</time>
      </trkpt>
      <trkpt lat="25.4665200" lon="-100.8203160">
        <ele>1739.6</ele>
        <time>2022-08-20T16:37:24Z</time>
      </trkpt>
      <trkpt lat="25.4663180" lon="-100.8206910">
        <ele>1738.8</ele>
        <time>2022-08-20T16:37:28Z</time>
      </trkpt>
      <trkpt lat="25.4661220" lon="-100.8210730">
        <ele>1738.6</ele>
        <time>2022-08-20T16:37:32Z</time>
      </trkpt>
      <trkpt lat="25.4658640" lon="-100.8215470">
        <ele>1737.6</ele>
        <time>2022-08-20T16:37:37Z</time>
      </trkpt>
      <trkpt lat="25.4658100" lon="-100.8216430">
        <ele>1737.4</ele>
        <time>2022-08-20T16:37:38Z</time>
      </trkpt>
      <trkpt lat="25.4654550" lon="-100.8222010">
        <ele>1736.6</ele>
        <time>2022-08-20T16:37:44Z</time>
      </trkpt>
      <trkpt lat="25.4653870" lon="-100.8222840">
        <ele>1736.4</ele>
        <time>2022-08-20T16:37:45Z</time>
      </trkpt>
      <trkpt lat="25.4652470" lon="-100.8224440">
        <ele>1735.2</ele>
        <time>2022-08-20T16:37:47Z</time>
      </trkpt>
      <trkpt lat="25.4650280" lon="-100.8226790">
        <ele>1733.8</ele>
        <time>2022-08-20T16:37:50Z</time>
      </trkpt>
      <trkpt lat="25.4648240" lon="-100.8229090">
        <ele>1733.2</ele>
        <time>2022-08-20T16:37:53Z</time>
      </trkpt>
      <trkpt lat="25.4646910" lon="-100.8230540">
        <ele>1732.6</ele>
        <time>2022-08-20T16:37:55Z</time>
      </trkpt>
      <trkpt lat="25.4645000" lon="-100.8232620">
        <ele>1731.6</ele>
        <time>2022-08-20T16:37:58Z</time>
      </trkpt>
      <trkpt lat="25.4642470" lon="-100.8235420">
        <ele>1730.8</ele>
        <time>2022-08-20T16:38:02Z</time>
      </trkpt>
      <trkpt lat="25.4638470" lon="-100.8239730">
        <ele>1730.4</ele>
        <time>2022-08-20T16:38:08Z</time>
      </trkpt>
      <trkpt lat="25.4635780" lon="-100.8242660">
        <ele>1730.2</ele>
        <time>2022-08-20T16:38:12Z</time>
      </trkpt>
      <trkpt lat="25.4631560" lon="-100.8247170">
        <ele>1729.6</ele>
        <time>2022-08-20T16:38:18Z</time>
      </trkpt>
      <trkpt lat="25.4628760" lon="-100.8250240">
        <ele>1728.6</ele>
        <time>2022-08-20T16:38:22Z</time>
      </trkpt>
      <trkpt lat="25.4627280" lon="-100.8251780">
        <ele>1727.6</ele>
        <time>2022-08-20T16:38:24Z</time>
      </trkpt>
      <trkpt lat="25.4625080" lon="-100.8254130">
        <ele>1726.4</ele>
        <time>2022-08-20T16:38:27Z</time>
      </trkpt>
      <trkpt lat="25.4622890" lon="-100.8256480">
        <ele>1725.2</ele>
        <time>2022-08-20T16:38:30Z</time>
      </trkpt>
      <trkpt lat="25.4622170" lon="-100.8257250">
        <ele>1724.6</ele>
        <time>2022-08-20T16:38:31Z</time>
      </trkpt>
      <trkpt lat="25.4621470" lon="-100.8258010">
        <ele>1723.8</ele>
        <time>2022-08-20T16:38:32Z</time>
      </trkpt>
      <trkpt lat="25.4620050" lon="-100.8259530">
        <ele>1722.4</ele>
        <time>2022-08-20T16:38:34Z</time>
      </trkpt>
      <trkpt lat="25.4617930" lon="-100.8261810">
        <ele>1721.4</ele>
        <time>2022-08-20T16:38:37Z</time>
      </trkpt>
      <trkpt lat="25.4613660" lon="-100.8266420">
        <ele>1721.0</ele>
        <time>2022-08-20T16:38:43Z</time>
      </trkpt>
      <trkpt lat="25.4612170" lon="-100.8268020">
        <ele>1720.6</ele>
        <time>2022-08-20T16:38:45Z</time>
      </trkpt>
      <trkpt lat="25.4608350" lon="-100.8271960">
        <ele>1719.4</ele>
        <time>2022-08-20T16:38:50Z</time>
      </trkpt>
      <trkpt lat="25.4606820" lon="-100.8273580">
        <ele>1718.2</ele>
        <time>2022-08-20T16:38:52Z</time>
      </trkpt>
      <trkpt lat="25.4606100" lon="-100.8274400">
        <ele>1717.4</ele>
        <time>2022-08-20T16:38:53Z</time>
      </trkpt>
      <trkpt lat="25.4605390" lon="-100.8275230">
        <ele>1716.8</ele>
        <time>2022-08-20T16:38:54Z</time>
      </trkpt>
      <trkpt lat="25.4604010" lon="-100.8276770">
        <ele>1715.4</ele>
        <time>2022-08-20T16:38:56Z</time>
      </trkpt>
      <trkpt lat="25.4602050" lon="-100.8278860">
        <ele>1714.4</ele>
        <time>2022-08-20T16:38:59Z</time>
      </trkpt>
      <trkpt lat="25.4597710" lon="-100.8283490">
        <ele>1713.4</ele>
        <time>2022-08-20T16:39:06Z</time>
      </trkpt>
      <trkpt lat="25.4597060" lon="-100.8284200">
        <ele>1713.4</ele>
        <time>2022-08-20T16:39:07Z</time>
      </trkpt>
      <trkpt lat="25.4593100" lon="-100.8288500">
        <ele>1713.2</ele>
        <time>2022-08-20T16:39:13Z</time>
      </trkpt>
      <trkpt lat="25.4590940" lon="-100.8290830">
        <ele>1713.2</ele>
        <time>2022-08-20T16:39:16Z</time>
      </trkpt>
      <trkpt lat="25.4588620" lon="-100.8293370">
        <ele>1712.0</ele>
        <time>2022-08-20T16:39:19Z</time>
      </trkpt>
      <trkpt lat="25.4587020" lon="-100.8295110">
        <ele>1710.8</ele>
        <time>2022-08-20T16:39:21Z</time>
      </trkpt>
      <trkpt lat="25.4585410" lon="-100.8296860">
        <ele>1709.0</ele>
        <time>2022-08-20T16:39:23Z</time>
      </trkpt>
      <trkpt lat="25.4584610" lon="-100.8297720">
        <ele>1707.8</ele>
        <time>2022-08-20T16:39:24Z</time>
      </trkpt>
      <trkpt lat="25.4583030" lon="-100.8299400">
        <ele>1707.0</ele>
        <time>2022-08-20T16:39:26Z</time>
      </trkpt>
      <trkpt lat="25.4582270" lon="-100.8300210">
        <ele>1706.4</ele>
        <time>2022-08-20T16:39:27Z</time>
      </trkpt>
      <trkpt lat="25.4580060" lon="-100.8302630">
        <ele>1705.2</ele>
        <time>2022-08-20T16:39:30Z</time>
      </trkpt>
      <trkpt lat="25.4579360" lon="-100.8303420">
        <ele>1704.8</ele>
        <time>2022-08-20T16:39:31Z</time>
      </trkpt>
      <trkpt lat="25.4578020" lon="-100.8305010">
        <ele>1703.8</ele>
        <time>2022-08-20T16:39:33Z</time>
      </trkpt>
      <trkpt lat="25.4576480" lon="-100.8307490">
        <ele>1703.4</ele>
        <time>2022-08-20T16:39:36Z</time>
      </trkpt>
      <trkpt lat="25.4574980" lon="-100.8309810">
        <ele>1703.2</ele>
        <time>2022-08-20T16:39:39Z</time>
      </trkpt>
      <trkpt lat="25.4573760" lon="-100.8311050">
        <ele>1703.2</ele>
        <time>2022-08-20T16:39:41Z</time>
      </trkpt>
      <trkpt lat="25.4569460" lon="-100.8314880">
        <ele>1703.2</ele>
        <time>2022-08-20T16:39:48Z</time>
      </trkpt>
      <trkpt lat="25.4568290" lon="-100.8315880">
        <ele>1703.2</ele>
        <time>2022-08-20T16:39:50Z</time>
      </trkpt>
      <trkpt lat="25.4564190" lon="-100.8319110">
        <ele>1704.0</ele>
        <time>2022-08-20T16:39:57Z</time>
      </trkpt>
      <trkpt lat="25.4563120" lon="-100.8320090">
        <ele>1704.0</ele>
        <time>2022-08-20T16:39:59Z</time>
      </trkpt>
      <trkpt lat="25.4561620" lon="-100.8321660">
        <ele>1704.0</ele>
        <time>2022-08-20T16:40:02Z</time>
      </trkpt>
      <trkpt lat="25.4558550" lon="-100.8324430">
        <ele>1704.2</ele>
        <time>2022-08-20T16:40:08Z</time>
      </trkpt>
      <trkpt lat="25.4555960" lon="-100.8326760">
        <ele>1705.6</ele>
        <time>2022-08-20T16:40:14Z</time>
      </trkpt>
      <trkpt lat="25.4555550" lon="-100.8327130">
        <ele>1706.0</ele>
        <time>2022-08-20T16:40:15Z</time>
      </trkpt>
      <trkpt lat="25.4554720" lon="-100.8327890">
        <ele>1706.8</ele>
        <time>2022-08-20T16:40:17Z</time>
      </trkpt>
      <trkpt lat="25.4553050" lon="-100.8329420">
        <ele>1708.2</ele>
        <time>2022-08-20T16:40:21Z</time>
      </trkpt>
      <trkpt lat="25.4551080" lon="-100.8331290">
        <ele>1709.0</ele>
        <time>2022-08-20T16:40:26Z</time>
      </trkpt>
      <trkpt lat="25.4547370" lon="-100.8334250">
        <ele>1709.0</ele>
        <time>2022-08-20T16:40:35Z</time>
      </trkpt>
      <trkpt lat="25.4545040" lon="-100.8335900">
        <ele>1709.0</ele>
        <time>2022-08-20T16:40:42Z</time>
      </trkpt>
      <trkpt lat="25.4544210" lon="-100.8336590">
        <ele>1709.0</ele>
        <time>2022-08-20T16:40:47Z</time>
      </trkpt>
      <trkpt lat="25.4544250" lon="-100.8336560">
        <ele>1709.2</ele>
        <time>2022-08-20T16:40:59Z</time>
      </trkpt>
      <trkpt lat="25.4544220" lon="-100.8336520">
        <ele>1709.2</ele>
        <time>2022-08-20T16:41:03Z</time>
      </trkpt>
      <trkpt lat="25.4544260" lon="-100.8336350">
        <ele>1709.2</ele>
        <time>2022-08-20T16:41:05Z</time>
      </trkpt>
      <trkpt lat="25.4544460" lon="-100.8336200">
        <ele>1709.2</ele>
        <time>2022-08-20T16:41:07Z</time>
      </trkpt>
      <trkpt lat="25.4544930" lon="-100.8335970">
        <ele>1709.0</ele>
        <time>2022-08-20T16:41:11Z</time>
      </trkpt>
      <trkpt lat="25.4546150" lon="-100.8335070">
        <ele>1709.2</ele>
        <time>2022-08-20T16:41:21Z</time>
      </trkpt>
      <trkpt lat="25.4546130" lon="-100.8335440">
        <ele>1709.2</ele>
        <time>2022-08-20T16:41:25Z</time>
      </trkpt>
      <trkpt lat="25.4546130" lon="-100.8335480">
        <ele>1709.4</ele>
        <time>2022-08-20T16:41:28Z</time>
      </trkpt>
      <trkpt lat="25.4546140" lon="-100.8335470">
        <ele>1709.4</ele>
        <time>2022-08-20T16:41:32Z</time>
      </trkpt>
      <trkpt lat="25.4546150" lon="-100.8335410">
        <ele>1709.6</ele>
        <time>2022-08-20T16:41:59Z</time>
      </trkpt>
      <trkpt lat="25.4546110" lon="-100.8335400">
        <ele>1709.6</ele>
        <time>2022-08-20T16:42:00Z</time>
      </trkpt>
      <trkpt lat="25.4545840" lon="-100.8335070">
        <ele>1709.6</ele>
        <time>2022-08-20T16:42:03Z</time>
      </trkpt>
      <trkpt lat="25.4545830" lon="-100.8334920">
        <ele>1709.6</ele>
        <time>2022-08-20T16:42:04Z</time>
      </trkpt>
      <trkpt lat="25.4545820" lon="-100.8334600">
        <ele>1709.4</ele>
        <time>2022-08-20T16:42:09Z</time>
      </trkpt>
      <trkpt lat="25.4545780" lon="-100.8334600">
        <ele>1709.6</ele>
        <time>2022-08-20T16:42:21Z</time>
      </trkpt>
      <trkpt lat="25.4545770" lon="-100.8334600">
        <ele>1710.0</ele>
        <time>2022-08-20T16:42:37Z</time>
      </trkpt>
      <trkpt lat="25.4545750" lon="-100.8334580">
        <ele>1710.2</ele>
        <time>2022-08-20T16:42:56Z</time>
      </trkpt>
      <trkpt lat="25.4545740" lon="-100.8334580">
        <ele>1710.0</ele>
        <time>2022-08-20T16:43:03Z</time>
      </trkpt>
      <trkpt lat="25.4545740" lon="-100.8334540">
        <ele>1710.0</ele>
        <time>2022-08-20T16:43:22Z</time>
      </trkpt>
      <trkpt lat="25.4545730" lon="-100.8334490">
        <ele>1709.6</ele>
        <time>2022-08-20T16:43:45Z</time>
      </trkpt>
      <trkpt lat="25.4545750" lon="-100.8334500">
        <ele>1709.6</ele>
        <time>2022-08-20T16:44:05Z</time>
      </trkpt>
      <trkpt lat="25.4545710" lon="-100.8334480">
        <ele>1709.8</ele>
        <time>2022-08-20T16:44:18Z</time>
      </trkpt>
      <trkpt lat="25.4545700" lon="-100.8334490">
        <ele>1710.0</ele>
        <time>2022-08-20T16:44:32Z</time>
      </trkpt>
      <trkpt lat="25.4545690" lon="-100.8334460">
        <ele>1709.8</ele>
        <time>2022-08-20T16:44:57Z</time>
      </trkpt>
      <trkpt lat="25.4545670" lon="-100.8334460">
        <ele>1709.8</ele>
        <time>2022-08-20T16:45:20Z</time>
      </trkpt>
      <trkpt lat="25.4545670" lon="-100.8334440">
        <ele>1709.8</ele>
        <time>2022-08-20T16:45:29Z</time>
      </trkpt>
      <trkpt lat="25.4545660" lon="-100.8334440">
        <ele>1709.8</ele>
        <time>2022-08-20T16:45:51Z</time>
      </trkpt>
      <trkpt lat="25.4545650" lon="-100.8334440">
        <ele>1709.6</ele>
        <time>2022-08-20T16:46:02Z</time>
      </trkpt>
      <trkpt lat="25.4545570" lon="-100.8334600">
        <ele>1709.8</ele>
        <time>2022-08-20T16:46:17Z</time>
      </trkpt>
      <trkpt lat="25.4545370" lon="-100.8334870">
        <ele>1709.8</ele>
        <time>2022-08-20T16:46:19Z</time>
      </trkpt>
      <trkpt lat="25.4544120" lon="-100.8336280">
        <ele>1709.8</ele>
        <time>2022-08-20T16:46:25Z</time>
      </trkpt>
      <trkpt lat="25.4542270" lon="-100.8337540">
        <ele>1709.4</ele>
        <time>2022-08-20T16:46:30Z</time>
      </trkpt>
      <trkpt lat="25.4541060" lon="-100.8338330">
        <ele>1709.0</ele>
        <time>2022-08-20T16:46:33Z</time>
      </trkpt>
      <trkpt lat="25.4538790" lon="-100.8339710">
        <ele>1708.4</ele>
        <time>2022-08-20T16:46:38Z</time>
      </trkpt>
      <trkpt lat="25.4537750" lon="-100.8340370">
        <ele>1708.2</ele>
        <time>2022-08-20T16:46:40Z</time>
      </trkpt>
      <trkpt lat="25.4535330" lon="-100.8341850">
        <ele>1707.2</ele>
        <time>2022-08-20T16:46:44Z</time>
      </trkpt>
      <trkpt lat="25.4533960" lon="-100.8342730">
        <ele>1707.0</ele>
        <time>2022-08-20T16:46:46Z</time>
      </trkpt>
      <trkpt lat="25.4531720" lon="-100.8344150">
        <ele>1706.2</ele>
        <time>2022-08-20T16:46:49Z</time>
      </trkpt>
      <trkpt lat="25.4529340" lon="-100.8345670">
        <ele>1704.2</ele>
        <time>2022-08-20T16:46:52Z</time>
      </trkpt>
      <trkpt lat="25.4528540" lon="-100.8346190">
        <ele>1703.4</ele>
        <time>2022-08-20T16:46:53Z</time>
      </trkpt>
      <trkpt lat="25.4527740" lon="-100.8346730">
        <ele>1702.8</ele>
        <time>2022-08-20T16:46:54Z</time>
      </trkpt>
      <trkpt lat="25.4526180" lon="-100.8347760">
        <ele>1701.4</ele>
        <time>2022-08-20T16:46:56Z</time>
      </trkpt>
      <trkpt lat="25.4524700" lon="-100.8348720">
        <ele>1700.2</ele>
        <time>2022-08-20T16:46:58Z</time>
      </trkpt>
      <trkpt lat="25.4523340" lon="-100.8349600">
        <ele>1699.0</ele>
        <time>2022-08-20T16:47:00Z</time>
      </trkpt>
      <trkpt lat="25.4520840" lon="-100.8351200">
        <ele>1698.2</ele>
        <time>2022-08-20T16:47:04Z</time>
      </trkpt>
      <trkpt lat="25.4517820" lon="-100.8353080">
        <ele>1697.8</ele>
        <time>2022-08-20T16:47:09Z</time>
      </trkpt>
      <trkpt lat="25.4512670" lon="-100.8356310">
        <ele>1698.4</ele>
        <time>2022-08-20T16:47:18Z</time>
      </trkpt>
      <trkpt lat="25.4512100" lon="-100.8356650">
        <ele>1698.6</ele>
        <time>2022-08-20T16:47:19Z</time>
      </trkpt>
      <trkpt lat="25.4506930" lon="-100.8360080">
        <ele>1698.8</ele>
        <time>2022-08-20T16:47:28Z</time>
      </trkpt>
      <trkpt lat="25.4503370" lon="-100.8363020">
        <ele>1698.8</ele>
        <time>2022-08-20T16:47:35Z</time>
      </trkpt>
      <trkpt lat="25.4501660" lon="-100.8366170">
        <ele>1698.8</ele>
        <time>2022-08-20T16:47:40Z</time>
      </trkpt>
      <trkpt lat="25.4499950" lon="-100.8369410">
        <ele>1698.6</ele>
        <time>2022-08-20T16:47:44Z</time>
      </trkpt>
      <trkpt lat="25.4496680" lon="-100.8375060">
        <ele>1696.8</ele>
        <time>2022-08-20T16:47:50Z</time>
      </trkpt>
      <trkpt lat="25.4496160" lon="-100.8375950">
        <ele>1695.8</ele>
        <time>2022-08-20T16:47:51Z</time>
      </trkpt>
      <trkpt lat="25.4495660" lon="-100.8376810">
        <ele>1694.8</ele>
        <time>2022-08-20T16:47:52Z</time>
      </trkpt>
      <trkpt lat="25.4495180" lon="-100.8377650">
        <ele>1693.6</ele>
        <time>2022-08-20T16:47:53Z</time>
      </trkpt>
      <trkpt lat="25.4494270" lon="-100.8379280">
        <ele>1692.0</ele>
        <time>2022-08-20T16:47:55Z</time>
      </trkpt>
      <trkpt lat="25.4492990" lon="-100.8381640">
        <ele>1690.8</ele>
        <time>2022-08-20T16:47:58Z</time>
      </trkpt>
      <trkpt lat="25.4489970" lon="-100.8386840">
        <ele>1690.6</ele>
        <time>2022-08-20T16:48:05Z</time>
      </trkpt>
      <trkpt lat="25.4488670" lon="-100.8388930">
        <ele>1690.4</ele>
        <time>2022-08-20T16:48:08Z</time>
      </trkpt>
      <trkpt lat="25.4486170" lon="-100.8392600">
        <ele>1690.6</ele>
        <time>2022-08-20T16:48:14Z</time>
      </trkpt>
      <trkpt lat="25.4484610" lon="-100.8396150">
        <ele>1690.4</ele>
        <time>2022-08-20T16:48:20Z</time>
      </trkpt>
      <trkpt lat="25.4484170" lon="-100.8398180">
        <ele>1690.4</ele>
        <time>2022-08-20T16:48:25Z</time>
      </trkpt>
      <trkpt lat="25.4484380" lon="-100.8401270">
        <ele>1691.8</ele>
        <time>2022-08-20T16:48:32Z</time>
      </trkpt>
      <trkpt lat="25.4484440" lon="-100.8401780">
        <ele>1692.2</ele>
        <time>2022-08-20T16:48:33Z</time>
      </trkpt>
      <trkpt lat="25.4484460" lon="-100.8403750">
        <ele>1693.6</ele>
        <time>2022-08-20T16:48:37Z</time>
      </trkpt>
      <trkpt lat="25.4484360" lon="-100.8404670">
        <ele>1693.8</ele>
        <time>2022-08-20T16:48:39Z</time>
      </trkpt>
      <trkpt lat="25.4484250" lon="-100.8405110">
        <ele>1694.2</ele>
        <time>2022-08-20T16:48:40Z</time>
      </trkpt>
      <trkpt lat="25.4483870" lon="-100.8406470">
        <ele>1694.8</ele>
        <time>2022-08-20T16:48:43Z</time>
      </trkpt>
      <trkpt lat="25.4483660" lon="-100.8407390">
        <ele>1695.2</ele>
        <time>2022-08-20T16:48:45Z</time>
      </trkpt>
      <trkpt lat="25.4483490" lon="-100.8408880">
        <ele>1695.8</ele>
        <time>2022-08-20T16:48:48Z</time>
      </trkpt>
      <trkpt lat="25.4483400" lon="-100.8411130">
        <ele>1696.2</ele>
        <time>2022-08-20T16:48:52Z</time>
      </trkpt>
      <trkpt lat="25.4483580" lon="-100.8416570">
        <ele>1696.2</ele>
        <time>2022-08-20T16:49:01Z</time>
      </trkpt>
      <trkpt lat="25.4484100" lon="-100.8420750">
        <ele>1696.0</ele>
        <time>2022-08-20T16:49:08Z</time>
      </trkpt>
      <trkpt lat="25.4484900" lon="-100.8425780">
        <ele>1695.4</ele>
        <time>2022-08-20T16:49:16Z</time>
      </trkpt>
      <trkpt lat="25.4485360" lon="-100.8427790">
        <ele>1695.2</ele>
        <time>2022-08-20T16:49:19Z</time>
      </trkpt>
      <trkpt lat="25.4486080" lon="-100.8430510">
        <ele>1694.6</ele>
        <time>2022-08-20T16:49:23Z</time>
      </trkpt>
      <trkpt lat="25.4486380" lon="-100.8431920">
        <ele>1694.4</ele>
        <time>2022-08-20T16:49:25Z</time>
      </trkpt>
      <trkpt lat="25.4486970" lon="-100.8434800">
        <ele>1693.8</ele>
        <time>2022-08-20T16:49:29Z</time>
      </trkpt>
      <trkpt lat="25.4487190" lon="-100.8436090">
        <ele>1693.4</ele>
        <time>2022-08-20T16:49:31Z</time>
      </trkpt>
      <trkpt lat="25.4487790" lon="-100.8439830">
        <ele>1692.2</ele>
        <time>2022-08-20T16:49:36Z</time>
      </trkpt>
      <trkpt lat="25.4488450" lon="-100.8445320">
        <ele>1692.0</ele>
        <time>2022-08-20T16:49:44Z</time>
      </trkpt>
      <trkpt lat="25.4489270" lon="-100.8451180">
        <ele>1692.6</ele>
        <time>2022-08-20T16:49:53Z</time>
      </trkpt>
      <trkpt lat="25.4489520" lon="-100.8452360">
        <ele>1692.8</ele>
        <time>2022-08-20T16:49:55Z</time>
      </trkpt>
      <trkpt lat="25.4490000" lon="-100.8453780">
        <ele>1693.0</ele>
        <time>2022-08-20T16:49:58Z</time>
      </trkpt>
      <trkpt lat="25.4490730" lon="-100.8455840">
        <ele>1693.0</ele>
        <time>2022-08-20T16:50:02Z</time>
      </trkpt>
      <trkpt lat="25.4490900" lon="-100.8456350">
        <ele>1693.0</ele>
        <time>2022-08-20T16:50:03Z</time>
      </trkpt>
      <trkpt lat="25.4491670" lon="-100.8458060">
        <ele>1693.6</ele>
        <time>2022-08-20T16:50:07Z</time>
      </trkpt>
      <trkpt lat="25.4491930" lon="-100.8459100">
        <ele>1693.6</ele>
        <time>2022-08-20T16:50:09Z</time>
      </trkpt>
      <trkpt lat="25.4492310" lon="-100.8460980">
        <ele>1694.0</ele>
        <time>2022-08-20T16:50:12Z</time>
      </trkpt>
      <trkpt lat="25.4493260" lon="-100.8463720">
        <ele>1694.2</ele>
        <time>2022-08-20T16:50:17Z</time>
      </trkpt>
      <trkpt lat="25.4493500" lon="-100.8464830">
        <ele>1694.6</ele>
        <time>2022-08-20T16:50:19Z</time>
      </trkpt>
      <trkpt lat="25.4494450" lon="-100.8468360">
        <ele>1695.0</ele>
        <time>2022-08-20T16:50:26Z</time>
      </trkpt>
      <trkpt lat="25.4495500" lon="-100.8471320">
        <ele>1695.8</ele>
        <time>2022-08-20T16:50:33Z</time>
      </trkpt>
      <trkpt lat="25.4496440" lon="-100.8473620">
        <ele>1697.2</ele>
        <time>2022-08-20T16:50:38Z</time>
      </trkpt>
      <trkpt lat="25.4496780" lon="-100.8474540">
        <ele>1697.4</ele>
        <time>2022-08-20T16:50:40Z</time>
      </trkpt>
      <trkpt lat="25.4497260" lon="-100.8476390">
        <ele>1697.8</ele>
        <time>2022-08-20T16:50:45Z</time>
      </trkpt>
      <trkpt lat="25.4497620" lon="-100.8477740">
        <ele>1698.6</ele>
        <time>2022-08-20T16:50:50Z</time>
      </trkpt>
      <trkpt lat="25.4497830" lon="-100.8478410">
        <ele>1698.8</ele>
        <time>2022-08-20T16:50:53Z</time>
      </trkpt>
      <trkpt lat="25.4497950" lon="-100.8478550">
        <ele>1698.8</ele>
        <time>2022-08-20T16:50:54Z</time>
      </trkpt>
      <trkpt lat="25.4498150" lon="-100.8478800">
        <ele>1699.0</ele>
        <time>2022-08-20T16:50:59Z</time>
      </trkpt>
      <trkpt lat="25.4498000" lon="-100.8479020">
        <ele>1699.4</ele>
        <time>2022-08-20T16:51:11Z</time>
      </trkpt>
      <trkpt lat="25.4497860" lon="-100.8479030">
        <ele>1699.4</ele>
        <time>2022-08-20T16:51:26Z</time>
      </trkpt>
      <trkpt lat="25.4497850" lon="-100.8479040">
        <ele>1699.0</ele>
        <time>2022-08-20T16:51:45Z</time>
      </trkpt>
      <trkpt lat="25.4497820" lon="-100.8479060">
        <ele>1699.4</ele>
        <time>2022-08-20T16:52:10Z</time>
      </trkpt>
      <trkpt lat="25.4497820" lon="-100.8479080">
        <ele>1699.4</ele>
        <time>2022-08-20T16:52:16Z</time>
      </trkpt>
      <trkpt lat="25.4497820" lon="-100.8479080">
        <ele>1699.2</ele>
        <time>2022-08-20T16:52:29Z</time>
      </trkpt>
      <trkpt lat="25.4497820" lon="-100.8479080">
        <ele>1699.0</ele>
        <time>2022-08-20T16:52:42Z</time>
      </trkpt>
      <trkpt lat="25.4497820" lon="-100.8479080">
        <ele>1699.4</ele>
        <time>2022-08-20T16:52:57Z</time>
      </trkpt>
      <trkpt lat="25.4497840" lon="-100.8479140">
        <ele>1699.4</ele>
        <time>2022-08-20T16:53:21Z</time>
      </trkpt>
      <trkpt lat="25.4497860" lon="-100.8479180">
        <ele>1699.6</ele>
        <time>2022-08-20T16:53:39Z</time>
      </trkpt>
      <trkpt lat="25.4497840" lon="-100.8479190">
        <ele>1699.6</ele>
        <time>2022-08-20T16:53:57Z</time>
      </trkpt>
      <trkpt lat="25.4497840" lon="-100.8479180">
        <ele>1699.6</ele>
        <time>2022-08-20T16:54:20Z</time>
      </trkpt>
      <trkpt lat="25.4497810" lon="-100.8479170">
        <ele>1699.6</ele>
        <time>2022-08-20T16:54:41Z</time>
      </trkpt>
      <trkpt lat="25.4497870" lon="-100.8479140">
        <ele>1699.6</ele>
        <time>2022-08-20T16:54:51Z</time>
      </trkpt>
      <trkpt lat="25.4497950" lon="-100.8479130">
        <ele>1699.4</ele>
        <time>2022-08-20T16:54:55Z</time>
      </trkpt>
      <trkpt lat="25.4498160" lon="-100.8479130">
        <ele>1699.2</ele>
        <time>2022-08-20T16:55:09Z</time>
      </trkpt>
      <trkpt lat="25.4498170" lon="-100.8479130">
        <ele>1699.2</ele>
        <time>2022-08-20T16:55:18Z</time>
      </trkpt>
      <trkpt lat="25.4498200" lon="-100.8479190">
        <ele>1699.4</ele>
        <time>2022-08-20T16:55:24Z</time>
      </trkpt>
      <trkpt lat="25.4498210" lon="-100.8479220">
        <ele>1699.2</ele>
        <time>2022-08-20T16:55:36Z</time>
      </trkpt>
      <trkpt lat="25.4498170" lon="-100.8479220">
        <ele>1699.6</ele>
        <time>2022-08-20T16:55:50Z</time>
      </trkpt>
      <trkpt lat="25.4498130" lon="-100.8479210">
        <ele>1699.6</ele>
        <time>2022-08-20T16:56:05Z</time>
      </trkpt>
      <trkpt lat="25.4498130" lon="-100.8479190">
        <ele>1699.4</ele>
        <time>2022-08-20T16:56:18Z</time>
      </trkpt>
      <trkpt lat="25.4498070" lon="-100.8479110">
        <ele>1699.4</ele>
        <time>2022-08-20T16:56:34Z</time>
      </trkpt>
      <trkpt lat="25.4498010" lon="-100.8479070">
        <ele>1699.6</ele>
        <time>2022-08-20T16:56:52Z</time>
      </trkpt>
      <trkpt lat="25.4497960" lon="-100.8479060">
        <ele>1699.6</ele>
        <time>2022-08-20T16:57:08Z</time>
      </trkpt>
      <trkpt lat="25.4497910" lon="-100.8479110">
        <ele>1699.6</ele>
        <time>2022-08-20T16:57:37Z</time>
      </trkpt>
      <trkpt lat="25.4497910" lon="-100.8479160">
        <ele>1699.8</ele>
        <time>2022-08-20T16:57:57Z</time>
      </trkpt>
      <trkpt lat="25.4497980" lon="-100.8479160">
        <ele>1699.8</ele>
        <time>2022-08-20T16:58:13Z</time>
      </trkpt>
      <trkpt lat="25.4498050" lon="-100.8479090">
        <ele>1699.8</ele>
        <time>2022-08-20T16:58:22Z</time>
      </trkpt>
      <trkpt lat="25.4498040" lon="-100.8479020">
        <ele>1699.8</ele>
        <time>2022-08-20T16:58:38Z</time>
      </trkpt>
      <trkpt lat="25.4498080" lon="-100.8478990">
        <ele>1700.0</ele>
        <time>2022-08-20T16:58:54Z</time>
      </trkpt>
      <trkpt lat="25.4498100" lon="-100.8478940">
        <ele>1700.0</ele>
        <time>2022-08-20T16:59:13Z</time>
      </trkpt>
      <trkpt lat="25.4498020" lon="-100.8478960">
        <ele>1700.0</ele>
        <time>2022-08-20T16:59:31Z</time>
      </trkpt>
      <trkpt lat="25.4497960" lon="-100.8478920">
        <ele>1700.0</ele>
        <time>2022-08-20T16:59:48Z</time>
      </trkpt>
      <trkpt lat="25.4497900" lon="-100.8478880">
        <ele>1700.0</ele>
        <time>2022-08-20T17:00:04Z</time>
      </trkpt>
      <trkpt lat="25.4497930" lon="-100.8478850">
        <ele>1699.8</ele>
        <time>2022-08-20T17:00:20Z</time>
      </trkpt>
      <trkpt lat="25.4497910" lon="-100.8478860">
        <ele>1700.0</ele>
        <time>2022-08-20T17:00:37Z</time>
      </trkpt>
      <trkpt lat="25.4497960" lon="-100.8478910">
        <ele>1699.8</ele>
        <time>2022-08-20T17:00:50Z</time>
      </trkpt>
      <trkpt lat="25.4497920" lon="-100.8478940">
        <ele>1699.8</ele>
        <time>2022-08-20T17:01:08Z</time>
      </trkpt>
      <trkpt lat="25.4497900" lon="-100.8478930">
        <ele>1700.0</ele>
        <time>2022-08-20T17:01:18Z</time>
      </trkpt>
      <trkpt lat="25.4497910" lon="-100.8478890">
        <ele>1700.2</ele>
        <time>2022-08-20T17:01:36Z</time>
      </trkpt>
      <trkpt lat="25.4497880" lon="-100.8478890">
        <ele>1700.0</ele>
        <time>2022-08-20T17:01:56Z</time>
      </trkpt>
      <trkpt lat="25.4497830" lon="-100.8478920">
        <ele>1699.8</ele>
        <time>2022-08-20T17:02:07Z</time>
      </trkpt>
      <trkpt lat="25.4497820" lon="-100.8478910">
        <ele>1699.6</ele>
        <time>2022-08-20T17:02:13Z</time>
      </trkpt>
      <trkpt lat="25.4497480" lon="-100.8479380">
        <ele>1699.4</ele>
        <time>2022-08-20T17:02:38Z</time>
      </trkpt>
      <trkpt lat="25.4496530" lon="-100.8480510">
        <ele>1699.4</ele>
        <time>2022-08-20T17:02:44Z</time>
      </trkpt>
      <trkpt lat="25.4494930" lon="-100.8481380">
        <ele>1699.0</ele>
        <time>2022-08-20T17:02:49Z</time>
      </trkpt>
      <trkpt lat="25.4493900" lon="-100.8481740">
        <ele>1698.6</ele>
        <time>2022-08-20T17:02:52Z</time>
      </trkpt>
      <trkpt lat="25.4493770" lon="-100.8481930">
        <ele>1698.4</ele>
        <time>2022-08-20T17:02:54Z</time>
      </trkpt>
      <trkpt lat="25.4493780" lon="-100.8483000">
        <ele>1697.4</ele>
        <time>2022-08-20T17:02:58Z</time>
      </trkpt>
      <trkpt lat="25.4494100" lon="-100.8485360">
        <ele>1696.4</ele>
        <time>2022-08-20T17:03:04Z</time>
      </trkpt>
      <trkpt lat="25.4494110" lon="-100.8485850">
        <ele>1696.4</ele>
        <time>2022-08-20T17:03:05Z</time>
      </trkpt>
      <trkpt lat="25.4494070" lon="-100.8488950">
        <ele>1696.2</ele>
        <time>2022-08-20T17:03:10Z</time>
      </trkpt>
      <trkpt lat="25.4494070" lon="-100.8488950">
        <ele>1696.2</ele>
        <time>2022-08-20T17:03:11Z</time>
      </trkpt>
      <trkpt lat="25.4494540" lon="-100.8481230">
        <ele>1678.9</ele>
        <time>2022-08-20T13:04:55Z</time>
      </trkpt>
      <trkpt lat="25.4494570" lon="-100.8481180">
        <ele>1678.9</ele>
        <time>2022-08-20T13:04:56Z</time>
      </trkpt>
      <trkpt lat="25.4494560" lon="-100.8481010">
        <ele>1679.0</ele>
        <time>2022-08-20T13:04:58Z</time>
      </trkpt>
      <trkpt lat="25.4494550" lon="-100.8480960">
        <ele>1679.0</ele>
        <time>2022-08-20T13:04:59Z</time>
      </trkpt>
      <trkpt lat="25.4494550" lon="-100.8480960">
        <ele>1679.0</ele>
        <time>2022-08-20T13:05:00Z</time>
      </trkpt>
      <trkpt lat="25.4494550" lon="-100.8480960">
        <ele>1679.0</ele>
        <time>2022-08-20T13:05:01Z</time>
      </trkpt>
      <trkpt lat="25.4494550" lon="-100.8480970">
        <ele>1679.0</ele>
        <time>2022-08-20T13:05:02Z</time>
      </trkpt>
      <trkpt lat="25.4494560" lon="-100.8480860">
        <ele>1679.1</ele>
        <time>2022-08-20T13:05:03Z</time>
      </trkpt>
      <trkpt lat="25.4494590" lon="-100.8480770">
        <ele>1679.1</ele>
        <time>2022-08-20T13:05:05Z</time>
      </trkpt>
      <trkpt lat="25.4494840" lon="-100.8480780">
        <ele>1679.2</ele>
        <time>2022-08-20T13:05:07Z</time>
      </trkpt>
      <trkpt lat="25.4495250" lon="-100.8480760">
        <ele>1679.3</ele>
        <time>2022-08-20T13:05:08Z</time>
      </trkpt>
      <trkpt lat="25.4495580" lon="-100.8480700">
        <ele>1679.4</ele>
        <time>2022-08-20T13:05:09Z</time>
      </trkpt>
      <trkpt lat="25.4496070" lon="-100.8480550">
        <ele>1679.6</ele>
        <time>2022-08-20T13:05:11Z</time>
      </trkpt>
      <trkpt lat="25.4496540" lon="-100.8480330">
        <ele>1679.7</ele>
        <time>2022-08-20T13:05:12Z</time>
      </trkpt>
      <trkpt lat="25.4496830" lon="-100.8480060">
        <ele>1679.8</ele>
        <time>2022-08-20T13:05:13Z</time>
      </trkpt>
      <trkpt lat="25.4497030" lon="-100.8479750">
        <ele>1680.3</ele>
        <time>2022-08-20T13:05:15Z</time>
      </trkpt>
      <trkpt lat="25.4497160" lon="-100.8479330">
        <ele>1680.4</ele>
        <time>2022-08-20T13:05:16Z</time>
      </trkpt>
      <trkpt lat="25.4497170" lon="-100.8478960">
        <ele>1680.4</ele>
        <time>2022-08-20T13:05:17Z</time>
      </trkpt>
      <trkpt lat="25.4497130" lon="-100.8478620">
        <ele>1680.5</ele>
        <time>2022-08-20T13:05:18Z</time>
      </trkpt>
      <trkpt lat="25.4497050" lon="-100.8478320">
        <ele>1680.6</ele>
        <time>2022-08-20T13:05:19Z</time>
      </trkpt>
      <trkpt lat="25.4496940" lon="-100.8477920">
        <ele>1680.7</ele>
        <time>2022-08-20T13:05:20Z</time>
      </trkpt>
      <trkpt lat="25.4496860" lon="-100.8477550">
        <ele>1680.8</ele>
        <time>2022-08-20T13:05:22Z</time>
      </trkpt>
      <trkpt lat="25.4496730" lon="-100.8477170">
        <ele>1680.9</ele>
        <time>2022-08-20T13:05:23Z</time>
      </trkpt>
      <trkpt lat="25.4496650" lon="-100.8477100">
        <ele>1680.9</ele>
        <time>2022-08-20T13:05:25Z</time>
      </trkpt>
      <trkpt lat="25.4496660" lon="-100.8477100">
        <ele>1680.9</ele>
        <time>2022-08-20T13:05:26Z</time>
      </trkpt>
      <trkpt lat="25.4496660" lon="-100.8477090">
        <ele>1680.9</ele>
        <time>2022-08-20T13:05:27Z</time>
      </trkpt>
      <trkpt lat="25.4496660" lon="-100.8477090">
        <ele>1680.9</ele>
        <time>2022-08-20T13:05:28Z</time>
      </trkpt>
      <trkpt lat="25.4496660" lon="-100.8477080">
        <ele>1680.9</ele>
        <time>2022-08-20T13:05:29Z</time>
      </trkpt>
      <trkpt lat="25.4496670" lon="-100.8477080">
        <ele>1680.9</ele>
        <time>2022-08-20T13:05:30Z</time>
      </trkpt>
      <trkpt lat="25.4496670" lon="-100.8477070">
        <ele>1680.9</ele>
        <time>2022-08-20T13:05:31Z</time>
      </trkpt>
      <trkpt lat="25.4496670" lon="-100.8477070">
        <ele>1680.9</ele>
        <time>2022-08-20T13:05:32Z</time>
      </trkpt>
      <trkpt lat="25.4496670" lon="-100.8477060">
        <ele>1680.9</ele>
        <time>2022-08-20T13:05:33Z</time>
      </trkpt>
      <trkpt lat="25.4496670" lon="-100.8477060">
        <ele>1680.9</ele>
        <time>2022-08-20T13:05:34Z</time>
      </trkpt>
      <trkpt lat="25.4496680" lon="-100.8477060">
        <ele>1680.9</ele>
        <time>2022-08-20T13:05:35Z</time>
      </trkpt>
      <trkpt lat="25.4496680" lon="-100.8477050">
        <ele>1680.9</ele>
        <time>2022-08-20T13:05:36Z</time>
      </trkpt>
      <trkpt lat="25.4496680" lon="-100.8477050">
        <ele>1680.9</ele>
        <time>2022-08-20T13:05:37Z</time>
      </trkpt>
      <trkpt lat="25.4496680" lon="-100.8477040">
        <ele>1680.9</ele>
        <time>2022-08-20T13:05:38Z</time>
      </trkpt>
      <trkpt lat="25.4496690" lon="-100.8477040">
        <ele>1680.9</ele>
        <time>2022-08-20T13:05:39Z</time>
      </trkpt>
      <trkpt lat="25.4496690" lon="-100.8477030">
        <ele>1680.9</ele>
        <time>2022-08-20T13:05:40Z</time>
      </trkpt>
      <trkpt lat="25.4496690" lon="-100.8477030">
        <ele>1680.9</ele>
        <time>2022-08-20T13:05:41Z</time>
      </trkpt>
      <trkpt lat="25.4496690" lon="-100.8477020">
        <ele>1680.9</ele>
        <time>2022-08-20T13:05:42Z</time>
      </trkpt>
      <trkpt lat="25.4496690" lon="-100.8477020">
        <ele>1680.9</ele>
        <time>2022-08-20T13:05:43Z</time>
      </trkpt>
      <trkpt lat="25.4496700" lon="-100.8477010">
        <ele>1680.9</ele>
        <time>2022-08-20T13:05:44Z</time>
      </trkpt>
      <trkpt lat="25.4496700" lon="-100.8477010">
        <ele>1680.9</ele>
        <time>2022-08-20T13:05:45Z</time>
      </trkpt>
      <trkpt lat="25.4496700" lon="-100.8477000">
        <ele>1680.9</ele>
        <time>2022-08-20T13:05:46Z</time>
      </trkpt>
      <trkpt lat="25.4496700" lon="-100.8477000">
        <ele>1680.9</ele>
        <time>2022-08-20T13:05:47Z</time>
      </trkpt>
      <trkpt lat="25.4496710" lon="-100.8476990">
        <ele>1680.9</ele>
        <time>2022-08-20T13:05:48Z</time>
      </trkpt>
      <trkpt lat="25.4496710" lon="-100.8476990">
        <ele>1680.9</ele>
        <time>2022-08-20T13:05:49Z</time>
      </trkpt>
      <trkpt lat="25.4496710" lon="-100.8476980">
        <ele>1680.9</ele>
        <time>2022-08-20T13:05:50Z</time>
      </trkpt>
      <trkpt lat="25.4496710" lon="-100.8476980">
        <ele>1680.9</ele>
        <time>2022-08-20T13:05:51Z</time>
      </trkpt>
      <trkpt lat="25.4496710" lon="-100.8476970">
        <ele>1680.9</ele>
        <time>2022-08-20T13:05:52Z</time>
      </trkpt>
      <trkpt lat="25.4496720" lon="-100.8476970">
        <ele>1680.9</ele>
        <time>2022-08-20T13:05:53Z</time>
      </trkpt>
      <trkpt lat="25.4496720" lon="-100.8476970">
        <ele>1680.9</ele>
        <time>2022-08-20T13:05:54Z</time>
      </trkpt>
      <trkpt lat="25.4496720" lon="-100.8476960">
        <ele>1680.9</ele>
        <time>2022-08-20T13:05:55Z</time>
      </trkpt>
      <trkpt lat="25.4496720" lon="-100.8476960">
        <ele>1680.9</ele>
        <time>2022-08-20T13:05:56Z</time>
      </trkpt>
      <trkpt lat="25.4496730" lon="-100.8476950">
        <ele>1680.9</ele>
        <time>2022-08-20T13:05:57Z</time>
      </trkpt>
      <trkpt lat="25.4496730" lon="-100.8476950">
        <ele>1680.9</ele>
        <time>2022-08-20T13:05:58Z</time>
      </trkpt>
      <trkpt lat="25.4496730" lon="-100.8476940">
        <ele>1680.9</ele>
        <time>2022-08-20T13:05:59Z</time>
      </trkpt>
      <trkpt lat="25.4496730" lon="-100.8476940">
        <ele>1680.9</ele>
        <time>2022-08-20T13:06:00Z</time>
      </trkpt>
      <trkpt lat="25.4496730" lon="-100.8476930">
        <ele>1680.9</ele>
        <time>2022-08-20T13:06:01Z</time>
      </trkpt>
      <trkpt lat="25.4496740" lon="-100.8476930">
        <ele>1680.9</ele>
        <time>2022-08-20T13:06:02Z</time>
      </trkpt>
      <trkpt lat="25.4496740" lon="-100.8476920">
        <ele>1680.9</ele>
        <time>2022-08-20T13:06:03Z</time>
      </trkpt>
      <trkpt lat="25.4496740" lon="-100.8476920">
        <ele>1680.9</ele>
        <time>2022-08-20T13:06:04Z</time>
      </trkpt>
      <trkpt lat="25.4496740" lon="-100.8476910">
        <ele>1680.9</ele>
        <time>2022-08-20T13:06:05Z</time>
      </trkpt>
      <trkpt lat="25.4496750" lon="-100.8476910">
        <ele>1680.9</ele>
        <time>2022-08-20T13:06:06Z</time>
      </trkpt>
      <trkpt lat="25.4496750" lon="-100.8476900">
        <ele>1681.0</ele>
        <time>2022-08-20T13:06:07Z</time>
      </trkpt>
      <trkpt lat="25.4496750" lon="-100.8476900">
        <ele>1681.0</ele>
        <time>2022-08-20T13:06:08Z</time>
      </trkpt>
      <trkpt lat="25.4496750" lon="-100.8476890">
        <ele>1681.0</ele>
        <time>2022-08-20T13:06:09Z</time>
      </trkpt>
      <trkpt lat="25.4496760" lon="-100.8476890">
        <ele>1681.0</ele>
        <time>2022-08-20T13:06:10Z</time>
      </trkpt>
      <trkpt lat="25.4496760" lon="-100.8476880">
        <ele>1681.0</ele>
        <time>2022-08-20T13:06:11Z</time>
      </trkpt>
      <trkpt lat="25.4496760" lon="-100.8476880">
        <ele>1681.0</ele>
        <time>2022-08-20T13:06:12Z</time>
      </trkpt>
      <trkpt lat="25.4496760" lon="-100.8476880">
        <ele>1681.0</ele>
        <time>2022-08-20T13:06:13Z</time>
      </trkpt>
      <trkpt lat="25.4496760" lon="-100.8476870">
        <ele>1681.0</ele>
        <time>2022-08-20T13:06:14Z</time>
      </trkpt>
      <trkpt lat="25.4496770" lon="-100.8476870">
        <ele>1681.0</ele>
        <time>2022-08-20T13:06:15Z</time>
      </trkpt>
      <trkpt lat="25.4496770" lon="-100.8476860">
        <ele>1681.0</ele>
        <time>2022-08-20T13:06:16Z</time>
      </trkpt>
      <trkpt lat="25.4496770" lon="-100.8476860">
        <ele>1681.0</ele>
        <time>2022-08-20T13:06:17Z</time>
      </trkpt>
      <trkpt lat="25.4496770" lon="-100.8476850">
        <ele>1681.0</ele>
        <time>2022-08-20T13:06:18Z</time>
      </trkpt>
      <trkpt lat="25.4496780" lon="-100.8476850">
        <ele>1681.0</ele>
        <time>2022-08-20T13:06:19Z</time>
      </trkpt>
      <trkpt lat="25.4496780" lon="-100.8476840">
        <ele>1681.0</ele>
        <time>2022-08-20T13:06:20Z</time>
      </trkpt>
      <trkpt lat="25.4496780" lon="-100.8476840">
        <ele>1681.0</ele>
        <time>2022-08-20T13:06:21Z</time>
      </trkpt>
      <trkpt lat="25.4496780" lon="-100.8476830">
        <ele>1681.0</ele>
        <time>2022-08-20T13:06:22Z</time>
      </trkpt>
      <trkpt lat="25.4496780" lon="-100.8476830">
        <ele>1681.0</ele>
        <time>2022-08-20T13:06:23Z</time>
      </trkpt>
      <trkpt lat="25.4496790" lon="-100.8476820">
        <ele>1681.0</ele>
        <time>2022-08-20T13:06:24Z</time>
      </trkpt>
      <trkpt lat="25.4496790" lon="-100.8476820">
        <ele>1681.0</ele>
        <time>2022-08-20T13:06:25Z</time>
      </trkpt>
      <trkpt lat="25.4496790" lon="-100.8476810">
        <ele>1681.0</ele>
        <time>2022-08-20T13:06:26Z</time>
      </trkpt>
      <trkpt lat="25.4496790" lon="-100.8476810">
        <ele>1681.0</ele>
        <time>2022-08-20T13:06:27Z</time>
      </trkpt>
      <trkpt lat="25.4496800" lon="-100.8476800">
        <ele>1681.0</ele>
        <time>2022-08-20T13:06:28Z</time>
      </trkpt>
      <trkpt lat="25.4496800" lon="-100.8476800">
        <ele>1681.0</ele>
        <time>2022-08-20T13:06:29Z</time>
      </trkpt>
      <trkpt lat="25.4496800" lon="-100.8476800">
        <ele>1681.0</ele>
        <time>2022-08-20T13:06:30Z</time>
      </trkpt>
      <trkpt lat="25.4496800" lon="-100.8476790">
        <ele>1681.0</ele>
        <time>2022-08-20T13:06:31Z</time>
      </trkpt>
      <trkpt lat="25.4496800" lon="-100.8476790">
        <ele>1681.0</ele>
        <time>2022-08-20T13:06:32Z</time>
      </trkpt>
      <trkpt lat="25.4496810" lon="-100.8476780">
        <ele>1681.0</ele>
        <time>2022-08-20T13:06:33Z</time>
      </trkpt>
      <trkpt lat="25.4496810" lon="-100.8476780">
        <ele>1681.0</ele>
        <time>2022-08-20T13:06:34Z</time>
      </trkpt>
      <trkpt lat="25.4496810" lon="-100.8476770">
        <ele>1681.0</ele>
        <time>2022-08-20T13:06:35Z</time>
      </trkpt>
      <trkpt lat="25.4496810" lon="-100.8476770">
        <ele>1681.0</ele>
        <time>2022-08-20T13:06:36Z</time>
      </trkpt>
      <trkpt lat="25.4496820" lon="-100.8476760">
        <ele>1681.0</ele>
        <time>2022-08-20T13:06:37Z</time>
      </trkpt>
      <trkpt lat="25.4496820" lon="-100.8476760">
        <ele>1681.0</ele>
        <time>2022-08-20T13:06:38Z</time>
      </trkpt>
      <trkpt lat="25.4496820" lon="-100.8476750">
        <ele>1681.0</ele>
        <time>2022-08-20T13:06:39Z</time>
      </trkpt>
      <trkpt lat="25.4496820" lon="-100.8476750">
        <ele>1681.0</ele>
        <time>2022-08-20T13:06:40Z</time>
      </trkpt>
      <trkpt lat="25.4496830" lon="-100.8476740">
        <ele>1681.0</ele>
        <time>2022-08-20T13:06:41Z</time>
      </trkpt>
      <trkpt lat="25.4496830" lon="-100.8476740">
        <ele>1681.0</ele>
        <time>2022-08-20T13:06:43Z</time>
      </trkpt>
      <trkpt lat="25.4496830" lon="-100.8476730">
        <ele>1681.0</ele>
        <time>2022-08-20T13:06:44Z</time>
      </trkpt>
      <trkpt lat="25.4496830" lon="-100.8476730">
        <ele>1681.0</ele>
        <time>2022-08-20T13:06:45Z</time>
      </trkpt>
      <trkpt lat="25.4496830" lon="-100.8476720">
        <ele>1681.0</ele>
        <time>2022-08-20T13:06:46Z</time>
      </trkpt>
      <trkpt lat="25.4496840" lon="-100.8476720">
        <ele>1681.0</ele>
        <time>2022-08-20T13:06:47Z</time>
      </trkpt>
      <trkpt lat="25.4496840" lon="-100.8476710">
        <ele>1681.0</ele>
        <time>2022-08-20T13:06:48Z</time>
      </trkpt>
      <trkpt lat="25.4496840" lon="-100.8476710">
        <ele>1681.0</ele>
        <time>2022-08-20T13:06:49Z</time>
      </trkpt>
      <trkpt lat="25.4496840" lon="-100.8476710">
        <ele>1681.0</ele>
        <time>2022-08-20T13:06:50Z</time>
      </trkpt>
      <trkpt lat="25.4496850" lon="-100.8476700">
        <ele>1681.0</ele>
        <time>2022-08-20T13:06:51Z</time>
      </trkpt>
      <trkpt lat="25.4496850" lon="-100.8476700">
        <ele>1681.0</ele>
        <time>2022-08-20T13:06:52Z</time>
      </trkpt>
      <trkpt lat="25.4496720" lon="-100.8476320">
        <ele>1681.1</ele>
        <time>2022-08-20T13:06:53Z</time>
      </trkpt>
      <trkpt lat="25.4496630" lon="-100.8475930">
        <ele>1681.2</ele>
        <time>2022-08-20T13:06:54Z</time>
      </trkpt>
      <trkpt lat="25.4496440" lon="-100.8475370">
        <ele>1681.3</ele>
        <time>2022-08-20T13:06:56Z</time>
      </trkpt>
      <trkpt lat="25.4496280" lon="-100.8474980">
        <ele>1681.4</ele>
        <time>2022-08-20T13:06:57Z</time>
      </trkpt>
      <trkpt lat="25.4496110" lon="-100.8474570">
        <ele>1681.6</ele>
        <time>2022-08-20T13:06:58Z</time>
      </trkpt>
      <trkpt lat="25.4495960" lon="-100.8474180">
        <ele>1681.6</ele>
        <time>2022-08-20T13:06:59Z</time>
      </trkpt>
      <trkpt lat="25.4495780" lon="-100.8473710">
        <ele>1681.6</ele>
        <time>2022-08-20T13:07:00Z</time>
      </trkpt>
      <trkpt lat="25.4495590" lon="-100.8473280">
        <ele>1681.5</ele>
        <time>2022-08-20T13:07:01Z</time>
      </trkpt>
      <trkpt lat="25.4495400" lon="-100.8472900">
        <ele>1681.5</ele>
        <time>2022-08-20T13:07:02Z</time>
      </trkpt>
      <trkpt lat="25.4495190" lon="-100.8472500">
        <ele>1681.4</ele>
        <time>2022-08-20T13:07:03Z</time>
      </trkpt>
      <trkpt lat="25.4494990" lon="-100.8472070">
        <ele>1681.3</ele>
        <time>2022-08-20T13:07:04Z</time>
      </trkpt>
      <trkpt lat="25.4494790" lon="-100.8471520">
        <ele>1681.2</ele>
        <time>2022-08-20T13:07:05Z</time>
      </trkpt>
      <trkpt lat="25.4494600" lon="-100.8471070">
        <ele>1681.1</ele>
        <time>2022-08-20T13:07:06Z</time>
      </trkpt>
      <trkpt lat="25.4494450" lon="-100.8470550">
        <ele>1681.0</ele>
        <time>2022-08-20T13:07:07Z</time>
      </trkpt>
      <trkpt lat="25.4494310" lon="-100.8470050">
        <ele>1680.8</ele>
        <time>2022-08-20T13:07:08Z</time>
      </trkpt>
      <trkpt lat="25.4494220" lon="-100.8469550">
        <ele>1680.7</ele>
        <time>2022-08-20T13:07:09Z</time>
      </trkpt>
      <trkpt lat="25.4493990" lon="-100.8468620">
        <ele>1680.4</ele>
        <time>2022-08-20T13:07:11Z</time>
      </trkpt>
      <trkpt lat="25.4493850" lon="-100.8468060">
        <ele>1680.2</ele>
        <time>2022-08-20T13:07:12Z</time>
      </trkpt>
      <trkpt lat="25.4493690" lon="-100.8467500">
        <ele>1680.1</ele>
        <time>2022-08-20T13:07:13Z</time>
      </trkpt>
      <trkpt lat="25.4493470" lon="-100.8466970">
        <ele>1679.9</ele>
        <time>2022-08-20T13:07:14Z</time>
      </trkpt>
      <trkpt lat="25.4493190" lon="-100.8466430">
        <ele>1679.8</ele>
        <time>2022-08-20T13:07:15Z</time>
      </trkpt>
      <trkpt lat="25.4492980" lon="-100.8465920">
        <ele>1679.6</ele>
        <time>2022-08-20T13:07:16Z</time>
      </trkpt>
      <trkpt lat="25.4492840" lon="-100.8465460">
        <ele>1679.6</ele>
        <time>2022-08-20T13:07:17Z</time>
      </trkpt>
      <trkpt lat="25.4492700" lon="-100.8464950">
        <ele>1679.5</ele>
        <time>2022-08-20T13:07:18Z</time>
      </trkpt>
      <trkpt lat="25.4492550" lon="-100.8464400">
        <ele>1679.4</ele>
        <time>2022-08-20T13:07:19Z</time>
      </trkpt>
      <trkpt lat="25.4492420" lon="-100.8463870">
        <ele>1679.4</ele>
        <time>2022-08-20T13:07:20Z</time>
      </trkpt>
      <trkpt lat="25.4492300" lon="-100.8463350">
        <ele>1679.3</ele>
        <time>2022-08-20T13:07:21Z</time>
      </trkpt>
      <trkpt lat="25.4492160" lon="-100.8462850">
        <ele>1679.2</ele>
        <time>2022-08-20T13:07:22Z</time>
      </trkpt>
      <trkpt lat="25.4492030" lon="-100.8462340">
        <ele>1679.2</ele>
        <time>2022-08-20T13:07:23Z</time>
      </trkpt>
      <trkpt lat="25.4491890" lon="-100.8461820">
        <ele>1679.1</ele>
        <time>2022-08-20T13:07:24Z</time>
      </trkpt>
      <trkpt lat="25.4491750" lon="-100.8461290">
        <ele>1679.0</ele>
        <time>2022-08-20T13:07:25Z</time>
      </trkpt>
      <trkpt lat="25.4491580" lon="-100.8460760">
        <ele>1679.0</ele>
        <time>2022-08-20T13:07:26Z</time>
      </trkpt>
      <trkpt lat="25.4491410" lon="-100.8460240">
        <ele>1678.9</ele>
        <time>2022-08-20T13:07:27Z</time>
      </trkpt>
      <trkpt lat="25.4491290" lon="-100.8459750">
        <ele>1678.8</ele>
        <time>2022-08-20T13:07:28Z</time>
      </trkpt>
      <trkpt lat="25.4491210" lon="-100.8459260">
        <ele>1678.7</ele>
        <time>2022-08-20T13:07:29Z</time>
      </trkpt>
      <trkpt lat="25.4491150" lon="-100.8458850">
        <ele>1678.6</ele>
        <time>2022-08-20T13:07:30Z</time>
      </trkpt>
      <trkpt lat="25.4491080" lon="-100.8458420">
        <ele>1678.5</ele>
        <time>2022-08-20T13:07:31Z</time>
      </trkpt>
      <trkpt lat="25.4490970" lon="-100.8457920">
        <ele>1678.4</ele>
        <time>2022-08-20T13:07:32Z</time>
      </trkpt>
      <trkpt lat="25.4490860" lon="-100.8457480">
        <ele>1678.3</ele>
        <time>2022-08-20T13:07:33Z</time>
      </trkpt>
      <trkpt lat="25.4490710" lon="-100.8457010">
        <ele>1678.3</ele>
        <time>2022-08-20T13:07:34Z</time>
      </trkpt>
      <trkpt lat="25.4490560" lon="-100.8456520">
        <ele>1678.2</ele>
        <time>2022-08-20T13:07:35Z</time>
      </trkpt>
      <trkpt lat="25.4490020" lon="-100.8456230">
        <ele>1678.1</ele>
        <time>2022-08-20T13:07:36Z</time>
      </trkpt>
      <trkpt lat="25.4489990" lon="-100.8455200">
        <ele>1678.0</ele>
        <time>2022-08-20T13:07:38Z</time>
      </trkpt>
      <trkpt lat="25.4490090" lon="-100.8454830">
        <ele>1678.0</ele>
        <time>2022-08-20T13:07:39Z</time>
      </trkpt>
      <trkpt lat="25.4490000" lon="-100.8454240">
        <ele>1677.9</ele>
        <time>2022-08-20T13:07:40Z</time>
      </trkpt>
      <trkpt lat="25.4489800" lon="-100.8453540">
        <ele>1677.9</ele>
        <time>2022-08-20T13:07:42Z</time>
      </trkpt>
      <trkpt lat="25.4489650" lon="-100.8452850">
        <ele>1677.8</ele>
        <time>2022-08-20T13:07:43Z</time>
      </trkpt>
      <trkpt lat="25.4489580" lon="-100.8452490">
        <ele>1677.7</ele>
        <time>2022-08-20T13:07:45Z</time>
      </trkpt>
      <trkpt lat="25.4489540" lon="-100.8452120">
        <ele>1677.7</ele>
        <time>2022-08-20T13:07:46Z</time>
      </trkpt>
      <trkpt lat="25.4489480" lon="-100.8451790">
        <ele>1677.7</ele>
        <time>2022-08-20T13:07:47Z</time>
      </trkpt>
      <trkpt lat="25.4489280" lon="-100.8451470">
        <ele>1677.6</ele>
        <time>2022-08-20T13:07:48Z</time>
      </trkpt>
      <trkpt lat="25.4489110" lon="-100.8451080">
        <ele>1677.6</ele>
        <time>2022-08-20T13:07:49Z</time>
      </trkpt>
      <trkpt lat="25.4488960" lon="-100.8450160">
        <ele>1677.5</ele>
        <time>2022-08-20T13:07:51Z</time>
      </trkpt>
      <trkpt lat="25.4488600" lon="-100.8449080">
        <ele>1677.4</ele>
        <time>2022-08-20T13:07:52Z</time>
      </trkpt>
      <trkpt lat="25.4488490" lon="-100.8448460">
        <ele>1677.4</ele>
        <time>2022-08-20T13:07:53Z</time>
      </trkpt>
      <trkpt lat="25.4488420" lon="-100.8447870">
        <ele>1677.3</ele>
        <time>2022-08-20T13:07:54Z</time>
      </trkpt>
      <trkpt lat="25.4488330" lon="-100.8447270">
        <ele>1677.3</ele>
        <time>2022-08-20T13:07:55Z</time>
      </trkpt>
      <trkpt lat="25.4488230" lon="-100.8446680">
        <ele>1677.3</ele>
        <time>2022-08-20T13:07:56Z</time>
      </trkpt>
      <trkpt lat="25.4488150" lon="-100.8446090">
        <ele>1677.3</ele>
        <time>2022-08-20T13:07:57Z</time>
      </trkpt>
      <trkpt lat="25.4488080" lon="-100.8445510">
        <ele>1677.3</ele>
        <time>2022-08-20T13:07:58Z</time>
      </trkpt>
      <trkpt lat="25.4488000" lon="-100.8444950">
        <ele>1677.3</ele>
        <time>2022-08-20T13:07:59Z</time>
      </trkpt>
      <trkpt lat="25.4487920" lon="-100.8444380">
        <ele>1677.3</ele>
        <time>2022-08-20T13:08:00Z</time>
      </trkpt>
      <trkpt lat="25.4487830" lon="-100.8443810">
        <ele>1677.3</ele>
        <time>2022-08-20T13:08:01Z</time>
      </trkpt>
      <trkpt lat="25.4487740" lon="-100.8443230">
        <ele>1677.3</ele>
        <time>2022-08-20T13:08:02Z</time>
      </trkpt>
      <trkpt lat="25.4487660" lon="-100.8442640">
        <ele>1677.3</ele>
        <time>2022-08-20T13:08:03Z</time>
      </trkpt>
      <trkpt lat="25.4487570" lon="-100.8442070">
        <ele>1677.3</ele>
        <time>2022-08-20T13:08:04Z</time>
      </trkpt>
      <trkpt lat="25.4487480" lon="-100.8441500">
        <ele>1677.3</ele>
        <time>2022-08-20T13:08:05Z</time>
      </trkpt>
      <trkpt lat="25.4487390" lon="-100.8440930">
        <ele>1677.3</ele>
        <time>2022-08-20T13:08:06Z</time>
      </trkpt>
      <trkpt lat="25.4487300" lon="-100.8440360">
        <ele>1677.3</ele>
        <time>2022-08-20T13:08:07Z</time>
      </trkpt>
      <trkpt lat="25.4487210" lon="-100.8439810">
        <ele>1677.3</ele>
        <time>2022-08-20T13:08:08Z</time>
      </trkpt>
      <trkpt lat="25.4487120" lon="-100.8439240">
        <ele>1677.3</ele>
        <time>2022-08-20T13:08:09Z</time>
      </trkpt>
      <trkpt lat="25.4487030" lon="-100.8438660">
        <ele>1677.3</ele>
        <time>2022-08-20T13:08:10Z</time>
      </trkpt>
      <trkpt lat="25.4486950" lon="-100.8438090">
        <ele>1677.4</ele>
        <time>2022-08-20T13:08:11Z</time>
      </trkpt>
      <trkpt lat="25.4486880" lon="-100.8437500">
        <ele>1677.4</ele>
        <time>2022-08-20T13:08:12Z</time>
      </trkpt>
      <trkpt lat="25.4486820" lon="-100.8436930">
        <ele>1677.4</ele>
        <time>2022-08-20T13:08:13Z</time>
      </trkpt>
      <trkpt lat="25.4486750" lon="-100.8436350">
        <ele>1677.5</ele>
        <time>2022-08-20T13:08:14Z</time>
      </trkpt>
      <trkpt lat="25.4486680" lon="-100.8435770">
        <ele>1677.5</ele>
        <time>2022-08-20T13:08:15Z</time>
      </trkpt>
      <trkpt lat="25.4486620" lon="-100.8435170">
        <ele>1677.5</ele>
        <time>2022-08-20T13:08:16Z</time>
      </trkpt>
      <trkpt lat="25.4486540" lon="-100.8434510">
        <ele>1677.6</ele>
        <time>2022-08-20T13:08:17Z</time>
      </trkpt>
      <trkpt lat="25.4486430" lon="-100.8433890">
        <ele>1677.6</ele>
        <time>2022-08-20T13:08:18Z</time>
      </trkpt>
      <trkpt lat="25.4486310" lon="-100.8433300">
        <ele>1677.7</ele>
        <time>2022-08-20T13:08:19Z</time>
      </trkpt>
      <trkpt lat="25.4486210" lon="-100.8432760">
        <ele>1677.8</ele>
        <time>2022-08-20T13:08:20Z</time>
      </trkpt>
      <trkpt lat="25.4486100" lon="-100.8432230">
        <ele>1677.8</ele>
        <time>2022-08-20T13:08:21Z</time>
      </trkpt>
      <trkpt lat="25.4485980" lon="-100.8431690">
        <ele>1677.9</ele>
        <time>2022-08-20T13:08:22Z</time>
      </trkpt>
      <trkpt lat="25.4485860" lon="-100.8431180">
        <ele>1678.0</ele>
        <time>2022-08-20T13:08:23Z</time>
      </trkpt>
      <trkpt lat="25.4485760" lon="-100.8430650">
        <ele>1678.0</ele>
        <time>2022-08-20T13:08:24Z</time>
      </trkpt>
      <trkpt lat="25.4485670" lon="-100.8430140">
        <ele>1678.1</ele>
        <time>2022-08-20T13:08:25Z</time>
      </trkpt>
      <trkpt lat="25.4485570" lon="-100.8429600">
        <ele>1678.1</ele>
        <time>2022-08-20T13:08:26Z</time>
      </trkpt>
      <trkpt lat="25.4485460" lon="-100.8429030">
        <ele>1678.2</ele>
        <time>2022-08-20T13:08:27Z</time>
      </trkpt>
      <trkpt lat="25.4485360" lon="-100.8428440">
        <ele>1678.3</ele>
        <time>2022-08-20T13:08:28Z</time>
      </trkpt>
      <trkpt lat="25.4485260" lon="-100.8427840">
        <ele>1678.4</ele>
        <time>2022-08-20T13:08:29Z</time>
      </trkpt>
      <trkpt lat="25.4485160" lon="-100.8427230">
        <ele>1678.5</ele>
        <time>2022-08-20T13:08:30Z</time>
      </trkpt>
      <trkpt lat="25.4485070" lon="-100.8426620">
        <ele>1678.6</ele>
        <time>2022-08-20T13:08:31Z</time>
      </trkpt>
      <trkpt lat="25.4484980" lon="-100.8426030">
        <ele>1678.7</ele>
        <time>2022-08-20T13:08:32Z</time>
      </trkpt>
      <trkpt lat="25.4484870" lon="-100.8425450">
        <ele>1678.8</ele>
        <time>2022-08-20T13:08:33Z</time>
      </trkpt>
      <trkpt lat="25.4484780" lon="-100.8424880">
        <ele>1679.0</ele>
        <time>2022-08-20T13:08:34Z</time>
      </trkpt>
      <trkpt lat="25.4484700" lon="-100.8424320">
        <ele>1679.1</ele>
        <time>2022-08-20T13:08:35Z</time>
      </trkpt>
      <trkpt lat="25.4484610" lon="-100.8423780">
        <ele>1679.2</ele>
        <time>2022-08-20T13:08:36Z</time>
      </trkpt>
      <trkpt lat="25.4484520" lon="-100.8423220">
        <ele>1679.3</ele>
        <time>2022-08-20T13:08:37Z</time>
      </trkpt>
      <trkpt lat="25.4484430" lon="-100.8422650">
        <ele>1679.4</ele>
        <time>2022-08-20T13:08:38Z</time>
      </trkpt>
      <trkpt lat="25.4484340" lon="-100.8422080">
        <ele>1679.5</ele>
        <time>2022-08-20T13:08:39Z</time>
      </trkpt>
      <trkpt lat="25.4484240" lon="-100.8421500">
        <ele>1679.6</ele>
        <time>2022-08-20T13:08:40Z</time>
      </trkpt>
      <trkpt lat="25.4484170" lon="-100.8420920">
        <ele>1679.7</ele>
        <time>2022-08-20T13:08:41Z</time>
      </trkpt>
      <trkpt lat="25.4484090" lon="-100.8420340">
        <ele>1679.8</ele>
        <time>2022-08-20T13:08:42Z</time>
      </trkpt>
      <trkpt lat="25.4484000" lon="-100.8419770">
        <ele>1679.9</ele>
        <time>2022-08-20T13:08:43Z</time>
      </trkpt>
      <trkpt lat="25.4483900" lon="-100.8419200">
        <ele>1680.0</ele>
        <time>2022-08-20T13:08:44Z</time>
      </trkpt>
      <trkpt lat="25.4483830" lon="-100.8418620">
        <ele>1680.0</ele>
        <time>2022-08-20T13:08:45Z</time>
      </trkpt>
      <trkpt lat="25.4483780" lon="-100.8418040">
        <ele>1680.1</ele>
        <time>2022-08-20T13:08:46Z</time>
      </trkpt>
      <trkpt lat="25.4483700" lon="-100.8417480">
        <ele>1680.2</ele>
        <time>2022-08-20T13:08:47Z</time>
      </trkpt>
      <trkpt lat="25.4483620" lon="-100.8416890">
        <ele>1680.2</ele>
        <time>2022-08-20T13:08:48Z</time>
      </trkpt>
      <trkpt lat="25.4483550" lon="-100.8416320">
        <ele>1680.3</ele>
        <time>2022-08-20T13:08:49Z</time>
      </trkpt>
      <trkpt lat="25.4483480" lon="-100.8415720">
        <ele>1680.3</ele>
        <time>2022-08-20T13:08:50Z</time>
      </trkpt>
      <trkpt lat="25.4483460" lon="-100.8415100">
        <ele>1680.4</ele>
        <time>2022-08-20T13:08:51Z</time>
      </trkpt>
      <trkpt lat="25.4483450" lon="-100.8414490">
        <ele>1680.4</ele>
        <time>2022-08-20T13:08:52Z</time>
      </trkpt>
      <trkpt lat="25.4483440" lon="-100.8413870">
        <ele>1680.5</ele>
        <time>2022-08-20T13:08:53Z</time>
      </trkpt>
      <trkpt lat="25.4483450" lon="-100.8413250">
        <ele>1680.5</ele>
        <time>2022-08-20T13:08:54Z</time>
      </trkpt>
      <trkpt lat="25.4483450" lon="-100.8412620">
        <ele>1680.6</ele>
        <time>2022-08-20T13:08:55Z</time>
      </trkpt>
      <trkpt lat="25.4483460" lon="-100.8411970">
        <ele>1680.6</ele>
        <time>2022-08-20T13:08:56Z</time>
      </trkpt>
      <trkpt lat="25.4483470" lon="-100.8411310">
        <ele>1680.7</ele>
        <time>2022-08-20T13:08:57Z</time>
      </trkpt>
      <trkpt lat="25.4483470" lon="-100.8410680">
        <ele>1680.8</ele>
        <time>2022-08-20T13:08:58Z</time>
      </trkpt>
      <trkpt lat="25.4483460" lon="-100.8410060">
        <ele>1680.9</ele>
        <time>2022-08-20T13:08:59Z</time>
      </trkpt>
      <trkpt lat="25.4483440" lon="-100.8409450">
        <ele>1680.9</ele>
        <time>2022-08-20T13:09:00Z</time>
      </trkpt>
      <trkpt lat="25.4483450" lon="-100.8408840">
        <ele>1681.0</ele>
        <time>2022-08-20T13:09:01Z</time>
      </trkpt>
      <trkpt lat="25.4483470" lon="-100.8408240">
        <ele>1681.1</ele>
        <time>2022-08-20T13:09:02Z</time>
      </trkpt>
      <trkpt lat="25.4483520" lon="-100.8407640">
        <ele>1681.1</ele>
        <time>2022-08-20T13:09:03Z</time>
      </trkpt>
      <trkpt lat="25.4483560" lon="-100.8407030">
        <ele>1681.1</ele>
        <time>2022-08-20T13:09:04Z</time>
      </trkpt>
      <trkpt lat="25.4483640" lon="-100.8406450">
        <ele>1681.1</ele>
        <time>2022-08-20T13:09:05Z</time>
      </trkpt>
      <trkpt lat="25.4483750" lon="-100.8405920">
        <ele>1681.0</ele>
        <time>2022-08-20T13:09:06Z</time>
      </trkpt>
      <trkpt lat="25.4483870" lon="-100.8405360">
        <ele>1680.9</ele>
        <time>2022-08-20T13:09:07Z</time>
      </trkpt>
      <trkpt lat="25.4483980" lon="-100.8404780">
        <ele>1680.8</ele>
        <time>2022-08-20T13:09:08Z</time>
      </trkpt>
      <trkpt lat="25.4484110" lon="-100.8404160">
        <ele>1680.6</ele>
        <time>2022-08-20T13:09:09Z</time>
      </trkpt>
      <trkpt lat="25.4484220" lon="-100.8403540">
        <ele>1680.4</ele>
        <time>2022-08-20T13:09:10Z</time>
      </trkpt>
      <trkpt lat="25.4484300" lon="-100.8402910">
        <ele>1680.2</ele>
        <time>2022-08-20T13:09:11Z</time>
      </trkpt>
      <trkpt lat="25.4484330" lon="-100.8402270">
        <ele>1680.0</ele>
        <time>2022-08-20T13:09:12Z</time>
      </trkpt>
      <trkpt lat="25.4484360" lon="-100.8401630">
        <ele>1679.8</ele>
        <time>2022-08-20T13:09:13Z</time>
      </trkpt>
      <trkpt lat="25.4484390" lon="-100.8400980">
        <ele>1679.5</ele>
        <time>2022-08-20T13:09:14Z</time>
      </trkpt>
      <trkpt lat="25.4484400" lon="-100.8400310">
        <ele>1679.2</ele>
        <time>2022-08-20T13:09:15Z</time>
      </trkpt>
      <trkpt lat="25.4484380" lon="-100.8399610">
        <ele>1678.9</ele>
        <time>2022-08-20T13:09:16Z</time>
      </trkpt>
      <trkpt lat="25.4484330" lon="-100.8398910">
        <ele>1678.5</ele>
        <time>2022-08-20T13:09:17Z</time>
      </trkpt>
      <trkpt lat="25.4484280" lon="-100.8398200">
        <ele>1678.1</ele>
        <time>2022-08-20T13:09:18Z</time>
      </trkpt>
      <trkpt lat="25.4484250" lon="-100.8397490">
        <ele>1677.6</ele>
        <time>2022-08-20T13:09:19Z</time>
      </trkpt>
      <trkpt lat="25.4484290" lon="-100.8396770">
        <ele>1677.2</ele>
        <time>2022-08-20T13:09:20Z</time>
      </trkpt>
      <trkpt lat="25.4484430" lon="-100.8396030">
        <ele>1676.7</ele>
        <time>2022-08-20T13:09:21Z</time>
      </trkpt>
      <trkpt lat="25.4484690" lon="-100.8395240">
        <ele>1676.2</ele>
        <time>2022-08-20T13:09:22Z</time>
      </trkpt>
      <trkpt lat="25.4485020" lon="-100.8394410">
        <ele>1675.8</ele>
        <time>2022-08-20T13:09:23Z</time>
      </trkpt>
      <trkpt lat="25.4485390" lon="-100.8393530">
        <ele>1675.4</ele>
        <time>2022-08-20T13:09:24Z</time>
      </trkpt>
      <trkpt lat="25.4485770" lon="-100.8392620">
        <ele>1675.2</ele>
        <time>2022-08-20T13:09:25Z</time>
      </trkpt>
      <trkpt lat="25.4486160" lon="-100.8391770">
        <ele>1675.0</ele>
        <time>2022-08-20T13:09:26Z</time>
      </trkpt>
      <trkpt lat="25.4486550" lon="-100.8391010">
        <ele>1674.8</ele>
        <time>2022-08-20T13:09:27Z</time>
      </trkpt>
      <trkpt lat="25.4486960" lon="-100.8390310">
        <ele>1674.7</ele>
        <time>2022-08-20T13:09:28Z</time>
      </trkpt>
      <trkpt lat="25.4487390" lon="-100.8389650">
        <ele>1674.6</ele>
        <time>2022-08-20T13:09:29Z</time>
      </trkpt>
      <trkpt lat="25.4487820" lon="-100.8389010">
        <ele>1674.6</ele>
        <time>2022-08-20T13:09:30Z</time>
      </trkpt>
      <trkpt lat="25.4488260" lon="-100.8388370">
        <ele>1674.6</ele>
        <time>2022-08-20T13:09:31Z</time>
      </trkpt>
      <trkpt lat="25.4488680" lon="-100.8387720">
        <ele>1674.6</ele>
        <time>2022-08-20T13:09:32Z</time>
      </trkpt>
      <trkpt lat="25.4489080" lon="-100.8387090">
        <ele>1674.7</ele>
        <time>2022-08-20T13:09:33Z</time>
      </trkpt>
      <trkpt lat="25.4489450" lon="-100.8386520">
        <ele>1674.8</ele>
        <time>2022-08-20T13:09:34Z</time>
      </trkpt>
      <trkpt lat="25.4489800" lon="-100.8386000">
        <ele>1674.9</ele>
        <time>2022-08-20T13:09:35Z</time>
      </trkpt>
      <trkpt lat="25.4490140" lon="-100.8385490">
        <ele>1674.9</ele>
        <time>2022-08-20T13:09:36Z</time>
      </trkpt>
      <trkpt lat="25.4490450" lon="-100.8384980">
        <ele>1675.0</ele>
        <time>2022-08-20T13:09:37Z</time>
      </trkpt>
      <trkpt lat="25.4490760" lon="-100.8384470">
        <ele>1675.1</ele>
        <time>2022-08-20T13:09:38Z</time>
      </trkpt>
      <trkpt lat="25.4491050" lon="-100.8383970">
        <ele>1675.2</ele>
        <time>2022-08-20T13:09:39Z</time>
      </trkpt>
      <trkpt lat="25.4491330" lon="-100.8383480">
        <ele>1675.3</ele>
        <time>2022-08-20T13:09:40Z</time>
      </trkpt>
      <trkpt lat="25.4491600" lon="-100.8382990">
        <ele>1675.4</ele>
        <time>2022-08-20T13:09:41Z</time>
      </trkpt>
      <trkpt lat="25.4491870" lon="-100.8382510">
        <ele>1675.5</ele>
        <time>2022-08-20T13:09:42Z</time>
      </trkpt>
      <trkpt lat="25.4492150" lon="-100.8382040">
        <ele>1675.6</ele>
        <time>2022-08-20T13:09:43Z</time>
      </trkpt>
      <trkpt lat="25.4492420" lon="-100.8381560">
        <ele>1675.7</ele>
        <time>2022-08-20T13:09:44Z</time>
      </trkpt>
      <trkpt lat="25.4492690" lon="-100.8381080">
        <ele>1675.8</ele>
        <time>2022-08-20T13:09:45Z</time>
      </trkpt>
      <trkpt lat="25.4492970" lon="-100.8380580">
        <ele>1675.8</ele>
        <time>2022-08-20T13:09:46Z</time>
      </trkpt>
      <trkpt lat="25.4493250" lon="-100.8380090">
        <ele>1675.9</ele>
        <time>2022-08-20T13:09:47Z</time>
      </trkpt>
      <trkpt lat="25.4493530" lon="-100.8379590">
        <ele>1676.0</ele>
        <time>2022-08-20T13:09:48Z</time>
      </trkpt>
      <trkpt lat="25.4493810" lon="-100.8379070">
        <ele>1676.0</ele>
        <time>2022-08-20T13:09:49Z</time>
      </trkpt>
      <trkpt lat="25.4494080" lon="-100.8378540">
        <ele>1676.1</ele>
        <time>2022-08-20T13:09:50Z</time>
      </trkpt>
      <trkpt lat="25.4494370" lon="-100.8378020">
        <ele>1676.2</ele>
        <time>2022-08-20T13:09:51Z</time>
      </trkpt>
      <trkpt lat="25.4494650" lon="-100.8377530">
        <ele>1676.3</ele>
        <time>2022-08-20T13:09:52Z</time>
      </trkpt>
      <trkpt lat="25.4494940" lon="-100.8377040">
        <ele>1676.4</ele>
        <time>2022-08-20T13:09:53Z</time>
      </trkpt>
      <trkpt lat="25.4495230" lon="-100.8376570">
        <ele>1676.4</ele>
        <time>2022-08-20T13:09:54Z</time>
      </trkpt>
      <trkpt lat="25.4495500" lon="-100.8376120">
        <ele>1676.5</ele>
        <time>2022-08-20T13:09:55Z</time>
      </trkpt>
      <trkpt lat="25.4495760" lon="-100.8375660">
        <ele>1676.6</ele>
        <time>2022-08-20T13:09:56Z</time>
      </trkpt>
      <trkpt lat="25.4495990" lon="-100.8375190">
        <ele>1676.7</ele>
        <time>2022-08-20T13:09:57Z</time>
      </trkpt>
      <trkpt lat="25.4496220" lon="-100.8374750">
        <ele>1676.8</ele>
        <time>2022-08-20T13:09:58Z</time>
      </trkpt>
      <trkpt lat="25.4496430" lon="-100.8374320">
        <ele>1676.9</ele>
        <time>2022-08-20T13:09:59Z</time>
      </trkpt>
      <trkpt lat="25.4496620" lon="-100.8373910">
        <ele>1677.0</ele>
        <time>2022-08-20T13:10:00Z</time>
      </trkpt>
      <trkpt lat="25.4496740" lon="-100.8373620">
        <ele>1677.0</ele>
        <time>2022-08-20T13:10:01Z</time>
      </trkpt>
      <trkpt lat="25.4496930" lon="-100.8373260">
        <ele>1677.1</ele>
        <time>2022-08-20T13:10:02Z</time>
      </trkpt>
      <trkpt lat="25.4497170" lon="-100.8372880">
        <ele>1677.2</ele>
        <time>2022-08-20T13:10:03Z</time>
      </trkpt>
      <trkpt lat="25.4497280" lon="-100.8372720">
        <ele>1677.3</ele>
        <time>2022-08-20T13:10:04Z</time>
      </trkpt>
      <trkpt lat="25.4497440" lon="-100.8372410">
        <ele>1677.4</ele>
        <time>2022-08-20T13:10:05Z</time>
      </trkpt>
      <trkpt lat="25.4497680" lon="-100.8371950">
        <ele>1677.5</ele>
        <time>2022-08-20T13:10:06Z</time>
      </trkpt>
      <trkpt lat="25.4497880" lon="-100.8371590">
        <ele>1677.7</ele>
        <time>2022-08-20T13:10:07Z</time>
      </trkpt>
      <trkpt lat="25.4497750" lon="-100.8371270">
        <ele>1677.8</ele>
        <time>2022-08-20T13:10:08Z</time>
      </trkpt>
      <trkpt lat="25.4498020" lon="-100.8370950">
        <ele>1678.0</ele>
        <time>2022-08-20T13:10:09Z</time>
      </trkpt>
      <trkpt lat="25.4498470" lon="-100.8370480">
        <ele>1678.2</ele>
        <time>2022-08-20T13:10:10Z</time>
      </trkpt>
      <trkpt lat="25.4498830" lon="-100.8370170">
        <ele>1678.5</ele>
        <time>2022-08-20T13:10:11Z</time>
      </trkpt>
      <trkpt lat="25.4499260" lon="-100.8369710">
        <ele>1678.8</ele>
        <time>2022-08-20T13:10:13Z</time>
      </trkpt>
      <trkpt lat="25.4499500" lon="-100.8369360">
        <ele>1679.1</ele>
        <time>2022-08-20T13:10:14Z</time>
      </trkpt>
      <trkpt lat="25.4499750" lon="-100.8368970">
        <ele>1679.4</ele>
        <time>2022-08-20T13:10:15Z</time>
      </trkpt>
      <trkpt lat="25.4499960" lon="-100.8368540">
        <ele>1679.7</ele>
        <time>2022-08-20T13:10:16Z</time>
      </trkpt>
      <trkpt lat="25.4500190" lon="-100.8368080">
        <ele>1680.1</ele>
        <time>2022-08-20T13:10:17Z</time>
      </trkpt>
      <trkpt lat="25.4500400" lon="-100.8367600">
        <ele>1680.6</ele>
        <time>2022-08-20T13:10:18Z</time>
      </trkpt>
      <trkpt lat="25.4500610" lon="-100.8367230">
        <ele>1681.0</ele>
        <time>2022-08-20T13:10:20Z</time>
      </trkpt>
      <trkpt lat="25.4500790" lon="-100.8366950">
        <ele>1681.3</ele>
        <time>2022-08-20T13:10:21Z</time>
      </trkpt>
      <trkpt lat="25.4500960" lon="-100.8366590">
        <ele>1681.7</ele>
        <time>2022-08-20T13:10:22Z</time>
      </trkpt>
      <trkpt lat="25.4501180" lon="-100.8366200">
        <ele>1682.1</ele>
        <time>2022-08-20T13:10:23Z</time>
      </trkpt>
      <trkpt lat="25.4501360" lon="-100.8365950">
        <ele>1682.4</ele>
        <time>2022-08-20T13:10:24Z</time>
      </trkpt>
      <trkpt lat="25.4501590" lon="-100.8365630">
        <ele>1682.8</ele>
        <time>2022-08-20T13:10:26Z</time>
      </trkpt>
      <trkpt lat="25.4501760" lon="-100.8365300">
        <ele>1683.0</ele>
        <time>2022-08-20T13:10:27Z</time>
      </trkpt>
      <trkpt lat="25.4501920" lon="-100.8364820">
        <ele>1683.3</ele>
        <time>2022-08-20T13:10:28Z</time>
      </trkpt>
      <trkpt lat="25.4502120" lon="-100.8364270">
        <ele>1683.6</ele>
        <time>2022-08-20T13:10:30Z</time>
      </trkpt>
      <trkpt lat="25.4502300" lon="-100.8363880">
        <ele>1683.7</ele>
        <time>2022-08-20T13:10:31Z</time>
      </trkpt>
      <trkpt lat="25.4502580" lon="-100.8363360">
        <ele>1683.9</ele>
        <time>2022-08-20T13:10:32Z</time>
      </trkpt>
      <trkpt lat="25.4502830" lon="-100.8362870">
        <ele>1684.1</ele>
        <time>2022-08-20T13:10:33Z</time>
      </trkpt>
      <trkpt lat="25.4503160" lon="-100.8362400">
        <ele>1684.2</ele>
        <time>2022-08-20T13:10:35Z</time>
      </trkpt>
      <trkpt lat="25.4503660" lon="-100.8361840">
        <ele>1684.3</ele>
        <time>2022-08-20T13:10:36Z</time>
      </trkpt>
      <trkpt lat="25.4503880" lon="-100.8361580">
        <ele>1684.3</ele>
        <time>2022-08-20T13:10:37Z</time>
      </trkpt>
      <trkpt lat="25.4504140" lon="-100.8361200">
        <ele>1684.3</ele>
        <time>2022-08-20T13:10:39Z</time>
      </trkpt>
      <trkpt lat="25.4504400" lon="-100.8360950">
        <ele>1684.3</ele>
        <time>2022-08-20T13:10:40Z</time>
      </trkpt>
      <trkpt lat="25.4504720" lon="-100.8360710">
        <ele>1684.4</ele>
        <time>2022-08-20T13:10:41Z</time>
      </trkpt>
      <trkpt lat="25.4505270" lon="-100.8360300">
        <ele>1684.4</ele>
        <time>2022-08-20T13:10:42Z</time>
      </trkpt>
      <trkpt lat="25.4505720" lon="-100.8360010">
        <ele>1684.4</ele>
        <time>2022-08-20T13:10:43Z</time>
      </trkpt>
      <trkpt lat="25.4506160" lon="-100.8359760">
        <ele>1684.4</ele>
        <time>2022-08-20T13:10:44Z</time>
      </trkpt>
      <trkpt lat="25.4506590" lon="-100.8359510">
        <ele>1684.4</ele>
        <time>2022-08-20T13:10:45Z</time>
      </trkpt>
      <trkpt lat="25.4507010" lon="-100.8359250">
        <ele>1684.4</ele>
        <time>2022-08-20T13:10:46Z</time>
      </trkpt>
      <trkpt lat="25.4507440" lon="-100.8358980">
        <ele>1684.4</ele>
        <time>2022-08-20T13:10:47Z</time>
      </trkpt>
      <trkpt lat="25.4507840" lon="-100.8358740">
        <ele>1684.4</ele>
        <time>2022-08-20T13:10:48Z</time>
      </trkpt>
      <trkpt lat="25.4508180" lon="-100.8358640">
        <ele>1684.4</ele>
        <time>2022-08-20T13:10:49Z</time>
      </trkpt>
      <trkpt lat="25.4509030" lon="-100.8357950">
        <ele>1684.5</ele>
        <time>2022-08-20T13:10:51Z</time>
      </trkpt>
      <trkpt lat="25.4509440" lon="-100.8357640">
        <ele>1684.5</ele>
        <time>2022-08-20T13:10:52Z</time>
      </trkpt>
      <trkpt lat="25.4509860" lon="-100.8357330">
        <ele>1684.5</ele>
        <time>2022-08-20T13:10:53Z</time>
      </trkpt>
      <trkpt lat="25.4510270" lon="-100.8357030">
        <ele>1684.5</ele>
        <time>2022-08-20T13:10:54Z</time>
      </trkpt>
      <trkpt lat="25.4510680" lon="-100.8356750">
        <ele>1684.6</ele>
        <time>2022-08-20T13:10:55Z</time>
      </trkpt>
      <trkpt lat="25.4511080" lon="-100.8356490">
        <ele>1684.6</ele>
        <time>2022-08-20T13:10:56Z</time>
      </trkpt>
      <trkpt lat="25.4511500" lon="-100.8356240">
        <ele>1684.6</ele>
        <time>2022-08-20T13:10:57Z</time>
      </trkpt>
      <trkpt lat="25.4511920" lon="-100.8355980">
        <ele>1684.6</ele>
        <time>2022-08-20T13:10:58Z</time>
      </trkpt>
      <trkpt lat="25.4512370" lon="-100.8355720">
        <ele>1684.7</ele>
        <time>2022-08-20T13:10:59Z</time>
      </trkpt>
      <trkpt lat="25.4512810" lon="-100.8355460">
        <ele>1684.7</ele>
        <time>2022-08-20T13:11:00Z</time>
      </trkpt>
      <trkpt lat="25.4513260" lon="-100.8355180">
        <ele>1684.7</ele>
        <time>2022-08-20T13:11:01Z</time>
      </trkpt>
      <trkpt lat="25.4513700" lon="-100.8354910">
        <ele>1684.7</ele>
        <time>2022-08-20T13:11:02Z</time>
      </trkpt>
      <trkpt lat="25.4514160" lon="-100.8354640">
        <ele>1684.7</ele>
        <time>2022-08-20T13:11:03Z</time>
      </trkpt>
      <trkpt lat="25.4514590" lon="-100.8354380">
        <ele>1684.7</ele>
        <time>2022-08-20T13:11:04Z</time>
      </trkpt>
      <trkpt lat="25.4515050" lon="-100.8354100">
        <ele>1684.7</ele>
        <time>2022-08-20T13:11:05Z</time>
      </trkpt>
      <trkpt lat="25.4515500" lon="-100.8353830">
        <ele>1684.7</ele>
        <time>2022-08-20T13:11:06Z</time>
      </trkpt>
      <trkpt lat="25.4515970" lon="-100.8353550">
        <ele>1684.7</ele>
        <time>2022-08-20T13:11:07Z</time>
      </trkpt>
      <trkpt lat="25.4516410" lon="-100.8353280">
        <ele>1684.7</ele>
        <time>2022-08-20T13:11:08Z</time>
      </trkpt>
      <trkpt lat="25.4516870" lon="-100.8353000">
        <ele>1684.7</ele>
        <time>2022-08-20T13:11:09Z</time>
      </trkpt>
      <trkpt lat="25.4517310" lon="-100.8352690">
        <ele>1684.7</ele>
        <time>2022-08-20T13:11:10Z</time>
      </trkpt>
      <trkpt lat="25.4517740" lon="-100.8352370">
        <ele>1684.7</ele>
        <time>2022-08-20T13:11:11Z</time>
      </trkpt>
      <trkpt lat="25.4518180" lon="-100.8352040">
        <ele>1684.7</ele>
        <time>2022-08-20T13:11:12Z</time>
      </trkpt>
      <trkpt lat="25.4518640" lon="-100.8351730">
        <ele>1684.6</ele>
        <time>2022-08-20T13:11:13Z</time>
      </trkpt>
      <trkpt lat="25.4519120" lon="-100.8351440">
        <ele>1684.6</ele>
        <time>2022-08-20T13:11:14Z</time>
      </trkpt>
      <trkpt lat="25.4519590" lon="-100.8351130">
        <ele>1684.6</ele>
        <time>2022-08-20T13:11:15Z</time>
      </trkpt>
      <trkpt lat="25.4520080" lon="-100.8350830">
        <ele>1684.6</ele>
        <time>2022-08-20T13:11:16Z</time>
      </trkpt>
      <trkpt lat="25.4520560" lon="-100.8350520">
        <ele>1684.5</ele>
        <time>2022-08-20T13:11:17Z</time>
      </trkpt>
      <trkpt lat="25.4521040" lon="-100.8350200">
        <ele>1684.5</ele>
        <time>2022-08-20T13:11:18Z</time>
      </trkpt>
      <trkpt lat="25.4521540" lon="-100.8349890">
        <ele>1684.5</ele>
        <time>2022-08-20T13:11:19Z</time>
      </trkpt>
      <trkpt lat="25.4522040" lon="-100.8349590">
        <ele>1684.5</ele>
        <time>2022-08-20T13:11:20Z</time>
      </trkpt>
      <trkpt lat="25.4522540" lon="-100.8349280">
        <ele>1684.4</ele>
        <time>2022-08-20T13:11:21Z</time>
      </trkpt>
      <trkpt lat="25.4523030" lon="-100.8348940">
        <ele>1684.4</ele>
        <time>2022-08-20T13:11:22Z</time>
      </trkpt>
      <trkpt lat="25.4523510" lon="-100.8348610">
        <ele>1684.4</ele>
        <time>2022-08-20T13:11:23Z</time>
      </trkpt>
      <trkpt lat="25.4523980" lon="-100.8348300">
        <ele>1684.4</ele>
        <time>2022-08-20T13:11:24Z</time>
      </trkpt>
      <trkpt lat="25.4524440" lon="-100.8347990">
        <ele>1684.4</ele>
        <time>2022-08-20T13:11:25Z</time>
      </trkpt>
      <trkpt lat="25.4524900" lon="-100.8347670">
        <ele>1684.4</ele>
        <time>2022-08-20T13:11:26Z</time>
      </trkpt>
      <trkpt lat="25.4525370" lon="-100.8347350">
        <ele>1684.4</ele>
        <time>2022-08-20T13:11:27Z</time>
      </trkpt>
      <trkpt lat="25.4525860" lon="-100.8347050">
        <ele>1684.4</ele>
        <time>2022-08-20T13:11:28Z</time>
      </trkpt>
      <trkpt lat="25.4526320" lon="-100.8346760">
        <ele>1684.4</ele>
        <time>2022-08-20T13:11:29Z</time>
      </trkpt>
      <trkpt lat="25.4526790" lon="-100.8346460">
        <ele>1684.5</ele>
        <time>2022-08-20T13:11:30Z</time>
      </trkpt>
      <trkpt lat="25.4527270" lon="-100.8346170">
        <ele>1684.6</ele>
        <time>2022-08-20T13:11:31Z</time>
      </trkpt>
      <trkpt lat="25.4527730" lon="-100.8345870">
        <ele>1684.7</ele>
        <time>2022-08-20T13:11:32Z</time>
      </trkpt>
      <trkpt lat="25.4528170" lon="-100.8345580">
        <ele>1684.8</ele>
        <time>2022-08-20T13:11:33Z</time>
      </trkpt>
      <trkpt lat="25.4528580" lon="-100.8345290">
        <ele>1685.0</ele>
        <time>2022-08-20T13:11:34Z</time>
      </trkpt>
      <trkpt lat="25.4528980" lon="-100.8345020">
        <ele>1685.1</ele>
        <time>2022-08-20T13:11:35Z</time>
      </trkpt>
      <trkpt lat="25.4529370" lon="-100.8344760">
        <ele>1685.3</ele>
        <time>2022-08-20T13:11:36Z</time>
      </trkpt>
      <trkpt lat="25.4529750" lon="-100.8344510">
        <ele>1685.5</ele>
        <time>2022-08-20T13:11:37Z</time>
      </trkpt>
      <trkpt lat="25.4530140" lon="-100.8344280">
        <ele>1685.7</ele>
        <time>2022-08-20T13:11:38Z</time>
      </trkpt>
      <trkpt lat="25.4530330" lon="-100.8344170">
        <ele>1685.8</ele>
        <time>2022-08-20T13:11:39Z</time>
      </trkpt>
      <trkpt lat="25.4530710" lon="-100.8343940">
        <ele>1686.0</ele>
        <time>2022-08-20T13:11:40Z</time>
      </trkpt>
      <trkpt lat="25.4531080" lon="-100.8343720">
        <ele>1686.2</ele>
        <time>2022-08-20T13:11:41Z</time>
      </trkpt>
      <trkpt lat="25.4531450" lon="-100.8343500">
        <ele>1686.5</ele>
        <time>2022-08-20T13:11:42Z</time>
      </trkpt>
      <trkpt lat="25.4531780" lon="-100.8343300">
        <ele>1686.8</ele>
        <time>2022-08-20T13:11:43Z</time>
      </trkpt>
      <trkpt lat="25.4532190" lon="-100.8343050">
        <ele>1687.1</ele>
        <time>2022-08-20T13:11:44Z</time>
      </trkpt>
      <trkpt lat="25.4532790" lon="-100.8342680">
        <ele>1687.6</ele>
        <time>2022-08-20T13:11:45Z</time>
      </trkpt>
      <trkpt lat="25.4533190" lon="-100.8342490">
        <ele>1688.0</ele>
        <time>2022-08-20T13:11:47Z</time>
      </trkpt>
      <trkpt lat="25.4533520" lon="-100.8342320">
        <ele>1688.3</ele>
        <time>2022-08-20T13:11:48Z</time>
      </trkpt>
      <trkpt lat="25.4533850" lon="-100.8342150">
        <ele>1688.6</ele>
        <time>2022-08-20T13:11:49Z</time>
      </trkpt>
      <trkpt lat="25.4534470" lon="-100.8341780">
        <ele>1689.1</ele>
        <time>2022-08-20T13:11:50Z</time>
      </trkpt>
      <trkpt lat="25.4534840" lon="-100.8341590">
        <ele>1689.5</ele>
        <time>2022-08-20T13:11:52Z</time>
      </trkpt>
      <trkpt lat="25.4535160" lon="-100.8341330">
        <ele>1689.8</ele>
        <time>2022-08-20T13:11:53Z</time>
      </trkpt>
      <trkpt lat="25.4535470" lon="-100.8341120">
        <ele>1690.1</ele>
        <time>2022-08-20T13:11:54Z</time>
      </trkpt>
      <trkpt lat="25.4535850" lon="-100.8340910">
        <ele>1690.4</ele>
        <time>2022-08-20T13:11:55Z</time>
      </trkpt>
      <trkpt lat="25.4536250" lon="-100.8340710">
        <ele>1690.8</ele>
        <time>2022-08-20T13:11:56Z</time>
      </trkpt>
      <trkpt lat="25.4536660" lon="-100.8340510">
        <ele>1691.1</ele>
        <time>2022-08-20T13:11:57Z</time>
      </trkpt>
      <trkpt lat="25.4537080" lon="-100.8340250">
        <ele>1691.5</ele>
        <time>2022-08-20T13:11:58Z</time>
      </trkpt>
      <trkpt lat="25.4537470" lon="-100.8340050">
        <ele>1691.8</ele>
        <time>2022-08-20T13:12:00Z</time>
      </trkpt>
      <trkpt lat="25.4537980" lon="-100.8339760">
        <ele>1692.1</ele>
        <time>2022-08-20T13:12:01Z</time>
      </trkpt>
      <trkpt lat="25.4538360" lon="-100.8339550">
        <ele>1692.4</ele>
        <time>2022-08-20T13:12:02Z</time>
      </trkpt>
      <trkpt lat="25.4538780" lon="-100.8339250">
        <ele>1692.7</ele>
        <time>2022-08-20T13:12:04Z</time>
      </trkpt>
      <trkpt lat="25.4539050" lon="-100.8339040">
        <ele>1692.9</ele>
        <time>2022-08-20T13:12:05Z</time>
      </trkpt>
      <trkpt lat="25.4539350" lon="-100.8338840">
        <ele>1693.1</ele>
        <time>2022-08-20T13:12:06Z</time>
      </trkpt>
      <trkpt lat="25.4539950" lon="-100.8338430">
        <ele>1693.4</ele>
        <time>2022-08-20T13:12:07Z</time>
      </trkpt>
      <trkpt lat="25.4540520" lon="-100.8338070">
        <ele>1693.7</ele>
        <time>2022-08-20T13:12:09Z</time>
      </trkpt>
      <trkpt lat="25.4540900" lon="-100.8337820">
        <ele>1693.9</ele>
        <time>2022-08-20T13:12:10Z</time>
      </trkpt>
      <trkpt lat="25.4541640" lon="-100.8337360">
        <ele>1694.2</ele>
        <time>2022-08-20T13:12:12Z</time>
      </trkpt>
      <trkpt lat="25.4541980" lon="-100.8337140">
        <ele>1694.4</ele>
        <time>2022-08-20T13:12:14Z</time>
      </trkpt>
      <trkpt lat="25.4542320" lon="-100.8336930">
        <ele>1694.5</ele>
        <time>2022-08-20T13:12:15Z</time>
      </trkpt>
      <trkpt lat="25.4542660" lon="-100.8336730">
        <ele>1694.6</ele>
        <time>2022-08-20T13:12:16Z</time>
      </trkpt>
      <trkpt lat="25.4543020" lon="-100.8336520">
        <ele>1694.7</ele>
        <time>2022-08-20T13:12:17Z</time>
      </trkpt>
      <trkpt lat="25.4543070" lon="-100.8336380">
        <ele>1694.8</ele>
        <time>2022-08-20T13:12:18Z</time>
      </trkpt>
      <trkpt lat="25.4543090" lon="-100.8336390">
        <ele>1694.8</ele>
        <time>2022-08-20T13:12:19Z</time>
      </trkpt>
      <trkpt lat="25.4543400" lon="-100.8336210">
        <ele>1694.9</ele>
        <time>2022-08-20T13:12:21Z</time>
      </trkpt>
      <trkpt lat="25.4544130" lon="-100.8335720">
        <ele>1695.0</ele>
        <time>2022-08-20T13:12:22Z</time>
      </trkpt>
      <trkpt lat="25.4544680" lon="-100.8335340">
        <ele>1695.1</ele>
        <time>2022-08-20T13:12:23Z</time>
      </trkpt>
      <trkpt lat="25.4545270" lon="-100.8334940">
        <ele>1695.2</ele>
        <time>2022-08-20T13:12:24Z</time>
      </trkpt>
      <trkpt lat="25.4545840" lon="-100.8334570">
        <ele>1695.3</ele>
        <time>2022-08-20T13:12:25Z</time>
      </trkpt>
      <trkpt lat="25.4546270" lon="-100.8334320">
        <ele>1695.3</ele>
        <time>2022-08-20T13:12:27Z</time>
      </trkpt>
      <trkpt lat="25.4546650" lon="-100.8334080">
        <ele>1695.3</ele>
        <time>2022-08-20T13:12:28Z</time>
      </trkpt>
      <trkpt lat="25.4547120" lon="-100.8333760">
        <ele>1695.4</ele>
        <time>2022-08-20T13:12:29Z</time>
      </trkpt>
      <trkpt lat="25.4547660" lon="-100.8333360">
        <ele>1695.5</ele>
        <time>2022-08-20T13:12:30Z</time>
      </trkpt>
      <trkpt lat="25.4547930" lon="-100.8333040">
        <ele>1695.5</ele>
        <time>2022-08-20T13:12:32Z</time>
      </trkpt>
      <trkpt lat="25.4548180" lon="-100.8332880">
        <ele>1695.5</ele>
        <time>2022-08-20T13:12:33Z</time>
      </trkpt>
      <trkpt lat="25.4548910" lon="-100.8332470">
        <ele>1695.6</ele>
        <time>2022-08-20T13:12:34Z</time>
      </trkpt>
      <trkpt lat="25.4549300" lon="-100.8332190">
        <ele>1695.6</ele>
        <time>2022-08-20T13:12:35Z</time>
      </trkpt>
      <trkpt lat="25.4549620" lon="-100.8331890">
        <ele>1695.6</ele>
        <time>2022-08-20T13:12:36Z</time>
      </trkpt>
      <trkpt lat="25.4550050" lon="-100.8331470">
        <ele>1695.6</ele>
        <time>2022-08-20T13:12:37Z</time>
      </trkpt>
      <trkpt lat="25.4550330" lon="-100.8331300">
        <ele>1695.6</ele>
        <time>2022-08-20T13:12:38Z</time>
      </trkpt>
      <trkpt lat="25.4550750" lon="-100.8330900">
        <ele>1695.7</ele>
        <time>2022-08-20T13:12:39Z</time>
      </trkpt>
      <trkpt lat="25.4551110" lon="-100.8330540">
        <ele>1695.7</ele>
        <time>2022-08-20T13:12:40Z</time>
      </trkpt>
      <trkpt lat="25.4551450" lon="-100.8330190">
        <ele>1695.7</ele>
        <time>2022-08-20T13:12:41Z</time>
      </trkpt>
      <trkpt lat="25.4551790" lon="-100.8329860">
        <ele>1695.7</ele>
        <time>2022-08-20T13:12:42Z</time>
      </trkpt>
      <trkpt lat="25.4551990" lon="-100.8329580">
        <ele>1695.7</ele>
        <time>2022-08-20T13:12:43Z</time>
      </trkpt>
      <trkpt lat="25.4552090" lon="-100.8329430">
        <ele>1695.7</ele>
        <time>2022-08-20T13:12:44Z</time>
      </trkpt>
      <trkpt lat="25.4552270" lon="-100.8329340">
        <ele>1695.7</ele>
        <time>2022-08-20T13:12:45Z</time>
      </trkpt>
      <trkpt lat="25.4552460" lon="-100.8329250">
        <ele>1695.8</ele>
        <time>2022-08-20T13:12:46Z</time>
      </trkpt>
      <trkpt lat="25.4553000" lon="-100.8328830">
        <ele>1695.7</ele>
        <time>2022-08-20T13:12:48Z</time>
      </trkpt>
      <trkpt lat="25.4554470" lon="-100.8327570">
        <ele>1695.7</ele>
        <time>2022-08-20T13:12:49Z</time>
      </trkpt>
      <trkpt lat="25.4554700" lon="-100.8327380">
        <ele>1695.6</ele>
        <time>2022-08-20T13:12:50Z</time>
      </trkpt>
      <trkpt lat="25.4555110" lon="-100.8327040">
        <ele>1695.6</ele>
        <time>2022-08-20T13:12:51Z</time>
      </trkpt>
      <trkpt lat="25.4555490" lon="-100.8326740">
        <ele>1695.6</ele>
        <time>2022-08-20T13:12:52Z</time>
      </trkpt>
      <trkpt lat="25.4555860" lon="-100.8326430">
        <ele>1695.5</ele>
        <time>2022-08-20T13:12:53Z</time>
      </trkpt>
      <trkpt lat="25.4556230" lon="-100.8326120">
        <ele>1695.3</ele>
        <time>2022-08-20T13:12:54Z</time>
      </trkpt>
      <trkpt lat="25.4556610" lon="-100.8325790">
        <ele>1695.1</ele>
        <time>2022-08-20T13:12:55Z</time>
      </trkpt>
      <trkpt lat="25.4556990" lon="-100.8325450">
        <ele>1694.9</ele>
        <time>2022-08-20T13:12:56Z</time>
      </trkpt>
      <trkpt lat="25.4557390" lon="-100.8325050">
        <ele>1694.7</ele>
        <time>2022-08-20T13:12:57Z</time>
      </trkpt>
      <trkpt lat="25.4557830" lon="-100.8324640">
        <ele>1694.4</ele>
        <time>2022-08-20T13:12:58Z</time>
      </trkpt>
      <trkpt lat="25.4558310" lon="-100.8324200">
        <ele>1694.1</ele>
        <time>2022-08-20T13:12:59Z</time>
      </trkpt>
      <trkpt lat="25.4558840" lon="-100.8323740">
        <ele>1693.8</ele>
        <time>2022-08-20T13:13:00Z</time>
      </trkpt>
      <trkpt lat="25.4559390" lon="-100.8323270">
        <ele>1693.5</ele>
        <time>2022-08-20T13:13:01Z</time>
      </trkpt>
      <trkpt lat="25.4559970" lon="-100.8322780">
        <ele>1693.2</ele>
        <time>2022-08-20T13:13:02Z</time>
      </trkpt>
      <trkpt lat="25.4560550" lon="-100.8322280">
        <ele>1692.9</ele>
        <time>2022-08-20T13:13:03Z</time>
      </trkpt>
      <trkpt lat="25.4561150" lon="-100.8321760">
        <ele>1692.6</ele>
        <time>2022-08-20T13:13:04Z</time>
      </trkpt>
      <trkpt lat="25.4561760" lon="-100.8321230">
        <ele>1692.3</ele>
        <time>2022-08-20T13:13:05Z</time>
      </trkpt>
      <trkpt lat="25.4562390" lon="-100.8320690">
        <ele>1692.0</ele>
        <time>2022-08-20T13:13:06Z</time>
      </trkpt>
      <trkpt lat="25.4563010" lon="-100.8320140">
        <ele>1691.8</ele>
        <time>2022-08-20T13:13:07Z</time>
      </trkpt>
      <trkpt lat="25.4563620" lon="-100.8319590">
        <ele>1691.6</ele>
        <time>2022-08-20T13:13:08Z</time>
      </trkpt>
      <trkpt lat="25.4564210" lon="-100.8319060">
        <ele>1691.5</ele>
        <time>2022-08-20T13:13:09Z</time>
      </trkpt>
      <trkpt lat="25.4564800" lon="-100.8318560">
        <ele>1691.4</ele>
        <time>2022-08-20T13:13:10Z</time>
      </trkpt>
      <trkpt lat="25.4565350" lon="-100.8318050">
        <ele>1691.3</ele>
        <time>2022-08-20T13:13:11Z</time>
      </trkpt>
      <trkpt lat="25.4565880" lon="-100.8317550">
        <ele>1691.2</ele>
        <time>2022-08-20T13:13:12Z</time>
      </trkpt>
      <trkpt lat="25.4566370" lon="-100.8317080">
        <ele>1691.1</ele>
        <time>2022-08-20T13:13:13Z</time>
      </trkpt>
      <trkpt lat="25.4566880" lon="-100.8316670">
        <ele>1691.1</ele>
        <time>2022-08-20T13:13:14Z</time>
      </trkpt>
      <trkpt lat="25.4567350" lon="-100.8316250">
        <ele>1691.0</ele>
        <time>2022-08-20T13:13:15Z</time>
      </trkpt>
      <trkpt lat="25.4567820" lon="-100.8315900">
        <ele>1690.9</ele>
        <time>2022-08-20T13:13:16Z</time>
      </trkpt>
      <trkpt lat="25.4568420" lon="-100.8315630">
        <ele>1690.8</ele>
        <time>2022-08-20T13:13:17Z</time>
      </trkpt>
      <trkpt lat="25.4569100" lon="-100.8315340">
        <ele>1690.8</ele>
        <time>2022-08-20T13:13:18Z</time>
      </trkpt>
      <trkpt lat="25.4569700" lon="-100.8315020">
        <ele>1690.7</ele>
        <time>2022-08-20T13:13:19Z</time>
      </trkpt>
      <trkpt lat="25.4570190" lon="-100.8314570">
        <ele>1690.6</ele>
        <time>2022-08-20T13:13:20Z</time>
      </trkpt>
      <trkpt lat="25.4570680" lon="-100.8314010">
        <ele>1690.5</ele>
        <time>2022-08-20T13:13:21Z</time>
      </trkpt>
      <trkpt lat="25.4571160" lon="-100.8313440">
        <ele>1690.5</ele>
        <time>2022-08-20T13:13:22Z</time>
      </trkpt>
      <trkpt lat="25.4571620" lon="-100.8312930">
        <ele>1690.4</ele>
        <time>2022-08-20T13:13:23Z</time>
      </trkpt>
      <trkpt lat="25.4572080" lon="-100.8312450">
        <ele>1690.3</ele>
        <time>2022-08-20T13:13:24Z</time>
      </trkpt>
      <trkpt lat="25.4572510" lon="-100.8312010">
        <ele>1690.3</ele>
        <time>2022-08-20T13:13:25Z</time>
      </trkpt>
      <trkpt lat="25.4572960" lon="-100.8311570">
        <ele>1690.2</ele>
        <time>2022-08-20T13:13:26Z</time>
      </trkpt>
      <trkpt lat="25.4573410" lon="-100.8311150">
        <ele>1690.2</ele>
        <time>2022-08-20T13:13:27Z</time>
      </trkpt>
      <trkpt lat="25.4573890" lon="-100.8310750">
        <ele>1690.2</ele>
        <time>2022-08-20T13:13:28Z</time>
      </trkpt>
      <trkpt lat="25.4574380" lon="-100.8310350">
        <ele>1690.1</ele>
        <time>2022-08-20T13:13:29Z</time>
      </trkpt>
      <trkpt lat="25.4574880" lon="-100.8309930">
        <ele>1690.1</ele>
        <time>2022-08-20T13:13:30Z</time>
      </trkpt>
      <trkpt lat="25.4575380" lon="-100.8309510">
        <ele>1690.0</ele>
        <time>2022-08-20T13:13:31Z</time>
      </trkpt>
      <trkpt lat="25.4575860" lon="-100.8309080">
        <ele>1690.0</ele>
        <time>2022-08-20T13:13:32Z</time>
      </trkpt>
      <trkpt lat="25.4576280" lon="-100.8308620">
        <ele>1689.9</ele>
        <time>2022-08-20T13:13:33Z</time>
      </trkpt>
      <trkpt lat="25.4576660" lon="-100.8308120">
        <ele>1689.8</ele>
        <time>2022-08-20T13:13:34Z</time>
      </trkpt>
      <trkpt lat="25.4576990" lon="-100.8307570">
        <ele>1689.8</ele>
        <time>2022-08-20T13:13:35Z</time>
      </trkpt>
      <trkpt lat="25.4577270" lon="-100.8307010">
        <ele>1689.7</ele>
        <time>2022-08-20T13:13:36Z</time>
      </trkpt>
      <trkpt lat="25.4577520" lon="-100.8306440">
        <ele>1689.6</ele>
        <time>2022-08-20T13:13:37Z</time>
      </trkpt>
      <trkpt lat="25.4577780" lon="-100.8305890">
        <ele>1689.6</ele>
        <time>2022-08-20T13:13:38Z</time>
      </trkpt>
      <trkpt lat="25.4578060" lon="-100.8305340">
        <ele>1689.5</ele>
        <time>2022-08-20T13:13:39Z</time>
      </trkpt>
      <trkpt lat="25.4578360" lon="-100.8304800">
        <ele>1689.5</ele>
        <time>2022-08-20T13:13:40Z</time>
      </trkpt>
      <trkpt lat="25.4578700" lon="-100.8304260">
        <ele>1689.5</ele>
        <time>2022-08-20T13:13:41Z</time>
      </trkpt>
      <trkpt lat="25.4579090" lon="-100.8303740">
        <ele>1689.5</ele>
        <time>2022-08-20T13:13:42Z</time>
      </trkpt>
      <trkpt lat="25.4579510" lon="-100.8303260">
        <ele>1689.6</ele>
        <time>2022-08-20T13:13:43Z</time>
      </trkpt>
      <trkpt lat="25.4579940" lon="-100.8302810">
        <ele>1689.6</ele>
        <time>2022-08-20T13:13:44Z</time>
      </trkpt>
      <trkpt lat="25.4580350" lon="-100.8302360">
        <ele>1689.7</ele>
        <time>2022-08-20T13:13:45Z</time>
      </trkpt>
      <trkpt lat="25.4580750" lon="-100.8301910">
        <ele>1689.8</ele>
        <time>2022-08-20T13:13:46Z</time>
      </trkpt>
      <trkpt lat="25.4581130" lon="-100.8301470">
        <ele>1689.9</ele>
        <time>2022-08-20T13:13:47Z</time>
      </trkpt>
      <trkpt lat="25.4581520" lon="-100.8301050">
        <ele>1690.0</ele>
        <time>2022-08-20T13:13:48Z</time>
      </trkpt>
      <trkpt lat="25.4581900" lon="-100.8300640">
        <ele>1690.1</ele>
        <time>2022-08-20T13:13:49Z</time>
      </trkpt>
      <trkpt lat="25.4582270" lon="-100.8300240">
        <ele>1690.2</ele>
        <time>2022-08-20T13:13:50Z</time>
      </trkpt>
      <trkpt lat="25.4582640" lon="-100.8299850">
        <ele>1690.2</ele>
        <time>2022-08-20T13:13:51Z</time>
      </trkpt>
      <trkpt lat="25.4582980" lon="-100.8299460">
        <ele>1690.3</ele>
        <time>2022-08-20T13:13:52Z</time>
      </trkpt>
      <trkpt lat="25.4583320" lon="-100.8299080">
        <ele>1690.4</ele>
        <time>2022-08-20T13:13:53Z</time>
      </trkpt>
      <trkpt lat="25.4583670" lon="-100.8298730">
        <ele>1690.5</ele>
        <time>2022-08-20T13:13:54Z</time>
      </trkpt>
      <trkpt lat="25.4584040" lon="-100.8298350">
        <ele>1690.6</ele>
        <time>2022-08-20T13:13:55Z</time>
      </trkpt>
      <trkpt lat="25.4584410" lon="-100.8297940">
        <ele>1690.6</ele>
        <time>2022-08-20T13:13:56Z</time>
      </trkpt>
      <trkpt lat="25.4584770" lon="-100.8297540">
        <ele>1690.7</ele>
        <time>2022-08-20T13:13:57Z</time>
      </trkpt>
      <trkpt lat="25.4585130" lon="-100.8297130">
        <ele>1690.9</ele>
        <time>2022-08-20T13:13:58Z</time>
      </trkpt>
      <trkpt lat="25.4585500" lon="-100.8296700">
        <ele>1691.0</ele>
        <time>2022-08-20T13:13:59Z</time>
      </trkpt>
      <trkpt lat="25.4585870" lon="-100.8296290">
        <ele>1691.1</ele>
        <time>2022-08-20T13:14:00Z</time>
      </trkpt>
      <trkpt lat="25.4586220" lon="-100.8295890">
        <ele>1691.3</ele>
        <time>2022-08-20T13:14:01Z</time>
      </trkpt>
      <trkpt lat="25.4586550" lon="-100.8295480">
        <ele>1691.5</ele>
        <time>2022-08-20T13:14:02Z</time>
      </trkpt>
      <trkpt lat="25.4586850" lon="-100.8295080">
        <ele>1691.7</ele>
        <time>2022-08-20T13:14:03Z</time>
      </trkpt>
      <trkpt lat="25.4587160" lon="-100.8294670">
        <ele>1691.9</ele>
        <time>2022-08-20T13:14:04Z</time>
      </trkpt>
      <trkpt lat="25.4587690" lon="-100.8293990">
        <ele>1692.2</ele>
        <time>2022-08-20T13:14:06Z</time>
      </trkpt>
      <trkpt lat="25.4587970" lon="-100.8293620">
        <ele>1692.4</ele>
        <time>2022-08-20T13:14:07Z</time>
      </trkpt>
      <trkpt lat="25.4588260" lon="-100.8293290">
        <ele>1692.6</ele>
        <time>2022-08-20T13:14:08Z</time>
      </trkpt>
      <trkpt lat="25.4588550" lon="-100.8292970">
        <ele>1692.9</ele>
        <time>2022-08-20T13:14:09Z</time>
      </trkpt>
      <trkpt lat="25.4588790" lon="-100.8292680">
        <ele>1693.0</ele>
        <time>2022-08-20T13:14:10Z</time>
      </trkpt>
      <trkpt lat="25.4589060" lon="-100.8292320">
        <ele>1693.3</ele>
        <time>2022-08-20T13:14:11Z</time>
      </trkpt>
      <trkpt lat="25.4589260" lon="-100.8292030">
        <ele>1693.5</ele>
        <time>2022-08-20T13:14:12Z</time>
      </trkpt>
      <trkpt lat="25.4589620" lon="-100.8291590">
        <ele>1693.8</ele>
        <time>2022-08-20T13:14:13Z</time>
      </trkpt>
      <trkpt lat="25.4589990" lon="-100.8291160">
        <ele>1694.1</ele>
        <time>2022-08-20T13:14:14Z</time>
      </trkpt>
      <trkpt lat="25.4590340" lon="-100.8290810">
        <ele>1694.4</ele>
        <time>2022-08-20T13:14:15Z</time>
      </trkpt>
      <trkpt lat="25.4590510" lon="-100.8290420">
        <ele>1694.6</ele>
        <time>2022-08-20T13:14:16Z</time>
      </trkpt>
      <trkpt lat="25.4590570" lon="-100.8290040">
        <ele>1694.8</ele>
        <time>2022-08-20T13:14:17Z</time>
      </trkpt>
      <trkpt lat="25.4590820" lon="-100.8289720">
        <ele>1695.0</ele>
        <time>2022-08-20T13:14:18Z</time>
      </trkpt>
      <trkpt lat="25.4591220" lon="-100.8289340">
        <ele>1695.4</ele>
        <time>2022-08-20T13:14:19Z</time>
      </trkpt>
      <trkpt lat="25.4591570" lon="-100.8289050">
        <ele>1695.7</ele>
        <time>2022-08-20T13:14:20Z</time>
      </trkpt>
      <trkpt lat="25.4591930" lon="-100.8288740">
        <ele>1696.0</ele>
        <time>2022-08-20T13:14:21Z</time>
      </trkpt>
      <trkpt lat="25.4592310" lon="-100.8288450">
        <ele>1696.4</ele>
        <time>2022-08-20T13:14:22Z</time>
      </trkpt>
      <trkpt lat="25.4592650" lon="-100.8288140">
        <ele>1696.7</ele>
        <time>2022-08-20T13:14:23Z</time>
      </trkpt>
      <trkpt lat="25.4592960" lon="-100.8287860">
        <ele>1697.0</ele>
        <time>2022-08-20T13:14:24Z</time>
      </trkpt>
      <trkpt lat="25.4593580" lon="-100.8287380">
        <ele>1697.6</ele>
        <time>2022-08-20T13:14:25Z</time>
      </trkpt>
      <trkpt lat="25.4593910" lon="-100.8287220">
        <ele>1697.8</ele>
        <time>2022-08-20T13:14:27Z</time>
      </trkpt>
      <trkpt lat="25.4594370" lon="-100.8286970">
        <ele>1698.2</ele>
        <time>2022-08-20T13:14:28Z</time>
      </trkpt>
      <trkpt lat="25.4594690" lon="-100.8286710">
        <ele>1698.5</ele>
        <time>2022-08-20T13:14:30Z</time>
      </trkpt>
      <trkpt lat="25.4595000" lon="-100.8286320">
        <ele>1698.9</ele>
        <time>2022-08-20T13:14:31Z</time>
      </trkpt>
      <trkpt lat="25.4595320" lon="-100.8285880">
        <ele>1699.3</ele>
        <time>2022-08-20T13:14:32Z</time>
      </trkpt>
      <trkpt lat="25.4595650" lon="-100.8285450">
        <ele>1699.7</ele>
        <time>2022-08-20T13:14:33Z</time>
      </trkpt>
      <trkpt lat="25.4595910" lon="-100.8285110">
        <ele>1700.0</ele>
        <time>2022-08-20T13:14:34Z</time>
      </trkpt>
      <trkpt lat="25.4596180" lon="-100.8284720">
        <ele>1700.3</ele>
        <time>2022-08-20T13:14:35Z</time>
      </trkpt>
      <trkpt lat="25.4596590" lon="-100.8284190">
        <ele>1700.6</ele>
        <time>2022-08-20T13:14:37Z</time>
      </trkpt>
      <trkpt lat="25.4596910" lon="-100.8283830">
        <ele>1700.9</ele>
        <time>2022-08-20T13:14:38Z</time>
      </trkpt>
      <trkpt lat="25.4597350" lon="-100.8283310">
        <ele>1701.2</ele>
        <time>2022-08-20T13:14:39Z</time>
      </trkpt>
      <trkpt lat="25.4597780" lon="-100.8282830">
        <ele>1701.4</ele>
        <time>2022-08-20T13:14:41Z</time>
      </trkpt>
      <trkpt lat="25.4598160" lon="-100.8282490">
        <ele>1701.6</ele>
        <time>2022-08-20T13:14:42Z</time>
      </trkpt>
      <trkpt lat="25.4598580" lon="-100.8282100">
        <ele>1701.8</ele>
        <time>2022-08-20T13:14:43Z</time>
      </trkpt>
      <trkpt lat="25.4598860" lon="-100.8281800">
        <ele>1702.0</ele>
        <time>2022-08-20T13:14:44Z</time>
      </trkpt>
      <trkpt lat="25.4599180" lon="-100.8281410">
        <ele>1702.1</ele>
        <time>2022-08-20T13:14:45Z</time>
      </trkpt>
      <trkpt lat="25.4599460" lon="-100.8281120">
        <ele>1702.2</ele>
        <time>2022-08-20T13:14:46Z</time>
      </trkpt>
      <trkpt lat="25.4599840" lon="-100.8280730">
        <ele>1702.3</ele>
        <time>2022-08-20T13:14:47Z</time>
      </trkpt>
      <trkpt lat="25.4600170" lon="-100.8280370">
        <ele>1702.3</ele>
        <time>2022-08-20T13:14:49Z</time>
      </trkpt>
      <trkpt lat="25.4600480" lon="-100.8280030">
        <ele>1702.4</ele>
        <time>2022-08-20T13:14:50Z</time>
      </trkpt>
      <trkpt lat="25.4600680" lon="-100.8279830">
        <ele>1702.4</ele>
        <time>2022-08-20T13:14:51Z</time>
      </trkpt>
      <trkpt lat="25.4600760" lon="-100.8279730">
        <ele>1702.4</ele>
        <time>2022-08-20T13:14:52Z</time>
      </trkpt>
      <trkpt lat="25.4600950" lon="-100.8279500">
        <ele>1702.4</ele>
        <time>2022-08-20T13:14:54Z</time>
      </trkpt>
      <trkpt lat="25.4600980" lon="-100.8279390">
        <ele>1702.3</ele>
        <time>2022-08-20T13:14:55Z</time>
      </trkpt>
      <trkpt lat="25.4601940" lon="-100.8278480">
        <ele>1702.2</ele>
        <time>2022-08-20T13:14:57Z</time>
      </trkpt>
      <trkpt lat="25.4602610" lon="-100.8277830">
        <ele>1702.1</ele>
        <time>2022-08-20T13:14:58Z</time>
      </trkpt>
      <trkpt lat="25.4603190" lon="-100.8277240">
        <ele>1702.0</ele>
        <time>2022-08-20T13:14:59Z</time>
      </trkpt>
      <trkpt lat="25.4603710" lon="-100.8276710">
        <ele>1701.8</ele>
        <time>2022-08-20T13:15:00Z</time>
      </trkpt>
      <trkpt lat="25.4604230" lon="-100.8276110">
        <ele>1701.7</ele>
        <time>2022-08-20T13:15:01Z</time>
      </trkpt>
      <trkpt lat="25.4604690" lon="-100.8275570">
        <ele>1701.5</ele>
        <time>2022-08-20T13:15:02Z</time>
      </trkpt>
      <trkpt lat="25.4605150" lon="-100.8275070">
        <ele>1701.4</ele>
        <time>2022-08-20T13:15:03Z</time>
      </trkpt>
      <trkpt lat="25.4605600" lon="-100.8274580">
        <ele>1701.2</ele>
        <time>2022-08-20T13:15:04Z</time>
      </trkpt>
      <trkpt lat="25.4606050" lon="-100.8274100">
        <ele>1701.1</ele>
        <time>2022-08-20T13:15:05Z</time>
      </trkpt>
      <trkpt lat="25.4606470" lon="-100.8273620">
        <ele>1701.0</ele>
        <time>2022-08-20T13:15:06Z</time>
      </trkpt>
      <trkpt lat="25.4606880" lon="-100.8273160">
        <ele>1701.0</ele>
        <time>2022-08-20T13:15:07Z</time>
      </trkpt>
      <trkpt lat="25.4607280" lon="-100.8272690">
        <ele>1701.0</ele>
        <time>2022-08-20T13:15:08Z</time>
      </trkpt>
      <trkpt lat="25.4607680" lon="-100.8272240">
        <ele>1701.0</ele>
        <time>2022-08-20T13:15:09Z</time>
      </trkpt>
      <trkpt lat="25.4608060" lon="-100.8271780">
        <ele>1701.1</ele>
        <time>2022-08-20T13:15:10Z</time>
      </trkpt>
      <trkpt lat="25.4608430" lon="-100.8271340">
        <ele>1701.2</ele>
        <time>2022-08-20T13:15:11Z</time>
      </trkpt>
      <trkpt lat="25.4608820" lon="-100.8270890">
        <ele>1701.3</ele>
        <time>2022-08-20T13:15:12Z</time>
      </trkpt>
      <trkpt lat="25.4609200" lon="-100.8270460">
        <ele>1701.4</ele>
        <time>2022-08-20T13:15:13Z</time>
      </trkpt>
      <trkpt lat="25.4609560" lon="-100.8270060">
        <ele>1701.6</ele>
        <time>2022-08-20T13:15:14Z</time>
      </trkpt>
      <trkpt lat="25.4609900" lon="-100.8269680">
        <ele>1701.8</ele>
        <time>2022-08-20T13:15:15Z</time>
      </trkpt>
      <trkpt lat="25.4610220" lon="-100.8269320">
        <ele>1702.1</ele>
        <time>2022-08-20T13:15:16Z</time>
      </trkpt>
      <trkpt lat="25.4610420" lon="-100.8269100">
        <ele>1702.2</ele>
        <time>2022-08-20T13:15:17Z</time>
      </trkpt>
      <trkpt lat="25.4610700" lon="-100.8268820">
        <ele>1702.4</ele>
        <time>2022-08-20T13:15:18Z</time>
      </trkpt>
      <trkpt lat="25.4610970" lon="-100.8268540">
        <ele>1702.6</ele>
        <time>2022-08-20T13:15:19Z</time>
      </trkpt>
      <trkpt lat="25.4611280" lon="-100.8268220">
        <ele>1702.9</ele>
        <time>2022-08-20T13:15:20Z</time>
      </trkpt>
      <trkpt lat="25.4611600" lon="-100.8267880">
        <ele>1703.1</ele>
        <time>2022-08-20T13:15:21Z</time>
      </trkpt>
      <trkpt lat="25.4611830" lon="-100.8267640">
        <ele>1703.3</ele>
        <time>2022-08-20T13:15:22Z</time>
      </trkpt>
      <trkpt lat="25.4612290" lon="-100.8267070">
        <ele>1703.7</ele>
        <time>2022-08-20T13:15:23Z</time>
      </trkpt>
      <trkpt lat="25.4612600" lon="-100.8266810">
        <ele>1703.9</ele>
        <time>2022-08-20T13:15:24Z</time>
      </trkpt>
      <trkpt lat="25.4612800" lon="-100.8266600">
        <ele>1704.1</ele>
        <time>2022-08-20T13:15:25Z</time>
      </trkpt>
      <trkpt lat="25.4613180" lon="-100.8266200">
        <ele>1704.4</ele>
        <time>2022-08-20T13:15:27Z</time>
      </trkpt>
      <trkpt lat="25.4613540" lon="-100.8265890">
        <ele>1704.7</ele>
        <time>2022-08-20T13:15:28Z</time>
      </trkpt>
      <trkpt lat="25.4613860" lon="-100.8265580">
        <ele>1704.9</ele>
        <time>2022-08-20T13:15:29Z</time>
      </trkpt>
      <trkpt lat="25.4614150" lon="-100.8265300">
        <ele>1705.1</ele>
        <time>2022-08-20T13:15:30Z</time>
      </trkpt>
      <trkpt lat="25.4614620" lon="-100.8264800">
        <ele>1705.5</ele>
        <time>2022-08-20T13:15:31Z</time>
      </trkpt>
      <trkpt lat="25.4614980" lon="-100.8264450">
        <ele>1705.8</ele>
        <time>2022-08-20T13:15:32Z</time>
      </trkpt>
      <trkpt lat="25.4615280" lon="-100.8264110">
        <ele>1706.0</ele>
        <time>2022-08-20T13:15:34Z</time>
      </trkpt>
      <trkpt lat="25.4615580" lon="-100.8263760">
        <ele>1706.3</ele>
        <time>2022-08-20T13:15:35Z</time>
      </trkpt>
      <trkpt lat="25.4615960" lon="-100.8263360">
        <ele>1706.5</ele>
        <time>2022-08-20T13:15:36Z</time>
      </trkpt>
      <trkpt lat="25.4616360" lon="-100.8262970">
        <ele>1706.8</ele>
        <time>2022-08-20T13:15:38Z</time>
      </trkpt>
      <trkpt lat="25.4616750" lon="-100.8262600">
        <ele>1707.0</ele>
        <time>2022-08-20T13:15:39Z</time>
      </trkpt>
      <trkpt lat="25.4616900" lon="-100.8262460">
        <ele>1707.0</ele>
        <time>2022-08-20T13:15:40Z</time>
      </trkpt>
      <trkpt lat="25.4616980" lon="-100.8262370">
        <ele>1707.1</ele>
        <time>2022-08-20T13:15:41Z</time>
      </trkpt>
      <trkpt lat="25.4617070" lon="-100.8262280">
        <ele>1707.1</ele>
        <time>2022-08-20T13:15:42Z</time>
      </trkpt>
      <trkpt lat="25.4617390" lon="-100.8261890">
        <ele>1707.3</ele>
        <time>2022-08-20T13:15:43Z</time>
      </trkpt>
      <trkpt lat="25.4618240" lon="-100.8260950">
        <ele>1707.6</ele>
        <time>2022-08-20T13:15:45Z</time>
      </trkpt>
      <trkpt lat="25.4618880" lon="-100.8260260">
        <ele>1707.8</ele>
        <time>2022-08-20T13:15:47Z</time>
      </trkpt>
      <trkpt lat="25.4619420" lon="-100.8259680">
        <ele>1708.0</ele>
        <time>2022-08-20T13:15:48Z</time>
      </trkpt>
      <trkpt lat="25.4619880" lon="-100.8259190">
        <ele>1708.1</ele>
        <time>2022-08-20T13:15:49Z</time>
      </trkpt>
      <trkpt lat="25.4620400" lon="-100.8258650">
        <ele>1708.3</ele>
        <time>2022-08-20T13:15:51Z</time>
      </trkpt>
      <trkpt lat="25.4620780" lon="-100.8258170">
        <ele>1708.4</ele>
        <time>2022-08-20T13:15:52Z</time>
      </trkpt>
      <trkpt lat="25.4621130" lon="-100.8257720">
        <ele>1708.5</ele>
        <time>2022-08-20T13:15:53Z</time>
      </trkpt>
      <trkpt lat="25.4621570" lon="-100.8257220">
        <ele>1708.6</ele>
        <time>2022-08-20T13:15:55Z</time>
      </trkpt>
      <trkpt lat="25.4622310" lon="-100.8256460">
        <ele>1708.8</ele>
        <time>2022-08-20T13:15:57Z</time>
      </trkpt>
      <trkpt lat="25.4622660" lon="-100.8256080">
        <ele>1708.9</ele>
        <time>2022-08-20T13:15:58Z</time>
      </trkpt>
      <trkpt lat="25.4623010" lon="-100.8255700">
        <ele>1709.0</ele>
        <time>2022-08-20T13:15:59Z</time>
      </trkpt>
      <trkpt lat="25.4623370" lon="-100.8255340">
        <ele>1709.1</ele>
        <time>2022-08-20T13:16:00Z</time>
      </trkpt>
      <trkpt lat="25.4623730" lon="-100.8254980">
        <ele>1709.2</ele>
        <time>2022-08-20T13:16:01Z</time>
      </trkpt>
      <trkpt lat="25.4624100" lon="-100.8254630">
        <ele>1709.3</ele>
        <time>2022-08-20T13:16:02Z</time>
      </trkpt>
      <trkpt lat="25.4624460" lon="-100.8254270">
        <ele>1709.4</ele>
        <time>2022-08-20T13:16:03Z</time>
      </trkpt>
      <trkpt lat="25.4624810" lon="-100.8253910">
        <ele>1709.5</ele>
        <time>2022-08-20T13:16:04Z</time>
      </trkpt>
      <trkpt lat="25.4625150" lon="-100.8253560">
        <ele>1709.6</ele>
        <time>2022-08-20T13:16:05Z</time>
      </trkpt>
      <trkpt lat="25.4625380" lon="-100.8253330">
        <ele>1709.7</ele>
        <time>2022-08-20T13:16:06Z</time>
      </trkpt>
      <trkpt lat="25.4625460" lon="-100.8253310">
        <ele>1709.7</ele>
        <time>2022-08-20T13:16:07Z</time>
      </trkpt>
      <trkpt lat="25.4625560" lon="-100.8253200">
        <ele>1709.8</ele>
        <time>2022-08-20T13:16:08Z</time>
      </trkpt>
      <trkpt lat="25.4625670" lon="-100.8253100">
        <ele>1709.8</ele>
        <time>2022-08-20T13:16:09Z</time>
      </trkpt>
      <trkpt lat="25.4626180" lon="-100.8252590">
        <ele>1710.0</ele>
        <time>2022-08-20T13:16:10Z</time>
      </trkpt>
      <trkpt lat="25.4626880" lon="-100.8251840">
        <ele>1710.3</ele>
        <time>2022-08-20T13:16:11Z</time>
      </trkpt>
      <trkpt lat="25.4627560" lon="-100.8251120">
        <ele>1710.7</ele>
        <time>2022-08-20T13:16:13Z</time>
      </trkpt>
      <trkpt lat="25.4628170" lon="-100.8250360">
        <ele>1711.1</ele>
        <time>2022-08-20T13:16:14Z</time>
      </trkpt>
      <trkpt lat="25.4628510" lon="-100.8249930">
        <ele>1711.3</ele>
        <time>2022-08-20T13:16:15Z</time>
      </trkpt>
      <trkpt lat="25.4628820" lon="-100.8249610">
        <ele>1711.5</ele>
        <time>2022-08-20T13:16:17Z</time>
      </trkpt>
      <trkpt lat="25.4629210" lon="-100.8249170">
        <ele>1711.8</ele>
        <time>2022-08-20T13:16:18Z</time>
      </trkpt>
      <trkpt lat="25.4629500" lon="-100.8248840">
        <ele>1712.1</ele>
        <time>2022-08-20T13:16:19Z</time>
      </trkpt>
      <trkpt lat="25.4629910" lon="-100.8248420">
        <ele>1712.4</ele>
        <time>2022-08-20T13:16:21Z</time>
      </trkpt>
      <trkpt lat="25.4630410" lon="-100.8247850">
        <ele>1712.8</ele>
        <time>2022-08-20T13:16:22Z</time>
      </trkpt>
      <trkpt lat="25.4630730" lon="-100.8247480">
        <ele>1713.0</ele>
        <time>2022-08-20T13:16:24Z</time>
      </trkpt>
      <trkpt lat="25.4630990" lon="-100.8247180">
        <ele>1713.2</ele>
        <time>2022-08-20T13:16:25Z</time>
      </trkpt>
      <trkpt lat="25.4631310" lon="-100.8246850">
        <ele>1713.4</ele>
        <time>2022-08-20T13:16:26Z</time>
      </trkpt>
      <trkpt lat="25.4631840" lon="-100.8246350">
        <ele>1713.7</ele>
        <time>2022-08-20T13:16:28Z</time>
      </trkpt>
      <trkpt lat="25.4632140" lon="-100.8246040">
        <ele>1713.9</ele>
        <time>2022-08-20T13:16:29Z</time>
      </trkpt>
      <trkpt lat="25.4632440" lon="-100.8245900">
        <ele>1714.0</ele>
        <time>2022-08-20T13:16:30Z</time>
      </trkpt>
      <trkpt lat="25.4632890" lon="-100.8245350">
        <ele>1714.3</ele>
        <time>2022-08-20T13:16:31Z</time>
      </trkpt>
      <trkpt lat="25.4633270" lon="-100.8244940">
        <ele>1714.5</ele>
        <time>2022-08-20T13:16:33Z</time>
      </trkpt>
      <trkpt lat="25.4633540" lon="-100.8244610">
        <ele>1714.6</ele>
        <time>2022-08-20T13:16:34Z</time>
      </trkpt>
      <trkpt lat="25.4633820" lon="-100.8244310">
        <ele>1714.8</ele>
        <time>2022-08-20T13:16:35Z</time>
      </trkpt>
      <trkpt lat="25.4634120" lon="-100.8244040">
        <ele>1714.9</ele>
        <time>2022-08-20T13:16:36Z</time>
      </trkpt>
      <trkpt lat="25.4634420" lon="-100.8243650">
        <ele>1715.1</ele>
        <time>2022-08-20T13:16:37Z</time>
      </trkpt>
      <trkpt lat="25.4634750" lon="-100.8243310">
        <ele>1715.3</ele>
        <time>2022-08-20T13:16:38Z</time>
      </trkpt>
      <trkpt lat="25.4635050" lon="-100.8243060">
        <ele>1715.4</ele>
        <time>2022-08-20T13:16:39Z</time>
      </trkpt>
      <trkpt lat="25.4635370" lon="-100.8242770">
        <ele>1715.6</ele>
        <time>2022-08-20T13:16:40Z</time>
      </trkpt>
      <trkpt lat="25.4635700" lon="-100.8242410">
        <ele>1715.8</ele>
        <time>2022-08-20T13:16:41Z</time>
      </trkpt>
      <trkpt lat="25.4636020" lon="-100.8242140">
        <ele>1716.0</ele>
        <time>2022-08-20T13:16:42Z</time>
      </trkpt>
      <trkpt lat="25.4636500" lon="-100.8241970">
        <ele>1716.2</ele>
        <time>2022-08-20T13:16:43Z</time>
      </trkpt>
      <trkpt lat="25.4636840" lon="-100.8241790">
        <ele>1716.4</ele>
        <time>2022-08-20T13:16:44Z</time>
      </trkpt>
      <trkpt lat="25.4637130" lon="-100.8241270">
        <ele>1716.6</ele>
        <time>2022-08-20T13:16:45Z</time>
      </trkpt>
      <trkpt lat="25.4637460" lon="-100.8240830">
        <ele>1716.9</ele>
        <time>2022-08-20T13:16:46Z</time>
      </trkpt>
      <trkpt lat="25.4637920" lon="-100.8240400">
        <ele>1717.1</ele>
        <time>2022-08-20T13:16:48Z</time>
      </trkpt>
      <trkpt lat="25.4638140" lon="-100.8240060">
        <ele>1717.3</ele>
        <time>2022-08-20T13:16:49Z</time>
      </trkpt>
      <trkpt lat="25.4638440" lon="-100.8239710">
        <ele>1717.5</ele>
        <time>2022-08-20T13:16:50Z</time>
      </trkpt>
      <trkpt lat="25.4638740" lon="-100.8239280">
        <ele>1717.7</ele>
        <time>2022-08-20T13:16:51Z</time>
      </trkpt>
      <trkpt lat="25.4639020" lon="-100.8238950">
        <ele>1717.9</ele>
        <time>2022-08-20T13:16:52Z</time>
      </trkpt>
      <trkpt lat="25.4639290" lon="-100.8238630">
        <ele>1718.0</ele>
        <time>2022-08-20T13:16:53Z</time>
      </trkpt>
      <trkpt lat="25.4639560" lon="-100.8238330">
        <ele>1718.1</ele>
        <time>2022-08-20T13:16:54Z</time>
      </trkpt>
      <trkpt lat="25.4639840" lon="-100.8238020">
        <ele>1718.3</ele>
        <time>2022-08-20T13:16:55Z</time>
      </trkpt>
      <trkpt lat="25.4640120" lon="-100.8237710">
        <ele>1718.4</ele>
        <time>2022-08-20T13:16:56Z</time>
      </trkpt>
      <trkpt lat="25.4640370" lon="-100.8237420">
        <ele>1718.5</ele>
        <time>2022-08-20T13:16:57Z</time>
      </trkpt>
      <trkpt lat="25.4640580" lon="-100.8237170">
        <ele>1718.6</ele>
        <time>2022-08-20T13:16:58Z</time>
      </trkpt>
      <trkpt lat="25.4640910" lon="-100.8236810">
        <ele>1718.7</ele>
        <time>2022-08-20T13:16:59Z</time>
      </trkpt>
      <trkpt lat="25.4641190" lon="-100.8236500">
        <ele>1718.9</ele>
        <time>2022-08-20T13:17:00Z</time>
      </trkpt>
      <trkpt lat="25.4641510" lon="-100.8236160">
        <ele>1719.0</ele>
        <time>2022-08-20T13:17:01Z</time>
      </trkpt>
      <trkpt lat="25.4641780" lon="-100.8235870">
        <ele>1719.1</ele>
        <time>2022-08-20T13:17:02Z</time>
      </trkpt>
      <trkpt lat="25.4642080" lon="-100.8235580">
        <ele>1719.2</ele>
        <time>2022-08-20T13:17:03Z</time>
      </trkpt>
      <trkpt lat="25.4642360" lon="-100.8235310">
        <ele>1719.3</ele>
        <time>2022-08-20T13:17:04Z</time>
      </trkpt>
      <trkpt lat="25.4642740" lon="-100.8234940">
        <ele>1719.4</ele>
        <time>2022-08-20T13:17:05Z</time>
      </trkpt>
      <trkpt lat="25.4643110" lon="-100.8234580">
        <ele>1719.5</ele>
        <time>2022-08-20T13:17:06Z</time>
      </trkpt>
      <trkpt lat="25.4643400" lon="-100.8234280">
        <ele>1719.6</ele>
        <time>2022-08-20T13:17:07Z</time>
      </trkpt>
      <trkpt lat="25.4643650" lon="-100.8234010">
        <ele>1719.6</ele>
        <time>2022-08-20T13:17:08Z</time>
      </trkpt>
      <trkpt lat="25.4643910" lon="-100.8233720">
        <ele>1719.7</ele>
        <time>2022-08-20T13:17:09Z</time>
      </trkpt>
      <trkpt lat="25.4644190" lon="-100.8233390">
        <ele>1719.7</ele>
        <time>2022-08-20T13:17:10Z</time>
      </trkpt>
      <trkpt lat="25.4644450" lon="-100.8233070">
        <ele>1719.7</ele>
        <time>2022-08-20T13:17:11Z</time>
      </trkpt>
      <trkpt lat="25.4644650" lon="-100.8232820">
        <ele>1719.7</ele>
        <time>2022-08-20T13:17:12Z</time>
      </trkpt>
      <trkpt lat="25.4644960" lon="-100.8232470">
        <ele>1719.7</ele>
        <time>2022-08-20T13:17:13Z</time>
      </trkpt>
      <trkpt lat="25.4645280" lon="-100.8232120">
        <ele>1719.7</ele>
        <time>2022-08-20T13:17:14Z</time>
      </trkpt>
      <trkpt lat="25.4645570" lon="-100.8231790">
        <ele>1719.7</ele>
        <time>2022-08-20T13:17:15Z</time>
      </trkpt>
      <trkpt lat="25.4645870" lon="-100.8231440">
        <ele>1719.7</ele>
        <time>2022-08-20T13:17:16Z</time>
      </trkpt>
      <trkpt lat="25.4646180" lon="-100.8231080">
        <ele>1719.6</ele>
        <time>2022-08-20T13:17:17Z</time>
      </trkpt>
      <trkpt lat="25.4646440" lon="-100.8230740">
        <ele>1719.6</ele>
        <time>2022-08-20T13:17:18Z</time>
      </trkpt>
      <trkpt lat="25.4646750" lon="-100.8230370">
        <ele>1719.6</ele>
        <time>2022-08-20T13:17:19Z</time>
      </trkpt>
      <trkpt lat="25.4647130" lon="-100.8229920">
        <ele>1719.6</ele>
        <time>2022-08-20T13:17:20Z</time>
      </trkpt>
      <trkpt lat="25.4647480" lon="-100.8229530">
        <ele>1719.6</ele>
        <time>2022-08-20T13:17:21Z</time>
      </trkpt>
      <trkpt lat="25.4647750" lon="-100.8229230">
        <ele>1719.6</ele>
        <time>2022-08-20T13:17:22Z</time>
      </trkpt>
      <trkpt lat="25.4648060" lon="-100.8228890">
        <ele>1719.6</ele>
        <time>2022-08-20T13:17:23Z</time>
      </trkpt>
      <trkpt lat="25.4648340" lon="-100.8228580">
        <ele>1719.6</ele>
        <time>2022-08-20T13:17:24Z</time>
      </trkpt>
      <trkpt lat="25.4648700" lon="-100.8228180">
        <ele>1719.6</ele>
        <time>2022-08-20T13:17:25Z</time>
      </trkpt>
      <trkpt lat="25.4649050" lon="-100.8227750">
        <ele>1719.6</ele>
        <time>2022-08-20T13:17:26Z</time>
      </trkpt>
      <trkpt lat="25.4649390" lon="-100.8227330">
        <ele>1719.6</ele>
        <time>2022-08-20T13:17:27Z</time>
      </trkpt>
      <trkpt lat="25.4649700" lon="-100.8226920">
        <ele>1719.7</ele>
        <time>2022-08-20T13:17:28Z</time>
      </trkpt>
      <trkpt lat="25.4650010" lon="-100.8226510">
        <ele>1719.7</ele>
        <time>2022-08-20T13:17:29Z</time>
      </trkpt>
      <trkpt lat="25.4650320" lon="-100.8226110">
        <ele>1719.8</ele>
        <time>2022-08-20T13:17:30Z</time>
      </trkpt>
      <trkpt lat="25.4650630" lon="-100.8225730">
        <ele>1719.8</ele>
        <time>2022-08-20T13:17:31Z</time>
      </trkpt>
      <trkpt lat="25.4650940" lon="-100.8225330">
        <ele>1719.9</ele>
        <time>2022-08-20T13:17:32Z</time>
      </trkpt>
      <trkpt lat="25.4651250" lon="-100.8224940">
        <ele>1720.0</ele>
        <time>2022-08-20T13:17:33Z</time>
      </trkpt>
      <trkpt lat="25.4651580" lon="-100.8224560">
        <ele>1720.1</ele>
        <time>2022-08-20T13:17:34Z</time>
      </trkpt>
      <trkpt lat="25.4651790" lon="-100.8224360">
        <ele>1720.1</ele>
        <time>2022-08-20T13:17:35Z</time>
      </trkpt>
      <trkpt lat="25.4652000" lon="-100.8224150">
        <ele>1720.2</ele>
        <time>2022-08-20T13:17:36Z</time>
      </trkpt>
      <trkpt lat="25.4652090" lon="-100.8224060">
        <ele>1720.2</ele>
        <time>2022-08-20T13:17:37Z</time>
      </trkpt>
      <trkpt lat="25.4652180" lon="-100.8223970">
        <ele>1720.3</ele>
        <time>2022-08-20T13:17:38Z</time>
      </trkpt>
      <trkpt lat="25.4652280" lon="-100.8223880">
        <ele>1720.3</ele>
        <time>2022-08-20T13:17:39Z</time>
      </trkpt>
      <trkpt lat="25.4652370" lon="-100.8223780">
        <ele>1720.3</ele>
        <time>2022-08-20T13:17:40Z</time>
      </trkpt>
      <trkpt lat="25.4653290" lon="-100.8222830">
        <ele>1720.7</ele>
        <time>2022-08-20T13:17:41Z</time>
      </trkpt>
      <trkpt lat="25.4653980" lon="-100.8222070">
        <ele>1721.0</ele>
        <time>2022-08-20T13:17:42Z</time>
      </trkpt>
      <trkpt lat="25.4654330" lon="-100.8221650">
        <ele>1721.1</ele>
        <time>2022-08-20T13:17:43Z</time>
      </trkpt>
      <trkpt lat="25.4654590" lon="-100.8221330">
        <ele>1721.2</ele>
        <time>2022-08-20T13:17:44Z</time>
      </trkpt>
      <trkpt lat="25.4654900" lon="-100.8220910">
        <ele>1721.4</ele>
        <time>2022-08-20T13:17:45Z</time>
      </trkpt>
      <trkpt lat="25.4655220" lon="-100.8220450">
        <ele>1721.5</ele>
        <time>2022-08-20T13:17:46Z</time>
      </trkpt>
      <trkpt lat="25.4655550" lon="-100.8219980">
        <ele>1721.7</ele>
        <time>2022-08-20T13:17:47Z</time>
      </trkpt>
      <trkpt lat="25.4655870" lon="-100.8219520">
        <ele>1721.9</ele>
        <time>2022-08-20T13:17:48Z</time>
      </trkpt>
      <trkpt lat="25.4656200" lon="-100.8219010">
        <ele>1722.1</ele>
        <time>2022-08-20T13:17:49Z</time>
      </trkpt>
      <trkpt lat="25.4656540" lon="-100.8218490">
        <ele>1722.3</ele>
        <time>2022-08-20T13:17:50Z</time>
      </trkpt>
      <trkpt lat="25.4656870" lon="-100.8217970">
        <ele>1722.5</ele>
        <time>2022-08-20T13:17:51Z</time>
      </trkpt>
      <trkpt lat="25.4657230" lon="-100.8217420">
        <ele>1722.7</ele>
        <time>2022-08-20T13:17:52Z</time>
      </trkpt>
      <trkpt lat="25.4657560" lon="-100.8216900">
        <ele>1722.9</ele>
        <time>2022-08-20T13:17:53Z</time>
      </trkpt>
      <trkpt lat="25.4657880" lon="-100.8216400">
        <ele>1723.1</ele>
        <time>2022-08-20T13:17:54Z</time>
      </trkpt>
      <trkpt lat="25.4658170" lon="-100.8215870">
        <ele>1723.3</ele>
        <time>2022-08-20T13:17:55Z</time>
      </trkpt>
      <trkpt lat="25.4658460" lon="-100.8215380">
        <ele>1723.5</ele>
        <time>2022-08-20T13:17:56Z</time>
      </trkpt>
      <trkpt lat="25.4658750" lon="-100.8214880">
        <ele>1723.8</ele>
        <time>2022-08-20T13:17:57Z</time>
      </trkpt>
      <trkpt lat="25.4659040" lon="-100.8214390">
        <ele>1723.9</ele>
        <time>2022-08-20T13:17:58Z</time>
      </trkpt>
      <trkpt lat="25.4659320" lon="-100.8213910">
        <ele>1724.1</ele>
        <time>2022-08-20T13:17:59Z</time>
      </trkpt>
      <trkpt lat="25.4659580" lon="-100.8213430">
        <ele>1724.3</ele>
        <time>2022-08-20T13:18:00Z</time>
      </trkpt>
      <trkpt lat="25.4659850" lon="-100.8212930">
        <ele>1724.5</ele>
        <time>2022-08-20T13:18:01Z</time>
      </trkpt>
      <trkpt lat="25.4660110" lon="-100.8212450">
        <ele>1724.6</ele>
        <time>2022-08-20T13:18:02Z</time>
      </trkpt>
      <trkpt lat="25.4660340" lon="-100.8212000">
        <ele>1724.8</ele>
        <time>2022-08-20T13:18:03Z</time>
      </trkpt>
      <trkpt lat="25.4660570" lon="-100.8211570">
        <ele>1724.9</ele>
        <time>2022-08-20T13:18:04Z</time>
      </trkpt>
      <trkpt lat="25.4660800" lon="-100.8211110">
        <ele>1725.0</ele>
        <time>2022-08-20T13:18:05Z</time>
      </trkpt>
      <trkpt lat="25.4661010" lon="-100.8210670">
        <ele>1725.1</ele>
        <time>2022-08-20T13:18:06Z</time>
      </trkpt>
      <trkpt lat="25.4661240" lon="-100.8210200">
        <ele>1725.2</ele>
        <time>2022-08-20T13:18:07Z</time>
      </trkpt>
      <trkpt lat="25.4661460" lon="-100.8209740">
        <ele>1725.4</ele>
        <time>2022-08-20T13:18:08Z</time>
      </trkpt>
      <trkpt lat="25.4661690" lon="-100.8209280">
        <ele>1725.4</ele>
        <time>2022-08-20T13:18:09Z</time>
      </trkpt>
      <trkpt lat="25.4661920" lon="-100.8208860">
        <ele>1725.5</ele>
        <time>2022-08-20T13:18:10Z</time>
      </trkpt>
      <trkpt lat="25.4662160" lon="-100.8208410">
        <ele>1725.6</ele>
        <time>2022-08-20T13:18:11Z</time>
      </trkpt>
      <trkpt lat="25.4662410" lon="-100.8207970">
        <ele>1725.6</ele>
        <time>2022-08-20T13:18:12Z</time>
      </trkpt>
      <trkpt lat="25.4662650" lon="-100.8207550">
        <ele>1725.7</ele>
        <time>2022-08-20T13:18:13Z</time>
      </trkpt>
      <trkpt lat="25.4662850" lon="-100.8207210">
        <ele>1725.7</ele>
        <time>2022-08-20T13:18:14Z</time>
      </trkpt>
      <trkpt lat="25.4663050" lon="-100.8206840">
        <ele>1725.8</ele>
        <time>2022-08-20T13:18:15Z</time>
      </trkpt>
      <trkpt lat="25.4663280" lon="-100.8206390">
        <ele>1725.8</ele>
        <time>2022-08-20T13:18:16Z</time>
      </trkpt>
      <trkpt lat="25.4663510" lon="-100.8205970">
        <ele>1725.9</ele>
        <time>2022-08-20T13:18:17Z</time>
      </trkpt>
      <trkpt lat="25.4663680" lon="-100.8205650">
        <ele>1725.9</ele>
        <time>2022-08-20T13:18:18Z</time>
      </trkpt>
      <trkpt lat="25.4663940" lon="-100.8205190">
        <ele>1726.0</ele>
        <time>2022-08-20T13:18:19Z</time>
      </trkpt>
      <trkpt lat="25.4664260" lon="-100.8204590">
        <ele>1726.1</ele>
        <time>2022-08-20T13:18:20Z</time>
      </trkpt>
      <trkpt lat="25.4664500" lon="-100.8204130">
        <ele>1726.2</ele>
        <time>2022-08-20T13:18:21Z</time>
      </trkpt>
      <trkpt lat="25.4664610" lon="-100.8203940">
        <ele>1726.3</ele>
        <time>2022-08-20T13:18:22Z</time>
      </trkpt>
      <trkpt lat="25.4664790" lon="-100.8203590">
        <ele>1726.3</ele>
        <time>2022-08-20T13:18:23Z</time>
      </trkpt>
      <trkpt lat="25.4664910" lon="-100.8203370">
        <ele>1726.4</ele>
        <time>2022-08-20T13:18:24Z</time>
      </trkpt>
      <trkpt lat="25.4664960" lon="-100.8203290">
        <ele>1726.4</ele>
        <time>2022-08-20T13:18:25Z</time>
      </trkpt>
      <trkpt lat="25.4665000" lon="-100.8203220">
        <ele>1726.4</ele>
        <time>2022-08-20T13:18:26Z</time>
      </trkpt>
      <trkpt lat="25.4665220" lon="-100.8202780">
        <ele>1726.5</ele>
        <time>2022-08-20T13:18:27Z</time>
      </trkpt>
      <trkpt lat="25.4666180" lon="-100.8201030">
        <ele>1726.8</ele>
        <time>2022-08-20T13:18:29Z</time>
      </trkpt>
      <trkpt lat="25.4666520" lon="-100.8200360">
        <ele>1726.9</ele>
        <time>2022-08-20T13:18:30Z</time>
      </trkpt>
      <trkpt lat="25.4666790" lon="-100.8199850">
        <ele>1726.9</ele>
        <time>2022-08-20T13:18:31Z</time>
      </trkpt>
      <trkpt lat="25.4667030" lon="-100.8199420">
        <ele>1727.0</ele>
        <time>2022-08-20T13:18:32Z</time>
      </trkpt>
      <trkpt lat="25.4667130" lon="-100.8199080">
        <ele>1727.1</ele>
        <time>2022-08-20T13:18:33Z</time>
      </trkpt>
      <trkpt lat="25.4667270" lon="-100.8198790">
        <ele>1727.1</ele>
        <time>2022-08-20T13:18:34Z</time>
      </trkpt>
      <trkpt lat="25.4667640" lon="-100.8198110">
        <ele>1727.3</ele>
        <time>2022-08-20T13:18:36Z</time>
      </trkpt>
      <trkpt lat="25.4667940" lon="-100.8197620">
        <ele>1727.4</ele>
        <time>2022-08-20T13:18:37Z</time>
      </trkpt>
      <trkpt lat="25.4668310" lon="-100.8196920">
        <ele>1727.5</ele>
        <time>2022-08-20T13:18:38Z</time>
      </trkpt>
      <trkpt lat="25.4668530" lon="-100.8196480">
        <ele>1727.6</ele>
        <time>2022-08-20T13:18:39Z</time>
      </trkpt>
      <trkpt lat="25.4668330" lon="-100.8196170">
        <ele>1727.7</ele>
        <time>2022-08-20T13:18:40Z</time>
      </trkpt>
      <trkpt lat="25.4668600" lon="-100.8195690">
        <ele>1727.9</ele>
        <time>2022-08-20T13:18:41Z</time>
      </trkpt>
      <trkpt lat="25.4669030" lon="-100.8195120">
        <ele>1728.1</ele>
        <time>2022-08-20T13:18:43Z</time>
      </trkpt>
      <trkpt lat="25.4669280" lon="-100.8194770">
        <ele>1728.2</ele>
        <time>2022-08-20T13:18:44Z</time>
      </trkpt>
      <trkpt lat="25.4669570" lon="-100.8194370">
        <ele>1728.4</ele>
        <time>2022-08-20T13:18:45Z</time>
      </trkpt>
      <trkpt lat="25.4669930" lon="-100.8193720">
        <ele>1728.6</ele>
        <time>2022-08-20T13:18:46Z</time>
      </trkpt>
      <trkpt lat="25.4670150" lon="-100.8193310">
        <ele>1728.8</ele>
        <time>2022-08-20T13:18:48Z</time>
      </trkpt>
      <trkpt lat="25.4670370" lon="-100.8192930">
        <ele>1729.0</ele>
        <time>2022-08-20T13:18:49Z</time>
      </trkpt>
      <trkpt lat="25.4670610" lon="-100.8192510">
        <ele>1729.2</ele>
        <time>2022-08-20T13:18:50Z</time>
      </trkpt>
      <trkpt lat="25.4670910" lon="-100.8191960">
        <ele>1729.5</ele>
        <time>2022-08-20T13:18:51Z</time>
      </trkpt>
      <trkpt lat="25.4671220" lon="-100.8191410">
        <ele>1729.8</ele>
        <time>2022-08-20T13:18:52Z</time>
      </trkpt>
      <trkpt lat="25.4671430" lon="-100.8191000">
        <ele>1730.1</ele>
        <time>2022-08-20T13:18:54Z</time>
      </trkpt>
      <trkpt lat="25.4671690" lon="-100.8190590">
        <ele>1730.3</ele>
        <time>2022-08-20T13:18:55Z</time>
      </trkpt>
      <trkpt lat="25.4671960" lon="-100.8190110">
        <ele>1730.7</ele>
        <time>2022-08-20T13:18:57Z</time>
      </trkpt>
      <trkpt lat="25.4672220" lon="-100.8189660">
        <ele>1730.9</ele>
        <time>2022-08-20T13:18:59Z</time>
      </trkpt>
      <trkpt lat="25.4672350" lon="-100.8189400">
        <ele>1731.1</ele>
        <time>2022-08-20T13:19:00Z</time>
      </trkpt>
      <trkpt lat="25.4672570" lon="-100.8189040">
        <ele>1731.4</ele>
        <time>2022-08-20T13:19:01Z</time>
      </trkpt>
      <trkpt lat="25.4672650" lon="-100.8188910">
        <ele>1731.5</ele>
        <time>2022-08-20T13:19:02Z</time>
      </trkpt>
      <trkpt lat="25.4672770" lon="-100.8188630">
        <ele>1731.6</ele>
        <time>2022-08-20T13:19:03Z</time>
      </trkpt>
      <trkpt lat="25.4672920" lon="-100.8188270">
        <ele>1731.9</ele>
        <time>2022-08-20T13:19:05Z</time>
      </trkpt>
      <trkpt lat="25.4672970" lon="-100.8188160">
        <ele>1732.0</ele>
        <time>2022-08-20T13:19:06Z</time>
      </trkpt>
      <trkpt lat="25.4673140" lon="-100.8187750">
        <ele>1732.2</ele>
        <time>2022-08-20T13:19:07Z</time>
      </trkpt>
      <trkpt lat="25.4673220" lon="-100.8187570">
        <ele>1732.3</ele>
        <time>2022-08-20T13:19:08Z</time>
      </trkpt>
      <trkpt lat="25.4673430" lon="-100.8187210">
        <ele>1732.6</ele>
        <time>2022-08-20T13:19:09Z</time>
      </trkpt>
      <trkpt lat="25.4673580" lon="-100.8186870">
        <ele>1732.8</ele>
        <time>2022-08-20T13:19:10Z</time>
      </trkpt>
      <trkpt lat="25.4673750" lon="-100.8186490">
        <ele>1733.1</ele>
        <time>2022-08-20T13:19:11Z</time>
      </trkpt>
      <trkpt lat="25.4673930" lon="-100.8186160">
        <ele>1733.3</ele>
        <time>2022-08-20T13:19:12Z</time>
      </trkpt>
      <trkpt lat="25.4674130" lon="-100.8185800">
        <ele>1733.6</ele>
        <time>2022-08-20T13:19:13Z</time>
      </trkpt>
      <trkpt lat="25.4674340" lon="-100.8185450">
        <ele>1733.8</ele>
        <time>2022-08-20T13:19:15Z</time>
      </trkpt>
      <trkpt lat="25.4674530" lon="-100.8185160">
        <ele>1734.0</ele>
        <time>2022-08-20T13:19:16Z</time>
      </trkpt>
      <trkpt lat="25.4674830" lon="-100.8184690">
        <ele>1734.3</ele>
        <time>2022-08-20T13:19:17Z</time>
      </trkpt>
      <trkpt lat="25.4675050" lon="-100.8184230">
        <ele>1734.6</ele>
        <time>2022-08-20T13:19:18Z</time>
      </trkpt>
      <trkpt lat="25.4675240" lon="-100.8183680">
        <ele>1735.0</ele>
        <time>2022-08-20T13:19:20Z</time>
      </trkpt>
      <trkpt lat="25.4675430" lon="-100.8183250">
        <ele>1735.3</ele>
        <time>2022-08-20T13:19:21Z</time>
      </trkpt>
      <trkpt lat="25.4675650" lon="-100.8182850">
        <ele>1735.6</ele>
        <time>2022-08-20T13:19:22Z</time>
      </trkpt>
      <trkpt lat="25.4675920" lon="-100.8182410">
        <ele>1735.9</ele>
        <time>2022-08-20T13:19:23Z</time>
      </trkpt>
      <trkpt lat="25.4676150" lon="-100.8181910">
        <ele>1736.3</ele>
        <time>2022-08-20T13:19:25Z</time>
      </trkpt>
      <trkpt lat="25.4676390" lon="-100.8181410">
        <ele>1736.6</ele>
        <time>2022-08-20T13:19:26Z</time>
      </trkpt>
      <trkpt lat="25.4676570" lon="-100.8181040">
        <ele>1736.9</ele>
        <time>2022-08-20T13:19:27Z</time>
      </trkpt>
      <trkpt lat="25.4676770" lon="-100.8180680">
        <ele>1737.1</ele>
        <time>2022-08-20T13:19:29Z</time>
      </trkpt>
      <trkpt lat="25.4676960" lon="-100.8180330">
        <ele>1737.4</ele>
        <time>2022-08-20T13:19:30Z</time>
      </trkpt>
      <trkpt lat="25.4677110" lon="-100.8180020">
        <ele>1737.6</ele>
        <time>2022-08-20T13:19:31Z</time>
      </trkpt>
      <trkpt lat="25.4677350" lon="-100.8179550">
        <ele>1737.9</ele>
        <time>2022-08-20T13:19:32Z</time>
      </trkpt>
      <trkpt lat="25.4677550" lon="-100.8179170">
        <ele>1738.1</ele>
        <time>2022-08-20T13:19:33Z</time>
      </trkpt>
      <trkpt lat="25.4677720" lon="-100.8178870">
        <ele>1738.3</ele>
        <time>2022-08-20T13:19:35Z</time>
      </trkpt>
      <trkpt lat="25.4677910" lon="-100.8178500">
        <ele>1738.5</ele>
        <time>2022-08-20T13:19:36Z</time>
      </trkpt>
      <trkpt lat="25.4678130" lon="-100.8178140">
        <ele>1738.7</ele>
        <time>2022-08-20T13:19:37Z</time>
      </trkpt>
      <trkpt lat="25.4678270" lon="-100.8177930">
        <ele>1738.9</ele>
        <time>2022-08-20T13:19:38Z</time>
      </trkpt>
      <trkpt lat="25.4678400" lon="-100.8177780">
        <ele>1739.0</ele>
        <time>2022-08-20T13:19:40Z</time>
      </trkpt>
      <trkpt lat="25.4678380" lon="-100.8177770">
        <ele>1739.0</ele>
        <time>2022-08-20T13:19:42Z</time>
      </trkpt>
      <trkpt lat="25.4678350" lon="-100.8177800">
        <ele>1739.0</ele>
        <time>2022-08-20T13:19:43Z</time>
      </trkpt>
      <trkpt lat="25.4678600" lon="-100.8177330">
        <ele>1739.4</ele>
        <time>2022-08-20T13:19:45Z</time>
      </trkpt>
      <trkpt lat="25.4678980" lon="-100.8176570">
        <ele>1739.9</ele>
        <time>2022-08-20T13:19:47Z</time>
      </trkpt>
      <trkpt lat="25.4679180" lon="-100.8176170">
        <ele>1740.2</ele>
        <time>2022-08-20T13:19:48Z</time>
      </trkpt>
      <trkpt lat="25.4679430" lon="-100.8175720">
        <ele>1740.6</ele>
        <time>2022-08-20T13:19:49Z</time>
      </trkpt>
      <trkpt lat="25.4679700" lon="-100.8175220">
        <ele>1741.0</ele>
        <time>2022-08-20T13:19:51Z</time>
      </trkpt>
      <trkpt lat="25.4679850" lon="-100.8174890">
        <ele>1741.3</ele>
        <time>2022-08-20T13:19:52Z</time>
      </trkpt>
      <trkpt lat="25.4680040" lon="-100.8174490">
        <ele>1741.6</ele>
        <time>2022-08-20T13:19:53Z</time>
      </trkpt>
      <trkpt lat="25.4680200" lon="-100.8174130">
        <ele>1741.9</ele>
        <time>2022-08-20T13:19:54Z</time>
      </trkpt>
      <trkpt lat="25.4680380" lon="-100.8173800">
        <ele>1742.2</ele>
        <time>2022-08-20T13:19:55Z</time>
      </trkpt>
      <trkpt lat="25.4680570" lon="-100.8173530">
        <ele>1742.4</ele>
        <time>2022-08-20T13:19:56Z</time>
      </trkpt>
      <trkpt lat="25.4680750" lon="-100.8173250">
        <ele>1742.7</ele>
        <time>2022-08-20T13:19:57Z</time>
      </trkpt>
      <trkpt lat="25.4680910" lon="-100.8172940">
        <ele>1742.9</ele>
        <time>2022-08-20T13:19:58Z</time>
      </trkpt>
      <trkpt lat="25.4681090" lon="-100.8172610">
        <ele>1743.2</ele>
        <time>2022-08-20T13:19:59Z</time>
      </trkpt>
      <trkpt lat="25.4681300" lon="-100.8172180">
        <ele>1743.5</ele>
        <time>2022-08-20T13:20:01Z</time>
      </trkpt>
      <trkpt lat="25.4681500" lon="-100.8171730">
        <ele>1743.9</ele>
        <time>2022-08-20T13:20:02Z</time>
      </trkpt>
      <trkpt lat="25.4681600" lon="-100.8171500">
        <ele>1744.1</ele>
        <time>2022-08-20T13:20:03Z</time>
      </trkpt>
      <trkpt lat="25.4681780" lon="-100.8171180">
        <ele>1744.3</ele>
        <time>2022-08-20T13:20:05Z</time>
      </trkpt>
      <trkpt lat="25.4681890" lon="-100.8170880">
        <ele>1744.5</ele>
        <time>2022-08-20T13:20:06Z</time>
      </trkpt>
      <trkpt lat="25.4682060" lon="-100.8170540">
        <ele>1744.8</ele>
        <time>2022-08-20T13:20:07Z</time>
      </trkpt>
      <trkpt lat="25.4682250" lon="-100.8170280">
        <ele>1745.0</ele>
        <time>2022-08-20T13:20:08Z</time>
      </trkpt>
      <trkpt lat="25.4682290" lon="-100.8170200">
        <ele>1745.1</ele>
        <time>2022-08-20T13:20:09Z</time>
      </trkpt>
      <trkpt lat="25.4682480" lon="-100.8169870">
        <ele>1745.3</ele>
        <time>2022-08-20T13:20:10Z</time>
      </trkpt>
      <trkpt lat="25.4682540" lon="-100.8169720">
        <ele>1745.4</ele>
        <time>2022-08-20T13:20:11Z</time>
      </trkpt>
      <trkpt lat="25.4682670" lon="-100.8169380">
        <ele>1745.7</ele>
        <time>2022-08-20T13:20:13Z</time>
      </trkpt>
      <trkpt lat="25.4682810" lon="-100.8169110">
        <ele>1745.8</ele>
        <time>2022-08-20T13:20:14Z</time>
      </trkpt>
      <trkpt lat="25.4683090" lon="-100.8168580">
        <ele>1746.2</ele>
        <time>2022-08-20T13:20:15Z</time>
      </trkpt>
      <trkpt lat="25.4683240" lon="-100.8168280">
        <ele>1746.4</ele>
        <time>2022-08-20T13:20:17Z</time>
      </trkpt>
      <trkpt lat="25.4683400" lon="-100.8168010">
        <ele>1746.6</ele>
        <time>2022-08-20T13:20:18Z</time>
      </trkpt>
      <trkpt lat="25.4683580" lon="-100.8167650">
        <ele>1746.9</ele>
        <time>2022-08-20T13:20:19Z</time>
      </trkpt>
      <trkpt lat="25.4683750" lon="-100.8167350">
        <ele>1747.1</ele>
        <time>2022-08-20T13:20:20Z</time>
      </trkpt>
      <trkpt lat="25.4683920" lon="-100.8167040">
        <ele>1747.3</ele>
        <time>2022-08-20T13:20:21Z</time>
      </trkpt>
      <trkpt lat="25.4684060" lon="-100.8166770">
        <ele>1747.4</ele>
        <time>2022-08-20T13:20:22Z</time>
      </trkpt>
      <trkpt lat="25.4684180" lon="-100.8166370">
        <ele>1747.7</ele>
        <time>2022-08-20T13:20:23Z</time>
      </trkpt>
      <trkpt lat="25.4684420" lon="-100.8165890">
        <ele>1748.0</ele>
        <time>2022-08-20T13:20:25Z</time>
      </trkpt>
      <trkpt lat="25.4684540" lon="-100.8165690">
        <ele>1748.1</ele>
        <time>2022-08-20T13:20:26Z</time>
      </trkpt>
      <trkpt lat="25.4684660" lon="-100.8165490">
        <ele>1748.2</ele>
        <time>2022-08-20T13:20:27Z</time>
      </trkpt>
      <trkpt lat="25.4684910" lon="-100.8165130">
        <ele>1748.5</ele>
        <time>2022-08-20T13:20:28Z</time>
      </trkpt>
      <trkpt lat="25.4685010" lon="-100.8164990">
        <ele>1748.6</ele>
        <time>2022-08-20T13:20:29Z</time>
      </trkpt>
      <trkpt lat="25.4685170" lon="-100.8164690">
        <ele>1748.8</ele>
        <time>2022-08-20T13:20:30Z</time>
      </trkpt>
      <trkpt lat="25.4685320" lon="-100.8164340">
        <ele>1749.0</ele>
        <time>2022-08-20T13:20:31Z</time>
      </trkpt>
      <trkpt lat="25.4685480" lon="-100.8164010">
        <ele>1749.2</ele>
        <time>2022-08-20T13:20:33Z</time>
      </trkpt>
      <trkpt lat="25.4685630" lon="-100.8163620">
        <ele>1749.4</ele>
        <time>2022-08-20T13:20:34Z</time>
      </trkpt>
      <trkpt lat="25.4685810" lon="-100.8163280">
        <ele>1749.6</ele>
        <time>2022-08-20T13:20:35Z</time>
      </trkpt>
      <trkpt lat="25.4685980" lon="-100.8162980">
        <ele>1749.8</ele>
        <time>2022-08-20T13:20:36Z</time>
      </trkpt>
      <trkpt lat="25.4686150" lon="-100.8162710">
        <ele>1749.9</ele>
        <time>2022-08-20T13:20:37Z</time>
      </trkpt>
      <trkpt lat="25.4686240" lon="-100.8162540">
        <ele>1750.0</ele>
        <time>2022-08-20T13:20:38Z</time>
      </trkpt>
      <trkpt lat="25.4686280" lon="-100.8162510">
        <ele>1750.0</ele>
        <time>2022-08-20T13:20:40Z</time>
      </trkpt>
      <trkpt lat="25.4686300" lon="-100.8162450">
        <ele>1750.1</ele>
        <time>2022-08-20T13:20:41Z</time>
      </trkpt>
      <trkpt lat="25.4686470" lon="-100.8162100">
        <ele>1750.3</ele>
        <time>2022-08-20T13:20:42Z</time>
      </trkpt>
      <trkpt lat="25.4686760" lon="-100.8161680">
        <ele>1750.5</ele>
        <time>2022-08-20T13:20:43Z</time>
      </trkpt>
      <trkpt lat="25.4687010" lon="-100.8161300">
        <ele>1750.7</ele>
        <time>2022-08-20T13:20:45Z</time>
      </trkpt>
      <trkpt lat="25.4687250" lon="-100.8160970">
        <ele>1750.9</ele>
        <time>2022-08-20T13:20:46Z</time>
      </trkpt>
      <trkpt lat="25.4687460" lon="-100.8160520">
        <ele>1751.1</ele>
        <time>2022-08-20T13:20:47Z</time>
      </trkpt>
      <trkpt lat="25.4687660" lon="-100.8160120">
        <ele>1751.3</ele>
        <time>2022-08-20T13:20:48Z</time>
      </trkpt>
      <trkpt lat="25.4687800" lon="-100.8159730">
        <ele>1751.5</ele>
        <time>2022-08-20T13:20:50Z</time>
      </trkpt>
      <trkpt lat="25.4688130" lon="-100.8159080">
        <ele>1751.8</ele>
        <time>2022-08-20T13:20:51Z</time>
      </trkpt>
      <trkpt lat="25.4688280" lon="-100.8158640">
        <ele>1751.9</ele>
        <time>2022-08-20T13:20:53Z</time>
      </trkpt>
      <trkpt lat="25.4688540" lon="-100.8158160">
        <ele>1752.1</ele>
        <time>2022-08-20T13:20:54Z</time>
      </trkpt>
      <trkpt lat="25.4688790" lon="-100.8157720">
        <ele>1752.3</ele>
        <time>2022-08-20T13:20:55Z</time>
      </trkpt>
      <trkpt lat="25.4688960" lon="-100.8157380">
        <ele>1752.4</ele>
        <time>2022-08-20T13:20:57Z</time>
      </trkpt>
      <trkpt lat="25.4689120" lon="-100.8157100">
        <ele>1752.5</ele>
        <time>2022-08-20T13:20:58Z</time>
      </trkpt>
      <trkpt lat="25.4689280" lon="-100.8156810">
        <ele>1752.6</ele>
        <time>2022-08-20T13:20:59Z</time>
      </trkpt>
      <trkpt lat="25.4689460" lon="-100.8156500">
        <ele>1752.7</ele>
        <time>2022-08-20T13:21:00Z</time>
      </trkpt>
      <trkpt lat="25.4689660" lon="-100.8156130">
        <ele>1752.8</ele>
        <time>2022-08-20T13:21:01Z</time>
      </trkpt>
      <trkpt lat="25.4689920" lon="-100.8155730">
        <ele>1752.9</ele>
        <time>2022-08-20T13:21:02Z</time>
      </trkpt>
      <trkpt lat="25.4690120" lon="-100.8155290">
        <ele>1753.1</ele>
        <time>2022-08-20T13:21:04Z</time>
      </trkpt>
      <trkpt lat="25.4690380" lon="-100.8154840">
        <ele>1753.2</ele>
        <time>2022-08-20T13:21:05Z</time>
      </trkpt>
      <trkpt lat="25.4690600" lon="-100.8154400">
        <ele>1753.4</ele>
        <time>2022-08-20T13:21:06Z</time>
      </trkpt>
      <trkpt lat="25.4690830" lon="-100.8154050">
        <ele>1753.5</ele>
        <time>2022-08-20T13:21:07Z</time>
      </trkpt>
      <trkpt lat="25.4691200" lon="-100.8153320">
        <ele>1753.8</ele>
        <time>2022-08-20T13:21:09Z</time>
      </trkpt>
      <trkpt lat="25.4691570" lon="-100.8152640">
        <ele>1754.0</ele>
        <time>2022-08-20T13:21:11Z</time>
      </trkpt>
      <trkpt lat="25.4691900" lon="-100.8151970">
        <ele>1754.2</ele>
        <time>2022-08-20T13:21:13Z</time>
      </trkpt>
      <trkpt lat="25.4692070" lon="-100.8151620">
        <ele>1754.3</ele>
        <time>2022-08-20T13:21:14Z</time>
      </trkpt>
      <trkpt lat="25.4692480" lon="-100.8150830">
        <ele>1754.5</ele>
        <time>2022-08-20T13:21:16Z</time>
      </trkpt>
      <trkpt lat="25.4692710" lon="-100.8150410">
        <ele>1754.5</ele>
        <time>2022-08-20T13:21:18Z</time>
      </trkpt>
      <trkpt lat="25.4693010" lon="-100.8149930">
        <ele>1754.5</ele>
        <time>2022-08-20T13:21:19Z</time>
      </trkpt>
      <trkpt lat="25.4693240" lon="-100.8149610">
        <ele>1754.5</ele>
        <time>2022-08-20T13:21:20Z</time>
      </trkpt>
      <trkpt lat="25.4693520" lon="-100.8149170">
        <ele>1754.5</ele>
        <time>2022-08-20T13:21:22Z</time>
      </trkpt>
      <trkpt lat="25.4693730" lon="-100.8148820">
        <ele>1754.4</ele>
        <time>2022-08-20T13:21:23Z</time>
      </trkpt>
      <trkpt lat="25.4693850" lon="-100.8148630">
        <ele>1754.4</ele>
        <time>2022-08-20T13:21:25Z</time>
      </trkpt>
      <trkpt lat="25.4693960" lon="-100.8148440">
        <ele>1754.3</ele>
        <time>2022-08-20T13:21:26Z</time>
      </trkpt>
      <trkpt lat="25.4694550" lon="-100.8147360">
        <ele>1753.9</ele>
        <time>2022-08-20T13:21:27Z</time>
      </trkpt>
      <trkpt lat="25.4695030" lon="-100.8146460">
        <ele>1753.7</ele>
        <time>2022-08-20T13:21:28Z</time>
      </trkpt>
      <trkpt lat="25.4695440" lon="-100.8145630">
        <ele>1753.5</ele>
        <time>2022-08-20T13:21:29Z</time>
      </trkpt>
      <trkpt lat="25.4695770" lon="-100.8144950">
        <ele>1753.6</ele>
        <time>2022-08-20T13:21:30Z</time>
      </trkpt>
      <trkpt lat="25.4696080" lon="-100.8144360">
        <ele>1753.7</ele>
        <time>2022-08-20T13:21:31Z</time>
      </trkpt>
      <trkpt lat="25.4696350" lon="-100.8143900">
        <ele>1753.9</ele>
        <time>2022-08-20T13:21:32Z</time>
      </trkpt>
      <trkpt lat="25.4696550" lon="-100.8143600">
        <ele>1754.0</ele>
        <time>2022-08-20T13:21:33Z</time>
      </trkpt>
      <trkpt lat="25.4696890" lon="-100.8143140">
        <ele>1754.2</ele>
        <time>2022-08-20T13:21:34Z</time>
      </trkpt>
      <trkpt lat="25.4697200" lon="-100.8142650">
        <ele>1754.5</ele>
        <time>2022-08-20T13:21:35Z</time>
      </trkpt>
      <trkpt lat="25.4697440" lon="-100.8142180">
        <ele>1754.7</ele>
        <time>2022-08-20T13:21:36Z</time>
      </trkpt>
      <trkpt lat="25.4697700" lon="-100.8141770">
        <ele>1754.9</ele>
        <time>2022-08-20T13:21:38Z</time>
      </trkpt>
      <trkpt lat="25.4697930" lon="-100.8141380">
        <ele>1755.0</ele>
        <time>2022-08-20T13:21:39Z</time>
      </trkpt>
      <trkpt lat="25.4698220" lon="-100.8140890">
        <ele>1755.2</ele>
        <time>2022-08-20T13:21:40Z</time>
      </trkpt>
      <trkpt lat="25.4698470" lon="-100.8140420">
        <ele>1755.3</ele>
        <time>2022-08-20T13:21:41Z</time>
      </trkpt>
      <trkpt lat="25.4698700" lon="-100.8139970">
        <ele>1755.5</ele>
        <time>2022-08-20T13:21:42Z</time>
      </trkpt>
      <trkpt lat="25.4699010" lon="-100.8139540">
        <ele>1755.6</ele>
        <time>2022-08-20T13:21:43Z</time>
      </trkpt>
      <trkpt lat="25.4699410" lon="-100.8138650">
        <ele>1755.7</ele>
        <time>2022-08-20T13:21:45Z</time>
      </trkpt>
      <trkpt lat="25.4699640" lon="-100.8138150">
        <ele>1755.7</ele>
        <time>2022-08-20T13:21:46Z</time>
      </trkpt>
      <trkpt lat="25.4699880" lon="-100.8137620">
        <ele>1755.8</ele>
        <time>2022-08-20T13:21:47Z</time>
      </trkpt>
      <trkpt lat="25.4700130" lon="-100.8137100">
        <ele>1755.7</ele>
        <time>2022-08-20T13:21:48Z</time>
      </trkpt>
      <trkpt lat="25.4700370" lon="-100.8136580">
        <ele>1755.7</ele>
        <time>2022-08-20T13:21:49Z</time>
      </trkpt>
      <trkpt lat="25.4700610" lon="-100.8136050">
        <ele>1755.6</ele>
        <time>2022-08-20T13:21:50Z</time>
      </trkpt>
      <trkpt lat="25.4700870" lon="-100.8135530">
        <ele>1755.5</ele>
        <time>2022-08-20T13:21:51Z</time>
      </trkpt>
      <trkpt lat="25.4701130" lon="-100.8134980">
        <ele>1755.4</ele>
        <time>2022-08-20T13:21:52Z</time>
      </trkpt>
      <trkpt lat="25.4701380" lon="-100.8134420">
        <ele>1755.2</ele>
        <time>2022-08-20T13:21:53Z</time>
      </trkpt>
      <trkpt lat="25.4701630" lon="-100.8133840">
        <ele>1755.0</ele>
        <time>2022-08-20T13:21:54Z</time>
      </trkpt>
      <trkpt lat="25.4701920" lon="-100.8133280">
        <ele>1754.8</ele>
        <time>2022-08-20T13:21:55Z</time>
      </trkpt>
      <trkpt lat="25.4702240" lon="-100.8132710">
        <ele>1754.6</ele>
        <time>2022-08-20T13:21:56Z</time>
      </trkpt>
      <trkpt lat="25.4702560" lon="-100.8132130">
        <ele>1754.4</ele>
        <time>2022-08-20T13:21:57Z</time>
      </trkpt>
      <trkpt lat="25.4702880" lon="-100.8131530">
        <ele>1754.2</ele>
        <time>2022-08-20T13:21:58Z</time>
      </trkpt>
      <trkpt lat="25.4703200" lon="-100.8130960">
        <ele>1754.0</ele>
        <time>2022-08-20T13:21:59Z</time>
      </trkpt>
      <trkpt lat="25.4703530" lon="-100.8130360">
        <ele>1753.7</ele>
        <time>2022-08-20T13:22:00Z</time>
      </trkpt>
      <trkpt lat="25.4703850" lon="-100.8129770">
        <ele>1753.4</ele>
        <time>2022-08-20T13:22:01Z</time>
      </trkpt>
      <trkpt lat="25.4704160" lon="-100.8129150">
        <ele>1753.2</ele>
        <time>2022-08-20T13:22:02Z</time>
      </trkpt>
      <trkpt lat="25.4704490" lon="-100.8128540">
        <ele>1752.9</ele>
        <time>2022-08-20T13:22:03Z</time>
      </trkpt>
      <trkpt lat="25.4704820" lon="-100.8127930">
        <ele>1752.7</ele>
        <time>2022-08-20T13:22:04Z</time>
      </trkpt>
      <trkpt lat="25.4705150" lon="-100.8127310">
        <ele>1752.4</ele>
        <time>2022-08-20T13:22:05Z</time>
      </trkpt>
      <trkpt lat="25.4705440" lon="-100.8126670">
        <ele>1752.2</ele>
        <time>2022-08-20T13:22:06Z</time>
      </trkpt>
      <trkpt lat="25.4705740" lon="-100.8126030">
        <ele>1751.9</ele>
        <time>2022-08-20T13:22:07Z</time>
      </trkpt>
      <trkpt lat="25.4706050" lon="-100.8125380">
        <ele>1751.7</ele>
        <time>2022-08-20T13:22:08Z</time>
      </trkpt>
      <trkpt lat="25.4706380" lon="-100.8124720">
        <ele>1751.5</ele>
        <time>2022-08-20T13:22:09Z</time>
      </trkpt>
      <trkpt lat="25.4706740" lon="-100.8124060">
        <ele>1751.3</ele>
        <time>2022-08-20T13:22:10Z</time>
      </trkpt>
      <trkpt lat="25.4707110" lon="-100.8123390">
        <ele>1751.1</ele>
        <time>2022-08-20T13:22:11Z</time>
      </trkpt>
      <trkpt lat="25.4707470" lon="-100.8122700">
        <ele>1750.9</ele>
        <time>2022-08-20T13:22:12Z</time>
      </trkpt>
      <trkpt lat="25.4707820" lon="-100.8122010">
        <ele>1750.7</ele>
        <time>2022-08-20T13:22:13Z</time>
      </trkpt>
      <trkpt lat="25.4708170" lon="-100.8121320">
        <ele>1750.6</ele>
        <time>2022-08-20T13:22:14Z</time>
      </trkpt>
      <trkpt lat="25.4708510" lon="-100.8120630">
        <ele>1750.5</ele>
        <time>2022-08-20T13:22:15Z</time>
      </trkpt>
      <trkpt lat="25.4708860" lon="-100.8119950">
        <ele>1750.5</ele>
        <time>2022-08-20T13:22:16Z</time>
      </trkpt>
      <trkpt lat="25.4709210" lon="-100.8119290">
        <ele>1750.5</ele>
        <time>2022-08-20T13:22:17Z</time>
      </trkpt>
      <trkpt lat="25.4709560" lon="-100.8118680">
        <ele>1750.5</ele>
        <time>2022-08-20T13:22:18Z</time>
      </trkpt>
      <trkpt lat="25.4709930" lon="-100.8118100">
        <ele>1750.5</ele>
        <time>2022-08-20T13:22:19Z</time>
      </trkpt>
      <trkpt lat="25.4710290" lon="-100.8117500">
        <ele>1750.6</ele>
        <time>2022-08-20T13:22:20Z</time>
      </trkpt>
      <trkpt lat="25.4710630" lon="-100.8116890">
        <ele>1750.7</ele>
        <time>2022-08-20T13:22:21Z</time>
      </trkpt>
      <trkpt lat="25.4710970" lon="-100.8116280">
        <ele>1750.7</ele>
        <time>2022-08-20T13:22:22Z</time>
      </trkpt>
      <trkpt lat="25.4711300" lon="-100.8115660">
        <ele>1750.8</ele>
        <time>2022-08-20T13:22:23Z</time>
      </trkpt>
      <trkpt lat="25.4711650" lon="-100.8115020">
        <ele>1750.9</ele>
        <time>2022-08-20T13:22:24Z</time>
      </trkpt>
      <trkpt lat="25.4712020" lon="-100.8114360">
        <ele>1750.9</ele>
        <time>2022-08-20T13:22:25Z</time>
      </trkpt>
      <trkpt lat="25.4712390" lon="-100.8113690">
        <ele>1750.9</ele>
        <time>2022-08-20T13:22:26Z</time>
      </trkpt>
      <trkpt lat="25.4712740" lon="-100.8113020">
        <ele>1750.8</ele>
        <time>2022-08-20T13:22:27Z</time>
      </trkpt>
      <trkpt lat="25.4713100" lon="-100.8112340">
        <ele>1750.8</ele>
        <time>2022-08-20T13:22:28Z</time>
      </trkpt>
      <trkpt lat="25.4713460" lon="-100.8111650">
        <ele>1750.8</ele>
        <time>2022-08-20T13:22:29Z</time>
      </trkpt>
      <trkpt lat="25.4713830" lon="-100.8110950">
        <ele>1750.8</ele>
        <time>2022-08-20T13:22:30Z</time>
      </trkpt>
      <trkpt lat="25.4714210" lon="-100.8110240">
        <ele>1750.8</ele>
        <time>2022-08-20T13:22:31Z</time>
      </trkpt>
      <trkpt lat="25.4714580" lon="-100.8109520">
        <ele>1750.9</ele>
        <time>2022-08-20T13:22:32Z</time>
      </trkpt>
      <trkpt lat="25.4714950" lon="-100.8108800">
        <ele>1750.9</ele>
        <time>2022-08-20T13:22:33Z</time>
      </trkpt>
      <trkpt lat="25.4715320" lon="-100.8108090">
        <ele>1751.0</ele>
        <time>2022-08-20T13:22:34Z</time>
      </trkpt>
      <trkpt lat="25.4715680" lon="-100.8107380">
        <ele>1751.1</ele>
        <time>2022-08-20T13:22:35Z</time>
      </trkpt>
      <trkpt lat="25.4716040" lon="-100.8106670">
        <ele>1751.1</ele>
        <time>2022-08-20T13:22:36Z</time>
      </trkpt>
      <trkpt lat="25.4716400" lon="-100.8105980">
        <ele>1751.2</ele>
        <time>2022-08-20T13:22:37Z</time>
      </trkpt>
      <trkpt lat="25.4716760" lon="-100.8105270">
        <ele>1751.3</ele>
        <time>2022-08-20T13:22:38Z</time>
      </trkpt>
      <trkpt lat="25.4717080" lon="-100.8104520">
        <ele>1751.3</ele>
        <time>2022-08-20T13:22:39Z</time>
      </trkpt>
      <trkpt lat="25.4717310" lon="-100.8103730">
        <ele>1751.3</ele>
        <time>2022-08-20T13:22:40Z</time>
      </trkpt>
      <trkpt lat="25.4717450" lon="-100.8102910">
        <ele>1751.4</ele>
        <time>2022-08-20T13:22:41Z</time>
      </trkpt>
      <trkpt lat="25.4717480" lon="-100.8102080">
        <ele>1751.4</ele>
        <time>2022-08-20T13:22:42Z</time>
      </trkpt>
      <trkpt lat="25.4717490" lon="-100.8101270">
        <ele>1751.5</ele>
        <time>2022-08-20T13:22:43Z</time>
      </trkpt>
      <trkpt lat="25.4717510" lon="-100.8100480">
        <ele>1751.6</ele>
        <time>2022-08-20T13:22:44Z</time>
      </trkpt>
      <trkpt lat="25.4717580" lon="-100.8099720">
        <ele>1751.7</ele>
        <time>2022-08-20T13:22:45Z</time>
      </trkpt>
      <trkpt lat="25.4717680" lon="-100.8098990">
        <ele>1751.8</ele>
        <time>2022-08-20T13:22:46Z</time>
      </trkpt>
      <trkpt lat="25.4717810" lon="-100.8098260">
        <ele>1751.9</ele>
        <time>2022-08-20T13:22:47Z</time>
      </trkpt>
      <trkpt lat="25.4717960" lon="-100.8097550">
        <ele>1751.9</ele>
        <time>2022-08-20T13:22:48Z</time>
      </trkpt>
      <trkpt lat="25.4718130" lon="-100.8096920">
        <ele>1752.0</ele>
        <time>2022-08-20T13:22:49Z</time>
      </trkpt>
      <trkpt lat="25.4718340" lon="-100.8096330">
        <ele>1752.0</ele>
        <time>2022-08-20T13:22:50Z</time>
      </trkpt>
      <trkpt lat="25.4718600" lon="-100.8095750">
        <ele>1752.1</ele>
        <time>2022-08-20T13:22:51Z</time>
      </trkpt>
      <trkpt lat="25.4718910" lon="-100.8095160">
        <ele>1752.1</ele>
        <time>2022-08-20T13:22:52Z</time>
      </trkpt>
      <trkpt lat="25.4719190" lon="-100.8094530">
        <ele>1752.0</ele>
        <time>2022-08-20T13:22:53Z</time>
      </trkpt>
      <trkpt lat="25.4719430" lon="-100.8093860">
        <ele>1752.0</ele>
        <time>2022-08-20T13:22:54Z</time>
      </trkpt>
      <trkpt lat="25.4719650" lon="-100.8093170">
        <ele>1752.0</ele>
        <time>2022-08-20T13:22:55Z</time>
      </trkpt>
      <trkpt lat="25.4719840" lon="-100.8092440">
        <ele>1752.0</ele>
        <time>2022-08-20T13:22:56Z</time>
      </trkpt>
      <trkpt lat="25.4720020" lon="-100.8091720">
        <ele>1752.0</ele>
        <time>2022-08-20T13:22:57Z</time>
      </trkpt>
      <trkpt lat="25.4720180" lon="-100.8091030">
        <ele>1752.0</ele>
        <time>2022-08-20T13:22:58Z</time>
      </trkpt>
      <trkpt lat="25.4720340" lon="-100.8090380">
        <ele>1752.1</ele>
        <time>2022-08-20T13:22:59Z</time>
      </trkpt>
      <trkpt lat="25.4720500" lon="-100.8089740">
        <ele>1752.2</ele>
        <time>2022-08-20T13:23:00Z</time>
      </trkpt>
      <trkpt lat="25.4720680" lon="-100.8089110">
        <ele>1752.3</ele>
        <time>2022-08-20T13:23:01Z</time>
      </trkpt>
      <trkpt lat="25.4720870" lon="-100.8088480">
        <ele>1752.5</ele>
        <time>2022-08-20T13:23:02Z</time>
      </trkpt>
      <trkpt lat="25.4721050" lon="-100.8087840">
        <ele>1752.7</ele>
        <time>2022-08-20T13:23:03Z</time>
      </trkpt>
      <trkpt lat="25.4721240" lon="-100.8087220">
        <ele>1752.8</ele>
        <time>2022-08-20T13:23:04Z</time>
      </trkpt>
      <trkpt lat="25.4721420" lon="-100.8086630">
        <ele>1753.0</ele>
        <time>2022-08-20T13:23:05Z</time>
      </trkpt>
      <trkpt lat="25.4721580" lon="-100.8086050">
        <ele>1753.1</ele>
        <time>2022-08-20T13:23:06Z</time>
      </trkpt>
      <trkpt lat="25.4721720" lon="-100.8085460">
        <ele>1753.3</ele>
        <time>2022-08-20T13:23:07Z</time>
      </trkpt>
      <trkpt lat="25.4721860" lon="-100.8084890">
        <ele>1753.4</ele>
        <time>2022-08-20T13:23:08Z</time>
      </trkpt>
      <trkpt lat="25.4722010" lon="-100.8084360">
        <ele>1753.6</ele>
        <time>2022-08-20T13:23:09Z</time>
      </trkpt>
      <trkpt lat="25.4722180" lon="-100.8083850">
        <ele>1753.7</ele>
        <time>2022-08-20T13:23:10Z</time>
      </trkpt>
      <trkpt lat="25.4722350" lon="-100.8083350">
        <ele>1753.9</ele>
        <time>2022-08-20T13:23:11Z</time>
      </trkpt>
      <trkpt lat="25.4722530" lon="-100.8082870">
        <ele>1754.0</ele>
        <time>2022-08-20T13:23:12Z</time>
      </trkpt>
      <trkpt lat="25.4722700" lon="-100.8082410">
        <ele>1754.2</ele>
        <time>2022-08-20T13:23:13Z</time>
      </trkpt>
      <trkpt lat="25.4722860" lon="-100.8081960">
        <ele>1754.3</ele>
        <time>2022-08-20T13:23:14Z</time>
      </trkpt>
      <trkpt lat="25.4723020" lon="-100.8081510">
        <ele>1754.4</ele>
        <time>2022-08-20T13:23:15Z</time>
      </trkpt>
      <trkpt lat="25.4723120" lon="-100.8081210">
        <ele>1754.5</ele>
        <time>2022-08-20T13:23:16Z</time>
      </trkpt>
      <trkpt lat="25.4723270" lon="-100.8080760">
        <ele>1754.6</ele>
        <time>2022-08-20T13:23:17Z</time>
      </trkpt>
      <trkpt lat="25.4723450" lon="-100.8080210">
        <ele>1754.8</ele>
        <time>2022-08-20T13:23:18Z</time>
      </trkpt>
      <trkpt lat="25.4723600" lon="-100.8079790">
        <ele>1754.9</ele>
        <time>2022-08-20T13:23:19Z</time>
      </trkpt>
      <trkpt lat="25.4723780" lon="-100.8079340">
        <ele>1755.0</ele>
        <time>2022-08-20T13:23:20Z</time>
      </trkpt>
      <trkpt lat="25.4723950" lon="-100.8078880">
        <ele>1755.1</ele>
        <time>2022-08-20T13:23:21Z</time>
      </trkpt>
      <trkpt lat="25.4723980" lon="-100.8078030">
        <ele>1755.3</ele>
        <time>2022-08-20T13:23:22Z</time>
      </trkpt>
      <trkpt lat="25.4724210" lon="-100.8077380">
        <ele>1755.5</ele>
        <time>2022-08-20T13:23:24Z</time>
      </trkpt>
      <trkpt lat="25.4724420" lon="-100.8076900">
        <ele>1755.6</ele>
        <time>2022-08-20T13:23:25Z</time>
      </trkpt>
      <trkpt lat="25.4724580" lon="-100.8076540">
        <ele>1755.7</ele>
        <time>2022-08-20T13:23:26Z</time>
      </trkpt>
      <trkpt lat="25.4724790" lon="-100.8075950">
        <ele>1755.9</ele>
        <time>2022-08-20T13:23:28Z</time>
      </trkpt>
      <trkpt lat="25.4724930" lon="-100.8075560">
        <ele>1756.0</ele>
        <time>2022-08-20T13:23:29Z</time>
      </trkpt>
      <trkpt lat="25.4725120" lon="-100.8075030">
        <ele>1756.2</ele>
        <time>2022-08-20T13:23:30Z</time>
      </trkpt>
      <trkpt lat="25.4725250" lon="-100.8074560">
        <ele>1756.3</ele>
        <time>2022-08-20T13:23:31Z</time>
      </trkpt>
      <trkpt lat="25.4725400" lon="-100.8074030">
        <ele>1756.5</ele>
        <time>2022-08-20T13:23:32Z</time>
      </trkpt>
      <trkpt lat="25.4725560" lon="-100.8073500">
        <ele>1756.6</ele>
        <time>2022-08-20T13:23:33Z</time>
      </trkpt>
      <trkpt lat="25.4725720" lon="-100.8072900">
        <ele>1756.8</ele>
        <time>2022-08-20T13:23:35Z</time>
      </trkpt>
      <trkpt lat="25.4725920" lon="-100.8072220">
        <ele>1757.0</ele>
        <time>2022-08-20T13:23:36Z</time>
      </trkpt>
      <trkpt lat="25.4726100" lon="-100.8071610">
        <ele>1757.1</ele>
        <time>2022-08-20T13:23:38Z</time>
      </trkpt>
      <trkpt lat="25.4726220" lon="-100.8071160">
        <ele>1757.3</ele>
        <time>2022-08-20T13:23:39Z</time>
      </trkpt>
      <trkpt lat="25.4726380" lon="-100.8070650">
        <ele>1757.4</ele>
        <time>2022-08-20T13:23:40Z</time>
      </trkpt>
      <trkpt lat="25.4726590" lon="-100.8070120">
        <ele>1757.5</ele>
        <time>2022-08-20T13:23:41Z</time>
      </trkpt>
      <trkpt lat="25.4726750" lon="-100.8069710">
        <ele>1757.6</ele>
        <time>2022-08-20T13:23:42Z</time>
      </trkpt>
      <trkpt lat="25.4726980" lon="-100.8069170">
        <ele>1757.7</ele>
        <time>2022-08-20T13:23:43Z</time>
      </trkpt>
      <trkpt lat="25.4727110" lon="-100.8068660">
        <ele>1757.8</ele>
        <time>2022-08-20T13:23:45Z</time>
      </trkpt>
      <trkpt lat="25.4727240" lon="-100.8068170">
        <ele>1758.0</ele>
        <time>2022-08-20T13:23:46Z</time>
      </trkpt>
      <trkpt lat="25.4727410" lon="-100.8067520">
        <ele>1758.2</ele>
        <time>2022-08-20T13:23:47Z</time>
      </trkpt>
      <trkpt lat="25.4727580" lon="-100.8067040">
        <ele>1758.3</ele>
        <time>2022-08-20T13:23:48Z</time>
      </trkpt>
      <trkpt lat="25.4727690" lon="-100.8066690">
        <ele>1758.5</ele>
        <time>2022-08-20T13:23:49Z</time>
      </trkpt>
      <trkpt lat="25.4727820" lon="-100.8066310">
        <ele>1758.6</ele>
        <time>2022-08-20T13:23:50Z</time>
      </trkpt>
      <trkpt lat="25.4727960" lon="-100.8065900">
        <ele>1758.8</ele>
        <time>2022-08-20T13:23:51Z</time>
      </trkpt>
      <trkpt lat="25.4728040" lon="-100.8065640">
        <ele>1758.9</ele>
        <time>2022-08-20T13:23:52Z</time>
      </trkpt>
      <trkpt lat="25.4728060" lon="-100.8065640">
        <ele>1758.9</ele>
        <time>2022-08-20T13:23:54Z</time>
      </trkpt>
      <trkpt lat="25.4728110" lon="-100.8065540">
        <ele>1758.9</ele>
        <time>2022-08-20T13:23:55Z</time>
      </trkpt>
      <trkpt lat="25.4728230" lon="-100.8064910">
        <ele>1759.2</ele>
        <time>2022-08-20T13:23:56Z</time>
      </trkpt>
      <trkpt lat="25.4728370" lon="-100.8064380">
        <ele>1759.4</ele>
        <time>2022-08-20T13:23:57Z</time>
      </trkpt>
      <trkpt lat="25.4728560" lon="-100.8063660">
        <ele>1759.7</ele>
        <time>2022-08-20T13:23:58Z</time>
      </trkpt>
      <trkpt lat="25.4728720" lon="-100.8063100">
        <ele>1760.0</ele>
        <time>2022-08-20T13:23:59Z</time>
      </trkpt>
      <trkpt lat="25.4728880" lon="-100.8062530">
        <ele>1760.3</ele>
        <time>2022-08-20T13:24:01Z</time>
      </trkpt>
      <trkpt lat="25.4729020" lon="-100.8062120">
        <ele>1760.4</ele>
        <time>2022-08-20T13:24:02Z</time>
      </trkpt>
      <trkpt lat="25.4729210" lon="-100.8061580">
        <ele>1760.7</ele>
        <time>2022-08-20T13:24:03Z</time>
      </trkpt>
      <trkpt lat="25.4729360" lon="-100.8061070">
        <ele>1761.0</ele>
        <time>2022-08-20T13:24:04Z</time>
      </trkpt>
      <trkpt lat="25.4729470" lon="-100.8060770">
        <ele>1761.1</ele>
        <time>2022-08-20T13:24:05Z</time>
      </trkpt>
      <trkpt lat="25.4729650" lon="-100.8060280">
        <ele>1761.4</ele>
        <time>2022-08-20T13:24:06Z</time>
      </trkpt>
      <trkpt lat="25.4729820" lon="-100.8059900">
        <ele>1761.6</ele>
        <time>2022-08-20T13:24:07Z</time>
      </trkpt>
      <trkpt lat="25.4730010" lon="-100.8059410">
        <ele>1761.8</ele>
        <time>2022-08-20T13:24:09Z</time>
      </trkpt>
      <trkpt lat="25.4730220" lon="-100.8058870">
        <ele>1762.1</ele>
        <time>2022-08-20T13:24:10Z</time>
      </trkpt>
      <trkpt lat="25.4730410" lon="-100.8058460">
        <ele>1762.3</ele>
        <time>2022-08-20T13:24:11Z</time>
      </trkpt>
      <trkpt lat="25.4730560" lon="-100.8058090">
        <ele>1762.5</ele>
        <time>2022-08-20T13:24:12Z</time>
      </trkpt>
      <trkpt lat="25.4730730" lon="-100.8057650">
        <ele>1762.7</ele>
        <time>2022-08-20T13:24:14Z</time>
      </trkpt>
      <trkpt lat="25.4730900" lon="-100.8056950">
        <ele>1763.1</ele>
        <time>2022-08-20T13:24:15Z</time>
      </trkpt>
      <trkpt lat="25.4731090" lon="-100.8056420">
        <ele>1763.3</ele>
        <time>2022-08-20T13:24:17Z</time>
      </trkpt>
      <trkpt lat="25.4731300" lon="-100.8055880">
        <ele>1763.6</ele>
        <time>2022-08-20T13:24:18Z</time>
      </trkpt>
      <trkpt lat="25.4731390" lon="-100.8055680">
        <ele>1763.7</ele>
        <time>2022-08-20T13:24:20Z</time>
      </trkpt>
      <trkpt lat="25.4731460" lon="-100.8055490">
        <ele>1763.8</ele>
        <time>2022-08-20T13:24:21Z</time>
      </trkpt>
      <trkpt lat="25.4731530" lon="-100.8055310">
        <ele>1763.9</ele>
        <time>2022-08-20T13:24:22Z</time>
      </trkpt>
      <trkpt lat="25.4731590" lon="-100.8055130">
        <ele>1764.0</ele>
        <time>2022-08-20T13:24:23Z</time>
      </trkpt>
      <trkpt lat="25.4731820" lon="-100.8054520">
        <ele>1764.3</ele>
        <time>2022-08-20T13:24:24Z</time>
      </trkpt>
      <trkpt lat="25.4732020" lon="-100.8054020">
        <ele>1764.6</ele>
        <time>2022-08-20T13:24:25Z</time>
      </trkpt>
      <trkpt lat="25.4732200" lon="-100.8053520">
        <ele>1764.8</ele>
        <time>2022-08-20T13:24:26Z</time>
      </trkpt>
      <trkpt lat="25.4732350" lon="-100.8052970">
        <ele>1765.1</ele>
        <time>2022-08-20T13:24:27Z</time>
      </trkpt>
      <trkpt lat="25.4732510" lon="-100.8052430">
        <ele>1765.3</ele>
        <time>2022-08-20T13:24:29Z</time>
      </trkpt>
      <trkpt lat="25.4732770" lon="-100.8051790">
        <ele>1765.5</ele>
        <time>2022-08-20T13:24:30Z</time>
      </trkpt>
      <trkpt lat="25.4732960" lon="-100.8051340">
        <ele>1765.7</ele>
        <time>2022-08-20T13:24:31Z</time>
      </trkpt>
      <trkpt lat="25.4733200" lon="-100.8050770">
        <ele>1765.8</ele>
        <time>2022-08-20T13:24:32Z</time>
      </trkpt>
      <trkpt lat="25.4733430" lon="-100.8050270">
        <ele>1766.0</ele>
        <time>2022-08-20T13:24:33Z</time>
      </trkpt>
      <trkpt lat="25.4733660" lon="-100.8049800">
        <ele>1766.1</ele>
        <time>2022-08-20T13:24:35Z</time>
      </trkpt>
      <trkpt lat="25.4733890" lon="-100.8049420">
        <ele>1766.2</ele>
        <time>2022-08-20T13:24:36Z</time>
      </trkpt>
      <trkpt lat="25.4734120" lon="-100.8049050">
        <ele>1766.3</ele>
        <time>2022-08-20T13:24:37Z</time>
      </trkpt>
      <trkpt lat="25.4734500" lon="-100.8048400">
        <ele>1766.4</ele>
        <time>2022-08-20T13:24:38Z</time>
      </trkpt>
      <trkpt lat="25.4734890" lon="-100.8047830">
        <ele>1766.4</ele>
        <time>2022-08-20T13:24:40Z</time>
      </trkpt>
      <trkpt lat="25.4735200" lon="-100.8047370">
        <ele>1766.4</ele>
        <time>2022-08-20T13:24:41Z</time>
      </trkpt>
      <trkpt lat="25.4735540" lon="-100.8046870">
        <ele>1766.3</ele>
        <time>2022-08-20T13:24:42Z</time>
      </trkpt>
      <trkpt lat="25.4735890" lon="-100.8046340">
        <ele>1766.2</ele>
        <time>2022-08-20T13:24:43Z</time>
      </trkpt>
      <trkpt lat="25.4736200" lon="-100.8045830">
        <ele>1766.1</ele>
        <time>2022-08-20T13:24:44Z</time>
      </trkpt>
      <trkpt lat="25.4736330" lon="-100.8045610">
        <ele>1766.1</ele>
        <time>2022-08-20T13:24:45Z</time>
      </trkpt>
      <trkpt lat="25.4736340" lon="-100.8045570">
        <ele>1766.1</ele>
        <time>2022-08-20T13:24:46Z</time>
      </trkpt>
      <trkpt lat="25.4736670" lon="-100.8045100">
        <ele>1766.1</ele>
        <time>2022-08-20T13:24:48Z</time>
      </trkpt>
      <trkpt lat="25.4737000" lon="-100.8044660">
        <ele>1766.1</ele>
        <time>2022-08-20T13:24:49Z</time>
      </trkpt>
      <trkpt lat="25.4737860" lon="-100.8043570">
        <ele>1766.3</ele>
        <time>2022-08-20T13:24:50Z</time>
      </trkpt>
      <trkpt lat="25.4738560" lon="-100.8042700">
        <ele>1766.5</ele>
        <time>2022-08-20T13:24:51Z</time>
      </trkpt>
      <trkpt lat="25.4739080" lon="-100.8042070">
        <ele>1766.6</ele>
        <time>2022-08-20T13:24:52Z</time>
      </trkpt>
      <trkpt lat="25.4739490" lon="-100.8041570">
        <ele>1766.8</ele>
        <time>2022-08-20T13:24:53Z</time>
      </trkpt>
      <trkpt lat="25.4739850" lon="-100.8041130">
        <ele>1766.9</ele>
        <time>2022-08-20T13:24:54Z</time>
      </trkpt>
      <trkpt lat="25.4740090" lon="-100.8040830">
        <ele>1767.0</ele>
        <time>2022-08-20T13:24:55Z</time>
      </trkpt>
      <trkpt lat="25.4740490" lon="-100.8040420">
        <ele>1767.2</ele>
        <time>2022-08-20T13:24:56Z</time>
      </trkpt>
      <trkpt lat="25.4740710" lon="-100.8040150">
        <ele>1767.2</ele>
        <time>2022-08-20T13:24:57Z</time>
      </trkpt>
      <trkpt lat="25.4741110" lon="-100.8039620">
        <ele>1767.4</ele>
        <time>2022-08-20T13:24:59Z</time>
      </trkpt>
      <trkpt lat="25.4741430" lon="-100.8039230">
        <ele>1767.6</ele>
        <time>2022-08-20T13:25:00Z</time>
      </trkpt>
      <trkpt lat="25.4741710" lon="-100.8038890">
        <ele>1767.7</ele>
        <time>2022-08-20T13:25:01Z</time>
      </trkpt>
      <trkpt lat="25.4741990" lon="-100.8038530">
        <ele>1767.8</ele>
        <time>2022-08-20T13:25:02Z</time>
      </trkpt>
      <trkpt lat="25.4742360" lon="-100.8037990">
        <ele>1768.0</ele>
        <time>2022-08-20T13:25:03Z</time>
      </trkpt>
      <trkpt lat="25.4742580" lon="-100.8037620">
        <ele>1768.2</ele>
        <time>2022-08-20T13:25:04Z</time>
      </trkpt>
      <trkpt lat="25.4742960" lon="-100.8037000">
        <ele>1768.4</ele>
        <time>2022-08-20T13:25:06Z</time>
      </trkpt>
      <trkpt lat="25.4743320" lon="-100.8036420">
        <ele>1768.7</ele>
        <time>2022-08-20T13:25:07Z</time>
      </trkpt>
      <trkpt lat="25.4743700" lon="-100.8035820">
        <ele>1768.9</ele>
        <time>2022-08-20T13:25:09Z</time>
      </trkpt>
      <trkpt lat="25.4743930" lon="-100.8035450">
        <ele>1769.1</ele>
        <time>2022-08-20T13:25:10Z</time>
      </trkpt>
      <trkpt lat="25.4744060" lon="-100.8035250">
        <ele>1769.2</ele>
        <time>2022-08-20T13:25:11Z</time>
      </trkpt>
      <trkpt lat="25.4744110" lon="-100.8035180">
        <ele>1769.2</ele>
        <time>2022-08-20T13:25:12Z</time>
      </trkpt>
      <trkpt lat="25.4744230" lon="-100.8034920">
        <ele>1769.3</ele>
        <time>2022-08-20T13:25:13Z</time>
      </trkpt>
      <trkpt lat="25.4744300" lon="-100.8034770">
        <ele>1769.4</ele>
        <time>2022-08-20T13:25:14Z</time>
      </trkpt>
      <trkpt lat="25.4744360" lon="-100.8034620">
        <ele>1769.4</ele>
        <time>2022-08-20T13:25:15Z</time>
      </trkpt>
      <trkpt lat="25.4744620" lon="-100.8034100">
        <ele>1769.6</ele>
        <time>2022-08-20T13:25:16Z</time>
      </trkpt>
      <trkpt lat="25.4745060" lon="-100.8033430">
        <ele>1769.9</ele>
        <time>2022-08-20T13:25:18Z</time>
      </trkpt>
      <trkpt lat="25.4745830" lon="-100.8032060">
        <ele>1770.3</ele>
        <time>2022-08-20T13:25:19Z</time>
      </trkpt>
      <trkpt lat="25.4746230" lon="-100.8031330">
        <ele>1770.5</ele>
        <time>2022-08-20T13:25:20Z</time>
      </trkpt>
      <trkpt lat="25.4746510" lon="-100.8030770">
        <ele>1770.7</ele>
        <time>2022-08-20T13:25:21Z</time>
      </trkpt>
      <trkpt lat="25.4746750" lon="-100.8030320">
        <ele>1770.9</ele>
        <time>2022-08-20T13:25:22Z</time>
      </trkpt>
      <trkpt lat="25.4746910" lon="-100.8029960">
        <ele>1771.0</ele>
        <time>2022-08-20T13:25:23Z</time>
      </trkpt>
      <trkpt lat="25.4747120" lon="-100.8029540">
        <ele>1771.1</ele>
        <time>2022-08-20T13:25:24Z</time>
      </trkpt>
      <trkpt lat="25.4747410" lon="-100.8028980">
        <ele>1771.4</ele>
        <time>2022-08-20T13:25:25Z</time>
      </trkpt>
      <trkpt lat="25.4747690" lon="-100.8028400">
        <ele>1771.6</ele>
        <time>2022-08-20T13:25:26Z</time>
      </trkpt>
      <trkpt lat="25.4747850" lon="-100.8028040">
        <ele>1771.8</ele>
        <time>2022-08-20T13:25:27Z</time>
      </trkpt>
      <trkpt lat="25.4748080" lon="-100.8027600">
        <ele>1771.9</ele>
        <time>2022-08-20T13:25:29Z</time>
      </trkpt>
      <trkpt lat="25.4748300" lon="-100.8027220">
        <ele>1772.1</ele>
        <time>2022-08-20T13:25:30Z</time>
      </trkpt>
      <trkpt lat="25.4748530" lon="-100.8026820">
        <ele>1772.2</ele>
        <time>2022-08-20T13:25:31Z</time>
      </trkpt>
      <trkpt lat="25.4748770" lon="-100.8026340">
        <ele>1772.4</ele>
        <time>2022-08-20T13:25:32Z</time>
      </trkpt>
      <trkpt lat="25.4749020" lon="-100.8025870">
        <ele>1772.5</ele>
        <time>2022-08-20T13:25:33Z</time>
      </trkpt>
      <trkpt lat="25.4749250" lon="-100.8025330">
        <ele>1772.6</ele>
        <time>2022-08-20T13:25:34Z</time>
      </trkpt>
      <trkpt lat="25.4749480" lon="-100.8024830">
        <ele>1772.8</ele>
        <time>2022-08-20T13:25:35Z</time>
      </trkpt>
      <trkpt lat="25.4749680" lon="-100.8024310">
        <ele>1772.9</ele>
        <time>2022-08-20T13:25:36Z</time>
      </trkpt>
      <trkpt lat="25.4749910" lon="-100.8023820">
        <ele>1773.0</ele>
        <time>2022-08-20T13:25:38Z</time>
      </trkpt>
      <trkpt lat="25.4750180" lon="-100.8023340">
        <ele>1773.1</ele>
        <time>2022-08-20T13:25:39Z</time>
      </trkpt>
      <trkpt lat="25.4750490" lon="-100.8022810">
        <ele>1773.2</ele>
        <time>2022-08-20T13:25:40Z</time>
      </trkpt>
      <trkpt lat="25.4750780" lon="-100.8022350">
        <ele>1773.3</ele>
        <time>2022-08-20T13:25:41Z</time>
      </trkpt>
      <trkpt lat="25.4750980" lon="-100.8021960">
        <ele>1773.4</ele>
        <time>2022-08-20T13:25:42Z</time>
      </trkpt>
      <trkpt lat="25.4751210" lon="-100.8021500">
        <ele>1773.5</ele>
        <time>2022-08-20T13:25:43Z</time>
      </trkpt>
      <trkpt lat="25.4751420" lon="-100.8021070">
        <ele>1773.6</ele>
        <time>2022-08-20T13:25:45Z</time>
      </trkpt>
      <trkpt lat="25.4751660" lon="-100.8020560">
        <ele>1773.7</ele>
        <time>2022-08-20T13:25:46Z</time>
      </trkpt>
      <trkpt lat="25.4751880" lon="-100.8020020">
        <ele>1773.8</ele>
        <time>2022-08-20T13:25:47Z</time>
      </trkpt>
      <trkpt lat="25.4752160" lon="-100.8019360">
        <ele>1773.9</ele>
        <time>2022-08-20T13:25:48Z</time>
      </trkpt>
      <trkpt lat="25.4752340" lon="-100.8018910">
        <ele>1774.0</ele>
        <time>2022-08-20T13:25:49Z</time>
      </trkpt>
      <trkpt lat="25.4752680" lon="-100.8018140">
        <ele>1774.2</ele>
        <time>2022-08-20T13:25:51Z</time>
      </trkpt>
      <trkpt lat="25.4752930" lon="-100.8017620">
        <ele>1774.3</ele>
        <time>2022-08-20T13:25:52Z</time>
      </trkpt>
      <trkpt lat="25.4753210" lon="-100.8017020">
        <ele>1774.4</ele>
        <time>2022-08-20T13:25:54Z</time>
      </trkpt>
      <trkpt lat="25.4753530" lon="-100.8016390">
        <ele>1774.6</ele>
        <time>2022-08-20T13:25:55Z</time>
      </trkpt>
      <trkpt lat="25.4753780" lon="-100.8015880">
        <ele>1774.7</ele>
        <time>2022-08-20T13:25:56Z</time>
      </trkpt>
      <trkpt lat="25.4753880" lon="-100.8015650">
        <ele>1774.8</ele>
        <time>2022-08-20T13:25:58Z</time>
      </trkpt>
      <trkpt lat="25.4753960" lon="-100.8015600">
        <ele>1774.8</ele>
        <time>2022-08-20T13:25:59Z</time>
      </trkpt>
      <trkpt lat="25.4754170" lon="-100.8015180">
        <ele>1774.9</ele>
        <time>2022-08-20T13:26:00Z</time>
      </trkpt>
      <trkpt lat="25.4754260" lon="-100.8014980">
        <ele>1775.0</ele>
        <time>2022-08-20T13:26:01Z</time>
      </trkpt>
      <trkpt lat="25.4754470" lon="-100.8014550">
        <ele>1775.1</ele>
        <time>2022-08-20T13:26:02Z</time>
      </trkpt>
      <trkpt lat="25.4754860" lon="-100.8013760">
        <ele>1775.4</ele>
        <time>2022-08-20T13:26:04Z</time>
      </trkpt>
      <trkpt lat="25.4755150" lon="-100.8013250">
        <ele>1775.7</ele>
        <time>2022-08-20T13:26:05Z</time>
      </trkpt>
      <trkpt lat="25.4755400" lon="-100.8012820">
        <ele>1775.8</ele>
        <time>2022-08-20T13:26:06Z</time>
      </trkpt>
      <trkpt lat="25.4755710" lon="-100.8012300">
        <ele>1776.1</ele>
        <time>2022-08-20T13:26:07Z</time>
      </trkpt>
      <trkpt lat="25.4755980" lon="-100.8011890">
        <ele>1776.3</ele>
        <time>2022-08-20T13:26:08Z</time>
      </trkpt>
      <trkpt lat="25.4756270" lon="-100.8011360">
        <ele>1776.6</ele>
        <time>2022-08-20T13:26:09Z</time>
      </trkpt>
      <trkpt lat="25.4756460" lon="-100.8010920">
        <ele>1776.8</ele>
        <time>2022-08-20T13:26:10Z</time>
      </trkpt>
      <trkpt lat="25.4756710" lon="-100.8010480">
        <ele>1777.0</ele>
        <time>2022-08-20T13:26:11Z</time>
      </trkpt>
      <trkpt lat="25.4756960" lon="-100.8010110">
        <ele>1777.2</ele>
        <time>2022-08-20T13:26:12Z</time>
      </trkpt>
      <trkpt lat="25.4757200" lon="-100.8009710">
        <ele>1777.5</ele>
        <time>2022-08-20T13:26:13Z</time>
      </trkpt>
      <trkpt lat="25.4757410" lon="-100.8009300">
        <ele>1777.7</ele>
        <time>2022-08-20T13:26:15Z</time>
      </trkpt>
      <trkpt lat="25.4757620" lon="-100.8008930">
        <ele>1777.8</ele>
        <time>2022-08-20T13:26:16Z</time>
      </trkpt>
      <trkpt lat="25.4757970" lon="-100.8008240">
        <ele>1778.1</ele>
        <time>2022-08-20T13:26:17Z</time>
      </trkpt>
      <trkpt lat="25.4758250" lon="-100.8007840">
        <ele>1778.2</ele>
        <time>2022-08-20T13:26:18Z</time>
      </trkpt>
      <trkpt lat="25.4758530" lon="-100.8007390">
        <ele>1778.4</ele>
        <time>2022-08-20T13:26:20Z</time>
      </trkpt>
      <trkpt lat="25.4758950" lon="-100.8006600">
        <ele>1778.6</ele>
        <time>2022-08-20T13:26:21Z</time>
      </trkpt>
      <trkpt lat="25.4759230" lon="-100.8006180">
        <ele>1778.7</ele>
        <time>2022-08-20T13:26:23Z</time>
      </trkpt>
      <trkpt lat="25.4759620" lon="-100.8005580">
        <ele>1778.9</ele>
        <time>2022-08-20T13:26:24Z</time>
      </trkpt>
      <trkpt lat="25.4759970" lon="-100.8005100">
        <ele>1779.0</ele>
        <time>2022-08-20T13:26:26Z</time>
      </trkpt>
      <trkpt lat="25.4760480" lon="-100.8004340">
        <ele>1779.3</ele>
        <time>2022-08-20T13:26:27Z</time>
      </trkpt>
      <trkpt lat="25.4760780" lon="-100.8003860">
        <ele>1779.5</ele>
        <time>2022-08-20T13:26:29Z</time>
      </trkpt>
      <trkpt lat="25.4761070" lon="-100.8003460">
        <ele>1779.7</ele>
        <time>2022-08-20T13:26:30Z</time>
      </trkpt>
      <trkpt lat="25.4761130" lon="-100.8003380">
        <ele>1779.7</ele>
        <time>2022-08-20T13:26:31Z</time>
      </trkpt>
      <trkpt lat="25.4761200" lon="-100.8003310">
        <ele>1779.8</ele>
        <time>2022-08-20T13:26:32Z</time>
      </trkpt>
      <trkpt lat="25.4761440" lon="-100.8002920">
        <ele>1779.9</ele>
        <time>2022-08-20T13:26:34Z</time>
      </trkpt>
      <trkpt lat="25.4761680" lon="-100.8002580">
        <ele>1780.1</ele>
        <time>2022-08-20T13:26:35Z</time>
      </trkpt>
      <trkpt lat="25.4761980" lon="-100.8002130">
        <ele>1780.3</ele>
        <time>2022-08-20T13:26:36Z</time>
      </trkpt>
      <trkpt lat="25.4762360" lon="-100.8001530">
        <ele>1780.7</ele>
        <time>2022-08-20T13:26:37Z</time>
      </trkpt>
      <trkpt lat="25.4762650" lon="-100.8001050">
        <ele>1780.9</ele>
        <time>2022-08-20T13:26:38Z</time>
      </trkpt>
      <trkpt lat="25.4762850" lon="-100.8000640">
        <ele>1781.1</ele>
        <time>2022-08-20T13:26:39Z</time>
      </trkpt>
      <trkpt lat="25.4763090" lon="-100.8000150">
        <ele>1781.3</ele>
        <time>2022-08-20T13:26:40Z</time>
      </trkpt>
      <trkpt lat="25.4763260" lon="-100.7999770">
        <ele>1781.5</ele>
        <time>2022-08-20T13:26:41Z</time>
      </trkpt>
      <trkpt lat="25.4763460" lon="-100.7999240">
        <ele>1781.7</ele>
        <time>2022-08-20T13:26:42Z</time>
      </trkpt>
      <trkpt lat="25.4763610" lon="-100.7998700">
        <ele>1781.9</ele>
        <time>2022-08-20T13:26:44Z</time>
      </trkpt>
      <trkpt lat="25.4763770" lon="-100.7997990">
        <ele>1782.1</ele>
        <time>2022-08-20T13:26:45Z</time>
      </trkpt>
      <trkpt lat="25.4763960" lon="-100.7997400">
        <ele>1782.3</ele>
        <time>2022-08-20T13:26:47Z</time>
      </trkpt>
      <trkpt lat="25.4764100" lon="-100.7996960">
        <ele>1782.4</ele>
        <time>2022-08-20T13:26:48Z</time>
      </trkpt>
      <trkpt lat="25.4764250" lon="-100.7996460">
        <ele>1782.6</ele>
        <time>2022-08-20T13:26:49Z</time>
      </trkpt>
      <trkpt lat="25.4764410" lon="-100.7995920">
        <ele>1782.7</ele>
        <time>2022-08-20T13:26:50Z</time>
      </trkpt>
      <trkpt lat="25.4764620" lon="-100.7995350">
        <ele>1782.9</ele>
        <time>2022-08-20T13:26:51Z</time>
      </trkpt>
      <trkpt lat="25.4764780" lon="-100.7994720">
        <ele>1783.0</ele>
        <time>2022-08-20T13:26:53Z</time>
      </trkpt>
      <trkpt lat="25.4764970" lon="-100.7993960">
        <ele>1783.2</ele>
        <time>2022-08-20T13:26:54Z</time>
      </trkpt>
      <trkpt lat="25.4765180" lon="-100.7993410">
        <ele>1783.4</ele>
        <time>2022-08-20T13:26:56Z</time>
      </trkpt>
      <trkpt lat="25.4765290" lon="-100.7992790">
        <ele>1783.5</ele>
        <time>2022-08-20T13:26:57Z</time>
      </trkpt>
      <trkpt lat="25.4765390" lon="-100.7992360">
        <ele>1783.6</ele>
        <time>2022-08-20T13:26:58Z</time>
      </trkpt>
      <trkpt lat="25.4765510" lon="-100.7991810">
        <ele>1783.7</ele>
        <time>2022-08-20T13:26:59Z</time>
      </trkpt>
      <trkpt lat="25.4765630" lon="-100.7991330">
        <ele>1783.8</ele>
        <time>2022-08-20T13:27:00Z</time>
      </trkpt>
      <trkpt lat="25.4765720" lon="-100.7990830">
        <ele>1784.0</ele>
        <time>2022-08-20T13:27:02Z</time>
      </trkpt>
      <trkpt lat="25.4765820" lon="-100.7990370">
        <ele>1784.1</ele>
        <time>2022-08-20T13:27:03Z</time>
      </trkpt>
      <trkpt lat="25.4765890" lon="-100.7989930">
        <ele>1784.2</ele>
        <time>2022-08-20T13:27:04Z</time>
      </trkpt>
      <trkpt lat="25.4765960" lon="-100.7989480">
        <ele>1784.3</ele>
        <time>2022-08-20T13:27:05Z</time>
      </trkpt>
      <trkpt lat="25.4766080" lon="-100.7988970">
        <ele>1784.4</ele>
        <time>2022-08-20T13:27:06Z</time>
      </trkpt>
      <trkpt lat="25.4766090" lon="-100.7988880">
        <ele>1784.4</ele>
        <time>2022-08-20T13:27:07Z</time>
      </trkpt>
      <trkpt lat="25.4766180" lon="-100.7988750">
        <ele>1784.4</ele>
        <time>2022-08-20T13:27:09Z</time>
      </trkpt>
      <trkpt lat="25.4766250" lon="-100.7988630">
        <ele>1784.5</ele>
        <time>2022-08-20T13:27:10Z</time>
      </trkpt>
      <trkpt lat="25.4766480" lon="-100.7988110">
        <ele>1784.6</ele>
        <time>2022-08-20T13:27:11Z</time>
      </trkpt>
      <trkpt lat="25.4766600" lon="-100.7987830">
        <ele>1784.7</ele>
        <time>2022-08-20T13:27:12Z</time>
      </trkpt>
      <trkpt lat="25.4766910" lon="-100.7987230">
        <ele>1784.8</ele>
        <time>2022-08-20T13:27:13Z</time>
      </trkpt>
      <trkpt lat="25.4767330" lon="-100.7986490">
        <ele>1784.9</ele>
        <time>2022-08-20T13:27:15Z</time>
      </trkpt>
      <trkpt lat="25.4767650" lon="-100.7985850">
        <ele>1785.1</ele>
        <time>2022-08-20T13:27:16Z</time>
      </trkpt>
      <trkpt lat="25.4768090" lon="-100.7984990">
        <ele>1785.2</ele>
        <time>2022-08-20T13:27:17Z</time>
      </trkpt>
      <trkpt lat="25.4768320" lon="-100.7984540">
        <ele>1785.3</ele>
        <time>2022-08-20T13:27:18Z</time>
      </trkpt>
      <trkpt lat="25.4768570" lon="-100.7984070">
        <ele>1785.4</ele>
        <time>2022-08-20T13:27:19Z</time>
      </trkpt>
      <trkpt lat="25.4768860" lon="-100.7983520">
        <ele>1785.5</ele>
        <time>2022-08-20T13:27:20Z</time>
      </trkpt>
      <trkpt lat="25.4769100" lon="-100.7983040">
        <ele>1785.6</ele>
        <time>2022-08-20T13:27:21Z</time>
      </trkpt>
      <trkpt lat="25.4769310" lon="-100.7982600">
        <ele>1785.7</ele>
        <time>2022-08-20T13:27:23Z</time>
      </trkpt>
      <trkpt lat="25.4769490" lon="-100.7982140">
        <ele>1785.8</ele>
        <time>2022-08-20T13:27:24Z</time>
      </trkpt>
      <trkpt lat="25.4769630" lon="-100.7981660">
        <ele>1785.9</ele>
        <time>2022-08-20T13:27:25Z</time>
      </trkpt>
      <trkpt lat="25.4769800" lon="-100.7981070">
        <ele>1786.0</ele>
        <time>2022-08-20T13:27:26Z</time>
      </trkpt>
      <trkpt lat="25.4769930" lon="-100.7980650">
        <ele>1786.1</ele>
        <time>2022-08-20T13:27:27Z</time>
      </trkpt>
      <trkpt lat="25.4770080" lon="-100.7980060">
        <ele>1786.3</ele>
        <time>2022-08-20T13:27:28Z</time>
      </trkpt>
      <trkpt lat="25.4770200" lon="-100.7979640">
        <ele>1786.4</ele>
        <time>2022-08-20T13:27:29Z</time>
      </trkpt>
      <trkpt lat="25.4770330" lon="-100.7979240">
        <ele>1786.6</ele>
        <time>2022-08-20T13:27:30Z</time>
      </trkpt>
      <trkpt lat="25.4770450" lon="-100.7978650">
        <ele>1786.8</ele>
        <time>2022-08-20T13:27:32Z</time>
      </trkpt>
      <trkpt lat="25.4770550" lon="-100.7978280">
        <ele>1787.0</ele>
        <time>2022-08-20T13:27:33Z</time>
      </trkpt>
      <trkpt lat="25.4770630" lon="-100.7977890">
        <ele>1787.2</ele>
        <time>2022-08-20T13:27:34Z</time>
      </trkpt>
      <trkpt lat="25.4770730" lon="-100.7977500">
        <ele>1787.4</ele>
        <time>2022-08-20T13:27:35Z</time>
      </trkpt>
      <trkpt lat="25.4770870" lon="-100.7977130">
        <ele>1787.6</ele>
        <time>2022-08-20T13:27:37Z</time>
      </trkpt>
      <trkpt lat="25.4771030" lon="-100.7976820">
        <ele>1787.8</ele>
        <time>2022-08-20T13:27:38Z</time>
      </trkpt>
      <trkpt lat="25.4771160" lon="-100.7976500">
        <ele>1788.0</ele>
        <time>2022-08-20T13:27:39Z</time>
      </trkpt>
      <trkpt lat="25.4771300" lon="-100.7976120">
        <ele>1788.3</ele>
        <time>2022-08-20T13:27:40Z</time>
      </trkpt>
      <trkpt lat="25.4771400" lon="-100.7975840">
        <ele>1788.5</ele>
        <time>2022-08-20T13:27:41Z</time>
      </trkpt>
      <trkpt lat="25.4771530" lon="-100.7975450">
        <ele>1788.8</ele>
        <time>2022-08-20T13:27:43Z</time>
      </trkpt>
      <trkpt lat="25.4771660" lon="-100.7975170">
        <ele>1789.0</ele>
        <time>2022-08-20T13:27:44Z</time>
      </trkpt>
      <trkpt lat="25.4771790" lon="-100.7974870">
        <ele>1789.2</ele>
        <time>2022-08-20T13:27:45Z</time>
      </trkpt>
      <trkpt lat="25.4771910" lon="-100.7974600">
        <ele>1789.4</ele>
        <time>2022-08-20T13:27:46Z</time>
      </trkpt>
      <trkpt lat="25.4772070" lon="-100.7974270">
        <ele>1789.7</ele>
        <time>2022-08-20T13:27:47Z</time>
      </trkpt>
      <trkpt lat="25.4772270" lon="-100.7973820">
        <ele>1790.0</ele>
        <time>2022-08-20T13:27:48Z</time>
      </trkpt>
      <trkpt lat="25.4772400" lon="-100.7973530">
        <ele>1790.2</ele>
        <time>2022-08-20T13:27:50Z</time>
      </trkpt>
      <trkpt lat="25.4772460" lon="-100.7973410">
        <ele>1790.3</ele>
        <time>2022-08-20T13:27:51Z</time>
      </trkpt>
      <trkpt lat="25.4772610" lon="-100.7973190">
        <ele>1790.5</ele>
        <time>2022-08-20T13:27:53Z</time>
      </trkpt>
      <trkpt lat="25.4772750" lon="-100.7972860">
        <ele>1790.7</ele>
        <time>2022-08-20T13:27:54Z</time>
      </trkpt>
      <trkpt lat="25.4772890" lon="-100.7972540">
        <ele>1790.9</ele>
        <time>2022-08-20T13:27:55Z</time>
      </trkpt>
      <trkpt lat="25.4773010" lon="-100.7972250">
        <ele>1791.1</ele>
        <time>2022-08-20T13:27:56Z</time>
      </trkpt>
      <trkpt lat="25.4773220" lon="-100.7971660">
        <ele>1791.3</ele>
        <time>2022-08-20T13:27:58Z</time>
      </trkpt>
      <trkpt lat="25.4773330" lon="-100.7971370">
        <ele>1791.4</ele>
        <time>2022-08-20T13:27:59Z</time>
      </trkpt>
      <trkpt lat="25.4773450" lon="-100.7970990">
        <ele>1791.5</ele>
        <time>2022-08-20T13:28:01Z</time>
      </trkpt>
      <trkpt lat="25.4773590" lon="-100.7970680">
        <ele>1791.5</ele>
        <time>2022-08-20T13:28:02Z</time>
      </trkpt>
      <trkpt lat="25.4773780" lon="-100.7970410">
        <ele>1791.6</ele>
        <time>2022-08-20T13:28:03Z</time>
      </trkpt>
      <trkpt lat="25.4774170" lon="-100.7969650">
        <ele>1791.6</ele>
        <time>2022-08-20T13:28:04Z</time>
      </trkpt>
      <trkpt lat="25.4774540" lon="-100.7968960">
        <ele>1791.6</ele>
        <time>2022-08-20T13:28:06Z</time>
      </trkpt>
      <trkpt lat="25.4774780" lon="-100.7968510">
        <ele>1791.6</ele>
        <time>2022-08-20T13:28:07Z</time>
      </trkpt>
      <trkpt lat="25.4775160" lon="-100.7967840">
        <ele>1791.6</ele>
        <time>2022-08-20T13:28:08Z</time>
      </trkpt>
      <trkpt lat="25.4775550" lon="-100.7967210">
        <ele>1791.7</ele>
        <time>2022-08-20T13:28:10Z</time>
      </trkpt>
      <trkpt lat="25.4775820" lon="-100.7966830">
        <ele>1791.7</ele>
        <time>2022-08-20T13:28:11Z</time>
      </trkpt>
      <trkpt lat="25.4776180" lon="-100.7966280">
        <ele>1791.9</ele>
        <time>2022-08-20T13:28:12Z</time>
      </trkpt>
      <trkpt lat="25.4776810" lon="-100.7965350">
        <ele>1792.2</ele>
        <time>2022-08-20T13:28:14Z</time>
      </trkpt>
      <trkpt lat="25.4777020" lon="-100.7964970">
        <ele>1792.4</ele>
        <time>2022-08-20T13:28:16Z</time>
      </trkpt>
      <trkpt lat="25.4777220" lon="-100.7964610">
        <ele>1792.6</ele>
        <time>2022-08-20T13:28:17Z</time>
      </trkpt>
      <trkpt lat="25.4777540" lon="-100.7963950">
        <ele>1793.0</ele>
        <time>2022-08-20T13:28:18Z</time>
      </trkpt>
      <trkpt lat="25.4777740" lon="-100.7963530">
        <ele>1793.2</ele>
        <time>2022-08-20T13:28:20Z</time>
      </trkpt>
      <trkpt lat="25.4777950" lon="-100.7963030">
        <ele>1793.6</ele>
        <time>2022-08-20T13:28:21Z</time>
      </trkpt>
      <trkpt lat="25.4778170" lon="-100.7962520">
        <ele>1793.9</ele>
        <time>2022-08-20T13:28:22Z</time>
      </trkpt>
      <trkpt lat="25.4778370" lon="-100.7962040">
        <ele>1794.3</ele>
        <time>2022-08-20T13:28:24Z</time>
      </trkpt>
      <trkpt lat="25.4778460" lon="-100.7961820">
        <ele>1794.5</ele>
        <time>2022-08-20T13:28:25Z</time>
      </trkpt>
      <trkpt lat="25.4778540" lon="-100.7961580">
        <ele>1794.7</ele>
        <time>2022-08-20T13:28:27Z</time>
      </trkpt>
      <trkpt lat="25.4778610" lon="-100.7961250">
        <ele>1795.0</ele>
        <time>2022-08-20T13:28:28Z</time>
      </trkpt>
      <trkpt lat="25.4778630" lon="-100.7961130">
        <ele>1795.1</ele>
        <time>2022-08-20T13:28:29Z</time>
      </trkpt>
      <trkpt lat="25.4778640" lon="-100.7960820">
        <ele>1795.4</ele>
        <time>2022-08-20T13:28:30Z</time>
      </trkpt>
      <trkpt lat="25.4778680" lon="-100.7960400">
        <ele>1795.7</ele>
        <time>2022-08-20T13:28:31Z</time>
      </trkpt>
      <trkpt lat="25.4778690" lon="-100.7960260">
        <ele>1795.9</ele>
        <time>2022-08-20T13:28:32Z</time>
      </trkpt>
      <trkpt lat="25.4778720" lon="-100.7959900">
        <ele>1796.2</ele>
        <time>2022-08-20T13:28:33Z</time>
      </trkpt>
      <trkpt lat="25.4778740" lon="-100.7959780">
        <ele>1796.3</ele>
        <time>2022-08-20T13:28:34Z</time>
      </trkpt>
      <trkpt lat="25.4778810" lon="-100.7959490">
        <ele>1796.5</ele>
        <time>2022-08-20T13:28:35Z</time>
      </trkpt>
      <trkpt lat="25.4778840" lon="-100.7959380">
        <ele>1796.6</ele>
        <time>2022-08-20T13:28:36Z</time>
      </trkpt>
      <trkpt lat="25.4778890" lon="-100.7959080">
        <ele>1796.9</ele>
        <time>2022-08-20T13:28:37Z</time>
      </trkpt>
      <trkpt lat="25.4778900" lon="-100.7958840">
        <ele>1797.2</ele>
        <time>2022-08-20T13:28:38Z</time>
      </trkpt>
      <trkpt lat="25.4778940" lon="-100.7958540">
        <ele>1797.5</ele>
        <time>2022-08-20T13:28:40Z</time>
      </trkpt>
      <trkpt lat="25.4779000" lon="-100.7958150">
        <ele>1797.8</ele>
        <time>2022-08-20T13:28:41Z</time>
      </trkpt>
      <trkpt lat="25.4779020" lon="-100.7958030">
        <ele>1798.0</ele>
        <time>2022-08-20T13:28:42Z</time>
      </trkpt>
      <trkpt lat="25.4779060" lon="-100.7957590">
        <ele>1798.4</ele>
        <time>2022-08-20T13:28:43Z</time>
      </trkpt>
      <trkpt lat="25.4779080" lon="-100.7957330">
        <ele>1798.6</ele>
        <time>2022-08-20T13:28:44Z</time>
      </trkpt>
      <trkpt lat="25.4779050" lon="-100.7957340">
        <ele>1798.7</ele>
        <time>2022-08-20T13:28:45Z</time>
      </trkpt>
      <trkpt lat="25.4779080" lon="-100.7957220">
        <ele>1798.8</ele>
        <time>2022-08-20T13:28:47Z</time>
      </trkpt>
      <trkpt lat="25.4779130" lon="-100.7956830">
        <ele>1799.2</ele>
        <time>2022-08-20T13:28:48Z</time>
      </trkpt>
      <trkpt lat="25.4779200" lon="-100.7956430">
        <ele>1799.6</ele>
        <time>2022-08-20T13:28:49Z</time>
      </trkpt>
      <trkpt lat="25.4779250" lon="-100.7956150">
        <ele>1799.9</ele>
        <time>2022-08-20T13:28:50Z</time>
      </trkpt>
      <trkpt lat="25.4779290" lon="-100.7955560">
        <ele>1800.4</ele>
        <time>2022-08-20T13:28:52Z</time>
      </trkpt>
      <trkpt lat="25.4779320" lon="-100.7955340">
        <ele>1800.6</ele>
        <time>2022-08-20T13:28:54Z</time>
      </trkpt>
      <trkpt lat="25.4779360" lon="-100.7955000">
        <ele>1800.9</ele>
        <time>2022-08-20T13:28:55Z</time>
      </trkpt>
      <trkpt lat="25.4779390" lon="-100.7954880">
        <ele>1801.0</ele>
        <time>2022-08-20T13:28:56Z</time>
      </trkpt>
      <trkpt lat="25.4779480" lon="-100.7954480">
        <ele>1801.3</ele>
        <time>2022-08-20T13:28:57Z</time>
      </trkpt>
      <trkpt lat="25.4779510" lon="-100.7954300">
        <ele>1801.5</ele>
        <time>2022-08-20T13:28:58Z</time>
      </trkpt>
      <trkpt lat="25.4779560" lon="-100.7954000">
        <ele>1801.7</ele>
        <time>2022-08-20T13:28:59Z</time>
      </trkpt>
      <trkpt lat="25.4779600" lon="-100.7953670">
        <ele>1802.0</ele>
        <time>2022-08-20T13:29:00Z</time>
      </trkpt>
      <trkpt lat="25.4779660" lon="-100.7953260">
        <ele>1802.2</ele>
        <time>2022-08-20T13:29:01Z</time>
      </trkpt>
      <trkpt lat="25.4779730" lon="-100.7952630">
        <ele>1802.6</ele>
        <time>2022-08-20T13:29:03Z</time>
      </trkpt>
      <trkpt lat="25.4779730" lon="-100.7952280">
        <ele>1802.8</ele>
        <time>2022-08-20T13:29:05Z</time>
      </trkpt>
      <trkpt lat="25.4779750" lon="-100.7951950">
        <ele>1803.0</ele>
        <time>2022-08-20T13:29:06Z</time>
      </trkpt>
      <trkpt lat="25.4779810" lon="-100.7951590">
        <ele>1803.2</ele>
        <time>2022-08-20T13:29:07Z</time>
      </trkpt>
      <trkpt lat="25.4779850" lon="-100.7951210">
        <ele>1803.4</ele>
        <time>2022-08-20T13:29:09Z</time>
      </trkpt>
      <trkpt lat="25.4779860" lon="-100.7951080">
        <ele>1803.5</ele>
        <time>2022-08-20T13:29:10Z</time>
      </trkpt>
      <trkpt lat="25.4779900" lon="-100.7950660">
        <ele>1803.7</ele>
        <time>2022-08-20T13:29:11Z</time>
      </trkpt>
      <trkpt lat="25.4779950" lon="-100.7950300">
        <ele>1803.8</ele>
        <time>2022-08-20T13:29:12Z</time>
      </trkpt>
      <trkpt lat="25.4779980" lon="-100.7949890">
        <ele>1804.0</ele>
        <time>2022-08-20T13:29:14Z</time>
      </trkpt>
      <trkpt lat="25.4780010" lon="-100.7949750">
        <ele>1804.1</ele>
        <time>2022-08-20T13:29:15Z</time>
      </trkpt>
      <trkpt lat="25.4780090" lon="-100.7949390">
        <ele>1804.2</ele>
        <time>2022-08-20T13:29:16Z</time>
      </trkpt>
      <trkpt lat="25.4780110" lon="-100.7949060">
        <ele>1804.3</ele>
        <time>2022-08-20T13:29:17Z</time>
      </trkpt>
      <trkpt lat="25.4780140" lon="-100.7948700">
        <ele>1804.5</ele>
        <time>2022-08-20T13:29:19Z</time>
      </trkpt>
      <trkpt lat="25.4780190" lon="-100.7948170">
        <ele>1804.7</ele>
        <time>2022-08-20T13:29:20Z</time>
      </trkpt>
      <trkpt lat="25.4780170" lon="-100.7947660">
        <ele>1804.9</ele>
        <time>2022-08-20T13:29:22Z</time>
      </trkpt>
      <trkpt lat="25.4780170" lon="-100.7947500">
        <ele>1805.0</ele>
        <time>2022-08-20T13:29:23Z</time>
      </trkpt>
      <trkpt lat="25.4780180" lon="-100.7947330">
        <ele>1805.0</ele>
        <time>2022-08-20T13:29:24Z</time>
      </trkpt>
      <trkpt lat="25.4780200" lon="-100.7946940">
        <ele>1805.2</ele>
        <time>2022-08-20T13:29:25Z</time>
      </trkpt>
      <trkpt lat="25.4780220" lon="-100.7946740">
        <ele>1805.3</ele>
        <time>2022-08-20T13:29:26Z</time>
      </trkpt>
      <trkpt lat="25.4780240" lon="-100.7946350">
        <ele>1805.4</ele>
        <time>2022-08-20T13:29:28Z</time>
      </trkpt>
      <trkpt lat="25.4780240" lon="-100.7946230">
        <ele>1805.5</ele>
        <time>2022-08-20T13:29:29Z</time>
      </trkpt>
      <trkpt lat="25.4780300" lon="-100.7945820">
        <ele>1805.6</ele>
        <time>2022-08-20T13:29:30Z</time>
      </trkpt>
      <trkpt lat="25.4780330" lon="-100.7945650">
        <ele>1805.7</ele>
        <time>2022-08-20T13:29:31Z</time>
      </trkpt>
      <trkpt lat="25.4780370" lon="-100.7945320">
        <ele>1805.9</ele>
        <time>2022-08-20T13:29:33Z</time>
      </trkpt>
      <trkpt lat="25.4780440" lon="-100.7945000">
        <ele>1806.0</ele>
        <time>2022-08-20T13:29:34Z</time>
      </trkpt>
      <trkpt lat="25.4780430" lon="-100.7944750">
        <ele>1806.1</ele>
        <time>2022-08-20T13:29:35Z</time>
      </trkpt>
      <trkpt lat="25.4780440" lon="-100.7944380">
        <ele>1806.3</ele>
        <time>2022-08-20T13:29:37Z</time>
      </trkpt>
      <trkpt lat="25.4780550" lon="-100.7944100">
        <ele>1806.4</ele>
        <time>2022-08-20T13:29:38Z</time>
      </trkpt>
      <trkpt lat="25.4780580" lon="-100.7943990">
        <ele>1806.5</ele>
        <time>2022-08-20T13:29:39Z</time>
      </trkpt>
      <trkpt lat="25.4780680" lon="-100.7943610">
        <ele>1806.6</ele>
        <time>2022-08-20T13:29:41Z</time>
      </trkpt>
      <trkpt lat="25.4780710" lon="-100.7943490">
        <ele>1806.7</ele>
        <time>2022-08-20T13:29:42Z</time>
      </trkpt>
      <trkpt lat="25.4780810" lon="-100.7943190">
        <ele>1806.8</ele>
        <time>2022-08-20T13:29:43Z</time>
      </trkpt>
      <trkpt lat="25.4780910" lon="-100.7942730">
        <ele>1807.0</ele>
        <time>2022-08-20T13:29:45Z</time>
      </trkpt>
      <trkpt lat="25.4780940" lon="-100.7942540">
        <ele>1807.1</ele>
        <time>2022-08-20T13:29:46Z</time>
      </trkpt>
      <trkpt lat="25.4780990" lon="-100.7942290">
        <ele>1807.2</ele>
        <time>2022-08-20T13:29:47Z</time>
      </trkpt>
      <trkpt lat="25.4781070" lon="-100.7941900">
        <ele>1807.3</ele>
        <time>2022-08-20T13:29:49Z</time>
      </trkpt>
      <trkpt lat="25.4781140" lon="-100.7941520">
        <ele>1807.3</ele>
        <time>2022-08-20T13:29:50Z</time>
      </trkpt>
      <trkpt lat="25.4781230" lon="-100.7941020">
        <ele>1807.4</ele>
        <time>2022-08-20T13:29:52Z</time>
      </trkpt>
      <trkpt lat="25.4781310" lon="-100.7940610">
        <ele>1807.3</ele>
        <time>2022-08-20T13:29:53Z</time>
      </trkpt>
      <trkpt lat="25.4781360" lon="-100.7940480">
        <ele>1807.3</ele>
        <time>2022-08-20T13:29:54Z</time>
      </trkpt>
      <trkpt lat="25.4781450" lon="-100.7940180">
        <ele>1807.3</ele>
        <time>2022-08-20T13:29:55Z</time>
      </trkpt>
      <trkpt lat="25.4781540" lon="-100.7939670">
        <ele>1807.1</ele>
        <time>2022-08-20T13:29:56Z</time>
      </trkpt>
      <trkpt lat="25.4781770" lon="-100.7938550">
        <ele>1806.5</ele>
        <time>2022-08-20T13:29:58Z</time>
      </trkpt>
      <trkpt lat="25.4781910" lon="-100.7937910">
        <ele>1806.2</ele>
        <time>2022-08-20T13:29:59Z</time>
      </trkpt>
      <trkpt lat="25.4782070" lon="-100.7937250">
        <ele>1805.7</ele>
        <time>2022-08-20T13:30:00Z</time>
      </trkpt>
      <trkpt lat="25.4782210" lon="-100.7936550">
        <ele>1805.2</ele>
        <time>2022-08-20T13:30:01Z</time>
      </trkpt>
      <trkpt lat="25.4782330" lon="-100.7935810">
        <ele>1804.6</ele>
        <time>2022-08-20T13:30:02Z</time>
      </trkpt>
      <trkpt lat="25.4782420" lon="-100.7935040">
        <ele>1804.0</ele>
        <time>2022-08-20T13:30:03Z</time>
      </trkpt>
      <trkpt lat="25.4782510" lon="-100.7934200">
        <ele>1803.4</ele>
        <time>2022-08-20T13:30:04Z</time>
      </trkpt>
      <trkpt lat="25.4782620" lon="-100.7933270">
        <ele>1802.8</ele>
        <time>2022-08-20T13:30:05Z</time>
      </trkpt>
      <trkpt lat="25.4782750" lon="-100.7932300">
        <ele>1802.2</ele>
        <time>2022-08-20T13:30:06Z</time>
      </trkpt>
      <trkpt lat="25.4782860" lon="-100.7931290">
        <ele>1801.8</ele>
        <time>2022-08-20T13:30:07Z</time>
      </trkpt>
      <trkpt lat="25.4782960" lon="-100.7930290">
        <ele>1801.5</ele>
        <time>2022-08-20T13:30:08Z</time>
      </trkpt>
      <trkpt lat="25.4783010" lon="-100.7929350">
        <ele>1801.3</ele>
        <time>2022-08-20T13:30:09Z</time>
      </trkpt>
      <trkpt lat="25.4783050" lon="-100.7928470">
        <ele>1801.3</ele>
        <time>2022-08-20T13:30:10Z</time>
      </trkpt>
      <trkpt lat="25.4783070" lon="-100.7927690">
        <ele>1801.2</ele>
        <time>2022-08-20T13:30:11Z</time>
      </trkpt>
      <trkpt lat="25.4783090" lon="-100.7926990">
        <ele>1801.3</ele>
        <time>2022-08-20T13:30:12Z</time>
      </trkpt>
      <trkpt lat="25.4783100" lon="-100.7926330">
        <ele>1801.4</ele>
        <time>2022-08-20T13:30:13Z</time>
      </trkpt>
      <trkpt lat="25.4783110" lon="-100.7925710">
        <ele>1801.5</ele>
        <time>2022-08-20T13:30:14Z</time>
      </trkpt>
      <trkpt lat="25.4783130" lon="-100.7925100">
        <ele>1801.6</ele>
        <time>2022-08-20T13:30:15Z</time>
      </trkpt>
      <trkpt lat="25.4783140" lon="-100.7924520">
        <ele>1801.7</ele>
        <time>2022-08-20T13:30:16Z</time>
      </trkpt>
      <trkpt lat="25.4783160" lon="-100.7923950">
        <ele>1801.9</ele>
        <time>2022-08-20T13:30:17Z</time>
      </trkpt>
      <trkpt lat="25.4783180" lon="-100.7923400">
        <ele>1802.0</ele>
        <time>2022-08-20T13:30:18Z</time>
      </trkpt>
      <trkpt lat="25.4783200" lon="-100.7922860">
        <ele>1802.2</ele>
        <time>2022-08-20T13:30:19Z</time>
      </trkpt>
      <trkpt lat="25.4783230" lon="-100.7922330">
        <ele>1802.3</ele>
        <time>2022-08-20T13:30:20Z</time>
      </trkpt>
      <trkpt lat="25.4783250" lon="-100.7921780">
        <ele>1802.5</ele>
        <time>2022-08-20T13:30:21Z</time>
      </trkpt>
      <trkpt lat="25.4783290" lon="-100.7921220">
        <ele>1802.6</ele>
        <time>2022-08-20T13:30:22Z</time>
      </trkpt>
      <trkpt lat="25.4783330" lon="-100.7920670">
        <ele>1802.8</ele>
        <time>2022-08-20T13:30:23Z</time>
      </trkpt>
      <trkpt lat="25.4783380" lon="-100.7920140">
        <ele>1803.0</ele>
        <time>2022-08-20T13:30:24Z</time>
      </trkpt>
      <trkpt lat="25.4783420" lon="-100.7919620">
        <ele>1803.2</ele>
        <time>2022-08-20T13:30:25Z</time>
      </trkpt>
      <trkpt lat="25.4783460" lon="-100.7919120">
        <ele>1803.4</ele>
        <time>2022-08-20T13:30:26Z</time>
      </trkpt>
      <trkpt lat="25.4783490" lon="-100.7918610">
        <ele>1803.5</ele>
        <time>2022-08-20T13:30:27Z</time>
      </trkpt>
      <trkpt lat="25.4783520" lon="-100.7918100">
        <ele>1803.7</ele>
        <time>2022-08-20T13:30:28Z</time>
      </trkpt>
      <trkpt lat="25.4783540" lon="-100.7917600">
        <ele>1803.9</ele>
        <time>2022-08-20T13:30:29Z</time>
      </trkpt>
      <trkpt lat="25.4783580" lon="-100.7917100">
        <ele>1804.1</ele>
        <time>2022-08-20T13:30:30Z</time>
      </trkpt>
      <trkpt lat="25.4783640" lon="-100.7916600">
        <ele>1804.3</ele>
        <time>2022-08-20T13:30:31Z</time>
      </trkpt>
      <trkpt lat="25.4783690" lon="-100.7916220">
        <ele>1804.4</ele>
        <time>2022-08-20T13:30:32Z</time>
      </trkpt>
      <trkpt lat="25.4783740" lon="-100.7915640">
        <ele>1804.6</ele>
        <time>2022-08-20T13:30:33Z</time>
      </trkpt>
      <trkpt lat="25.4783760" lon="-100.7915220">
        <ele>1804.8</ele>
        <time>2022-08-20T13:30:34Z</time>
      </trkpt>
      <trkpt lat="25.4783770" lon="-100.7914760">
        <ele>1805.0</ele>
        <time>2022-08-20T13:30:35Z</time>
      </trkpt>
      <trkpt lat="25.4783770" lon="-100.7914380">
        <ele>1805.2</ele>
        <time>2022-08-20T13:30:36Z</time>
      </trkpt>
      <trkpt lat="25.4783770" lon="-100.7913890">
        <ele>1805.4</ele>
        <time>2022-08-20T13:30:37Z</time>
      </trkpt>
      <trkpt lat="25.4783780" lon="-100.7913520">
        <ele>1805.7</ele>
        <time>2022-08-20T13:30:38Z</time>
      </trkpt>
      <trkpt lat="25.4783780" lon="-100.7913040">
        <ele>1806.0</ele>
        <time>2022-08-20T13:30:39Z</time>
      </trkpt>
      <trkpt lat="25.4783550" lon="-100.7912840">
        <ele>1806.2</ele>
        <time>2022-08-20T13:30:40Z</time>
      </trkpt>
      <trkpt lat="25.4783460" lon="-100.7912450">
        <ele>1806.5</ele>
        <time>2022-08-20T13:30:41Z</time>
      </trkpt>
      <trkpt lat="25.4783510" lon="-100.7912200">
        <ele>1806.6</ele>
        <time>2022-08-20T13:30:42Z</time>
      </trkpt>
      <trkpt lat="25.4783660" lon="-100.7911650">
        <ele>1806.9</ele>
        <time>2022-08-20T13:30:43Z</time>
      </trkpt>
      <trkpt lat="25.4783690" lon="-100.7911110">
        <ele>1807.0</ele>
        <time>2022-08-20T13:30:44Z</time>
      </trkpt>
      <trkpt lat="25.4783660" lon="-100.7910460">
        <ele>1807.1</ele>
        <time>2022-08-20T13:30:45Z</time>
      </trkpt>
      <trkpt lat="25.4783650" lon="-100.7909950">
        <ele>1807.1</ele>
        <time>2022-08-20T13:30:46Z</time>
      </trkpt>
      <trkpt lat="25.4783630" lon="-100.7909420">
        <ele>1807.2</ele>
        <time>2022-08-20T13:30:48Z</time>
      </trkpt>
      <trkpt lat="25.4783670" lon="-100.7908590">
        <ele>1807.4</ele>
        <time>2022-08-20T13:30:49Z</time>
      </trkpt>
      <trkpt lat="25.4783700" lon="-100.7908150">
        <ele>1807.5</ele>
        <time>2022-08-20T13:30:51Z</time>
      </trkpt>
      <trkpt lat="25.4783740" lon="-100.7907760">
        <ele>1807.6</ele>
        <time>2022-08-20T13:30:52Z</time>
      </trkpt>
      <trkpt lat="25.4783780" lon="-100.7907340">
        <ele>1807.7</ele>
        <time>2022-08-20T13:30:53Z</time>
      </trkpt>
      <trkpt lat="25.4783800" lon="-100.7906890">
        <ele>1807.8</ele>
        <time>2022-08-20T13:30:54Z</time>
      </trkpt>
      <trkpt lat="25.4783820" lon="-100.7906480">
        <ele>1807.8</ele>
        <time>2022-08-20T13:30:55Z</time>
      </trkpt>
      <trkpt lat="25.4783970" lon="-100.7905310">
        <ele>1808.0</ele>
        <time>2022-08-20T13:30:57Z</time>
      </trkpt>
      <trkpt lat="25.4784020" lon="-100.7904870">
        <ele>1808.1</ele>
        <time>2022-08-20T13:30:59Z</time>
      </trkpt>
      <trkpt lat="25.4784060" lon="-100.7904430">
        <ele>1808.2</ele>
        <time>2022-08-20T13:31:00Z</time>
      </trkpt>
      <trkpt lat="25.4784090" lon="-100.7904000">
        <ele>1808.2</ele>
        <time>2022-08-20T13:31:01Z</time>
      </trkpt>
      <trkpt lat="25.4784150" lon="-100.7903430">
        <ele>1808.3</ele>
        <time>2022-08-20T13:31:02Z</time>
      </trkpt>
      <trkpt lat="25.4784220" lon="-100.7902990">
        <ele>1808.4</ele>
        <time>2022-08-20T13:31:03Z</time>
      </trkpt>
      <trkpt lat="25.4784350" lon="-100.7902410">
        <ele>1808.5</ele>
        <time>2022-08-20T13:31:04Z</time>
      </trkpt>
      <trkpt lat="25.4784390" lon="-100.7901890">
        <ele>1808.5</ele>
        <time>2022-08-20T13:31:06Z</time>
      </trkpt>
      <trkpt lat="25.4784470" lon="-100.7901420">
        <ele>1808.6</ele>
        <time>2022-08-20T13:31:07Z</time>
      </trkpt>
      <trkpt lat="25.4784520" lon="-100.7900990">
        <ele>1808.7</ele>
        <time>2022-08-20T13:31:08Z</time>
      </trkpt>
      <trkpt lat="25.4784570" lon="-100.7900560">
        <ele>1808.8</ele>
        <time>2022-08-20T13:31:09Z</time>
      </trkpt>
      <trkpt lat="25.4784680" lon="-100.7899740">
        <ele>1809.0</ele>
        <time>2022-08-20T13:31:11Z</time>
      </trkpt>
      <trkpt lat="25.4784740" lon="-100.7899300">
        <ele>1809.2</ele>
        <time>2022-08-20T13:31:12Z</time>
      </trkpt>
      <trkpt lat="25.4784780" lon="-100.7898910">
        <ele>1809.3</ele>
        <time>2022-08-20T13:31:13Z</time>
      </trkpt>
      <trkpt lat="25.4784800" lon="-100.7898510">
        <ele>1809.4</ele>
        <time>2022-08-20T13:31:14Z</time>
      </trkpt>
      <trkpt lat="25.4784820" lon="-100.7898090">
        <ele>1809.5</ele>
        <time>2022-08-20T13:31:15Z</time>
      </trkpt>
      <trkpt lat="25.4784870" lon="-100.7897690">
        <ele>1809.7</ele>
        <time>2022-08-20T13:31:16Z</time>
      </trkpt>
      <trkpt lat="25.4784940" lon="-100.7897210">
        <ele>1809.8</ele>
        <time>2022-08-20T13:31:17Z</time>
      </trkpt>
      <trkpt lat="25.4785050" lon="-100.7896700">
        <ele>1810.0</ele>
        <time>2022-08-20T13:31:18Z</time>
      </trkpt>
      <trkpt lat="25.4785140" lon="-100.7896170">
        <ele>1810.2</ele>
        <time>2022-08-20T13:31:19Z</time>
      </trkpt>
      <trkpt lat="25.4785200" lon="-100.7895770">
        <ele>1810.3</ele>
        <time>2022-08-20T13:31:20Z</time>
      </trkpt>
      <trkpt lat="25.4785300" lon="-100.7895390">
        <ele>1810.4</ele>
        <time>2022-08-20T13:31:21Z</time>
      </trkpt>
      <trkpt lat="25.4785410" lon="-100.7894910">
        <ele>1810.6</ele>
        <time>2022-08-20T13:31:23Z</time>
      </trkpt>
      <trkpt lat="25.4785490" lon="-100.7894490">
        <ele>1810.7</ele>
        <time>2022-08-20T13:31:24Z</time>
      </trkpt>
      <trkpt lat="25.4785600" lon="-100.7893840">
        <ele>1810.9</ele>
        <time>2022-08-20T13:31:25Z</time>
      </trkpt>
      <trkpt lat="25.4785670" lon="-100.7893370">
        <ele>1811.1</ele>
        <time>2022-08-20T13:31:27Z</time>
      </trkpt>
      <trkpt lat="25.4785720" lon="-100.7893000">
        <ele>1811.2</ele>
        <time>2022-08-20T13:31:28Z</time>
      </trkpt>
      <trkpt lat="25.4785790" lon="-100.7892610">
        <ele>1811.3</ele>
        <time>2022-08-20T13:31:29Z</time>
      </trkpt>
      <trkpt lat="25.4785880" lon="-100.7892190">
        <ele>1811.4</ele>
        <time>2022-08-20T13:31:30Z</time>
      </trkpt>
      <trkpt lat="25.4785960" lon="-100.7891790">
        <ele>1811.6</ele>
        <time>2022-08-20T13:31:31Z</time>
      </trkpt>
      <trkpt lat="25.4786000" lon="-100.7891300">
        <ele>1811.7</ele>
        <time>2022-08-20T13:31:32Z</time>
      </trkpt>
      <trkpt lat="25.4786100" lon="-100.7890840">
        <ele>1811.8</ele>
        <time>2022-08-20T13:31:33Z</time>
      </trkpt>
      <trkpt lat="25.4786180" lon="-100.7890440">
        <ele>1811.9</ele>
        <time>2022-08-20T13:31:34Z</time>
      </trkpt>
      <trkpt lat="25.4786260" lon="-100.7889870">
        <ele>1812.1</ele>
        <time>2022-08-20T13:31:36Z</time>
      </trkpt>
      <trkpt lat="25.4786290" lon="-100.7889420">
        <ele>1812.2</ele>
        <time>2022-08-20T13:31:37Z</time>
      </trkpt>
      <trkpt lat="25.4786320" lon="-100.7888850">
        <ele>1812.3</ele>
        <time>2022-08-20T13:31:38Z</time>
      </trkpt>
      <trkpt lat="25.4786370" lon="-100.7888480">
        <ele>1812.4</ele>
        <time>2022-08-20T13:31:39Z</time>
      </trkpt>
      <trkpt lat="25.4786420" lon="-100.7887980">
        <ele>1812.5</ele>
        <time>2022-08-20T13:31:40Z</time>
      </trkpt>
      <trkpt lat="25.4786500" lon="-100.7887570">
        <ele>1812.6</ele>
        <time>2022-08-20T13:31:42Z</time>
      </trkpt>
      <trkpt lat="25.4786550" lon="-100.7887200">
        <ele>1812.7</ele>
        <time>2022-08-20T13:31:43Z</time>
      </trkpt>
      <trkpt lat="25.4786670" lon="-100.7886460">
        <ele>1812.9</ele>
        <time>2022-08-20T13:31:44Z</time>
      </trkpt>
      <trkpt lat="25.4786720" lon="-100.7886100">
        <ele>1813.0</ele>
        <time>2022-08-20T13:31:45Z</time>
      </trkpt>
      <trkpt lat="25.4786770" lon="-100.7885650">
        <ele>1813.1</ele>
        <time>2022-08-20T13:31:47Z</time>
      </trkpt>
      <trkpt lat="25.4786850" lon="-100.7885150">
        <ele>1813.2</ele>
        <time>2022-08-20T13:31:48Z</time>
      </trkpt>
      <trkpt lat="25.4786980" lon="-100.7884580">
        <ele>1813.4</ele>
        <time>2022-08-20T13:31:50Z</time>
      </trkpt>
      <trkpt lat="25.4787000" lon="-100.7884220">
        <ele>1813.5</ele>
        <time>2022-08-20T13:31:51Z</time>
      </trkpt>
      <trkpt lat="25.4787060" lon="-100.7883700">
        <ele>1813.6</ele>
        <time>2022-08-20T13:31:52Z</time>
      </trkpt>
      <trkpt lat="25.4787130" lon="-100.7883200">
        <ele>1813.8</ele>
        <time>2022-08-20T13:31:53Z</time>
      </trkpt>
      <trkpt lat="25.4787210" lon="-100.7882750">
        <ele>1813.9</ele>
        <time>2022-08-20T13:31:55Z</time>
      </trkpt>
      <trkpt lat="25.4787260" lon="-100.7882390">
        <ele>1814.0</ele>
        <time>2022-08-20T13:31:56Z</time>
      </trkpt>
      <trkpt lat="25.4787300" lon="-100.7881990">
        <ele>1814.2</ele>
        <time>2022-08-20T13:31:57Z</time>
      </trkpt>
      <trkpt lat="25.4787390" lon="-100.7881260">
        <ele>1814.4</ele>
        <time>2022-08-20T13:31:58Z</time>
      </trkpt>
      <trkpt lat="25.4787450" lon="-100.7880850">
        <ele>1814.6</ele>
        <time>2022-08-20T13:32:00Z</time>
      </trkpt>
      <trkpt lat="25.4787540" lon="-100.7880340">
        <ele>1814.8</ele>
        <time>2022-08-20T13:32:01Z</time>
      </trkpt>
      <trkpt lat="25.4787590" lon="-100.7879820">
        <ele>1815.1</ele>
        <time>2022-08-20T13:32:02Z</time>
      </trkpt>
      <trkpt lat="25.4787650" lon="-100.7879230">
        <ele>1815.4</ele>
        <time>2022-08-20T13:32:04Z</time>
      </trkpt>
      <trkpt lat="25.4787710" lon="-100.7878670">
        <ele>1815.7</ele>
        <time>2022-08-20T13:32:06Z</time>
      </trkpt>
      <trkpt lat="25.4787780" lon="-100.7878380">
        <ele>1815.9</ele>
        <time>2022-08-20T13:32:07Z</time>
      </trkpt>
      <trkpt lat="25.4787890" lon="-100.7877750">
        <ele>1816.2</ele>
        <time>2022-08-20T13:32:08Z</time>
      </trkpt>
      <trkpt lat="25.4787980" lon="-100.7877270">
        <ele>1816.5</ele>
        <time>2022-08-20T13:32:10Z</time>
      </trkpt>
      <trkpt lat="25.4788040" lon="-100.7876870">
        <ele>1816.6</ele>
        <time>2022-08-20T13:32:11Z</time>
      </trkpt>
      <trkpt lat="25.4788100" lon="-100.7876390">
        <ele>1816.8</ele>
        <time>2022-08-20T13:32:12Z</time>
      </trkpt>
      <trkpt lat="25.4788160" lon="-100.7875960">
        <ele>1816.9</ele>
        <time>2022-08-20T13:32:13Z</time>
      </trkpt>
      <trkpt lat="25.4788290" lon="-100.7875360">
        <ele>1817.0</ele>
        <time>2022-08-20T13:32:15Z</time>
      </trkpt>
      <trkpt lat="25.4788370" lon="-100.7874990">
        <ele>1817.1</ele>
        <time>2022-08-20T13:32:16Z</time>
      </trkpt>
      <trkpt lat="25.4788540" lon="-100.7874120">
        <ele>1817.2</ele>
        <time>2022-08-20T13:32:18Z</time>
      </trkpt>
      <trkpt lat="25.4788600" lon="-100.7873720">
        <ele>1817.2</ele>
        <time>2022-08-20T13:32:19Z</time>
      </trkpt>
      <trkpt lat="25.4788770" lon="-100.7872970">
        <ele>1817.4</ele>
        <time>2022-08-20T13:32:20Z</time>
      </trkpt>
      <trkpt lat="25.4788840" lon="-100.7872550">
        <ele>1817.4</ele>
        <time>2022-08-20T13:32:21Z</time>
      </trkpt>
      <trkpt lat="25.4788910" lon="-100.7872060">
        <ele>1817.5</ele>
        <time>2022-08-20T13:32:23Z</time>
      </trkpt>
      <trkpt lat="25.4789000" lon="-100.7871430">
        <ele>1817.6</ele>
        <time>2022-08-20T13:32:24Z</time>
      </trkpt>
      <trkpt lat="25.4789070" lon="-100.7870890">
        <ele>1817.7</ele>
        <time>2022-08-20T13:32:26Z</time>
      </trkpt>
      <trkpt lat="25.4789190" lon="-100.7870340">
        <ele>1817.9</ele>
        <time>2022-08-20T13:32:27Z</time>
      </trkpt>
      <trkpt lat="25.4789250" lon="-100.7869840">
        <ele>1818.0</ele>
        <time>2022-08-20T13:32:28Z</time>
      </trkpt>
      <trkpt lat="25.4789300" lon="-100.7869420">
        <ele>1818.2</ele>
        <time>2022-08-20T13:32:30Z</time>
      </trkpt>
      <trkpt lat="25.4789300" lon="-100.7869040">
        <ele>1818.4</ele>
        <time>2022-08-20T13:32:31Z</time>
      </trkpt>
      <trkpt lat="25.4789340" lon="-100.7868670">
        <ele>1818.6</ele>
        <time>2022-08-20T13:32:32Z</time>
      </trkpt>
      <trkpt lat="25.4789370" lon="-100.7868330">
        <ele>1818.8</ele>
        <time>2022-08-20T13:32:33Z</time>
      </trkpt>
      <trkpt lat="25.4789430" lon="-100.7868010">
        <ele>1819.0</ele>
        <time>2022-08-20T13:32:34Z</time>
      </trkpt>
      <trkpt lat="25.4789460" lon="-100.7867690">
        <ele>1819.2</ele>
        <time>2022-08-20T13:32:35Z</time>
      </trkpt>
      <trkpt lat="25.4789530" lon="-100.7867340">
        <ele>1819.4</ele>
        <time>2022-08-20T13:32:36Z</time>
      </trkpt>
      <trkpt lat="25.4789610" lon="-100.7866880">
        <ele>1819.8</ele>
        <time>2022-08-20T13:32:37Z</time>
      </trkpt>
      <trkpt lat="25.4789710" lon="-100.7866370">
        <ele>1820.2</ele>
        <time>2022-08-20T13:32:39Z</time>
      </trkpt>
      <trkpt lat="25.4789740" lon="-100.7866050">
        <ele>1820.5</ele>
        <time>2022-08-20T13:32:40Z</time>
      </trkpt>
      <trkpt lat="25.4789790" lon="-100.7865680">
        <ele>1820.9</ele>
        <time>2022-08-20T13:32:41Z</time>
      </trkpt>
      <trkpt lat="25.4789840" lon="-100.7865330">
        <ele>1821.2</ele>
        <time>2022-08-20T13:32:42Z</time>
      </trkpt>
      <trkpt lat="25.4789900" lon="-100.7864930">
        <ele>1821.6</ele>
        <time>2022-08-20T13:32:44Z</time>
      </trkpt>
      <trkpt lat="25.4789940" lon="-100.7864540">
        <ele>1822.0</ele>
        <time>2022-08-20T13:32:45Z</time>
      </trkpt>
      <trkpt lat="25.4789940" lon="-100.7864120">
        <ele>1822.3</ele>
        <time>2022-08-20T13:32:46Z</time>
      </trkpt>
      <trkpt lat="25.4789930" lon="-100.7863740">
        <ele>1822.6</ele>
        <time>2022-08-20T13:32:47Z</time>
      </trkpt>
      <trkpt lat="25.4789920" lon="-100.7863380">
        <ele>1822.8</ele>
        <time>2022-08-20T13:32:48Z</time>
      </trkpt>
      <trkpt lat="25.4789920" lon="-100.7863050">
        <ele>1823.0</ele>
        <time>2022-08-20T13:32:49Z</time>
      </trkpt>
      <trkpt lat="25.4789920" lon="-100.7862630">
        <ele>1823.2</ele>
        <time>2022-08-20T13:32:51Z</time>
      </trkpt>
      <trkpt lat="25.4789870" lon="-100.7862170">
        <ele>1823.4</ele>
        <time>2022-08-20T13:32:52Z</time>
      </trkpt>
      <trkpt lat="25.4789810" lon="-100.7861680">
        <ele>1823.5</ele>
        <time>2022-08-20T13:32:53Z</time>
      </trkpt>
      <trkpt lat="25.4789780" lon="-100.7861130">
        <ele>1823.5</ele>
        <time>2022-08-20T13:32:54Z</time>
      </trkpt>
      <trkpt lat="25.4789790" lon="-100.7860250">
        <ele>1823.4</ele>
        <time>2022-08-20T13:32:56Z</time>
      </trkpt>
      <trkpt lat="25.4789830" lon="-100.7859650">
        <ele>1823.3</ele>
        <time>2022-08-20T13:32:57Z</time>
      </trkpt>
      <trkpt lat="25.4789890" lon="-100.7859020">
        <ele>1823.2</ele>
        <time>2022-08-20T13:32:58Z</time>
      </trkpt>
      <trkpt lat="25.4789980" lon="-100.7858370">
        <ele>1823.1</ele>
        <time>2022-08-20T13:32:59Z</time>
      </trkpt>
      <trkpt lat="25.4790100" lon="-100.7857690">
        <ele>1823.1</ele>
        <time>2022-08-20T13:33:00Z</time>
      </trkpt>
      <trkpt lat="25.4790230" lon="-100.7857040">
        <ele>1823.1</ele>
        <time>2022-08-20T13:33:01Z</time>
      </trkpt>
      <trkpt lat="25.4790370" lon="-100.7856440">
        <ele>1823.1</ele>
        <time>2022-08-20T13:33:02Z</time>
      </trkpt>
      <trkpt lat="25.4790490" lon="-100.7855910">
        <ele>1823.2</ele>
        <time>2022-08-20T13:33:03Z</time>
      </trkpt>
      <trkpt lat="25.4790590" lon="-100.7855390">
        <ele>1823.3</ele>
        <time>2022-08-20T13:33:04Z</time>
      </trkpt>
      <trkpt lat="25.4790660" lon="-100.7854860">
        <ele>1823.4</ele>
        <time>2022-08-20T13:33:05Z</time>
      </trkpt>
      <trkpt lat="25.4790720" lon="-100.7854320">
        <ele>1823.4</ele>
        <time>2022-08-20T13:33:06Z</time>
      </trkpt>
      <trkpt lat="25.4790790" lon="-100.7853790">
        <ele>1823.6</ele>
        <time>2022-08-20T13:33:07Z</time>
      </trkpt>
      <trkpt lat="25.4790850" lon="-100.7853270">
        <ele>1823.7</ele>
        <time>2022-08-20T13:33:08Z</time>
      </trkpt>
      <trkpt lat="25.4790890" lon="-100.7852760">
        <ele>1823.9</ele>
        <time>2022-08-20T13:33:09Z</time>
      </trkpt>
      <trkpt lat="25.4790920" lon="-100.7852250">
        <ele>1824.0</ele>
        <time>2022-08-20T13:33:10Z</time>
      </trkpt>
      <trkpt lat="25.4790950" lon="-100.7851750">
        <ele>1824.2</ele>
        <time>2022-08-20T13:33:11Z</time>
      </trkpt>
      <trkpt lat="25.4790950" lon="-100.7851320">
        <ele>1824.3</ele>
        <time>2022-08-20T13:33:12Z</time>
      </trkpt>
      <trkpt lat="25.4790970" lon="-100.7850910">
        <ele>1824.5</ele>
        <time>2022-08-20T13:33:13Z</time>
      </trkpt>
      <trkpt lat="25.4791020" lon="-100.7850330">
        <ele>1824.8</ele>
        <time>2022-08-20T13:33:14Z</time>
      </trkpt>
      <trkpt lat="25.4791040" lon="-100.7849960">
        <ele>1825.0</ele>
        <time>2022-08-20T13:33:15Z</time>
      </trkpt>
      <trkpt lat="25.4791050" lon="-100.7849540">
        <ele>1825.2</ele>
        <time>2022-08-20T13:33:16Z</time>
      </trkpt>
      <trkpt lat="25.4790770" lon="-100.7849330">
        <ele>1825.5</ele>
        <time>2022-08-20T13:33:17Z</time>
      </trkpt>
      <trkpt lat="25.4790780" lon="-100.7849140">
        <ele>1825.6</ele>
        <time>2022-08-20T13:33:19Z</time>
      </trkpt>
      <trkpt lat="25.4790820" lon="-100.7848830">
        <ele>1825.8</ele>
        <time>2022-08-20T13:33:20Z</time>
      </trkpt>
      <trkpt lat="25.4790910" lon="-100.7848110">
        <ele>1826.3</ele>
        <time>2022-08-20T13:33:21Z</time>
      </trkpt>
      <trkpt lat="25.4790910" lon="-100.7847490">
        <ele>1826.8</ele>
        <time>2022-08-20T13:33:23Z</time>
      </trkpt>
      <trkpt lat="25.4790920" lon="-100.7847070">
        <ele>1827.1</ele>
        <time>2022-08-20T13:33:24Z</time>
      </trkpt>
      <trkpt lat="25.4790920" lon="-100.7846520">
        <ele>1827.5</ele>
        <time>2022-08-20T13:33:25Z</time>
      </trkpt>
      <trkpt lat="25.4790890" lon="-100.7846030">
        <ele>1827.7</ele>
        <time>2022-08-20T13:33:26Z</time>
      </trkpt>
      <trkpt lat="25.4790850" lon="-100.7845550">
        <ele>1828.0</ele>
        <time>2022-08-20T13:33:27Z</time>
      </trkpt>
      <trkpt lat="25.4790730" lon="-100.7844930">
        <ele>1828.2</ele>
        <time>2022-08-20T13:33:29Z</time>
      </trkpt>
      <trkpt lat="25.4790610" lon="-100.7844460">
        <ele>1828.3</ele>
        <time>2022-08-20T13:33:30Z</time>
      </trkpt>
      <trkpt lat="25.4790480" lon="-100.7843950">
        <ele>1828.3</ele>
        <time>2022-08-20T13:33:32Z</time>
      </trkpt>
      <trkpt lat="25.4790330" lon="-100.7843350">
        <ele>1828.4</ele>
        <time>2022-08-20T13:33:33Z</time>
      </trkpt>
      <trkpt lat="25.4790210" lon="-100.7842790">
        <ele>1828.3</ele>
        <time>2022-08-20T13:33:34Z</time>
      </trkpt>
      <trkpt lat="25.4790130" lon="-100.7842210">
        <ele>1828.3</ele>
        <time>2022-08-20T13:33:35Z</time>
      </trkpt>
      <trkpt lat="25.4790110" lon="-100.7841610">
        <ele>1828.3</ele>
        <time>2022-08-20T13:33:36Z</time>
      </trkpt>
      <trkpt lat="25.4790140" lon="-100.7841000">
        <ele>1828.4</ele>
        <time>2022-08-20T13:33:37Z</time>
      </trkpt>
      <trkpt lat="25.4790230" lon="-100.7840450">
        <ele>1828.5</ele>
        <time>2022-08-20T13:33:38Z</time>
      </trkpt>
      <trkpt lat="25.4790380" lon="-100.7839940">
        <ele>1828.6</ele>
        <time>2022-08-20T13:33:39Z</time>
      </trkpt>
      <trkpt lat="25.4790590" lon="-100.7839110">
        <ele>1828.9</ele>
        <time>2022-08-20T13:33:40Z</time>
      </trkpt>
      <trkpt lat="25.4790630" lon="-100.7838540">
        <ele>1829.1</ele>
        <time>2022-08-20T13:33:42Z</time>
      </trkpt>
      <trkpt lat="25.4790870" lon="-100.7838070">
        <ele>1829.3</ele>
        <time>2022-08-20T13:33:43Z</time>
      </trkpt>
      <trkpt lat="25.4791060" lon="-100.7837710">
        <ele>1829.4</ele>
        <time>2022-08-20T13:33:44Z</time>
      </trkpt>
      <trkpt lat="25.4791250" lon="-100.7837220">
        <ele>1829.5</ele>
        <time>2022-08-20T13:33:46Z</time>
      </trkpt>
      <trkpt lat="25.4791510" lon="-100.7836580">
        <ele>1829.5</ele>
        <time>2022-08-20T13:33:47Z</time>
      </trkpt>
      <trkpt lat="25.4791830" lon="-100.7835690">
        <ele>1829.6</ele>
        <time>2022-08-20T13:33:49Z</time>
      </trkpt>
      <trkpt lat="25.4791900" lon="-100.7835300">
        <ele>1829.6</ele>
        <time>2022-08-20T13:33:50Z</time>
      </trkpt>
      <trkpt lat="25.4791970" lon="-100.7835130">
        <ele>1829.6</ele>
        <time>2022-08-20T13:33:51Z</time>
      </trkpt>
      <trkpt lat="25.4792020" lon="-100.7834970">
        <ele>1829.6</ele>
        <time>2022-08-20T13:33:52Z</time>
      </trkpt>
      <trkpt lat="25.4792070" lon="-100.7834810">
        <ele>1829.6</ele>
        <time>2022-08-20T13:33:53Z</time>
      </trkpt>
      <trkpt lat="25.4792110" lon="-100.7834650">
        <ele>1829.7</ele>
        <time>2022-08-20T13:33:54Z</time>
      </trkpt>
      <trkpt lat="25.4792340" lon="-100.7833740">
        <ele>1829.9</ele>
        <time>2022-08-20T13:33:56Z</time>
      </trkpt>
      <trkpt lat="25.4792550" lon="-100.7833200">
        <ele>1830.2</ele>
        <time>2022-08-20T13:33:57Z</time>
      </trkpt>
      <trkpt lat="25.4792760" lon="-100.7832700">
        <ele>1830.4</ele>
        <time>2022-08-20T13:33:58Z</time>
      </trkpt>
      <trkpt lat="25.4792900" lon="-100.7832280">
        <ele>1830.6</ele>
        <time>2022-08-20T13:33:59Z</time>
      </trkpt>
      <trkpt lat="25.4793040" lon="-100.7831850">
        <ele>1830.9</ele>
        <time>2022-08-20T13:34:00Z</time>
      </trkpt>
      <trkpt lat="25.4793150" lon="-100.7831470">
        <ele>1831.0</ele>
        <time>2022-08-20T13:34:01Z</time>
      </trkpt>
      <trkpt lat="25.4793250" lon="-100.7831000">
        <ele>1831.2</ele>
        <time>2022-08-20T13:34:02Z</time>
      </trkpt>
      <trkpt lat="25.4793460" lon="-100.7829890">
        <ele>1831.4</ele>
        <time>2022-08-20T13:34:03Z</time>
      </trkpt>
      <trkpt lat="25.4793580" lon="-100.7829200">
        <ele>1831.4</ele>
        <time>2022-08-20T13:34:04Z</time>
      </trkpt>
      <trkpt lat="25.4793690" lon="-100.7828540">
        <ele>1831.5</ele>
        <time>2022-08-20T13:34:05Z</time>
      </trkpt>
      <trkpt lat="25.4793810" lon="-100.7827930">
        <ele>1831.5</ele>
        <time>2022-08-20T13:34:06Z</time>
      </trkpt>
      <trkpt lat="25.4793930" lon="-100.7827310">
        <ele>1831.5</ele>
        <time>2022-08-20T13:34:07Z</time>
      </trkpt>
      <trkpt lat="25.4794080" lon="-100.7826710">
        <ele>1831.5</ele>
        <time>2022-08-20T13:34:08Z</time>
      </trkpt>
      <trkpt lat="25.4794220" lon="-100.7826120">
        <ele>1831.6</ele>
        <time>2022-08-20T13:34:09Z</time>
      </trkpt>
      <trkpt lat="25.4794350" lon="-100.7825540">
        <ele>1831.7</ele>
        <time>2022-08-20T13:34:10Z</time>
      </trkpt>
      <trkpt lat="25.4794470" lon="-100.7825000">
        <ele>1831.7</ele>
        <time>2022-08-20T13:34:11Z</time>
      </trkpt>
      <trkpt lat="25.4794600" lon="-100.7824460">
        <ele>1831.8</ele>
        <time>2022-08-20T13:34:12Z</time>
      </trkpt>
      <trkpt lat="25.4794730" lon="-100.7823950">
        <ele>1831.9</ele>
        <time>2022-08-20T13:34:13Z</time>
      </trkpt>
      <trkpt lat="25.4794870" lon="-100.7823430">
        <ele>1832.0</ele>
        <time>2022-08-20T13:34:14Z</time>
      </trkpt>
      <trkpt lat="25.4795010" lon="-100.7822910">
        <ele>1832.1</ele>
        <time>2022-08-20T13:34:15Z</time>
      </trkpt>
      <trkpt lat="25.4795140" lon="-100.7822400">
        <ele>1832.2</ele>
        <time>2022-08-20T13:34:16Z</time>
      </trkpt>
      <trkpt lat="25.4795270" lon="-100.7821900">
        <ele>1832.3</ele>
        <time>2022-08-20T13:34:17Z</time>
      </trkpt>
      <trkpt lat="25.4795390" lon="-100.7821410">
        <ele>1832.5</ele>
        <time>2022-08-20T13:34:18Z</time>
      </trkpt>
      <trkpt lat="25.4795460" lon="-100.7821090">
        <ele>1832.5</ele>
        <time>2022-08-20T13:34:19Z</time>
      </trkpt>
      <trkpt lat="25.4795580" lon="-100.7820600">
        <ele>1832.7</ele>
        <time>2022-08-20T13:34:20Z</time>
      </trkpt>
      <trkpt lat="25.4795690" lon="-100.7820140">
        <ele>1832.8</ele>
        <time>2022-08-20T13:34:21Z</time>
      </trkpt>
      <trkpt lat="25.4795780" lon="-100.7819660">
        <ele>1832.9</ele>
        <time>2022-08-20T13:34:22Z</time>
      </trkpt>
      <trkpt lat="25.4795840" lon="-100.7819200">
        <ele>1833.0</ele>
        <time>2022-08-20T13:34:23Z</time>
      </trkpt>
      <trkpt lat="25.4795900" lon="-100.7818670">
        <ele>1833.1</ele>
        <time>2022-08-20T13:34:24Z</time>
      </trkpt>
      <trkpt lat="25.4795940" lon="-100.7818100">
        <ele>1833.3</ele>
        <time>2022-08-20T13:34:25Z</time>
      </trkpt>
      <trkpt lat="25.4795980" lon="-100.7817550">
        <ele>1833.4</ele>
        <time>2022-08-20T13:34:26Z</time>
      </trkpt>
      <trkpt lat="25.4796000" lon="-100.7817010">
        <ele>1833.6</ele>
        <time>2022-08-20T13:34:27Z</time>
      </trkpt>
      <trkpt lat="25.4796010" lon="-100.7816470">
        <ele>1833.7</ele>
        <time>2022-08-20T13:34:28Z</time>
      </trkpt>
      <trkpt lat="25.4796010" lon="-100.7815930">
        <ele>1833.8</ele>
        <time>2022-08-20T13:34:29Z</time>
      </trkpt>
      <trkpt lat="25.4796020" lon="-100.7815400">
        <ele>1834.0</ele>
        <time>2022-08-20T13:34:30Z</time>
      </trkpt>
      <trkpt lat="25.4796050" lon="-100.7814900">
        <ele>1834.1</ele>
        <time>2022-08-20T13:34:31Z</time>
      </trkpt>
      <trkpt lat="25.4796080" lon="-100.7814420">
        <ele>1834.2</ele>
        <time>2022-08-20T13:34:32Z</time>
      </trkpt>
      <trkpt lat="25.4796180" lon="-100.7814010">
        <ele>1834.4</ele>
        <time>2022-08-20T13:34:33Z</time>
      </trkpt>
      <trkpt lat="25.4796120" lon="-100.7813620">
        <ele>1834.5</ele>
        <time>2022-08-20T13:34:34Z</time>
      </trkpt>
      <trkpt lat="25.4796150" lon="-100.7812900">
        <ele>1834.8</ele>
        <time>2022-08-20T13:34:35Z</time>
      </trkpt>
      <trkpt lat="25.4796120" lon="-100.7812430">
        <ele>1835.0</ele>
        <time>2022-08-20T13:34:36Z</time>
      </trkpt>
      <trkpt lat="25.4796100" lon="-100.7812000">
        <ele>1835.2</ele>
        <time>2022-08-20T13:34:37Z</time>
      </trkpt>
      <trkpt lat="25.4796120" lon="-100.7811090">
        <ele>1835.6</ele>
        <time>2022-08-20T13:34:39Z</time>
      </trkpt>
      <trkpt lat="25.4796150" lon="-100.7810200">
        <ele>1836.0</ele>
        <time>2022-08-20T13:34:41Z</time>
      </trkpt>
      <trkpt lat="25.4796190" lon="-100.7809750">
        <ele>1836.3</ele>
        <time>2022-08-20T13:34:43Z</time>
      </trkpt>
      <trkpt lat="25.4796210" lon="-100.7809340">
        <ele>1836.4</ele>
        <time>2022-08-20T13:34:44Z</time>
      </trkpt>
      <trkpt lat="25.4796220" lon="-100.7808890">
        <ele>1836.6</ele>
        <time>2022-08-20T13:34:45Z</time>
      </trkpt>
      <trkpt lat="25.4796230" lon="-100.7808450">
        <ele>1836.7</ele>
        <time>2022-08-20T13:34:46Z</time>
      </trkpt>
      <trkpt lat="25.4796240" lon="-100.7808060">
        <ele>1836.8</ele>
        <time>2022-08-20T13:34:47Z</time>
      </trkpt>
      <trkpt lat="25.4796270" lon="-100.7807640">
        <ele>1836.8</ele>
        <time>2022-08-20T13:34:48Z</time>
      </trkpt>
      <trkpt lat="25.4796450" lon="-100.7806890">
        <ele>1836.7</ele>
        <time>2022-08-20T13:34:49Z</time>
      </trkpt>
      <trkpt lat="25.4796600" lon="-100.7806270">
        <ele>1836.6</ele>
        <time>2022-08-20T13:34:50Z</time>
      </trkpt>
      <trkpt lat="25.4796780" lon="-100.7805570">
        <ele>1836.5</ele>
        <time>2022-08-20T13:34:51Z</time>
      </trkpt>
      <trkpt lat="25.4796990" lon="-100.7804850">
        <ele>1836.5</ele>
        <time>2022-08-20T13:34:52Z</time>
      </trkpt>
      <trkpt lat="25.4797240" lon="-100.7804110">
        <ele>1836.6</ele>
        <time>2022-08-20T13:34:53Z</time>
      </trkpt>
      <trkpt lat="25.4797490" lon="-100.7803410">
        <ele>1836.7</ele>
        <time>2022-08-20T13:34:54Z</time>
      </trkpt>
      <trkpt lat="25.4797730" lon="-100.7802780">
        <ele>1836.9</ele>
        <time>2022-08-20T13:34:55Z</time>
      </trkpt>
      <trkpt lat="25.4797940" lon="-100.7802180">
        <ele>1837.1</ele>
        <time>2022-08-20T13:34:56Z</time>
      </trkpt>
      <trkpt lat="25.4798130" lon="-100.7801590">
        <ele>1837.3</ele>
        <time>2022-08-20T13:34:57Z</time>
      </trkpt>
      <trkpt lat="25.4798310" lon="-100.7801020">
        <ele>1837.6</ele>
        <time>2022-08-20T13:34:58Z</time>
      </trkpt>
      <trkpt lat="25.4798480" lon="-100.7800460">
        <ele>1837.9</ele>
        <time>2022-08-20T13:34:59Z</time>
      </trkpt>
      <trkpt lat="25.4798640" lon="-100.7799930">
        <ele>1838.2</ele>
        <time>2022-08-20T13:35:00Z</time>
      </trkpt>
      <trkpt lat="25.4798800" lon="-100.7799400">
        <ele>1838.4</ele>
        <time>2022-08-20T13:35:01Z</time>
      </trkpt>
      <trkpt lat="25.4798910" lon="-100.7799020">
        <ele>1838.6</ele>
        <time>2022-08-20T13:35:02Z</time>
      </trkpt>
      <trkpt lat="25.4799070" lon="-100.7798550">
        <ele>1838.8</ele>
        <time>2022-08-20T13:35:03Z</time>
      </trkpt>
      <trkpt lat="25.4799190" lon="-100.7798210">
        <ele>1839.0</ele>
        <time>2022-08-20T13:35:04Z</time>
      </trkpt>
      <trkpt lat="25.4799320" lon="-100.7797880">
        <ele>1839.1</ele>
        <time>2022-08-20T13:35:05Z</time>
      </trkpt>
      <trkpt lat="25.4799520" lon="-100.7797460">
        <ele>1839.2</ele>
        <time>2022-08-20T13:35:06Z</time>
      </trkpt>
      <trkpt lat="25.4799720" lon="-100.7797090">
        <ele>1839.3</ele>
        <time>2022-08-20T13:35:07Z</time>
      </trkpt>
      <trkpt lat="25.4799770" lon="-100.7796470">
        <ele>1839.4</ele>
        <time>2022-08-20T13:35:08Z</time>
      </trkpt>
      <trkpt lat="25.4799840" lon="-100.7796160">
        <ele>1839.5</ele>
        <time>2022-08-20T13:35:09Z</time>
      </trkpt>
      <trkpt lat="25.4799990" lon="-100.7795800">
        <ele>1839.6</ele>
        <time>2022-08-20T13:35:10Z</time>
      </trkpt>
      <trkpt lat="25.4800150" lon="-100.7795390">
        <ele>1839.7</ele>
        <time>2022-08-20T13:35:11Z</time>
      </trkpt>
      <trkpt lat="25.4800310" lon="-100.7795020">
        <ele>1839.7</ele>
        <time>2022-08-20T13:35:12Z</time>
      </trkpt>
      <trkpt lat="25.4800470" lon="-100.7794670">
        <ele>1839.8</ele>
        <time>2022-08-20T13:35:13Z</time>
      </trkpt>
      <trkpt lat="25.4800680" lon="-100.7794260">
        <ele>1840.0</ele>
        <time>2022-08-20T13:35:14Z</time>
      </trkpt>
      <trkpt lat="25.4800830" lon="-100.7793860">
        <ele>1840.1</ele>
        <time>2022-08-20T13:35:15Z</time>
      </trkpt>
      <trkpt lat="25.4801000" lon="-100.7793320">
        <ele>1840.3</ele>
        <time>2022-08-20T13:35:17Z</time>
      </trkpt>
      <trkpt lat="25.4801100" lon="-100.7792920">
        <ele>1840.4</ele>
        <time>2022-08-20T13:35:18Z</time>
      </trkpt>
      <trkpt lat="25.4801210" lon="-100.7792580">
        <ele>1840.5</ele>
        <time>2022-08-20T13:35:19Z</time>
      </trkpt>
      <trkpt lat="25.4801370" lon="-100.7792280">
        <ele>1840.7</ele>
        <time>2022-08-20T13:35:20Z</time>
      </trkpt>
      <trkpt lat="25.4801580" lon="-100.7791750">
        <ele>1840.9</ele>
        <time>2022-08-20T13:35:21Z</time>
      </trkpt>
      <trkpt lat="25.4801820" lon="-100.7791240">
        <ele>1841.1</ele>
        <time>2022-08-20T13:35:23Z</time>
      </trkpt>
      <trkpt lat="25.4802030" lon="-100.7790730">
        <ele>1841.4</ele>
        <time>2022-08-20T13:35:24Z</time>
      </trkpt>
      <trkpt lat="25.4802210" lon="-100.7790300">
        <ele>1841.6</ele>
        <time>2022-08-20T13:35:25Z</time>
      </trkpt>
      <trkpt lat="25.4802530" lon="-100.7789700">
        <ele>1841.9</ele>
        <time>2022-08-20T13:35:27Z</time>
      </trkpt>
      <trkpt lat="25.4802950" lon="-100.7789110">
        <ele>1842.3</ele>
        <time>2022-08-20T13:35:29Z</time>
      </trkpt>
      <trkpt lat="25.4803160" lon="-100.7788860">
        <ele>1842.5</ele>
        <time>2022-08-20T13:35:31Z</time>
      </trkpt>
      <trkpt lat="25.4803340" lon="-100.7788610">
        <ele>1842.7</ele>
        <time>2022-08-20T13:35:32Z</time>
      </trkpt>
      <trkpt lat="25.4803550" lon="-100.7788370">
        <ele>1842.8</ele>
        <time>2022-08-20T13:35:33Z</time>
      </trkpt>
      <trkpt lat="25.4803890" lon="-100.7787960">
        <ele>1843.1</ele>
        <time>2022-08-20T13:35:34Z</time>
      </trkpt>
      <trkpt lat="25.4804200" lon="-100.7787520">
        <ele>1843.4</ele>
        <time>2022-08-20T13:35:36Z</time>
      </trkpt>
      <trkpt lat="25.4804370" lon="-100.7787240">
        <ele>1843.6</ele>
        <time>2022-08-20T13:35:37Z</time>
      </trkpt>
      <trkpt lat="25.4804540" lon="-100.7786990">
        <ele>1843.8</ele>
        <time>2022-08-20T13:35:38Z</time>
      </trkpt>
      <trkpt lat="25.4804680" lon="-100.7786730">
        <ele>1844.0</ele>
        <time>2022-08-20T13:35:39Z</time>
      </trkpt>
      <trkpt lat="25.4804800" lon="-100.7786460">
        <ele>1844.2</ele>
        <time>2022-08-20T13:35:40Z</time>
      </trkpt>
      <trkpt lat="25.4804920" lon="-100.7786190">
        <ele>1844.4</ele>
        <time>2022-08-20T13:35:41Z</time>
      </trkpt>
      <trkpt lat="25.4805090" lon="-100.7785900">
        <ele>1844.6</ele>
        <time>2022-08-20T13:35:42Z</time>
      </trkpt>
      <trkpt lat="25.4805400" lon="-100.7785430">
        <ele>1845.0</ele>
        <time>2022-08-20T13:35:43Z</time>
      </trkpt>
      <trkpt lat="25.4805540" lon="-100.7785200">
        <ele>1845.2</ele>
        <time>2022-08-20T13:35:44Z</time>
      </trkpt>
      <trkpt lat="25.4805710" lon="-100.7784930">
        <ele>1845.4</ele>
        <time>2022-08-20T13:35:46Z</time>
      </trkpt>
      <trkpt lat="25.4805890" lon="-100.7784600">
        <ele>1845.6</ele>
        <time>2022-08-20T13:35:47Z</time>
      </trkpt>
      <trkpt lat="25.4806060" lon="-100.7784290">
        <ele>1845.8</ele>
        <time>2022-08-20T13:35:48Z</time>
      </trkpt>
      <trkpt lat="25.4806230" lon="-100.7783960">
        <ele>1846.0</ele>
        <time>2022-08-20T13:35:49Z</time>
      </trkpt>
      <trkpt lat="25.4806450" lon="-100.7783700">
        <ele>1846.1</ele>
        <time>2022-08-20T13:35:50Z</time>
      </trkpt>
      <trkpt lat="25.4806680" lon="-100.7783390">
        <ele>1846.2</ele>
        <time>2022-08-20T13:35:52Z</time>
      </trkpt>
      <trkpt lat="25.4806910" lon="-100.7783060">
        <ele>1846.3</ele>
        <time>2022-08-20T13:35:53Z</time>
      </trkpt>
      <trkpt lat="25.4807320" lon="-100.7782400">
        <ele>1846.4</ele>
        <time>2022-08-20T13:35:54Z</time>
      </trkpt>
      <trkpt lat="25.4807560" lon="-100.7781900">
        <ele>1846.5</ele>
        <time>2022-08-20T13:35:56Z</time>
      </trkpt>
      <trkpt lat="25.4807770" lon="-100.7781510">
        <ele>1846.5</ele>
        <time>2022-08-20T13:35:57Z</time>
      </trkpt>
      <trkpt lat="25.4807960" lon="-100.7781150">
        <ele>1846.6</ele>
        <time>2022-08-20T13:35:58Z</time>
      </trkpt>
      <trkpt lat="25.4808170" lon="-100.7780780">
        <ele>1846.6</ele>
        <time>2022-08-20T13:35:59Z</time>
      </trkpt>
      <trkpt lat="25.4808420" lon="-100.7780370">
        <ele>1846.6</ele>
        <time>2022-08-20T13:36:00Z</time>
      </trkpt>
      <trkpt lat="25.4808630" lon="-100.7779980">
        <ele>1846.7</ele>
        <time>2022-08-20T13:36:01Z</time>
      </trkpt>
      <trkpt lat="25.4808800" lon="-100.7779580">
        <ele>1846.7</ele>
        <time>2022-08-20T13:36:02Z</time>
      </trkpt>
      <trkpt lat="25.4808970" lon="-100.7779160">
        <ele>1846.7</ele>
        <time>2022-08-20T13:36:03Z</time>
      </trkpt>
      <trkpt lat="25.4809140" lon="-100.7778770">
        <ele>1846.7</ele>
        <time>2022-08-20T13:36:04Z</time>
      </trkpt>
      <trkpt lat="25.4809310" lon="-100.7778370">
        <ele>1846.7</ele>
        <time>2022-08-20T13:36:05Z</time>
      </trkpt>
      <trkpt lat="25.4809470" lon="-100.7777990">
        <ele>1846.6</ele>
        <time>2022-08-20T13:36:06Z</time>
      </trkpt>
      <trkpt lat="25.4809650" lon="-100.7777580">
        <ele>1846.5</ele>
        <time>2022-08-20T13:36:07Z</time>
      </trkpt>
      <trkpt lat="25.4809830" lon="-100.7777180">
        <ele>1846.4</ele>
        <time>2022-08-20T13:36:08Z</time>
      </trkpt>
      <trkpt lat="25.4810130" lon="-100.7776480">
        <ele>1846.2</ele>
        <time>2022-08-20T13:36:09Z</time>
      </trkpt>
      <trkpt lat="25.4810380" lon="-100.7775900">
        <ele>1845.9</ele>
        <time>2022-08-20T13:36:10Z</time>
      </trkpt>
      <trkpt lat="25.4810630" lon="-100.7775310">
        <ele>1845.7</ele>
        <time>2022-08-20T13:36:11Z</time>
      </trkpt>
      <trkpt lat="25.4810900" lon="-100.7774690">
        <ele>1845.5</ele>
        <time>2022-08-20T13:36:12Z</time>
      </trkpt>
      <trkpt lat="25.4811220" lon="-100.7774030">
        <ele>1845.3</ele>
        <time>2022-08-20T13:36:13Z</time>
      </trkpt>
      <trkpt lat="25.4811560" lon="-100.7773350">
        <ele>1845.2</ele>
        <time>2022-08-20T13:36:14Z</time>
      </trkpt>
      <trkpt lat="25.4811890" lon="-100.7772680">
        <ele>1845.2</ele>
        <time>2022-08-20T13:36:15Z</time>
      </trkpt>
      <trkpt lat="25.4812190" lon="-100.7772060">
        <ele>1845.2</ele>
        <time>2022-08-20T13:36:16Z</time>
      </trkpt>
      <trkpt lat="25.4812440" lon="-100.7771530">
        <ele>1845.2</ele>
        <time>2022-08-20T13:36:17Z</time>
      </trkpt>
      <trkpt lat="25.4812650" lon="-100.7771030">
        <ele>1845.2</ele>
        <time>2022-08-20T13:36:18Z</time>
      </trkpt>
      <trkpt lat="25.4812840" lon="-100.7770540">
        <ele>1845.2</ele>
        <time>2022-08-20T13:36:19Z</time>
      </trkpt>
      <trkpt lat="25.4813040" lon="-100.7770040">
        <ele>1845.2</ele>
        <time>2022-08-20T13:36:20Z</time>
      </trkpt>
      <trkpt lat="25.4813260" lon="-100.7769510">
        <ele>1845.2</ele>
        <time>2022-08-20T13:36:21Z</time>
      </trkpt>
      <trkpt lat="25.4813500" lon="-100.7768950">
        <ele>1845.1</ele>
        <time>2022-08-20T13:36:22Z</time>
      </trkpt>
      <trkpt lat="25.4813770" lon="-100.7768340">
        <ele>1845.1</ele>
        <time>2022-08-20T13:36:23Z</time>
      </trkpt>
      <trkpt lat="25.4814060" lon="-100.7767720">
        <ele>1845.2</ele>
        <time>2022-08-20T13:36:24Z</time>
      </trkpt>
      <trkpt lat="25.4814320" lon="-100.7767120">
        <ele>1845.2</ele>
        <time>2022-08-20T13:36:25Z</time>
      </trkpt>
      <trkpt lat="25.4814570" lon="-100.7766560">
        <ele>1845.3</ele>
        <time>2022-08-20T13:36:26Z</time>
      </trkpt>
      <trkpt lat="25.4814820" lon="-100.7766010">
        <ele>1845.4</ele>
        <time>2022-08-20T13:36:27Z</time>
      </trkpt>
      <trkpt lat="25.4815070" lon="-100.7765500">
        <ele>1845.5</ele>
        <time>2022-08-20T13:36:28Z</time>
      </trkpt>
      <trkpt lat="25.4815320" lon="-100.7764990">
        <ele>1845.7</ele>
        <time>2022-08-20T13:36:29Z</time>
      </trkpt>
      <trkpt lat="25.4815560" lon="-100.7764470">
        <ele>1845.8</ele>
        <time>2022-08-20T13:36:30Z</time>
      </trkpt>
      <trkpt lat="25.4815770" lon="-100.7763930">
        <ele>1845.9</ele>
        <time>2022-08-20T13:36:31Z</time>
      </trkpt>
      <trkpt lat="25.4815980" lon="-100.7763410">
        <ele>1846.0</ele>
        <time>2022-08-20T13:36:32Z</time>
      </trkpt>
      <trkpt lat="25.4816190" lon="-100.7762880">
        <ele>1846.1</ele>
        <time>2022-08-20T13:36:33Z</time>
      </trkpt>
      <trkpt lat="25.4816390" lon="-100.7762390">
        <ele>1846.2</ele>
        <time>2022-08-20T13:36:34Z</time>
      </trkpt>
      <trkpt lat="25.4816610" lon="-100.7761890">
        <ele>1846.3</ele>
        <time>2022-08-20T13:36:35Z</time>
      </trkpt>
      <trkpt lat="25.4816820" lon="-100.7761390">
        <ele>1846.4</ele>
        <time>2022-08-20T13:36:36Z</time>
      </trkpt>
      <trkpt lat="25.4817020" lon="-100.7760890">
        <ele>1846.5</ele>
        <time>2022-08-20T13:36:37Z</time>
      </trkpt>
      <trkpt lat="25.4817220" lon="-100.7760390">
        <ele>1846.6</ele>
        <time>2022-08-20T13:36:38Z</time>
      </trkpt>
      <trkpt lat="25.4817410" lon="-100.7759920">
        <ele>1846.7</ele>
        <time>2022-08-20T13:36:39Z</time>
      </trkpt>
      <trkpt lat="25.4817590" lon="-100.7759430">
        <ele>1846.8</ele>
        <time>2022-08-20T13:36:40Z</time>
      </trkpt>
      <trkpt lat="25.4817770" lon="-100.7758940">
        <ele>1846.9</ele>
        <time>2022-08-20T13:36:41Z</time>
      </trkpt>
      <trkpt lat="25.4817950" lon="-100.7758440">
        <ele>1846.9</ele>
        <time>2022-08-20T13:36:42Z</time>
      </trkpt>
      <trkpt lat="25.4818130" lon="-100.7757960">
        <ele>1847.0</ele>
        <time>2022-08-20T13:36:43Z</time>
      </trkpt>
      <trkpt lat="25.4818320" lon="-100.7757480">
        <ele>1847.1</ele>
        <time>2022-08-20T13:36:44Z</time>
      </trkpt>
      <trkpt lat="25.4818510" lon="-100.7756990">
        <ele>1847.2</ele>
        <time>2022-08-20T13:36:45Z</time>
      </trkpt>
      <trkpt lat="25.4818700" lon="-100.7756490">
        <ele>1847.3</ele>
        <time>2022-08-20T13:36:46Z</time>
      </trkpt>
      <trkpt lat="25.4818880" lon="-100.7755990">
        <ele>1847.3</ele>
        <time>2022-08-20T13:36:47Z</time>
      </trkpt>
      <trkpt lat="25.4819070" lon="-100.7755490">
        <ele>1847.4</ele>
        <time>2022-08-20T13:36:48Z</time>
      </trkpt>
      <trkpt lat="25.4819250" lon="-100.7754990">
        <ele>1847.5</ele>
        <time>2022-08-20T13:36:49Z</time>
      </trkpt>
      <trkpt lat="25.4819430" lon="-100.7754470">
        <ele>1847.5</ele>
        <time>2022-08-20T13:36:50Z</time>
      </trkpt>
      <trkpt lat="25.4819610" lon="-100.7753960">
        <ele>1847.6</ele>
        <time>2022-08-20T13:36:51Z</time>
      </trkpt>
      <trkpt lat="25.4819790" lon="-100.7753440">
        <ele>1847.7</ele>
        <time>2022-08-20T13:36:52Z</time>
      </trkpt>
      <trkpt lat="25.4819950" lon="-100.7752930">
        <ele>1847.7</ele>
        <time>2022-08-20T13:36:53Z</time>
      </trkpt>
      <trkpt lat="25.4820080" lon="-100.7752410">
        <ele>1847.8</ele>
        <time>2022-08-20T13:36:54Z</time>
      </trkpt>
      <trkpt lat="25.4820180" lon="-100.7751900">
        <ele>1847.9</ele>
        <time>2022-08-20T13:36:55Z</time>
      </trkpt>
      <trkpt lat="25.4820290" lon="-100.7751390">
        <ele>1848.0</ele>
        <time>2022-08-20T13:36:56Z</time>
      </trkpt>
      <trkpt lat="25.4820400" lon="-100.7750890">
        <ele>1848.0</ele>
        <time>2022-08-20T13:36:57Z</time>
      </trkpt>
      <trkpt lat="25.4820470" lon="-100.7750570">
        <ele>1848.1</ele>
        <time>2022-08-20T13:36:58Z</time>
      </trkpt>
      <trkpt lat="25.4820610" lon="-100.7750020">
        <ele>1848.2</ele>
        <time>2022-08-20T13:36:59Z</time>
      </trkpt>
      <trkpt lat="25.4820750" lon="-100.7749450">
        <ele>1848.3</ele>
        <time>2022-08-20T13:37:00Z</time>
      </trkpt>
      <trkpt lat="25.4820910" lon="-100.7748960">
        <ele>1848.4</ele>
        <time>2022-08-20T13:37:01Z</time>
      </trkpt>
      <trkpt lat="25.4821050" lon="-100.7748610">
        <ele>1848.5</ele>
        <time>2022-08-20T13:37:02Z</time>
      </trkpt>
      <trkpt lat="25.4821240" lon="-100.7748180">
        <ele>1848.7</ele>
        <time>2022-08-20T13:37:03Z</time>
      </trkpt>
      <trkpt lat="25.4821600" lon="-100.7747320">
        <ele>1849.0</ele>
        <time>2022-08-20T13:37:04Z</time>
      </trkpt>
      <trkpt lat="25.4821610" lon="-100.7747010">
        <ele>1849.1</ele>
        <time>2022-08-20T13:37:05Z</time>
      </trkpt>
      <trkpt lat="25.4821750" lon="-100.7746680">
        <ele>1849.3</ele>
        <time>2022-08-20T13:37:06Z</time>
      </trkpt>
      <trkpt lat="25.4821910" lon="-100.7746370">
        <ele>1849.4</ele>
        <time>2022-08-20T13:37:07Z</time>
      </trkpt>
      <trkpt lat="25.4822120" lon="-100.7746050">
        <ele>1849.7</ele>
        <time>2022-08-20T13:37:08Z</time>
      </trkpt>
      <trkpt lat="25.4822310" lon="-100.7745740">
        <ele>1849.9</ele>
        <time>2022-08-20T13:37:09Z</time>
      </trkpt>
      <trkpt lat="25.4822770" lon="-100.7745140">
        <ele>1850.3</ele>
        <time>2022-08-20T13:37:11Z</time>
      </trkpt>
      <trkpt lat="25.4822990" lon="-100.7744920">
        <ele>1850.5</ele>
        <time>2022-08-20T13:37:12Z</time>
      </trkpt>
      <trkpt lat="25.4823170" lon="-100.7744690">
        <ele>1850.7</ele>
        <time>2022-08-20T13:37:13Z</time>
      </trkpt>
      <trkpt lat="25.4823330" lon="-100.7744390">
        <ele>1850.9</ele>
        <time>2022-08-20T13:37:14Z</time>
      </trkpt>
      <trkpt lat="25.4823490" lon="-100.7744090">
        <ele>1851.0</ele>
        <time>2022-08-20T13:37:15Z</time>
      </trkpt>
      <trkpt lat="25.4823730" lon="-100.7743710">
        <ele>1851.3</ele>
        <time>2022-08-20T13:37:16Z</time>
      </trkpt>
      <trkpt lat="25.4823970" lon="-100.7743280">
        <ele>1851.5</ele>
        <time>2022-08-20T13:37:17Z</time>
      </trkpt>
      <trkpt lat="25.4824180" lon="-100.7742780">
        <ele>1851.7</ele>
        <time>2022-08-20T13:37:19Z</time>
      </trkpt>
      <trkpt lat="25.4824330" lon="-100.7742240">
        <ele>1851.8</ele>
        <time>2022-08-20T13:37:20Z</time>
      </trkpt>
      <trkpt lat="25.4824390" lon="-100.7741690">
        <ele>1851.9</ele>
        <time>2022-08-20T13:37:22Z</time>
      </trkpt>
      <trkpt lat="25.4824440" lon="-100.7741050">
        <ele>1852.0</ele>
        <time>2022-08-20T13:37:23Z</time>
      </trkpt>
      <trkpt lat="25.4824440" lon="-100.7739920">
        <ele>1852.2</ele>
        <time>2022-08-20T13:37:25Z</time>
      </trkpt>
      <trkpt lat="25.4824440" lon="-100.7739310">
        <ele>1852.3</ele>
        <time>2022-08-20T13:37:26Z</time>
      </trkpt>
      <trkpt lat="25.4824450" lon="-100.7738730">
        <ele>1852.3</ele>
        <time>2022-08-20T13:37:27Z</time>
      </trkpt>
      <trkpt lat="25.4824470" lon="-100.7738140">
        <ele>1852.5</ele>
        <time>2022-08-20T13:37:28Z</time>
      </trkpt>
      <trkpt lat="25.4824500" lon="-100.7737580">
        <ele>1852.6</ele>
        <time>2022-08-20T13:37:29Z</time>
      </trkpt>
      <trkpt lat="25.4824510" lon="-100.7737030">
        <ele>1852.7</ele>
        <time>2022-08-20T13:37:30Z</time>
      </trkpt>
      <trkpt lat="25.4824530" lon="-100.7736520">
        <ele>1852.9</ele>
        <time>2022-08-20T13:37:31Z</time>
      </trkpt>
      <trkpt lat="25.4824510" lon="-100.7735960">
        <ele>1853.1</ele>
        <time>2022-08-20T13:37:32Z</time>
      </trkpt>
      <trkpt lat="25.4824590" lon="-100.7734920">
        <ele>1853.8</ele>
        <time>2022-08-20T13:37:34Z</time>
      </trkpt>
      <trkpt lat="25.4824640" lon="-100.7734430">
        <ele>1854.1</ele>
        <time>2022-08-20T13:37:36Z</time>
      </trkpt>
      <trkpt lat="25.4824630" lon="-100.7734240">
        <ele>1854.3</ele>
        <time>2022-08-20T13:37:37Z</time>
      </trkpt>
      <trkpt lat="25.4824630" lon="-100.7734050">
        <ele>1854.5</ele>
        <time>2022-08-20T13:37:38Z</time>
      </trkpt>
      <trkpt lat="25.4824620" lon="-100.7733650">
        <ele>1854.8</ele>
        <time>2022-08-20T13:37:39Z</time>
      </trkpt>
      <trkpt lat="25.4824630" lon="-100.7733500">
        <ele>1855.0</ele>
        <time>2022-08-20T13:37:40Z</time>
      </trkpt>
      <trkpt lat="25.4824640" lon="-100.7733250">
        <ele>1855.3</ele>
        <time>2022-08-20T13:37:41Z</time>
      </trkpt>
      <trkpt lat="25.4824620" lon="-100.7732990">
        <ele>1855.5</ele>
        <time>2022-08-20T13:37:43Z</time>
      </trkpt>
      <trkpt lat="25.4824600" lon="-100.7732580">
        <ele>1856.0</ele>
        <time>2022-08-20T13:37:44Z</time>
      </trkpt>
      <trkpt lat="25.4824530" lon="-100.7732270">
        <ele>1856.3</ele>
        <time>2022-08-20T13:37:46Z</time>
      </trkpt>
      <trkpt lat="25.4824430" lon="-100.7731850">
        <ele>1856.8</ele>
        <time>2022-08-20T13:37:48Z</time>
      </trkpt>
      <trkpt lat="25.4824390" lon="-100.7731440">
        <ele>1857.2</ele>
        <time>2022-08-20T13:37:49Z</time>
      </trkpt>
      <trkpt lat="25.4824310" lon="-100.7730950">
        <ele>1857.7</ele>
        <time>2022-08-20T13:37:51Z</time>
      </trkpt>
      <trkpt lat="25.4824270" lon="-100.7730790">
        <ele>1857.9</ele>
        <time>2022-08-20T13:37:52Z</time>
      </trkpt>
      <trkpt lat="25.4824230" lon="-100.7730630">
        <ele>1858.0</ele>
        <time>2022-08-20T13:37:53Z</time>
      </trkpt>
      <trkpt lat="25.4824110" lon="-100.7730270">
        <ele>1858.4</ele>
        <time>2022-08-20T13:37:54Z</time>
      </trkpt>
      <trkpt lat="25.4824040" lon="-100.7729960">
        <ele>1858.6</ele>
        <time>2022-08-20T13:37:55Z</time>
      </trkpt>
      <trkpt lat="25.4823940" lon="-100.7729450">
        <ele>1859.0</ele>
        <time>2022-08-20T13:37:57Z</time>
      </trkpt>
      <trkpt lat="25.4823870" lon="-100.7729230">
        <ele>1859.1</ele>
        <time>2022-08-20T13:37:58Z</time>
      </trkpt>
      <trkpt lat="25.4823780" lon="-100.7728650">
        <ele>1859.4</ele>
        <time>2022-08-20T13:38:00Z</time>
      </trkpt>
      <trkpt lat="25.4823720" lon="-100.7727980">
        <ele>1859.5</ele>
        <time>2022-08-20T13:38:02Z</time>
      </trkpt>
      <trkpt lat="25.4823720" lon="-100.7727610">
        <ele>1859.5</ele>
        <time>2022-08-20T13:38:04Z</time>
      </trkpt>
      <trkpt lat="25.4823710" lon="-100.7727080">
        <ele>1859.5</ele>
        <time>2022-08-20T13:38:05Z</time>
      </trkpt>
      <trkpt lat="25.4823690" lon="-100.7726080">
        <ele>1859.3</ele>
        <time>2022-08-20T13:38:07Z</time>
      </trkpt>
      <trkpt lat="25.4823700" lon="-100.7725510">
        <ele>1859.1</ele>
        <time>2022-08-20T13:38:08Z</time>
      </trkpt>
      <trkpt lat="25.4823750" lon="-100.7724940">
        <ele>1859.0</ele>
        <time>2022-08-20T13:38:09Z</time>
      </trkpt>
      <trkpt lat="25.4823830" lon="-100.7724370">
        <ele>1858.8</ele>
        <time>2022-08-20T13:38:10Z</time>
      </trkpt>
      <trkpt lat="25.4823910" lon="-100.7723800">
        <ele>1858.7</ele>
        <time>2022-08-20T13:38:11Z</time>
      </trkpt>
      <trkpt lat="25.4823970" lon="-100.7723430">
        <ele>1858.6</ele>
        <time>2022-08-20T13:38:12Z</time>
      </trkpt>
      <trkpt lat="25.4824180" lon="-100.7722820">
        <ele>1858.5</ele>
        <time>2022-08-20T13:38:14Z</time>
      </trkpt>
      <trkpt lat="25.4824380" lon="-100.7722200">
        <ele>1858.4</ele>
        <time>2022-08-20T13:38:15Z</time>
      </trkpt>
      <trkpt lat="25.4824580" lon="-100.7721580">
        <ele>1858.4</ele>
        <time>2022-08-20T13:38:16Z</time>
      </trkpt>
      <trkpt lat="25.4824780" lon="-100.7720960">
        <ele>1858.3</ele>
        <time>2022-08-20T13:38:17Z</time>
      </trkpt>
      <trkpt lat="25.4824970" lon="-100.7720310">
        <ele>1858.2</ele>
        <time>2022-08-20T13:38:18Z</time>
      </trkpt>
      <trkpt lat="25.4825110" lon="-100.7719830">
        <ele>1858.2</ele>
        <time>2022-08-20T13:38:19Z</time>
      </trkpt>
      <trkpt lat="25.4825190" lon="-100.7719530">
        <ele>1858.2</ele>
        <time>2022-08-20T13:38:20Z</time>
      </trkpt>
      <trkpt lat="25.4825360" lon="-100.7719150">
        <ele>1858.2</ele>
        <time>2022-08-20T13:38:21Z</time>
      </trkpt>
      <trkpt lat="25.4825680" lon="-100.7717800">
        <ele>1858.2</ele>
        <time>2022-08-20T13:38:23Z</time>
      </trkpt>
      <trkpt lat="25.4825870" lon="-100.7717210">
        <ele>1858.2</ele>
        <time>2022-08-20T13:38:24Z</time>
      </trkpt>
      <trkpt lat="25.4826120" lon="-100.7716640">
        <ele>1858.1</ele>
        <time>2022-08-20T13:38:25Z</time>
      </trkpt>
      <trkpt lat="25.4826400" lon="-100.7716110">
        <ele>1858.1</ele>
        <time>2022-08-20T13:38:26Z</time>
      </trkpt>
      <trkpt lat="25.4826720" lon="-100.7715610">
        <ele>1858.1</ele>
        <time>2022-08-20T13:38:27Z</time>
      </trkpt>
      <trkpt lat="25.4827050" lon="-100.7715170">
        <ele>1858.1</ele>
        <time>2022-08-20T13:38:28Z</time>
      </trkpt>
      <trkpt lat="25.4827390" lon="-100.7714760">
        <ele>1858.1</ele>
        <time>2022-08-20T13:38:29Z</time>
      </trkpt>
      <trkpt lat="25.4827730" lon="-100.7714340">
        <ele>1858.1</ele>
        <time>2022-08-20T13:38:30Z</time>
      </trkpt>
      <trkpt lat="25.4828090" lon="-100.7713900">
        <ele>1858.1</ele>
        <time>2022-08-20T13:38:31Z</time>
      </trkpt>
      <trkpt lat="25.4828480" lon="-100.7713440">
        <ele>1858.2</ele>
        <time>2022-08-20T13:38:32Z</time>
      </trkpt>
      <trkpt lat="25.4828880" lon="-100.7713000">
        <ele>1858.2</ele>
        <time>2022-08-20T13:38:33Z</time>
      </trkpt>
      <trkpt lat="25.4829260" lon="-100.7712570">
        <ele>1858.2</ele>
        <time>2022-08-20T13:38:34Z</time>
      </trkpt>
      <trkpt lat="25.4829600" lon="-100.7712150">
        <ele>1858.3</ele>
        <time>2022-08-20T13:38:35Z</time>
      </trkpt>
      <trkpt lat="25.4829920" lon="-100.7711780">
        <ele>1858.3</ele>
        <time>2022-08-20T13:38:36Z</time>
      </trkpt>
      <trkpt lat="25.4830270" lon="-100.7711470">
        <ele>1858.4</ele>
        <time>2022-08-20T13:38:37Z</time>
      </trkpt>
      <trkpt lat="25.4830650" lon="-100.7711170">
        <ele>1858.5</ele>
        <time>2022-08-20T13:38:38Z</time>
      </trkpt>
      <trkpt lat="25.4831060" lon="-100.7710850">
        <ele>1858.6</ele>
        <time>2022-08-20T13:38:39Z</time>
      </trkpt>
      <trkpt lat="25.4831490" lon="-100.7710490">
        <ele>1858.7</ele>
        <time>2022-08-20T13:38:40Z</time>
      </trkpt>
      <trkpt lat="25.4831920" lon="-100.7710130">
        <ele>1858.8</ele>
        <time>2022-08-20T13:38:41Z</time>
      </trkpt>
      <trkpt lat="25.4832340" lon="-100.7709790">
        <ele>1858.9</ele>
        <time>2022-08-20T13:38:42Z</time>
      </trkpt>
      <trkpt lat="25.4832760" lon="-100.7709420">
        <ele>1859.0</ele>
        <time>2022-08-20T13:38:43Z</time>
      </trkpt>
      <trkpt lat="25.4833170" lon="-100.7709040">
        <ele>1859.1</ele>
        <time>2022-08-20T13:38:44Z</time>
      </trkpt>
      <trkpt lat="25.4833560" lon="-100.7708650">
        <ele>1859.2</ele>
        <time>2022-08-20T13:38:45Z</time>
      </trkpt>
      <trkpt lat="25.4833960" lon="-100.7708280">
        <ele>1859.3</ele>
        <time>2022-08-20T13:38:46Z</time>
      </trkpt>
      <trkpt lat="25.4834350" lon="-100.7707940">
        <ele>1859.4</ele>
        <time>2022-08-20T13:38:47Z</time>
      </trkpt>
      <trkpt lat="25.4834720" lon="-100.7707630">
        <ele>1859.5</ele>
        <time>2022-08-20T13:38:48Z</time>
      </trkpt>
      <trkpt lat="25.4834960" lon="-100.7707430">
        <ele>1859.6</ele>
        <time>2022-08-20T13:38:49Z</time>
      </trkpt>
      <trkpt lat="25.4835310" lon="-100.7707130">
        <ele>1859.7</ele>
        <time>2022-08-20T13:38:50Z</time>
      </trkpt>
      <trkpt lat="25.4835670" lon="-100.7706840">
        <ele>1859.8</ele>
        <time>2022-08-20T13:38:51Z</time>
      </trkpt>
      <trkpt lat="25.4836050" lon="-100.7706500">
        <ele>1860.0</ele>
        <time>2022-08-20T13:38:52Z</time>
      </trkpt>
      <trkpt lat="25.4836370" lon="-100.7706180">
        <ele>1860.1</ele>
        <time>2022-08-20T13:38:53Z</time>
      </trkpt>
      <trkpt lat="25.4836740" lon="-100.7705830">
        <ele>1860.2</ele>
        <time>2022-08-20T13:38:54Z</time>
      </trkpt>
      <trkpt lat="25.4836990" lon="-100.7705660">
        <ele>1860.3</ele>
        <time>2022-08-20T13:38:55Z</time>
      </trkpt>
      <trkpt lat="25.4837420" lon="-100.7705450">
        <ele>1860.4</ele>
        <time>2022-08-20T13:38:56Z</time>
      </trkpt>
      <trkpt lat="25.4837800" lon="-100.7705120">
        <ele>1860.5</ele>
        <time>2022-08-20T13:38:57Z</time>
      </trkpt>
      <trkpt lat="25.4838180" lon="-100.7704730">
        <ele>1860.6</ele>
        <time>2022-08-20T13:38:58Z</time>
      </trkpt>
      <trkpt lat="25.4838680" lon="-100.7704250">
        <ele>1860.8</ele>
        <time>2022-08-20T13:38:59Z</time>
      </trkpt>
      <trkpt lat="25.4839100" lon="-100.7703850">
        <ele>1860.9</ele>
        <time>2022-08-20T13:39:01Z</time>
      </trkpt>
      <trkpt lat="25.4839480" lon="-100.7703530">
        <ele>1861.0</ele>
        <time>2022-08-20T13:39:02Z</time>
      </trkpt>
      <trkpt lat="25.4839830" lon="-100.7703210">
        <ele>1861.1</ele>
        <time>2022-08-20T13:39:03Z</time>
      </trkpt>
      <trkpt lat="25.4840150" lon="-100.7702900">
        <ele>1861.2</ele>
        <time>2022-08-20T13:39:04Z</time>
      </trkpt>
      <trkpt lat="25.4840630" lon="-100.7702560">
        <ele>1861.4</ele>
        <time>2022-08-20T13:39:05Z</time>
      </trkpt>
      <trkpt lat="25.4840980" lon="-100.7702280">
        <ele>1861.5</ele>
        <time>2022-08-20T13:39:06Z</time>
      </trkpt>
      <trkpt lat="25.4841360" lon="-100.7701930">
        <ele>1861.6</ele>
        <time>2022-08-20T13:39:08Z</time>
      </trkpt>
      <trkpt lat="25.4841670" lon="-100.7701580">
        <ele>1861.7</ele>
        <time>2022-08-20T13:39:09Z</time>
      </trkpt>
      <trkpt lat="25.4841950" lon="-100.7701340">
        <ele>1861.8</ele>
        <time>2022-08-20T13:39:10Z</time>
      </trkpt>
      <trkpt lat="25.4842220" lon="-100.7701090">
        <ele>1861.8</ele>
        <time>2022-08-20T13:39:11Z</time>
      </trkpt>
      <trkpt lat="25.4842650" lon="-100.7700710">
        <ele>1862.0</ele>
        <time>2022-08-20T13:39:12Z</time>
      </trkpt>
      <trkpt lat="25.4843050" lon="-100.7700290">
        <ele>1862.1</ele>
        <time>2022-08-20T13:39:14Z</time>
      </trkpt>
      <trkpt lat="25.4843560" lon="-100.7699720">
        <ele>1862.2</ele>
        <time>2022-08-20T13:39:15Z</time>
      </trkpt>
      <trkpt lat="25.4843900" lon="-100.7699320">
        <ele>1862.3</ele>
        <time>2022-08-20T13:39:16Z</time>
      </trkpt>
      <trkpt lat="25.4844240" lon="-100.7698900">
        <ele>1862.4</ele>
        <time>2022-08-20T13:39:18Z</time>
      </trkpt>
      <trkpt lat="25.4844530" lon="-100.7698590">
        <ele>1862.5</ele>
        <time>2022-08-20T13:39:19Z</time>
      </trkpt>
      <trkpt lat="25.4844720" lon="-100.7698340">
        <ele>1862.6</ele>
        <time>2022-08-20T13:39:20Z</time>
      </trkpt>
      <trkpt lat="25.4844870" lon="-100.7698120">
        <ele>1862.7</ele>
        <time>2022-08-20T13:39:22Z</time>
      </trkpt>
      <trkpt lat="25.4844970" lon="-100.7698000">
        <ele>1862.7</ele>
        <time>2022-08-20T13:39:23Z</time>
      </trkpt>
      <trkpt lat="25.4845230" lon="-100.7697660">
        <ele>1862.8</ele>
        <time>2022-08-20T13:39:24Z</time>
      </trkpt>
      <trkpt lat="25.4845750" lon="-100.7696950">
        <ele>1863.1</ele>
        <time>2022-08-20T13:39:25Z</time>
      </trkpt>
      <trkpt lat="25.4846210" lon="-100.7696280">
        <ele>1863.3</ele>
        <time>2022-08-20T13:39:27Z</time>
      </trkpt>
      <trkpt lat="25.4846500" lon="-100.7695890">
        <ele>1863.5</ele>
        <time>2022-08-20T13:39:28Z</time>
      </trkpt>
      <trkpt lat="25.4846850" lon="-100.7695320">
        <ele>1863.7</ele>
        <time>2022-08-20T13:39:29Z</time>
      </trkpt>
      <trkpt lat="25.4847040" lon="-100.7694930">
        <ele>1863.9</ele>
        <time>2022-08-20T13:39:31Z</time>
      </trkpt>
      <trkpt lat="25.4847210" lon="-100.7694630">
        <ele>1864.1</ele>
        <time>2022-08-20T13:39:32Z</time>
      </trkpt>
      <trkpt lat="25.4847400" lon="-100.7694360">
        <ele>1864.3</ele>
        <time>2022-08-20T13:39:33Z</time>
      </trkpt>
      <trkpt lat="25.4847560" lon="-100.7694080">
        <ele>1864.4</ele>
        <time>2022-08-20T13:39:34Z</time>
      </trkpt>
      <trkpt lat="25.4847810" lon="-100.7693640">
        <ele>1864.7</ele>
        <time>2022-08-20T13:39:35Z</time>
      </trkpt>
      <trkpt lat="25.4847980" lon="-100.7693280">
        <ele>1864.9</ele>
        <time>2022-08-20T13:39:36Z</time>
      </trkpt>
      <trkpt lat="25.4848130" lon="-100.7692970">
        <ele>1865.0</ele>
        <time>2022-08-20T13:39:37Z</time>
      </trkpt>
      <trkpt lat="25.4848300" lon="-100.7692600">
        <ele>1865.3</ele>
        <time>2022-08-20T13:39:39Z</time>
      </trkpt>
      <trkpt lat="25.4848490" lon="-100.7692280">
        <ele>1865.5</ele>
        <time>2022-08-20T13:39:40Z</time>
      </trkpt>
      <trkpt lat="25.4848760" lon="-100.7691750">
        <ele>1865.8</ele>
        <time>2022-08-20T13:39:41Z</time>
      </trkpt>
      <trkpt lat="25.4848990" lon="-100.7691330">
        <ele>1866.0</ele>
        <time>2022-08-20T13:39:43Z</time>
      </trkpt>
      <trkpt lat="25.4849170" lon="-100.7690970">
        <ele>1866.3</ele>
        <time>2022-08-20T13:39:44Z</time>
      </trkpt>
      <trkpt lat="25.4849410" lon="-100.7690470">
        <ele>1866.6</ele>
        <time>2022-08-20T13:39:45Z</time>
      </trkpt>
      <trkpt lat="25.4849620" lon="-100.7690060">
        <ele>1866.9</ele>
        <time>2022-08-20T13:39:46Z</time>
      </trkpt>
      <trkpt lat="25.4849820" lon="-100.7689690">
        <ele>1867.1</ele>
        <time>2022-08-20T13:39:48Z</time>
      </trkpt>
      <trkpt lat="25.4850170" lon="-100.7689010">
        <ele>1867.5</ele>
        <time>2022-08-20T13:39:49Z</time>
      </trkpt>
      <trkpt lat="25.4850380" lon="-100.7688650">
        <ele>1867.7</ele>
        <time>2022-08-20T13:39:51Z</time>
      </trkpt>
      <trkpt lat="25.4850550" lon="-100.7688300">
        <ele>1867.9</ele>
        <time>2022-08-20T13:39:52Z</time>
      </trkpt>
      <trkpt lat="25.4850710" lon="-100.7687970">
        <ele>1868.1</ele>
        <time>2022-08-20T13:39:53Z</time>
      </trkpt>
      <trkpt lat="25.4851020" lon="-100.7687480">
        <ele>1868.4</ele>
        <time>2022-08-20T13:39:54Z</time>
      </trkpt>
      <trkpt lat="25.4851340" lon="-100.7686940">
        <ele>1868.8</ele>
        <time>2022-08-20T13:39:56Z</time>
      </trkpt>
      <trkpt lat="25.4851590" lon="-100.7686520">
        <ele>1869.0</ele>
        <time>2022-08-20T13:39:57Z</time>
      </trkpt>
      <trkpt lat="25.4851940" lon="-100.7685980">
        <ele>1869.3</ele>
        <time>2022-08-20T13:39:58Z</time>
      </trkpt>
      <trkpt lat="25.4852210" lon="-100.7685580">
        <ele>1869.5</ele>
        <time>2022-08-20T13:40:00Z</time>
      </trkpt>
      <trkpt lat="25.4852440" lon="-100.7685220">
        <ele>1869.7</ele>
        <time>2022-08-20T13:40:01Z</time>
      </trkpt>
      <trkpt lat="25.4852760" lon="-100.7684720">
        <ele>1869.9</ele>
        <time>2022-08-20T13:40:02Z</time>
      </trkpt>
      <trkpt lat="25.4852990" lon="-100.7684270">
        <ele>1870.0</ele>
        <time>2022-08-20T13:40:03Z</time>
      </trkpt>
      <trkpt lat="25.4853210" lon="-100.7683900">
        <ele>1870.2</ele>
        <time>2022-08-20T13:40:05Z</time>
      </trkpt>
      <trkpt lat="25.4853470" lon="-100.7683600">
        <ele>1870.3</ele>
        <time>2022-08-20T13:40:06Z</time>
      </trkpt>
      <trkpt lat="25.4853850" lon="-100.7683210">
        <ele>1870.5</ele>
        <time>2022-08-20T13:40:07Z</time>
      </trkpt>
      <trkpt lat="25.4854230" lon="-100.7682780">
        <ele>1870.7</ele>
        <time>2022-08-20T13:40:09Z</time>
      </trkpt>
      <trkpt lat="25.4854480" lon="-100.7682540">
        <ele>1870.8</ele>
        <time>2022-08-20T13:40:10Z</time>
      </trkpt>
      <trkpt lat="25.4854760" lon="-100.7682300">
        <ele>1870.9</ele>
        <time>2022-08-20T13:40:11Z</time>
      </trkpt>
      <trkpt lat="25.4855140" lon="-100.7682000">
        <ele>1871.0</ele>
        <time>2022-08-20T13:40:12Z</time>
      </trkpt>
      <trkpt lat="25.4855580" lon="-100.7681640">
        <ele>1871.2</ele>
        <time>2022-08-20T13:40:14Z</time>
      </trkpt>
      <trkpt lat="25.4855970" lon="-100.7681380">
        <ele>1871.3</ele>
        <time>2022-08-20T13:40:15Z</time>
      </trkpt>
      <trkpt lat="25.4856290" lon="-100.7681160">
        <ele>1871.4</ele>
        <time>2022-08-20T13:40:16Z</time>
      </trkpt>
      <trkpt lat="25.4856520" lon="-100.7681170">
        <ele>1871.5</ele>
        <time>2022-08-20T13:40:18Z</time>
      </trkpt>
      <trkpt lat="25.4856630" lon="-100.7681130">
        <ele>1871.5</ele>
        <time>2022-08-20T13:40:19Z</time>
      </trkpt>
      <trkpt lat="25.4857020" lon="-100.7680870">
        <ele>1871.6</ele>
        <time>2022-08-20T13:40:21Z</time>
      </trkpt>
      <trkpt lat="25.4857230" lon="-100.7680720">
        <ele>1871.7</ele>
        <time>2022-08-20T13:40:22Z</time>
      </trkpt>
      <trkpt lat="25.4857560" lon="-100.7680470">
        <ele>1871.8</ele>
        <time>2022-08-20T13:40:23Z</time>
      </trkpt>
      <trkpt lat="25.4857890" lon="-100.7680180">
        <ele>1871.9</ele>
        <time>2022-08-20T13:40:24Z</time>
      </trkpt>
      <trkpt lat="25.4858370" lon="-100.7679720">
        <ele>1872.1</ele>
        <time>2022-08-20T13:40:25Z</time>
      </trkpt>
      <trkpt lat="25.4858710" lon="-100.7679390">
        <ele>1872.2</ele>
        <time>2022-08-20T13:40:26Z</time>
      </trkpt>
      <trkpt lat="25.4859130" lon="-100.7678980">
        <ele>1872.3</ele>
        <time>2022-08-20T13:40:27Z</time>
      </trkpt>
      <trkpt lat="25.4859510" lon="-100.7678620">
        <ele>1872.5</ele>
        <time>2022-08-20T13:40:28Z</time>
      </trkpt>
      <trkpt lat="25.4859840" lon="-100.7678410">
        <ele>1872.6</ele>
        <time>2022-08-20T13:40:29Z</time>
      </trkpt>
      <trkpt lat="25.4860160" lon="-100.7678240">
        <ele>1872.7</ele>
        <time>2022-08-20T13:40:30Z</time>
      </trkpt>
      <trkpt lat="25.4860580" lon="-100.7678040">
        <ele>1872.8</ele>
        <time>2022-08-20T13:40:32Z</time>
      </trkpt>
      <trkpt lat="25.4861000" lon="-100.7677800">
        <ele>1873.0</ele>
        <time>2022-08-20T13:40:33Z</time>
      </trkpt>
      <trkpt lat="25.4861400" lon="-100.7677520">
        <ele>1873.1</ele>
        <time>2022-08-20T13:40:34Z</time>
      </trkpt>
      <trkpt lat="25.4861730" lon="-100.7677280">
        <ele>1873.2</ele>
        <time>2022-08-20T13:40:35Z</time>
      </trkpt>
      <trkpt lat="25.4862010" lon="-100.7677050">
        <ele>1873.3</ele>
        <time>2022-08-20T13:40:36Z</time>
      </trkpt>
      <trkpt lat="25.4862290" lon="-100.7676800">
        <ele>1873.4</ele>
        <time>2022-08-20T13:40:37Z</time>
      </trkpt>
      <trkpt lat="25.4862610" lon="-100.7676570">
        <ele>1873.6</ele>
        <time>2022-08-20T13:40:38Z</time>
      </trkpt>
      <trkpt lat="25.4862960" lon="-100.7676280">
        <ele>1873.7</ele>
        <time>2022-08-20T13:40:40Z</time>
      </trkpt>
      <trkpt lat="25.4863230" lon="-100.7676060">
        <ele>1873.8</ele>
        <time>2022-08-20T13:40:41Z</time>
      </trkpt>
      <trkpt lat="25.4863520" lon="-100.7675810">
        <ele>1873.9</ele>
        <time>2022-08-20T13:40:42Z</time>
      </trkpt>
      <trkpt lat="25.4863980" lon="-100.7675370">
        <ele>1874.1</ele>
        <time>2022-08-20T13:40:43Z</time>
      </trkpt>
      <trkpt lat="25.4864420" lon="-100.7674960">
        <ele>1874.2</ele>
        <time>2022-08-20T13:40:45Z</time>
      </trkpt>
      <trkpt lat="25.4864830" lon="-100.7674570">
        <ele>1874.3</ele>
        <time>2022-08-20T13:40:46Z</time>
      </trkpt>
      <trkpt lat="25.4865210" lon="-100.7674260">
        <ele>1874.5</ele>
        <time>2022-08-20T13:40:47Z</time>
      </trkpt>
      <trkpt lat="25.4865770" lon="-100.7673740">
        <ele>1874.7</ele>
        <time>2022-08-20T13:40:49Z</time>
      </trkpt>
      <trkpt lat="25.4866090" lon="-100.7673430">
        <ele>1874.8</ele>
        <time>2022-08-20T13:40:51Z</time>
      </trkpt>
      <trkpt lat="25.4866620" lon="-100.7672940">
        <ele>1874.9</ele>
        <time>2022-08-20T13:40:52Z</time>
      </trkpt>
      <trkpt lat="25.4866920" lon="-100.7672700">
        <ele>1875.0</ele>
        <time>2022-08-20T13:40:53Z</time>
      </trkpt>
      <trkpt lat="25.4867220" lon="-100.7672390">
        <ele>1875.1</ele>
        <time>2022-08-20T13:40:55Z</time>
      </trkpt>
      <trkpt lat="25.4867480" lon="-100.7672120">
        <ele>1875.2</ele>
        <time>2022-08-20T13:40:56Z</time>
      </trkpt>
      <trkpt lat="25.4867730" lon="-100.7671850">
        <ele>1875.3</ele>
        <time>2022-08-20T13:40:57Z</time>
      </trkpt>
      <trkpt lat="25.4868000" lon="-100.7671600">
        <ele>1875.4</ele>
        <time>2022-08-20T13:40:58Z</time>
      </trkpt>
      <trkpt lat="25.4868430" lon="-100.7671150">
        <ele>1875.6</ele>
        <time>2022-08-20T13:40:59Z</time>
      </trkpt>
      <trkpt lat="25.4868750" lon="-100.7670840">
        <ele>1875.7</ele>
        <time>2022-08-20T13:41:01Z</time>
      </trkpt>
      <trkpt lat="25.4869070" lon="-100.7670580">
        <ele>1875.8</ele>
        <time>2022-08-20T13:41:02Z</time>
      </trkpt>
      <trkpt lat="25.4869310" lon="-100.7670400">
        <ele>1875.9</ele>
        <time>2022-08-20T13:41:03Z</time>
      </trkpt>
      <trkpt lat="25.4869900" lon="-100.7669970">
        <ele>1876.1</ele>
        <time>2022-08-20T13:41:05Z</time>
      </trkpt>
      <trkpt lat="25.4870270" lon="-100.7669640">
        <ele>1876.2</ele>
        <time>2022-08-20T13:41:06Z</time>
      </trkpt>
      <trkpt lat="25.4870630" lon="-100.7669400">
        <ele>1876.4</ele>
        <time>2022-08-20T13:41:07Z</time>
      </trkpt>
      <trkpt lat="25.4870950" lon="-100.7669110">
        <ele>1876.5</ele>
        <time>2022-08-20T13:41:08Z</time>
      </trkpt>
      <trkpt lat="25.4871310" lon="-100.7668760">
        <ele>1876.6</ele>
        <time>2022-08-20T13:41:10Z</time>
      </trkpt>
      <trkpt lat="25.4871630" lon="-100.7668460">
        <ele>1876.7</ele>
        <time>2022-08-20T13:41:11Z</time>
      </trkpt>
      <trkpt lat="25.4871890" lon="-100.7668170">
        <ele>1876.8</ele>
        <time>2022-08-20T13:41:12Z</time>
      </trkpt>
      <trkpt lat="25.4872250" lon="-100.7667790">
        <ele>1877.0</ele>
        <time>2022-08-20T13:41:13Z</time>
      </trkpt>
      <trkpt lat="25.4872590" lon="-100.7667490">
        <ele>1877.1</ele>
        <time>2022-08-20T13:41:14Z</time>
      </trkpt>
      <trkpt lat="25.4872930" lon="-100.7667180">
        <ele>1877.2</ele>
        <time>2022-08-20T13:41:15Z</time>
      </trkpt>
      <trkpt lat="25.4873300" lon="-100.7666890">
        <ele>1877.3</ele>
        <time>2022-08-20T13:41:17Z</time>
      </trkpt>
      <trkpt lat="25.4873590" lon="-100.7666660">
        <ele>1877.4</ele>
        <time>2022-08-20T13:41:18Z</time>
      </trkpt>
      <trkpt lat="25.4874030" lon="-100.7666280">
        <ele>1877.5</ele>
        <time>2022-08-20T13:41:19Z</time>
      </trkpt>
      <trkpt lat="25.4874460" lon="-100.7665830">
        <ele>1877.7</ele>
        <time>2022-08-20T13:41:21Z</time>
      </trkpt>
      <trkpt lat="25.4874750" lon="-100.7665590">
        <ele>1877.7</ele>
        <time>2022-08-20T13:41:22Z</time>
      </trkpt>
      <trkpt lat="25.4875030" lon="-100.7665320">
        <ele>1877.8</ele>
        <time>2022-08-20T13:41:23Z</time>
      </trkpt>
      <trkpt lat="25.4875510" lon="-100.7664810">
        <ele>1878.0</ele>
        <time>2022-08-20T13:41:24Z</time>
      </trkpt>
      <trkpt lat="25.4875900" lon="-100.7664410">
        <ele>1878.1</ele>
        <time>2022-08-20T13:41:26Z</time>
      </trkpt>
      <trkpt lat="25.4876300" lon="-100.7664030">
        <ele>1878.3</ele>
        <time>2022-08-20T13:41:27Z</time>
      </trkpt>
      <trkpt lat="25.4876590" lon="-100.7663760">
        <ele>1878.4</ele>
        <time>2022-08-20T13:41:29Z</time>
      </trkpt>
      <trkpt lat="25.4876850" lon="-100.7663520">
        <ele>1878.5</ele>
        <time>2022-08-20T13:41:30Z</time>
      </trkpt>
      <trkpt lat="25.4877270" lon="-100.7663110">
        <ele>1878.6</ele>
        <time>2022-08-20T13:41:31Z</time>
      </trkpt>
      <trkpt lat="25.4877560" lon="-100.7662820">
        <ele>1878.8</ele>
        <time>2022-08-20T13:41:32Z</time>
      </trkpt>
      <trkpt lat="25.4877950" lon="-100.7662540">
        <ele>1879.0</ele>
        <time>2022-08-20T13:41:34Z</time>
      </trkpt>
      <trkpt lat="25.4878260" lon="-100.7662300">
        <ele>1879.1</ele>
        <time>2022-08-20T13:41:35Z</time>
      </trkpt>
      <trkpt lat="25.4878640" lon="-100.7661950">
        <ele>1879.3</ele>
        <time>2022-08-20T13:41:36Z</time>
      </trkpt>
      <trkpt lat="25.4878980" lon="-100.7661620">
        <ele>1879.5</ele>
        <time>2022-08-20T13:41:38Z</time>
      </trkpt>
      <trkpt lat="25.4879500" lon="-100.7661160">
        <ele>1879.8</ele>
        <time>2022-08-20T13:41:39Z</time>
      </trkpt>
      <trkpt lat="25.4879980" lon="-100.7660710">
        <ele>1880.0</ele>
        <time>2022-08-20T13:41:41Z</time>
      </trkpt>
      <trkpt lat="25.4880190" lon="-100.7660520">
        <ele>1880.1</ele>
        <time>2022-08-20T13:41:42Z</time>
      </trkpt>
      <trkpt lat="25.4880510" lon="-100.7660220">
        <ele>1880.3</ele>
        <time>2022-08-20T13:41:43Z</time>
      </trkpt>
      <trkpt lat="25.4880810" lon="-100.7659940">
        <ele>1880.4</ele>
        <time>2022-08-20T13:41:45Z</time>
      </trkpt>
      <trkpt lat="25.4881190" lon="-100.7659570">
        <ele>1880.6</ele>
        <time>2022-08-20T13:41:46Z</time>
      </trkpt>
      <trkpt lat="25.4881480" lon="-100.7659370">
        <ele>1880.8</ele>
        <time>2022-08-20T13:41:47Z</time>
      </trkpt>
      <trkpt lat="25.4881820" lon="-100.7659080">
        <ele>1880.9</ele>
        <time>2022-08-20T13:41:48Z</time>
      </trkpt>
      <trkpt lat="25.4882140" lon="-100.7658770">
        <ele>1881.1</ele>
        <time>2022-08-20T13:41:50Z</time>
      </trkpt>
      <trkpt lat="25.4882420" lon="-100.7658510">
        <ele>1881.2</ele>
        <time>2022-08-20T13:41:51Z</time>
      </trkpt>
      <trkpt lat="25.4882850" lon="-100.7658140">
        <ele>1881.4</ele>
        <time>2022-08-20T13:41:52Z</time>
      </trkpt>
      <trkpt lat="25.4883180" lon="-100.7657830">
        <ele>1881.5</ele>
        <time>2022-08-20T13:41:53Z</time>
      </trkpt>
      <trkpt lat="25.4883500" lon="-100.7657560">
        <ele>1881.6</ele>
        <time>2022-08-20T13:41:54Z</time>
      </trkpt>
      <trkpt lat="25.4884100" lon="-100.7657050">
        <ele>1881.8</ele>
        <time>2022-08-20T13:41:56Z</time>
      </trkpt>
      <trkpt lat="25.4884400" lon="-100.7656740">
        <ele>1881.9</ele>
        <time>2022-08-20T13:41:58Z</time>
      </trkpt>
      <trkpt lat="25.4884870" lon="-100.7656230">
        <ele>1882.0</ele>
        <time>2022-08-20T13:41:59Z</time>
      </trkpt>
      <trkpt lat="25.4885130" lon="-100.7655890">
        <ele>1882.1</ele>
        <time>2022-08-20T13:42:00Z</time>
      </trkpt>
      <trkpt lat="25.4885370" lon="-100.7655550">
        <ele>1882.2</ele>
        <time>2022-08-20T13:42:01Z</time>
      </trkpt>
      <trkpt lat="25.4885620" lon="-100.7655240">
        <ele>1882.2</ele>
        <time>2022-08-20T13:42:03Z</time>
      </trkpt>
      <trkpt lat="25.4885880" lon="-100.7654920">
        <ele>1882.3</ele>
        <time>2022-08-20T13:42:04Z</time>
      </trkpt>
      <trkpt lat="25.4886080" lon="-100.7654630">
        <ele>1882.4</ele>
        <time>2022-08-20T13:42:05Z</time>
      </trkpt>
      <trkpt lat="25.4886450" lon="-100.7654090">
        <ele>1882.5</ele>
        <time>2022-08-20T13:42:06Z</time>
      </trkpt>
      <trkpt lat="25.4886790" lon="-100.7653490">
        <ele>1882.6</ele>
        <time>2022-08-20T13:42:09Z</time>
      </trkpt>
      <trkpt lat="25.4887100" lon="-100.7652830">
        <ele>1882.8</ele>
        <time>2022-08-20T13:42:11Z</time>
      </trkpt>
      <trkpt lat="25.4887270" lon="-100.7652510">
        <ele>1882.8</ele>
        <time>2022-08-20T13:42:12Z</time>
      </trkpt>
      <trkpt lat="25.4887470" lon="-100.7652170">
        <ele>1882.9</ele>
        <time>2022-08-20T13:42:13Z</time>
      </trkpt>
      <trkpt lat="25.4887700" lon="-100.7651840">
        <ele>1883.0</ele>
        <time>2022-08-20T13:42:14Z</time>
      </trkpt>
      <trkpt lat="25.4887880" lon="-100.7651500">
        <ele>1883.1</ele>
        <time>2022-08-20T13:42:15Z</time>
      </trkpt>
      <trkpt lat="25.4888080" lon="-100.7651170">
        <ele>1883.2</ele>
        <time>2022-08-20T13:42:16Z</time>
      </trkpt>
      <trkpt lat="25.4888240" lon="-100.7650830">
        <ele>1883.2</ele>
        <time>2022-08-20T13:42:17Z</time>
      </trkpt>
      <trkpt lat="25.4888440" lon="-100.7650360">
        <ele>1883.3</ele>
        <time>2022-08-20T13:42:18Z</time>
      </trkpt>
      <trkpt lat="25.4888770" lon="-100.7649820">
        <ele>1883.4</ele>
        <time>2022-08-20T13:42:20Z</time>
      </trkpt>
      <trkpt lat="25.4888990" lon="-100.7649490">
        <ele>1883.5</ele>
        <time>2022-08-20T13:42:21Z</time>
      </trkpt>
      <trkpt lat="25.4889200" lon="-100.7649160">
        <ele>1883.6</ele>
        <time>2022-08-20T13:42:22Z</time>
      </trkpt>
      <trkpt lat="25.4889420" lon="-100.7648850">
        <ele>1883.6</ele>
        <time>2022-08-20T13:42:23Z</time>
      </trkpt>
      <trkpt lat="25.4889800" lon="-100.7648310">
        <ele>1883.7</ele>
        <time>2022-08-20T13:42:24Z</time>
      </trkpt>
      <trkpt lat="25.4890140" lon="-100.7647900">
        <ele>1883.7</ele>
        <time>2022-08-20T13:42:25Z</time>
      </trkpt>
      <trkpt lat="25.4890480" lon="-100.7647470">
        <ele>1883.8</ele>
        <time>2022-08-20T13:42:27Z</time>
      </trkpt>
      <trkpt lat="25.4890970" lon="-100.7646840">
        <ele>1883.8</ele>
        <time>2022-08-20T13:42:29Z</time>
      </trkpt>
      <trkpt lat="25.4891150" lon="-100.7646540">
        <ele>1883.8</ele>
        <time>2022-08-20T13:42:30Z</time>
      </trkpt>
      <trkpt lat="25.4891330" lon="-100.7646270">
        <ele>1883.8</ele>
        <time>2022-08-20T13:42:31Z</time>
      </trkpt>
      <trkpt lat="25.4891490" lon="-100.7646010">
        <ele>1883.8</ele>
        <time>2022-08-20T13:42:32Z</time>
      </trkpt>
      <trkpt lat="25.4891800" lon="-100.7645520">
        <ele>1883.8</ele>
        <time>2022-08-20T13:42:33Z</time>
      </trkpt>
      <trkpt lat="25.4892000" lon="-100.7645220">
        <ele>1883.8</ele>
        <time>2022-08-20T13:42:35Z</time>
      </trkpt>
      <trkpt lat="25.4892160" lon="-100.7644910">
        <ele>1883.7</ele>
        <time>2022-08-20T13:42:36Z</time>
      </trkpt>
      <trkpt lat="25.4892340" lon="-100.7644560">
        <ele>1883.6</ele>
        <time>2022-08-20T13:42:37Z</time>
      </trkpt>
      <trkpt lat="25.4892700" lon="-100.7643860">
        <ele>1883.5</ele>
        <time>2022-08-20T13:42:38Z</time>
      </trkpt>
      <trkpt lat="25.4892930" lon="-100.7643330">
        <ele>1883.3</ele>
        <time>2022-08-20T13:42:39Z</time>
      </trkpt>
      <trkpt lat="25.4893110" lon="-100.7642820">
        <ele>1883.1</ele>
        <time>2022-08-20T13:42:40Z</time>
      </trkpt>
      <trkpt lat="25.4893240" lon="-100.7642250">
        <ele>1882.9</ele>
        <time>2022-08-20T13:42:41Z</time>
      </trkpt>
      <trkpt lat="25.4893320" lon="-100.7641630">
        <ele>1882.7</ele>
        <time>2022-08-20T13:42:42Z</time>
      </trkpt>
      <trkpt lat="25.4893370" lon="-100.7640940">
        <ele>1882.5</ele>
        <time>2022-08-20T13:42:43Z</time>
      </trkpt>
      <trkpt lat="25.4893380" lon="-100.7640250">
        <ele>1882.3</ele>
        <time>2022-08-20T13:42:44Z</time>
      </trkpt>
      <trkpt lat="25.4893370" lon="-100.7639590">
        <ele>1882.0</ele>
        <time>2022-08-20T13:42:45Z</time>
      </trkpt>
      <trkpt lat="25.4893310" lon="-100.7639010">
        <ele>1881.8</ele>
        <time>2022-08-20T13:42:46Z</time>
      </trkpt>
      <trkpt lat="25.4893250" lon="-100.7638520">
        <ele>1881.7</ele>
        <time>2022-08-20T13:42:47Z</time>
      </trkpt>
      <trkpt lat="25.4893110" lon="-100.7638110">
        <ele>1881.6</ele>
        <time>2022-08-20T13:42:48Z</time>
      </trkpt>
      <trkpt lat="25.4892960" lon="-100.7637820">
        <ele>1881.5</ele>
        <time>2022-08-20T13:42:49Z</time>
      </trkpt>
      <trkpt lat="25.4892890" lon="-100.7637530">
        <ele>1881.4</ele>
        <time>2022-08-20T13:42:50Z</time>
      </trkpt>
      <trkpt lat="25.4892900" lon="-100.7637160">
        <ele>1881.3</ele>
        <time>2022-08-20T13:42:51Z</time>
      </trkpt>
      <trkpt lat="25.4892920" lon="-100.7637050">
        <ele>1881.2</ele>
        <time>2022-08-20T13:42:52Z</time>
      </trkpt>
      <trkpt lat="25.4893060" lon="-100.7636900">
        <ele>1881.3</ele>
        <time>2022-08-20T13:42:54Z</time>
      </trkpt>
      <trkpt lat="25.4893110" lon="-100.7636990">
        <ele>1881.3</ele>
        <time>2022-08-20T13:42:55Z</time>
      </trkpt>
      <trkpt lat="25.4893110" lon="-100.7637000">
        <ele>1881.3</ele>
        <time>2022-08-20T13:42:56Z</time>
      </trkpt>
      <trkpt lat="25.4893110" lon="-100.7636990">
        <ele>1881.3</ele>
        <time>2022-08-20T13:42:57Z</time>
      </trkpt>
      <trkpt lat="25.4893110" lon="-100.7636980">
        <ele>1881.3</ele>
        <time>2022-08-20T13:42:58Z</time>
      </trkpt>
      <trkpt lat="25.4893110" lon="-100.7636960">
        <ele>1881.3</ele>
        <time>2022-08-20T13:42:59Z</time>
      </trkpt>
      <trkpt lat="25.4893110" lon="-100.7636950">
        <ele>1881.3</ele>
        <time>2022-08-20T13:43:00Z</time>
      </trkpt>
      <trkpt lat="25.4893130" lon="-100.7636950">
        <ele>1881.3</ele>
        <time>2022-08-20T13:43:01Z</time>
      </trkpt>
      <trkpt lat="25.4893140" lon="-100.7636950">
        <ele>1881.3</ele>
        <time>2022-08-20T13:43:02Z</time>
      </trkpt>
      <trkpt lat="25.4893140" lon="-100.7636950">
        <ele>1881.3</ele>
        <time>2022-08-20T13:43:03Z</time>
      </trkpt>
      <trkpt lat="25.4893150" lon="-100.7636950">
        <ele>1881.3</ele>
        <time>2022-08-20T13:43:04Z</time>
      </trkpt>
      <trkpt lat="25.4893150" lon="-100.7636940">
        <ele>1881.3</ele>
        <time>2022-08-20T13:43:05Z</time>
      </trkpt>
      <trkpt lat="25.4893160" lon="-100.7636950">
        <ele>1881.3</ele>
        <time>2022-08-20T13:43:06Z</time>
      </trkpt>
      <trkpt lat="25.4893170" lon="-100.7636950">
        <ele>1881.3</ele>
        <time>2022-08-20T13:43:08Z</time>
      </trkpt>
      <trkpt lat="25.4893170" lon="-100.7636940">
        <ele>1881.3</ele>
        <time>2022-08-20T13:43:09Z</time>
      </trkpt>
      <trkpt lat="25.4893180" lon="-100.7636950">
        <ele>1881.3</ele>
        <time>2022-08-20T13:43:10Z</time>
      </trkpt>
      <trkpt lat="25.4893180" lon="-100.7636950">
        <ele>1881.3</ele>
        <time>2022-08-20T13:43:11Z</time>
      </trkpt>
      <trkpt lat="25.4893180" lon="-100.7636950">
        <ele>1881.3</ele>
        <time>2022-08-20T13:43:12Z</time>
      </trkpt>
      <trkpt lat="25.4893180" lon="-100.7636950">
        <ele>1881.3</ele>
        <time>2022-08-20T13:43:13Z</time>
      </trkpt>
      <trkpt lat="25.4893170" lon="-100.7636960">
        <ele>1881.4</ele>
        <time>2022-08-20T13:43:14Z</time>
      </trkpt>
      <trkpt lat="25.4893180" lon="-100.7636970">
        <ele>1881.4</ele>
        <time>2022-08-20T13:43:15Z</time>
      </trkpt>
      <trkpt lat="25.4893180" lon="-100.7636980">
        <ele>1881.4</ele>
        <time>2022-08-20T13:43:16Z</time>
      </trkpt>
      <trkpt lat="25.4893170" lon="-100.7636990">
        <ele>1881.4</ele>
        <time>2022-08-20T13:43:17Z</time>
      </trkpt>
      <trkpt lat="25.4893170" lon="-100.7636990">
        <ele>1881.4</ele>
        <time>2022-08-20T13:43:18Z</time>
      </trkpt>
      <trkpt lat="25.4893170" lon="-100.7636990">
        <ele>1881.4</ele>
        <time>2022-08-20T13:43:19Z</time>
      </trkpt>
      <trkpt lat="25.4893170" lon="-100.7636990">
        <ele>1881.4</ele>
        <time>2022-08-20T13:43:20Z</time>
      </trkpt>
      <trkpt lat="25.4893170" lon="-100.7636990">
        <ele>1881.4</ele>
        <time>2022-08-20T13:43:21Z</time>
      </trkpt>
      <trkpt lat="25.4893170" lon="-100.7636990">
        <ele>1881.4</ele>
        <time>2022-08-20T13:43:22Z</time>
      </trkpt>
      <trkpt lat="25.4893170" lon="-100.7636980">
        <ele>1881.4</ele>
        <time>2022-08-20T13:43:23Z</time>
      </trkpt>
      <trkpt lat="25.4893110" lon="-100.7637000">
        <ele>1881.4</ele>
        <time>2022-08-20T13:43:24Z</time>
      </trkpt>
      <trkpt lat="25.4893160" lon="-100.7636980">
        <ele>1881.4</ele>
        <time>2022-08-20T13:43:25Z</time>
      </trkpt>
      <trkpt lat="25.4893180" lon="-100.7636980">
        <ele>1881.4</ele>
        <time>2022-08-20T13:43:26Z</time>
      </trkpt>
      <trkpt lat="25.4893180" lon="-100.7636980">
        <ele>1881.4</ele>
        <time>2022-08-20T13:43:27Z</time>
      </trkpt>
      <trkpt lat="25.4893180" lon="-100.7636980">
        <ele>1881.4</ele>
        <time>2022-08-20T13:43:28Z</time>
      </trkpt>
      <trkpt lat="25.4893140" lon="-100.7636990">
        <ele>1881.4</ele>
        <time>2022-08-20T13:43:30Z</time>
      </trkpt>
      <trkpt lat="25.4893110" lon="-100.7637000">
        <ele>1881.4</ele>
        <time>2022-08-20T13:43:31Z</time>
      </trkpt>
      <trkpt lat="25.4893100" lon="-100.7637010">
        <ele>1881.4</ele>
        <time>2022-08-20T13:43:32Z</time>
      </trkpt>
      <trkpt lat="25.4893090" lon="-100.7637010">
        <ele>1881.4</ele>
        <time>2022-08-20T13:43:33Z</time>
      </trkpt>
      <trkpt lat="25.4893090" lon="-100.7637010">
        <ele>1881.4</ele>
        <time>2022-08-20T13:43:34Z</time>
      </trkpt>
      <trkpt lat="25.4893080" lon="-100.7637010">
        <ele>1881.4</ele>
        <time>2022-08-20T13:43:35Z</time>
      </trkpt>
      <trkpt lat="25.4893080" lon="-100.7637010">
        <ele>1881.4</ele>
        <time>2022-08-20T13:43:36Z</time>
      </trkpt>
      <trkpt lat="25.4893080" lon="-100.7637010">
        <ele>1881.4</ele>
        <time>2022-08-20T13:43:37Z</time>
      </trkpt>
      <trkpt lat="25.4893080" lon="-100.7637010">
        <ele>1881.4</ele>
        <time>2022-08-20T13:43:38Z</time>
      </trkpt>
      <trkpt lat="25.4893080" lon="-100.7637010">
        <ele>1881.4</ele>
        <time>2022-08-20T13:43:39Z</time>
      </trkpt>
      <trkpt lat="25.4893080" lon="-100.7637010">
        <ele>1881.4</ele>
        <time>2022-08-20T13:43:40Z</time>
      </trkpt>
      <trkpt lat="25.4893080" lon="-100.7637010">
        <ele>1881.4</ele>
        <time>2022-08-20T13:43:41Z</time>
      </trkpt>
      <trkpt lat="25.4893080" lon="-100.7637010">
        <ele>1881.4</ele>
        <time>2022-08-20T13:43:42Z</time>
      </trkpt>
      <trkpt lat="25.4893080" lon="-100.7637010">
        <ele>1881.4</ele>
        <time>2022-08-20T13:43:43Z</time>
      </trkpt>
      <trkpt lat="25.4893080" lon="-100.7637010">
        <ele>1881.4</ele>
        <time>2022-08-20T13:43:44Z</time>
      </trkpt>
      <trkpt lat="25.4893080" lon="-100.7637010">
        <ele>1881.4</ele>
        <time>2022-08-20T13:43:45Z</time>
      </trkpt>
      <trkpt lat="25.4893080" lon="-100.7637010">
        <ele>1881.4</ele>
        <time>2022-08-20T13:43:46Z</time>
      </trkpt>
      <trkpt lat="25.4893080" lon="-100.7637010">
        <ele>1881.4</ele>
        <time>2022-08-20T13:43:47Z</time>
      </trkpt>
      <trkpt lat="25.4893080" lon="-100.7637010">
        <ele>1881.4</ele>
        <time>2022-08-20T13:43:48Z</time>
      </trkpt>
      <trkpt lat="25.4893080" lon="-100.7637010">
        <ele>1881.4</ele>
        <time>2022-08-20T13:43:49Z</time>
      </trkpt>
      <trkpt lat="25.4893080" lon="-100.7637010">
        <ele>1881.4</ele>
        <time>2022-08-20T13:43:50Z</time>
      </trkpt>
      <trkpt lat="25.4893080" lon="-100.7637010">
        <ele>1881.4</ele>
        <time>2022-08-20T13:43:51Z</time>
      </trkpt>
      <trkpt lat="25.4893080" lon="-100.7637010">
        <ele>1881.4</ele>
        <time>2022-08-20T13:43:52Z</time>
      </trkpt>
      <trkpt lat="25.4893080" lon="-100.7637010">
        <ele>1881.4</ele>
        <time>2022-08-20T13:43:53Z</time>
      </trkpt>
      <trkpt lat="25.4893080" lon="-100.7637010">
        <ele>1881.4</ele>
        <time>2022-08-20T13:43:54Z</time>
      </trkpt>
      <trkpt lat="25.4893080" lon="-100.7637010">
        <ele>1881.4</ele>
        <time>2022-08-20T13:43:55Z</time>
      </trkpt>
      <trkpt lat="25.4893080" lon="-100.7637010">
        <ele>1881.4</ele>
        <time>2022-08-20T13:43:56Z</time>
      </trkpt>
      <trkpt lat="25.4893080" lon="-100.7637010">
        <ele>1881.4</ele>
        <time>2022-08-20T13:43:57Z</time>
      </trkpt>
      <trkpt lat="25.4893080" lon="-100.7637010">
        <ele>1881.4</ele>
        <time>2022-08-20T13:43:58Z</time>
      </trkpt>
      <trkpt lat="25.4893080" lon="-100.7637010">
        <ele>1881.4</ele>
        <time>2022-08-20T13:43:59Z</time>
      </trkpt>
      <trkpt lat="25.4893080" lon="-100.7637010">
        <ele>1881.4</ele>
        <time>2022-08-20T13:44:00Z</time>
      </trkpt>
      <trkpt lat="25.4893080" lon="-100.7637010">
        <ele>1881.4</ele>
        <time>2022-08-20T13:44:01Z</time>
      </trkpt>
      <trkpt lat="25.4893080" lon="-100.7637010">
        <ele>1881.4</ele>
        <time>2022-08-20T13:44:02Z</time>
      </trkpt>
      <trkpt lat="25.4893080" lon="-100.7637010">
        <ele>1881.4</ele>
        <time>2022-08-20T13:44:03Z</time>
      </trkpt>
      <trkpt lat="25.4893080" lon="-100.7637010">
        <ele>1881.4</ele>
        <time>2022-08-20T13:44:04Z</time>
      </trkpt>
      <trkpt lat="25.4893080" lon="-100.7637010">
        <ele>1881.4</ele>
        <time>2022-08-20T13:44:05Z</time>
      </trkpt>
      <trkpt lat="25.4893080" lon="-100.7637010">
        <ele>1881.4</ele>
        <time>2022-08-20T13:44:06Z</time>
      </trkpt>
      <trkpt lat="25.4893080" lon="-100.7637010">
        <ele>1881.4</ele>
        <time>2022-08-20T13:44:07Z</time>
      </trkpt>
      <trkpt lat="25.4893080" lon="-100.7637010">
        <ele>1881.4</ele>
        <time>2022-08-20T13:44:08Z</time>
      </trkpt>
      <trkpt lat="25.4893080" lon="-100.7637010">
        <ele>1881.4</ele>
        <time>2022-08-20T13:44:09Z</time>
      </trkpt>
      <trkpt lat="25.4893080" lon="-100.7637010">
        <ele>1881.4</ele>
        <time>2022-08-20T13:44:10Z</time>
      </trkpt>
      <trkpt lat="25.4893080" lon="-100.7637010">
        <ele>1881.4</ele>
        <time>2022-08-20T13:44:11Z</time>
      </trkpt>
      <trkpt lat="25.4893080" lon="-100.7637010">
        <ele>1881.4</ele>
        <time>2022-08-20T13:44:12Z</time>
      </trkpt>
      <trkpt lat="25.4893080" lon="-100.7637010">
        <ele>1881.4</ele>
        <time>2022-08-20T13:44:13Z</time>
      </trkpt>
      <trkpt lat="25.4893080" lon="-100.7637010">
        <ele>1881.4</ele>
        <time>2022-08-20T13:44:14Z</time>
      </trkpt>
      <trkpt lat="25.4893080" lon="-100.7637010">
        <ele>1881.4</ele>
        <time>2022-08-20T13:44:15Z</time>
      </trkpt>
      <trkpt lat="25.4893080" lon="-100.7637010">
        <ele>1881.4</ele>
        <time>2022-08-20T13:44:16Z</time>
      </trkpt>
      <trkpt lat="25.4893080" lon="-100.7637010">
        <ele>1881.4</ele>
        <time>2022-08-20T13:44:17Z</time>
      </trkpt>
      <trkpt lat="25.4893080" lon="-100.7637010">
        <ele>1881.4</ele>
        <time>2022-08-20T13:44:18Z</time>
      </trkpt>
      <trkpt lat="25.4893080" lon="-100.7637010">
        <ele>1881.4</ele>
        <time>2022-08-20T13:44:19Z</time>
      </trkpt>
      <trkpt lat="25.4893080" lon="-100.7637010">
        <ele>1881.4</ele>
        <time>2022-08-20T13:44:20Z</time>
      </trkpt>
      <trkpt lat="25.4893080" lon="-100.7637010">
        <ele>1881.4</ele>
        <time>2022-08-20T13:44:21Z</time>
      </trkpt>
      <trkpt lat="25.4893080" lon="-100.7637010">
        <ele>1881.4</ele>
        <time>2022-08-20T13:44:22Z</time>
      </trkpt>
      <trkpt lat="25.4893080" lon="-100.7637010">
        <ele>1881.4</ele>
        <time>2022-08-20T13:44:23Z</time>
      </trkpt>
      <trkpt lat="25.4893080" lon="-100.7637010">
        <ele>1881.4</ele>
        <time>2022-08-20T13:44:24Z</time>
      </trkpt>
      <trkpt lat="25.4893080" lon="-100.7637010">
        <ele>1881.4</ele>
        <time>2022-08-20T13:44:25Z</time>
      </trkpt>
      <trkpt lat="25.4893070" lon="-100.7636990">
        <ele>1881.4</ele>
        <time>2022-08-20T13:44:26Z</time>
      </trkpt>
      <trkpt lat="25.4893070" lon="-100.7637000">
        <ele>1881.4</ele>
        <time>2022-08-20T13:44:28Z</time>
      </trkpt>
      <trkpt lat="25.4893070" lon="-100.7637010">
        <ele>1881.4</ele>
        <time>2022-08-20T13:44:29Z</time>
      </trkpt>
      <trkpt lat="25.4893070" lon="-100.7637010">
        <ele>1881.4</ele>
        <time>2022-08-20T13:44:30Z</time>
      </trkpt>
      <trkpt lat="25.4893070" lon="-100.7637010">
        <ele>1881.4</ele>
        <time>2022-08-20T13:44:31Z</time>
      </trkpt>
      <trkpt lat="25.4893070" lon="-100.7637010">
        <ele>1881.4</ele>
        <time>2022-08-20T13:44:32Z</time>
      </trkpt>
      <trkpt lat="25.4893070" lon="-100.7637010">
        <ele>1881.4</ele>
        <time>2022-08-20T13:44:33Z</time>
      </trkpt>
      <trkpt lat="25.4893070" lon="-100.7637010">
        <ele>1881.4</ele>
        <time>2022-08-20T13:44:34Z</time>
      </trkpt>
      <trkpt lat="25.4893060" lon="-100.7637010">
        <ele>1881.4</ele>
        <time>2022-08-20T13:44:35Z</time>
      </trkpt>
      <trkpt lat="25.4893070" lon="-100.7637010">
        <ele>1881.4</ele>
        <time>2022-08-20T13:44:36Z</time>
      </trkpt>
      <trkpt lat="25.4893070" lon="-100.7637010">
        <ele>1881.4</ele>
        <time>2022-08-20T13:44:37Z</time>
      </trkpt>
      <trkpt lat="25.4893070" lon="-100.7637010">
        <ele>1881.4</ele>
        <time>2022-08-20T13:44:38Z</time>
      </trkpt>
      <trkpt lat="25.4893070" lon="-100.7637000">
        <ele>1881.4</ele>
        <time>2022-08-20T13:44:39Z</time>
      </trkpt>
      <trkpt lat="25.4893080" lon="-100.7637010">
        <ele>1881.4</ele>
        <time>2022-08-20T13:44:40Z</time>
      </trkpt>
      <trkpt lat="25.4893080" lon="-100.7637010">
        <ele>1881.4</ele>
        <time>2022-08-20T13:44:41Z</time>
      </trkpt>
      <trkpt lat="25.4893080" lon="-100.7637010">
        <ele>1881.4</ele>
        <time>2022-08-20T13:44:42Z</time>
      </trkpt>
      <trkpt lat="25.4893080" lon="-100.7637010">
        <ele>1881.4</ele>
        <time>2022-08-20T13:44:43Z</time>
      </trkpt>
      <trkpt lat="25.4893080" lon="-100.7637010">
        <ele>1881.4</ele>
        <time>2022-08-20T13:44:44Z</time>
      </trkpt>
      <trkpt lat="25.4893080" lon="-100.7637010">
        <ele>1881.4</ele>
        <time>2022-08-20T13:44:45Z</time>
      </trkpt>
      <trkpt lat="25.4893080" lon="-100.7637000">
        <ele>1881.4</ele>
        <time>2022-08-20T13:44:47Z</time>
      </trkpt>
      <trkpt lat="25.4893140" lon="-100.7636970">
        <ele>1881.5</ele>
        <time>2022-08-20T13:44:49Z</time>
      </trkpt>
      <trkpt lat="25.4893450" lon="-100.7636920">
        <ele>1881.5</ele>
        <time>2022-08-20T13:44:50Z</time>
      </trkpt>
      <trkpt lat="25.4893710" lon="-100.7637090">
        <ele>1881.6</ele>
        <time>2022-08-20T13:44:52Z</time>
      </trkpt>
      <trkpt lat="25.4893790" lon="-100.7637180">
        <ele>1881.6</ele>
        <time>2022-08-20T13:44:53Z</time>
      </trkpt>
      <trkpt lat="25.4893830" lon="-100.7637200">
        <ele>1881.7</ele>
        <time>2022-08-20T13:44:54Z</time>
      </trkpt>
      <trkpt lat="25.4893900" lon="-100.7637120">
        <ele>1881.7</ele>
        <time>2022-08-20T13:44:55Z</time>
      </trkpt>
      <trkpt lat="25.4893990" lon="-100.7636960">
        <ele>1881.7</ele>
        <time>2022-08-20T13:44:56Z</time>
      </trkpt>
      <trkpt lat="25.4894030" lon="-100.7636920">
        <ele>1881.7</ele>
        <time>2022-08-20T13:44:57Z</time>
      </trkpt>
      <trkpt lat="25.4894020" lon="-100.7636950">
        <ele>1881.7</ele>
        <time>2022-08-20T13:44:58Z</time>
      </trkpt>
      <trkpt lat="25.4894020" lon="-100.7636980">
        <ele>1881.8</ele>
        <time>2022-08-20T13:44:59Z</time>
      </trkpt>
      <trkpt lat="25.4894020" lon="-100.7637000">
        <ele>1881.8</ele>
        <time>2022-08-20T13:45:00Z</time>
      </trkpt>
      <trkpt lat="25.4894020" lon="-100.7637030">
        <ele>1881.8</ele>
        <time>2022-08-20T13:45:01Z</time>
      </trkpt>
      <trkpt lat="25.4894010" lon="-100.7637060">
        <ele>1881.8</ele>
        <time>2022-08-20T13:45:02Z</time>
      </trkpt>
      <trkpt lat="25.4894010" lon="-100.7637090">
        <ele>1881.8</ele>
        <time>2022-08-20T13:45:03Z</time>
      </trkpt>
      <trkpt lat="25.4894010" lon="-100.7637120">
        <ele>1881.8</ele>
        <time>2022-08-20T13:45:04Z</time>
      </trkpt>
      <trkpt lat="25.4894010" lon="-100.7637150">
        <ele>1881.8</ele>
        <time>2022-08-20T13:45:05Z</time>
      </trkpt>
      <trkpt lat="25.4894000" lon="-100.7637170">
        <ele>1881.8</ele>
        <time>2022-08-20T13:45:06Z</time>
      </trkpt>
      <trkpt lat="25.4894000" lon="-100.7637200">
        <ele>1881.8</ele>
        <time>2022-08-20T13:45:07Z</time>
      </trkpt>
      <trkpt lat="25.4894000" lon="-100.7637230">
        <ele>1881.8</ele>
        <time>2022-08-20T13:45:08Z</time>
      </trkpt>
      <trkpt lat="25.4894000" lon="-100.7637260">
        <ele>1881.8</ele>
        <time>2022-08-20T13:45:09Z</time>
      </trkpt>
      <trkpt lat="25.4893990" lon="-100.7637290">
        <ele>1881.8</ele>
        <time>2022-08-20T13:45:10Z</time>
      </trkpt>
      <trkpt lat="25.4893990" lon="-100.7637310">
        <ele>1881.8</ele>
        <time>2022-08-20T13:45:11Z</time>
      </trkpt>
      <trkpt lat="25.4893990" lon="-100.7637340">
        <ele>1881.8</ele>
        <time>2022-08-20T13:45:12Z</time>
      </trkpt>
      <trkpt lat="25.4893990" lon="-100.7637370">
        <ele>1881.8</ele>
        <time>2022-08-20T13:45:13Z</time>
      </trkpt>
      <trkpt lat="25.4893980" lon="-100.7637400">
        <ele>1881.9</ele>
        <time>2022-08-20T13:45:14Z</time>
      </trkpt>
      <trkpt lat="25.4893980" lon="-100.7637430">
        <ele>1881.9</ele>
        <time>2022-08-20T13:45:15Z</time>
      </trkpt>
      <trkpt lat="25.4893980" lon="-100.7637450">
        <ele>1881.9</ele>
        <time>2022-08-20T13:45:17Z</time>
      </trkpt>
      <trkpt lat="25.4893980" lon="-100.7637480">
        <ele>1881.9</ele>
        <time>2022-08-20T13:45:18Z</time>
      </trkpt>
      <trkpt lat="25.4893970" lon="-100.7637510">
        <ele>1881.9</ele>
        <time>2022-08-20T13:45:19Z</time>
      </trkpt>
      <trkpt lat="25.4893970" lon="-100.7637540">
        <ele>1881.9</ele>
        <time>2022-08-20T13:45:20Z</time>
      </trkpt>
      <trkpt lat="25.4893970" lon="-100.7637570">
        <ele>1881.9</ele>
        <time>2022-08-20T13:45:21Z</time>
      </trkpt>
      <trkpt lat="25.4893970" lon="-100.7637590">
        <ele>1881.9</ele>
        <time>2022-08-20T13:45:22Z</time>
      </trkpt>
      <trkpt lat="25.4893960" lon="-100.7637620">
        <ele>1881.9</ele>
        <time>2022-08-20T13:45:23Z</time>
      </trkpt>
      <trkpt lat="25.4893960" lon="-100.7637650">
        <ele>1881.9</ele>
        <time>2022-08-20T13:45:24Z</time>
      </trkpt>
      <trkpt lat="25.4893960" lon="-100.7637680">
        <ele>1881.9</ele>
        <time>2022-08-20T13:45:26Z</time>
      </trkpt>
      <trkpt lat="25.4893960" lon="-100.7637710">
        <ele>1881.9</ele>
        <time>2022-08-20T13:45:28Z</time>
      </trkpt>
      <trkpt lat="25.4893950" lon="-100.7637730">
        <ele>1881.9</ele>
        <time>2022-08-20T13:45:29Z</time>
      </trkpt>
      <trkpt lat="25.4893950" lon="-100.7637760">
        <ele>1881.9</ele>
        <time>2022-08-20T13:45:30Z</time>
      </trkpt>
      <trkpt lat="25.4893950" lon="-100.7637790">
        <ele>1882.0</ele>
        <time>2022-08-20T13:45:31Z</time>
      </trkpt>
      <trkpt lat="25.4893950" lon="-100.7637820">
        <ele>1882.0</ele>
        <time>2022-08-20T13:45:33Z</time>
      </trkpt>
      <trkpt lat="25.4893940" lon="-100.7637850">
        <ele>1882.0</ele>
        <time>2022-08-20T13:45:34Z</time>
      </trkpt>
      <trkpt lat="25.4893940" lon="-100.7637870">
        <ele>1882.0</ele>
        <time>2022-08-20T13:45:35Z</time>
      </trkpt>
      <trkpt lat="25.4893940" lon="-100.7637900">
        <ele>1882.0</ele>
        <time>2022-08-20T13:45:36Z</time>
      </trkpt>
      <trkpt lat="25.4893940" lon="-100.7637930">
        <ele>1882.0</ele>
        <time>2022-08-20T13:45:37Z</time>
      </trkpt>
      <trkpt lat="25.4893940" lon="-100.7637960">
        <ele>1882.0</ele>
        <time>2022-08-20T13:45:38Z</time>
      </trkpt>
      <trkpt lat="25.4893930" lon="-100.7637990">
        <ele>1882.0</ele>
        <time>2022-08-20T13:45:39Z</time>
      </trkpt>
      <trkpt lat="25.4893930" lon="-100.7638010">
        <ele>1882.0</ele>
        <time>2022-08-20T13:45:40Z</time>
      </trkpt>
      <trkpt lat="25.4893930" lon="-100.7638040">
        <ele>1882.0</ele>
        <time>2022-08-20T13:45:41Z</time>
      </trkpt>
      <trkpt lat="25.4893930" lon="-100.7638070">
        <ele>1882.0</ele>
        <time>2022-08-20T13:45:42Z</time>
      </trkpt>
      <trkpt lat="25.4893920" lon="-100.7638100">
        <ele>1882.0</ele>
        <time>2022-08-20T13:45:43Z</time>
      </trkpt>
      <trkpt lat="25.4893920" lon="-100.7638130">
        <ele>1882.0</ele>
        <time>2022-08-20T13:45:44Z</time>
      </trkpt>
      <trkpt lat="25.4893920" lon="-100.7638150">
        <ele>1882.0</ele>
        <time>2022-08-20T13:45:45Z</time>
      </trkpt>
      <trkpt lat="25.4893920" lon="-100.7638180">
        <ele>1882.1</ele>
        <time>2022-08-20T13:45:46Z</time>
      </trkpt>
      <trkpt lat="25.4893910" lon="-100.7638210">
        <ele>1882.1</ele>
        <time>2022-08-20T13:45:47Z</time>
      </trkpt>
      <trkpt lat="25.4893910" lon="-100.7638240">
        <ele>1882.1</ele>
        <time>2022-08-20T13:45:48Z</time>
      </trkpt>
      <trkpt lat="25.4893910" lon="-100.7638270">
        <ele>1882.1</ele>
        <time>2022-08-20T13:45:49Z</time>
      </trkpt>
      <trkpt lat="25.4893910" lon="-100.7638290">
        <ele>1882.1</ele>
        <time>2022-08-20T13:45:50Z</time>
      </trkpt>
      <trkpt lat="25.4893900" lon="-100.7638320">
        <ele>1882.1</ele>
        <time>2022-08-20T13:45:51Z</time>
      </trkpt>
      <trkpt lat="25.4893900" lon="-100.7638350">
        <ele>1882.1</ele>
        <time>2022-08-20T13:45:52Z</time>
      </trkpt>
      <trkpt lat="25.4893900" lon="-100.7638380">
        <ele>1882.1</ele>
        <time>2022-08-20T13:45:54Z</time>
      </trkpt>
      <trkpt lat="25.4893900" lon="-100.7638410">
        <ele>1882.1</ele>
        <time>2022-08-20T13:45:55Z</time>
      </trkpt>
      <trkpt lat="25.4893890" lon="-100.7638430">
        <ele>1882.1</ele>
        <time>2022-08-20T13:45:56Z</time>
      </trkpt>
      <trkpt lat="25.4893890" lon="-100.7638460">
        <ele>1882.1</ele>
        <time>2022-08-20T13:45:57Z</time>
      </trkpt>
      <trkpt lat="25.4893890" lon="-100.7638490">
        <ele>1882.1</ele>
        <time>2022-08-20T13:45:58Z</time>
      </trkpt>
      <trkpt lat="25.4893890" lon="-100.7638520">
        <ele>1882.1</ele>
        <time>2022-08-20T13:45:59Z</time>
      </trkpt>
      <trkpt lat="25.4893880" lon="-100.7638550">
        <ele>1882.2</ele>
        <time>2022-08-20T13:46:00Z</time>
      </trkpt>
      <trkpt lat="25.4893880" lon="-100.7638570">
        <ele>1882.2</ele>
        <time>2022-08-20T13:46:01Z</time>
      </trkpt>
      <trkpt lat="25.4893880" lon="-100.7638600">
        <ele>1882.2</ele>
        <time>2022-08-20T13:46:02Z</time>
      </trkpt>
      <trkpt lat="25.4893880" lon="-100.7638630">
        <ele>1882.2</ele>
        <time>2022-08-20T13:46:04Z</time>
      </trkpt>
      <trkpt lat="25.4893870" lon="-100.7638660">
        <ele>1882.2</ele>
        <time>2022-08-20T13:46:05Z</time>
      </trkpt>
      <trkpt lat="25.4893870" lon="-100.7638690">
        <ele>1882.2</ele>
        <time>2022-08-20T13:46:06Z</time>
      </trkpt>
      <trkpt lat="25.4893870" lon="-100.7638720">
        <ele>1882.2</ele>
        <time>2022-08-20T13:46:08Z</time>
      </trkpt>
      <trkpt lat="25.4893870" lon="-100.7638740">
        <ele>1882.2</ele>
        <time>2022-08-20T13:46:09Z</time>
      </trkpt>
      <trkpt lat="25.4893860" lon="-100.7638770">
        <ele>1882.2</ele>
        <time>2022-08-20T13:46:10Z</time>
      </trkpt>
      <trkpt lat="25.4893860" lon="-100.7638800">
        <ele>1882.2</ele>
        <time>2022-08-20T13:46:12Z</time>
      </trkpt>
      <trkpt lat="25.4893860" lon="-100.7638830">
        <ele>1882.2</ele>
        <time>2022-08-20T13:46:13Z</time>
      </trkpt>
      <trkpt lat="25.4893860" lon="-100.7638860">
        <ele>1882.2</ele>
        <time>2022-08-20T13:46:14Z</time>
      </trkpt>
      <trkpt lat="25.4893850" lon="-100.7638880">
        <ele>1882.2</ele>
        <time>2022-08-20T13:46:16Z</time>
      </trkpt>
      <trkpt lat="25.4893850" lon="-100.7638910">
        <ele>1882.3</ele>
        <time>2022-08-20T13:46:17Z</time>
      </trkpt>
      <trkpt lat="25.4893850" lon="-100.7638940">
        <ele>1882.3</ele>
        <time>2022-08-20T13:46:18Z</time>
      </trkpt>
      <trkpt lat="25.4893850" lon="-100.7638970">
        <ele>1882.3</ele>
        <time>2022-08-20T13:46:19Z</time>
      </trkpt>
      <trkpt lat="25.4893840" lon="-100.7639000">
        <ele>1882.3</ele>
        <time>2022-08-20T13:46:20Z</time>
      </trkpt>
      <trkpt lat="25.4893840" lon="-100.7639020">
        <ele>1882.3</ele>
        <time>2022-08-20T13:46:21Z</time>
      </trkpt>
      <trkpt lat="25.4893840" lon="-100.7639050">
        <ele>1882.3</ele>
        <time>2022-08-20T13:46:22Z</time>
      </trkpt>
      <trkpt lat="25.4893840" lon="-100.7639080">
        <ele>1882.3</ele>
        <time>2022-08-20T13:46:24Z</time>
      </trkpt>
      <trkpt lat="25.4893830" lon="-100.7639110">
        <ele>1882.3</ele>
        <time>2022-08-20T13:46:25Z</time>
      </trkpt>
      <trkpt lat="25.4893830" lon="-100.7639140">
        <ele>1882.3</ele>
        <time>2022-08-20T13:46:26Z</time>
      </trkpt>
      <trkpt lat="25.4893830" lon="-100.7639160">
        <ele>1882.3</ele>
        <time>2022-08-20T13:46:27Z</time>
      </trkpt>
      <trkpt lat="25.4893830" lon="-100.7639190">
        <ele>1882.3</ele>
        <time>2022-08-20T13:46:28Z</time>
      </trkpt>
      <trkpt lat="25.4893820" lon="-100.7639220">
        <ele>1882.3</ele>
        <time>2022-08-20T13:46:29Z</time>
      </trkpt>
      <trkpt lat="25.4893820" lon="-100.7639250">
        <ele>1882.3</ele>
        <time>2022-08-20T13:46:30Z</time>
      </trkpt>
      <trkpt lat="25.4893820" lon="-100.7639280">
        <ele>1882.3</ele>
        <time>2022-08-20T13:46:31Z</time>
      </trkpt>
      <trkpt lat="25.4893820" lon="-100.7639300">
        <ele>1882.4</ele>
        <time>2022-08-20T13:46:32Z</time>
      </trkpt>
      <trkpt lat="25.4893810" lon="-100.7639330">
        <ele>1882.4</ele>
        <time>2022-08-20T13:46:33Z</time>
      </trkpt>
      <trkpt lat="25.4893810" lon="-100.7639360">
        <ele>1882.4</ele>
        <time>2022-08-20T13:46:34Z</time>
      </trkpt>
      <trkpt lat="25.4893810" lon="-100.7639390">
        <ele>1882.4</ele>
        <time>2022-08-20T13:46:35Z</time>
      </trkpt>
      <trkpt lat="25.4893810" lon="-100.7639420">
        <ele>1882.4</ele>
        <time>2022-08-20T13:46:36Z</time>
      </trkpt>
      <trkpt lat="25.4893800" lon="-100.7639440">
        <ele>1882.4</ele>
        <time>2022-08-20T13:46:37Z</time>
      </trkpt>
      <trkpt lat="25.4893800" lon="-100.7639470">
        <ele>1882.4</ele>
        <time>2022-08-20T13:46:39Z</time>
      </trkpt>
      <trkpt lat="25.4893800" lon="-100.7639500">
        <ele>1882.4</ele>
        <time>2022-08-20T13:46:41Z</time>
      </trkpt>
      <trkpt lat="25.4893800" lon="-100.7639530">
        <ele>1882.4</ele>
        <time>2022-08-20T13:46:42Z</time>
      </trkpt>
      <trkpt lat="25.4893800" lon="-100.7639560">
        <ele>1882.4</ele>
        <time>2022-08-20T13:46:43Z</time>
      </trkpt>
      <trkpt lat="25.4893790" lon="-100.7639580">
        <ele>1882.4</ele>
        <time>2022-08-20T13:46:44Z</time>
      </trkpt>
      <trkpt lat="25.4893790" lon="-100.7639610">
        <ele>1882.4</ele>
        <time>2022-08-20T13:46:45Z</time>
      </trkpt>
      <trkpt lat="25.4893790" lon="-100.7639640">
        <ele>1882.4</ele>
        <time>2022-08-20T13:46:46Z</time>
      </trkpt>
      <trkpt lat="25.4893680" lon="-100.7640460">
        <ele>1882.7</ele>
        <time>2022-08-20T13:46:47Z</time>
      </trkpt>
      <trkpt lat="25.4893490" lon="-100.7641430">
        <ele>1882.9</ele>
        <time>2022-08-20T13:46:49Z</time>
      </trkpt>
      <trkpt lat="25.4893300" lon="-100.7642060">
        <ele>1883.1</ele>
        <time>2022-08-20T13:46:50Z</time>
      </trkpt>
      <trkpt lat="25.4893090" lon="-100.7642680">
        <ele>1883.3</ele>
        <time>2022-08-20T13:46:51Z</time>
      </trkpt>
      <trkpt lat="25.4892870" lon="-100.7643160">
        <ele>1883.4</ele>
        <time>2022-08-20T13:46:52Z</time>
      </trkpt>
      <trkpt lat="25.4892580" lon="-100.7643610">
        <ele>1883.5</ele>
        <time>2022-08-20T13:46:53Z</time>
      </trkpt>
      <trkpt lat="25.4892330" lon="-100.7644040">
        <ele>1883.6</ele>
        <time>2022-08-20T13:46:54Z</time>
      </trkpt>
      <trkpt lat="25.4892100" lon="-100.7644390">
        <ele>1883.6</ele>
        <time>2022-08-20T13:46:55Z</time>
      </trkpt>
      <trkpt lat="25.4891880" lon="-100.7644730">
        <ele>1883.7</ele>
        <time>2022-08-20T13:46:56Z</time>
      </trkpt>
      <trkpt lat="25.4891650" lon="-100.7645090">
        <ele>1883.8</ele>
        <time>2022-08-20T13:46:57Z</time>
      </trkpt>
      <trkpt lat="25.4891460" lon="-100.7645390">
        <ele>1883.8</ele>
        <time>2022-08-20T13:46:58Z</time>
      </trkpt>
      <trkpt lat="25.4891240" lon="-100.7645720">
        <ele>1883.8</ele>
        <time>2022-08-20T13:46:59Z</time>
      </trkpt>
      <trkpt lat="25.4890790" lon="-100.7646450">
        <ele>1883.8</ele>
        <time>2022-08-20T13:47:00Z</time>
      </trkpt>
      <trkpt lat="25.4890530" lon="-100.7646810">
        <ele>1883.8</ele>
        <time>2022-08-20T13:47:02Z</time>
      </trkpt>
      <trkpt lat="25.4890090" lon="-100.7647070">
        <ele>1883.8</ele>
        <time>2022-08-20T13:47:03Z</time>
      </trkpt>
      <trkpt lat="25.4889760" lon="-100.7647350">
        <ele>1883.8</ele>
        <time>2022-08-20T13:47:04Z</time>
      </trkpt>
      <trkpt lat="25.4889320" lon="-100.7647800">
        <ele>1883.8</ele>
        <time>2022-08-20T13:47:05Z</time>
      </trkpt>
      <trkpt lat="25.4889050" lon="-100.7648320">
        <ele>1883.7</ele>
        <time>2022-08-20T13:47:07Z</time>
      </trkpt>
      <trkpt lat="25.4888820" lon="-100.7648680">
        <ele>1883.7</ele>
        <time>2022-08-20T13:47:08Z</time>
      </trkpt>
      <trkpt lat="25.4888580" lon="-100.7649000">
        <ele>1883.7</ele>
        <time>2022-08-20T13:47:09Z</time>
      </trkpt>
      <trkpt lat="25.4888390" lon="-100.7649270">
        <ele>1883.7</ele>
        <time>2022-08-20T13:47:10Z</time>
      </trkpt>
      <trkpt lat="25.4888500" lon="-100.7649520">
        <ele>1883.6</ele>
        <time>2022-08-20T13:47:11Z</time>
      </trkpt>
      <trkpt lat="25.4888610" lon="-100.7649590">
        <ele>1883.6</ele>
        <time>2022-08-20T13:47:12Z</time>
      </trkpt>
      <trkpt lat="25.4889100" lon="-100.7649300">
        <ele>1883.5</ele>
        <time>2022-08-20T13:47:14Z</time>
      </trkpt>
      <trkpt lat="25.4889280" lon="-100.7649090">
        <ele>1883.6</ele>
        <time>2022-08-20T13:47:15Z</time>
      </trkpt>
      <trkpt lat="25.4889470" lon="-100.7648880">
        <ele>1883.6</ele>
        <time>2022-08-20T13:47:16Z</time>
      </trkpt>
      <trkpt lat="25.4889840" lon="-100.7648320">
        <ele>1883.7</ele>
        <time>2022-08-20T13:47:17Z</time>
      </trkpt>
      <trkpt lat="25.4890210" lon="-100.7647700">
        <ele>1883.8</ele>
        <time>2022-08-20T13:47:18Z</time>
      </trkpt>
      <trkpt lat="25.4890560" lon="-100.7647110">
        <ele>1883.8</ele>
        <time>2022-08-20T13:47:19Z</time>
      </trkpt>
      <trkpt lat="25.4890880" lon="-100.7646560">
        <ele>1883.8</ele>
        <time>2022-08-20T13:47:20Z</time>
      </trkpt>
      <trkpt lat="25.4891180" lon="-100.7645980">
        <ele>1883.8</ele>
        <time>2022-08-20T13:47:21Z</time>
      </trkpt>
      <trkpt lat="25.4891480" lon="-100.7645400">
        <ele>1883.8</ele>
        <time>2022-08-20T13:47:22Z</time>
      </trkpt>
      <trkpt lat="25.4891790" lon="-100.7644820">
        <ele>1883.7</ele>
        <time>2022-08-20T13:47:23Z</time>
      </trkpt>
      <trkpt lat="25.4892130" lon="-100.7644230">
        <ele>1883.6</ele>
        <time>2022-08-20T13:47:24Z</time>
      </trkpt>
      <trkpt lat="25.4892480" lon="-100.7643630">
        <ele>1883.4</ele>
        <time>2022-08-20T13:47:25Z</time>
      </trkpt>
      <trkpt lat="25.4892830" lon="-100.7642990">
        <ele>1883.2</ele>
        <time>2022-08-20T13:47:26Z</time>
      </trkpt>
      <trkpt lat="25.4893140" lon="-100.7642250">
        <ele>1882.9</ele>
        <time>2022-08-20T13:47:27Z</time>
      </trkpt>
      <trkpt lat="25.4893360" lon="-100.7641380">
        <ele>1882.6</ele>
        <time>2022-08-20T13:47:28Z</time>
      </trkpt>
      <trkpt lat="25.4893470" lon="-100.7640420">
        <ele>1882.3</ele>
        <time>2022-08-20T13:47:29Z</time>
      </trkpt>
      <trkpt lat="25.4893470" lon="-100.7639420">
        <ele>1882.0</ele>
        <time>2022-08-20T13:47:30Z</time>
      </trkpt>
      <trkpt lat="25.4893420" lon="-100.7638490">
        <ele>1881.7</ele>
        <time>2022-08-20T13:47:31Z</time>
      </trkpt>
      <trkpt lat="25.4893390" lon="-100.7637730">
        <ele>1881.4</ele>
        <time>2022-08-20T13:47:32Z</time>
      </trkpt>
      <trkpt lat="25.4893400" lon="-100.7637150">
        <ele>1881.3</ele>
        <time>2022-08-20T13:47:33Z</time>
      </trkpt>
      <trkpt lat="25.4893450" lon="-100.7636810">
        <ele>1888.7</ele>
        <time>2022-08-20T13:47:34Z</time>
      </trkpt>
      <trkpt lat="25.4893490" lon="-100.7636720">
        <ele>1889.7</ele>
        <time>2022-08-20T13:47:35Z</time>
      </trkpt>
      <trkpt lat="25.4893590" lon="-100.7636690">
        <ele>1889.7</ele>
        <time>2022-08-20T13:47:36Z</time>
      </trkpt>
      <trkpt lat="25.4893690" lon="-100.7636720">
        <ele>1889.7</ele>
        <time>2022-08-20T13:47:37Z</time>
      </trkpt>
      <trkpt lat="25.4893710" lon="-100.7636740">
        <ele>1889.7</ele>
        <time>2022-08-20T13:47:38Z</time>
      </trkpt>
      <trkpt lat="25.4893720" lon="-100.7636730">
        <ele>1889.7</ele>
        <time>2022-08-20T13:47:39Z</time>
      </trkpt>
      <trkpt lat="25.4893720" lon="-100.7636720">
        <ele>1889.6</ele>
        <time>2022-08-20T13:47:40Z</time>
      </trkpt>
      <trkpt lat="25.4893720" lon="-100.7636720">
        <ele>1889.6</ele>
        <time>2022-08-20T13:47:41Z</time>
      </trkpt>
      <trkpt lat="25.4893720" lon="-100.7636720">
        <ele>1889.6</ele>
        <time>2022-08-20T13:47:42Z</time>
      </trkpt>
      <trkpt lat="25.4893720" lon="-100.7636720">
        <ele>1889.6</ele>
        <time>2022-08-20T13:47:43Z</time>
      </trkpt>
      <trkpt lat="25.4893720" lon="-100.7636720">
        <ele>1889.6</ele>
        <time>2022-08-20T13:47:44Z</time>
      </trkpt>
      <trkpt lat="25.4893720" lon="-100.7636720">
        <ele>1889.6</ele>
        <time>2022-08-20T13:47:45Z</time>
      </trkpt>
      <trkpt lat="25.4893720" lon="-100.7636720">
        <ele>1889.6</ele>
        <time>2022-08-20T13:47:46Z</time>
      </trkpt>
      <trkpt lat="25.4893720" lon="-100.7636720">
        <ele>1889.6</ele>
        <time>2022-08-20T13:47:47Z</time>
      </trkpt>
      <trkpt lat="25.4893720" lon="-100.7636720">
        <ele>1889.6</ele>
        <time>2022-08-20T13:47:48Z</time>
      </trkpt>
      <trkpt lat="25.4893720" lon="-100.7636720">
        <ele>1889.6</ele>
        <time>2022-08-20T13:47:49Z</time>
      </trkpt>
      <trkpt lat="25.4893720" lon="-100.7636720">
        <ele>1889.6</ele>
        <time>2022-08-20T13:47:50Z</time>
      </trkpt>
      <trkpt lat="25.4893720" lon="-100.7636720">
        <ele>1889.6</ele>
        <time>2022-08-20T13:47:51Z</time>
      </trkpt>
      <trkpt lat="25.4893720" lon="-100.7636720">
        <ele>1889.6</ele>
        <time>2022-08-20T13:47:52Z</time>
      </trkpt>
      <trkpt lat="25.4893720" lon="-100.7636720">
        <ele>1889.6</ele>
        <time>2022-08-20T13:47:53Z</time>
      </trkpt>
      <trkpt lat="25.4893720" lon="-100.7636720">
        <ele>1889.6</ele>
        <time>2022-08-20T13:47:54Z</time>
      </trkpt>
      <trkpt lat="25.4893720" lon="-100.7636720">
        <ele>1889.6</ele>
        <time>2022-08-20T13:47:55Z</time>
      </trkpt>
      <trkpt lat="25.4893720" lon="-100.7636720">
        <ele>1889.6</ele>
        <time>2022-08-20T13:47:56Z</time>
      </trkpt>
      <trkpt lat="25.4893720" lon="-100.7636720">
        <ele>1889.6</ele>
        <time>2022-08-20T13:47:57Z</time>
      </trkpt>
      <trkpt lat="25.4893720" lon="-100.7636720">
        <ele>1889.6</ele>
        <time>2022-08-20T13:47:58Z</time>
      </trkpt>
      <trkpt lat="25.4893720" lon="-100.7636720">
        <ele>1889.6</ele>
        <time>2022-08-20T13:47:59Z</time>
      </trkpt>
      <trkpt lat="25.4893720" lon="-100.7636720">
        <ele>1889.6</ele>
        <time>2022-08-20T13:48:00Z</time>
      </trkpt>
      <trkpt lat="25.4893720" lon="-100.7636720">
        <ele>1889.6</ele>
        <time>2022-08-20T13:48:01Z</time>
      </trkpt>
      <trkpt lat="25.4893720" lon="-100.7636720">
        <ele>1889.6</ele>
        <time>2022-08-20T13:48:02Z</time>
      </trkpt>
      <trkpt lat="25.4893720" lon="-100.7636720">
        <ele>1889.6</ele>
        <time>2022-08-20T13:48:03Z</time>
      </trkpt>
      <trkpt lat="25.4893720" lon="-100.7636720">
        <ele>1889.6</ele>
        <time>2022-08-20T13:48:04Z</time>
      </trkpt>
      <trkpt lat="25.4893720" lon="-100.7636720">
        <ele>1889.6</ele>
        <time>2022-08-20T13:48:05Z</time>
      </trkpt>
      <trkpt lat="25.4893720" lon="-100.7636720">
        <ele>1889.6</ele>
        <time>2022-08-20T13:48:06Z</time>
      </trkpt>
      <trkpt lat="25.4893720" lon="-100.7636720">
        <ele>1889.6</ele>
        <time>2022-08-20T13:48:07Z</time>
      </trkpt>
      <trkpt lat="25.4893720" lon="-100.7636720">
        <ele>1889.6</ele>
        <time>2022-08-20T13:48:08Z</time>
      </trkpt>
      <trkpt lat="25.4893720" lon="-100.7636720">
        <ele>1889.6</ele>
        <time>2022-08-20T13:48:09Z</time>
      </trkpt>
      <trkpt lat="25.4893720" lon="-100.7636720">
        <ele>1889.6</ele>
        <time>2022-08-20T13:48:10Z</time>
      </trkpt>
      <trkpt lat="25.4893720" lon="-100.7636720">
        <ele>1889.6</ele>
        <time>2022-08-20T13:48:11Z</time>
      </trkpt>
      <trkpt lat="25.4893720" lon="-100.7636720">
        <ele>1889.6</ele>
        <time>2022-08-20T13:48:12Z</time>
      </trkpt>
      <trkpt lat="25.4893720" lon="-100.7636720">
        <ele>1889.6</ele>
        <time>2022-08-20T13:48:13Z</time>
      </trkpt>
      <trkpt lat="25.4893720" lon="-100.7636720">
        <ele>1889.6</ele>
        <time>2022-08-20T13:48:14Z</time>
      </trkpt>
      <trkpt lat="25.4893720" lon="-100.7636720">
        <ele>1889.6</ele>
        <time>2022-08-20T13:48:15Z</time>
      </trkpt>
      <trkpt lat="25.4893720" lon="-100.7636720">
        <ele>1889.6</ele>
        <time>2022-08-20T13:48:16Z</time>
      </trkpt>
      <trkpt lat="25.4893720" lon="-100.7636720">
        <ele>1889.6</ele>
        <time>2022-08-20T13:48:17Z</time>
      </trkpt>
      <trkpt lat="25.4893720" lon="-100.7636720">
        <ele>1889.6</ele>
        <time>2022-08-20T13:48:18Z</time>
      </trkpt>
      <trkpt lat="25.4893720" lon="-100.7636720">
        <ele>1889.6</ele>
        <time>2022-08-20T13:48:19Z</time>
      </trkpt>
      <trkpt lat="25.4893720" lon="-100.7636720">
        <ele>1889.6</ele>
        <time>2022-08-20T13:48:20Z</time>
      </trkpt>
      <trkpt lat="25.4893720" lon="-100.7636720">
        <ele>1889.6</ele>
        <time>2022-08-20T13:48:21Z</time>
      </trkpt>
      <trkpt lat="25.4893720" lon="-100.7636720">
        <ele>1889.6</ele>
        <time>2022-08-20T13:48:22Z</time>
      </trkpt>
      <trkpt lat="25.4893720" lon="-100.7636720">
        <ele>1889.6</ele>
        <time>2022-08-20T13:48:23Z</time>
      </trkpt>
      <trkpt lat="25.4893720" lon="-100.7636720">
        <ele>1889.6</ele>
        <time>2022-08-20T13:48:24Z</time>
      </trkpt>
      <trkpt lat="25.4893720" lon="-100.7636720">
        <ele>1889.6</ele>
        <time>2022-08-20T13:48:25Z</time>
      </trkpt>
      <trkpt lat="25.4893720" lon="-100.7636720">
        <ele>1889.6</ele>
        <time>2022-08-20T13:48:26Z</time>
      </trkpt>
      <trkpt lat="25.4893720" lon="-100.7636720">
        <ele>1889.6</ele>
        <time>2022-08-20T13:48:27Z</time>
      </trkpt>
      <trkpt lat="25.4893720" lon="-100.7636720">
        <ele>1889.6</ele>
        <time>2022-08-20T13:48:28Z</time>
      </trkpt>
      <trkpt lat="25.4893720" lon="-100.7636720">
        <ele>1889.6</ele>
        <time>2022-08-20T13:48:29Z</time>
      </trkpt>
      <trkpt lat="25.4893720" lon="-100.7636720">
        <ele>1889.6</ele>
        <time>2022-08-20T13:48:30Z</time>
      </trkpt>
      <trkpt lat="25.4893720" lon="-100.7636720">
        <ele>1889.6</ele>
        <time>2022-08-20T13:48:31Z</time>
      </trkpt>
      <trkpt lat="25.4893720" lon="-100.7636720">
        <ele>1889.6</ele>
        <time>2022-08-20T13:48:32Z</time>
      </trkpt>
      <trkpt lat="25.4893720" lon="-100.7636720">
        <ele>1889.6</ele>
        <time>2022-08-20T13:48:33Z</time>
      </trkpt>
      <trkpt lat="25.4893720" lon="-100.7636720">
        <ele>1889.6</ele>
        <time>2022-08-20T13:48:34Z</time>
      </trkpt>
      <trkpt lat="25.4893720" lon="-100.7636720">
        <ele>1889.6</ele>
        <time>2022-08-20T13:48:35Z</time>
      </trkpt>
      <trkpt lat="25.4893720" lon="-100.7636720">
        <ele>1889.6</ele>
        <time>2022-08-20T13:48:36Z</time>
      </trkpt>
      <trkpt lat="25.4893720" lon="-100.7636720">
        <ele>1889.6</ele>
        <time>2022-08-20T13:48:37Z</time>
      </trkpt>
      <trkpt lat="25.4893720" lon="-100.7636720">
        <ele>1889.6</ele>
        <time>2022-08-20T13:48:38Z</time>
      </trkpt>
      <trkpt lat="25.4893720" lon="-100.7636720">
        <ele>1889.6</ele>
        <time>2022-08-20T13:48:39Z</time>
      </trkpt>
      <trkpt lat="25.4893720" lon="-100.7636720">
        <ele>1889.6</ele>
        <time>2022-08-20T13:48:40Z</time>
      </trkpt>
      <trkpt lat="25.4893720" lon="-100.7636720">
        <ele>1889.6</ele>
        <time>2022-08-20T13:48:41Z</time>
      </trkpt>
      <trkpt lat="25.4893720" lon="-100.7636720">
        <ele>1889.6</ele>
        <time>2022-08-20T13:48:42Z</time>
      </trkpt>
      <trkpt lat="25.4893720" lon="-100.7636720">
        <ele>1889.6</ele>
        <time>2022-08-20T13:48:43Z</time>
      </trkpt>
      <trkpt lat="25.4893720" lon="-100.7636720">
        <ele>1889.6</ele>
        <time>2022-08-20T13:48:44Z</time>
      </trkpt>
      <trkpt lat="25.4893720" lon="-100.7636720">
        <ele>1889.6</ele>
        <time>2022-08-20T13:48:45Z</time>
      </trkpt>
      <trkpt lat="25.4893720" lon="-100.7636720">
        <ele>1889.6</ele>
        <time>2022-08-20T13:48:46Z</time>
      </trkpt>
      <trkpt lat="25.4893720" lon="-100.7636720">
        <ele>1889.6</ele>
        <time>2022-08-20T13:48:47Z</time>
      </trkpt>
      <trkpt lat="25.4893720" lon="-100.7636720">
        <ele>1889.6</ele>
        <time>2022-08-20T13:48:48Z</time>
      </trkpt>
      <trkpt lat="25.4893720" lon="-100.7636720">
        <ele>1889.6</ele>
        <time>2022-08-20T13:48:49Z</time>
      </trkpt>
      <trkpt lat="25.4893720" lon="-100.7636720">
        <ele>1889.6</ele>
        <time>2022-08-20T13:48:50Z</time>
      </trkpt>
      <trkpt lat="25.4893720" lon="-100.7636720">
        <ele>1889.6</ele>
        <time>2022-08-20T13:48:51Z</time>
      </trkpt>
      <trkpt lat="25.4893720" lon="-100.7636720">
        <ele>1889.6</ele>
        <time>2022-08-20T13:48:52Z</time>
      </trkpt>
      <trkpt lat="25.4893720" lon="-100.7636720">
        <ele>1889.6</ele>
        <time>2022-08-20T13:48:53Z</time>
      </trkpt>
      <trkpt lat="25.4893720" lon="-100.7636720">
        <ele>1889.5</ele>
        <time>2022-08-20T13:48:54Z</time>
      </trkpt>
      <trkpt lat="25.4893720" lon="-100.7636720">
        <ele>1889.5</ele>
        <time>2022-08-20T13:48:55Z</time>
      </trkpt>
      <trkpt lat="25.4893720" lon="-100.7636720">
        <ele>1889.4</ele>
        <time>2022-08-20T13:48:56Z</time>
      </trkpt>
      <trkpt lat="25.4893720" lon="-100.7636720">
        <ele>1889.3</ele>
        <time>2022-08-20T13:48:57Z</time>
      </trkpt>
      <trkpt lat="25.4893720" lon="-100.7636720">
        <ele>1889.3</ele>
        <time>2022-08-20T13:48:58Z</time>
      </trkpt>
      <trkpt lat="25.4893720" lon="-100.7636720">
        <ele>1889.2</ele>
        <time>2022-08-20T13:48:59Z</time>
      </trkpt>
      <trkpt lat="25.4893720" lon="-100.7636720">
        <ele>1889.2</ele>
        <time>2022-08-20T13:49:00Z</time>
      </trkpt>
      <trkpt lat="25.4893720" lon="-100.7636720">
        <ele>1889.1</ele>
        <time>2022-08-20T13:49:01Z</time>
      </trkpt>
      <trkpt lat="25.4893720" lon="-100.7636720">
        <ele>1889.0</ele>
        <time>2022-08-20T13:49:02Z</time>
      </trkpt>
      <trkpt lat="25.4893720" lon="-100.7636720">
        <ele>1889.0</ele>
        <time>2022-08-20T13:49:03Z</time>
      </trkpt>
      <trkpt lat="25.4893720" lon="-100.7636720">
        <ele>1888.9</ele>
        <time>2022-08-20T13:49:04Z</time>
      </trkpt>
      <trkpt lat="25.4893720" lon="-100.7636720">
        <ele>1888.8</ele>
        <time>2022-08-20T13:49:05Z</time>
      </trkpt>
      <trkpt lat="25.4893720" lon="-100.7636720">
        <ele>1888.8</ele>
        <time>2022-08-20T13:49:06Z</time>
      </trkpt>
      <trkpt lat="25.4893720" lon="-100.7636720">
        <ele>1888.7</ele>
        <time>2022-08-20T13:49:07Z</time>
      </trkpt>
      <trkpt lat="25.4893720" lon="-100.7636720">
        <ele>1888.7</ele>
        <time>2022-08-20T13:49:08Z</time>
      </trkpt>
      <trkpt lat="25.4893720" lon="-100.7636720">
        <ele>1888.6</ele>
        <time>2022-08-20T13:49:09Z</time>
      </trkpt>
      <trkpt lat="25.4893720" lon="-100.7636720">
        <ele>1888.5</ele>
        <time>2022-08-20T13:49:10Z</time>
      </trkpt>
      <trkpt lat="25.4893720" lon="-100.7636720">
        <ele>1888.5</ele>
        <time>2022-08-20T13:49:11Z</time>
      </trkpt>
      <trkpt lat="25.4893720" lon="-100.7636720">
        <ele>1888.4</ele>
        <time>2022-08-20T13:49:12Z</time>
      </trkpt>
      <trkpt lat="25.4893720" lon="-100.7636720">
        <ele>1888.3</ele>
        <time>2022-08-20T13:49:13Z</time>
      </trkpt>
      <trkpt lat="25.4893720" lon="-100.7636720">
        <ele>1888.3</ele>
        <time>2022-08-20T13:49:14Z</time>
      </trkpt>
      <trkpt lat="25.4893720" lon="-100.7636720">
        <ele>1888.2</ele>
        <time>2022-08-20T13:49:15Z</time>
      </trkpt>
      <trkpt lat="25.4893720" lon="-100.7636720">
        <ele>1888.2</ele>
        <time>2022-08-20T13:49:16Z</time>
      </trkpt>
      <trkpt lat="25.4893720" lon="-100.7636720">
        <ele>1888.1</ele>
        <time>2022-08-20T13:49:17Z</time>
      </trkpt>
      <trkpt lat="25.4893720" lon="-100.7636720">
        <ele>1888.0</ele>
        <time>2022-08-20T13:49:18Z</time>
      </trkpt>
      <trkpt lat="25.4893720" lon="-100.7636720">
        <ele>1888.0</ele>
        <time>2022-08-20T13:49:19Z</time>
      </trkpt>
      <trkpt lat="25.4893720" lon="-100.7636720">
        <ele>1887.9</ele>
        <time>2022-08-20T13:49:20Z</time>
      </trkpt>
      <trkpt lat="25.4893720" lon="-100.7636720">
        <ele>1887.8</ele>
        <time>2022-08-20T13:49:21Z</time>
      </trkpt>
      <trkpt lat="25.4893720" lon="-100.7636720">
        <ele>1887.8</ele>
        <time>2022-08-20T13:49:22Z</time>
      </trkpt>
      <trkpt lat="25.4893720" lon="-100.7636720">
        <ele>1887.7</ele>
        <time>2022-08-20T13:49:23Z</time>
      </trkpt>
      <trkpt lat="25.4893720" lon="-100.7636720">
        <ele>1887.6</ele>
        <time>2022-08-20T13:49:24Z</time>
      </trkpt>
      <trkpt lat="25.4893720" lon="-100.7636720">
        <ele>1887.6</ele>
        <time>2022-08-20T13:49:25Z</time>
      </trkpt>
      <trkpt lat="25.4893720" lon="-100.7636720">
        <ele>1887.5</ele>
        <time>2022-08-20T13:49:26Z</time>
      </trkpt>
      <trkpt lat="25.4893720" lon="-100.7636720">
        <ele>1887.5</ele>
        <time>2022-08-20T13:49:27Z</time>
      </trkpt>
      <trkpt lat="25.4893720" lon="-100.7636720">
        <ele>1887.4</ele>
        <time>2022-08-20T13:49:28Z</time>
      </trkpt>
      <trkpt lat="25.4893720" lon="-100.7636720">
        <ele>1887.3</ele>
        <time>2022-08-20T13:49:29Z</time>
      </trkpt>
      <trkpt lat="25.4893720" lon="-100.7636720">
        <ele>1887.3</ele>
        <time>2022-08-20T13:49:30Z</time>
      </trkpt>
      <trkpt lat="25.4893720" lon="-100.7636720">
        <ele>1887.2</ele>
        <time>2022-08-20T13:49:31Z</time>
      </trkpt>
      <trkpt lat="25.4893720" lon="-100.7636720">
        <ele>1887.1</ele>
        <time>2022-08-20T13:49:32Z</time>
      </trkpt>
      <trkpt lat="25.4893720" lon="-100.7636720">
        <ele>1887.1</ele>
        <time>2022-08-20T13:49:33Z</time>
      </trkpt>
      <trkpt lat="25.4893720" lon="-100.7636720">
        <ele>1887.0</ele>
        <time>2022-08-20T13:49:34Z</time>
      </trkpt>
      <trkpt lat="25.4893720" lon="-100.7636720">
        <ele>1887.0</ele>
        <time>2022-08-20T13:49:35Z</time>
      </trkpt>
      <trkpt lat="25.4893720" lon="-100.7636720">
        <ele>1886.9</ele>
        <time>2022-08-20T13:49:36Z</time>
      </trkpt>
      <trkpt lat="25.4893720" lon="-100.7636720">
        <ele>1886.8</ele>
        <time>2022-08-20T13:49:37Z</time>
      </trkpt>
      <trkpt lat="25.4893720" lon="-100.7636720">
        <ele>1886.8</ele>
        <time>2022-08-20T13:49:38Z</time>
      </trkpt>
      <trkpt lat="25.4893720" lon="-100.7636720">
        <ele>1886.7</ele>
        <time>2022-08-20T13:49:39Z</time>
      </trkpt>
      <trkpt lat="25.4893720" lon="-100.7636720">
        <ele>1886.6</ele>
        <time>2022-08-20T13:49:40Z</time>
      </trkpt>
      <trkpt lat="25.4893720" lon="-100.7636720">
        <ele>1886.6</ele>
        <time>2022-08-20T13:49:41Z</time>
      </trkpt>
      <trkpt lat="25.4893720" lon="-100.7636720">
        <ele>1886.5</ele>
        <time>2022-08-20T13:49:42Z</time>
      </trkpt>
      <trkpt lat="25.4893720" lon="-100.7636720">
        <ele>1886.5</ele>
        <time>2022-08-20T13:49:43Z</time>
      </trkpt>
      <trkpt lat="25.4893720" lon="-100.7636720">
        <ele>1886.4</ele>
        <time>2022-08-20T13:49:44Z</time>
      </trkpt>
      <trkpt lat="25.4893720" lon="-100.7636720">
        <ele>1886.3</ele>
        <time>2022-08-20T13:49:45Z</time>
      </trkpt>
      <trkpt lat="25.4893720" lon="-100.7636720">
        <ele>1886.3</ele>
        <time>2022-08-20T13:49:46Z</time>
      </trkpt>
      <trkpt lat="25.4893720" lon="-100.7636720">
        <ele>1886.2</ele>
        <time>2022-08-20T13:49:47Z</time>
      </trkpt>
      <trkpt lat="25.4893720" lon="-100.7636720">
        <ele>1886.1</ele>
        <time>2022-08-20T13:49:48Z</time>
      </trkpt>
      <trkpt lat="25.4893720" lon="-100.7636720">
        <ele>1886.1</ele>
        <time>2022-08-20T13:49:49Z</time>
      </trkpt>
      <trkpt lat="25.4893720" lon="-100.7636720">
        <ele>1886.0</ele>
        <time>2022-08-20T13:49:50Z</time>
      </trkpt>
      <trkpt lat="25.4893720" lon="-100.7636720">
        <ele>1885.9</ele>
        <time>2022-08-20T13:49:51Z</time>
      </trkpt>
      <trkpt lat="25.4893720" lon="-100.7636720">
        <ele>1885.9</ele>
        <time>2022-08-20T13:49:52Z</time>
      </trkpt>
      <trkpt lat="25.4893720" lon="-100.7636720">
        <ele>1885.8</ele>
        <time>2022-08-20T13:49:53Z</time>
      </trkpt>
      <trkpt lat="25.4893720" lon="-100.7636720">
        <ele>1885.8</ele>
        <time>2022-08-20T13:49:54Z</time>
      </trkpt>
      <trkpt lat="25.4893720" lon="-100.7636720">
        <ele>1885.7</ele>
        <time>2022-08-20T13:49:55Z</time>
      </trkpt>
      <trkpt lat="25.4893720" lon="-100.7636720">
        <ele>1885.6</ele>
        <time>2022-08-20T13:49:56Z</time>
      </trkpt>
      <trkpt lat="25.4893720" lon="-100.7636720">
        <ele>1885.6</ele>
        <time>2022-08-20T13:49:57Z</time>
      </trkpt>
      <trkpt lat="25.4893720" lon="-100.7636720">
        <ele>1885.5</ele>
        <time>2022-08-20T13:49:58Z</time>
      </trkpt>
      <trkpt lat="25.4893720" lon="-100.7636720">
        <ele>1885.4</ele>
        <time>2022-08-20T13:49:59Z</time>
      </trkpt>
      <trkpt lat="25.4893720" lon="-100.7636720">
        <ele>1885.4</ele>
        <time>2022-08-20T13:50:00Z</time>
      </trkpt>
      <trkpt lat="25.4893720" lon="-100.7636720">
        <ele>1885.3</ele>
        <time>2022-08-20T13:50:01Z</time>
      </trkpt>
      <trkpt lat="25.4893720" lon="-100.7636720">
        <ele>1885.3</ele>
        <time>2022-08-20T13:50:02Z</time>
      </trkpt>
      <trkpt lat="25.4893720" lon="-100.7636720">
        <ele>1885.2</ele>
        <time>2022-08-20T13:50:03Z</time>
      </trkpt>
      <trkpt lat="25.4893720" lon="-100.7636720">
        <ele>1885.1</ele>
        <time>2022-08-20T13:50:04Z</time>
      </trkpt>
      <trkpt lat="25.4893720" lon="-100.7636720">
        <ele>1885.1</ele>
        <time>2022-08-20T13:50:05Z</time>
      </trkpt>
      <trkpt lat="25.4893720" lon="-100.7636720">
        <ele>1885.0</ele>
        <time>2022-08-20T13:50:06Z</time>
      </trkpt>
      <trkpt lat="25.4893720" lon="-100.7636720">
        <ele>1884.9</ele>
        <time>2022-08-20T13:50:07Z</time>
      </trkpt>
      <trkpt lat="25.4893720" lon="-100.7636720">
        <ele>1884.9</ele>
        <time>2022-08-20T13:50:08Z</time>
      </trkpt>
      <trkpt lat="25.4893720" lon="-100.7636720">
        <ele>1884.8</ele>
        <time>2022-08-20T13:50:09Z</time>
      </trkpt>
      <trkpt lat="25.4893720" lon="-100.7636720">
        <ele>1884.7</ele>
        <time>2022-08-20T13:50:10Z</time>
      </trkpt>
      <trkpt lat="25.4893720" lon="-100.7636720">
        <ele>1884.7</ele>
        <time>2022-08-20T13:50:11Z</time>
      </trkpt>
      <trkpt lat="25.4893720" lon="-100.7636720">
        <ele>1884.6</ele>
        <time>2022-08-20T13:50:12Z</time>
      </trkpt>
      <trkpt lat="25.4893720" lon="-100.7636720">
        <ele>1884.6</ele>
        <time>2022-08-20T13:50:13Z</time>
      </trkpt>
      <trkpt lat="25.4893720" lon="-100.7636720">
        <ele>1884.5</ele>
        <time>2022-08-20T13:50:14Z</time>
      </trkpt>
      <trkpt lat="25.4893720" lon="-100.7636720">
        <ele>1884.4</ele>
        <time>2022-08-20T13:50:15Z</time>
      </trkpt>
      <trkpt lat="25.4893720" lon="-100.7636720">
        <ele>1884.4</ele>
        <time>2022-08-20T13:50:16Z</time>
      </trkpt>
      <trkpt lat="25.4893720" lon="-100.7636720">
        <ele>1884.3</ele>
        <time>2022-08-20T13:50:17Z</time>
      </trkpt>
      <trkpt lat="25.4893720" lon="-100.7636720">
        <ele>1884.2</ele>
        <time>2022-08-20T13:50:18Z</time>
      </trkpt>
      <trkpt lat="25.4893720" lon="-100.7636720">
        <ele>1884.2</ele>
        <time>2022-08-20T13:50:19Z</time>
      </trkpt>
      <trkpt lat="25.4893720" lon="-100.7636720">
        <ele>1884.1</ele>
        <time>2022-08-20T13:50:20Z</time>
      </trkpt>
      <trkpt lat="25.4893720" lon="-100.7636720">
        <ele>1884.1</ele>
        <time>2022-08-20T13:50:21Z</time>
      </trkpt>
      <trkpt lat="25.4893720" lon="-100.7636720">
        <ele>1884.0</ele>
        <time>2022-08-20T13:50:22Z</time>
      </trkpt>
      <trkpt lat="25.4893720" lon="-100.7636720">
        <ele>1883.9</ele>
        <time>2022-08-20T13:50:23Z</time>
      </trkpt>
      <trkpt lat="25.4893720" lon="-100.7636720">
        <ele>1883.9</ele>
        <time>2022-08-20T13:50:24Z</time>
      </trkpt>
      <trkpt lat="25.4893720" lon="-100.7636720">
        <ele>1883.8</ele>
        <time>2022-08-20T13:50:25Z</time>
      </trkpt>
      <trkpt lat="25.4893720" lon="-100.7636720">
        <ele>1883.7</ele>
        <time>2022-08-20T13:50:26Z</time>
      </trkpt>
      <trkpt lat="25.4893720" lon="-100.7636720">
        <ele>1883.7</ele>
        <time>2022-08-20T13:50:27Z</time>
      </trkpt>
      <trkpt lat="25.4893720" lon="-100.7636720">
        <ele>1883.6</ele>
        <time>2022-08-20T13:50:28Z</time>
      </trkpt>
      <trkpt lat="25.4893720" lon="-100.7636720">
        <ele>1883.6</ele>
        <time>2022-08-20T13:50:29Z</time>
      </trkpt>
      <trkpt lat="25.4893720" lon="-100.7636720">
        <ele>1883.5</ele>
        <time>2022-08-20T13:50:30Z</time>
      </trkpt>
      <trkpt lat="25.4893720" lon="-100.7636720">
        <ele>1883.4</ele>
        <time>2022-08-20T13:50:31Z</time>
      </trkpt>
      <trkpt lat="25.4893720" lon="-100.7636720">
        <ele>1883.4</ele>
        <time>2022-08-20T13:50:32Z</time>
      </trkpt>
      <trkpt lat="25.4893720" lon="-100.7636720">
        <ele>1883.3</ele>
        <time>2022-08-20T13:50:33Z</time>
      </trkpt>
      <trkpt lat="25.4893720" lon="-100.7636720">
        <ele>1883.3</ele>
        <time>2022-08-20T13:50:34Z</time>
      </trkpt>
      <trkpt lat="25.4893720" lon="-100.7636720">
        <ele>1883.3</ele>
        <time>2022-08-20T13:50:35Z</time>
      </trkpt>
      <trkpt lat="25.4893720" lon="-100.7636720">
        <ele>1883.3</ele>
        <time>2022-08-20T13:50:36Z</time>
      </trkpt>
      <trkpt lat="25.4893720" lon="-100.7636720">
        <ele>1883.3</ele>
        <time>2022-08-20T13:50:37Z</time>
      </trkpt>
      <trkpt lat="25.4893720" lon="-100.7636720">
        <ele>1883.3</ele>
        <time>2022-08-20T13:50:38Z</time>
      </trkpt>
      <trkpt lat="25.4893720" lon="-100.7636720">
        <ele>1883.3</ele>
        <time>2022-08-20T13:50:39Z</time>
      </trkpt>
      <trkpt lat="25.4893720" lon="-100.7636720">
        <ele>1883.3</ele>
        <time>2022-08-20T13:50:40Z</time>
      </trkpt>
      <trkpt lat="25.4893720" lon="-100.7636720">
        <ele>1883.3</ele>
        <time>2022-08-20T13:50:41Z</time>
      </trkpt>
      <trkpt lat="25.4893720" lon="-100.7636720">
        <ele>1883.3</ele>
        <time>2022-08-20T13:50:42Z</time>
      </trkpt>
      <trkpt lat="25.4893720" lon="-100.7636720">
        <ele>1883.3</ele>
        <time>2022-08-20T13:50:43Z</time>
      </trkpt>
      <trkpt lat="25.4893720" lon="-100.7636720">
        <ele>1883.3</ele>
        <time>2022-08-20T13:50:44Z</time>
      </trkpt>
      <trkpt lat="25.4893720" lon="-100.7636720">
        <ele>1883.3</ele>
        <time>2022-08-20T13:50:45Z</time>
      </trkpt>
      <trkpt lat="25.4893720" lon="-100.7636720">
        <ele>1883.3</ele>
        <time>2022-08-20T13:50:46Z</time>
      </trkpt>
      <trkpt lat="25.4893720" lon="-100.7636720">
        <ele>1883.3</ele>
        <time>2022-08-20T13:50:47Z</time>
      </trkpt>
      <trkpt lat="25.4893720" lon="-100.7636720">
        <ele>1883.3</ele>
        <time>2022-08-20T13:50:48Z</time>
      </trkpt>
      <trkpt lat="25.4893720" lon="-100.7636720">
        <ele>1883.3</ele>
        <time>2022-08-20T13:50:49Z</time>
      </trkpt>
      <trkpt lat="25.4893720" lon="-100.7636720">
        <ele>1883.3</ele>
        <time>2022-08-20T13:50:50Z</time>
      </trkpt>
      <trkpt lat="25.4893720" lon="-100.7636720">
        <ele>1883.3</ele>
        <time>2022-08-20T13:50:51Z</time>
      </trkpt>
      <trkpt lat="25.4893720" lon="-100.7636720">
        <ele>1883.3</ele>
        <time>2022-08-20T13:50:52Z</time>
      </trkpt>
      <trkpt lat="25.4893720" lon="-100.7636720">
        <ele>1883.3</ele>
        <time>2022-08-20T13:50:53Z</time>
      </trkpt>
      <trkpt lat="25.4893720" lon="-100.7636720">
        <ele>1883.3</ele>
        <time>2022-08-20T13:50:54Z</time>
      </trkpt>
      <trkpt lat="25.4893720" lon="-100.7636720">
        <ele>1883.3</ele>
        <time>2022-08-20T13:50:55Z</time>
      </trkpt>
      <trkpt lat="25.4893720" lon="-100.7636720">
        <ele>1883.3</ele>
        <time>2022-08-20T13:50:56Z</time>
      </trkpt>
      <trkpt lat="25.4893720" lon="-100.7636720">
        <ele>1883.3</ele>
        <time>2022-08-20T13:50:57Z</time>
      </trkpt>
      <trkpt lat="25.4893720" lon="-100.7636720">
        <ele>1883.3</ele>
        <time>2022-08-20T13:50:58Z</time>
      </trkpt>
      <trkpt lat="25.4893720" lon="-100.7636720">
        <ele>1883.3</ele>
        <time>2022-08-20T13:50:59Z</time>
      </trkpt>
      <trkpt lat="25.4893720" lon="-100.7636720">
        <ele>1883.3</ele>
        <time>2022-08-20T13:51:00Z</time>
      </trkpt>
      <trkpt lat="25.4893720" lon="-100.7636720">
        <ele>1883.3</ele>
        <time>2022-08-20T13:51:01Z</time>
      </trkpt>
      <trkpt lat="25.4893720" lon="-100.7636720">
        <ele>1883.3</ele>
        <time>2022-08-20T13:51:02Z</time>
      </trkpt>
      <trkpt lat="25.4893720" lon="-100.7636720">
        <ele>1883.3</ele>
        <time>2022-08-20T13:51:03Z</time>
      </trkpt>
      <trkpt lat="25.4893720" lon="-100.7636720">
        <ele>1883.3</ele>
        <time>2022-08-20T13:51:04Z</time>
      </trkpt>
      <trkpt lat="25.4893720" lon="-100.7636720">
        <ele>1883.3</ele>
        <time>2022-08-20T13:51:05Z</time>
      </trkpt>
      <trkpt lat="25.4893720" lon="-100.7636720">
        <ele>1883.3</ele>
        <time>2022-08-20T13:51:06Z</time>
      </trkpt>
      <trkpt lat="25.4893720" lon="-100.7636720">
        <ele>1883.3</ele>
        <time>2022-08-20T13:51:07Z</time>
      </trkpt>
      <trkpt lat="25.4893720" lon="-100.7636720">
        <ele>1883.3</ele>
        <time>2022-08-20T13:51:08Z</time>
      </trkpt>
      <trkpt lat="25.4893720" lon="-100.7636720">
        <ele>1883.3</ele>
        <time>2022-08-20T13:51:09Z</time>
      </trkpt>
      <trkpt lat="25.4893720" lon="-100.7636720">
        <ele>1883.3</ele>
        <time>2022-08-20T13:51:10Z</time>
      </trkpt>
      <trkpt lat="25.4893720" lon="-100.7636720">
        <ele>1883.3</ele>
        <time>2022-08-20T13:51:11Z</time>
      </trkpt>
      <trkpt lat="25.4893720" lon="-100.7636720">
        <ele>1883.3</ele>
        <time>2022-08-20T13:51:12Z</time>
      </trkpt>
      <trkpt lat="25.4893720" lon="-100.7636720">
        <ele>1883.3</ele>
        <time>2022-08-20T13:51:13Z</time>
      </trkpt>
      <trkpt lat="25.4893720" lon="-100.7636720">
        <ele>1883.3</ele>
        <time>2022-08-20T13:51:14Z</time>
      </trkpt>
      <trkpt lat="25.4893720" lon="-100.7636720">
        <ele>1883.3</ele>
        <time>2022-08-20T13:51:15Z</time>
      </trkpt>
      <trkpt lat="25.4893720" lon="-100.7636720">
        <ele>1883.3</ele>
        <time>2022-08-20T13:51:16Z</time>
      </trkpt>
      <trkpt lat="25.4893720" lon="-100.7636720">
        <ele>1883.3</ele>
        <time>2022-08-20T13:51:17Z</time>
      </trkpt>
      <trkpt lat="25.4893720" lon="-100.7636720">
        <ele>1883.3</ele>
        <time>2022-08-20T13:51:18Z</time>
      </trkpt>
      <trkpt lat="25.4893720" lon="-100.7636720">
        <ele>1883.3</ele>
        <time>2022-08-20T13:51:19Z</time>
      </trkpt>
      <trkpt lat="25.4893720" lon="-100.7636720">
        <ele>1883.3</ele>
        <time>2022-08-20T13:51:20Z</time>
      </trkpt>
      <trkpt lat="25.4893720" lon="-100.7636720">
        <ele>1883.3</ele>
        <time>2022-08-20T13:51:21Z</time>
      </trkpt>
      <trkpt lat="25.4893720" lon="-100.7636720">
        <ele>1883.3</ele>
        <time>2022-08-20T13:51:22Z</time>
      </trkpt>
      <trkpt lat="25.4893720" lon="-100.7636720">
        <ele>1883.3</ele>
        <time>2022-08-20T13:51:23Z</time>
      </trkpt>
      <trkpt lat="25.4893720" lon="-100.7636720">
        <ele>1883.3</ele>
        <time>2022-08-20T13:51:24Z</time>
      </trkpt>
      <trkpt lat="25.4893720" lon="-100.7636720">
        <ele>1883.3</ele>
        <time>2022-08-20T13:51:25Z</time>
      </trkpt>
      <trkpt lat="25.4893720" lon="-100.7636720">
        <ele>1883.3</ele>
        <time>2022-08-20T13:51:26Z</time>
      </trkpt>
      <trkpt lat="25.4893720" lon="-100.7636720">
        <ele>1883.3</ele>
        <time>2022-08-20T13:51:27Z</time>
      </trkpt>
      <trkpt lat="25.4893720" lon="-100.7636720">
        <ele>1883.3</ele>
        <time>2022-08-20T13:51:28Z</time>
      </trkpt>
      <trkpt lat="25.4893720" lon="-100.7636720">
        <ele>1883.3</ele>
        <time>2022-08-20T13:51:29Z</time>
      </trkpt>
      <trkpt lat="25.4893720" lon="-100.7636720">
        <ele>1883.3</ele>
        <time>2022-08-20T13:51:30Z</time>
      </trkpt>
      <trkpt lat="25.4893720" lon="-100.7636720">
        <ele>1883.3</ele>
        <time>2022-08-20T13:51:31Z</time>
      </trkpt>
      <trkpt lat="25.4893720" lon="-100.7636720">
        <ele>1883.3</ele>
        <time>2022-08-20T13:51:32Z</time>
      </trkpt>
      <trkpt lat="25.4893720" lon="-100.7636720">
        <ele>1883.3</ele>
        <time>2022-08-20T13:51:33Z</time>
      </trkpt>
      <trkpt lat="25.4893720" lon="-100.7636720">
        <ele>1883.3</ele>
        <time>2022-08-20T13:51:34Z</time>
      </trkpt>
      <trkpt lat="25.4893720" lon="-100.7636720">
        <ele>1883.3</ele>
        <time>2022-08-20T13:51:35Z</time>
      </trkpt>
      <trkpt lat="25.4893720" lon="-100.7636720">
        <ele>1883.3</ele>
        <time>2022-08-20T13:51:36Z</time>
      </trkpt>
      <trkpt lat="25.4893720" lon="-100.7636720">
        <ele>1883.3</ele>
        <time>2022-08-20T13:51:37Z</time>
      </trkpt>
      <trkpt lat="25.4893720" lon="-100.7636720">
        <ele>1883.3</ele>
        <time>2022-08-20T13:51:38Z</time>
      </trkpt>
      <trkpt lat="25.4893720" lon="-100.7636720">
        <ele>1883.3</ele>
        <time>2022-08-20T13:51:39Z</time>
      </trkpt>
      <trkpt lat="25.4893720" lon="-100.7636720">
        <ele>1883.3</ele>
        <time>2022-08-20T13:51:40Z</time>
      </trkpt>
      <trkpt lat="25.4893720" lon="-100.7636720">
        <ele>1883.3</ele>
        <time>2022-08-20T13:51:41Z</time>
      </trkpt>
      <trkpt lat="25.4893720" lon="-100.7636720">
        <ele>1883.3</ele>
        <time>2022-08-20T13:51:42Z</time>
      </trkpt>
      <trkpt lat="25.4893720" lon="-100.7636720">
        <ele>1883.3</ele>
        <time>2022-08-20T13:51:43Z</time>
      </trkpt>
      <trkpt lat="25.4893720" lon="-100.7636720">
        <ele>1883.3</ele>
        <time>2022-08-20T13:51:44Z</time>
      </trkpt>
      <trkpt lat="25.4893720" lon="-100.7636720">
        <ele>1883.3</ele>
        <time>2022-08-20T13:51:45Z</time>
      </trkpt>
      <trkpt lat="25.4893720" lon="-100.7636720">
        <ele>1883.3</ele>
        <time>2022-08-20T13:51:46Z</time>
      </trkpt>
      <trkpt lat="25.4893720" lon="-100.7636720">
        <ele>1883.3</ele>
        <time>2022-08-20T13:51:47Z</time>
      </trkpt>
      <trkpt lat="25.4893720" lon="-100.7636720">
        <ele>1883.3</ele>
        <time>2022-08-20T13:51:48Z</time>
      </trkpt>
      <trkpt lat="25.4893720" lon="-100.7636720">
        <ele>1883.3</ele>
        <time>2022-08-20T13:51:49Z</time>
      </trkpt>
      <trkpt lat="25.4893720" lon="-100.7636720">
        <ele>1883.3</ele>
        <time>2022-08-20T13:51:50Z</time>
      </trkpt>
      <trkpt lat="25.4893720" lon="-100.7636720">
        <ele>1883.3</ele>
        <time>2022-08-20T13:51:51Z</time>
      </trkpt>
      <trkpt lat="25.4893720" lon="-100.7636720">
        <ele>1883.3</ele>
        <time>2022-08-20T13:51:52Z</time>
      </trkpt>
      <trkpt lat="25.4893720" lon="-100.7636720">
        <ele>1883.3</ele>
        <time>2022-08-20T13:51:53Z</time>
      </trkpt>
      <trkpt lat="25.4893720" lon="-100.7636720">
        <ele>1883.3</ele>
        <time>2022-08-20T13:51:54Z</time>
      </trkpt>
      <trkpt lat="25.4893720" lon="-100.7636720">
        <ele>1883.3</ele>
        <time>2022-08-20T13:51:55Z</time>
      </trkpt>
      <trkpt lat="25.4893720" lon="-100.7636720">
        <ele>1883.3</ele>
        <time>2022-08-20T13:51:56Z</time>
      </trkpt>
      <trkpt lat="25.4893720" lon="-100.7636720">
        <ele>1883.3</ele>
        <time>2022-08-20T13:51:57Z</time>
      </trkpt>
      <trkpt lat="25.4893720" lon="-100.7636720">
        <ele>1883.3</ele>
        <time>2022-08-20T13:51:58Z</time>
      </trkpt>
      <trkpt lat="25.4893720" lon="-100.7636720">
        <ele>1883.3</ele>
        <time>2022-08-20T13:51:59Z</time>
      </trkpt>
      <trkpt lat="25.4893720" lon="-100.7636720">
        <ele>1883.3</ele>
        <time>2022-08-20T13:52:00Z</time>
      </trkpt>
      <trkpt lat="25.4893720" lon="-100.7636720">
        <ele>1883.3</ele>
        <time>2022-08-20T13:52:01Z</time>
      </trkpt>
      <trkpt lat="25.4893720" lon="-100.7636720">
        <ele>1883.3</ele>
        <time>2022-08-20T13:52:02Z</time>
      </trkpt>
      <trkpt lat="25.4893720" lon="-100.7636720">
        <ele>1883.3</ele>
        <time>2022-08-20T13:52:03Z</time>
      </trkpt>
      <trkpt lat="25.4893720" lon="-100.7636720">
        <ele>1883.3</ele>
        <time>2022-08-20T13:52:04Z</time>
      </trkpt>
      <trkpt lat="25.4893720" lon="-100.7636720">
        <ele>1883.3</ele>
        <time>2022-08-20T13:52:05Z</time>
      </trkpt>
      <trkpt lat="25.4893720" lon="-100.7636720">
        <ele>1883.3</ele>
        <time>2022-08-20T13:52:06Z</time>
      </trkpt>
      <trkpt lat="25.4893720" lon="-100.7636720">
        <ele>1883.3</ele>
        <time>2022-08-20T13:52:07Z</time>
      </trkpt>
      <trkpt lat="25.4893720" lon="-100.7636720">
        <ele>1883.3</ele>
        <time>2022-08-20T13:52:08Z</time>
      </trkpt>
      <trkpt lat="25.4893720" lon="-100.7636720">
        <ele>1883.3</ele>
        <time>2022-08-20T13:52:09Z</time>
      </trkpt>
      <trkpt lat="25.4893720" lon="-100.7636720">
        <ele>1883.3</ele>
        <time>2022-08-20T13:52:10Z</time>
      </trkpt>
      <trkpt lat="25.4893720" lon="-100.7636720">
        <ele>1883.3</ele>
        <time>2022-08-20T13:52:11Z</time>
      </trkpt>
      <trkpt lat="25.4893720" lon="-100.7636720">
        <ele>1883.3</ele>
        <time>2022-08-20T13:52:12Z</time>
      </trkpt>
      <trkpt lat="25.4893720" lon="-100.7636720">
        <ele>1883.3</ele>
        <time>2022-08-20T13:52:13Z</time>
      </trkpt>
      <trkpt lat="25.4893720" lon="-100.7636720">
        <ele>1883.3</ele>
        <time>2022-08-20T13:52:14Z</time>
      </trkpt>
      <trkpt lat="25.4893720" lon="-100.7636720">
        <ele>1883.3</ele>
        <time>2022-08-20T13:52:15Z</time>
      </trkpt>
      <trkpt lat="25.4893720" lon="-100.7636720">
        <ele>1883.3</ele>
        <time>2022-08-20T13:52:16Z</time>
      </trkpt>
      <trkpt lat="25.4893720" lon="-100.7636720">
        <ele>1883.3</ele>
        <time>2022-08-20T13:52:17Z</time>
      </trkpt>
      <trkpt lat="25.4893720" lon="-100.7636720">
        <ele>1883.3</ele>
        <time>2022-08-20T13:52:18Z</time>
      </trkpt>
      <trkpt lat="25.4893720" lon="-100.7636720">
        <ele>1883.3</ele>
        <time>2022-08-20T13:52:19Z</time>
      </trkpt>
      <trkpt lat="25.4893720" lon="-100.7636720">
        <ele>1883.3</ele>
        <time>2022-08-20T13:52:20Z</time>
      </trkpt>
      <trkpt lat="25.4893720" lon="-100.7636720">
        <ele>1883.3</ele>
        <time>2022-08-20T13:52:21Z</time>
      </trkpt>
      <trkpt lat="25.4893720" lon="-100.7636720">
        <ele>1883.3</ele>
        <time>2022-08-20T13:52:22Z</time>
      </trkpt>
      <trkpt lat="25.4893720" lon="-100.7636720">
        <ele>1883.3</ele>
        <time>2022-08-20T13:52:23Z</time>
      </trkpt>
      <trkpt lat="25.4893720" lon="-100.7636720">
        <ele>1883.3</ele>
        <time>2022-08-20T13:52:24Z</time>
      </trkpt>
      <trkpt lat="25.4893720" lon="-100.7636720">
        <ele>1883.3</ele>
        <time>2022-08-20T13:52:25Z</time>
      </trkpt>
      <trkpt lat="25.4893720" lon="-100.7636720">
        <ele>1883.3</ele>
        <time>2022-08-20T13:52:26Z</time>
      </trkpt>
      <trkpt lat="25.4893720" lon="-100.7636720">
        <ele>1883.3</ele>
        <time>2022-08-20T13:52:27Z</time>
      </trkpt>
      <trkpt lat="25.4893720" lon="-100.7636720">
        <ele>1883.3</ele>
        <time>2022-08-20T13:52:28Z</time>
      </trkpt>
      <trkpt lat="25.4893720" lon="-100.7636720">
        <ele>1883.3</ele>
        <time>2022-08-20T13:52:29Z</time>
      </trkpt>
      <trkpt lat="25.4893720" lon="-100.7636720">
        <ele>1883.3</ele>
        <time>2022-08-20T13:52:30Z</time>
      </trkpt>
      <trkpt lat="25.4893720" lon="-100.7636720">
        <ele>1883.3</ele>
        <time>2022-08-20T13:52:31Z</time>
      </trkpt>
      <trkpt lat="25.4893720" lon="-100.7636720">
        <ele>1883.3</ele>
        <time>2022-08-20T13:52:32Z</time>
      </trkpt>
      <trkpt lat="25.4893720" lon="-100.7636720">
        <ele>1883.3</ele>
        <time>2022-08-20T13:52:33Z</time>
      </trkpt>
      <trkpt lat="25.4893720" lon="-100.7636720">
        <ele>1883.3</ele>
        <time>2022-08-20T13:52:34Z</time>
      </trkpt>
      <trkpt lat="25.4893720" lon="-100.7636720">
        <ele>1883.3</ele>
        <time>2022-08-20T13:52:35Z</time>
      </trkpt>
      <trkpt lat="25.4893720" lon="-100.7636720">
        <ele>1883.3</ele>
        <time>2022-08-20T13:52:36Z</time>
      </trkpt>
      <trkpt lat="25.4893720" lon="-100.7636720">
        <ele>1883.3</ele>
        <time>2022-08-20T13:52:37Z</time>
      </trkpt>
      <trkpt lat="25.4893720" lon="-100.7636720">
        <ele>1883.3</ele>
        <time>2022-08-20T13:52:38Z</time>
      </trkpt>
      <trkpt lat="25.4893720" lon="-100.7636720">
        <ele>1883.3</ele>
        <time>2022-08-20T13:52:39Z</time>
      </trkpt>
      <trkpt lat="25.4893720" lon="-100.7636720">
        <ele>1883.3</ele>
        <time>2022-08-20T13:52:40Z</time>
      </trkpt>
      <trkpt lat="25.4893720" lon="-100.7636720">
        <ele>1883.3</ele>
        <time>2022-08-20T13:52:41Z</time>
      </trkpt>
      <trkpt lat="25.4893720" lon="-100.7636720">
        <ele>1883.3</ele>
        <time>2022-08-20T13:52:42Z</time>
      </trkpt>
      <trkpt lat="25.4893700" lon="-100.7636730">
        <ele>1883.3</ele>
        <time>2022-08-20T13:52:44Z</time>
      </trkpt>
      <trkpt lat="25.4893700" lon="-100.7636730">
        <ele>1883.3</ele>
        <time>2022-08-20T13:52:45Z</time>
      </trkpt>
      <trkpt lat="25.4893700" lon="-100.7636730">
        <ele>1883.3</ele>
        <time>2022-08-20T13:52:46Z</time>
      </trkpt>
      <trkpt lat="25.4893700" lon="-100.7636720">
        <ele>1883.2</ele>
        <time>2022-08-20T13:52:47Z</time>
      </trkpt>
      <trkpt lat="25.4893700" lon="-100.7636720">
        <ele>1883.2</ele>
        <time>2022-08-20T13:52:49Z</time>
      </trkpt>
      <trkpt lat="25.4893700" lon="-100.7636720">
        <ele>1883.2</ele>
        <time>2022-08-20T13:52:50Z</time>
      </trkpt>
      <trkpt lat="25.4893700" lon="-100.7636730">
        <ele>1883.2</ele>
        <time>2022-08-20T13:52:51Z</time>
      </trkpt>
      <trkpt lat="25.4893700" lon="-100.7636730">
        <ele>1883.2</ele>
        <time>2022-08-20T13:52:52Z</time>
      </trkpt>
      <trkpt lat="25.4893700" lon="-100.7636730">
        <ele>1883.2</ele>
        <time>2022-08-20T13:52:53Z</time>
      </trkpt>
      <trkpt lat="25.4893710" lon="-100.7636730">
        <ele>1883.2</ele>
        <time>2022-08-20T13:52:54Z</time>
      </trkpt>
      <trkpt lat="25.4893720" lon="-100.7636720">
        <ele>1883.2</ele>
        <time>2022-08-20T13:52:55Z</time>
      </trkpt>
      <trkpt lat="25.4893730" lon="-100.7636720">
        <ele>1883.2</ele>
        <time>2022-08-20T13:52:56Z</time>
      </trkpt>
      <trkpt lat="25.4893740" lon="-100.7636720">
        <ele>1883.2</ele>
        <time>2022-08-20T13:52:57Z</time>
      </trkpt>
      <trkpt lat="25.4893800" lon="-100.7636750">
        <ele>1883.2</ele>
        <time>2022-08-20T13:52:58Z</time>
      </trkpt>
      <trkpt lat="25.4893820" lon="-100.7636980">
        <ele>1883.2</ele>
        <time>2022-08-20T13:52:59Z</time>
      </trkpt>
      <trkpt lat="25.4893800" lon="-100.7637140">
        <ele>1883.2</ele>
        <time>2022-08-20T13:53:00Z</time>
      </trkpt>
      <trkpt lat="25.4893780" lon="-100.7637290">
        <ele>1883.1</ele>
        <time>2022-08-20T13:53:01Z</time>
      </trkpt>
      <trkpt lat="25.4893680" lon="-100.7637880">
        <ele>1883.0</ele>
        <time>2022-08-20T13:53:02Z</time>
      </trkpt>
      <trkpt lat="25.4893670" lon="-100.7638310">
        <ele>1883.0</ele>
        <time>2022-08-20T13:53:03Z</time>
      </trkpt>
      <trkpt lat="25.4893690" lon="-100.7638830">
        <ele>1882.9</ele>
        <time>2022-08-20T13:53:04Z</time>
      </trkpt>
      <trkpt lat="25.4893710" lon="-100.7639520">
        <ele>1882.8</ele>
        <time>2022-08-20T13:53:06Z</time>
      </trkpt>
      <trkpt lat="25.4893690" lon="-100.7639960">
        <ele>1882.7</ele>
        <time>2022-08-20T13:53:08Z</time>
      </trkpt>
      <trkpt lat="25.4893680" lon="-100.7640100">
        <ele>1882.7</ele>
        <time>2022-08-20T13:53:09Z</time>
      </trkpt>
      <trkpt lat="25.4893670" lon="-100.7640490">
        <ele>1882.6</ele>
        <time>2022-08-20T13:53:10Z</time>
      </trkpt>
      <trkpt lat="25.4893660" lon="-100.7640810">
        <ele>1882.5</ele>
        <time>2022-08-20T13:53:11Z</time>
      </trkpt>
      <trkpt lat="25.4893650" lon="-100.7641050">
        <ele>1882.5</ele>
        <time>2022-08-20T13:53:12Z</time>
      </trkpt>
      <trkpt lat="25.4893650" lon="-100.7641050">
        <ele>1882.5</ele>
        <time>2022-08-20T13:53:13Z</time>
      </trkpt>
      <trkpt lat="25.4893680" lon="-100.7641000">
        <ele>1882.5</ele>
        <time>2022-08-20T13:53:14Z</time>
      </trkpt>
      <trkpt lat="25.4893670" lon="-100.7640980">
        <ele>1882.5</ele>
        <time>2022-08-20T13:53:15Z</time>
      </trkpt>
      <trkpt lat="25.4893670" lon="-100.7640980">
        <ele>1882.5</ele>
        <time>2022-08-20T13:53:16Z</time>
      </trkpt>
      <trkpt lat="25.4893660" lon="-100.7640990">
        <ele>1882.5</ele>
        <time>2022-08-20T13:53:17Z</time>
      </trkpt>
      <trkpt lat="25.4893650" lon="-100.7640990">
        <ele>1882.5</ele>
        <time>2022-08-20T13:53:18Z</time>
      </trkpt>
      <trkpt lat="25.4893650" lon="-100.7641100">
        <ele>1882.5</ele>
        <time>2022-08-20T13:53:19Z</time>
      </trkpt>
      <trkpt lat="25.4893580" lon="-100.7641560">
        <ele>1882.4</ele>
        <time>2022-08-20T13:53:21Z</time>
      </trkpt>
      <trkpt lat="25.4893500" lon="-100.7641950">
        <ele>1882.3</ele>
        <time>2022-08-20T13:53:22Z</time>
      </trkpt>
      <trkpt lat="25.4893390" lon="-100.7642290">
        <ele>1882.2</ele>
        <time>2022-08-20T13:53:23Z</time>
      </trkpt>
      <trkpt lat="25.4893250" lon="-100.7642570">
        <ele>1882.2</ele>
        <time>2022-08-20T13:53:24Z</time>
      </trkpt>
      <trkpt lat="25.4893160" lon="-100.7642660">
        <ele>1882.2</ele>
        <time>2022-08-20T13:53:25Z</time>
      </trkpt>
      <trkpt lat="25.4893150" lon="-100.7642620">
        <ele>1882.2</ele>
        <time>2022-08-20T13:53:26Z</time>
      </trkpt>
      <trkpt lat="25.4893250" lon="-100.7642520">
        <ele>1882.1</ele>
        <time>2022-08-20T13:53:27Z</time>
      </trkpt>
      <trkpt lat="25.4893340" lon="-100.7642400">
        <ele>1882.1</ele>
        <time>2022-08-20T13:53:28Z</time>
      </trkpt>
      <trkpt lat="25.4893390" lon="-100.7642120">
        <ele>1882.1</ele>
        <time>2022-08-20T13:53:30Z</time>
      </trkpt>
      <trkpt lat="25.4893430" lon="-100.7641550">
        <ele>1882.0</ele>
        <time>2022-08-20T13:53:31Z</time>
      </trkpt>
      <trkpt lat="25.4893460" lon="-100.7640880">
        <ele>1881.8</ele>
        <time>2022-08-20T13:53:32Z</time>
      </trkpt>
      <trkpt lat="25.4893480" lon="-100.7640190">
        <ele>1881.7</ele>
        <time>2022-08-20T13:53:33Z</time>
      </trkpt>
      <trkpt lat="25.4893500" lon="-100.7638390">
        <ele>1881.5</ele>
        <time>2022-08-20T13:53:34Z</time>
      </trkpt>
      <trkpt lat="25.4893470" lon="-100.7637780">
        <ele>1881.4</ele>
        <time>2022-08-20T13:53:35Z</time>
      </trkpt>
      <trkpt lat="25.4893450" lon="-100.7637220">
        <ele>1881.3</ele>
        <time>2022-08-20T13:53:36Z</time>
      </trkpt>
      <trkpt lat="25.4893410" lon="-100.7636660">
        <ele>1881.1</ele>
        <time>2022-08-20T13:53:37Z</time>
      </trkpt>
      <trkpt lat="25.4893350" lon="-100.7636130">
        <ele>1880.8</ele>
        <time>2022-08-20T13:53:38Z</time>
      </trkpt>
      <trkpt lat="25.4893270" lon="-100.7635570">
        <ele>1880.6</ele>
        <time>2022-08-20T13:53:39Z</time>
      </trkpt>
      <trkpt lat="25.4893210" lon="-100.7634930">
        <ele>1880.4</ele>
        <time>2022-08-20T13:53:40Z</time>
      </trkpt>
      <trkpt lat="25.4893160" lon="-100.7634210">
        <ele>1880.3</ele>
        <time>2022-08-20T13:53:41Z</time>
      </trkpt>
      <trkpt lat="25.4893160" lon="-100.7633480">
        <ele>1880.2</ele>
        <time>2022-08-20T13:53:42Z</time>
      </trkpt>
      <trkpt lat="25.4893190" lon="-100.7632810">
        <ele>1880.2</ele>
        <time>2022-08-20T13:53:43Z</time>
      </trkpt>
      <trkpt lat="25.4893230" lon="-100.7632190">
        <ele>1880.3</ele>
        <time>2022-08-20T13:53:44Z</time>
      </trkpt>
      <trkpt lat="25.4893290" lon="-100.7631630">
        <ele>1880.5</ele>
        <time>2022-08-20T13:53:45Z</time>
      </trkpt>
      <trkpt lat="25.4893330" lon="-100.7631110">
        <ele>1880.7</ele>
        <time>2022-08-20T13:53:46Z</time>
      </trkpt>
      <trkpt lat="25.4893370" lon="-100.7630710">
        <ele>1880.9</ele>
        <time>2022-08-20T13:53:47Z</time>
      </trkpt>
      <trkpt lat="25.4893420" lon="-100.7630270">
        <ele>1881.2</ele>
        <time>2022-08-20T13:53:48Z</time>
      </trkpt>
      <trkpt lat="25.4893510" lon="-100.7629830">
        <ele>1881.5</ele>
        <time>2022-08-20T13:53:49Z</time>
      </trkpt>
      <trkpt lat="25.4893550" lon="-100.7629670">
        <ele>1881.7</ele>
        <time>2022-08-20T13:53:50Z</time>
      </trkpt>
      <trkpt lat="25.4893700" lon="-100.7629360">
        <ele>1882.0</ele>
        <time>2022-08-20T13:53:51Z</time>
      </trkpt>
      <trkpt lat="25.4893840" lon="-100.7629110">
        <ele>1882.3</ele>
        <time>2022-08-20T13:53:52Z</time>
      </trkpt>
      <trkpt lat="25.4893890" lon="-100.7629010">
        <ele>1882.4</ele>
        <time>2022-08-20T13:53:53Z</time>
      </trkpt>
      <trkpt lat="25.4894250" lon="-100.7628820">
        <ele>1882.9</ele>
        <time>2022-08-20T13:53:54Z</time>
      </trkpt>
      <trkpt lat="25.4894640" lon="-100.7628770">
        <ele>1883.4</ele>
        <time>2022-08-20T13:53:56Z</time>
      </trkpt>
      <trkpt lat="25.4894810" lon="-100.7628820">
        <ele>1883.6</ele>
        <time>2022-08-20T13:53:57Z</time>
      </trkpt>
      <trkpt lat="25.4895020" lon="-100.7628890">
        <ele>1883.8</ele>
        <time>2022-08-20T13:53:59Z</time>
      </trkpt>
      <trkpt lat="25.4895180" lon="-100.7628930">
        <ele>1884.0</ele>
        <time>2022-08-20T13:54:00Z</time>
      </trkpt>
      <trkpt lat="25.4895340" lon="-100.7629020">
        <ele>1884.3</ele>
        <time>2022-08-20T13:54:01Z</time>
      </trkpt>
      <trkpt lat="25.4895490" lon="-100.7629140">
        <ele>1884.5</ele>
        <time>2022-08-20T13:54:02Z</time>
      </trkpt>
      <trkpt lat="25.4895610" lon="-100.7629230">
        <ele>1884.7</ele>
        <time>2022-08-20T13:54:03Z</time>
      </trkpt>
      <trkpt lat="25.4895790" lon="-100.7629310">
        <ele>1884.9</ele>
        <time>2022-08-20T13:54:04Z</time>
      </trkpt>
      <trkpt lat="25.4896120" lon="-100.7629410">
        <ele>1885.3</ele>
        <time>2022-08-20T13:54:06Z</time>
      </trkpt>
      <trkpt lat="25.4896400" lon="-100.7629490">
        <ele>1885.6</ele>
        <time>2022-08-20T13:54:08Z</time>
      </trkpt>
      <trkpt lat="25.4896520" lon="-100.7629520">
        <ele>1885.8</ele>
        <time>2022-08-20T13:54:09Z</time>
      </trkpt>
      <trkpt lat="25.4896640" lon="-100.7629560">
        <ele>1885.9</ele>
        <time>2022-08-20T13:54:10Z</time>
      </trkpt>
      <trkpt lat="25.4896900" lon="-100.7629680">
        <ele>1886.2</ele>
        <time>2022-08-20T13:54:11Z</time>
      </trkpt>
      <trkpt lat="25.4896970" lon="-100.7629730">
        <ele>1886.3</ele>
        <time>2022-08-20T13:54:12Z</time>
      </trkpt>
      <trkpt lat="25.4897310" lon="-100.7629980">
        <ele>1886.8</ele>
        <time>2022-08-20T13:54:14Z</time>
      </trkpt>
      <trkpt lat="25.4897460" lon="-100.7630080">
        <ele>1887.0</ele>
        <time>2022-08-20T13:54:15Z</time>
      </trkpt>
      <trkpt lat="25.4897650" lon="-100.7630150">
        <ele>1887.2</ele>
        <time>2022-08-20T13:54:17Z</time>
      </trkpt>
      <trkpt lat="25.4897830" lon="-100.7630210">
        <ele>1887.5</ele>
        <time>2022-08-20T13:54:18Z</time>
      </trkpt>
      <trkpt lat="25.4897990" lon="-100.7630270">
        <ele>1887.7</ele>
        <time>2022-08-20T13:54:19Z</time>
      </trkpt>
      <trkpt lat="25.4898290" lon="-100.7630350">
        <ele>1888.0</ele>
        <time>2022-08-20T13:54:20Z</time>
      </trkpt>
      <trkpt lat="25.4898500" lon="-100.7630340">
        <ele>1888.3</ele>
        <time>2022-08-20T13:54:21Z</time>
      </trkpt>
      <trkpt lat="25.4898710" lon="-100.7630340">
        <ele>1888.5</ele>
        <time>2022-08-20T13:54:23Z</time>
      </trkpt>
      <trkpt lat="25.4899010" lon="-100.7630290">
        <ele>1888.9</ele>
        <time>2022-08-20T13:54:24Z</time>
      </trkpt>
      <trkpt lat="25.4899350" lon="-100.7630170">
        <ele>1889.3</ele>
        <time>2022-08-20T13:54:25Z</time>
      </trkpt>
      <trkpt lat="25.4899450" lon="-100.7630130">
        <ele>1889.4</ele>
        <time>2022-08-20T13:54:26Z</time>
      </trkpt>
      <trkpt lat="25.4899630" lon="-100.7630060">
        <ele>1889.6</ele>
        <time>2022-08-20T13:54:28Z</time>
      </trkpt>
      <trkpt lat="25.4899740" lon="-100.7630000">
        <ele>1889.8</ele>
        <time>2022-08-20T13:54:29Z</time>
      </trkpt>
      <trkpt lat="25.4899850" lon="-100.7629940">
        <ele>1889.9</ele>
        <time>2022-08-20T13:54:30Z</time>
      </trkpt>
      <trkpt lat="25.4900180" lon="-100.7629750">
        <ele>1890.3</ele>
        <time>2022-08-20T13:54:31Z</time>
      </trkpt>
      <trkpt lat="25.4900290" lon="-100.7629670">
        <ele>1890.4</ele>
        <time>2022-08-20T13:54:32Z</time>
      </trkpt>
      <trkpt lat="25.4900570" lon="-100.7629430">
        <ele>1890.8</ele>
        <time>2022-08-20T13:54:33Z</time>
      </trkpt>
      <trkpt lat="25.4900820" lon="-100.7629170">
        <ele>1891.1</ele>
        <time>2022-08-20T13:54:34Z</time>
      </trkpt>
      <trkpt lat="25.4901040" lon="-100.7628910">
        <ele>1891.4</ele>
        <time>2022-08-20T13:54:36Z</time>
      </trkpt>
      <trkpt lat="25.4901100" lon="-100.7628820">
        <ele>1891.5</ele>
        <time>2022-08-20T13:54:37Z</time>
      </trkpt>
      <trkpt lat="25.4901300" lon="-100.7628570">
        <ele>1891.7</ele>
        <time>2022-08-20T13:54:38Z</time>
      </trkpt>
      <trkpt lat="25.4901370" lon="-100.7628490">
        <ele>1891.8</ele>
        <time>2022-08-20T13:54:39Z</time>
      </trkpt>
      <trkpt lat="25.4901630" lon="-100.7628150">
        <ele>1892.2</ele>
        <time>2022-08-20T13:54:40Z</time>
      </trkpt>
      <trkpt lat="25.4901960" lon="-100.7627830">
        <ele>1892.6</ele>
        <time>2022-08-20T13:54:42Z</time>
      </trkpt>
      <trkpt lat="25.4902100" lon="-100.7627700">
        <ele>1892.8</ele>
        <time>2022-08-20T13:54:43Z</time>
      </trkpt>
      <trkpt lat="25.4902350" lon="-100.7627430">
        <ele>1893.1</ele>
        <time>2022-08-20T13:54:44Z</time>
      </trkpt>
      <trkpt lat="25.4902590" lon="-100.7627190">
        <ele>1893.5</ele>
        <time>2022-08-20T13:54:46Z</time>
      </trkpt>
      <trkpt lat="25.4902650" lon="-100.7627140">
        <ele>1893.5</ele>
        <time>2022-08-20T13:54:47Z</time>
      </trkpt>
      <trkpt lat="25.4902820" lon="-100.7627070">
        <ele>1893.7</ele>
        <time>2022-08-20T13:54:48Z</time>
      </trkpt>
      <trkpt lat="25.4902850" lon="-100.7627060">
        <ele>1893.8</ele>
        <time>2022-08-20T13:54:49Z</time>
      </trkpt>
      <trkpt lat="25.4902900" lon="-100.7626980">
        <ele>1893.9</ele>
        <time>2022-08-20T13:54:51Z</time>
      </trkpt>
      <trkpt lat="25.4902920" lon="-100.7626820">
        <ele>1894.0</ele>
        <time>2022-08-20T13:54:52Z</time>
      </trkpt>
      <trkpt lat="25.4903040" lon="-100.7626610">
        <ele>1894.3</ele>
        <time>2022-08-20T13:54:53Z</time>
      </trkpt>
      <trkpt lat="25.4903220" lon="-100.7626370">
        <ele>1894.6</ele>
        <time>2022-08-20T13:54:54Z</time>
      </trkpt>
      <trkpt lat="25.4903460" lon="-100.7626150">
        <ele>1894.9</ele>
        <time>2022-08-20T13:54:56Z</time>
      </trkpt>
      <trkpt lat="25.4903630" lon="-100.7625910">
        <ele>1895.2</ele>
        <time>2022-08-20T13:54:57Z</time>
      </trkpt>
      <trkpt lat="25.4903840" lon="-100.7625620">
        <ele>1895.5</ele>
        <time>2022-08-20T13:54:58Z</time>
      </trkpt>
      <trkpt lat="25.4904190" lon="-100.7625060">
        <ele>1896.1</ele>
        <time>2022-08-20T13:55:00Z</time>
      </trkpt>
      <trkpt lat="25.4904280" lon="-100.7624930">
        <ele>1896.2</ele>
        <time>2022-08-20T13:55:02Z</time>
      </trkpt>
      <trkpt lat="25.4904370" lon="-100.7624800">
        <ele>1896.4</ele>
        <time>2022-08-20T13:55:03Z</time>
      </trkpt>
      <trkpt lat="25.4904470" lon="-100.7624680">
        <ele>1896.5</ele>
        <time>2022-08-20T13:55:04Z</time>
      </trkpt>
      <trkpt lat="25.4904710" lon="-100.7624280">
        <ele>1896.9</ele>
        <time>2022-08-20T13:55:05Z</time>
      </trkpt>
      <trkpt lat="25.4904830" lon="-100.7624150">
        <ele>1897.0</ele>
        <time>2022-08-20T13:55:06Z</time>
      </trkpt>
      <trkpt lat="25.4905030" lon="-100.7623720">
        <ele>1897.4</ele>
        <time>2022-08-20T13:55:08Z</time>
      </trkpt>
      <trkpt lat="25.4905160" lon="-100.7623350">
        <ele>1897.8</ele>
        <time>2022-08-20T13:55:10Z</time>
      </trkpt>
      <trkpt lat="25.4905200" lon="-100.7623220">
        <ele>1897.9</ele>
        <time>2022-08-20T13:55:11Z</time>
      </trkpt>
      <trkpt lat="25.4905320" lon="-100.7622900">
        <ele>1898.2</ele>
        <time>2022-08-20T13:55:12Z</time>
      </trkpt>
      <trkpt lat="25.4905450" lon="-100.7622560">
        <ele>1898.5</ele>
        <time>2022-08-20T13:55:14Z</time>
      </trkpt>
      <trkpt lat="25.4905470" lon="-100.7622460">
        <ele>1898.6</ele>
        <time>2022-08-20T13:55:15Z</time>
      </trkpt>
      <trkpt lat="25.4905520" lon="-100.7622140">
        <ele>1898.9</ele>
        <time>2022-08-20T13:55:16Z</time>
      </trkpt>
      <trkpt lat="25.4905590" lon="-100.7621780">
        <ele>1899.3</ele>
        <time>2022-08-20T13:55:18Z</time>
      </trkpt>
      <trkpt lat="25.4905630" lon="-100.7621690">
        <ele>1899.4</ele>
        <time>2022-08-20T13:55:19Z</time>
      </trkpt>
      <trkpt lat="25.4905750" lon="-100.7621350">
        <ele>1899.7</ele>
        <time>2022-08-20T13:55:20Z</time>
      </trkpt>
      <trkpt lat="25.4905790" lon="-100.7621220">
        <ele>1899.9</ele>
        <time>2022-08-20T13:55:21Z</time>
      </trkpt>
      <trkpt lat="25.4905890" lon="-100.7620910">
        <ele>1900.1</ele>
        <time>2022-08-20T13:55:22Z</time>
      </trkpt>
      <trkpt lat="25.4905930" lon="-100.7620690">
        <ele>1900.3</ele>
        <time>2022-08-20T13:55:23Z</time>
      </trkpt>
      <trkpt lat="25.4905990" lon="-100.7620320">
        <ele>1900.7</ele>
        <time>2022-08-20T13:55:25Z</time>
      </trkpt>
      <trkpt lat="25.4906090" lon="-100.7619910">
        <ele>1901.0</ele>
        <time>2022-08-20T13:55:26Z</time>
      </trkpt>
      <trkpt lat="25.4906120" lon="-100.7619750">
        <ele>1901.1</ele>
        <time>2022-08-20T13:55:27Z</time>
      </trkpt>
      <trkpt lat="25.4906180" lon="-100.7619290">
        <ele>1901.4</ele>
        <time>2022-08-20T13:55:28Z</time>
      </trkpt>
      <trkpt lat="25.4906190" lon="-100.7618970">
        <ele>1901.6</ele>
        <time>2022-08-20T13:55:30Z</time>
      </trkpt>
      <trkpt lat="25.4906250" lon="-100.7618640">
        <ele>1901.9</ele>
        <time>2022-08-20T13:55:31Z</time>
      </trkpt>
      <trkpt lat="25.4906230" lon="-100.7618310">
        <ele>1902.0</ele>
        <time>2022-08-20T13:55:32Z</time>
      </trkpt>
      <trkpt lat="25.4906210" lon="-100.7618050">
        <ele>1902.1</ele>
        <time>2022-08-20T13:55:33Z</time>
      </trkpt>
      <trkpt lat="25.4906210" lon="-100.7617670">
        <ele>1902.3</ele>
        <time>2022-08-20T13:55:35Z</time>
      </trkpt>
      <trkpt lat="25.4906200" lon="-100.7617240">
        <ele>1902.5</ele>
        <time>2022-08-20T13:55:36Z</time>
      </trkpt>
      <trkpt lat="25.4906190" lon="-100.7617090">
        <ele>1902.5</ele>
        <time>2022-08-20T13:55:37Z</time>
      </trkpt>
      <trkpt lat="25.4906160" lon="-100.7616660">
        <ele>1902.6</ele>
        <time>2022-08-20T13:55:39Z</time>
      </trkpt>
      <trkpt lat="25.4906090" lon="-100.7616220">
        <ele>1902.7</ele>
        <time>2022-08-20T13:55:40Z</time>
      </trkpt>
      <trkpt lat="25.4906020" lon="-100.7615770">
        <ele>1902.8</ele>
        <time>2022-08-20T13:55:42Z</time>
      </trkpt>
      <trkpt lat="25.4905890" lon="-100.7614940">
        <ele>1902.8</ele>
        <time>2022-08-20T13:55:43Z</time>
      </trkpt>
      <trkpt lat="25.4905780" lon="-100.7614380">
        <ele>1902.8</ele>
        <time>2022-08-20T13:55:44Z</time>
      </trkpt>
      <trkpt lat="25.4905680" lon="-100.7613800">
        <ele>1902.8</ele>
        <time>2022-08-20T13:55:46Z</time>
      </trkpt>
      <trkpt lat="25.4905580" lon="-100.7613190">
        <ele>1902.8</ele>
        <time>2022-08-20T13:55:47Z</time>
      </trkpt>
      <trkpt lat="25.4905360" lon="-100.7612450">
        <ele>1902.6</ele>
        <time>2022-08-20T13:55:48Z</time>
      </trkpt>
      <trkpt lat="25.4905190" lon="-100.7612000">
        <ele>1902.6</ele>
        <time>2022-08-20T13:55:49Z</time>
      </trkpt>
      <trkpt lat="25.4904820" lon="-100.7610980">
        <ele>1902.4</ele>
        <time>2022-08-20T13:55:51Z</time>
      </trkpt>
      <trkpt lat="25.4904590" lon="-100.7610440">
        <ele>1902.3</ele>
        <time>2022-08-20T13:55:52Z</time>
      </trkpt>
      <trkpt lat="25.4904340" lon="-100.7609900">
        <ele>1902.1</ele>
        <time>2022-08-20T13:55:53Z</time>
      </trkpt>
      <trkpt lat="25.4904060" lon="-100.7609360">
        <ele>1902.1</ele>
        <time>2022-08-20T13:55:54Z</time>
      </trkpt>
      <trkpt lat="25.4903800" lon="-100.7608800">
        <ele>1902.0</ele>
        <time>2022-08-20T13:55:55Z</time>
      </trkpt>
      <trkpt lat="25.4903560" lon="-100.7608220">
        <ele>1902.0</ele>
        <time>2022-08-20T13:55:56Z</time>
      </trkpt>
      <trkpt lat="25.4903310" lon="-100.7607640">
        <ele>1902.0</ele>
        <time>2022-08-20T13:55:57Z</time>
      </trkpt>
      <trkpt lat="25.4903040" lon="-100.7607060">
        <ele>1902.0</ele>
        <time>2022-08-20T13:55:58Z</time>
      </trkpt>
      <trkpt lat="25.4902770" lon="-100.7606460">
        <ele>1902.0</ele>
        <time>2022-08-20T13:55:59Z</time>
      </trkpt>
      <trkpt lat="25.4902520" lon="-100.7605850">
        <ele>1902.0</ele>
        <time>2022-08-20T13:56:00Z</time>
      </trkpt>
      <trkpt lat="25.4902280" lon="-100.7605230">
        <ele>1902.1</ele>
        <time>2022-08-20T13:56:01Z</time>
      </trkpt>
      <trkpt lat="25.4902040" lon="-100.7604630">
        <ele>1902.1</ele>
        <time>2022-08-20T13:56:02Z</time>
      </trkpt>
      <trkpt lat="25.4901790" lon="-100.7604060">
        <ele>1902.2</ele>
        <time>2022-08-20T13:56:03Z</time>
      </trkpt>
      <trkpt lat="25.4901540" lon="-100.7603520">
        <ele>1902.3</ele>
        <time>2022-08-20T13:56:04Z</time>
      </trkpt>
      <trkpt lat="25.4901260" lon="-100.7602990">
        <ele>1902.4</ele>
        <time>2022-08-20T13:56:05Z</time>
      </trkpt>
      <trkpt lat="25.4900980" lon="-100.7602450">
        <ele>1902.5</ele>
        <time>2022-08-20T13:56:06Z</time>
      </trkpt>
      <trkpt lat="25.4900700" lon="-100.7601890">
        <ele>1902.7</ele>
        <time>2022-08-20T13:56:07Z</time>
      </trkpt>
      <trkpt lat="25.4900390" lon="-100.7601340">
        <ele>1902.9</ele>
        <time>2022-08-20T13:56:08Z</time>
      </trkpt>
      <trkpt lat="25.4900060" lon="-100.7600830">
        <ele>1903.0</ele>
        <time>2022-08-20T13:56:09Z</time>
      </trkpt>
      <trkpt lat="25.4899730" lon="-100.7600320">
        <ele>1903.2</ele>
        <time>2022-08-20T13:56:10Z</time>
      </trkpt>
      <trkpt lat="25.4899420" lon="-100.7599810">
        <ele>1903.4</ele>
        <time>2022-08-20T13:56:11Z</time>
      </trkpt>
      <trkpt lat="25.4899140" lon="-100.7599300">
        <ele>1903.5</ele>
        <time>2022-08-20T13:56:12Z</time>
      </trkpt>
      <trkpt lat="25.4898880" lon="-100.7598750">
        <ele>1903.7</ele>
        <time>2022-08-20T13:56:13Z</time>
      </trkpt>
      <trkpt lat="25.4898650" lon="-100.7598190">
        <ele>1903.9</ele>
        <time>2022-08-20T13:56:14Z</time>
      </trkpt>
      <trkpt lat="25.4898420" lon="-100.7597630">
        <ele>1904.1</ele>
        <time>2022-08-20T13:56:15Z</time>
      </trkpt>
      <trkpt lat="25.4898190" lon="-100.7597090">
        <ele>1904.3</ele>
        <time>2022-08-20T13:56:16Z</time>
      </trkpt>
      <trkpt lat="25.4897970" lon="-100.7596550">
        <ele>1904.6</ele>
        <time>2022-08-20T13:56:17Z</time>
      </trkpt>
      <trkpt lat="25.4897750" lon="-100.7596020">
        <ele>1904.8</ele>
        <time>2022-08-20T13:56:18Z</time>
      </trkpt>
      <trkpt lat="25.4897520" lon="-100.7595500">
        <ele>1905.0</ele>
        <time>2022-08-20T13:56:19Z</time>
      </trkpt>
      <trkpt lat="25.4897290" lon="-100.7594990">
        <ele>1905.2</ele>
        <time>2022-08-20T13:56:20Z</time>
      </trkpt>
      <trkpt lat="25.4897090" lon="-100.7594450">
        <ele>1905.4</ele>
        <time>2022-08-20T13:56:21Z</time>
      </trkpt>
      <trkpt lat="25.4896900" lon="-100.7593900">
        <ele>1905.6</ele>
        <time>2022-08-20T13:56:22Z</time>
      </trkpt>
      <trkpt lat="25.4896710" lon="-100.7593360">
        <ele>1905.8</ele>
        <time>2022-08-20T13:56:23Z</time>
      </trkpt>
      <trkpt lat="25.4896520" lon="-100.7592830">
        <ele>1906.0</ele>
        <time>2022-08-20T13:56:24Z</time>
      </trkpt>
      <trkpt lat="25.4896340" lon="-100.7592320">
        <ele>1906.2</ele>
        <time>2022-08-20T13:56:25Z</time>
      </trkpt>
      <trkpt lat="25.4896160" lon="-100.7591810">
        <ele>1906.4</ele>
        <time>2022-08-20T13:56:26Z</time>
      </trkpt>
      <trkpt lat="25.4895980" lon="-100.7591310">
        <ele>1906.6</ele>
        <time>2022-08-20T13:56:27Z</time>
      </trkpt>
      <trkpt lat="25.4895810" lon="-100.7590830">
        <ele>1906.8</ele>
        <time>2022-08-20T13:56:28Z</time>
      </trkpt>
      <trkpt lat="25.4895650" lon="-100.7590360">
        <ele>1907.0</ele>
        <time>2022-08-20T13:56:29Z</time>
      </trkpt>
      <trkpt lat="25.4895550" lon="-100.7590020">
        <ele>1907.2</ele>
        <time>2022-08-20T13:56:30Z</time>
      </trkpt>
      <trkpt lat="25.4895410" lon="-100.7589580">
        <ele>1907.4</ele>
        <time>2022-08-20T13:56:31Z</time>
      </trkpt>
      <trkpt lat="25.4895280" lon="-100.7589200">
        <ele>1907.6</ele>
        <time>2022-08-20T13:56:32Z</time>
      </trkpt>
      <trkpt lat="25.4895100" lon="-100.7588670">
        <ele>1907.8</ele>
        <time>2022-08-20T13:56:33Z</time>
      </trkpt>
      <trkpt lat="25.4894960" lon="-100.7588290">
        <ele>1908.0</ele>
        <time>2022-08-20T13:56:34Z</time>
      </trkpt>
      <trkpt lat="25.4894800" lon="-100.7587880">
        <ele>1908.2</ele>
        <time>2022-08-20T13:56:35Z</time>
      </trkpt>
      <trkpt lat="25.4894630" lon="-100.7587510">
        <ele>1908.4</ele>
        <time>2022-08-20T13:56:36Z</time>
      </trkpt>
      <trkpt lat="25.4894450" lon="-100.7587180">
        <ele>1908.6</ele>
        <time>2022-08-20T13:56:37Z</time>
      </trkpt>
      <trkpt lat="25.4894230" lon="-100.7586830">
        <ele>1908.9</ele>
        <time>2022-08-20T13:56:38Z</time>
      </trkpt>
      <trkpt lat="25.4893990" lon="-100.7586420">
        <ele>1909.1</ele>
        <time>2022-08-20T13:56:39Z</time>
      </trkpt>
      <trkpt lat="25.4893840" lon="-100.7586130">
        <ele>1909.3</ele>
        <time>2022-08-20T13:56:40Z</time>
      </trkpt>
      <trkpt lat="25.4893650" lon="-100.7585660">
        <ele>1909.6</ele>
        <time>2022-08-20T13:56:41Z</time>
      </trkpt>
      <trkpt lat="25.4893520" lon="-100.7585310">
        <ele>1909.8</ele>
        <time>2022-08-20T13:56:42Z</time>
      </trkpt>
      <trkpt lat="25.4893380" lon="-100.7584910">
        <ele>1910.1</ele>
        <time>2022-08-20T13:56:43Z</time>
      </trkpt>
      <trkpt lat="25.4893270" lon="-100.7584570">
        <ele>1910.3</ele>
        <time>2022-08-20T13:56:44Z</time>
      </trkpt>
      <trkpt lat="25.4893190" lon="-100.7584340">
        <ele>1910.4</ele>
        <time>2022-08-20T13:56:45Z</time>
      </trkpt>
      <trkpt lat="25.4893160" lon="-100.7584230">
        <ele>1910.5</ele>
        <time>2022-08-20T13:56:46Z</time>
      </trkpt>
      <trkpt lat="25.4893120" lon="-100.7584110">
        <ele>1910.6</ele>
        <time>2022-08-20T13:56:47Z</time>
      </trkpt>
      <trkpt lat="25.4892910" lon="-100.7583510">
        <ele>1911.0</ele>
        <time>2022-08-20T13:56:48Z</time>
      </trkpt>
      <trkpt lat="25.4892670" lon="-100.7582900">
        <ele>1911.3</ele>
        <time>2022-08-20T13:56:49Z</time>
      </trkpt>
      <trkpt lat="25.4892390" lon="-100.7582200">
        <ele>1911.7</ele>
        <time>2022-08-20T13:56:50Z</time>
      </trkpt>
      <trkpt lat="25.4892140" lon="-100.7581620">
        <ele>1912.0</ele>
        <time>2022-08-20T13:56:51Z</time>
      </trkpt>
      <trkpt lat="25.4891970" lon="-100.7581290">
        <ele>1912.2</ele>
        <time>2022-08-20T13:56:52Z</time>
      </trkpt>
      <trkpt lat="25.4892000" lon="-100.7580580">
        <ele>1912.4</ele>
        <time>2022-08-20T13:56:53Z</time>
      </trkpt>
      <trkpt lat="25.4891710" lon="-100.7580120">
        <ele>1912.6</ele>
        <time>2022-08-20T13:56:55Z</time>
      </trkpt>
      <trkpt lat="25.4891370" lon="-100.7579560">
        <ele>1912.7</ele>
        <time>2022-08-20T13:56:56Z</time>
      </trkpt>
      <trkpt lat="25.4891130" lon="-100.7579130">
        <ele>1912.8</ele>
        <time>2022-08-20T13:56:57Z</time>
      </trkpt>
      <trkpt lat="25.4890820" lon="-100.7578630">
        <ele>1912.9</ele>
        <time>2022-08-20T13:56:58Z</time>
      </trkpt>
      <trkpt lat="25.4890580" lon="-100.7578240">
        <ele>1912.9</ele>
        <time>2022-08-20T13:56:59Z</time>
      </trkpt>
      <trkpt lat="25.4890320" lon="-100.7577700">
        <ele>1912.9</ele>
        <time>2022-08-20T13:57:00Z</time>
      </trkpt>
      <trkpt lat="25.4890150" lon="-100.7577290">
        <ele>1912.8</ele>
        <time>2022-08-20T13:57:01Z</time>
      </trkpt>
      <trkpt lat="25.4889890" lon="-100.7576660">
        <ele>1912.7</ele>
        <time>2022-08-20T13:57:03Z</time>
      </trkpt>
      <trkpt lat="25.4889720" lon="-100.7576080">
        <ele>1912.6</ele>
        <time>2022-08-20T13:57:04Z</time>
      </trkpt>
      <trkpt lat="25.4889570" lon="-100.7575480">
        <ele>1912.5</ele>
        <time>2022-08-20T13:57:05Z</time>
      </trkpt>
      <trkpt lat="25.4889370" lon="-100.7574860">
        <ele>1912.5</ele>
        <time>2022-08-20T13:57:06Z</time>
      </trkpt>
      <trkpt lat="25.4889120" lon="-100.7574240">
        <ele>1912.6</ele>
        <time>2022-08-20T13:57:07Z</time>
      </trkpt>
      <trkpt lat="25.4888800" lon="-100.7573690">
        <ele>1912.8</ele>
        <time>2022-08-20T13:57:08Z</time>
      </trkpt>
      <trkpt lat="25.4888450" lon="-100.7573250">
        <ele>1912.9</ele>
        <time>2022-08-20T13:57:09Z</time>
      </trkpt>
      <trkpt lat="25.4888130" lon="-100.7572850">
        <ele>1913.0</ele>
        <time>2022-08-20T13:57:10Z</time>
      </trkpt>
      <trkpt lat="25.4887860" lon="-100.7572630">
        <ele>1913.1</ele>
        <time>2022-08-20T13:57:11Z</time>
      </trkpt>
      <trkpt lat="25.4887360" lon="-100.7572130">
        <ele>1913.1</ele>
        <time>2022-08-20T13:57:12Z</time>
      </trkpt>
      <trkpt lat="25.4887110" lon="-100.7571840">
        <ele>1913.1</ele>
        <time>2022-08-20T13:57:13Z</time>
      </trkpt>
      <trkpt lat="25.4886780" lon="-100.7571110">
        <ele>1913.1</ele>
        <time>2022-08-20T13:57:15Z</time>
      </trkpt>
      <trkpt lat="25.4886620" lon="-100.7570510">
        <ele>1913.0</ele>
        <time>2022-08-20T13:57:16Z</time>
      </trkpt>
      <trkpt lat="25.4886520" lon="-100.7569880">
        <ele>1913.0</ele>
        <time>2022-08-20T13:57:17Z</time>
      </trkpt>
      <trkpt lat="25.4886450" lon="-100.7569230">
        <ele>1913.1</ele>
        <time>2022-08-20T13:57:18Z</time>
      </trkpt>
      <trkpt lat="25.4886370" lon="-100.7568600">
        <ele>1913.1</ele>
        <time>2022-08-20T13:57:19Z</time>
      </trkpt>
      <trkpt lat="25.4886320" lon="-100.7567990">
        <ele>1913.2</ele>
        <time>2022-08-20T13:57:20Z</time>
      </trkpt>
      <trkpt lat="25.4886280" lon="-100.7567410">
        <ele>1913.3</ele>
        <time>2022-08-20T13:57:21Z</time>
      </trkpt>
      <trkpt lat="25.4886250" lon="-100.7566850">
        <ele>1913.5</ele>
        <time>2022-08-20T13:57:22Z</time>
      </trkpt>
      <trkpt lat="25.4886200" lon="-100.7566320">
        <ele>1913.6</ele>
        <time>2022-08-20T13:57:23Z</time>
      </trkpt>
      <trkpt lat="25.4886150" lon="-100.7565810">
        <ele>1913.7</ele>
        <time>2022-08-20T13:57:24Z</time>
      </trkpt>
      <trkpt lat="25.4886090" lon="-100.7565320">
        <ele>1913.9</ele>
        <time>2022-08-20T13:57:25Z</time>
      </trkpt>
      <trkpt lat="25.4885990" lon="-100.7564860">
        <ele>1914.0</ele>
        <time>2022-08-20T13:57:26Z</time>
      </trkpt>
      <trkpt lat="25.4885910" lon="-100.7564360">
        <ele>1914.2</ele>
        <time>2022-08-20T13:57:27Z</time>
      </trkpt>
      <trkpt lat="25.4885870" lon="-100.7563870">
        <ele>1914.4</ele>
        <time>2022-08-20T13:57:28Z</time>
      </trkpt>
      <trkpt lat="25.4885880" lon="-100.7562970">
        <ele>1914.7</ele>
        <time>2022-08-20T13:57:29Z</time>
      </trkpt>
      <trkpt lat="25.4886010" lon="-100.7562610">
        <ele>1914.9</ele>
        <time>2022-08-20T13:57:30Z</time>
      </trkpt>
      <trkpt lat="25.4885890" lon="-100.7562140">
        <ele>1915.1</ele>
        <time>2022-08-20T13:57:31Z</time>
      </trkpt>
      <trkpt lat="25.4885760" lon="-100.7561680">
        <ele>1915.2</ele>
        <time>2022-08-20T13:57:33Z</time>
      </trkpt>
      <trkpt lat="25.4885650" lon="-100.7561260">
        <ele>1915.4</ele>
        <time>2022-08-20T13:57:34Z</time>
      </trkpt>
      <trkpt lat="25.4885530" lon="-100.7560620">
        <ele>1915.6</ele>
        <time>2022-08-20T13:57:35Z</time>
      </trkpt>
      <trkpt lat="25.4885430" lon="-100.7560160">
        <ele>1915.8</ele>
        <time>2022-08-20T13:57:36Z</time>
      </trkpt>
      <trkpt lat="25.4885260" lon="-100.7559690">
        <ele>1916.0</ele>
        <time>2022-08-20T13:57:37Z</time>
      </trkpt>
      <trkpt lat="25.4885150" lon="-100.7559240">
        <ele>1916.2</ele>
        <time>2022-08-20T13:57:38Z</time>
      </trkpt>
      <trkpt lat="25.4885050" lon="-100.7558770">
        <ele>1916.3</ele>
        <time>2022-08-20T13:57:39Z</time>
      </trkpt>
      <trkpt lat="25.4884950" lon="-100.7558300">
        <ele>1916.5</ele>
        <time>2022-08-20T13:57:40Z</time>
      </trkpt>
      <trkpt lat="25.4884860" lon="-100.7557750">
        <ele>1916.6</ele>
        <time>2022-08-20T13:57:41Z</time>
      </trkpt>
      <trkpt lat="25.4884770" lon="-100.7557170">
        <ele>1916.8</ele>
        <time>2022-08-20T13:57:43Z</time>
      </trkpt>
      <trkpt lat="25.4884680" lon="-100.7556670">
        <ele>1917.0</ele>
        <time>2022-08-20T13:57:44Z</time>
      </trkpt>
      <trkpt lat="25.4884540" lon="-100.7555870">
        <ele>1917.3</ele>
        <time>2022-08-20T13:57:45Z</time>
      </trkpt>
      <trkpt lat="25.4884420" lon="-100.7555310">
        <ele>1917.5</ele>
        <time>2022-08-20T13:57:47Z</time>
      </trkpt>
      <trkpt lat="25.4884300" lon="-100.7554880">
        <ele>1917.7</ele>
        <time>2022-08-20T13:57:48Z</time>
      </trkpt>
      <trkpt lat="25.4884220" lon="-100.7554450">
        <ele>1917.8</ele>
        <time>2022-08-20T13:57:49Z</time>
      </trkpt>
      <trkpt lat="25.4884170" lon="-100.7554030">
        <ele>1918.0</ele>
        <time>2022-08-20T13:57:50Z</time>
      </trkpt>
      <trkpt lat="25.4884120" lon="-100.7553430">
        <ele>1918.3</ele>
        <time>2022-08-20T13:57:51Z</time>
      </trkpt>
      <trkpt lat="25.4884050" lon="-100.7553020">
        <ele>1918.4</ele>
        <time>2022-08-20T13:57:52Z</time>
      </trkpt>
      <trkpt lat="25.4883800" lon="-100.7552000">
        <ele>1918.9</ele>
        <time>2022-08-20T13:57:54Z</time>
      </trkpt>
      <trkpt lat="25.4883630" lon="-100.7551530">
        <ele>1919.1</ele>
        <time>2022-08-20T13:57:56Z</time>
      </trkpt>
      <trkpt lat="25.4883430" lon="-100.7551100">
        <ele>1919.3</ele>
        <time>2022-08-20T13:57:57Z</time>
      </trkpt>
      <trkpt lat="25.4883250" lon="-100.7550660">
        <ele>1919.4</ele>
        <time>2022-08-20T13:57:58Z</time>
      </trkpt>
      <trkpt lat="25.4883070" lon="-100.7550250">
        <ele>1919.6</ele>
        <time>2022-08-20T13:57:59Z</time>
      </trkpt>
      <trkpt lat="25.4882830" lon="-100.7549720">
        <ele>1919.8</ele>
        <time>2022-08-20T13:58:00Z</time>
      </trkpt>
      <trkpt lat="25.4882780" lon="-100.7549670">
        <ele>1919.8</ele>
        <time>2022-08-20T13:58:01Z</time>
      </trkpt>
      <trkpt lat="25.4882630" lon="-100.7549450">
        <ele>1919.9</ele>
        <time>2022-08-20T13:58:03Z</time>
      </trkpt>
      <trkpt lat="25.4882570" lon="-100.7549390">
        <ele>1919.9</ele>
        <time>2022-08-20T13:58:05Z</time>
      </trkpt>
      <trkpt lat="25.4882420" lon="-100.7549200">
        <ele>1920.0</ele>
        <time>2022-08-20T13:58:06Z</time>
      </trkpt>
      <trkpt lat="25.4881720" lon="-100.7548460">
        <ele>1920.2</ele>
        <time>2022-08-20T13:58:07Z</time>
      </trkpt>
      <trkpt lat="25.4880520" lon="-100.7546950">
        <ele>1920.0</ele>
        <time>2022-08-20T13:58:09Z</time>
      </trkpt>
      <trkpt lat="25.4880020" lon="-100.7546420">
        <ele>1919.8</ele>
        <time>2022-08-20T13:58:10Z</time>
      </trkpt>
      <trkpt lat="25.4879540" lon="-100.7545970">
        <ele>1919.5</ele>
        <time>2022-08-20T13:58:11Z</time>
      </trkpt>
      <trkpt lat="25.4879060" lon="-100.7545530">
        <ele>1919.3</ele>
        <time>2022-08-20T13:58:12Z</time>
      </trkpt>
      <trkpt lat="25.4878580" lon="-100.7545120">
        <ele>1919.0</ele>
        <time>2022-08-20T13:58:13Z</time>
      </trkpt>
      <trkpt lat="25.4878080" lon="-100.7544710">
        <ele>1918.6</ele>
        <time>2022-08-20T13:58:14Z</time>
      </trkpt>
      <trkpt lat="25.4877580" lon="-100.7544280">
        <ele>1918.2</ele>
        <time>2022-08-20T13:58:15Z</time>
      </trkpt>
      <trkpt lat="25.4877090" lon="-100.7543820">
        <ele>1917.8</ele>
        <time>2022-08-20T13:58:16Z</time>
      </trkpt>
      <trkpt lat="25.4876580" lon="-100.7543330">
        <ele>1917.4</ele>
        <time>2022-08-20T13:58:17Z</time>
      </trkpt>
      <trkpt lat="25.4876030" lon="-100.7542800">
        <ele>1916.9</ele>
        <time>2022-08-20T13:58:18Z</time>
      </trkpt>
      <trkpt lat="25.4875430" lon="-100.7542240">
        <ele>1916.4</ele>
        <time>2022-08-20T13:58:19Z</time>
      </trkpt>
      <trkpt lat="25.4874810" lon="-100.7541700">
        <ele>1915.9</ele>
        <time>2022-08-20T13:58:20Z</time>
      </trkpt>
      <trkpt lat="25.4874140" lon="-100.7541230">
        <ele>1915.5</ele>
        <time>2022-08-20T13:58:21Z</time>
      </trkpt>
      <trkpt lat="25.4873430" lon="-100.7540820">
        <ele>1915.0</ele>
        <time>2022-08-20T13:58:22Z</time>
      </trkpt>
      <trkpt lat="25.4872680" lon="-100.7540470">
        <ele>1914.6</ele>
        <time>2022-08-20T13:58:23Z</time>
      </trkpt>
      <trkpt lat="25.4871890" lon="-100.7540180">
        <ele>1914.2</ele>
        <time>2022-08-20T13:58:24Z</time>
      </trkpt>
      <trkpt lat="25.4871140" lon="-100.7539880">
        <ele>1913.9</ele>
        <time>2022-08-20T13:58:25Z</time>
      </trkpt>
      <trkpt lat="25.4870420" lon="-100.7539500">
        <ele>1913.5</ele>
        <time>2022-08-20T13:58:26Z</time>
      </trkpt>
      <trkpt lat="25.4869800" lon="-100.7538990">
        <ele>1913.1</ele>
        <time>2022-08-20T13:58:27Z</time>
      </trkpt>
      <trkpt lat="25.4869250" lon="-100.7538290">
        <ele>1912.6</ele>
        <time>2022-08-20T13:58:28Z</time>
      </trkpt>
      <trkpt lat="25.4868780" lon="-100.7537440">
        <ele>1912.1</ele>
        <time>2022-08-20T13:58:29Z</time>
      </trkpt>
      <trkpt lat="25.4868360" lon="-100.7536520">
        <ele>1911.6</ele>
        <time>2022-08-20T13:58:30Z</time>
      </trkpt>
      <trkpt lat="25.4867960" lon="-100.7535590">
        <ele>1911.0</ele>
        <time>2022-08-20T13:58:31Z</time>
      </trkpt>
      <trkpt lat="25.4867560" lon="-100.7534680">
        <ele>1910.5</ele>
        <time>2022-08-20T13:58:32Z</time>
      </trkpt>
      <trkpt lat="25.4867100" lon="-100.7533820">
        <ele>1909.9</ele>
        <time>2022-08-20T13:58:33Z</time>
      </trkpt>
      <trkpt lat="25.4866600" lon="-100.7532980">
        <ele>1909.3</ele>
        <time>2022-08-20T13:58:34Z</time>
      </trkpt>
      <trkpt lat="25.4866080" lon="-100.7532110">
        <ele>1908.6</ele>
        <time>2022-08-20T13:58:35Z</time>
      </trkpt>
      <trkpt lat="25.4865550" lon="-100.7531170">
        <ele>1907.9</ele>
        <time>2022-08-20T13:58:36Z</time>
      </trkpt>
      <trkpt lat="25.4865070" lon="-100.7530160">
        <ele>1907.2</ele>
        <time>2022-08-20T13:58:37Z</time>
      </trkpt>
      <trkpt lat="25.4864690" lon="-100.7529050">
        <ele>1906.7</ele>
        <time>2022-08-20T13:58:38Z</time>
      </trkpt>
      <trkpt lat="25.4864410" lon="-100.7527890">
        <ele>1906.3</ele>
        <time>2022-08-20T13:58:39Z</time>
      </trkpt>
      <trkpt lat="25.4864230" lon="-100.7526720">
        <ele>1906.0</ele>
        <time>2022-08-20T13:58:40Z</time>
      </trkpt>
      <trkpt lat="25.4864090" lon="-100.7525580">
        <ele>1905.8</ele>
        <time>2022-08-20T13:58:41Z</time>
      </trkpt>
      <trkpt lat="25.4863960" lon="-100.7524480">
        <ele>1905.8</ele>
        <time>2022-08-20T13:58:42Z</time>
      </trkpt>
      <trkpt lat="25.4863840" lon="-100.7523460">
        <ele>1905.8</ele>
        <time>2022-08-20T13:58:43Z</time>
      </trkpt>
      <trkpt lat="25.4863740" lon="-100.7522500">
        <ele>1905.8</ele>
        <time>2022-08-20T13:58:44Z</time>
      </trkpt>
      <trkpt lat="25.4863660" lon="-100.7521590">
        <ele>1905.8</ele>
        <time>2022-08-20T13:58:45Z</time>
      </trkpt>
      <trkpt lat="25.4863650" lon="-100.7520720">
        <ele>1905.8</ele>
        <time>2022-08-20T13:58:46Z</time>
      </trkpt>
      <trkpt lat="25.4863700" lon="-100.7519860">
        <ele>1905.7</ele>
        <time>2022-08-20T13:58:47Z</time>
      </trkpt>
      <trkpt lat="25.4863790" lon="-100.7518970">
        <ele>1905.7</ele>
        <time>2022-08-20T13:58:48Z</time>
      </trkpt>
      <trkpt lat="25.4863880" lon="-100.7518070">
        <ele>1905.7</ele>
        <time>2022-08-20T13:58:49Z</time>
      </trkpt>
      <trkpt lat="25.4863960" lon="-100.7517150">
        <ele>1905.8</ele>
        <time>2022-08-20T13:58:50Z</time>
      </trkpt>
      <trkpt lat="25.4864070" lon="-100.7516250">
        <ele>1906.1</ele>
        <time>2022-08-20T13:58:51Z</time>
      </trkpt>
      <trkpt lat="25.4864230" lon="-100.7515350">
        <ele>1906.5</ele>
        <time>2022-08-20T13:58:52Z</time>
      </trkpt>
      <trkpt lat="25.4864390" lon="-100.7514470">
        <ele>1907.1</ele>
        <time>2022-08-20T13:58:53Z</time>
      </trkpt>
      <trkpt lat="25.4864460" lon="-100.7513630">
        <ele>1907.6</ele>
        <time>2022-08-20T13:58:54Z</time>
      </trkpt>
      <trkpt lat="25.4864440" lon="-100.7512840">
        <ele>1908.1</ele>
        <time>2022-08-20T13:58:55Z</time>
      </trkpt>
      <trkpt lat="25.4864300" lon="-100.7512100">
        <ele>1908.5</ele>
        <time>2022-08-20T13:58:56Z</time>
      </trkpt>
      <trkpt lat="25.4864110" lon="-100.7511390">
        <ele>1908.8</ele>
        <time>2022-08-20T13:58:57Z</time>
      </trkpt>
      <trkpt lat="25.4863850" lon="-100.7510720">
        <ele>1909.1</ele>
        <time>2022-08-20T13:58:58Z</time>
      </trkpt>
      <trkpt lat="25.4863560" lon="-100.7510110">
        <ele>1909.3</ele>
        <time>2022-08-20T13:58:59Z</time>
      </trkpt>
      <trkpt lat="25.4863290" lon="-100.7509530">
        <ele>1909.3</ele>
        <time>2022-08-20T13:59:00Z</time>
      </trkpt>
      <trkpt lat="25.4863000" lon="-100.7508980">
        <ele>1909.4</ele>
        <time>2022-08-20T13:59:01Z</time>
      </trkpt>
      <trkpt lat="25.4862710" lon="-100.7508450">
        <ele>1909.4</ele>
        <time>2022-08-20T13:59:02Z</time>
      </trkpt>
      <trkpt lat="25.4862390" lon="-100.7507910">
        <ele>1909.4</ele>
        <time>2022-08-20T13:59:03Z</time>
      </trkpt>
      <trkpt lat="25.4862060" lon="-100.7507370">
        <ele>1909.4</ele>
        <time>2022-08-20T13:59:04Z</time>
      </trkpt>
      <trkpt lat="25.4861740" lon="-100.7506810">
        <ele>1909.4</ele>
        <time>2022-08-20T13:59:05Z</time>
      </trkpt>
      <trkpt lat="25.4861460" lon="-100.7506230">
        <ele>1909.4</ele>
        <time>2022-08-20T13:59:06Z</time>
      </trkpt>
      <trkpt lat="25.4861230" lon="-100.7505640">
        <ele>1909.5</ele>
        <time>2022-08-20T13:59:07Z</time>
      </trkpt>
      <trkpt lat="25.4861020" lon="-100.7505030">
        <ele>1909.5</ele>
        <time>2022-08-20T13:59:08Z</time>
      </trkpt>
      <trkpt lat="25.4860790" lon="-100.7504430">
        <ele>1909.7</ele>
        <time>2022-08-20T13:59:09Z</time>
      </trkpt>
      <trkpt lat="25.4860510" lon="-100.7503830">
        <ele>1909.9</ele>
        <time>2022-08-20T13:59:10Z</time>
      </trkpt>
      <trkpt lat="25.4860220" lon="-100.7503280">
        <ele>1910.1</ele>
        <time>2022-08-20T13:59:11Z</time>
      </trkpt>
      <trkpt lat="25.4859950" lon="-100.7502740">
        <ele>1910.4</ele>
        <time>2022-08-20T13:59:12Z</time>
      </trkpt>
      <trkpt lat="25.4859740" lon="-100.7502250">
        <ele>1910.7</ele>
        <time>2022-08-20T13:59:13Z</time>
      </trkpt>
      <trkpt lat="25.4859550" lon="-100.7501750">
        <ele>1911.1</ele>
        <time>2022-08-20T13:59:14Z</time>
      </trkpt>
      <trkpt lat="25.4859360" lon="-100.7501310">
        <ele>1911.5</ele>
        <time>2022-08-20T13:59:15Z</time>
      </trkpt>
      <trkpt lat="25.4859220" lon="-100.7500970">
        <ele>1911.8</ele>
        <time>2022-08-20T13:59:16Z</time>
      </trkpt>
      <trkpt lat="25.4859120" lon="-100.7500690">
        <ele>1912.1</ele>
        <time>2022-08-20T13:59:17Z</time>
      </trkpt>
      <trkpt lat="25.4859000" lon="-100.7500400">
        <ele>1912.4</ele>
        <time>2022-08-20T13:59:18Z</time>
      </trkpt>
      <trkpt lat="25.4858830" lon="-100.7500120">
        <ele>1912.8</ele>
        <time>2022-08-20T13:59:19Z</time>
      </trkpt>
      <trkpt lat="25.4858770" lon="-100.7500040">
        <ele>1912.9</ele>
        <time>2022-08-20T13:59:20Z</time>
      </trkpt>
      <trkpt lat="25.4858660" lon="-100.7499910">
        <ele>1913.1</ele>
        <time>2022-08-20T13:59:21Z</time>
      </trkpt>
      <trkpt lat="25.4858560" lon="-100.7499770">
        <ele>1913.2</ele>
        <time>2022-08-20T13:59:22Z</time>
      </trkpt>
      <trkpt lat="25.4858460" lon="-100.7499610">
        <ele>1913.3</ele>
        <time>2022-08-20T13:59:23Z</time>
      </trkpt>
      <trkpt lat="25.4858390" lon="-100.7499460">
        <ele>1913.5</ele>
        <time>2022-08-20T13:59:24Z</time>
      </trkpt>
      <trkpt lat="25.4858360" lon="-100.7499290">
        <ele>1913.7</ele>
        <time>2022-08-20T13:59:25Z</time>
      </trkpt>
      <trkpt lat="25.4858360" lon="-100.7499120">
        <ele>1913.9</ele>
        <time>2022-08-20T13:59:26Z</time>
      </trkpt>
      <trkpt lat="25.4858410" lon="-100.7498790">
        <ele>1914.2</ele>
        <time>2022-08-20T13:59:27Z</time>
      </trkpt>
      <trkpt lat="25.4858430" lon="-100.7498670">
        <ele>1914.3</ele>
        <time>2022-08-20T13:59:28Z</time>
      </trkpt>
      <trkpt lat="25.4858490" lon="-100.7498310">
        <ele>1914.7</ele>
        <time>2022-08-20T13:59:29Z</time>
      </trkpt>
      <trkpt lat="25.4858520" lon="-100.7498190">
        <ele>1914.8</ele>
        <time>2022-08-20T13:59:30Z</time>
      </trkpt>
      <trkpt lat="25.4858570" lon="-100.7498040">
        <ele>1914.9</ele>
        <time>2022-08-20T13:59:31Z</time>
      </trkpt>
      <trkpt lat="25.4858600" lon="-100.7497970">
        <ele>1915.0</ele>
        <time>2022-08-20T13:59:32Z</time>
      </trkpt>
      <trkpt lat="25.4858620" lon="-100.7497900">
        <ele>1915.0</ele>
        <time>2022-08-20T13:59:33Z</time>
      </trkpt>
      <trkpt lat="25.4858640" lon="-100.7497830">
        <ele>1915.1</ele>
        <time>2022-08-20T13:59:34Z</time>
      </trkpt>
      <trkpt lat="25.4858660" lon="-100.7497760">
        <ele>1915.1</ele>
        <time>2022-08-20T13:59:35Z</time>
      </trkpt>
      <trkpt lat="25.4858680" lon="-100.7497690">
        <ele>1915.2</ele>
        <time>2022-08-20T13:59:36Z</time>
      </trkpt>
      <trkpt lat="25.4858710" lon="-100.7497620">
        <ele>1915.3</ele>
        <time>2022-08-20T13:59:37Z</time>
      </trkpt>
      <trkpt lat="25.4858980" lon="-100.7496800">
        <ele>1915.8</ele>
        <time>2022-08-20T13:59:38Z</time>
      </trkpt>
      <trkpt lat="25.4859120" lon="-100.7496410">
        <ele>1916.0</ele>
        <time>2022-08-20T13:59:39Z</time>
      </trkpt>
      <trkpt lat="25.4859290" lon="-100.7496080">
        <ele>1916.1</ele>
        <time>2022-08-20T13:59:40Z</time>
      </trkpt>
      <trkpt lat="25.4859440" lon="-100.7495820">
        <ele>1916.2</ele>
        <time>2022-08-20T13:59:41Z</time>
      </trkpt>
      <trkpt lat="25.4859690" lon="-100.7495310">
        <ele>1916.2</ele>
        <time>2022-08-20T13:59:43Z</time>
      </trkpt>
      <trkpt lat="25.4860400" lon="-100.7494040">
        <ele>1916.0</ele>
        <time>2022-08-20T13:59:44Z</time>
      </trkpt>
      <trkpt lat="25.4860860" lon="-100.7493420">
        <ele>1915.8</ele>
        <time>2022-08-20T13:59:45Z</time>
      </trkpt>
      <trkpt lat="25.4861360" lon="-100.7492880">
        <ele>1915.5</ele>
        <time>2022-08-20T13:59:46Z</time>
      </trkpt>
      <trkpt lat="25.4861850" lon="-100.7492440">
        <ele>1915.2</ele>
        <time>2022-08-20T13:59:47Z</time>
      </trkpt>
      <trkpt lat="25.4862370" lon="-100.7492050">
        <ele>1914.9</ele>
        <time>2022-08-20T13:59:48Z</time>
      </trkpt>
      <trkpt lat="25.4862910" lon="-100.7491660">
        <ele>1914.6</ele>
        <time>2022-08-20T13:59:49Z</time>
      </trkpt>
      <trkpt lat="25.4863480" lon="-100.7491290">
        <ele>1914.4</ele>
        <time>2022-08-20T13:59:50Z</time>
      </trkpt>
      <trkpt lat="25.4864050" lon="-100.7490950">
        <ele>1914.2</ele>
        <time>2022-08-20T13:59:51Z</time>
      </trkpt>
      <trkpt lat="25.4864600" lon="-100.7490610">
        <ele>1914.1</ele>
        <time>2022-08-20T13:59:52Z</time>
      </trkpt>
      <trkpt lat="25.4865120" lon="-100.7490250">
        <ele>1914.2</ele>
        <time>2022-08-20T13:59:53Z</time>
      </trkpt>
      <trkpt lat="25.4865610" lon="-100.7489860">
        <ele>1914.3</ele>
        <time>2022-08-20T13:59:54Z</time>
      </trkpt>
      <trkpt lat="25.4866060" lon="-100.7489450">
        <ele>1914.6</ele>
        <time>2022-08-20T13:59:55Z</time>
      </trkpt>
      <trkpt lat="25.4866460" lon="-100.7489040">
        <ele>1914.9</ele>
        <time>2022-08-20T13:59:56Z</time>
      </trkpt>
      <trkpt lat="25.4866840" lon="-100.7488710">
        <ele>1915.3</ele>
        <time>2022-08-20T13:59:57Z</time>
      </trkpt>
      <trkpt lat="25.4867120" lon="-100.7488540">
        <ele>1915.6</ele>
        <time>2022-08-20T13:59:58Z</time>
      </trkpt>
      <trkpt lat="25.4867470" lon="-100.7488360">
        <ele>1915.9</ele>
        <time>2022-08-20T13:59:59Z</time>
      </trkpt>
      <trkpt lat="25.4867870" lon="-100.7488130">
        <ele>1916.3</ele>
        <time>2022-08-20T14:00:00Z</time>
      </trkpt>
      <trkpt lat="25.4868020" lon="-100.7488030">
        <ele>1916.5</ele>
        <time>2022-08-20T14:00:01Z</time>
      </trkpt>
      <trkpt lat="25.4868320" lon="-100.7487820">
        <ele>1916.8</ele>
        <time>2022-08-20T14:00:02Z</time>
      </trkpt>
      <trkpt lat="25.4868560" lon="-100.7487610">
        <ele>1917.0</ele>
        <time>2022-08-20T14:00:03Z</time>
      </trkpt>
      <trkpt lat="25.4868780" lon="-100.7487320">
        <ele>1917.2</ele>
        <time>2022-08-20T14:00:04Z</time>
      </trkpt>
      <trkpt lat="25.4869190" lon="-100.7487040">
        <ele>1917.5</ele>
        <time>2022-08-20T14:00:06Z</time>
      </trkpt>
      <trkpt lat="25.4869510" lon="-100.7486790">
        <ele>1917.7</ele>
        <time>2022-08-20T14:00:07Z</time>
      </trkpt>
      <trkpt lat="25.4869920" lon="-100.7486480">
        <ele>1917.9</ele>
        <time>2022-08-20T14:00:08Z</time>
      </trkpt>
      <trkpt lat="25.4870350" lon="-100.7486120">
        <ele>1918.1</ele>
        <time>2022-08-20T14:00:09Z</time>
      </trkpt>
      <trkpt lat="25.4870600" lon="-100.7485860">
        <ele>1918.2</ele>
        <time>2022-08-20T14:00:10Z</time>
      </trkpt>
      <trkpt lat="25.4870930" lon="-100.7485430">
        <ele>1918.3</ele>
        <time>2022-08-20T14:00:11Z</time>
      </trkpt>
      <trkpt lat="25.4871420" lon="-100.7484870">
        <ele>1918.4</ele>
        <time>2022-08-20T14:00:13Z</time>
      </trkpt>
      <trkpt lat="25.4871750" lon="-100.7484440">
        <ele>1918.4</ele>
        <time>2022-08-20T14:00:14Z</time>
      </trkpt>
      <trkpt lat="25.4872070" lon="-100.7484040">
        <ele>1918.4</ele>
        <time>2022-08-20T14:00:15Z</time>
      </trkpt>
      <trkpt lat="25.4872400" lon="-100.7483670">
        <ele>1918.4</ele>
        <time>2022-08-20T14:00:16Z</time>
      </trkpt>
      <trkpt lat="25.4872740" lon="-100.7483320">
        <ele>1918.4</ele>
        <time>2022-08-20T14:00:17Z</time>
      </trkpt>
      <trkpt lat="25.4873060" lon="-100.7482960">
        <ele>1918.4</ele>
        <time>2022-08-20T14:00:18Z</time>
      </trkpt>
      <trkpt lat="25.4873310" lon="-100.7482650">
        <ele>1918.4</ele>
        <time>2022-08-20T14:00:19Z</time>
      </trkpt>
      <trkpt lat="25.4873550" lon="-100.7482310">
        <ele>1918.4</ele>
        <time>2022-08-20T14:00:20Z</time>
      </trkpt>
      <trkpt lat="25.4873890" lon="-100.7481840">
        <ele>1918.5</ele>
        <time>2022-08-20T14:00:21Z</time>
      </trkpt>
      <trkpt lat="25.4874200" lon="-100.7481350">
        <ele>1918.5</ele>
        <time>2022-08-20T14:00:22Z</time>
      </trkpt>
      <trkpt lat="25.4874470" lon="-100.7480830">
        <ele>1918.5</ele>
        <time>2022-08-20T14:00:23Z</time>
      </trkpt>
      <trkpt lat="25.4874730" lon="-100.7480320">
        <ele>1918.5</ele>
        <time>2022-08-20T14:00:24Z</time>
      </trkpt>
      <trkpt lat="25.4875000" lon="-100.7479850">
        <ele>1918.5</ele>
        <time>2022-08-20T14:00:25Z</time>
      </trkpt>
      <trkpt lat="25.4875280" lon="-100.7479400">
        <ele>1918.6</ele>
        <time>2022-08-20T14:00:26Z</time>
      </trkpt>
      <trkpt lat="25.4875560" lon="-100.7479010">
        <ele>1918.6</ele>
        <time>2022-08-20T14:00:27Z</time>
      </trkpt>
      <trkpt lat="25.4875730" lon="-100.7478730">
        <ele>1918.6</ele>
        <time>2022-08-20T14:00:29Z</time>
      </trkpt>
      <trkpt lat="25.4875850" lon="-100.7478530">
        <ele>1918.7</ele>
        <time>2022-08-20T14:00:30Z</time>
      </trkpt>
      <trkpt lat="25.4875970" lon="-100.7478320">
        <ele>1918.7</ele>
        <time>2022-08-20T14:00:31Z</time>
      </trkpt>
      <trkpt lat="25.4876090" lon="-100.7478110">
        <ele>1918.7</ele>
        <time>2022-08-20T14:00:32Z</time>
      </trkpt>
      <trkpt lat="25.4876360" lon="-100.7477630">
        <ele>1918.8</ele>
        <time>2022-08-20T14:00:33Z</time>
      </trkpt>
      <trkpt lat="25.4876550" lon="-100.7477340">
        <ele>1918.8</ele>
        <time>2022-08-20T14:00:34Z</time>
      </trkpt>
      <trkpt lat="25.4877450" lon="-100.7476140">
        <ele>1918.9</ele>
        <time>2022-08-20T14:00:35Z</time>
      </trkpt>
      <trkpt lat="25.4878110" lon="-100.7475540">
        <ele>1919.0</ele>
        <time>2022-08-20T14:00:36Z</time>
      </trkpt>
      <trkpt lat="25.4878560" lon="-100.7475390">
        <ele>1919.1</ele>
        <time>2022-08-20T14:00:37Z</time>
      </trkpt>
      <trkpt lat="25.4879050" lon="-100.7475150">
        <ele>1919.3</ele>
        <time>2022-08-20T14:00:38Z</time>
      </trkpt>
      <trkpt lat="25.4879740" lon="-100.7475330">
        <ele>1919.8</ele>
        <time>2022-08-20T14:00:39Z</time>
      </trkpt>
      <trkpt lat="25.4880090" lon="-100.7475660">
        <ele>1920.1</ele>
        <time>2022-08-20T14:00:41Z</time>
      </trkpt>
      <trkpt lat="25.4880520" lon="-100.7475910">
        <ele>1920.5</ele>
        <time>2022-08-20T14:00:42Z</time>
      </trkpt>
      <trkpt lat="25.4880810" lon="-100.7476000">
        <ele>1920.8</ele>
        <time>2022-08-20T14:00:43Z</time>
      </trkpt>
      <trkpt lat="25.4881100" lon="-100.7476010">
        <ele>1921.1</ele>
        <time>2022-08-20T14:00:45Z</time>
      </trkpt>
      <trkpt lat="25.4881920" lon="-100.7475970">
        <ele>1922.0</ele>
        <time>2022-08-20T14:00:47Z</time>
      </trkpt>
      <trkpt lat="25.4882180" lon="-100.7475950">
        <ele>1922.3</ele>
        <time>2022-08-20T14:00:49Z</time>
      </trkpt>
      <trkpt lat="25.4882480" lon="-100.7475900">
        <ele>1922.6</ele>
        <time>2022-08-20T14:00:50Z</time>
      </trkpt>
      <trkpt lat="25.4882750" lon="-100.7475830">
        <ele>1922.9</ele>
        <time>2022-08-20T14:00:51Z</time>
      </trkpt>
      <trkpt lat="25.4882990" lon="-100.7475810">
        <ele>1923.2</ele>
        <time>2022-08-20T14:00:52Z</time>
      </trkpt>
      <trkpt lat="25.4883150" lon="-100.7475780">
        <ele>1923.4</ele>
        <time>2022-08-20T14:00:54Z</time>
      </trkpt>
      <trkpt lat="25.4883200" lon="-100.7475740">
        <ele>1923.5</ele>
        <time>2022-08-20T14:00:55Z</time>
      </trkpt>
      <trkpt lat="25.4883380" lon="-100.7475690">
        <ele>1923.7</ele>
        <time>2022-08-20T14:00:57Z</time>
      </trkpt>
      <trkpt lat="25.4883450" lon="-100.7475670">
        <ele>1923.7</ele>
        <time>2022-08-20T14:00:58Z</time>
      </trkpt>
      <trkpt lat="25.4883740" lon="-100.7475620">
        <ele>1924.1</ele>
        <time>2022-08-20T14:00:59Z</time>
      </trkpt>
      <trkpt lat="25.4884000" lon="-100.7475580">
        <ele>1924.4</ele>
        <time>2022-08-20T14:01:00Z</time>
      </trkpt>
      <trkpt lat="25.4884310" lon="-100.7475570">
        <ele>1924.7</ele>
        <time>2022-08-20T14:01:02Z</time>
      </trkpt>
      <trkpt lat="25.4884750" lon="-100.7475530">
        <ele>1925.2</ele>
        <time>2022-08-20T14:01:03Z</time>
      </trkpt>
      <trkpt lat="25.4885110" lon="-100.7475480">
        <ele>1925.6</ele>
        <time>2022-08-20T14:01:04Z</time>
      </trkpt>
      <trkpt lat="25.4885220" lon="-100.7475460">
        <ele>1925.7</ele>
        <time>2022-08-20T14:01:05Z</time>
      </trkpt>
      <trkpt lat="25.4885580" lon="-100.7475410">
        <ele>1926.1</ele>
        <time>2022-08-20T14:01:07Z</time>
      </trkpt>
      <trkpt lat="25.4885890" lon="-100.7475370">
        <ele>1926.4</ele>
        <time>2022-08-20T14:01:08Z</time>
      </trkpt>
      <trkpt lat="25.4886200" lon="-100.7475340">
        <ele>1926.7</ele>
        <time>2022-08-20T14:01:10Z</time>
      </trkpt>
      <trkpt lat="25.4886620" lon="-100.7475320">
        <ele>1927.2</ele>
        <time>2022-08-20T14:01:11Z</time>
      </trkpt>
      <trkpt lat="25.4886890" lon="-100.7475320">
        <ele>1927.5</ele>
        <time>2022-08-20T14:01:13Z</time>
      </trkpt>
      <trkpt lat="25.4887290" lon="-100.7475290">
        <ele>1927.9</ele>
        <time>2022-08-20T14:01:14Z</time>
      </trkpt>
      <trkpt lat="25.4887610" lon="-100.7475260">
        <ele>1928.3</ele>
        <time>2022-08-20T14:01:15Z</time>
      </trkpt>
      <trkpt lat="25.4887980" lon="-100.7475260">
        <ele>1928.7</ele>
        <time>2022-08-20T14:01:16Z</time>
      </trkpt>
      <trkpt lat="25.4888110" lon="-100.7475280">
        <ele>1928.8</ele>
        <time>2022-08-20T14:01:17Z</time>
      </trkpt>
      <trkpt lat="25.4888330" lon="-100.7475280">
        <ele>1929.0</ele>
        <time>2022-08-20T14:01:18Z</time>
      </trkpt>
      <trkpt lat="25.4888730" lon="-100.7475200">
        <ele>1929.5</ele>
        <time>2022-08-20T14:01:20Z</time>
      </trkpt>
      <trkpt lat="25.4889010" lon="-100.7475210">
        <ele>1929.8</ele>
        <time>2022-08-20T14:01:21Z</time>
      </trkpt>
      <trkpt lat="25.4889320" lon="-100.7475230">
        <ele>1930.1</ele>
        <time>2022-08-20T14:01:22Z</time>
      </trkpt>
      <trkpt lat="25.4889660" lon="-100.7475210">
        <ele>1930.4</ele>
        <time>2022-08-20T14:01:23Z</time>
      </trkpt>
      <trkpt lat="25.4889990" lon="-100.7475190">
        <ele>1930.8</ele>
        <time>2022-08-20T14:01:24Z</time>
      </trkpt>
      <trkpt lat="25.4890080" lon="-100.7475170">
        <ele>1930.9</ele>
        <time>2022-08-20T14:01:25Z</time>
      </trkpt>
      <trkpt lat="25.4890420" lon="-100.7475170">
        <ele>1931.2</ele>
        <time>2022-08-20T14:01:27Z</time>
      </trkpt>
      <trkpt lat="25.4890550" lon="-100.7475150">
        <ele>1931.4</ele>
        <time>2022-08-20T14:01:28Z</time>
      </trkpt>
      <trkpt lat="25.4890930" lon="-100.7475120">
        <ele>1931.8</ele>
        <time>2022-08-20T14:01:29Z</time>
      </trkpt>
      <trkpt lat="25.4891080" lon="-100.7475110">
        <ele>1931.9</ele>
        <time>2022-08-20T14:01:30Z</time>
      </trkpt>
      <trkpt lat="25.4891430" lon="-100.7475130">
        <ele>1932.3</ele>
        <time>2022-08-20T14:01:31Z</time>
      </trkpt>
      <trkpt lat="25.4891550" lon="-100.7475130">
        <ele>1932.4</ele>
        <time>2022-08-20T14:01:32Z</time>
      </trkpt>
      <trkpt lat="25.4891800" lon="-100.7475120">
        <ele>1932.7</ele>
        <time>2022-08-20T14:01:33Z</time>
      </trkpt>
      <trkpt lat="25.4892270" lon="-100.7475090">
        <ele>1933.1</ele>
        <time>2022-08-20T14:01:35Z</time>
      </trkpt>
      <trkpt lat="25.4892610" lon="-100.7475100">
        <ele>1933.5</ele>
        <time>2022-08-20T14:01:37Z</time>
      </trkpt>
      <trkpt lat="25.4892950" lon="-100.7475080">
        <ele>1933.9</ele>
        <time>2022-08-20T14:01:38Z</time>
      </trkpt>
      <trkpt lat="25.4893080" lon="-100.7475060">
        <ele>1934.0</ele>
        <time>2022-08-20T14:01:39Z</time>
      </trkpt>
      <trkpt lat="25.4893400" lon="-100.7475030">
        <ele>1934.3</ele>
        <time>2022-08-20T14:01:41Z</time>
      </trkpt>
      <trkpt lat="25.4893870" lon="-100.7475050">
        <ele>1934.8</ele>
        <time>2022-08-20T14:01:42Z</time>
      </trkpt>
      <trkpt lat="25.4894290" lon="-100.7475090">
        <ele>1935.3</ele>
        <time>2022-08-20T14:01:44Z</time>
      </trkpt>
      <trkpt lat="25.4894440" lon="-100.7475120">
        <ele>1935.5</ele>
        <time>2022-08-20T14:01:45Z</time>
      </trkpt>
      <trkpt lat="25.4894590" lon="-100.7475140">
        <ele>1935.7</ele>
        <time>2022-08-20T14:01:46Z</time>
      </trkpt>
      <trkpt lat="25.4894970" lon="-100.7475160">
        <ele>1936.2</ele>
        <time>2022-08-20T14:01:47Z</time>
      </trkpt>
      <trkpt lat="25.4895100" lon="-100.7475150">
        <ele>1936.3</ele>
        <time>2022-08-20T14:01:48Z</time>
      </trkpt>
      <trkpt lat="25.4895380" lon="-100.7475190">
        <ele>1936.7</ele>
        <time>2022-08-20T14:01:49Z</time>
      </trkpt>
      <trkpt lat="25.4895730" lon="-100.7475320">
        <ele>1937.2</ele>
        <time>2022-08-20T14:01:50Z</time>
      </trkpt>
      <trkpt lat="25.4895870" lon="-100.7475340">
        <ele>1937.4</ele>
        <time>2022-08-20T14:01:51Z</time>
      </trkpt>
      <trkpt lat="25.4896130" lon="-100.7475320">
        <ele>1937.7</ele>
        <time>2022-08-20T14:01:52Z</time>
      </trkpt>
      <trkpt lat="25.4896350" lon="-100.7475320">
        <ele>1938.0</ele>
        <time>2022-08-20T14:01:54Z</time>
      </trkpt>
      <trkpt lat="25.4896610" lon="-100.7475340">
        <ele>1938.4</ele>
        <time>2022-08-20T14:01:55Z</time>
      </trkpt>
      <trkpt lat="25.4896730" lon="-100.7475330">
        <ele>1938.5</ele>
        <time>2022-08-20T14:01:56Z</time>
      </trkpt>
      <trkpt lat="25.4897040" lon="-100.7475330">
        <ele>1938.9</ele>
        <time>2022-08-20T14:01:57Z</time>
      </trkpt>
      <trkpt lat="25.4897130" lon="-100.7475330">
        <ele>1939.0</ele>
        <time>2022-08-20T14:01:58Z</time>
      </trkpt>
      <trkpt lat="25.4897330" lon="-100.7475350">
        <ele>1939.3</ele>
        <time>2022-08-20T14:01:59Z</time>
      </trkpt>
      <trkpt lat="25.4897570" lon="-100.7475350">
        <ele>1939.6</ele>
        <time>2022-08-20T14:02:01Z</time>
      </trkpt>
      <trkpt lat="25.4897860" lon="-100.7475390">
        <ele>1940.0</ele>
        <time>2022-08-20T14:02:02Z</time>
      </trkpt>
      <trkpt lat="25.4897990" lon="-100.7475400">
        <ele>1940.1</ele>
        <time>2022-08-20T14:02:03Z</time>
      </trkpt>
      <trkpt lat="25.4898270" lon="-100.7475410">
        <ele>1940.5</ele>
        <time>2022-08-20T14:02:05Z</time>
      </trkpt>
      <trkpt lat="25.4898540" lon="-100.7475380">
        <ele>1940.8</ele>
        <time>2022-08-20T14:02:06Z</time>
      </trkpt>
      <trkpt lat="25.4898710" lon="-100.7475390">
        <ele>1941.0</ele>
        <time>2022-08-20T14:02:08Z</time>
      </trkpt>
      <trkpt lat="25.4898980" lon="-100.7475380">
        <ele>1941.3</ele>
        <time>2022-08-20T14:02:09Z</time>
      </trkpt>
      <trkpt lat="25.4899080" lon="-100.7475360">
        <ele>1941.5</ele>
        <time>2022-08-20T14:02:10Z</time>
      </trkpt>
      <trkpt lat="25.4899220" lon="-100.7475350">
        <ele>1941.6</ele>
        <time>2022-08-20T14:02:11Z</time>
      </trkpt>
      <trkpt lat="25.4899430" lon="-100.7475380">
        <ele>1941.9</ele>
        <time>2022-08-20T14:02:12Z</time>
      </trkpt>
      <trkpt lat="25.4899600" lon="-100.7475400">
        <ele>1942.1</ele>
        <time>2022-08-20T14:02:13Z</time>
      </trkpt>
      <trkpt lat="25.4899770" lon="-100.7475420">
        <ele>1942.3</ele>
        <time>2022-08-20T14:02:15Z</time>
      </trkpt>
      <trkpt lat="25.4899950" lon="-100.7475430">
        <ele>1942.5</ele>
        <time>2022-08-20T14:02:16Z</time>
      </trkpt>
      <trkpt lat="25.4900400" lon="-100.7475500">
        <ele>1943.1</ele>
        <time>2022-08-20T14:02:18Z</time>
      </trkpt>
      <trkpt lat="25.4900580" lon="-100.7475500">
        <ele>1943.3</ele>
        <time>2022-08-20T14:02:20Z</time>
      </trkpt>
      <trkpt lat="25.4900770" lon="-100.7475390">
        <ele>1943.5</ele>
        <time>2022-08-20T14:02:21Z</time>
      </trkpt>
      <trkpt lat="25.4900870" lon="-100.7475320">
        <ele>1943.7</ele>
        <time>2022-08-20T14:02:22Z</time>
      </trkpt>
      <trkpt lat="25.4900980" lon="-100.7475280">
        <ele>1943.8</ele>
        <time>2022-08-20T14:02:24Z</time>
      </trkpt>
      <trkpt lat="25.4901100" lon="-100.7475320">
        <ele>1944.0</ele>
        <time>2022-08-20T14:02:25Z</time>
      </trkpt>
      <trkpt lat="25.4901180" lon="-100.7475380">
        <ele>1944.1</ele>
        <time>2022-08-20T14:02:26Z</time>
      </trkpt>
      <trkpt lat="25.4901240" lon="-100.7475430">
        <ele>1944.2</ele>
        <time>2022-08-20T14:02:27Z</time>
      </trkpt>
      <trkpt lat="25.4901270" lon="-100.7475490">
        <ele>1944.2</ele>
        <time>2022-08-20T14:02:28Z</time>
      </trkpt>
      <trkpt lat="25.4901290" lon="-100.7475540">
        <ele>1944.3</ele>
        <time>2022-08-20T14:02:29Z</time>
      </trkpt>
      <trkpt lat="25.4901280" lon="-100.7475580">
        <ele>1944.3</ele>
        <time>2022-08-20T14:02:30Z</time>
      </trkpt>
      <trkpt lat="25.4901280" lon="-100.7475650">
        <ele>1944.4</ele>
        <time>2022-08-20T14:02:31Z</time>
      </trkpt>
      <trkpt lat="25.4901320" lon="-100.7475670">
        <ele>1944.5</ele>
        <time>2022-08-20T14:02:32Z</time>
      </trkpt>
      <trkpt lat="25.4901360" lon="-100.7475680">
        <ele>1944.5</ele>
        <time>2022-08-20T14:02:33Z</time>
      </trkpt>
      <trkpt lat="25.4901450" lon="-100.7475750">
        <ele>1944.6</ele>
        <time>2022-08-20T14:02:34Z</time>
      </trkpt>
      <trkpt lat="25.4901590" lon="-100.7475790">
        <ele>1944.8</ele>
        <time>2022-08-20T14:02:36Z</time>
      </trkpt>
      <trkpt lat="25.4901670" lon="-100.7475820">
        <ele>1944.9</ele>
        <time>2022-08-20T14:02:37Z</time>
      </trkpt>
      <trkpt lat="25.4901770" lon="-100.7475860">
        <ele>1945.0</ele>
        <time>2022-08-20T14:02:38Z</time>
      </trkpt>
      <trkpt lat="25.4901860" lon="-100.7475850">
        <ele>1945.1</ele>
        <time>2022-08-20T14:02:39Z</time>
      </trkpt>
      <trkpt lat="25.4902050" lon="-100.7475850">
        <ele>1945.4</ele>
        <time>2022-08-20T14:02:40Z</time>
      </trkpt>
      <trkpt lat="25.4902150" lon="-100.7475840">
        <ele>1945.5</ele>
        <time>2022-08-20T14:02:41Z</time>
      </trkpt>
      <trkpt lat="25.4902250" lon="-100.7475830">
        <ele>1945.6</ele>
        <time>2022-08-20T14:02:42Z</time>
      </trkpt>
      <trkpt lat="25.4902610" lon="-100.7475840">
        <ele>1946.0</ele>
        <time>2022-08-20T14:02:44Z</time>
      </trkpt>
      <trkpt lat="25.4902890" lon="-100.7475950">
        <ele>1946.4</ele>
        <time>2022-08-20T14:02:45Z</time>
      </trkpt>
      <trkpt lat="25.4902960" lon="-100.7476000">
        <ele>1946.5</ele>
        <time>2022-08-20T14:02:46Z</time>
      </trkpt>
      <trkpt lat="25.4903230" lon="-100.7476180">
        <ele>1946.9</ele>
        <time>2022-08-20T14:02:47Z</time>
      </trkpt>
      <trkpt lat="25.4903620" lon="-100.7476280">
        <ele>1947.3</ele>
        <time>2022-08-20T14:02:49Z</time>
      </trkpt>
      <trkpt lat="25.4903990" lon="-100.7476410">
        <ele>1947.8</ele>
        <time>2022-08-20T14:02:50Z</time>
      </trkpt>
      <trkpt lat="25.4904490" lon="-100.7476370">
        <ele>1948.3</ele>
        <time>2022-08-20T14:02:52Z</time>
      </trkpt>
      <trkpt lat="25.4904630" lon="-100.7476390">
        <ele>1948.5</ele>
        <time>2022-08-20T14:02:53Z</time>
      </trkpt>
      <trkpt lat="25.4904780" lon="-100.7476410">
        <ele>1948.6</ele>
        <time>2022-08-20T14:02:54Z</time>
      </trkpt>
      <trkpt lat="25.4905200" lon="-100.7476440">
        <ele>1949.0</ele>
        <time>2022-08-20T14:02:55Z</time>
      </trkpt>
      <trkpt lat="25.4905550" lon="-100.7476490">
        <ele>1949.3</ele>
        <time>2022-08-20T14:02:56Z</time>
      </trkpt>
      <trkpt lat="25.4906030" lon="-100.7476540">
        <ele>1949.6</ele>
        <time>2022-08-20T14:02:58Z</time>
      </trkpt>
      <trkpt lat="25.4906370" lon="-100.7476570">
        <ele>1949.7</ele>
        <time>2022-08-20T14:02:59Z</time>
      </trkpt>
      <trkpt lat="25.4906640" lon="-100.7476560">
        <ele>1949.8</ele>
        <time>2022-08-20T14:03:00Z</time>
      </trkpt>
      <trkpt lat="25.4907170" lon="-100.7476510">
        <ele>1949.9</ele>
        <time>2022-08-20T14:03:01Z</time>
      </trkpt>
      <trkpt lat="25.4907440" lon="-100.7476470">
        <ele>1950.0</ele>
        <time>2022-08-20T14:03:02Z</time>
      </trkpt>
      <trkpt lat="25.4907980" lon="-100.7476340">
        <ele>1950.1</ele>
        <time>2022-08-20T14:03:03Z</time>
      </trkpt>
      <trkpt lat="25.4908560" lon="-100.7476280">
        <ele>1950.3</ele>
        <time>2022-08-20T14:03:04Z</time>
      </trkpt>
      <trkpt lat="25.4909310" lon="-100.7476210">
        <ele>1950.6</ele>
        <time>2022-08-20T14:03:05Z</time>
      </trkpt>
      <trkpt lat="25.4909830" lon="-100.7476180">
        <ele>1950.9</ele>
        <time>2022-08-20T14:03:06Z</time>
      </trkpt>
      <trkpt lat="25.4911020" lon="-100.7476090">
        <ele>1951.7</ele>
        <time>2022-08-20T14:03:08Z</time>
      </trkpt>
      <trkpt lat="25.4911830" lon="-100.7476060">
        <ele>1952.6</ele>
        <time>2022-08-20T14:03:10Z</time>
      </trkpt>
      <trkpt lat="25.4912170" lon="-100.7476090">
        <ele>1953.0</ele>
        <time>2022-08-20T14:03:11Z</time>
      </trkpt>
      <trkpt lat="25.4912250" lon="-100.7476090">
        <ele>1953.1</ele>
        <time>2022-08-20T14:03:12Z</time>
      </trkpt>
      <trkpt lat="25.4912430" lon="-100.7476100">
        <ele>1953.3</ele>
        <time>2022-08-20T14:03:14Z</time>
      </trkpt>
      <trkpt lat="25.4912600" lon="-100.7476110">
        <ele>1953.5</ele>
        <time>2022-08-20T14:03:15Z</time>
      </trkpt>
      <trkpt lat="25.4912920" lon="-100.7476110">
        <ele>1953.9</ele>
        <time>2022-08-20T14:03:16Z</time>
      </trkpt>
      <trkpt lat="25.4913010" lon="-100.7476110">
        <ele>1954.1</ele>
        <time>2022-08-20T14:03:17Z</time>
      </trkpt>
      <trkpt lat="25.4913290" lon="-100.7476180">
        <ele>1954.5</ele>
        <time>2022-08-20T14:03:18Z</time>
      </trkpt>
      <trkpt lat="25.4913400" lon="-100.7476230">
        <ele>1954.6</ele>
        <time>2022-08-20T14:03:19Z</time>
      </trkpt>
      <trkpt lat="25.4913590" lon="-100.7476290">
        <ele>1954.9</ele>
        <time>2022-08-20T14:03:20Z</time>
      </trkpt>
      <trkpt lat="25.4913770" lon="-100.7476350">
        <ele>1955.2</ele>
        <time>2022-08-20T14:03:22Z</time>
      </trkpt>
      <trkpt lat="25.4913890" lon="-100.7476440">
        <ele>1955.4</ele>
        <time>2022-08-20T14:03:23Z</time>
      </trkpt>
      <trkpt lat="25.4914000" lon="-100.7476490">
        <ele>1955.5</ele>
        <time>2022-08-20T14:03:24Z</time>
      </trkpt>
      <trkpt lat="25.4914180" lon="-100.7476550">
        <ele>1955.8</ele>
        <time>2022-08-20T14:03:26Z</time>
      </trkpt>
      <trkpt lat="25.4914320" lon="-100.7476590">
        <ele>1956.0</ele>
        <time>2022-08-20T14:03:27Z</time>
      </trkpt>
      <trkpt lat="25.4914460" lon="-100.7476620">
        <ele>1956.2</ele>
        <time>2022-08-20T14:03:28Z</time>
      </trkpt>
      <trkpt lat="25.4914570" lon="-100.7476650">
        <ele>1956.3</ele>
        <time>2022-08-20T14:03:29Z</time>
      </trkpt>
      <trkpt lat="25.4914680" lon="-100.7476660">
        <ele>1956.5</ele>
        <time>2022-08-20T14:03:30Z</time>
      </trkpt>
      <trkpt lat="25.4914790" lon="-100.7476680">
        <ele>1956.7</ele>
        <time>2022-08-20T14:03:31Z</time>
      </trkpt>
      <trkpt lat="25.4915010" lon="-100.7476670">
        <ele>1957.0</ele>
        <time>2022-08-20T14:03:32Z</time>
      </trkpt>
      <trkpt lat="25.4915100" lon="-100.7476670">
        <ele>1957.1</ele>
        <time>2022-08-20T14:03:34Z</time>
      </trkpt>
      <trkpt lat="25.4915180" lon="-100.7476660">
        <ele>1957.2</ele>
        <time>2022-08-20T14:03:35Z</time>
      </trkpt>
      <trkpt lat="25.4915470" lon="-100.7476480">
        <ele>1957.6</ele>
        <time>2022-08-20T14:03:36Z</time>
      </trkpt>
      <trkpt lat="25.4915590" lon="-100.7476420">
        <ele>1957.8</ele>
        <time>2022-08-20T14:03:37Z</time>
      </trkpt>
      <trkpt lat="25.4915770" lon="-100.7476350">
        <ele>1958.1</ele>
        <time>2022-08-20T14:03:38Z</time>
      </trkpt>
      <trkpt lat="25.4915890" lon="-100.7476300">
        <ele>1958.3</ele>
        <time>2022-08-20T14:03:39Z</time>
      </trkpt>
      <trkpt lat="25.4916010" lon="-100.7476250">
        <ele>1958.4</ele>
        <time>2022-08-20T14:03:40Z</time>
      </trkpt>
      <trkpt lat="25.4916210" lon="-100.7476130">
        <ele>1958.7</ele>
        <time>2022-08-20T14:03:42Z</time>
      </trkpt>
      <trkpt lat="25.4916580" lon="-100.7475890">
        <ele>1959.3</ele>
        <time>2022-08-20T14:03:43Z</time>
      </trkpt>
      <trkpt lat="25.4916940" lon="-100.7475690">
        <ele>1959.9</ele>
        <time>2022-08-20T14:03:44Z</time>
      </trkpt>
      <trkpt lat="25.4917280" lon="-100.7475460">
        <ele>1960.5</ele>
        <time>2022-08-20T14:03:45Z</time>
      </trkpt>
      <trkpt lat="25.4917390" lon="-100.7475400">
        <ele>1960.7</ele>
        <time>2022-08-20T14:03:46Z</time>
      </trkpt>
      <trkpt lat="25.4917810" lon="-100.7475230">
        <ele>1961.3</ele>
        <time>2022-08-20T14:03:48Z</time>
      </trkpt>
      <trkpt lat="25.4917980" lon="-100.7475170">
        <ele>1961.6</ele>
        <time>2022-08-20T14:03:49Z</time>
      </trkpt>
      <trkpt lat="25.4918190" lon="-100.7475000">
        <ele>1962.0</ele>
        <time>2022-08-20T14:03:50Z</time>
      </trkpt>
      <trkpt lat="25.4918390" lon="-100.7474900">
        <ele>1962.3</ele>
        <time>2022-08-20T14:03:52Z</time>
      </trkpt>
      <trkpt lat="25.4918550" lon="-100.7474810">
        <ele>1962.6</ele>
        <time>2022-08-20T14:03:53Z</time>
      </trkpt>
      <trkpt lat="25.4918680" lon="-100.7474720">
        <ele>1962.8</ele>
        <time>2022-08-20T14:03:54Z</time>
      </trkpt>
      <trkpt lat="25.4918990" lon="-100.7474620">
        <ele>1963.3</ele>
        <time>2022-08-20T14:03:55Z</time>
      </trkpt>
      <trkpt lat="25.4919130" lon="-100.7474600">
        <ele>1963.5</ele>
        <time>2022-08-20T14:03:56Z</time>
      </trkpt>
      <trkpt lat="25.4919390" lon="-100.7474510">
        <ele>1963.9</ele>
        <time>2022-08-20T14:03:57Z</time>
      </trkpt>
      <trkpt lat="25.4919660" lon="-100.7474320">
        <ele>1964.4</ele>
        <time>2022-08-20T14:03:58Z</time>
      </trkpt>
      <trkpt lat="25.4920060" lon="-100.7474020">
        <ele>1965.1</ele>
        <time>2022-08-20T14:04:00Z</time>
      </trkpt>
      <trkpt lat="25.4920200" lon="-100.7473910">
        <ele>1965.3</ele>
        <time>2022-08-20T14:04:01Z</time>
      </trkpt>
      <trkpt lat="25.4920340" lon="-100.7473800">
        <ele>1965.5</ele>
        <time>2022-08-20T14:04:02Z</time>
      </trkpt>
      <trkpt lat="25.4920730" lon="-100.7473530">
        <ele>1966.1</ele>
        <time>2022-08-20T14:04:04Z</time>
      </trkpt>
      <trkpt lat="25.4921070" lon="-100.7473280">
        <ele>1966.5</ele>
        <time>2022-08-20T14:04:05Z</time>
      </trkpt>
      <trkpt lat="25.4921230" lon="-100.7473000">
        <ele>1966.9</ele>
        <time>2022-08-20T14:04:07Z</time>
      </trkpt>
      <trkpt lat="25.4921310" lon="-100.7472950">
        <ele>1967.0</ele>
        <time>2022-08-20T14:04:08Z</time>
      </trkpt>
      <trkpt lat="25.4921630" lon="-100.7472910">
        <ele>1967.3</ele>
        <time>2022-08-20T14:04:09Z</time>
      </trkpt>
      <trkpt lat="25.4921730" lon="-100.7472890">
        <ele>1967.4</ele>
        <time>2022-08-20T14:04:10Z</time>
      </trkpt>
      <trkpt lat="25.4922130" lon="-100.7472740">
        <ele>1967.8</ele>
        <time>2022-08-20T14:04:11Z</time>
      </trkpt>
      <trkpt lat="25.4922480" lon="-100.7472620">
        <ele>1968.2</ele>
        <time>2022-08-20T14:04:12Z</time>
      </trkpt>
      <trkpt lat="25.4922600" lon="-100.7472580">
        <ele>1968.3</ele>
        <time>2022-08-20T14:04:13Z</time>
      </trkpt>
      <trkpt lat="25.4922800" lon="-100.7472520">
        <ele>1968.5</ele>
        <time>2022-08-20T14:04:14Z</time>
      </trkpt>
      <trkpt lat="25.4923050" lon="-100.7472500">
        <ele>1968.7</ele>
        <time>2022-08-20T14:04:16Z</time>
      </trkpt>
      <trkpt lat="25.4923320" lon="-100.7472540">
        <ele>1968.9</ele>
        <time>2022-08-20T14:04:17Z</time>
      </trkpt>
      <trkpt lat="25.4923670" lon="-100.7472480">
        <ele>1969.2</ele>
        <time>2022-08-20T14:04:18Z</time>
      </trkpt>
      <trkpt lat="25.4923790" lon="-100.7472470">
        <ele>1969.3</ele>
        <time>2022-08-20T14:04:19Z</time>
      </trkpt>
      <trkpt lat="25.4924110" lon="-100.7472420">
        <ele>1969.6</ele>
        <time>2022-08-20T14:04:21Z</time>
      </trkpt>
      <trkpt lat="25.4924390" lon="-100.7472390">
        <ele>1969.8</ele>
        <time>2022-08-20T14:04:22Z</time>
      </trkpt>
      <trkpt lat="25.4924710" lon="-100.7472330">
        <ele>1970.0</ele>
        <time>2022-08-20T14:04:23Z</time>
      </trkpt>
      <trkpt lat="25.4925000" lon="-100.7472170">
        <ele>1970.2</ele>
        <time>2022-08-20T14:04:24Z</time>
      </trkpt>
      <trkpt lat="25.4925250" lon="-100.7472070">
        <ele>1970.4</ele>
        <time>2022-08-20T14:04:25Z</time>
      </trkpt>
      <trkpt lat="25.4925570" lon="-100.7471970">
        <ele>1970.7</ele>
        <time>2022-08-20T14:04:27Z</time>
      </trkpt>
      <trkpt lat="25.4925900" lon="-100.7471860">
        <ele>1970.9</ele>
        <time>2022-08-20T14:04:28Z</time>
      </trkpt>
      <trkpt lat="25.4926000" lon="-100.7471830">
        <ele>1971.0</ele>
        <time>2022-08-20T14:04:29Z</time>
      </trkpt>
      <trkpt lat="25.4926360" lon="-100.7471700">
        <ele>1971.2</ele>
        <time>2022-08-20T14:04:30Z</time>
      </trkpt>
      <trkpt lat="25.4926480" lon="-100.7471650">
        <ele>1971.3</ele>
        <time>2022-08-20T14:04:31Z</time>
      </trkpt>
      <trkpt lat="25.4926850" lon="-100.7471480">
        <ele>1971.5</ele>
        <time>2022-08-20T14:04:32Z</time>
      </trkpt>
      <trkpt lat="25.4926970" lon="-100.7471410">
        <ele>1971.6</ele>
        <time>2022-08-20T14:04:33Z</time>
      </trkpt>
      <trkpt lat="25.4927360" lon="-100.7471300">
        <ele>1971.8</ele>
        <time>2022-08-20T14:04:34Z</time>
      </trkpt>
      <trkpt lat="25.4927690" lon="-100.7471220">
        <ele>1971.9</ele>
        <time>2022-08-20T14:04:35Z</time>
      </trkpt>
      <trkpt lat="25.4927970" lon="-100.7471260">
        <ele>1972.0</ele>
        <time>2022-08-20T14:04:37Z</time>
      </trkpt>
      <trkpt lat="25.4928310" lon="-100.7471230">
        <ele>1972.1</ele>
        <time>2022-08-20T14:04:38Z</time>
      </trkpt>
      <trkpt lat="25.4928670" lon="-100.7471200">
        <ele>1972.3</ele>
        <time>2022-08-20T14:04:39Z</time>
      </trkpt>
      <trkpt lat="25.4929250" lon="-100.7471140">
        <ele>1972.5</ele>
        <time>2022-08-20T14:04:40Z</time>
      </trkpt>
      <trkpt lat="25.4929700" lon="-100.7471090">
        <ele>1972.7</ele>
        <time>2022-08-20T14:04:41Z</time>
      </trkpt>
      <trkpt lat="25.4930300" lon="-100.7471030">
        <ele>1973.0</ele>
        <time>2022-08-20T14:04:43Z</time>
      </trkpt>
      <trkpt lat="25.4930750" lon="-100.7471060">
        <ele>1973.2</ele>
        <time>2022-08-20T14:04:44Z</time>
      </trkpt>
      <trkpt lat="25.4931230" lon="-100.7471100">
        <ele>1973.4</ele>
        <time>2022-08-20T14:04:45Z</time>
      </trkpt>
      <trkpt lat="25.4931700" lon="-100.7471100">
        <ele>1973.7</ele>
        <time>2022-08-20T14:04:46Z</time>
      </trkpt>
      <trkpt lat="25.4932100" lon="-100.7471110">
        <ele>1973.9</ele>
        <time>2022-08-20T14:04:47Z</time>
      </trkpt>
      <trkpt lat="25.4932490" lon="-100.7471080">
        <ele>1974.0</ele>
        <time>2022-08-20T14:04:49Z</time>
      </trkpt>
      <trkpt lat="25.4932790" lon="-100.7471070">
        <ele>1974.2</ele>
        <time>2022-08-20T14:04:50Z</time>
      </trkpt>
      <trkpt lat="25.4933260" lon="-100.7471010">
        <ele>1974.4</ele>
        <time>2022-08-20T14:04:51Z</time>
      </trkpt>
      <trkpt lat="25.4933690" lon="-100.7471020">
        <ele>1974.6</ele>
        <time>2022-08-20T14:04:52Z</time>
      </trkpt>
      <trkpt lat="25.4934130" lon="-100.7471040">
        <ele>1974.8</ele>
        <time>2022-08-20T14:04:53Z</time>
      </trkpt>
      <trkpt lat="25.4934610" lon="-100.7471060">
        <ele>1975.0</ele>
        <time>2022-08-20T14:04:55Z</time>
      </trkpt>
      <trkpt lat="25.4935160" lon="-100.7471130">
        <ele>1975.2</ele>
        <time>2022-08-20T14:04:56Z</time>
      </trkpt>
      <trkpt lat="25.4935520" lon="-100.7471190">
        <ele>1975.3</ele>
        <time>2022-08-20T14:04:57Z</time>
      </trkpt>
      <trkpt lat="25.4935960" lon="-100.7471240">
        <ele>1975.5</ele>
        <time>2022-08-20T14:04:58Z</time>
      </trkpt>
      <trkpt lat="25.4936230" lon="-100.7471210">
        <ele>1975.6</ele>
        <time>2022-08-20T14:05:00Z</time>
      </trkpt>
      <trkpt lat="25.4936300" lon="-100.7471190">
        <ele>1975.6</ele>
        <time>2022-08-20T14:05:01Z</time>
      </trkpt>
      <trkpt lat="25.4936410" lon="-100.7471170">
        <ele>1975.7</ele>
        <time>2022-08-20T14:05:02Z</time>
      </trkpt>
      <trkpt lat="25.4936540" lon="-100.7471160">
        <ele>1975.7</ele>
        <time>2022-08-20T14:05:03Z</time>
      </trkpt>
      <trkpt lat="25.4937100" lon="-100.7471170">
        <ele>1975.9</ele>
        <time>2022-08-20T14:05:05Z</time>
      </trkpt>
      <trkpt lat="25.4937720" lon="-100.7471140">
        <ele>1976.3</ele>
        <time>2022-08-20T14:05:06Z</time>
      </trkpt>
      <trkpt lat="25.4938240" lon="-100.7471040">
        <ele>1976.6</ele>
        <time>2022-08-20T14:05:07Z</time>
      </trkpt>
      <trkpt lat="25.4938580" lon="-100.7470980">
        <ele>1976.9</ele>
        <time>2022-08-20T14:05:08Z</time>
      </trkpt>
      <trkpt lat="25.4938920" lon="-100.7470820">
        <ele>1977.2</ele>
        <time>2022-08-20T14:05:09Z</time>
      </trkpt>
      <trkpt lat="25.4939020" lon="-100.7470750">
        <ele>1977.3</ele>
        <time>2022-08-20T14:05:10Z</time>
      </trkpt>
      <trkpt lat="25.4939350" lon="-100.7470430">
        <ele>1977.7</ele>
        <time>2022-08-20T14:05:12Z</time>
      </trkpt>
      <trkpt lat="25.4939480" lon="-100.7470320">
        <ele>1977.9</ele>
        <time>2022-08-20T14:05:13Z</time>
      </trkpt>
      <trkpt lat="25.4939610" lon="-100.7470210">
        <ele>1978.1</ele>
        <time>2022-08-20T14:05:14Z</time>
      </trkpt>
      <trkpt lat="25.4939880" lon="-100.7469960">
        <ele>1978.4</ele>
        <time>2022-08-20T14:05:15Z</time>
      </trkpt>
      <trkpt lat="25.4940210" lon="-100.7469670">
        <ele>1978.9</ele>
        <time>2022-08-20T14:05:16Z</time>
      </trkpt>
      <trkpt lat="25.4940350" lon="-100.7469570">
        <ele>1979.1</ele>
        <time>2022-08-20T14:05:17Z</time>
      </trkpt>
      <trkpt lat="25.4940640" lon="-100.7469390">
        <ele>1979.4</ele>
        <time>2022-08-20T14:05:19Z</time>
      </trkpt>
      <trkpt lat="25.4941010" lon="-100.7469230">
        <ele>1979.9</ele>
        <time>2022-08-20T14:05:20Z</time>
      </trkpt>
      <trkpt lat="25.4941380" lon="-100.7469080">
        <ele>1980.3</ele>
        <time>2022-08-20T14:05:21Z</time>
      </trkpt>
      <trkpt lat="25.4941710" lon="-100.7469040">
        <ele>1980.6</ele>
        <time>2022-08-20T14:05:22Z</time>
      </trkpt>
      <trkpt lat="25.4941830" lon="-100.7469050">
        <ele>1980.7</ele>
        <time>2022-08-20T14:05:23Z</time>
      </trkpt>
      <trkpt lat="25.4942150" lon="-100.7469230">
        <ele>1981.1</ele>
        <time>2022-08-20T14:05:25Z</time>
      </trkpt>
      <trkpt lat="25.4942620" lon="-100.7469480">
        <ele>1981.6</ele>
        <time>2022-08-20T14:05:26Z</time>
      </trkpt>
      <trkpt lat="25.4942950" lon="-100.7469680">
        <ele>1981.9</ele>
        <time>2022-08-20T14:05:27Z</time>
      </trkpt>
      <trkpt lat="25.4943060" lon="-100.7469740">
        <ele>1982.1</ele>
        <time>2022-08-20T14:05:28Z</time>
      </trkpt>
      <trkpt lat="25.4943490" lon="-100.7469960">
        <ele>1982.5</ele>
        <time>2022-08-20T14:05:30Z</time>
      </trkpt>
      <trkpt lat="25.4943670" lon="-100.7470050">
        <ele>1982.7</ele>
        <time>2022-08-20T14:05:31Z</time>
      </trkpt>
      <trkpt lat="25.4943840" lon="-100.7470130">
        <ele>1982.9</ele>
        <time>2022-08-20T14:05:32Z</time>
      </trkpt>
      <trkpt lat="25.4944110" lon="-100.7470270">
        <ele>1983.2</ele>
        <time>2022-08-20T14:05:33Z</time>
      </trkpt>
      <trkpt lat="25.4944430" lon="-100.7470340">
        <ele>1983.5</ele>
        <time>2022-08-20T14:05:34Z</time>
      </trkpt>
      <trkpt lat="25.4944530" lon="-100.7470360">
        <ele>1983.6</ele>
        <time>2022-08-20T14:05:35Z</time>
      </trkpt>
      <trkpt lat="25.4944880" lon="-100.7470390">
        <ele>1984.0</ele>
        <time>2022-08-20T14:05:36Z</time>
      </trkpt>
      <trkpt lat="25.4945030" lon="-100.7470400">
        <ele>1984.1</ele>
        <time>2022-08-20T14:05:37Z</time>
      </trkpt>
      <trkpt lat="25.4945340" lon="-100.7470470">
        <ele>1984.4</ele>
        <time>2022-08-20T14:05:38Z</time>
      </trkpt>
      <trkpt lat="25.4945680" lon="-100.7470540">
        <ele>1984.7</ele>
        <time>2022-08-20T14:05:40Z</time>
      </trkpt>
      <trkpt lat="25.4946020" lon="-100.7470620">
        <ele>1985.1</ele>
        <time>2022-08-20T14:05:41Z</time>
      </trkpt>
      <trkpt lat="25.4946410" lon="-100.7470680">
        <ele>1985.4</ele>
        <time>2022-08-20T14:05:42Z</time>
      </trkpt>
      <trkpt lat="25.4946810" lon="-100.7470690">
        <ele>1985.8</ele>
        <time>2022-08-20T14:05:43Z</time>
      </trkpt>
      <trkpt lat="25.4947160" lon="-100.7470690">
        <ele>1986.2</ele>
        <time>2022-08-20T14:05:44Z</time>
      </trkpt>
      <trkpt lat="25.4947470" lon="-100.7470700">
        <ele>1986.5</ele>
        <time>2022-08-20T14:05:45Z</time>
      </trkpt>
      <trkpt lat="25.4947860" lon="-100.7470720">
        <ele>1986.9</ele>
        <time>2022-08-20T14:05:47Z</time>
      </trkpt>
      <trkpt lat="25.4948150" lon="-100.7470710">
        <ele>1987.2</ele>
        <time>2022-08-20T14:05:48Z</time>
      </trkpt>
      <trkpt lat="25.4948470" lon="-100.7470670">
        <ele>1987.6</ele>
        <time>2022-08-20T14:05:49Z</time>
      </trkpt>
      <trkpt lat="25.4948840" lon="-100.7470600">
        <ele>1988.1</ele>
        <time>2022-08-20T14:05:50Z</time>
      </trkpt>
      <trkpt lat="25.4948990" lon="-100.7470570">
        <ele>1988.3</ele>
        <time>2022-08-20T14:05:51Z</time>
      </trkpt>
      <trkpt lat="25.4949330" lon="-100.7470470">
        <ele>1988.7</ele>
        <time>2022-08-20T14:05:52Z</time>
      </trkpt>
      <trkpt lat="25.4949460" lon="-100.7470430">
        <ele>1988.9</ele>
        <time>2022-08-20T14:05:53Z</time>
      </trkpt>
      <trkpt lat="25.4949910" lon="-100.7470420">
        <ele>1989.5</ele>
        <time>2022-08-20T14:05:55Z</time>
      </trkpt>
      <trkpt lat="25.4950040" lon="-100.7470380">
        <ele>1989.7</ele>
        <time>2022-08-20T14:05:56Z</time>
      </trkpt>
      <trkpt lat="25.4950160" lon="-100.7470340">
        <ele>1989.9</ele>
        <time>2022-08-20T14:05:57Z</time>
      </trkpt>
      <trkpt lat="25.4950280" lon="-100.7470270">
        <ele>1990.0</ele>
        <time>2022-08-20T14:05:58Z</time>
      </trkpt>
      <trkpt lat="25.4950390" lon="-100.7470150">
        <ele>1990.3</ele>
        <time>2022-08-20T14:05:59Z</time>
      </trkpt>
      <trkpt lat="25.4950530" lon="-100.7470040">
        <ele>1990.5</ele>
        <time>2022-08-20T14:06:01Z</time>
      </trkpt>
      <trkpt lat="25.4950670" lon="-100.7469900">
        <ele>1990.8</ele>
        <time>2022-08-20T14:06:02Z</time>
      </trkpt>
      <trkpt lat="25.4950910" lon="-100.7469680">
        <ele>1991.2</ele>
        <time>2022-08-20T14:06:03Z</time>
      </trkpt>
      <trkpt lat="25.4951150" lon="-100.7469430">
        <ele>1991.7</ele>
        <time>2022-08-20T14:06:04Z</time>
      </trkpt>
      <trkpt lat="25.4951260" lon="-100.7469320">
        <ele>1991.9</ele>
        <time>2022-08-20T14:06:06Z</time>
      </trkpt>
      <trkpt lat="25.4951370" lon="-100.7469200">
        <ele>1992.1</ele>
        <time>2022-08-20T14:06:07Z</time>
      </trkpt>
      <trkpt lat="25.4951480" lon="-100.7469080">
        <ele>1992.3</ele>
        <time>2022-08-20T14:06:08Z</time>
      </trkpt>
      <trkpt lat="25.4951730" lon="-100.7468810">
        <ele>1992.8</ele>
        <time>2022-08-20T14:06:09Z</time>
      </trkpt>
      <trkpt lat="25.4951800" lon="-100.7468730">
        <ele>1992.9</ele>
        <time>2022-08-20T14:06:10Z</time>
      </trkpt>
      <trkpt lat="25.4951930" lon="-100.7468580">
        <ele>1993.2</ele>
        <time>2022-08-20T14:06:11Z</time>
      </trkpt>
      <trkpt lat="25.4952090" lon="-100.7468390">
        <ele>1993.5</ele>
        <time>2022-08-20T14:06:13Z</time>
      </trkpt>
      <trkpt lat="25.4952300" lon="-100.7468160">
        <ele>1993.9</ele>
        <time>2022-08-20T14:06:14Z</time>
      </trkpt>
      <trkpt lat="25.4952390" lon="-100.7468060">
        <ele>1994.1</ele>
        <time>2022-08-20T14:06:15Z</time>
      </trkpt>
      <trkpt lat="25.4952560" lon="-100.7467830">
        <ele>1994.4</ele>
        <time>2022-08-20T14:06:17Z</time>
      </trkpt>
      <trkpt lat="25.4952630" lon="-100.7467690">
        <ele>1994.6</ele>
        <time>2022-08-20T14:06:18Z</time>
      </trkpt>
      <trkpt lat="25.4952730" lon="-100.7467570">
        <ele>1994.8</ele>
        <time>2022-08-20T14:06:19Z</time>
      </trkpt>
      <trkpt lat="25.4952940" lon="-100.7467400">
        <ele>1995.1</ele>
        <time>2022-08-20T14:06:20Z</time>
      </trkpt>
      <trkpt lat="25.4953140" lon="-100.7467180">
        <ele>1995.4</ele>
        <time>2022-08-20T14:06:22Z</time>
      </trkpt>
      <trkpt lat="25.4953280" lon="-100.7467030">
        <ele>1995.7</ele>
        <time>2022-08-20T14:06:23Z</time>
      </trkpt>
      <trkpt lat="25.4953380" lon="-100.7466810">
        <ele>1995.9</ele>
        <time>2022-08-20T14:06:25Z</time>
      </trkpt>
      <trkpt lat="25.4953530" lon="-100.7466560">
        <ele>1996.2</ele>
        <time>2022-08-20T14:06:26Z</time>
      </trkpt>
      <trkpt lat="25.4953610" lon="-100.7466460">
        <ele>1996.4</ele>
        <time>2022-08-20T14:06:27Z</time>
      </trkpt>
      <trkpt lat="25.4953720" lon="-100.7466190">
        <ele>1996.6</ele>
        <time>2022-08-20T14:06:28Z</time>
      </trkpt>
      <trkpt lat="25.4953770" lon="-100.7466090">
        <ele>1996.8</ele>
        <time>2022-08-20T14:06:29Z</time>
      </trkpt>
      <trkpt lat="25.4953960" lon="-100.7465860">
        <ele>1997.0</ele>
        <time>2022-08-20T14:06:30Z</time>
      </trkpt>
      <trkpt lat="25.4954020" lon="-100.7465790">
        <ele>1997.1</ele>
        <time>2022-08-20T14:06:31Z</time>
      </trkpt>
      <trkpt lat="25.4954310" lon="-100.7465520">
        <ele>1997.5</ele>
        <time>2022-08-20T14:06:32Z</time>
      </trkpt>
      <trkpt lat="25.4954400" lon="-100.7465460">
        <ele>1997.6</ele>
        <time>2022-08-20T14:06:33Z</time>
      </trkpt>
      <trkpt lat="25.4954770" lon="-100.7465130">
        <ele>1998.1</ele>
        <time>2022-08-20T14:06:35Z</time>
      </trkpt>
      <trkpt lat="25.4954910" lon="-100.7464990">
        <ele>1998.2</ele>
        <time>2022-08-20T14:06:36Z</time>
      </trkpt>
      <trkpt lat="25.4955050" lon="-100.7464850">
        <ele>1998.4</ele>
        <time>2022-08-20T14:06:37Z</time>
      </trkpt>
      <trkpt lat="25.4955270" lon="-100.7464600">
        <ele>1998.7</ele>
        <time>2022-08-20T14:06:38Z</time>
      </trkpt>
      <trkpt lat="25.4955340" lon="-100.7464520">
        <ele>1998.8</ele>
        <time>2022-08-20T14:06:39Z</time>
      </trkpt>
      <trkpt lat="25.4955490" lon="-100.7464320">
        <ele>1998.9</ele>
        <time>2022-08-20T14:06:40Z</time>
      </trkpt>
      <trkpt lat="25.4955710" lon="-100.7464160">
        <ele>1999.1</ele>
        <time>2022-08-20T14:06:42Z</time>
      </trkpt>
      <trkpt lat="25.4955960" lon="-100.7463950">
        <ele>1999.3</ele>
        <time>2022-08-20T14:06:43Z</time>
      </trkpt>
      <trkpt lat="25.4956020" lon="-100.7463910">
        <ele>1999.3</ele>
        <time>2022-08-20T14:06:44Z</time>
      </trkpt>
      <trkpt lat="25.4956320" lon="-100.7463780">
        <ele>1999.5</ele>
        <time>2022-08-20T14:06:45Z</time>
      </trkpt>
      <trkpt lat="25.4956390" lon="-100.7463770">
        <ele>1999.5</ele>
        <time>2022-08-20T14:06:46Z</time>
      </trkpt>
      <trkpt lat="25.4956760" lon="-100.7463750">
        <ele>1999.6</ele>
        <time>2022-08-20T14:06:48Z</time>
      </trkpt>
      <trkpt lat="25.4956900" lon="-100.7463770">
        <ele>1999.7</ele>
        <time>2022-08-20T14:06:49Z</time>
      </trkpt>
      <trkpt lat="25.4957290" lon="-100.7463900">
        <ele>1999.7</ele>
        <time>2022-08-20T14:06:50Z</time>
      </trkpt>
      <trkpt lat="25.4957750" lon="-100.7464040">
        <ele>1999.8</ele>
        <time>2022-08-20T14:06:52Z</time>
      </trkpt>
      <trkpt lat="25.4958790" lon="-100.7464180">
        <ele>2000.0</ele>
        <time>2022-08-20T14:06:53Z</time>
      </trkpt>
      <trkpt lat="25.4959300" lon="-100.7464440">
        <ele>2000.1</ele>
        <time>2022-08-20T14:06:54Z</time>
      </trkpt>
      <trkpt lat="25.4959760" lon="-100.7464780">
        <ele>2000.3</ele>
        <time>2022-08-20T14:06:55Z</time>
      </trkpt>
      <trkpt lat="25.4960170" lon="-100.7465180">
        <ele>2000.6</ele>
        <time>2022-08-20T14:06:56Z</time>
      </trkpt>
      <trkpt lat="25.4960560" lon="-100.7465580">
        <ele>2000.9</ele>
        <time>2022-08-20T14:06:57Z</time>
      </trkpt>
      <trkpt lat="25.4960960" lon="-100.7465950">
        <ele>2001.2</ele>
        <time>2022-08-20T14:06:58Z</time>
      </trkpt>
      <trkpt lat="25.4961400" lon="-100.7466250">
        <ele>2001.6</ele>
        <time>2022-08-20T14:06:59Z</time>
      </trkpt>
      <trkpt lat="25.4961860" lon="-100.7466510">
        <ele>2002.0</ele>
        <time>2022-08-20T14:07:00Z</time>
      </trkpt>
      <trkpt lat="25.4962360" lon="-100.7466690">
        <ele>2002.3</ele>
        <time>2022-08-20T14:07:01Z</time>
      </trkpt>
      <trkpt lat="25.4962880" lon="-100.7466790">
        <ele>2002.6</ele>
        <time>2022-08-20T14:07:02Z</time>
      </trkpt>
      <trkpt lat="25.4963450" lon="-100.7466760">
        <ele>2002.9</ele>
        <time>2022-08-20T14:07:03Z</time>
      </trkpt>
      <trkpt lat="25.4963990" lon="-100.7466610">
        <ele>2003.1</ele>
        <time>2022-08-20T14:07:04Z</time>
      </trkpt>
      <trkpt lat="25.4964490" lon="-100.7466400">
        <ele>2003.1</ele>
        <time>2022-08-20T14:07:05Z</time>
      </trkpt>
      <trkpt lat="25.4964980" lon="-100.7466150">
        <ele>2003.1</ele>
        <time>2022-08-20T14:07:06Z</time>
      </trkpt>
      <trkpt lat="25.4965430" lon="-100.7465840">
        <ele>2003.1</ele>
        <time>2022-08-20T14:07:07Z</time>
      </trkpt>
      <trkpt lat="25.4965870" lon="-100.7465510">
        <ele>2002.9</ele>
        <time>2022-08-20T14:07:08Z</time>
      </trkpt>
      <trkpt lat="25.4966330" lon="-100.7465190">
        <ele>2002.8</ele>
        <time>2022-08-20T14:07:09Z</time>
      </trkpt>
      <trkpt lat="25.4966750" lon="-100.7464870">
        <ele>2002.6</ele>
        <time>2022-08-20T14:07:10Z</time>
      </trkpt>
      <trkpt lat="25.4967150" lon="-100.7464550">
        <ele>2002.4</ele>
        <time>2022-08-20T14:07:11Z</time>
      </trkpt>
      <trkpt lat="25.4967560" lon="-100.7464270">
        <ele>2002.3</ele>
        <time>2022-08-20T14:07:12Z</time>
      </trkpt>
      <trkpt lat="25.4968000" lon="-100.7463980">
        <ele>2002.1</ele>
        <time>2022-08-20T14:07:13Z</time>
      </trkpt>
      <trkpt lat="25.4968460" lon="-100.7463690">
        <ele>2001.9</ele>
        <time>2022-08-20T14:07:14Z</time>
      </trkpt>
      <trkpt lat="25.4968950" lon="-100.7463380">
        <ele>2001.7</ele>
        <time>2022-08-20T14:07:15Z</time>
      </trkpt>
      <trkpt lat="25.4969480" lon="-100.7463090">
        <ele>2001.5</ele>
        <time>2022-08-20T14:07:16Z</time>
      </trkpt>
      <trkpt lat="25.4970050" lon="-100.7462830">
        <ele>2001.3</ele>
        <time>2022-08-20T14:07:17Z</time>
      </trkpt>
      <trkpt lat="25.4970630" lon="-100.7462610">
        <ele>2001.2</ele>
        <time>2022-08-20T14:07:18Z</time>
      </trkpt>
      <trkpt lat="25.4971190" lon="-100.7462390">
        <ele>2001.2</ele>
        <time>2022-08-20T14:07:19Z</time>
      </trkpt>
      <trkpt lat="25.4971750" lon="-100.7462170">
        <ele>2001.3</ele>
        <time>2022-08-20T14:07:20Z</time>
      </trkpt>
      <trkpt lat="25.4972270" lon="-100.7461940">
        <ele>2001.5</ele>
        <time>2022-08-20T14:07:21Z</time>
      </trkpt>
      <trkpt lat="25.4972750" lon="-100.7461680">
        <ele>2001.7</ele>
        <time>2022-08-20T14:07:22Z</time>
      </trkpt>
      <trkpt lat="25.4973140" lon="-100.7461370">
        <ele>2001.9</ele>
        <time>2022-08-20T14:07:23Z</time>
      </trkpt>
      <trkpt lat="25.4973450" lon="-100.7461020">
        <ele>2002.1</ele>
        <time>2022-08-20T14:07:24Z</time>
      </trkpt>
      <trkpt lat="25.4973660" lon="-100.7460750">
        <ele>2002.2</ele>
        <time>2022-08-20T14:07:25Z</time>
      </trkpt>
      <trkpt lat="25.4974000" lon="-100.7460460">
        <ele>2002.4</ele>
        <time>2022-08-20T14:07:26Z</time>
      </trkpt>
      <trkpt lat="25.4974430" lon="-100.7460210">
        <ele>2002.5</ele>
        <time>2022-08-20T14:07:27Z</time>
      </trkpt>
      <trkpt lat="25.4974900" lon="-100.7460020">
        <ele>2002.7</ele>
        <time>2022-08-20T14:07:28Z</time>
      </trkpt>
      <trkpt lat="25.4975250" lon="-100.7459950">
        <ele>2002.9</ele>
        <time>2022-08-20T14:07:29Z</time>
      </trkpt>
      <trkpt lat="25.4975630" lon="-100.7459880">
        <ele>2003.1</ele>
        <time>2022-08-20T14:07:30Z</time>
      </trkpt>
      <trkpt lat="25.4976110" lon="-100.7459790">
        <ele>2003.4</ele>
        <time>2022-08-20T14:07:31Z</time>
      </trkpt>
      <trkpt lat="25.4976320" lon="-100.7460020">
        <ele>2003.6</ele>
        <time>2022-08-20T14:07:32Z</time>
      </trkpt>
      <trkpt lat="25.4976510" lon="-100.7459970">
        <ele>2003.7</ele>
        <time>2022-08-20T14:07:33Z</time>
      </trkpt>
      <trkpt lat="25.4976870" lon="-100.7459830">
        <ele>2004.0</ele>
        <time>2022-08-20T14:07:34Z</time>
      </trkpt>
      <trkpt lat="25.4977180" lon="-100.7459710">
        <ele>2004.2</ele>
        <time>2022-08-20T14:07:35Z</time>
      </trkpt>
      <trkpt lat="25.4977590" lon="-100.7459590">
        <ele>2004.5</ele>
        <time>2022-08-20T14:07:37Z</time>
      </trkpt>
      <trkpt lat="25.4977900" lon="-100.7459570">
        <ele>2004.7</ele>
        <time>2022-08-20T14:07:38Z</time>
      </trkpt>
      <trkpt lat="25.4978200" lon="-100.7459600">
        <ele>2004.9</ele>
        <time>2022-08-20T14:07:39Z</time>
      </trkpt>
      <trkpt lat="25.4978540" lon="-100.7459650">
        <ele>2005.1</ele>
        <time>2022-08-20T14:07:40Z</time>
      </trkpt>
      <trkpt lat="25.4978960" lon="-100.7459800">
        <ele>2005.3</ele>
        <time>2022-08-20T14:07:41Z</time>
      </trkpt>
      <trkpt lat="25.4979300" lon="-100.7460040">
        <ele>2005.5</ele>
        <time>2022-08-20T14:07:42Z</time>
      </trkpt>
      <trkpt lat="25.4979630" lon="-100.7460340">
        <ele>2005.7</ele>
        <time>2022-08-20T14:07:43Z</time>
      </trkpt>
      <trkpt lat="25.4979960" lon="-100.7460570">
        <ele>2005.8</ele>
        <time>2022-08-20T14:07:45Z</time>
      </trkpt>
      <trkpt lat="25.4980320" lon="-100.7460810">
        <ele>2006.0</ele>
        <time>2022-08-20T14:07:46Z</time>
      </trkpt>
      <trkpt lat="25.4980670" lon="-100.7461020">
        <ele>2006.2</ele>
        <time>2022-08-20T14:07:47Z</time>
      </trkpt>
      <trkpt lat="25.4981030" lon="-100.7461210">
        <ele>2006.3</ele>
        <time>2022-08-20T14:07:48Z</time>
      </trkpt>
      <trkpt lat="25.4981770" lon="-100.7461320">
        <ele>2006.6</ele>
        <time>2022-08-20T14:07:50Z</time>
      </trkpt>
      <trkpt lat="25.4982120" lon="-100.7461310">
        <ele>2006.7</ele>
        <time>2022-08-20T14:07:52Z</time>
      </trkpt>
      <trkpt lat="25.4982430" lon="-100.7461310">
        <ele>2006.7</ele>
        <time>2022-08-20T14:07:53Z</time>
      </trkpt>
      <trkpt lat="25.4982820" lon="-100.7461220">
        <ele>2006.8</ele>
        <time>2022-08-20T14:07:54Z</time>
      </trkpt>
      <trkpt lat="25.4983220" lon="-100.7460990">
        <ele>2006.8</ele>
        <time>2022-08-20T14:07:55Z</time>
      </trkpt>
      <trkpt lat="25.4983270" lon="-100.7460900">
        <ele>2006.8</ele>
        <time>2022-08-20T14:07:57Z</time>
      </trkpt>
      <trkpt lat="25.4983310" lon="-100.7460820">
        <ele>2006.8</ele>
        <time>2022-08-20T14:07:58Z</time>
      </trkpt>
      <trkpt lat="25.4983380" lon="-100.7460680">
        <ele>2006.8</ele>
        <time>2022-08-20T14:07:59Z</time>
      </trkpt>
      <trkpt lat="25.4983820" lon="-100.7460080">
        <ele>2006.8</ele>
        <time>2022-08-20T14:08:01Z</time>
      </trkpt>
      <trkpt lat="25.4984510" lon="-100.7459140">
        <ele>2006.8</ele>
        <time>2022-08-20T14:08:02Z</time>
      </trkpt>
      <trkpt lat="25.4984710" lon="-100.7458840">
        <ele>2006.8</ele>
        <time>2022-08-20T14:08:03Z</time>
      </trkpt>
      <trkpt lat="25.4984920" lon="-100.7458500">
        <ele>2006.9</ele>
        <time>2022-08-20T14:08:05Z</time>
      </trkpt>
      <trkpt lat="25.4985080" lon="-100.7458220">
        <ele>2007.0</ele>
        <time>2022-08-20T14:08:06Z</time>
      </trkpt>
      <trkpt lat="25.4985250" lon="-100.7457850">
        <ele>2007.1</ele>
        <time>2022-08-20T14:08:07Z</time>
      </trkpt>
      <trkpt lat="25.4985410" lon="-100.7457390">
        <ele>2007.2</ele>
        <time>2022-08-20T14:08:08Z</time>
      </trkpt>
      <trkpt lat="25.4985460" lon="-100.7457180">
        <ele>2007.3</ele>
        <time>2022-08-20T14:08:09Z</time>
      </trkpt>
      <trkpt lat="25.4985530" lon="-100.7456810">
        <ele>2007.5</ele>
        <time>2022-08-20T14:08:10Z</time>
      </trkpt>
      <trkpt lat="25.4985560" lon="-100.7456670">
        <ele>2007.5</ele>
        <time>2022-08-20T14:08:11Z</time>
      </trkpt>
      <trkpt lat="25.4985600" lon="-100.7456400">
        <ele>2007.7</ele>
        <time>2022-08-20T14:08:12Z</time>
      </trkpt>
      <trkpt lat="25.4985610" lon="-100.7456170">
        <ele>2007.8</ele>
        <time>2022-08-20T14:08:14Z</time>
      </trkpt>
      <trkpt lat="25.4985590" lon="-100.7455850">
        <ele>2008.0</ele>
        <time>2022-08-20T14:08:15Z</time>
      </trkpt>
      <trkpt lat="25.4985580" lon="-100.7455750">
        <ele>2008.1</ele>
        <time>2022-08-20T14:08:16Z</time>
      </trkpt>
      <trkpt lat="25.4985550" lon="-100.7455350">
        <ele>2008.4</ele>
        <time>2022-08-20T14:08:17Z</time>
      </trkpt>
      <trkpt lat="25.4985460" lon="-100.7454780">
        <ele>2008.9</ele>
        <time>2022-08-20T14:08:19Z</time>
      </trkpt>
      <trkpt lat="25.4985430" lon="-100.7454600">
        <ele>2009.1</ele>
        <time>2022-08-20T14:08:20Z</time>
      </trkpt>
      <trkpt lat="25.4985390" lon="-100.7454410">
        <ele>2009.2</ele>
        <time>2022-08-20T14:08:21Z</time>
      </trkpt>
      <trkpt lat="25.4985340" lon="-100.7454140">
        <ele>2009.5</ele>
        <time>2022-08-20T14:08:22Z</time>
      </trkpt>
      <trkpt lat="25.4985330" lon="-100.7454070">
        <ele>2009.6</ele>
        <time>2022-08-20T14:08:23Z</time>
      </trkpt>
      <trkpt lat="25.4985330" lon="-100.7454000">
        <ele>2009.7</ele>
        <time>2022-08-20T14:08:24Z</time>
      </trkpt>
      <trkpt lat="25.4985280" lon="-100.7453690">
        <ele>2010.0</ele>
        <time>2022-08-20T14:08:25Z</time>
      </trkpt>
      <trkpt lat="25.4985270" lon="-100.7453600">
        <ele>2010.1</ele>
        <time>2022-08-20T14:08:26Z</time>
      </trkpt>
      <trkpt lat="25.4985240" lon="-100.7453290">
        <ele>2010.4</ele>
        <time>2022-08-20T14:08:27Z</time>
      </trkpt>
      <trkpt lat="25.4985220" lon="-100.7453150">
        <ele>2010.6</ele>
        <time>2022-08-20T14:08:28Z</time>
      </trkpt>
      <trkpt lat="25.4985150" lon="-100.7452590">
        <ele>2011.2</ele>
        <time>2022-08-20T14:08:30Z</time>
      </trkpt>
      <trkpt lat="25.4985130" lon="-100.7452420">
        <ele>2011.4</ele>
        <time>2022-08-20T14:08:31Z</time>
      </trkpt>
      <trkpt lat="25.4985100" lon="-100.7452260">
        <ele>2011.6</ele>
        <time>2022-08-20T14:08:32Z</time>
      </trkpt>
      <trkpt lat="25.4985070" lon="-100.7451900">
        <ele>2012.0</ele>
        <time>2022-08-20T14:08:33Z</time>
      </trkpt>
      <trkpt lat="25.4985090" lon="-100.7451490">
        <ele>2012.4</ele>
        <time>2022-08-20T14:08:34Z</time>
      </trkpt>
      <trkpt lat="25.4985100" lon="-100.7451360">
        <ele>2012.5</ele>
        <time>2022-08-20T14:08:35Z</time>
      </trkpt>
      <trkpt lat="25.4985130" lon="-100.7451040">
        <ele>2012.8</ele>
        <time>2022-08-20T14:08:37Z</time>
      </trkpt>
      <trkpt lat="25.4985090" lon="-100.7450690">
        <ele>2013.1</ele>
        <time>2022-08-20T14:08:38Z</time>
      </trkpt>
      <trkpt lat="25.4985050" lon="-100.7450240">
        <ele>2013.4</ele>
        <time>2022-08-20T14:08:40Z</time>
      </trkpt>
      <trkpt lat="25.4985060" lon="-100.7449850">
        <ele>2013.7</ele>
        <time>2022-08-20T14:08:41Z</time>
      </trkpt>
      <trkpt lat="25.4985080" lon="-100.7449730">
        <ele>2013.8</ele>
        <time>2022-08-20T14:08:42Z</time>
      </trkpt>
      <trkpt lat="25.4985180" lon="-100.7449310">
        <ele>2014.0</ele>
        <time>2022-08-20T14:08:43Z</time>
      </trkpt>
      <trkpt lat="25.4985230" lon="-100.7449150">
        <ele>2014.1</ele>
        <time>2022-08-20T14:08:44Z</time>
      </trkpt>
      <trkpt lat="25.4985310" lon="-100.7448820">
        <ele>2014.3</ele>
        <time>2022-08-20T14:08:45Z</time>
      </trkpt>
      <trkpt lat="25.4985530" lon="-100.7448360">
        <ele>2014.4</ele>
        <time>2022-08-20T14:08:46Z</time>
      </trkpt>
      <trkpt lat="25.4986140" lon="-100.7447230">
        <ele>2014.6</ele>
        <time>2022-08-20T14:08:48Z</time>
      </trkpt>
      <trkpt lat="25.4986490" lon="-100.7446580">
        <ele>2014.7</ele>
        <time>2022-08-20T14:08:49Z</time>
      </trkpt>
      <trkpt lat="25.4986690" lon="-100.7446320">
        <ele>2014.7</ele>
        <time>2022-08-20T14:08:51Z</time>
      </trkpt>
      <trkpt lat="25.4987020" lon="-100.7446020">
        <ele>2014.7</ele>
        <time>2022-08-20T14:08:52Z</time>
      </trkpt>
      <trkpt lat="25.4987270" lon="-100.7445860">
        <ele>2014.7</ele>
        <time>2022-08-20T14:08:53Z</time>
      </trkpt>
      <trkpt lat="25.4987700" lon="-100.7445560">
        <ele>2014.7</ele>
        <time>2022-08-20T14:08:55Z</time>
      </trkpt>
      <trkpt lat="25.4987920" lon="-100.7445340">
        <ele>2014.8</ele>
        <time>2022-08-20T14:08:56Z</time>
      </trkpt>
      <trkpt lat="25.4988420" lon="-100.7444900">
        <ele>2014.8</ele>
        <time>2022-08-20T14:08:57Z</time>
      </trkpt>
      <trkpt lat="25.4988660" lon="-100.7444670">
        <ele>2014.9</ele>
        <time>2022-08-20T14:08:58Z</time>
      </trkpt>
      <trkpt lat="25.4989090" lon="-100.7444260">
        <ele>2015.0</ele>
        <time>2022-08-20T14:09:00Z</time>
      </trkpt>
      <trkpt lat="25.4989400" lon="-100.7443990">
        <ele>2015.1</ele>
        <time>2022-08-20T14:09:01Z</time>
      </trkpt>
      <trkpt lat="25.4989720" lon="-100.7443690">
        <ele>2015.2</ele>
        <time>2022-08-20T14:09:02Z</time>
      </trkpt>
      <trkpt lat="25.4990150" lon="-100.7443340">
        <ele>2015.4</ele>
        <time>2022-08-20T14:09:03Z</time>
      </trkpt>
      <trkpt lat="25.4990820" lon="-100.7442900">
        <ele>2015.6</ele>
        <time>2022-08-20T14:09:04Z</time>
      </trkpt>
      <trkpt lat="25.4991390" lon="-100.7442630">
        <ele>2015.8</ele>
        <time>2022-08-20T14:09:06Z</time>
      </trkpt>
      <trkpt lat="25.4992210" lon="-100.7442060">
        <ele>2016.1</ele>
        <time>2022-08-20T14:09:07Z</time>
      </trkpt>
      <trkpt lat="25.4992660" lon="-100.7441860">
        <ele>2016.3</ele>
        <time>2022-08-20T14:09:08Z</time>
      </trkpt>
      <trkpt lat="25.4993110" lon="-100.7441630">
        <ele>2016.5</ele>
        <time>2022-08-20T14:09:09Z</time>
      </trkpt>
      <trkpt lat="25.4993370" lon="-100.7441490">
        <ele>2016.6</ele>
        <time>2022-08-20T14:09:10Z</time>
      </trkpt>
      <trkpt lat="25.4993630" lon="-100.7441350">
        <ele>2016.8</ele>
        <time>2022-08-20T14:09:11Z</time>
      </trkpt>
      <trkpt lat="25.4993900" lon="-100.7441210">
        <ele>2016.9</ele>
        <time>2022-08-20T14:09:12Z</time>
      </trkpt>
      <trkpt lat="25.4994160" lon="-100.7441070">
        <ele>2017.1</ele>
        <time>2022-08-20T14:09:14Z</time>
      </trkpt>
      <trkpt lat="25.4995300" lon="-100.7440770">
        <ele>2017.9</ele>
        <time>2022-08-20T14:09:16Z</time>
      </trkpt>
      <trkpt lat="25.4996000" lon="-100.7440670">
        <ele>2018.4</ele>
        <time>2022-08-20T14:09:17Z</time>
      </trkpt>
      <trkpt lat="25.4996670" lon="-100.7440700">
        <ele>2018.8</ele>
        <time>2022-08-20T14:09:18Z</time>
      </trkpt>
      <trkpt lat="25.4997340" lon="-100.7440790">
        <ele>2019.1</ele>
        <time>2022-08-20T14:09:19Z</time>
      </trkpt>
      <trkpt lat="25.4997930" lon="-100.7440880">
        <ele>2019.3</ele>
        <time>2022-08-20T14:09:20Z</time>
      </trkpt>
      <trkpt lat="25.4998520" lon="-100.7441000">
        <ele>2019.3</ele>
        <time>2022-08-20T14:09:21Z</time>
      </trkpt>
      <trkpt lat="25.4999100" lon="-100.7441120">
        <ele>2019.4</ele>
        <time>2022-08-20T14:09:22Z</time>
      </trkpt>
      <trkpt lat="25.4999660" lon="-100.7441220">
        <ele>2019.5</ele>
        <time>2022-08-20T14:09:23Z</time>
      </trkpt>
      <trkpt lat="25.5000210" lon="-100.7441300">
        <ele>2019.5</ele>
        <time>2022-08-20T14:09:24Z</time>
      </trkpt>
      <trkpt lat="25.5000770" lon="-100.7441330">
        <ele>2019.6</ele>
        <time>2022-08-20T14:09:25Z</time>
      </trkpt>
      <trkpt lat="25.5001300" lon="-100.7441370">
        <ele>2019.7</ele>
        <time>2022-08-20T14:09:26Z</time>
      </trkpt>
      <trkpt lat="25.5001820" lon="-100.7441390">
        <ele>2019.8</ele>
        <time>2022-08-20T14:09:27Z</time>
      </trkpt>
      <trkpt lat="25.5002310" lon="-100.7441380">
        <ele>2019.9</ele>
        <time>2022-08-20T14:09:28Z</time>
      </trkpt>
      <trkpt lat="25.5002790" lon="-100.7441350">
        <ele>2020.1</ele>
        <time>2022-08-20T14:09:29Z</time>
      </trkpt>
      <trkpt lat="25.5003110" lon="-100.7441340">
        <ele>2020.2</ele>
        <time>2022-08-20T14:09:30Z</time>
      </trkpt>
      <trkpt lat="25.5003530" lon="-100.7441370">
        <ele>2020.4</ele>
        <time>2022-08-20T14:09:31Z</time>
      </trkpt>
      <trkpt lat="25.5004060" lon="-100.7441470">
        <ele>2020.6</ele>
        <time>2022-08-20T14:09:32Z</time>
      </trkpt>
      <trkpt lat="25.5004580" lon="-100.7441600">
        <ele>2021.0</ele>
        <time>2022-08-20T14:09:33Z</time>
      </trkpt>
      <trkpt lat="25.5005080" lon="-100.7441690">
        <ele>2021.4</ele>
        <time>2022-08-20T14:09:34Z</time>
      </trkpt>
      <trkpt lat="25.5005430" lon="-100.7441650">
        <ele>2021.7</ele>
        <time>2022-08-20T14:09:35Z</time>
      </trkpt>
      <trkpt lat="25.5005380" lon="-100.7441310">
        <ele>2022.0</ele>
        <time>2022-08-20T14:09:36Z</time>
      </trkpt>
      <trkpt lat="25.5006170" lon="-100.7441350">
        <ele>2022.9</ele>
        <time>2022-08-20T14:09:38Z</time>
      </trkpt>
      <trkpt lat="25.5006610" lon="-100.7441410">
        <ele>2023.3</ele>
        <time>2022-08-20T14:09:39Z</time>
      </trkpt>
      <trkpt lat="25.5007410" lon="-100.7441520">
        <ele>2024.2</ele>
        <time>2022-08-20T14:09:40Z</time>
      </trkpt>
      <trkpt lat="25.5008160" lon="-100.7441660">
        <ele>2024.9</ele>
        <time>2022-08-20T14:09:41Z</time>
      </trkpt>
      <trkpt lat="25.5008870" lon="-100.7441760">
        <ele>2025.4</ele>
        <time>2022-08-20T14:09:42Z</time>
      </trkpt>
      <trkpt lat="25.5009550" lon="-100.7441830">
        <ele>2025.7</ele>
        <time>2022-08-20T14:09:43Z</time>
      </trkpt>
      <trkpt lat="25.5010180" lon="-100.7441860">
        <ele>2025.9</ele>
        <time>2022-08-20T14:09:44Z</time>
      </trkpt>
      <trkpt lat="25.5010870" lon="-100.7441880">
        <ele>2026.0</ele>
        <time>2022-08-20T14:09:45Z</time>
      </trkpt>
      <trkpt lat="25.5011560" lon="-100.7441880">
        <ele>2025.9</ele>
        <time>2022-08-20T14:09:46Z</time>
      </trkpt>
      <trkpt lat="25.5012280" lon="-100.7441890">
        <ele>2025.7</ele>
        <time>2022-08-20T14:09:47Z</time>
      </trkpt>
      <trkpt lat="25.5013020" lon="-100.7441830">
        <ele>2025.4</ele>
        <time>2022-08-20T14:09:48Z</time>
      </trkpt>
      <trkpt lat="25.5013790" lon="-100.7441660">
        <ele>2025.2</ele>
        <time>2022-08-20T14:09:49Z</time>
      </trkpt>
      <trkpt lat="25.5014580" lon="-100.7441380">
        <ele>2024.9</ele>
        <time>2022-08-20T14:09:50Z</time>
      </trkpt>
      <trkpt lat="25.5015370" lon="-100.7440970">
        <ele>2024.8</ele>
        <time>2022-08-20T14:09:51Z</time>
      </trkpt>
      <trkpt lat="25.5016140" lon="-100.7440470">
        <ele>2024.6</ele>
        <time>2022-08-20T14:09:52Z</time>
      </trkpt>
      <trkpt lat="25.5016890" lon="-100.7439950">
        <ele>2024.5</ele>
        <time>2022-08-20T14:09:53Z</time>
      </trkpt>
      <trkpt lat="25.5017630" lon="-100.7439420">
        <ele>2024.5</ele>
        <time>2022-08-20T14:09:54Z</time>
      </trkpt>
      <trkpt lat="25.5018350" lon="-100.7438880">
        <ele>2024.4</ele>
        <time>2022-08-20T14:09:55Z</time>
      </trkpt>
      <trkpt lat="25.5019000" lon="-100.7438340">
        <ele>2024.5</ele>
        <time>2022-08-20T14:09:56Z</time>
      </trkpt>
      <trkpt lat="25.5019640" lon="-100.7437770">
        <ele>2024.6</ele>
        <time>2022-08-20T14:09:57Z</time>
      </trkpt>
      <trkpt lat="25.5020270" lon="-100.7437220">
        <ele>2024.7</ele>
        <time>2022-08-20T14:09:58Z</time>
      </trkpt>
      <trkpt lat="25.5020900" lon="-100.7436720">
        <ele>2024.9</ele>
        <time>2022-08-20T14:09:59Z</time>
      </trkpt>
      <trkpt lat="25.5021550" lon="-100.7436260">
        <ele>2025.1</ele>
        <time>2022-08-20T14:10:00Z</time>
      </trkpt>
      <trkpt lat="25.5022210" lon="-100.7435810">
        <ele>2025.2</ele>
        <time>2022-08-20T14:10:01Z</time>
      </trkpt>
      <trkpt lat="25.5022870" lon="-100.7435380">
        <ele>2025.4</ele>
        <time>2022-08-20T14:10:02Z</time>
      </trkpt>
      <trkpt lat="25.5023510" lon="-100.7434960">
        <ele>2025.5</ele>
        <time>2022-08-20T14:10:03Z</time>
      </trkpt>
      <trkpt lat="25.5024150" lon="-100.7434540">
        <ele>2025.7</ele>
        <time>2022-08-20T14:10:04Z</time>
      </trkpt>
      <trkpt lat="25.5024790" lon="-100.7434160">
        <ele>2025.8</ele>
        <time>2022-08-20T14:10:05Z</time>
      </trkpt>
      <trkpt lat="25.5025440" lon="-100.7433790">
        <ele>2025.9</ele>
        <time>2022-08-20T14:10:06Z</time>
      </trkpt>
      <trkpt lat="25.5026090" lon="-100.7433460">
        <ele>2026.0</ele>
        <time>2022-08-20T14:10:07Z</time>
      </trkpt>
      <trkpt lat="25.5026750" lon="-100.7433170">
        <ele>2026.0</ele>
        <time>2022-08-20T14:10:08Z</time>
      </trkpt>
      <trkpt lat="25.5027410" lon="-100.7432960">
        <ele>2026.0</ele>
        <time>2022-08-20T14:10:09Z</time>
      </trkpt>
      <trkpt lat="25.5028100" lon="-100.7432810">
        <ele>2025.9</ele>
        <time>2022-08-20T14:10:10Z</time>
      </trkpt>
      <trkpt lat="25.5028760" lon="-100.7432650">
        <ele>2025.9</ele>
        <time>2022-08-20T14:10:11Z</time>
      </trkpt>
      <trkpt lat="25.5029380" lon="-100.7432390">
        <ele>2025.9</ele>
        <time>2022-08-20T14:10:12Z</time>
      </trkpt>
      <trkpt lat="25.5029920" lon="-100.7432000">
        <ele>2026.0</ele>
        <time>2022-08-20T14:10:13Z</time>
      </trkpt>
      <trkpt lat="25.5030340" lon="-100.7431460">
        <ele>2026.1</ele>
        <time>2022-08-20T14:10:14Z</time>
      </trkpt>
      <trkpt lat="25.5030630" lon="-100.7430820">
        <ele>2026.4</ele>
        <time>2022-08-20T14:10:15Z</time>
      </trkpt>
      <trkpt lat="25.5030820" lon="-100.7430130">
        <ele>2026.8</ele>
        <time>2022-08-20T14:10:16Z</time>
      </trkpt>
      <trkpt lat="25.5030930" lon="-100.7429470">
        <ele>2027.2</ele>
        <time>2022-08-20T14:10:17Z</time>
      </trkpt>
      <trkpt lat="25.5031030" lon="-100.7428910">
        <ele>2027.7</ele>
        <time>2022-08-20T14:10:18Z</time>
      </trkpt>
      <trkpt lat="25.5031130" lon="-100.7428470">
        <ele>2028.1</ele>
        <time>2022-08-20T14:10:19Z</time>
      </trkpt>
      <trkpt lat="25.5031220" lon="-100.7428170">
        <ele>2028.4</ele>
        <time>2022-08-20T14:10:20Z</time>
      </trkpt>
      <trkpt lat="25.5031380" lon="-100.7427790">
        <ele>2028.8</ele>
        <time>2022-08-20T14:10:21Z</time>
      </trkpt>
      <trkpt lat="25.5031450" lon="-100.7427680">
        <ele>2028.9</ele>
        <time>2022-08-20T14:10:22Z</time>
      </trkpt>
      <trkpt lat="25.5031640" lon="-100.7427340">
        <ele>2029.3</ele>
        <time>2022-08-20T14:10:23Z</time>
      </trkpt>
      <trkpt lat="25.5031700" lon="-100.7427240">
        <ele>2029.4</ele>
        <time>2022-08-20T14:10:24Z</time>
      </trkpt>
      <trkpt lat="25.5031800" lon="-100.7427030">
        <ele>2029.7</ele>
        <time>2022-08-20T14:10:25Z</time>
      </trkpt>
      <trkpt lat="25.5031880" lon="-100.7426900">
        <ele>2029.8</ele>
        <time>2022-08-20T14:10:26Z</time>
      </trkpt>
      <trkpt lat="25.5032060" lon="-100.7426900">
        <ele>2030.0</ele>
        <time>2022-08-20T14:10:27Z</time>
      </trkpt>
      <trkpt lat="25.5032160" lon="-100.7426810">
        <ele>2030.2</ele>
        <time>2022-08-20T14:10:28Z</time>
      </trkpt>
      <trkpt lat="25.5032270" lon="-100.7426720">
        <ele>2030.3</ele>
        <time>2022-08-20T14:10:29Z</time>
      </trkpt>
      <trkpt lat="25.5032530" lon="-100.7426380">
        <ele>2030.8</ele>
        <time>2022-08-20T14:10:30Z</time>
      </trkpt>
      <trkpt lat="25.5032790" lon="-100.7425980">
        <ele>2031.2</ele>
        <time>2022-08-20T14:10:32Z</time>
      </trkpt>
      <trkpt lat="25.5033020" lon="-100.7425620">
        <ele>2031.6</ele>
        <time>2022-08-20T14:10:33Z</time>
      </trkpt>
      <trkpt lat="25.5033250" lon="-100.7425210">
        <ele>2031.9</ele>
        <time>2022-08-20T14:10:34Z</time>
      </trkpt>
      <trkpt lat="25.5033440" lon="-100.7424910">
        <ele>2032.2</ele>
        <time>2022-08-20T14:10:35Z</time>
      </trkpt>
      <trkpt lat="25.5033650" lon="-100.7424610">
        <ele>2032.5</ele>
        <time>2022-08-20T14:10:36Z</time>
      </trkpt>
      <trkpt lat="25.5033870" lon="-100.7424330">
        <ele>2032.8</ele>
        <time>2022-08-20T14:10:37Z</time>
      </trkpt>
      <trkpt lat="25.5033890" lon="-100.7424250">
        <ele>2032.9</ele>
        <time>2022-08-20T14:10:38Z</time>
      </trkpt>
      <trkpt lat="25.5033980" lon="-100.7424090">
        <ele>2033.0</ele>
        <time>2022-08-20T14:10:39Z</time>
      </trkpt>
      <trkpt lat="25.5034060" lon="-100.7423970">
        <ele>2033.1</ele>
        <time>2022-08-20T14:10:41Z</time>
      </trkpt>
      <trkpt lat="25.5034170" lon="-100.7423830">
        <ele>2033.3</ele>
        <time>2022-08-20T14:10:42Z</time>
      </trkpt>
      <trkpt lat="25.5034260" lon="-100.7423680">
        <ele>2033.4</ele>
        <time>2022-08-20T14:10:43Z</time>
      </trkpt>
      <trkpt lat="25.5034440" lon="-100.7423390">
        <ele>2033.7</ele>
        <time>2022-08-20T14:10:44Z</time>
      </trkpt>
      <trkpt lat="25.5034610" lon="-100.7423090">
        <ele>2034.0</ele>
        <time>2022-08-20T14:10:46Z</time>
      </trkpt>
      <trkpt lat="25.5034750" lon="-100.7422820">
        <ele>2034.3</ele>
        <time>2022-08-20T14:10:47Z</time>
      </trkpt>
      <trkpt lat="25.5034910" lon="-100.7422520">
        <ele>2034.6</ele>
        <time>2022-08-20T14:10:48Z</time>
      </trkpt>
      <trkpt lat="25.5035040" lon="-100.7422230">
        <ele>2034.8</ele>
        <time>2022-08-20T14:10:49Z</time>
      </trkpt>
      <trkpt lat="25.5035200" lon="-100.7421800">
        <ele>2035.2</ele>
        <time>2022-08-20T14:10:50Z</time>
      </trkpt>
      <trkpt lat="25.5035340" lon="-100.7421450">
        <ele>2035.5</ele>
        <time>2022-08-20T14:10:51Z</time>
      </trkpt>
      <trkpt lat="25.5035460" lon="-100.7421140">
        <ele>2035.8</ele>
        <time>2022-08-20T14:10:52Z</time>
      </trkpt>
      <trkpt lat="25.5035540" lon="-100.7420870">
        <ele>2036.0</ele>
        <time>2022-08-20T14:10:53Z</time>
      </trkpt>
      <trkpt lat="25.5035570" lon="-100.7420450">
        <ele>2036.3</ele>
        <time>2022-08-20T14:10:55Z</time>
      </trkpt>
      <trkpt lat="25.5035550" lon="-100.7419910">
        <ele>2036.8</ele>
        <time>2022-08-20T14:10:56Z</time>
      </trkpt>
      <trkpt lat="25.5035550" lon="-100.7419660">
        <ele>2037.0</ele>
        <time>2022-08-20T14:10:57Z</time>
      </trkpt>
      <trkpt lat="25.5035600" lon="-100.7419220">
        <ele>2037.4</ele>
        <time>2022-08-20T14:10:59Z</time>
      </trkpt>
      <trkpt lat="25.5035610" lon="-100.7419060">
        <ele>2037.6</ele>
        <time>2022-08-20T14:11:00Z</time>
      </trkpt>
      <trkpt lat="25.5035620" lon="-100.7418600">
        <ele>2038.1</ele>
        <time>2022-08-20T14:11:01Z</time>
      </trkpt>
      <trkpt lat="25.5035810" lon="-100.7418190">
        <ele>2038.6</ele>
        <time>2022-08-20T14:11:03Z</time>
      </trkpt>
      <trkpt lat="25.5035900" lon="-100.7418060">
        <ele>2038.8</ele>
        <time>2022-08-20T14:11:04Z</time>
      </trkpt>
      <trkpt lat="25.5035970" lon="-100.7417760">
        <ele>2039.1</ele>
        <time>2022-08-20T14:11:05Z</time>
      </trkpt>
      <trkpt lat="25.5036000" lon="-100.7417420">
        <ele>2039.4</ele>
        <time>2022-08-20T14:11:07Z</time>
      </trkpt>
      <trkpt lat="25.5036120" lon="-100.7417040">
        <ele>2039.7</ele>
        <time>2022-08-20T14:11:08Z</time>
      </trkpt>
      <trkpt lat="25.5036310" lon="-100.7416710">
        <ele>2040.0</ele>
        <time>2022-08-20T14:11:09Z</time>
      </trkpt>
      <trkpt lat="25.5036520" lon="-100.7416470">
        <ele>2040.2</ele>
        <time>2022-08-20T14:11:11Z</time>
      </trkpt>
      <trkpt lat="25.5036580" lon="-100.7416400">
        <ele>2040.2</ele>
        <time>2022-08-20T14:11:12Z</time>
      </trkpt>
      <trkpt lat="25.5037000" lon="-100.7416020">
        <ele>2040.4</ele>
        <time>2022-08-20T14:11:13Z</time>
      </trkpt>
      <trkpt lat="25.5037260" lon="-100.7415800">
        <ele>2040.5</ele>
        <time>2022-08-20T14:11:14Z</time>
      </trkpt>
      <trkpt lat="25.5038220" lon="-100.7414940">
        <ele>2040.7</ele>
        <time>2022-08-20T14:11:16Z</time>
      </trkpt>
      <trkpt lat="25.5038840" lon="-100.7414420">
        <ele>2040.8</ele>
        <time>2022-08-20T14:11:17Z</time>
      </trkpt>
      <trkpt lat="25.5039400" lon="-100.7413990">
        <ele>2040.9</ele>
        <time>2022-08-20T14:11:18Z</time>
      </trkpt>
      <trkpt lat="25.5039920" lon="-100.7413610">
        <ele>2041.0</ele>
        <time>2022-08-20T14:11:19Z</time>
      </trkpt>
      <trkpt lat="25.5040390" lon="-100.7413270">
        <ele>2041.2</ele>
        <time>2022-08-20T14:11:20Z</time>
      </trkpt>
      <trkpt lat="25.5040820" lon="-100.7412950">
        <ele>2041.3</ele>
        <time>2022-08-20T14:11:21Z</time>
      </trkpt>
      <trkpt lat="25.5040930" lon="-100.7412890">
        <ele>2041.4</ele>
        <time>2022-08-20T14:11:22Z</time>
      </trkpt>
      <trkpt lat="25.5040740" lon="-100.7413240">
        <ele>2041.5</ele>
        <time>2022-08-20T14:11:23Z</time>
      </trkpt>
      <trkpt lat="25.5041030" lon="-100.7413090">
        <ele>2041.6</ele>
        <time>2022-08-20T14:11:24Z</time>
      </trkpt>
      <trkpt lat="25.5041690" lon="-100.7412670">
        <ele>2042.1</ele>
        <time>2022-08-20T14:11:25Z</time>
      </trkpt>
      <trkpt lat="25.5042230" lon="-100.7412320">
        <ele>2042.5</ele>
        <time>2022-08-20T14:11:27Z</time>
      </trkpt>
      <trkpt lat="25.5042690" lon="-100.7412110">
        <ele>2042.8</ele>
        <time>2022-08-20T14:11:28Z</time>
      </trkpt>
      <trkpt lat="25.5043170" lon="-100.7411900">
        <ele>2043.3</ele>
        <time>2022-08-20T14:11:29Z</time>
      </trkpt>
      <trkpt lat="25.5043720" lon="-100.7411680">
        <ele>2043.8</ele>
        <time>2022-08-20T14:11:30Z</time>
      </trkpt>
      <trkpt lat="25.5044220" lon="-100.7411440">
        <ele>2044.2</ele>
        <time>2022-08-20T14:11:32Z</time>
      </trkpt>
      <trkpt lat="25.5044670" lon="-100.7411260">
        <ele>2044.6</ele>
        <time>2022-08-20T14:11:33Z</time>
      </trkpt>
      <trkpt lat="25.5045070" lon="-100.7411080">
        <ele>2044.9</ele>
        <time>2022-08-20T14:11:34Z</time>
      </trkpt>
      <trkpt lat="25.5045720" lon="-100.7410880">
        <ele>2045.2</ele>
        <time>2022-08-20T14:11:35Z</time>
      </trkpt>
      <trkpt lat="25.5046160" lon="-100.7410720">
        <ele>2045.4</ele>
        <time>2022-08-20T14:11:37Z</time>
      </trkpt>
      <trkpt lat="25.5046420" lon="-100.7410590">
        <ele>2045.5</ele>
        <time>2022-08-20T14:11:38Z</time>
      </trkpt>
      <trkpt lat="25.5046790" lon="-100.7410410">
        <ele>2045.6</ele>
        <time>2022-08-20T14:11:40Z</time>
      </trkpt>
      <trkpt lat="25.5047110" lon="-100.7410210">
        <ele>2045.8</ele>
        <time>2022-08-20T14:11:41Z</time>
      </trkpt>
      <trkpt lat="25.5047510" lon="-100.7409920">
        <ele>2045.9</ele>
        <time>2022-08-20T14:11:42Z</time>
      </trkpt>
      <trkpt lat="25.5048080" lon="-100.7409540">
        <ele>2046.2</ele>
        <time>2022-08-20T14:11:43Z</time>
      </trkpt>
      <trkpt lat="25.5048650" lon="-100.7409150">
        <ele>2046.4</ele>
        <time>2022-08-20T14:11:44Z</time>
      </trkpt>
      <trkpt lat="25.5049020" lon="-100.7408840">
        <ele>2046.6</ele>
        <time>2022-08-20T14:11:46Z</time>
      </trkpt>
      <trkpt lat="25.5049430" lon="-100.7408600">
        <ele>2046.8</ele>
        <time>2022-08-20T14:11:47Z</time>
      </trkpt>
      <trkpt lat="25.5049990" lon="-100.7408220">
        <ele>2047.1</ele>
        <time>2022-08-20T14:11:48Z</time>
      </trkpt>
      <trkpt lat="25.5050410" lon="-100.7407930">
        <ele>2047.4</ele>
        <time>2022-08-20T14:11:49Z</time>
      </trkpt>
      <trkpt lat="25.5050790" lon="-100.7407620">
        <ele>2047.7</ele>
        <time>2022-08-20T14:11:50Z</time>
      </trkpt>
      <trkpt lat="25.5051170" lon="-100.7407250">
        <ele>2048.0</ele>
        <time>2022-08-20T14:11:51Z</time>
      </trkpt>
      <trkpt lat="25.5051510" lon="-100.7406890">
        <ele>2048.3</ele>
        <time>2022-08-20T14:11:52Z</time>
      </trkpt>
      <trkpt lat="25.5051860" lon="-100.7406560">
        <ele>2048.5</ele>
        <time>2022-08-20T14:11:54Z</time>
      </trkpt>
      <trkpt lat="25.5052160" lon="-100.7406250">
        <ele>2048.8</ele>
        <time>2022-08-20T14:11:55Z</time>
      </trkpt>
      <trkpt lat="25.5052450" lon="-100.7405930">
        <ele>2049.1</ele>
        <time>2022-08-20T14:11:56Z</time>
      </trkpt>
      <trkpt lat="25.5052730" lon="-100.7405550">
        <ele>2049.3</ele>
        <time>2022-08-20T14:11:57Z</time>
      </trkpt>
      <trkpt lat="25.5052970" lon="-100.7405170">
        <ele>2049.6</ele>
        <time>2022-08-20T14:11:58Z</time>
      </trkpt>
      <trkpt lat="25.5053170" lon="-100.7404860">
        <ele>2049.7</ele>
        <time>2022-08-20T14:11:59Z</time>
      </trkpt>
      <trkpt lat="25.5053390" lon="-100.7404410">
        <ele>2050.0</ele>
        <time>2022-08-20T14:12:00Z</time>
      </trkpt>
      <trkpt lat="25.5053520" lon="-100.7404190">
        <ele>2050.1</ele>
        <time>2022-08-20T14:12:02Z</time>
      </trkpt>
      <trkpt lat="25.5053580" lon="-100.7404160">
        <ele>2050.2</ele>
        <time>2022-08-20T14:12:03Z</time>
      </trkpt>
      <trkpt lat="25.5053650" lon="-100.7404120">
        <ele>2050.2</ele>
        <time>2022-08-20T14:12:04Z</time>
      </trkpt>
      <trkpt lat="25.5053980" lon="-100.7403750">
        <ele>2050.5</ele>
        <time>2022-08-20T14:12:05Z</time>
      </trkpt>
      <trkpt lat="25.5054420" lon="-100.7403380">
        <ele>2050.8</ele>
        <time>2022-08-20T14:12:06Z</time>
      </trkpt>
      <trkpt lat="25.5054900" lon="-100.7403020">
        <ele>2051.2</ele>
        <time>2022-08-20T14:12:07Z</time>
      </trkpt>
      <trkpt lat="25.5055440" lon="-100.7402700">
        <ele>2051.7</ele>
        <time>2022-08-20T14:12:09Z</time>
      </trkpt>
      <trkpt lat="25.5055940" lon="-100.7402450">
        <ele>2052.2</ele>
        <time>2022-08-20T14:12:10Z</time>
      </trkpt>
      <trkpt lat="25.5056370" lon="-100.7402250">
        <ele>2052.6</ele>
        <time>2022-08-20T14:12:11Z</time>
      </trkpt>
      <trkpt lat="25.5056690" lon="-100.7402170">
        <ele>2052.9</ele>
        <time>2022-08-20T14:12:12Z</time>
      </trkpt>
      <trkpt lat="25.5056940" lon="-100.7402080">
        <ele>2053.1</ele>
        <time>2022-08-20T14:12:13Z</time>
      </trkpt>
      <trkpt lat="25.5057250" lon="-100.7401950">
        <ele>2053.4</ele>
        <time>2022-08-20T14:12:15Z</time>
      </trkpt>
      <trkpt lat="25.5057510" lon="-100.7401800">
        <ele>2053.7</ele>
        <time>2022-08-20T14:12:16Z</time>
      </trkpt>
      <trkpt lat="25.5057850" lon="-100.7401600">
        <ele>2054.1</ele>
        <time>2022-08-20T14:12:17Z</time>
      </trkpt>
      <trkpt lat="25.5058170" lon="-100.7401360">
        <ele>2054.4</ele>
        <time>2022-08-20T14:12:18Z</time>
      </trkpt>
      <trkpt lat="25.5058440" lon="-100.7401210">
        <ele>2054.7</ele>
        <time>2022-08-20T14:12:20Z</time>
      </trkpt>
      <trkpt lat="25.5058650" lon="-100.7401120">
        <ele>2054.9</ele>
        <time>2022-08-20T14:12:21Z</time>
      </trkpt>
      <trkpt lat="25.5058980" lon="-100.7400820">
        <ele>2055.3</ele>
        <time>2022-08-20T14:12:23Z</time>
      </trkpt>
      <trkpt lat="25.5059220" lon="-100.7400600">
        <ele>2055.6</ele>
        <time>2022-08-20T14:12:24Z</time>
      </trkpt>
      <trkpt lat="25.5059460" lon="-100.7400310">
        <ele>2055.9</ele>
        <time>2022-08-20T14:12:25Z</time>
      </trkpt>
      <trkpt lat="25.5059660" lon="-100.7400040">
        <ele>2056.2</ele>
        <time>2022-08-20T14:12:26Z</time>
      </trkpt>
      <trkpt lat="25.5059870" lon="-100.7399780">
        <ele>2056.4</ele>
        <time>2022-08-20T14:12:28Z</time>
      </trkpt>
      <trkpt lat="25.5060230" lon="-100.7399440">
        <ele>2056.8</ele>
        <time>2022-08-20T14:12:29Z</time>
      </trkpt>
      <trkpt lat="25.5060480" lon="-100.7399150">
        <ele>2057.1</ele>
        <time>2022-08-20T14:12:31Z</time>
      </trkpt>
      <trkpt lat="25.5060570" lon="-100.7399060">
        <ele>2057.2</ele>
        <time>2022-08-20T14:12:32Z</time>
      </trkpt>
      <trkpt lat="25.5060650" lon="-100.7398930">
        <ele>2057.3</ele>
        <time>2022-08-20T14:12:33Z</time>
      </trkpt>
      <trkpt lat="25.5060670" lon="-100.7398840">
        <ele>2057.3</ele>
        <time>2022-08-20T14:12:34Z</time>
      </trkpt>
      <trkpt lat="25.5060720" lon="-100.7398760">
        <ele>2057.4</ele>
        <time>2022-08-20T14:12:35Z</time>
      </trkpt>
      <trkpt lat="25.5061040" lon="-100.7398520">
        <ele>2057.6</ele>
        <time>2022-08-20T14:12:37Z</time>
      </trkpt>
      <trkpt lat="25.5061220" lon="-100.7398400">
        <ele>2057.7</ele>
        <time>2022-08-20T14:12:38Z</time>
      </trkpt>
      <trkpt lat="25.5061480" lon="-100.7398200">
        <ele>2057.9</ele>
        <time>2022-08-20T14:12:39Z</time>
      </trkpt>
      <trkpt lat="25.5061820" lon="-100.7397890">
        <ele>2058.1</ele>
        <time>2022-08-20T14:12:40Z</time>
      </trkpt>
      <trkpt lat="25.5062250" lon="-100.7397540">
        <ele>2058.3</ele>
        <time>2022-08-20T14:12:41Z</time>
      </trkpt>
      <trkpt lat="25.5062780" lon="-100.7396920">
        <ele>2058.5</ele>
        <time>2022-08-20T14:12:42Z</time>
      </trkpt>
      <trkpt lat="25.5063590" lon="-100.7395990">
        <ele>2058.9</ele>
        <time>2022-08-20T14:12:44Z</time>
      </trkpt>
      <trkpt lat="25.5063920" lon="-100.7395480">
        <ele>2059.0</ele>
        <time>2022-08-20T14:12:45Z</time>
      </trkpt>
      <trkpt lat="25.5064180" lon="-100.7394980">
        <ele>2059.2</ele>
        <time>2022-08-20T14:12:46Z</time>
      </trkpt>
      <trkpt lat="25.5064380" lon="-100.7394500">
        <ele>2059.2</ele>
        <time>2022-08-20T14:12:47Z</time>
      </trkpt>
      <trkpt lat="25.5064540" lon="-100.7394000">
        <ele>2059.3</ele>
        <time>2022-08-20T14:12:48Z</time>
      </trkpt>
      <trkpt lat="25.5064660" lon="-100.7393510">
        <ele>2059.4</ele>
        <time>2022-08-20T14:12:49Z</time>
      </trkpt>
      <trkpt lat="25.5064780" lon="-100.7392990">
        <ele>2059.4</ele>
        <time>2022-08-20T14:12:50Z</time>
      </trkpt>
      <trkpt lat="25.5064950" lon="-100.7392460">
        <ele>2059.5</ele>
        <time>2022-08-20T14:12:51Z</time>
      </trkpt>
      <trkpt lat="25.5065180" lon="-100.7391960">
        <ele>2059.5</ele>
        <time>2022-08-20T14:12:52Z</time>
      </trkpt>
      <trkpt lat="25.5065440" lon="-100.7391530">
        <ele>2059.5</ele>
        <time>2022-08-20T14:12:53Z</time>
      </trkpt>
      <trkpt lat="25.5065490" lon="-100.7390870">
        <ele>2059.5</ele>
        <time>2022-08-20T14:12:55Z</time>
      </trkpt>
      <trkpt lat="25.5065840" lon="-100.7390600">
        <ele>2059.4</ele>
        <time>2022-08-20T14:12:56Z</time>
      </trkpt>
      <trkpt lat="25.5066340" lon="-100.7390080">
        <ele>2059.2</ele>
        <time>2022-08-20T14:12:57Z</time>
      </trkpt>
      <trkpt lat="25.5066670" lon="-100.7389490">
        <ele>2059.0</ele>
        <time>2022-08-20T14:12:58Z</time>
      </trkpt>
      <trkpt lat="25.5067000" lon="-100.7388830">
        <ele>2059.0</ele>
        <time>2022-08-20T14:12:59Z</time>
      </trkpt>
      <trkpt lat="25.5067310" lon="-100.7388130">
        <ele>2059.3</ele>
        <time>2022-08-20T14:13:00Z</time>
      </trkpt>
      <trkpt lat="25.5067580" lon="-100.7387470">
        <ele>2059.8</ele>
        <time>2022-08-20T14:13:01Z</time>
      </trkpt>
      <trkpt lat="25.5067790" lon="-100.7386900">
        <ele>2060.4</ele>
        <time>2022-08-20T14:13:02Z</time>
      </trkpt>
      <trkpt lat="25.5067980" lon="-100.7386390">
        <ele>2061.1</ele>
        <time>2022-08-20T14:13:03Z</time>
      </trkpt>
      <trkpt lat="25.5068210" lon="-100.7386020">
        <ele>2061.8</ele>
        <time>2022-08-20T14:13:04Z</time>
      </trkpt>
      <trkpt lat="25.5068230" lon="-100.7385810">
        <ele>2062.1</ele>
        <time>2022-08-20T14:13:06Z</time>
      </trkpt>
      <trkpt lat="25.5068230" lon="-100.7385650">
        <ele>2062.3</ele>
        <time>2022-08-20T14:13:07Z</time>
      </trkpt>
      <trkpt lat="25.5068180" lon="-100.7385430">
        <ele>2062.6</ele>
        <time>2022-08-20T14:13:08Z</time>
      </trkpt>
      <trkpt lat="25.5068170" lon="-100.7385320">
        <ele>2062.8</ele>
        <time>2022-08-20T14:13:09Z</time>
      </trkpt>
      <trkpt lat="25.5068160" lon="-100.7385210">
        <ele>2063.0</ele>
        <time>2022-08-20T14:13:10Z</time>
      </trkpt>
      <trkpt lat="25.5068160" lon="-100.7384970">
        <ele>2063.3</ele>
        <time>2022-08-20T14:13:11Z</time>
      </trkpt>
      <trkpt lat="25.5068160" lon="-100.7384850">
        <ele>2063.5</ele>
        <time>2022-08-20T14:13:12Z</time>
      </trkpt>
      <trkpt lat="25.5068150" lon="-100.7384740">
        <ele>2063.7</ele>
        <time>2022-08-20T14:13:13Z</time>
      </trkpt>
      <trkpt lat="25.5068160" lon="-100.7384560">
        <ele>2063.9</ele>
        <time>2022-08-20T14:13:15Z</time>
      </trkpt>
      <trkpt lat="25.5068150" lon="-100.7384430">
        <ele>2064.1</ele>
        <time>2022-08-20T14:13:16Z</time>
      </trkpt>
      <trkpt lat="25.5068180" lon="-100.7384290">
        <ele>2064.3</ele>
        <time>2022-08-20T14:13:17Z</time>
      </trkpt>
      <trkpt lat="25.5068190" lon="-100.7384110">
        <ele>2064.5</ele>
        <time>2022-08-20T14:13:18Z</time>
      </trkpt>
      <trkpt lat="25.5068190" lon="-100.7383880">
        <ele>2064.9</ele>
        <time>2022-08-20T14:13:20Z</time>
      </trkpt>
      <trkpt lat="25.5068190" lon="-100.7383770">
        <ele>2065.0</ele>
        <time>2022-08-20T14:13:21Z</time>
      </trkpt>
      <trkpt lat="25.5068200" lon="-100.7383610">
        <ele>2065.2</ele>
        <time>2022-08-20T14:13:22Z</time>
      </trkpt>
      <trkpt lat="25.5068190" lon="-100.7383460">
        <ele>2065.5</ele>
        <time>2022-08-20T14:13:23Z</time>
      </trkpt>
      <trkpt lat="25.5068200" lon="-100.7383270">
        <ele>2065.7</ele>
        <time>2022-08-20T14:13:25Z</time>
      </trkpt>
      <trkpt lat="25.5068210" lon="-100.7383120">
        <ele>2065.9</ele>
        <time>2022-08-20T14:13:26Z</time>
      </trkpt>
      <trkpt lat="25.5068270" lon="-100.7382800">
        <ele>2066.4</ele>
        <time>2022-08-20T14:13:27Z</time>
      </trkpt>
      <trkpt lat="25.5068300" lon="-100.7382700">
        <ele>2066.5</ele>
        <time>2022-08-20T14:13:28Z</time>
      </trkpt>
      <trkpt lat="25.5068350" lon="-100.7382490">
        <ele>2066.8</ele>
        <time>2022-08-20T14:13:30Z</time>
      </trkpt>
      <trkpt lat="25.5068390" lon="-100.7382310">
        <ele>2067.0</ele>
        <time>2022-08-20T14:13:31Z</time>
      </trkpt>
      <trkpt lat="25.5068460" lon="-100.7382080">
        <ele>2067.3</ele>
        <time>2022-08-20T14:13:32Z</time>
      </trkpt>
      <trkpt lat="25.5068520" lon="-100.7381760">
        <ele>2067.7</ele>
        <time>2022-08-20T14:13:34Z</time>
      </trkpt>
      <trkpt lat="25.5068580" lon="-100.7381640">
        <ele>2067.9</ele>
        <time>2022-08-20T14:13:35Z</time>
      </trkpt>
      <trkpt lat="25.5068610" lon="-100.7381550">
        <ele>2068.0</ele>
        <time>2022-08-20T14:13:36Z</time>
      </trkpt>
      <trkpt lat="25.5068650" lon="-100.7381410">
        <ele>2068.2</ele>
        <time>2022-08-20T14:13:37Z</time>
      </trkpt>
      <trkpt lat="25.5068770" lon="-100.7381070">
        <ele>2068.5</ele>
        <time>2022-08-20T14:13:38Z</time>
      </trkpt>
      <trkpt lat="25.5068820" lon="-100.7380970">
        <ele>2068.7</ele>
        <time>2022-08-20T14:13:39Z</time>
      </trkpt>
      <trkpt lat="25.5068930" lon="-100.7380650">
        <ele>2069.0</ele>
        <time>2022-08-20T14:13:40Z</time>
      </trkpt>
      <trkpt lat="25.5068960" lon="-100.7380250">
        <ele>2069.3</ele>
        <time>2022-08-20T14:13:41Z</time>
      </trkpt>
      <trkpt lat="25.5068970" lon="-100.7380130">
        <ele>2069.4</ele>
        <time>2022-08-20T14:13:42Z</time>
      </trkpt>
      <trkpt lat="25.5068960" lon="-100.7379840">
        <ele>2069.7</ele>
        <time>2022-08-20T14:13:44Z</time>
      </trkpt>
      <trkpt lat="25.5068950" lon="-100.7379730">
        <ele>2069.8</ele>
        <time>2022-08-20T14:13:45Z</time>
      </trkpt>
      <trkpt lat="25.5068960" lon="-100.7379590">
        <ele>2069.9</ele>
        <time>2022-08-20T14:13:46Z</time>
      </trkpt>
      <trkpt lat="25.5068940" lon="-100.7379360">
        <ele>2070.1</ele>
        <time>2022-08-20T14:13:47Z</time>
      </trkpt>
      <trkpt lat="25.5068940" lon="-100.7378990">
        <ele>2070.3</ele>
        <time>2022-08-20T14:13:49Z</time>
      </trkpt>
      <trkpt lat="25.5068960" lon="-100.7378900">
        <ele>2070.4</ele>
        <time>2022-08-20T14:13:50Z</time>
      </trkpt>
      <trkpt lat="25.5069050" lon="-100.7378440">
        <ele>2070.7</ele>
        <time>2022-08-20T14:13:51Z</time>
      </trkpt>
      <trkpt lat="25.5069090" lon="-100.7378250">
        <ele>2070.9</ele>
        <time>2022-08-20T14:13:52Z</time>
      </trkpt>
      <trkpt lat="25.5069180" lon="-100.7377870">
        <ele>2071.2</ele>
        <time>2022-08-20T14:13:53Z</time>
      </trkpt>
      <trkpt lat="25.5069210" lon="-100.7377740">
        <ele>2071.3</ele>
        <time>2022-08-20T14:13:54Z</time>
      </trkpt>
      <trkpt lat="25.5069360" lon="-100.7377460">
        <ele>2071.5</ele>
        <time>2022-08-20T14:13:55Z</time>
      </trkpt>
      <trkpt lat="25.5069750" lon="-100.7376960">
        <ele>2072.0</ele>
        <time>2022-08-20T14:13:57Z</time>
      </trkpt>
      <trkpt lat="25.5069910" lon="-100.7376650">
        <ele>2072.3</ele>
        <time>2022-08-20T14:13:59Z</time>
      </trkpt>
      <trkpt lat="25.5070070" lon="-100.7376300">
        <ele>2072.6</ele>
        <time>2022-08-20T14:14:00Z</time>
      </trkpt>
      <trkpt lat="25.5070200" lon="-100.7375980">
        <ele>2072.8</ele>
        <time>2022-08-20T14:14:01Z</time>
      </trkpt>
      <trkpt lat="25.5070370" lon="-100.7375610">
        <ele>2073.1</ele>
        <time>2022-08-20T14:14:02Z</time>
      </trkpt>
      <trkpt lat="25.5070640" lon="-100.7375180">
        <ele>2073.5</ele>
        <time>2022-08-20T14:14:04Z</time>
      </trkpt>
      <trkpt lat="25.5070780" lon="-100.7375030">
        <ele>2073.6</ele>
        <time>2022-08-20T14:14:05Z</time>
      </trkpt>
      <trkpt lat="25.5070920" lon="-100.7374890">
        <ele>2073.7</ele>
        <time>2022-08-20T14:14:06Z</time>
      </trkpt>
      <trkpt lat="25.5071280" lon="-100.7374590">
        <ele>2073.9</ele>
        <time>2022-08-20T14:14:08Z</time>
      </trkpt>
      <trkpt lat="25.5071440" lon="-100.7374500">
        <ele>2074.0</ele>
        <time>2022-08-20T14:14:09Z</time>
      </trkpt>
      <trkpt lat="25.5071590" lon="-100.7374400">
        <ele>2074.1</ele>
        <time>2022-08-20T14:14:10Z</time>
      </trkpt>
      <trkpt lat="25.5071930" lon="-100.7374230">
        <ele>2074.2</ele>
        <time>2022-08-20T14:14:11Z</time>
      </trkpt>
      <trkpt lat="25.5072260" lon="-100.7374000">
        <ele>2074.3</ele>
        <time>2022-08-20T14:14:12Z</time>
      </trkpt>
      <trkpt lat="25.5072610" lon="-100.7373730">
        <ele>2074.4</ele>
        <time>2022-08-20T14:14:13Z</time>
      </trkpt>
      <trkpt lat="25.5073000" lon="-100.7373380">
        <ele>2074.5</ele>
        <time>2022-08-20T14:14:14Z</time>
      </trkpt>
      <trkpt lat="25.5073510" lon="-100.7372890">
        <ele>2074.8</ele>
        <time>2022-08-20T14:14:15Z</time>
      </trkpt>
      <trkpt lat="25.5073870" lon="-100.7372530">
        <ele>2075.1</ele>
        <time>2022-08-20T14:14:16Z</time>
      </trkpt>
      <trkpt lat="25.5074190" lon="-100.7372170">
        <ele>2075.5</ele>
        <time>2022-08-20T14:14:17Z</time>
      </trkpt>
      <trkpt lat="25.5074630" lon="-100.7371590">
        <ele>2076.2</ele>
        <time>2022-08-20T14:14:19Z</time>
      </trkpt>
      <trkpt lat="25.5074820" lon="-100.7371230">
        <ele>2076.6</ele>
        <time>2022-08-20T14:14:21Z</time>
      </trkpt>
      <trkpt lat="25.5075030" lon="-100.7370880">
        <ele>2077.0</ele>
        <time>2022-08-20T14:14:22Z</time>
      </trkpt>
      <trkpt lat="25.5075090" lon="-100.7370760">
        <ele>2077.1</ele>
        <time>2022-08-20T14:14:23Z</time>
      </trkpt>
      <trkpt lat="25.5075210" lon="-100.7370430">
        <ele>2077.5</ele>
        <time>2022-08-20T14:14:24Z</time>
      </trkpt>
      <trkpt lat="25.5075240" lon="-100.7370290">
        <ele>2077.6</ele>
        <time>2022-08-20T14:14:25Z</time>
      </trkpt>
      <trkpt lat="25.5075300" lon="-100.7369990">
        <ele>2078.0</ele>
        <time>2022-08-20T14:14:26Z</time>
      </trkpt>
      <trkpt lat="25.5075330" lon="-100.7369600">
        <ele>2078.4</ele>
        <time>2022-08-20T14:14:28Z</time>
      </trkpt>
      <trkpt lat="25.5075320" lon="-100.7369520">
        <ele>2078.4</ele>
        <time>2022-08-20T14:14:29Z</time>
      </trkpt>
      <trkpt lat="25.5075300" lon="-100.7369160">
        <ele>2078.8</ele>
        <time>2022-08-20T14:14:30Z</time>
      </trkpt>
      <trkpt lat="25.5075300" lon="-100.7369070">
        <ele>2078.9</ele>
        <time>2022-08-20T14:14:31Z</time>
      </trkpt>
      <trkpt lat="25.5075280" lon="-100.7368910">
        <ele>2079.1</ele>
        <time>2022-08-20T14:14:32Z</time>
      </trkpt>
      <trkpt lat="25.5075240" lon="-100.7368730">
        <ele>2079.3</ele>
        <time>2022-08-20T14:14:33Z</time>
      </trkpt>
      <trkpt lat="25.5075140" lon="-100.7368580">
        <ele>2079.5</ele>
        <time>2022-08-20T14:14:34Z</time>
      </trkpt>
      <trkpt lat="25.5075040" lon="-100.7368460">
        <ele>2079.7</ele>
        <time>2022-08-20T14:14:36Z</time>
      </trkpt>
      <trkpt lat="25.5074960" lon="-100.7368280">
        <ele>2080.0</ele>
        <time>2022-08-20T14:14:37Z</time>
      </trkpt>
      <trkpt lat="25.5074900" lon="-100.7368060">
        <ele>2080.3</ele>
        <time>2022-08-20T14:14:39Z</time>
      </trkpt>
      <trkpt lat="25.5074880" lon="-100.7367850">
        <ele>2080.6</ele>
        <time>2022-08-20T14:14:41Z</time>
      </trkpt>
      <trkpt lat="25.5074870" lon="-100.7367690">
        <ele>2080.8</ele>
        <time>2022-08-20T14:14:42Z</time>
      </trkpt>
      <trkpt lat="25.5074860" lon="-100.7367310">
        <ele>2081.3</ele>
        <time>2022-08-20T14:14:43Z</time>
      </trkpt>
      <trkpt lat="25.5074860" lon="-100.7367180">
        <ele>2081.5</ele>
        <time>2022-08-20T14:14:44Z</time>
      </trkpt>
      <trkpt lat="25.5074850" lon="-100.7366820">
        <ele>2082.1</ele>
        <time>2022-08-20T14:14:45Z</time>
      </trkpt>
      <trkpt lat="25.5074930" lon="-100.7366390">
        <ele>2082.8</ele>
        <time>2022-08-20T14:14:46Z</time>
      </trkpt>
      <trkpt lat="25.5074960" lon="-100.7366230">
        <ele>2083.1</ele>
        <time>2022-08-20T14:14:47Z</time>
      </trkpt>
      <trkpt lat="25.5074940" lon="-100.7365890">
        <ele>2083.6</ele>
        <time>2022-08-20T14:14:48Z</time>
      </trkpt>
      <trkpt lat="25.5074940" lon="-100.7365780">
        <ele>2083.8</ele>
        <time>2022-08-20T14:14:49Z</time>
      </trkpt>
      <trkpt lat="25.5074930" lon="-100.7365470">
        <ele>2084.3</ele>
        <time>2022-08-20T14:14:50Z</time>
      </trkpt>
      <trkpt lat="25.5074930" lon="-100.7365380">
        <ele>2084.5</ele>
        <time>2022-08-20T14:14:51Z</time>
      </trkpt>
      <trkpt lat="25.5075000" lon="-100.7365170">
        <ele>2084.8</ele>
        <time>2022-08-20T14:14:53Z</time>
      </trkpt>
      <trkpt lat="25.5075000" lon="-100.7365110">
        <ele>2084.9</ele>
        <time>2022-08-20T14:14:54Z</time>
      </trkpt>
      <trkpt lat="25.5075010" lon="-100.7365050">
        <ele>2085.0</ele>
        <time>2022-08-20T14:14:55Z</time>
      </trkpt>
      <trkpt lat="25.5075010" lon="-100.7364990">
        <ele>2085.1</ele>
        <time>2022-08-20T14:14:56Z</time>
      </trkpt>
      <trkpt lat="25.5075050" lon="-100.7364640">
        <ele>2085.7</ele>
        <time>2022-08-20T14:14:57Z</time>
      </trkpt>
      <trkpt lat="25.5075050" lon="-100.7364500">
        <ele>2085.9</ele>
        <time>2022-08-20T14:14:58Z</time>
      </trkpt>
      <trkpt lat="25.5075070" lon="-100.7364310">
        <ele>2086.2</ele>
        <time>2022-08-20T14:14:59Z</time>
      </trkpt>
      <trkpt lat="25.5075080" lon="-100.7364080">
        <ele>2086.5</ele>
        <time>2022-08-20T14:15:01Z</time>
      </trkpt>
      <trkpt lat="25.5075090" lon="-100.7363960">
        <ele>2086.7</ele>
        <time>2022-08-20T14:15:02Z</time>
      </trkpt>
      <trkpt lat="25.5075150" lon="-100.7363740">
        <ele>2087.1</ele>
        <time>2022-08-20T14:15:03Z</time>
      </trkpt>
      <trkpt lat="25.5075340" lon="-100.7363320">
        <ele>2087.5</ele>
        <time>2022-08-20T14:15:05Z</time>
      </trkpt>
      <trkpt lat="25.5075500" lon="-100.7362940">
        <ele>2088.0</ele>
        <time>2022-08-20T14:15:07Z</time>
      </trkpt>
      <trkpt lat="25.5075560" lon="-100.7362800">
        <ele>2088.2</ele>
        <time>2022-08-20T14:15:08Z</time>
      </trkpt>
      <trkpt lat="25.5075680" lon="-100.7362530">
        <ele>2088.5</ele>
        <time>2022-08-20T14:15:09Z</time>
      </trkpt>
      <trkpt lat="25.5075900" lon="-100.7362150">
        <ele>2089.0</ele>
        <time>2022-08-20T14:15:10Z</time>
      </trkpt>
      <trkpt lat="25.5075970" lon="-100.7362030">
        <ele>2089.2</ele>
        <time>2022-08-20T14:15:11Z</time>
      </trkpt>
      <trkpt lat="25.5076060" lon="-100.7361780">
        <ele>2089.5</ele>
        <time>2022-08-20T14:15:12Z</time>
      </trkpt>
      <trkpt lat="25.5076170" lon="-100.7361480">
        <ele>2089.8</ele>
        <time>2022-08-20T14:15:14Z</time>
      </trkpt>
      <trkpt lat="25.5076190" lon="-100.7361170">
        <ele>2090.1</ele>
        <time>2022-08-20T14:15:15Z</time>
      </trkpt>
      <trkpt lat="25.5076180" lon="-100.7361070">
        <ele>2090.3</ele>
        <time>2022-08-20T14:15:16Z</time>
      </trkpt>
      <trkpt lat="25.5076200" lon="-100.7360890">
        <ele>2090.4</ele>
        <time>2022-08-20T14:15:17Z</time>
      </trkpt>
      <trkpt lat="25.5076300" lon="-100.7360590">
        <ele>2090.7</ele>
        <time>2022-08-20T14:15:18Z</time>
      </trkpt>
      <trkpt lat="25.5076430" lon="-100.7360220">
        <ele>2091.1</ele>
        <time>2022-08-20T14:15:20Z</time>
      </trkpt>
      <trkpt lat="25.5076480" lon="-100.7360030">
        <ele>2091.3</ele>
        <time>2022-08-20T14:15:21Z</time>
      </trkpt>
      <trkpt lat="25.5076540" lon="-100.7359690">
        <ele>2091.5</ele>
        <time>2022-08-20T14:15:23Z</time>
      </trkpt>
      <trkpt lat="25.5076570" lon="-100.7359570">
        <ele>2091.6</ele>
        <time>2022-08-20T14:15:24Z</time>
      </trkpt>
      <trkpt lat="25.5076590" lon="-100.7359270">
        <ele>2091.7</ele>
        <time>2022-08-20T14:15:25Z</time>
      </trkpt>
      <trkpt lat="25.5076600" lon="-100.7358730">
        <ele>2091.9</ele>
        <time>2022-08-20T14:15:27Z</time>
      </trkpt>
      <trkpt lat="25.5076620" lon="-100.7358490">
        <ele>2091.9</ele>
        <time>2022-08-20T14:15:28Z</time>
      </trkpt>
      <trkpt lat="25.5076630" lon="-100.7358250">
        <ele>2091.9</ele>
        <time>2022-08-20T14:15:29Z</time>
      </trkpt>
      <trkpt lat="25.5076730" lon="-100.7357970">
        <ele>2091.9</ele>
        <time>2022-08-20T14:15:31Z</time>
      </trkpt>
      <trkpt lat="25.5076940" lon="-100.7357660">
        <ele>2091.8</ele>
        <time>2022-08-20T14:15:32Z</time>
      </trkpt>
      <trkpt lat="25.5077310" lon="-100.7357440">
        <ele>2091.7</ele>
        <time>2022-08-20T14:15:34Z</time>
      </trkpt>
      <trkpt lat="25.5077800" lon="-100.7357220">
        <ele>2091.7</ele>
        <time>2022-08-20T14:15:35Z</time>
      </trkpt>
      <trkpt lat="25.5078600" lon="-100.7356730">
        <ele>2091.7</ele>
        <time>2022-08-20T14:15:36Z</time>
      </trkpt>
      <trkpt lat="25.5079370" lon="-100.7356210">
        <ele>2091.8</ele>
        <time>2022-08-20T14:15:38Z</time>
      </trkpt>
      <trkpt lat="25.5079660" lon="-100.7356170">
        <ele>2091.8</ele>
        <time>2022-08-20T14:15:39Z</time>
      </trkpt>
      <trkpt lat="25.5079780" lon="-100.7356160">
        <ele>2091.9</ele>
        <time>2022-08-20T14:15:40Z</time>
      </trkpt>
      <trkpt lat="25.5080120" lon="-100.7356070">
        <ele>2092.0</ele>
        <time>2022-08-20T14:15:41Z</time>
      </trkpt>
      <trkpt lat="25.5080480" lon="-100.7355990">
        <ele>2092.1</ele>
        <time>2022-08-20T14:15:42Z</time>
      </trkpt>
      <trkpt lat="25.5080880" lon="-100.7355950">
        <ele>2092.2</ele>
        <time>2022-08-20T14:15:43Z</time>
      </trkpt>
      <trkpt lat="25.5081320" lon="-100.7355870">
        <ele>2092.4</ele>
        <time>2022-08-20T14:15:45Z</time>
      </trkpt>
      <trkpt lat="25.5081710" lon="-100.7355720">
        <ele>2092.6</ele>
        <time>2022-08-20T14:15:46Z</time>
      </trkpt>
      <trkpt lat="25.5082110" lon="-100.7355500">
        <ele>2092.8</ele>
        <time>2022-08-20T14:15:47Z</time>
      </trkpt>
      <trkpt lat="25.5082610" lon="-100.7355210">
        <ele>2093.1</ele>
        <time>2022-08-20T14:15:48Z</time>
      </trkpt>
      <trkpt lat="25.5082940" lon="-100.7355020">
        <ele>2093.3</ele>
        <time>2022-08-20T14:15:50Z</time>
      </trkpt>
      <trkpt lat="25.5083360" lon="-100.7354730">
        <ele>2093.6</ele>
        <time>2022-08-20T14:15:51Z</time>
      </trkpt>
      <trkpt lat="25.5083590" lon="-100.7354540">
        <ele>2093.8</ele>
        <time>2022-08-20T14:15:52Z</time>
      </trkpt>
      <trkpt lat="25.5083870" lon="-100.7354290">
        <ele>2094.0</ele>
        <time>2022-08-20T14:15:53Z</time>
      </trkpt>
      <trkpt lat="25.5084100" lon="-100.7354090">
        <ele>2094.2</ele>
        <time>2022-08-20T14:15:54Z</time>
      </trkpt>
      <trkpt lat="25.5084190" lon="-100.7353960">
        <ele>2094.3</ele>
        <time>2022-08-20T14:15:55Z</time>
      </trkpt>
      <trkpt lat="25.5084310" lon="-100.7353740">
        <ele>2094.5</ele>
        <time>2022-08-20T14:15:57Z</time>
      </trkpt>
      <trkpt lat="25.5084380" lon="-100.7353580">
        <ele>2094.6</ele>
        <time>2022-08-20T14:15:58Z</time>
      </trkpt>
      <trkpt lat="25.5084450" lon="-100.7353410">
        <ele>2094.8</ele>
        <time>2022-08-20T14:15:59Z</time>
      </trkpt>
      <trkpt lat="25.5084570" lon="-100.7353280">
        <ele>2094.9</ele>
        <time>2022-08-20T14:16:00Z</time>
      </trkpt>
      <trkpt lat="25.5084710" lon="-100.7353400">
        <ele>2095.1</ele>
        <time>2022-08-20T14:16:01Z</time>
      </trkpt>
      <trkpt lat="25.5084910" lon="-100.7353370">
        <ele>2095.3</ele>
        <time>2022-08-20T14:16:03Z</time>
      </trkpt>
      <trkpt lat="25.5085190" lon="-100.7353160">
        <ele>2095.7</ele>
        <time>2022-08-20T14:16:04Z</time>
      </trkpt>
      <trkpt lat="25.5085300" lon="-100.7353070">
        <ele>2095.9</ele>
        <time>2022-08-20T14:16:05Z</time>
      </trkpt>
      <trkpt lat="25.5085560" lon="-100.7352860">
        <ele>2096.3</ele>
        <time>2022-08-20T14:16:06Z</time>
      </trkpt>
      <trkpt lat="25.5085840" lon="-100.7352570">
        <ele>2096.8</ele>
        <time>2022-08-20T14:16:07Z</time>
      </trkpt>
      <trkpt lat="25.5086110" lon="-100.7352340">
        <ele>2097.2</ele>
        <time>2022-08-20T14:16:09Z</time>
      </trkpt>
      <trkpt lat="25.5086440" lon="-100.7351970">
        <ele>2097.8</ele>
        <time>2022-08-20T14:16:10Z</time>
      </trkpt>
      <trkpt lat="25.5086720" lon="-100.7351670">
        <ele>2098.2</ele>
        <time>2022-08-20T14:16:12Z</time>
      </trkpt>
      <trkpt lat="25.5086960" lon="-100.7351380">
        <ele>2098.6</ele>
        <time>2022-08-20T14:16:13Z</time>
      </trkpt>
      <trkpt lat="25.5087030" lon="-100.7351270">
        <ele>2098.7</ele>
        <time>2022-08-20T14:16:14Z</time>
      </trkpt>
      <trkpt lat="25.5087190" lon="-100.7350860">
        <ele>2099.1</ele>
        <time>2022-08-20T14:16:15Z</time>
      </trkpt>
      <trkpt lat="25.5087230" lon="-100.7350700">
        <ele>2099.3</ele>
        <time>2022-08-20T14:16:16Z</time>
      </trkpt>
      <trkpt lat="25.5087390" lon="-100.7350350">
        <ele>2099.6</ele>
        <time>2022-08-20T14:16:17Z</time>
      </trkpt>
      <trkpt lat="25.5087440" lon="-100.7350240">
        <ele>2099.7</ele>
        <time>2022-08-20T14:16:18Z</time>
      </trkpt>
      <trkpt lat="25.5087520" lon="-100.7350080">
        <ele>2099.9</ele>
        <time>2022-08-20T14:16:19Z</time>
      </trkpt>
      <trkpt lat="25.5087580" lon="-100.7349890">
        <ele>2100.0</ele>
        <time>2022-08-20T14:16:20Z</time>
      </trkpt>
      <trkpt lat="25.5087640" lon="-100.7349700">
        <ele>2100.2</ele>
        <time>2022-08-20T14:16:21Z</time>
      </trkpt>
      <trkpt lat="25.5087750" lon="-100.7349450">
        <ele>2100.4</ele>
        <time>2022-08-20T14:16:23Z</time>
      </trkpt>
      <trkpt lat="25.5087900" lon="-100.7349020">
        <ele>2100.8</ele>
        <time>2022-08-20T14:16:24Z</time>
      </trkpt>
      <trkpt lat="25.5087950" lon="-100.7348820">
        <ele>2101.0</ele>
        <time>2022-08-20T14:16:25Z</time>
      </trkpt>
      <trkpt lat="25.5088070" lon="-100.7348390">
        <ele>2101.3</ele>
        <time>2022-08-20T14:16:26Z</time>
      </trkpt>
      <trkpt lat="25.5088120" lon="-100.7348240">
        <ele>2101.4</ele>
        <time>2022-08-20T14:16:27Z</time>
      </trkpt>
      <trkpt lat="25.5088220" lon="-100.7347760">
        <ele>2101.8</ele>
        <time>2022-08-20T14:16:29Z</time>
      </trkpt>
      <trkpt lat="25.5088250" lon="-100.7347620">
        <ele>2101.9</ele>
        <time>2022-08-20T14:16:30Z</time>
      </trkpt>
      <trkpt lat="25.5088290" lon="-100.7347480">
        <ele>2102.1</ele>
        <time>2022-08-20T14:16:31Z</time>
      </trkpt>
      <trkpt lat="25.5088330" lon="-100.7347280">
        <ele>2102.2</ele>
        <time>2022-08-20T14:16:32Z</time>
      </trkpt>
      <trkpt lat="25.5088420" lon="-100.7346760">
        <ele>2102.6</ele>
        <time>2022-08-20T14:16:34Z</time>
      </trkpt>
      <trkpt lat="25.5088550" lon="-100.7346400">
        <ele>2102.9</ele>
        <time>2022-08-20T14:16:36Z</time>
      </trkpt>
      <trkpt lat="25.5088630" lon="-100.7346040">
        <ele>2103.2</ele>
        <time>2022-08-20T14:16:37Z</time>
      </trkpt>
      <trkpt lat="25.5088660" lon="-100.7345730">
        <ele>2103.4</ele>
        <time>2022-08-20T14:16:38Z</time>
      </trkpt>
      <trkpt lat="25.5088730" lon="-100.7345410">
        <ele>2103.6</ele>
        <time>2022-08-20T14:16:40Z</time>
      </trkpt>
      <trkpt lat="25.5088880" lon="-100.7344940">
        <ele>2103.8</ele>
        <time>2022-08-20T14:16:41Z</time>
      </trkpt>
      <trkpt lat="25.5088980" lon="-100.7344650">
        <ele>2104.0</ele>
        <time>2022-08-20T14:16:42Z</time>
      </trkpt>
      <trkpt lat="25.5089150" lon="-100.7344270">
        <ele>2104.2</ele>
        <time>2022-08-20T14:16:44Z</time>
      </trkpt>
      <trkpt lat="25.5089320" lon="-100.7343970">
        <ele>2104.3</ele>
        <time>2022-08-20T14:16:45Z</time>
      </trkpt>
      <trkpt lat="25.5089470" lon="-100.7343610">
        <ele>2104.5</ele>
        <time>2022-08-20T14:16:46Z</time>
      </trkpt>
      <trkpt lat="25.5089580" lon="-100.7343260">
        <ele>2104.7</ele>
        <time>2022-08-20T14:16:47Z</time>
      </trkpt>
      <trkpt lat="25.5089620" lon="-100.7342900">
        <ele>2104.8</ele>
        <time>2022-08-20T14:16:48Z</time>
      </trkpt>
      <trkpt lat="25.5089640" lon="-100.7342640">
        <ele>2105.0</ele>
        <time>2022-08-20T14:16:49Z</time>
      </trkpt>
      <trkpt lat="25.5089660" lon="-100.7342300">
        <ele>2105.1</ele>
        <time>2022-08-20T14:16:51Z</time>
      </trkpt>
      <trkpt lat="25.5089730" lon="-100.7341860">
        <ele>2105.3</ele>
        <time>2022-08-20T14:16:52Z</time>
      </trkpt>
      <trkpt lat="25.5089800" lon="-100.7341420">
        <ele>2105.5</ele>
        <time>2022-08-20T14:16:53Z</time>
      </trkpt>
      <trkpt lat="25.5089820" lon="-100.7341260">
        <ele>2105.6</ele>
        <time>2022-08-20T14:16:54Z</time>
      </trkpt>
      <trkpt lat="25.5089830" lon="-100.7340970">
        <ele>2105.8</ele>
        <time>2022-08-20T14:16:55Z</time>
      </trkpt>
      <trkpt lat="25.5089870" lon="-100.7340660">
        <ele>2106.0</ele>
        <time>2022-08-20T14:16:57Z</time>
      </trkpt>
      <trkpt lat="25.5089980" lon="-100.7340130">
        <ele>2106.5</ele>
        <time>2022-08-20T14:16:58Z</time>
      </trkpt>
      <trkpt lat="25.5090070" lon="-100.7339870">
        <ele>2106.7</ele>
        <time>2022-08-20T14:16:59Z</time>
      </trkpt>
      <trkpt lat="25.5090150" lon="-100.7339590">
        <ele>2107.0</ele>
        <time>2022-08-20T14:17:01Z</time>
      </trkpt>
      <trkpt lat="25.5090290" lon="-100.7339180">
        <ele>2107.4</ele>
        <time>2022-08-20T14:17:02Z</time>
      </trkpt>
      <trkpt lat="25.5090350" lon="-100.7339010">
        <ele>2107.6</ele>
        <time>2022-08-20T14:17:03Z</time>
      </trkpt>
      <trkpt lat="25.5090480" lon="-100.7338660">
        <ele>2108.0</ele>
        <time>2022-08-20T14:17:04Z</time>
      </trkpt>
      <trkpt lat="25.5090510" lon="-100.7338540">
        <ele>2108.2</ele>
        <time>2022-08-20T14:17:05Z</time>
      </trkpt>
      <trkpt lat="25.5090640" lon="-100.7338070">
        <ele>2108.7</ele>
        <time>2022-08-20T14:17:07Z</time>
      </trkpt>
      <trkpt lat="25.5090690" lon="-100.7337900">
        <ele>2108.9</ele>
        <time>2022-08-20T14:17:08Z</time>
      </trkpt>
      <trkpt lat="25.5090750" lon="-100.7337740">
        <ele>2109.1</ele>
        <time>2022-08-20T14:17:09Z</time>
      </trkpt>
      <trkpt lat="25.5090850" lon="-100.7337430">
        <ele>2109.4</ele>
        <time>2022-08-20T14:17:10Z</time>
      </trkpt>
      <trkpt lat="25.5090940" lon="-100.7337080">
        <ele>2109.8</ele>
        <time>2022-08-20T14:17:12Z</time>
      </trkpt>
      <trkpt lat="25.5090950" lon="-100.7336990">
        <ele>2109.9</ele>
        <time>2022-08-20T14:17:13Z</time>
      </trkpt>
      <trkpt lat="25.5091020" lon="-100.7336690">
        <ele>2110.2</ele>
        <time>2022-08-20T14:17:14Z</time>
      </trkpt>
      <trkpt lat="25.5091050" lon="-100.7336600">
        <ele>2110.3</ele>
        <time>2022-08-20T14:17:15Z</time>
      </trkpt>
      <trkpt lat="25.5091150" lon="-100.7336300">
        <ele>2110.7</ele>
        <time>2022-08-20T14:17:16Z</time>
      </trkpt>
      <trkpt lat="25.5091180" lon="-100.7336200">
        <ele>2110.8</ele>
        <time>2022-08-20T14:17:17Z</time>
      </trkpt>
      <trkpt lat="25.5091250" lon="-100.7335970">
        <ele>2111.1</ele>
        <time>2022-08-20T14:17:18Z</time>
      </trkpt>
      <trkpt lat="25.5091370" lon="-100.7335620">
        <ele>2111.4</ele>
        <time>2022-08-20T14:17:20Z</time>
      </trkpt>
      <trkpt lat="25.5091460" lon="-100.7335320">
        <ele>2111.8</ele>
        <time>2022-08-20T14:17:21Z</time>
      </trkpt>
      <trkpt lat="25.5091540" lon="-100.7335040">
        <ele>2112.1</ele>
        <time>2022-08-20T14:17:22Z</time>
      </trkpt>
      <trkpt lat="25.5091750" lon="-100.7334540">
        <ele>2112.7</ele>
        <time>2022-08-20T14:17:24Z</time>
      </trkpt>
      <trkpt lat="25.5091860" lon="-100.7334260">
        <ele>2113.0</ele>
        <time>2022-08-20T14:17:25Z</time>
      </trkpt>
      <trkpt lat="25.5092080" lon="-100.7333800">
        <ele>2113.6</ele>
        <time>2022-08-20T14:17:26Z</time>
      </trkpt>
      <trkpt lat="25.5092200" lon="-100.7333600">
        <ele>2113.9</ele>
        <time>2022-08-20T14:17:27Z</time>
      </trkpt>
      <trkpt lat="25.5092420" lon="-100.7333280">
        <ele>2114.3</ele>
        <time>2022-08-20T14:17:29Z</time>
      </trkpt>
      <trkpt lat="25.5092480" lon="-100.7333170">
        <ele>2114.5</ele>
        <time>2022-08-20T14:17:30Z</time>
      </trkpt>
      <trkpt lat="25.5092520" lon="-100.7332970">
        <ele>2114.7</ele>
        <time>2022-08-20T14:17:31Z</time>
      </trkpt>
      <trkpt lat="25.5092570" lon="-100.7332810">
        <ele>2114.8</ele>
        <time>2022-08-20T14:17:32Z</time>
      </trkpt>
      <trkpt lat="25.5092600" lon="-100.7332630">
        <ele>2115.0</ele>
        <time>2022-08-20T14:17:33Z</time>
      </trkpt>
      <trkpt lat="25.5092650" lon="-100.7332460">
        <ele>2115.2</ele>
        <time>2022-08-20T14:17:34Z</time>
      </trkpt>
      <trkpt lat="25.5092680" lon="-100.7332310">
        <ele>2115.3</ele>
        <time>2022-08-20T14:17:36Z</time>
      </trkpt>
      <trkpt lat="25.5092730" lon="-100.7332100">
        <ele>2115.5</ele>
        <time>2022-08-20T14:17:37Z</time>
      </trkpt>
      <trkpt lat="25.5092810" lon="-100.7331670">
        <ele>2115.9</ele>
        <time>2022-08-20T14:17:38Z</time>
      </trkpt>
      <trkpt lat="25.5092840" lon="-100.7331510">
        <ele>2116.0</ele>
        <time>2022-08-20T14:17:39Z</time>
      </trkpt>
      <trkpt lat="25.5092880" lon="-100.7331090">
        <ele>2116.4</ele>
        <time>2022-08-20T14:17:41Z</time>
      </trkpt>
      <trkpt lat="25.5092850" lon="-100.7330750">
        <ele>2116.8</ele>
        <time>2022-08-20T14:17:42Z</time>
      </trkpt>
      <trkpt lat="25.5092820" lon="-100.7330230">
        <ele>2117.4</ele>
        <time>2022-08-20T14:17:43Z</time>
      </trkpt>
      <trkpt lat="25.5092750" lon="-100.7329910">
        <ele>2117.8</ele>
        <time>2022-08-20T14:17:45Z</time>
      </trkpt>
      <trkpt lat="25.5092730" lon="-100.7329810">
        <ele>2118.0</ele>
        <time>2022-08-20T14:17:46Z</time>
      </trkpt>
      <trkpt lat="25.5092730" lon="-100.7329470">
        <ele>2118.5</ele>
        <time>2022-08-20T14:17:47Z</time>
      </trkpt>
      <trkpt lat="25.5092730" lon="-100.7329350">
        <ele>2118.7</ele>
        <time>2022-08-20T14:17:48Z</time>
      </trkpt>
      <trkpt lat="25.5092750" lon="-100.7328990">
        <ele>2119.2</ele>
        <time>2022-08-20T14:17:50Z</time>
      </trkpt>
      <trkpt lat="25.5092770" lon="-100.7328880">
        <ele>2119.4</ele>
        <time>2022-08-20T14:17:51Z</time>
      </trkpt>
      <trkpt lat="25.5092770" lon="-100.7328740">
        <ele>2119.6</ele>
        <time>2022-08-20T14:17:52Z</time>
      </trkpt>
      <trkpt lat="25.5092730" lon="-100.7328570">
        <ele>2119.9</ele>
        <time>2022-08-20T14:17:53Z</time>
      </trkpt>
      <trkpt lat="25.5092730" lon="-100.7328380">
        <ele>2120.2</ele>
        <time>2022-08-20T14:17:55Z</time>
      </trkpt>
      <trkpt lat="25.5092750" lon="-100.7328230">
        <ele>2120.5</ele>
        <time>2022-08-20T14:17:56Z</time>
      </trkpt>
      <trkpt lat="25.5092780" lon="-100.7327950">
        <ele>2120.9</ele>
        <time>2022-08-20T14:17:57Z</time>
      </trkpt>
      <trkpt lat="25.5092800" lon="-100.7327800">
        <ele>2121.2</ele>
        <time>2022-08-20T14:17:59Z</time>
      </trkpt>
      <trkpt lat="25.5092760" lon="-100.7327580">
        <ele>2121.5</ele>
        <time>2022-08-20T14:18:00Z</time>
      </trkpt>
      <trkpt lat="25.5092750" lon="-100.7327480">
        <ele>2121.6</ele>
        <time>2022-08-20T14:18:01Z</time>
      </trkpt>
      <trkpt lat="25.5092730" lon="-100.7327390">
        <ele>2121.8</ele>
        <time>2022-08-20T14:18:02Z</time>
      </trkpt>
      <trkpt lat="25.5092750" lon="-100.7327180">
        <ele>2122.1</ele>
        <time>2022-08-20T14:18:03Z</time>
      </trkpt>
      <trkpt lat="25.5092740" lon="-100.7326990">
        <ele>2122.3</ele>
        <time>2022-08-20T14:18:04Z</time>
      </trkpt>
      <trkpt lat="25.5092720" lon="-100.7326660">
        <ele>2122.7</ele>
        <time>2022-08-20T14:18:05Z</time>
      </trkpt>
      <trkpt lat="25.5092710" lon="-100.7326540">
        <ele>2122.9</ele>
        <time>2022-08-20T14:18:06Z</time>
      </trkpt>
      <trkpt lat="25.5092670" lon="-100.7326180">
        <ele>2123.3</ele>
        <time>2022-08-20T14:18:08Z</time>
      </trkpt>
      <trkpt lat="25.5092660" lon="-100.7326070">
        <ele>2123.4</ele>
        <time>2022-08-20T14:18:09Z</time>
      </trkpt>
      <trkpt lat="25.5092660" lon="-100.7325880">
        <ele>2123.6</ele>
        <time>2022-08-20T14:18:10Z</time>
      </trkpt>
      <trkpt lat="25.5092670" lon="-100.7325750">
        <ele>2123.7</ele>
        <time>2022-08-20T14:18:11Z</time>
      </trkpt>
      <trkpt lat="25.5092710" lon="-100.7325560">
        <ele>2123.9</ele>
        <time>2022-08-20T14:18:12Z</time>
      </trkpt>
      <trkpt lat="25.5092750" lon="-100.7325240">
        <ele>2124.2</ele>
        <time>2022-08-20T14:18:14Z</time>
      </trkpt>
      <trkpt lat="25.5092780" lon="-100.7324890">
        <ele>2124.5</ele>
        <time>2022-08-20T14:18:15Z</time>
      </trkpt>
      <trkpt lat="25.5092860" lon="-100.7324550">
        <ele>2124.8</ele>
        <time>2022-08-20T14:18:16Z</time>
      </trkpt>
      <trkpt lat="25.5093120" lon="-100.7324130">
        <ele>2125.3</ele>
        <time>2022-08-20T14:18:18Z</time>
      </trkpt>
      <trkpt lat="25.5093200" lon="-100.7323990">
        <ele>2125.4</ele>
        <time>2022-08-20T14:18:19Z</time>
      </trkpt>
      <trkpt lat="25.5093280" lon="-100.7323840">
        <ele>2125.6</ele>
        <time>2022-08-20T14:18:20Z</time>
      </trkpt>
      <trkpt lat="25.5093260" lon="-100.7323460">
        <ele>2125.9</ele>
        <time>2022-08-20T14:18:21Z</time>
      </trkpt>
      <trkpt lat="25.5093280" lon="-100.7323350">
        <ele>2126.0</ele>
        <time>2022-08-20T14:18:22Z</time>
      </trkpt>
      <trkpt lat="25.5093310" lon="-100.7323130">
        <ele>2126.2</ele>
        <time>2022-08-20T14:18:23Z</time>
      </trkpt>
      <trkpt lat="25.5093320" lon="-100.7322790">
        <ele>2126.5</ele>
        <time>2022-08-20T14:18:25Z</time>
      </trkpt>
      <trkpt lat="25.5093300" lon="-100.7322390">
        <ele>2126.9</ele>
        <time>2022-08-20T14:18:26Z</time>
      </trkpt>
      <trkpt lat="25.5093300" lon="-100.7322250">
        <ele>2127.0</ele>
        <time>2022-08-20T14:18:27Z</time>
      </trkpt>
      <trkpt lat="25.5093280" lon="-100.7321810">
        <ele>2127.4</ele>
        <time>2022-08-20T14:18:28Z</time>
      </trkpt>
      <trkpt lat="25.5093260" lon="-100.7321650">
        <ele>2127.6</ele>
        <time>2022-08-20T14:18:29Z</time>
      </trkpt>
      <trkpt lat="25.5093180" lon="-100.7321260">
        <ele>2128.0</ele>
        <time>2022-08-20T14:18:30Z</time>
      </trkpt>
      <trkpt lat="25.5093170" lon="-100.7321130">
        <ele>2128.1</ele>
        <time>2022-08-20T14:18:31Z</time>
      </trkpt>
      <trkpt lat="25.5093130" lon="-100.7320750">
        <ele>2128.4</ele>
        <time>2022-08-20T14:18:32Z</time>
      </trkpt>
      <trkpt lat="25.5093100" lon="-100.7320610">
        <ele>2128.6</ele>
        <time>2022-08-20T14:18:33Z</time>
      </trkpt>
      <trkpt lat="25.5093020" lon="-100.7320290">
        <ele>2128.8</ele>
        <time>2022-08-20T14:18:34Z</time>
      </trkpt>
      <trkpt lat="25.5092940" lon="-100.7320030">
        <ele>2129.1</ele>
        <time>2022-08-20T14:18:35Z</time>
      </trkpt>
      <trkpt lat="25.5092850" lon="-100.7319690">
        <ele>2129.4</ele>
        <time>2022-08-20T14:18:37Z</time>
      </trkpt>
      <trkpt lat="25.5092940" lon="-100.7319400">
        <ele>2129.7</ele>
        <time>2022-08-20T14:18:38Z</time>
      </trkpt>
      <trkpt lat="25.5092980" lon="-100.7319310">
        <ele>2129.8</ele>
        <time>2022-08-20T14:18:39Z</time>
      </trkpt>
      <trkpt lat="25.5093120" lon="-100.7318980">
        <ele>2130.1</ele>
        <time>2022-08-20T14:18:40Z</time>
      </trkpt>
      <trkpt lat="25.5093160" lon="-100.7318890">
        <ele>2130.2</ele>
        <time>2022-08-20T14:18:41Z</time>
      </trkpt>
      <trkpt lat="25.5093250" lon="-100.7318690">
        <ele>2130.4</ele>
        <time>2022-08-20T14:18:42Z</time>
      </trkpt>
      <trkpt lat="25.5093310" lon="-100.7318430">
        <ele>2130.6</ele>
        <time>2022-08-20T14:18:44Z</time>
      </trkpt>
      <trkpt lat="25.5093400" lon="-100.7318020">
        <ele>2131.0</ele>
        <time>2022-08-20T14:18:45Z</time>
      </trkpt>
      <trkpt lat="25.5093430" lon="-100.7317890">
        <ele>2131.1</ele>
        <time>2022-08-20T14:18:46Z</time>
      </trkpt>
      <trkpt lat="25.5093490" lon="-100.7317500">
        <ele>2131.4</ele>
        <time>2022-08-20T14:18:47Z</time>
      </trkpt>
      <trkpt lat="25.5093500" lon="-100.7317330">
        <ele>2131.6</ele>
        <time>2022-08-20T14:18:48Z</time>
      </trkpt>
      <trkpt lat="25.5093710" lon="-100.7316850">
        <ele>2131.9</ele>
        <time>2022-08-20T14:18:50Z</time>
      </trkpt>
      <trkpt lat="25.5093840" lon="-100.7316570">
        <ele>2132.2</ele>
        <time>2022-08-20T14:18:51Z</time>
      </trkpt>
      <trkpt lat="25.5093940" lon="-100.7316300">
        <ele>2132.3</ele>
        <time>2022-08-20T14:18:52Z</time>
      </trkpt>
      <trkpt lat="25.5094010" lon="-100.7316000">
        <ele>2132.5</ele>
        <time>2022-08-20T14:18:54Z</time>
      </trkpt>
      <trkpt lat="25.5094230" lon="-100.7315540">
        <ele>2132.8</ele>
        <time>2022-08-20T14:18:55Z</time>
      </trkpt>
      <trkpt lat="25.5094350" lon="-100.7315250">
        <ele>2133.0</ele>
        <time>2022-08-20T14:18:57Z</time>
      </trkpt>
      <trkpt lat="25.5094440" lon="-100.7314940">
        <ele>2133.2</ele>
        <time>2022-08-20T14:18:58Z</time>
      </trkpt>
      <trkpt lat="25.5094580" lon="-100.7314500">
        <ele>2133.4</ele>
        <time>2022-08-20T14:18:59Z</time>
      </trkpt>
      <trkpt lat="25.5094670" lon="-100.7314200">
        <ele>2133.6</ele>
        <time>2022-08-20T14:19:00Z</time>
      </trkpt>
      <trkpt lat="25.5094730" lon="-100.7313760">
        <ele>2133.8</ele>
        <time>2022-08-20T14:19:01Z</time>
      </trkpt>
      <trkpt lat="25.5094750" lon="-100.7313610">
        <ele>2133.9</ele>
        <time>2022-08-20T14:19:02Z</time>
      </trkpt>
      <trkpt lat="25.5094780" lon="-100.7313150">
        <ele>2134.2</ele>
        <time>2022-08-20T14:19:04Z</time>
      </trkpt>
      <trkpt lat="25.5094760" lon="-100.7312950">
        <ele>2134.3</ele>
        <time>2022-08-20T14:19:05Z</time>
      </trkpt>
      <trkpt lat="25.5094710" lon="-100.7312710">
        <ele>2134.5</ele>
        <time>2022-08-20T14:19:07Z</time>
      </trkpt>
      <trkpt lat="25.5094690" lon="-100.7312530">
        <ele>2134.6</ele>
        <time>2022-08-20T14:19:08Z</time>
      </trkpt>
      <trkpt lat="25.5094650" lon="-100.7312280">
        <ele>2134.8</ele>
        <time>2022-08-20T14:19:10Z</time>
      </trkpt>
      <trkpt lat="25.5094600" lon="-100.7311980">
        <ele>2135.0</ele>
        <time>2022-08-20T14:19:11Z</time>
      </trkpt>
      <trkpt lat="25.5094570" lon="-100.7311760">
        <ele>2135.2</ele>
        <time>2022-08-20T14:19:12Z</time>
      </trkpt>
      <trkpt lat="25.5094540" lon="-100.7311430">
        <ele>2135.4</ele>
        <time>2022-08-20T14:19:14Z</time>
      </trkpt>
      <trkpt lat="25.5094480" lon="-100.7311030">
        <ele>2135.7</ele>
        <time>2022-08-20T14:19:15Z</time>
      </trkpt>
      <trkpt lat="25.5094470" lon="-100.7310890">
        <ele>2135.8</ele>
        <time>2022-08-20T14:19:16Z</time>
      </trkpt>
      <trkpt lat="25.5094420" lon="-100.7310490">
        <ele>2136.1</ele>
        <time>2022-08-20T14:19:17Z</time>
      </trkpt>
      <trkpt lat="25.5094410" lon="-100.7310050">
        <ele>2136.4</ele>
        <time>2022-08-20T14:19:19Z</time>
      </trkpt>
      <trkpt lat="25.5094330" lon="-100.7309550">
        <ele>2136.6</ele>
        <time>2022-08-20T14:19:20Z</time>
      </trkpt>
      <trkpt lat="25.5094320" lon="-100.7309080">
        <ele>2136.8</ele>
        <time>2022-08-20T14:19:22Z</time>
      </trkpt>
      <trkpt lat="25.5094300" lon="-100.7308700">
        <ele>2137.0</ele>
        <time>2022-08-20T14:19:23Z</time>
      </trkpt>
      <trkpt lat="25.5094260" lon="-100.7308280">
        <ele>2137.0</ele>
        <time>2022-08-20T14:19:24Z</time>
      </trkpt>
      <trkpt lat="25.5094240" lon="-100.7307970">
        <ele>2137.1</ele>
        <time>2022-08-20T14:19:25Z</time>
      </trkpt>
      <trkpt lat="25.5094240" lon="-100.7306900">
        <ele>2136.9</ele>
        <time>2022-08-20T14:19:27Z</time>
      </trkpt>
      <trkpt lat="25.5094270" lon="-100.7306150">
        <ele>2136.6</ele>
        <time>2022-08-20T14:19:28Z</time>
      </trkpt>
      <trkpt lat="25.5094300" lon="-100.7305400">
        <ele>2136.3</ele>
        <time>2022-08-20T14:19:29Z</time>
      </trkpt>
      <trkpt lat="25.5094330" lon="-100.7304640">
        <ele>2136.1</ele>
        <time>2022-08-20T14:19:30Z</time>
      </trkpt>
      <trkpt lat="25.5094340" lon="-100.7303760">
        <ele>2136.0</ele>
        <time>2022-08-20T14:19:31Z</time>
      </trkpt>
      <trkpt lat="25.5094300" lon="-100.7303180">
        <ele>2136.0</ele>
        <time>2022-08-20T14:19:32Z</time>
      </trkpt>
      <trkpt lat="25.5094170" lon="-100.7302760">
        <ele>2136.2</ele>
        <time>2022-08-20T14:19:33Z</time>
      </trkpt>
      <trkpt lat="25.5094110" lon="-100.7302300">
        <ele>2136.3</ele>
        <time>2022-08-20T14:19:34Z</time>
      </trkpt>
      <trkpt lat="25.5094100" lon="-100.7301870">
        <ele>2136.6</ele>
        <time>2022-08-20T14:19:35Z</time>
      </trkpt>
      <trkpt lat="25.5094130" lon="-100.7301350">
        <ele>2136.9</ele>
        <time>2022-08-20T14:19:37Z</time>
      </trkpt>
      <trkpt lat="25.5094160" lon="-100.7301150">
        <ele>2137.1</ele>
        <time>2022-08-20T14:19:38Z</time>
      </trkpt>
      <trkpt lat="25.5094190" lon="-100.7300950">
        <ele>2137.2</ele>
        <time>2022-08-20T14:19:39Z</time>
      </trkpt>
      <trkpt lat="25.5094240" lon="-100.7300640">
        <ele>2137.5</ele>
        <time>2022-08-20T14:19:40Z</time>
      </trkpt>
      <trkpt lat="25.5094330" lon="-100.7300310">
        <ele>2137.9</ele>
        <time>2022-08-20T14:19:42Z</time>
      </trkpt>
      <trkpt lat="25.5094320" lon="-100.7300160">
        <ele>2138.0</ele>
        <time>2022-08-20T14:19:43Z</time>
      </trkpt>
      <trkpt lat="25.5094250" lon="-100.7300000">
        <ele>2138.2</ele>
        <time>2022-08-20T14:19:44Z</time>
      </trkpt>
      <trkpt lat="25.5094210" lon="-100.7299720">
        <ele>2138.6</ele>
        <time>2022-08-20T14:19:46Z</time>
      </trkpt>
      <trkpt lat="25.5094260" lon="-100.7299460">
        <ele>2138.9</ele>
        <time>2022-08-20T14:19:48Z</time>
      </trkpt>
      <trkpt lat="25.5094290" lon="-100.7299290">
        <ele>2139.1</ele>
        <time>2022-08-20T14:19:50Z</time>
      </trkpt>
      <trkpt lat="25.5094310" lon="-100.7299100">
        <ele>2139.4</ele>
        <time>2022-08-20T14:19:51Z</time>
      </trkpt>
      <trkpt lat="25.5094330" lon="-100.7298870">
        <ele>2139.7</ele>
        <time>2022-08-20T14:19:53Z</time>
      </trkpt>
      <trkpt lat="25.5094350" lon="-100.7298740">
        <ele>2139.9</ele>
        <time>2022-08-20T14:19:54Z</time>
      </trkpt>
      <trkpt lat="25.5094370" lon="-100.7298610">
        <ele>2140.1</ele>
        <time>2022-08-20T14:19:55Z</time>
      </trkpt>
      <trkpt lat="25.5094410" lon="-100.7298300">
        <ele>2140.5</ele>
        <time>2022-08-20T14:19:56Z</time>
      </trkpt>
      <trkpt lat="25.5094410" lon="-100.7298190">
        <ele>2140.7</ele>
        <time>2022-08-20T14:19:57Z</time>
      </trkpt>
      <trkpt lat="25.5094380" lon="-100.7297950">
        <ele>2141.0</ele>
        <time>2022-08-20T14:19:58Z</time>
      </trkpt>
      <trkpt lat="25.5094230" lon="-100.7297870">
        <ele>2141.3</ele>
        <time>2022-08-20T14:19:59Z</time>
      </trkpt>
      <trkpt lat="25.5094290" lon="-100.7297540">
        <ele>2141.8</ele>
        <time>2022-08-20T14:20:00Z</time>
      </trkpt>
      <trkpt lat="25.5094320" lon="-100.7297420">
        <ele>2142.0</ele>
        <time>2022-08-20T14:20:01Z</time>
      </trkpt>
      <trkpt lat="25.5094340" lon="-100.7297000">
        <ele>2142.5</ele>
        <time>2022-08-20T14:20:03Z</time>
      </trkpt>
      <trkpt lat="25.5094330" lon="-100.7296840">
        <ele>2142.8</ele>
        <time>2022-08-20T14:20:04Z</time>
      </trkpt>
      <trkpt lat="25.5094290" lon="-100.7296490">
        <ele>2143.2</ele>
        <time>2022-08-20T14:20:05Z</time>
      </trkpt>
      <trkpt lat="25.5094290" lon="-100.7296380">
        <ele>2143.4</ele>
        <time>2022-08-20T14:20:06Z</time>
      </trkpt>
      <trkpt lat="25.5094340" lon="-100.7296130">
        <ele>2143.6</ele>
        <time>2022-08-20T14:20:07Z</time>
      </trkpt>
      <trkpt lat="25.5094320" lon="-100.7295920">
        <ele>2143.9</ele>
        <time>2022-08-20T14:20:09Z</time>
      </trkpt>
      <trkpt lat="25.5094320" lon="-100.7295560">
        <ele>2144.3</ele>
        <time>2022-08-20T14:20:10Z</time>
      </trkpt>
      <trkpt lat="25.5094330" lon="-100.7295430">
        <ele>2144.5</ele>
        <time>2022-08-20T14:20:11Z</time>
      </trkpt>
      <trkpt lat="25.5094370" lon="-100.7295100">
        <ele>2144.8</ele>
        <time>2022-08-20T14:20:12Z</time>
      </trkpt>
      <trkpt lat="25.5094410" lon="-100.7294770">
        <ele>2145.2</ele>
        <time>2022-08-20T14:20:13Z</time>
      </trkpt>
      <trkpt lat="25.5094440" lon="-100.7294660">
        <ele>2145.3</ele>
        <time>2022-08-20T14:20:14Z</time>
      </trkpt>
      <trkpt lat="25.5094470" lon="-100.7294410">
        <ele>2145.5</ele>
        <time>2022-08-20T14:20:15Z</time>
      </trkpt>
      <trkpt lat="25.5094490" lon="-100.7294130">
        <ele>2145.8</ele>
        <time>2022-08-20T14:20:17Z</time>
      </trkpt>
      <trkpt lat="25.5094510" lon="-100.7293750">
        <ele>2146.2</ele>
        <time>2022-08-20T14:20:18Z</time>
      </trkpt>
      <trkpt lat="25.5094520" lon="-100.7293640">
        <ele>2146.4</ele>
        <time>2022-08-20T14:20:19Z</time>
      </trkpt>
      <trkpt lat="25.5094550" lon="-100.7293290">
        <ele>2146.7</ele>
        <time>2022-08-20T14:20:20Z</time>
      </trkpt>
      <trkpt lat="25.5094570" lon="-100.7293210">
        <ele>2146.8</ele>
        <time>2022-08-20T14:20:21Z</time>
      </trkpt>
      <trkpt lat="25.5094600" lon="-100.7292900">
        <ele>2147.2</ele>
        <time>2022-08-20T14:20:23Z</time>
      </trkpt>
      <trkpt lat="25.5094600" lon="-100.7292710">
        <ele>2147.4</ele>
        <time>2022-08-20T14:20:24Z</time>
      </trkpt>
      <trkpt lat="25.5094620" lon="-100.7292530">
        <ele>2147.6</ele>
        <time>2022-08-20T14:20:25Z</time>
      </trkpt>
      <trkpt lat="25.5094670" lon="-100.7292220">
        <ele>2148.0</ele>
        <time>2022-08-20T14:20:26Z</time>
      </trkpt>
      <trkpt lat="25.5094700" lon="-100.7292080">
        <ele>2148.2</ele>
        <time>2022-08-20T14:20:27Z</time>
      </trkpt>
      <trkpt lat="25.5094780" lon="-100.7291890">
        <ele>2148.5</ele>
        <time>2022-08-20T14:20:29Z</time>
      </trkpt>
      <trkpt lat="25.5094800" lon="-100.7291790">
        <ele>2148.6</ele>
        <time>2022-08-20T14:20:30Z</time>
      </trkpt>
      <trkpt lat="25.5094800" lon="-100.7291690">
        <ele>2148.7</ele>
        <time>2022-08-20T14:20:31Z</time>
      </trkpt>
      <trkpt lat="25.5094830" lon="-100.7291550">
        <ele>2148.9</ele>
        <time>2022-08-20T14:20:32Z</time>
      </trkpt>
      <trkpt lat="25.5094900" lon="-100.7291360">
        <ele>2149.2</ele>
        <time>2022-08-20T14:20:34Z</time>
      </trkpt>
      <trkpt lat="25.5094980" lon="-100.7291160">
        <ele>2149.5</ele>
        <time>2022-08-20T14:20:35Z</time>
      </trkpt>
      <trkpt lat="25.5095020" lon="-100.7291050">
        <ele>2149.7</ele>
        <time>2022-08-20T14:20:36Z</time>
      </trkpt>
      <trkpt lat="25.5095060" lon="-100.7290940">
        <ele>2149.8</ele>
        <time>2022-08-20T14:20:37Z</time>
      </trkpt>
      <trkpt lat="25.5095180" lon="-100.7290650">
        <ele>2150.3</ele>
        <time>2022-08-20T14:20:38Z</time>
      </trkpt>
      <trkpt lat="25.5095270" lon="-100.7290370">
        <ele>2150.7</ele>
        <time>2022-08-20T14:20:39Z</time>
      </trkpt>
      <trkpt lat="25.5095300" lon="-100.7290270">
        <ele>2150.8</ele>
        <time>2022-08-20T14:20:40Z</time>
      </trkpt>
      <trkpt lat="25.5095370" lon="-100.7290080">
        <ele>2151.1</ele>
        <time>2022-08-20T14:20:41Z</time>
      </trkpt>
      <trkpt lat="25.5095480" lon="-100.7289850">
        <ele>2151.5</ele>
        <time>2022-08-20T14:20:43Z</time>
      </trkpt>
      <trkpt lat="25.5095690" lon="-100.7289470">
        <ele>2152.1</ele>
        <time>2022-08-20T14:20:44Z</time>
      </trkpt>
      <trkpt lat="25.5095760" lon="-100.7289280">
        <ele>2152.4</ele>
        <time>2022-08-20T14:20:46Z</time>
      </trkpt>
      <trkpt lat="25.5095810" lon="-100.7289160">
        <ele>2152.5</ele>
        <time>2022-08-20T14:20:47Z</time>
      </trkpt>
      <trkpt lat="25.5095850" lon="-100.7288970">
        <ele>2152.8</ele>
        <time>2022-08-20T14:20:48Z</time>
      </trkpt>
      <trkpt lat="25.5095940" lon="-100.7288690">
        <ele>2153.2</ele>
        <time>2022-08-20T14:20:50Z</time>
      </trkpt>
      <trkpt lat="25.5096100" lon="-100.7288340">
        <ele>2153.7</ele>
        <time>2022-08-20T14:20:51Z</time>
      </trkpt>
      <trkpt lat="25.5096150" lon="-100.7288230">
        <ele>2153.8</ele>
        <time>2022-08-20T14:20:52Z</time>
      </trkpt>
      <trkpt lat="25.5096280" lon="-100.7287960">
        <ele>2154.2</ele>
        <time>2022-08-20T14:20:54Z</time>
      </trkpt>
      <trkpt lat="25.5096320" lon="-100.7287870">
        <ele>2154.3</ele>
        <time>2022-08-20T14:20:55Z</time>
      </trkpt>
      <trkpt lat="25.5096440" lon="-100.7287560">
        <ele>2154.7</ele>
        <time>2022-08-20T14:20:56Z</time>
      </trkpt>
      <trkpt lat="25.5096510" lon="-100.7287430">
        <ele>2154.9</ele>
        <time>2022-08-20T14:20:57Z</time>
      </trkpt>
      <trkpt lat="25.5096640" lon="-100.7287160">
        <ele>2155.3</ele>
        <time>2022-08-20T14:20:59Z</time>
      </trkpt>
      <trkpt lat="25.5096700" lon="-100.7286940">
        <ele>2155.6</ele>
        <time>2022-08-20T14:21:00Z</time>
      </trkpt>
      <trkpt lat="25.5096760" lon="-100.7286810">
        <ele>2155.8</ele>
        <time>2022-08-20T14:21:01Z</time>
      </trkpt>
      <trkpt lat="25.5096850" lon="-100.7286480">
        <ele>2156.2</ele>
        <time>2022-08-20T14:21:02Z</time>
      </trkpt>
      <trkpt lat="25.5096880" lon="-100.7286380">
        <ele>2156.3</ele>
        <time>2022-08-20T14:21:03Z</time>
      </trkpt>
      <trkpt lat="25.5096960" lon="-100.7286180">
        <ele>2156.6</ele>
        <time>2022-08-20T14:21:04Z</time>
      </trkpt>
      <trkpt lat="25.5097130" lon="-100.7286000">
        <ele>2156.9</ele>
        <time>2022-08-20T14:21:06Z</time>
      </trkpt>
      <trkpt lat="25.5097240" lon="-100.7285980">
        <ele>2157.0</ele>
        <time>2022-08-20T14:21:07Z</time>
      </trkpt>
      <trkpt lat="25.5097330" lon="-100.7285860">
        <ele>2157.2</ele>
        <time>2022-08-20T14:21:08Z</time>
      </trkpt>
      <trkpt lat="25.5097350" lon="-100.7285730">
        <ele>2157.4</ele>
        <time>2022-08-20T14:21:10Z</time>
      </trkpt>
      <trkpt lat="25.5097360" lon="-100.7285630">
        <ele>2157.5</ele>
        <time>2022-08-20T14:21:11Z</time>
      </trkpt>
      <trkpt lat="25.5097350" lon="-100.7285510">
        <ele>2157.7</ele>
        <time>2022-08-20T14:21:12Z</time>
      </trkpt>
      <trkpt lat="25.5097350" lon="-100.7285360">
        <ele>2157.9</ele>
        <time>2022-08-20T14:21:13Z</time>
      </trkpt>
      <trkpt lat="25.5097350" lon="-100.7285210">
        <ele>2158.1</ele>
        <time>2022-08-20T14:21:14Z</time>
      </trkpt>
      <trkpt lat="25.5097340" lon="-100.7285020">
        <ele>2158.3</ele>
        <time>2022-08-20T14:21:15Z</time>
      </trkpt>
      <trkpt lat="25.5097330" lon="-100.7284710">
        <ele>2158.7</ele>
        <time>2022-08-20T14:21:17Z</time>
      </trkpt>
      <trkpt lat="25.5097310" lon="-100.7284610">
        <ele>2158.8</ele>
        <time>2022-08-20T14:21:18Z</time>
      </trkpt>
      <trkpt lat="25.5097190" lon="-100.7284240">
        <ele>2159.3</ele>
        <time>2022-08-20T14:21:20Z</time>
      </trkpt>
      <trkpt lat="25.5097160" lon="-100.7284140">
        <ele>2159.4</ele>
        <time>2022-08-20T14:21:21Z</time>
      </trkpt>
      <trkpt lat="25.5097080" lon="-100.7283740">
        <ele>2159.9</ele>
        <time>2022-08-20T14:21:22Z</time>
      </trkpt>
      <trkpt lat="25.5097050" lon="-100.7283600">
        <ele>2160.1</ele>
        <time>2022-08-20T14:21:23Z</time>
      </trkpt>
      <trkpt lat="25.5097000" lon="-100.7283230">
        <ele>2160.5</ele>
        <time>2022-08-20T14:21:25Z</time>
      </trkpt>
      <trkpt lat="25.5096990" lon="-100.7283120">
        <ele>2160.6</ele>
        <time>2022-08-20T14:21:26Z</time>
      </trkpt>
      <trkpt lat="25.5096970" lon="-100.7282750">
        <ele>2161.0</ele>
        <time>2022-08-20T14:21:27Z</time>
      </trkpt>
      <trkpt lat="25.5096970" lon="-100.7282620">
        <ele>2161.2</ele>
        <time>2022-08-20T14:21:28Z</time>
      </trkpt>
      <trkpt lat="25.5096970" lon="-100.7282220">
        <ele>2161.5</ele>
        <time>2022-08-20T14:21:30Z</time>
      </trkpt>
      <trkpt lat="25.5096970" lon="-100.7282110">
        <ele>2161.6</ele>
        <time>2022-08-20T14:21:31Z</time>
      </trkpt>
      <trkpt lat="25.5096980" lon="-100.7281810">
        <ele>2161.9</ele>
        <time>2022-08-20T14:21:32Z</time>
      </trkpt>
      <trkpt lat="25.5096980" lon="-100.7281680">
        <ele>2162.0</ele>
        <time>2022-08-20T14:21:33Z</time>
      </trkpt>
      <trkpt lat="25.5096960" lon="-100.7281330">
        <ele>2162.3</ele>
        <time>2022-08-20T14:21:34Z</time>
      </trkpt>
      <trkpt lat="25.5096960" lon="-100.7281190">
        <ele>2162.4</ele>
        <time>2022-08-20T14:21:35Z</time>
      </trkpt>
      <trkpt lat="25.5096960" lon="-100.7280670">
        <ele>2162.7</ele>
        <time>2022-08-20T14:21:37Z</time>
      </trkpt>
      <trkpt lat="25.5096950" lon="-100.7280510">
        <ele>2162.8</ele>
        <time>2022-08-20T14:21:38Z</time>
      </trkpt>
      <trkpt lat="25.5096930" lon="-100.7280360">
        <ele>2162.9</ele>
        <time>2022-08-20T14:21:39Z</time>
      </trkpt>
      <trkpt lat="25.5096820" lon="-100.7280000">
        <ele>2163.1</ele>
        <time>2022-08-20T14:21:40Z</time>
      </trkpt>
      <trkpt lat="25.5096730" lon="-100.7279710">
        <ele>2163.3</ele>
        <time>2022-08-20T14:21:41Z</time>
      </trkpt>
      <trkpt lat="25.5096620" lon="-100.7279280">
        <ele>2163.5</ele>
        <time>2022-08-20T14:21:43Z</time>
      </trkpt>
      <trkpt lat="25.5096570" lon="-100.7279110">
        <ele>2163.6</ele>
        <time>2022-08-20T14:21:44Z</time>
      </trkpt>
      <trkpt lat="25.5096420" lon="-100.7278720">
        <ele>2163.8</ele>
        <time>2022-08-20T14:21:46Z</time>
      </trkpt>
      <trkpt lat="25.5096290" lon="-100.7278360">
        <ele>2164.1</ele>
        <time>2022-08-20T14:21:47Z</time>
      </trkpt>
      <trkpt lat="25.5096260" lon="-100.7278240">
        <ele>2164.2</ele>
        <time>2022-08-20T14:21:48Z</time>
      </trkpt>
      <trkpt lat="25.5096140" lon="-100.7277800">
        <ele>2164.5</ele>
        <time>2022-08-20T14:21:49Z</time>
      </trkpt>
      <trkpt lat="25.5096000" lon="-100.7277410">
        <ele>2164.8</ele>
        <time>2022-08-20T14:21:50Z</time>
      </trkpt>
      <trkpt lat="25.5095950" lon="-100.7277250">
        <ele>2164.9</ele>
        <time>2022-08-20T14:21:51Z</time>
      </trkpt>
      <trkpt lat="25.5095840" lon="-100.7276840">
        <ele>2165.2</ele>
        <time>2022-08-20T14:21:52Z</time>
      </trkpt>
      <trkpt lat="25.5095810" lon="-100.7276710">
        <ele>2165.3</ele>
        <time>2022-08-20T14:21:53Z</time>
      </trkpt>
      <trkpt lat="25.5095720" lon="-100.7276310">
        <ele>2165.6</ele>
        <time>2022-08-20T14:21:54Z</time>
      </trkpt>
      <trkpt lat="25.5095690" lon="-100.7276170">
        <ele>2165.6</ele>
        <time>2022-08-20T14:21:55Z</time>
      </trkpt>
      <trkpt lat="25.5095610" lon="-100.7275780">
        <ele>2165.9</ele>
        <time>2022-08-20T14:21:57Z</time>
      </trkpt>
      <trkpt lat="25.5095570" lon="-100.7275460">
        <ele>2166.1</ele>
        <time>2022-08-20T14:21:58Z</time>
      </trkpt>
      <trkpt lat="25.5095520" lon="-100.7275070">
        <ele>2166.2</ele>
        <time>2022-08-20T14:21:59Z</time>
      </trkpt>
      <trkpt lat="25.5095500" lon="-100.7274920">
        <ele>2166.3</ele>
        <time>2022-08-20T14:22:00Z</time>
      </trkpt>
      <trkpt lat="25.5095460" lon="-100.7274600">
        <ele>2166.4</ele>
        <time>2022-08-20T14:22:01Z</time>
      </trkpt>
      <trkpt lat="25.5095400" lon="-100.7274250">
        <ele>2166.6</ele>
        <time>2022-08-20T14:22:02Z</time>
      </trkpt>
      <trkpt lat="25.5095300" lon="-100.7273650">
        <ele>2166.7</ele>
        <time>2022-08-20T14:22:04Z</time>
      </trkpt>
      <trkpt lat="25.5095230" lon="-100.7273360">
        <ele>2166.7</ele>
        <time>2022-08-20T14:22:05Z</time>
      </trkpt>
      <trkpt lat="25.5095160" lon="-100.7272990">
        <ele>2166.8</ele>
        <time>2022-08-20T14:22:06Z</time>
      </trkpt>
      <trkpt lat="25.5095000" lon="-100.7271970">
        <ele>2166.7</ele>
        <time>2022-08-20T14:22:07Z</time>
      </trkpt>
      <trkpt lat="25.5094950" lon="-100.7270960">
        <ele>2166.3</ele>
        <time>2022-08-20T14:22:08Z</time>
      </trkpt>
      <trkpt lat="25.5095020" lon="-100.7269970">
        <ele>2165.9</ele>
        <time>2022-08-20T14:22:09Z</time>
      </trkpt>
      <trkpt lat="25.5095150" lon="-100.7269030">
        <ele>2165.6</ele>
        <time>2022-08-20T14:22:10Z</time>
      </trkpt>
      <trkpt lat="25.5095190" lon="-100.7268070">
        <ele>2165.6</ele>
        <time>2022-08-20T14:22:11Z</time>
      </trkpt>
      <trkpt lat="25.5095120" lon="-100.7267730">
        <ele>2165.7</ele>
        <time>2022-08-20T14:22:12Z</time>
      </trkpt>
      <trkpt lat="25.5094830" lon="-100.7267920">
        <ele>2165.8</ele>
        <time>2022-08-20T14:22:13Z</time>
      </trkpt>
      <trkpt lat="25.5094430" lon="-100.7267400">
        <ele>2166.4</ele>
        <time>2022-08-20T14:22:14Z</time>
      </trkpt>
      <trkpt lat="25.5094160" lon="-100.7267180">
        <ele>2166.7</ele>
        <time>2022-08-20T14:22:15Z</time>
      </trkpt>
      <trkpt lat="25.5093970" lon="-100.7267030">
        <ele>2167.0</ele>
        <time>2022-08-20T14:22:16Z</time>
      </trkpt>
      <trkpt lat="25.5093780" lon="-100.7266920">
        <ele>2167.3</ele>
        <time>2022-08-20T14:22:18Z</time>
      </trkpt>
      <trkpt lat="25.5093590" lon="-100.7266620">
        <ele>2167.8</ele>
        <time>2022-08-20T14:22:19Z</time>
      </trkpt>
      <trkpt lat="25.5093440" lon="-100.7266310">
        <ele>2168.3</ele>
        <time>2022-08-20T14:22:20Z</time>
      </trkpt>
      <trkpt lat="25.5093380" lon="-100.7266200">
        <ele>2168.5</ele>
        <time>2022-08-20T14:22:21Z</time>
      </trkpt>
      <trkpt lat="25.5093280" lon="-100.7266040">
        <ele>2168.8</ele>
        <time>2022-08-20T14:22:22Z</time>
      </trkpt>
      <trkpt lat="25.5093120" lon="-100.7265840">
        <ele>2169.2</ele>
        <time>2022-08-20T14:22:24Z</time>
      </trkpt>
      <trkpt lat="25.5092950" lon="-100.7265500">
        <ele>2169.7</ele>
        <time>2022-08-20T14:22:25Z</time>
      </trkpt>
      <trkpt lat="25.5092900" lon="-100.7265400">
        <ele>2169.9</ele>
        <time>2022-08-20T14:22:26Z</time>
      </trkpt>
      <trkpt lat="25.5092850" lon="-100.7265210">
        <ele>2170.1</ele>
        <time>2022-08-20T14:22:27Z</time>
      </trkpt>
      <trkpt lat="25.5092760" lon="-100.7264980">
        <ele>2170.5</ele>
        <time>2022-08-20T14:22:29Z</time>
      </trkpt>
      <trkpt lat="25.5092690" lon="-100.7264690">
        <ele>2170.9</ele>
        <time>2022-08-20T14:22:30Z</time>
      </trkpt>
      <trkpt lat="25.5092660" lon="-100.7264550">
        <ele>2171.0</ele>
        <time>2022-08-20T14:22:31Z</time>
      </trkpt>
      <trkpt lat="25.5092610" lon="-100.7264220">
        <ele>2171.5</ele>
        <time>2022-08-20T14:22:32Z</time>
      </trkpt>
      <trkpt lat="25.5092590" lon="-100.7264080">
        <ele>2171.6</ele>
        <time>2022-08-20T14:22:33Z</time>
      </trkpt>
      <trkpt lat="25.5092550" lon="-100.7263690">
        <ele>2172.1</ele>
        <time>2022-08-20T14:22:34Z</time>
      </trkpt>
      <trkpt lat="25.5092520" lon="-100.7263560">
        <ele>2172.3</ele>
        <time>2022-08-20T14:22:35Z</time>
      </trkpt>
      <trkpt lat="25.5092420" lon="-100.7263200">
        <ele>2172.7</ele>
        <time>2022-08-20T14:22:37Z</time>
      </trkpt>
      <trkpt lat="25.5092400" lon="-100.7263090">
        <ele>2172.8</ele>
        <time>2022-08-20T14:22:38Z</time>
      </trkpt>
      <trkpt lat="25.5092350" lon="-100.7262710">
        <ele>2173.3</ele>
        <time>2022-08-20T14:22:39Z</time>
      </trkpt>
      <trkpt lat="25.5092330" lon="-100.7262570">
        <ele>2173.4</ele>
        <time>2022-08-20T14:22:40Z</time>
      </trkpt>
      <trkpt lat="25.5092390" lon="-100.7262180">
        <ele>2173.9</ele>
        <time>2022-08-20T14:22:41Z</time>
      </trkpt>
      <trkpt lat="25.5092440" lon="-100.7262060">
        <ele>2174.1</ele>
        <time>2022-08-20T14:22:42Z</time>
      </trkpt>
      <trkpt lat="25.5092520" lon="-100.7261860">
        <ele>2174.3</ele>
        <time>2022-08-20T14:22:43Z</time>
      </trkpt>
      <trkpt lat="25.5092560" lon="-100.7261650">
        <ele>2174.6</ele>
        <time>2022-08-20T14:22:45Z</time>
      </trkpt>
      <trkpt lat="25.5092440" lon="-100.7261380">
        <ele>2174.9</ele>
        <time>2022-08-20T14:22:46Z</time>
      </trkpt>
      <trkpt lat="25.5092410" lon="-100.7261250">
        <ele>2175.1</ele>
        <time>2022-08-20T14:22:47Z</time>
      </trkpt>
      <trkpt lat="25.5092320" lon="-100.7260900">
        <ele>2175.5</ele>
        <time>2022-08-20T14:22:48Z</time>
      </trkpt>
      <trkpt lat="25.5092310" lon="-100.7260790">
        <ele>2175.7</ele>
        <time>2022-08-20T14:22:49Z</time>
      </trkpt>
      <trkpt lat="25.5092220" lon="-100.7260430">
        <ele>2176.1</ele>
        <time>2022-08-20T14:22:50Z</time>
      </trkpt>
      <trkpt lat="25.5092190" lon="-100.7260320">
        <ele>2176.3</ele>
        <time>2022-08-20T14:22:51Z</time>
      </trkpt>
      <trkpt lat="25.5092090" lon="-100.7259970">
        <ele>2176.7</ele>
        <time>2022-08-20T14:22:52Z</time>
      </trkpt>
      <trkpt lat="25.5092060" lon="-100.7259850">
        <ele>2176.9</ele>
        <time>2022-08-20T14:22:53Z</time>
      </trkpt>
      <trkpt lat="25.5091990" lon="-100.7259500">
        <ele>2177.3</ele>
        <time>2022-08-20T14:22:54Z</time>
      </trkpt>
      <trkpt lat="25.5091960" lon="-100.7259390">
        <ele>2177.5</ele>
        <time>2022-08-20T14:22:55Z</time>
      </trkpt>
      <trkpt lat="25.5091880" lon="-100.7259180">
        <ele>2177.8</ele>
        <time>2022-08-20T14:22:56Z</time>
      </trkpt>
      <trkpt lat="25.5091680" lon="-100.7258870">
        <ele>2178.3</ele>
        <time>2022-08-20T14:22:58Z</time>
      </trkpt>
      <trkpt lat="25.5091460" lon="-100.7258520">
        <ele>2178.9</ele>
        <time>2022-08-20T14:22:59Z</time>
      </trkpt>
      <trkpt lat="25.5091360" lon="-100.7258410">
        <ele>2179.1</ele>
        <time>2022-08-20T14:23:00Z</time>
      </trkpt>
      <trkpt lat="25.5091070" lon="-100.7258070">
        <ele>2179.8</ele>
        <time>2022-08-20T14:23:01Z</time>
      </trkpt>
      <trkpt lat="25.5090950" lon="-100.7257940">
        <ele>2180.0</ele>
        <time>2022-08-20T14:23:02Z</time>
      </trkpt>
      <trkpt lat="25.5090800" lon="-100.7257790">
        <ele>2180.3</ele>
        <time>2022-08-20T14:23:04Z</time>
      </trkpt>
      <trkpt lat="25.5090730" lon="-100.7257720">
        <ele>2180.5</ele>
        <time>2022-08-20T14:23:05Z</time>
      </trkpt>
      <trkpt lat="25.5090640" lon="-100.7257640">
        <ele>2180.7</ele>
        <time>2022-08-20T14:23:06Z</time>
      </trkpt>
      <trkpt lat="25.5090590" lon="-100.7257650">
        <ele>2180.7</ele>
        <time>2022-08-20T14:23:08Z</time>
      </trkpt>
      <trkpt lat="25.5090470" lon="-100.7257640">
        <ele>2180.9</ele>
        <time>2022-08-20T14:23:09Z</time>
      </trkpt>
      <trkpt lat="25.5090260" lon="-100.7257660">
        <ele>2181.3</ele>
        <time>2022-08-20T14:23:10Z</time>
      </trkpt>
      <trkpt lat="25.5090120" lon="-100.7257620">
        <ele>2181.5</ele>
        <time>2022-08-20T14:23:11Z</time>
      </trkpt>
      <trkpt lat="25.5089830" lon="-100.7257380">
        <ele>2182.1</ele>
        <time>2022-08-20T14:23:13Z</time>
      </trkpt>
      <trkpt lat="25.5089720" lon="-100.7257300">
        <ele>2182.3</ele>
        <time>2022-08-20T14:23:14Z</time>
      </trkpt>
      <trkpt lat="25.5089450" lon="-100.7257140">
        <ele>2182.8</ele>
        <time>2022-08-20T14:23:15Z</time>
      </trkpt>
      <trkpt lat="25.5089260" lon="-100.7257070">
        <ele>2183.1</ele>
        <time>2022-08-20T14:23:16Z</time>
      </trkpt>
      <trkpt lat="25.5089000" lon="-100.7256940">
        <ele>2183.5</ele>
        <time>2022-08-20T14:23:18Z</time>
      </trkpt>
      <trkpt lat="25.5088740" lon="-100.7256760">
        <ele>2184.0</ele>
        <time>2022-08-20T14:23:19Z</time>
      </trkpt>
      <trkpt lat="25.5088390" lon="-100.7256580">
        <ele>2184.5</ele>
        <time>2022-08-20T14:23:20Z</time>
      </trkpt>
      <trkpt lat="25.5088010" lon="-100.7256280">
        <ele>2185.0</ele>
        <time>2022-08-20T14:23:22Z</time>
      </trkpt>
      <trkpt lat="25.5087910" lon="-100.7256160">
        <ele>2185.2</ele>
        <time>2022-08-20T14:23:23Z</time>
      </trkpt>
      <trkpt lat="25.5087800" lon="-100.7256040">
        <ele>2185.4</ele>
        <time>2022-08-20T14:23:24Z</time>
      </trkpt>
      <trkpt lat="25.5087570" lon="-100.7255860">
        <ele>2185.7</ele>
        <time>2022-08-20T14:23:25Z</time>
      </trkpt>
      <trkpt lat="25.5087430" lon="-100.7255680">
        <ele>2185.9</ele>
        <time>2022-08-20T14:23:26Z</time>
      </trkpt>
      <trkpt lat="25.5087370" lon="-100.7255620">
        <ele>2185.9</ele>
        <time>2022-08-20T14:23:27Z</time>
      </trkpt>
      <trkpt lat="25.5087310" lon="-100.7255570">
        <ele>2186.0</ele>
        <time>2022-08-20T14:23:28Z</time>
      </trkpt>
      <trkpt lat="25.5087120" lon="-100.7255410">
        <ele>2186.2</ele>
        <time>2022-08-20T14:23:30Z</time>
      </trkpt>
      <trkpt lat="25.5087050" lon="-100.7255320">
        <ele>2186.3</ele>
        <time>2022-08-20T14:23:31Z</time>
      </trkpt>
      <trkpt lat="25.5086990" lon="-100.7255240">
        <ele>2186.4</ele>
        <time>2022-08-20T14:23:32Z</time>
      </trkpt>
      <trkpt lat="25.5086900" lon="-100.7254990">
        <ele>2186.6</ele>
        <time>2022-08-20T14:23:33Z</time>
      </trkpt>
      <trkpt lat="25.5086860" lon="-100.7254900">
        <ele>2186.7</ele>
        <time>2022-08-20T14:23:34Z</time>
      </trkpt>
      <trkpt lat="25.5086830" lon="-100.7254800">
        <ele>2186.8</ele>
        <time>2022-08-20T14:23:35Z</time>
      </trkpt>
      <trkpt lat="25.5086790" lon="-100.7254680">
        <ele>2186.9</ele>
        <time>2022-08-20T14:23:36Z</time>
      </trkpt>
      <trkpt lat="25.5086750" lon="-100.7254500">
        <ele>2187.1</ele>
        <time>2022-08-20T14:23:37Z</time>
      </trkpt>
      <trkpt lat="25.5086630" lon="-100.7254170">
        <ele>2187.4</ele>
        <time>2022-08-20T14:23:39Z</time>
      </trkpt>
      <trkpt lat="25.5086570" lon="-100.7254050">
        <ele>2187.6</ele>
        <time>2022-08-20T14:23:40Z</time>
      </trkpt>
      <trkpt lat="25.5086400" lon="-100.7253570">
        <ele>2188.1</ele>
        <time>2022-08-20T14:23:42Z</time>
      </trkpt>
      <trkpt lat="25.5086350" lon="-100.7253450">
        <ele>2188.3</ele>
        <time>2022-08-20T14:23:43Z</time>
      </trkpt>
      <trkpt lat="25.5086300" lon="-100.7253330">
        <ele>2188.4</ele>
        <time>2022-08-20T14:23:44Z</time>
      </trkpt>
      <trkpt lat="25.5086170" lon="-100.7252990">
        <ele>2188.8</ele>
        <time>2022-08-20T14:23:45Z</time>
      </trkpt>
      <trkpt lat="25.5085980" lon="-100.7252610">
        <ele>2189.4</ele>
        <time>2022-08-20T14:23:47Z</time>
      </trkpt>
      <trkpt lat="25.5085800" lon="-100.7252300">
        <ele>2189.8</ele>
        <time>2022-08-20T14:23:48Z</time>
      </trkpt>
      <trkpt lat="25.5085740" lon="-100.7252100">
        <ele>2190.1</ele>
        <time>2022-08-20T14:23:49Z</time>
      </trkpt>
      <trkpt lat="25.5085700" lon="-100.7251980">
        <ele>2190.2</ele>
        <time>2022-08-20T14:23:50Z</time>
      </trkpt>
      <trkpt lat="25.5085650" lon="-100.7251820">
        <ele>2190.5</ele>
        <time>2022-08-20T14:23:51Z</time>
      </trkpt>
      <trkpt lat="25.5085600" lon="-100.7251610">
        <ele>2190.7</ele>
        <time>2022-08-20T14:23:52Z</time>
      </trkpt>
      <trkpt lat="25.5085500" lon="-100.7251270">
        <ele>2191.2</ele>
        <time>2022-08-20T14:23:54Z</time>
      </trkpt>
      <trkpt lat="25.5085460" lon="-100.7251140">
        <ele>2191.4</ele>
        <time>2022-08-20T14:23:55Z</time>
      </trkpt>
      <trkpt lat="25.5085340" lon="-100.7250860">
        <ele>2191.8</ele>
        <time>2022-08-20T14:23:57Z</time>
      </trkpt>
      <trkpt lat="25.5085300" lon="-100.7250780">
        <ele>2191.9</ele>
        <time>2022-08-20T14:23:58Z</time>
      </trkpt>
      <trkpt lat="25.5085210" lon="-100.7250490">
        <ele>2192.3</ele>
        <time>2022-08-20T14:23:59Z</time>
      </trkpt>
      <trkpt lat="25.5085170" lon="-100.7250360">
        <ele>2192.4</ele>
        <time>2022-08-20T14:24:00Z</time>
      </trkpt>
      <trkpt lat="25.5085070" lon="-100.7250060">
        <ele>2192.8</ele>
        <time>2022-08-20T14:24:01Z</time>
      </trkpt>
      <trkpt lat="25.5085040" lon="-100.7249950">
        <ele>2193.0</ele>
        <time>2022-08-20T14:24:02Z</time>
      </trkpt>
      <trkpt lat="25.5084970" lon="-100.7249720">
        <ele>2193.3</ele>
        <time>2022-08-20T14:24:03Z</time>
      </trkpt>
      <trkpt lat="25.5084900" lon="-100.7249400">
        <ele>2193.7</ele>
        <time>2022-08-20T14:24:05Z</time>
      </trkpt>
      <trkpt lat="25.5084800" lon="-100.7248980">
        <ele>2194.2</ele>
        <time>2022-08-20T14:24:07Z</time>
      </trkpt>
      <trkpt lat="25.5084740" lon="-100.7248690">
        <ele>2194.5</ele>
        <time>2022-08-20T14:24:08Z</time>
      </trkpt>
      <trkpt lat="25.5084710" lon="-100.7248570">
        <ele>2194.6</ele>
        <time>2022-08-20T14:24:09Z</time>
      </trkpt>
      <trkpt lat="25.5084620" lon="-100.7248300">
        <ele>2194.9</ele>
        <time>2022-08-20T14:24:10Z</time>
      </trkpt>
      <trkpt lat="25.5084590" lon="-100.7248200">
        <ele>2195.1</ele>
        <time>2022-08-20T14:24:11Z</time>
      </trkpt>
      <trkpt lat="25.5084470" lon="-100.7247840">
        <ele>2195.4</ele>
        <time>2022-08-20T14:24:12Z</time>
      </trkpt>
      <trkpt lat="25.5084420" lon="-100.7247680">
        <ele>2195.6</ele>
        <time>2022-08-20T14:24:13Z</time>
      </trkpt>
      <trkpt lat="25.5084330" lon="-100.7247360">
        <ele>2195.9</ele>
        <time>2022-08-20T14:24:14Z</time>
      </trkpt>
      <trkpt lat="25.5084230" lon="-100.7247080">
        <ele>2196.2</ele>
        <time>2022-08-20T14:24:15Z</time>
      </trkpt>
      <trkpt lat="25.5084080" lon="-100.7246890">
        <ele>2196.5</ele>
        <time>2022-08-20T14:24:16Z</time>
      </trkpt>
      <trkpt lat="25.5084000" lon="-100.7246680">
        <ele>2196.7</ele>
        <time>2022-08-20T14:24:18Z</time>
      </trkpt>
      <trkpt lat="25.5083830" lon="-100.7246340">
        <ele>2197.1</ele>
        <time>2022-08-20T14:24:19Z</time>
      </trkpt>
      <trkpt lat="25.5083780" lon="-100.7246240">
        <ele>2197.3</ele>
        <time>2022-08-20T14:24:20Z</time>
      </trkpt>
      <trkpt lat="25.5083690" lon="-100.7245920">
        <ele>2197.6</ele>
        <time>2022-08-20T14:24:21Z</time>
      </trkpt>
      <trkpt lat="25.5083570" lon="-100.7245550">
        <ele>2198.1</ele>
        <time>2022-08-20T14:24:23Z</time>
      </trkpt>
      <trkpt lat="25.5083490" lon="-100.7245360">
        <ele>2198.3</ele>
        <time>2022-08-20T14:24:24Z</time>
      </trkpt>
      <trkpt lat="25.5083390" lon="-100.7245160">
        <ele>2198.6</ele>
        <time>2022-08-20T14:24:26Z</time>
      </trkpt>
      <trkpt lat="25.5083370" lon="-100.7244850">
        <ele>2198.9</ele>
        <time>2022-08-20T14:24:27Z</time>
      </trkpt>
      <trkpt lat="25.5083370" lon="-100.7244730">
        <ele>2199.0</ele>
        <time>2022-08-20T14:24:28Z</time>
      </trkpt>
      <trkpt lat="25.5083280" lon="-100.7244360">
        <ele>2199.5</ele>
        <time>2022-08-20T14:24:29Z</time>
      </trkpt>
      <trkpt lat="25.5083240" lon="-100.7244240">
        <ele>2199.6</ele>
        <time>2022-08-20T14:24:30Z</time>
      </trkpt>
      <trkpt lat="25.5083150" lon="-100.7243790">
        <ele>2200.1</ele>
        <time>2022-08-20T14:24:32Z</time>
      </trkpt>
      <trkpt lat="25.5083090" lon="-100.7243640">
        <ele>2200.3</ele>
        <time>2022-08-20T14:24:33Z</time>
      </trkpt>
      <trkpt lat="25.5083040" lon="-100.7243490">
        <ele>2200.4</ele>
        <time>2022-08-20T14:24:34Z</time>
      </trkpt>
      <trkpt lat="25.5082890" lon="-100.7243180">
        <ele>2200.9</ele>
        <time>2022-08-20T14:24:35Z</time>
      </trkpt>
      <trkpt lat="25.5082870" lon="-100.7243060">
        <ele>2201.0</ele>
        <time>2022-08-20T14:24:36Z</time>
      </trkpt>
      <trkpt lat="25.5082810" lon="-100.7242840">
        <ele>2201.3</ele>
        <time>2022-08-20T14:24:37Z</time>
      </trkpt>
      <trkpt lat="25.5082690" lon="-100.7242600">
        <ele>2201.6</ele>
        <time>2022-08-20T14:24:39Z</time>
      </trkpt>
      <trkpt lat="25.5082520" lon="-100.7242340">
        <ele>2202.0</ele>
        <time>2022-08-20T14:24:40Z</time>
      </trkpt>
      <trkpt lat="25.5082460" lon="-100.7242260">
        <ele>2202.2</ele>
        <time>2022-08-20T14:24:41Z</time>
      </trkpt>
      <trkpt lat="25.5082310" lon="-100.7241920">
        <ele>2202.7</ele>
        <time>2022-08-20T14:24:42Z</time>
      </trkpt>
      <trkpt lat="25.5082270" lon="-100.7241800">
        <ele>2202.8</ele>
        <time>2022-08-20T14:24:43Z</time>
      </trkpt>
      <trkpt lat="25.5082080" lon="-100.7241520">
        <ele>2203.3</ele>
        <time>2022-08-20T14:24:44Z</time>
      </trkpt>
      <trkpt lat="25.5081990" lon="-100.7241220">
        <ele>2203.7</ele>
        <time>2022-08-20T14:24:46Z</time>
      </trkpt>
      <trkpt lat="25.5081970" lon="-100.7241130">
        <ele>2203.8</ele>
        <time>2022-08-20T14:24:47Z</time>
      </trkpt>
      <trkpt lat="25.5081920" lon="-100.7241030">
        <ele>2204.0</ele>
        <time>2022-08-20T14:24:48Z</time>
      </trkpt>
      <trkpt lat="25.5081850" lon="-100.7240960">
        <ele>2204.1</ele>
        <time>2022-08-20T14:24:49Z</time>
      </trkpt>
      <trkpt lat="25.5081800" lon="-100.7240790">
        <ele>2204.3</ele>
        <time>2022-08-20T14:24:50Z</time>
      </trkpt>
      <trkpt lat="25.5081790" lon="-100.7240680">
        <ele>2204.5</ele>
        <time>2022-08-20T14:24:51Z</time>
      </trkpt>
      <trkpt lat="25.5081760" lon="-100.7240570">
        <ele>2204.6</ele>
        <time>2022-08-20T14:24:52Z</time>
      </trkpt>
      <trkpt lat="25.5081750" lon="-100.7240450">
        <ele>2204.8</ele>
        <time>2022-08-20T14:24:53Z</time>
      </trkpt>
      <trkpt lat="25.5081730" lon="-100.7240210">
        <ele>2205.1</ele>
        <time>2022-08-20T14:24:55Z</time>
      </trkpt>
      <trkpt lat="25.5081720" lon="-100.7240110">
        <ele>2205.2</ele>
        <time>2022-08-20T14:24:56Z</time>
      </trkpt>
      <trkpt lat="25.5081720" lon="-100.7240010">
        <ele>2205.3</ele>
        <time>2022-08-20T14:24:57Z</time>
      </trkpt>
      <trkpt lat="25.5081690" lon="-100.7239770">
        <ele>2205.6</ele>
        <time>2022-08-20T14:24:58Z</time>
      </trkpt>
      <trkpt lat="25.5081680" lon="-100.7239670">
        <ele>2205.8</ele>
        <time>2022-08-20T14:24:59Z</time>
      </trkpt>
      <trkpt lat="25.5081680" lon="-100.7239580">
        <ele>2205.9</ele>
        <time>2022-08-20T14:25:00Z</time>
      </trkpt>
      <trkpt lat="25.5081580" lon="-100.7239280">
        <ele>2206.3</ele>
        <time>2022-08-20T14:25:01Z</time>
      </trkpt>
      <trkpt lat="25.5081550" lon="-100.7239190">
        <ele>2206.4</ele>
        <time>2022-08-20T14:25:02Z</time>
      </trkpt>
      <trkpt lat="25.5081470" lon="-100.7238910">
        <ele>2206.8</ele>
        <time>2022-08-20T14:25:04Z</time>
      </trkpt>
      <trkpt lat="25.5081430" lon="-100.7238770">
        <ele>2206.9</ele>
        <time>2022-08-20T14:25:05Z</time>
      </trkpt>
      <trkpt lat="25.5081390" lon="-100.7238600">
        <ele>2207.2</ele>
        <time>2022-08-20T14:25:06Z</time>
      </trkpt>
      <trkpt lat="25.5081240" lon="-100.7238310">
        <ele>2207.6</ele>
        <time>2022-08-20T14:25:07Z</time>
      </trkpt>
      <trkpt lat="25.5081200" lon="-100.7238230">
        <ele>2207.7</ele>
        <time>2022-08-20T14:25:08Z</time>
      </trkpt>
      <trkpt lat="25.5081030" lon="-100.7238120">
        <ele>2207.9</ele>
        <time>2022-08-20T14:25:09Z</time>
      </trkpt>
      <trkpt lat="25.5080810" lon="-100.7237980">
        <ele>2208.3</ele>
        <time>2022-08-20T14:25:11Z</time>
      </trkpt>
      <trkpt lat="25.5080660" lon="-100.7237820">
        <ele>2208.6</ele>
        <time>2022-08-20T14:25:12Z</time>
      </trkpt>
      <trkpt lat="25.5080560" lon="-100.7237710">
        <ele>2208.7</ele>
        <time>2022-08-20T14:25:13Z</time>
      </trkpt>
      <trkpt lat="25.5080440" lon="-100.7237550">
        <ele>2209.0</ele>
        <time>2022-08-20T14:25:14Z</time>
      </trkpt>
      <trkpt lat="25.5080280" lon="-100.7237310">
        <ele>2209.3</ele>
        <time>2022-08-20T14:25:16Z</time>
      </trkpt>
      <trkpt lat="25.5080090" lon="-100.7237100">
        <ele>2209.7</ele>
        <time>2022-08-20T14:25:17Z</time>
      </trkpt>
      <trkpt lat="25.5080010" lon="-100.7237030">
        <ele>2209.8</ele>
        <time>2022-08-20T14:25:18Z</time>
      </trkpt>
      <trkpt lat="25.5079800" lon="-100.7236810">
        <ele>2210.2</ele>
        <time>2022-08-20T14:25:19Z</time>
      </trkpt>
      <trkpt lat="25.5079740" lon="-100.7236720">
        <ele>2210.3</ele>
        <time>2022-08-20T14:25:20Z</time>
      </trkpt>
      <trkpt lat="25.5079500" lon="-100.7236440">
        <ele>2210.7</ele>
        <time>2022-08-20T14:25:21Z</time>
      </trkpt>
      <trkpt lat="25.5079420" lon="-100.7236340">
        <ele>2210.9</ele>
        <time>2022-08-20T14:25:22Z</time>
      </trkpt>
      <trkpt lat="25.5079190" lon="-100.7236070">
        <ele>2211.3</ele>
        <time>2022-08-20T14:25:23Z</time>
      </trkpt>
      <trkpt lat="25.5078990" lon="-100.7235790">
        <ele>2211.7</ele>
        <time>2022-08-20T14:25:24Z</time>
      </trkpt>
      <trkpt lat="25.5078920" lon="-100.7235680">
        <ele>2211.9</ele>
        <time>2022-08-20T14:25:25Z</time>
      </trkpt>
      <trkpt lat="25.5078790" lon="-100.7235530">
        <ele>2212.2</ele>
        <time>2022-08-20T14:25:26Z</time>
      </trkpt>
      <trkpt lat="25.5078640" lon="-100.7235350">
        <ele>2212.5</ele>
        <time>2022-08-20T14:25:28Z</time>
      </trkpt>
      <trkpt lat="25.5078440" lon="-100.7234990">
        <ele>2213.0</ele>
        <time>2022-08-20T14:25:29Z</time>
      </trkpt>
      <trkpt lat="25.5078290" lon="-100.7234740">
        <ele>2213.4</ele>
        <time>2022-08-20T14:25:31Z</time>
      </trkpt>
      <trkpt lat="25.5078220" lon="-100.7234660">
        <ele>2213.5</ele>
        <time>2022-08-20T14:25:32Z</time>
      </trkpt>
      <trkpt lat="25.5078110" lon="-100.7234490">
        <ele>2213.8</ele>
        <time>2022-08-20T14:25:33Z</time>
      </trkpt>
      <trkpt lat="25.5077900" lon="-100.7234100">
        <ele>2214.3</ele>
        <time>2022-08-20T14:25:35Z</time>
      </trkpt>
      <trkpt lat="25.5077790" lon="-100.7233950">
        <ele>2214.6</ele>
        <time>2022-08-20T14:25:37Z</time>
      </trkpt>
      <trkpt lat="25.5077680" lon="-100.7233830">
        <ele>2214.8</ele>
        <time>2022-08-20T14:25:38Z</time>
      </trkpt>
      <trkpt lat="25.5077550" lon="-100.7233660">
        <ele>2215.0</ele>
        <time>2022-08-20T14:25:39Z</time>
      </trkpt>
      <trkpt lat="25.5077420" lon="-100.7233490">
        <ele>2215.3</ele>
        <time>2022-08-20T14:25:41Z</time>
      </trkpt>
      <trkpt lat="25.5077360" lon="-100.7233400">
        <ele>2215.4</ele>
        <time>2022-08-20T14:25:42Z</time>
      </trkpt>
      <trkpt lat="25.5077290" lon="-100.7233310">
        <ele>2215.5</ele>
        <time>2022-08-20T14:25:43Z</time>
      </trkpt>
      <trkpt lat="25.5077180" lon="-100.7233070">
        <ele>2215.8</ele>
        <time>2022-08-20T14:25:44Z</time>
      </trkpt>
      <trkpt lat="25.5076970" lon="-100.7232720">
        <ele>2216.2</ele>
        <time>2022-08-20T14:25:46Z</time>
      </trkpt>
      <trkpt lat="25.5076850" lon="-100.7232530">
        <ele>2216.4</ele>
        <time>2022-08-20T14:25:48Z</time>
      </trkpt>
      <trkpt lat="25.5076610" lon="-100.7232200">
        <ele>2216.8</ele>
        <time>2022-08-20T14:25:49Z</time>
      </trkpt>
      <trkpt lat="25.5076480" lon="-100.7232050">
        <ele>2217.0</ele>
        <time>2022-08-20T14:25:50Z</time>
      </trkpt>
      <trkpt lat="25.5076370" lon="-100.7231850">
        <ele>2217.2</ele>
        <time>2022-08-20T14:25:51Z</time>
      </trkpt>
      <trkpt lat="25.5076160" lon="-100.7231590">
        <ele>2217.5</ele>
        <time>2022-08-20T14:25:53Z</time>
      </trkpt>
      <trkpt lat="25.5075950" lon="-100.7231340">
        <ele>2217.8</ele>
        <time>2022-08-20T14:25:54Z</time>
      </trkpt>
      <trkpt lat="25.5075830" lon="-100.7231230">
        <ele>2218.0</ele>
        <time>2022-08-20T14:25:55Z</time>
      </trkpt>
      <trkpt lat="25.5075680" lon="-100.7231110">
        <ele>2218.1</ele>
        <time>2022-08-20T14:25:56Z</time>
      </trkpt>
      <trkpt lat="25.5075470" lon="-100.7230920">
        <ele>2218.4</ele>
        <time>2022-08-20T14:25:57Z</time>
      </trkpt>
      <trkpt lat="25.5075320" lon="-100.7230740">
        <ele>2218.5</ele>
        <time>2022-08-20T14:25:59Z</time>
      </trkpt>
      <trkpt lat="25.5075110" lon="-100.7230470">
        <ele>2218.8</ele>
        <time>2022-08-20T14:26:00Z</time>
      </trkpt>
      <trkpt lat="25.5075030" lon="-100.7230360">
        <ele>2218.9</ele>
        <time>2022-08-20T14:26:01Z</time>
      </trkpt>
      <trkpt lat="25.5074900" lon="-100.7230110">
        <ele>2219.1</ele>
        <time>2022-08-20T14:26:02Z</time>
      </trkpt>
      <trkpt lat="25.5074840" lon="-100.7230000">
        <ele>2219.2</ele>
        <time>2022-08-20T14:26:03Z</time>
      </trkpt>
      <trkpt lat="25.5074730" lon="-100.7229840">
        <ele>2219.3</ele>
        <time>2022-08-20T14:26:04Z</time>
      </trkpt>
      <trkpt lat="25.5074630" lon="-100.7229720">
        <ele>2219.4</ele>
        <time>2022-08-20T14:26:05Z</time>
      </trkpt>
      <trkpt lat="25.5074540" lon="-100.7229580">
        <ele>2219.5</ele>
        <time>2022-08-20T14:26:06Z</time>
      </trkpt>
      <trkpt lat="25.5074430" lon="-100.7229340">
        <ele>2219.7</ele>
        <time>2022-08-20T14:26:08Z</time>
      </trkpt>
      <trkpt lat="25.5074300" lon="-100.7228990">
        <ele>2219.8</ele>
        <time>2022-08-20T14:26:09Z</time>
      </trkpt>
      <trkpt lat="25.5074270" lon="-100.7228870">
        <ele>2219.9</ele>
        <time>2022-08-20T14:26:10Z</time>
      </trkpt>
      <trkpt lat="25.5074110" lon="-100.7228470">
        <ele>2220.0</ele>
        <time>2022-08-20T14:26:11Z</time>
      </trkpt>
      <trkpt lat="25.5074040" lon="-100.7228310">
        <ele>2220.0</ele>
        <time>2022-08-20T14:26:12Z</time>
      </trkpt>
      <trkpt lat="25.5073950" lon="-100.7228090">
        <ele>2220.0</ele>
        <time>2022-08-20T14:26:13Z</time>
      </trkpt>
      <trkpt lat="25.5073880" lon="-100.7227730">
        <ele>2220.0</ele>
        <time>2022-08-20T14:26:15Z</time>
      </trkpt>
      <trkpt lat="25.5073840" lon="-100.7227420">
        <ele>2220.0</ele>
        <time>2022-08-20T14:26:16Z</time>
      </trkpt>
      <trkpt lat="25.5073810" lon="-100.7227110">
        <ele>2220.0</ele>
        <time>2022-08-20T14:26:17Z</time>
      </trkpt>
      <trkpt lat="25.5073800" lon="-100.7227010">
        <ele>2219.9</ele>
        <time>2022-08-20T14:26:18Z</time>
      </trkpt>
      <trkpt lat="25.5073730" lon="-100.7226770">
        <ele>2219.9</ele>
        <time>2022-08-20T14:26:20Z</time>
      </trkpt>
      <trkpt lat="25.5073690" lon="-100.7226680">
        <ele>2219.8</ele>
        <time>2022-08-20T14:26:21Z</time>
      </trkpt>
      <trkpt lat="25.5073650" lon="-100.7226580">
        <ele>2219.8</ele>
        <time>2022-08-20T14:26:22Z</time>
      </trkpt>
      <trkpt lat="25.5073460" lon="-100.7226310">
        <ele>2219.6</ele>
        <time>2022-08-20T14:26:23Z</time>
      </trkpt>
      <trkpt lat="25.5073400" lon="-100.7226220">
        <ele>2219.6</ele>
        <time>2022-08-20T14:26:24Z</time>
      </trkpt>
      <trkpt lat="25.5073320" lon="-100.7226000">
        <ele>2219.5</ele>
        <time>2022-08-20T14:26:25Z</time>
      </trkpt>
      <trkpt lat="25.5073190" lon="-100.7225680">
        <ele>2219.3</ele>
        <time>2022-08-20T14:26:27Z</time>
      </trkpt>
      <trkpt lat="25.5072700" lon="-100.7224490">
        <ele>2218.6</ele>
        <time>2022-08-20T14:26:28Z</time>
      </trkpt>
      <trkpt lat="25.5072430" lon="-100.7223900">
        <ele>2218.2</ele>
        <time>2022-08-20T14:26:29Z</time>
      </trkpt>
      <trkpt lat="25.5072110" lon="-100.7223280">
        <ele>2217.8</ele>
        <time>2022-08-20T14:26:30Z</time>
      </trkpt>
      <trkpt lat="25.5071820" lon="-100.7222720">
        <ele>2217.4</ele>
        <time>2022-08-20T14:26:31Z</time>
      </trkpt>
      <trkpt lat="25.5071530" lon="-100.7222150">
        <ele>2217.1</ele>
        <time>2022-08-20T14:26:32Z</time>
      </trkpt>
      <trkpt lat="25.5071220" lon="-100.7221550">
        <ele>2216.8</ele>
        <time>2022-08-20T14:26:33Z</time>
      </trkpt>
      <trkpt lat="25.5070900" lon="-100.7220920">
        <ele>2216.5</ele>
        <time>2022-08-20T14:26:34Z</time>
      </trkpt>
      <trkpt lat="25.5070580" lon="-100.7220290">
        <ele>2216.2</ele>
        <time>2022-08-20T14:26:35Z</time>
      </trkpt>
      <trkpt lat="25.5070250" lon="-100.7219660">
        <ele>2216.0</ele>
        <time>2022-08-20T14:26:36Z</time>
      </trkpt>
      <trkpt lat="25.5069950" lon="-100.7219030">
        <ele>2215.7</ele>
        <time>2022-08-20T14:26:37Z</time>
      </trkpt>
      <trkpt lat="25.5069640" lon="-100.7218380">
        <ele>2215.5</ele>
        <time>2022-08-20T14:26:38Z</time>
      </trkpt>
      <trkpt lat="25.5069320" lon="-100.7217710">
        <ele>2215.2</ele>
        <time>2022-08-20T14:26:39Z</time>
      </trkpt>
      <trkpt lat="25.5068980" lon="-100.7217000">
        <ele>2214.9</ele>
        <time>2022-08-20T14:26:40Z</time>
      </trkpt>
      <trkpt lat="25.5068640" lon="-100.7216300">
        <ele>2214.6</ele>
        <time>2022-08-20T14:26:41Z</time>
      </trkpt>
      <trkpt lat="25.5068290" lon="-100.7215570">
        <ele>2214.3</ele>
        <time>2022-08-20T14:26:42Z</time>
      </trkpt>
      <trkpt lat="25.5067920" lon="-100.7214870">
        <ele>2214.1</ele>
        <time>2022-08-20T14:26:43Z</time>
      </trkpt>
      <trkpt lat="25.5067520" lon="-100.7214190">
        <ele>2213.9</ele>
        <time>2022-08-20T14:26:44Z</time>
      </trkpt>
      <trkpt lat="25.5067090" lon="-100.7213550">
        <ele>2213.7</ele>
        <time>2022-08-20T14:26:45Z</time>
      </trkpt>
      <trkpt lat="25.5066630" lon="-100.7212960">
        <ele>2213.6</ele>
        <time>2022-08-20T14:26:46Z</time>
      </trkpt>
      <trkpt lat="25.5066140" lon="-100.7212390">
        <ele>2213.5</ele>
        <time>2022-08-20T14:26:47Z</time>
      </trkpt>
      <trkpt lat="25.5065670" lon="-100.7211820">
        <ele>2213.4</ele>
        <time>2022-08-20T14:26:48Z</time>
      </trkpt>
      <trkpt lat="25.5065220" lon="-100.7211250">
        <ele>2213.4</ele>
        <time>2022-08-20T14:26:49Z</time>
      </trkpt>
      <trkpt lat="25.5064780" lon="-100.7210680">
        <ele>2213.4</ele>
        <time>2022-08-20T14:26:50Z</time>
      </trkpt>
      <trkpt lat="25.5064360" lon="-100.7210120">
        <ele>2213.5</ele>
        <time>2022-08-20T14:26:51Z</time>
      </trkpt>
      <trkpt lat="25.5063940" lon="-100.7209570">
        <ele>2213.5</ele>
        <time>2022-08-20T14:26:52Z</time>
      </trkpt>
      <trkpt lat="25.5063550" lon="-100.7209030">
        <ele>2213.6</ele>
        <time>2022-08-20T14:26:53Z</time>
      </trkpt>
      <trkpt lat="25.5063190" lon="-100.7208510">
        <ele>2213.7</ele>
        <time>2022-08-20T14:26:54Z</time>
      </trkpt>
      <trkpt lat="25.5062810" lon="-100.7208020">
        <ele>2213.9</ele>
        <time>2022-08-20T14:26:55Z</time>
      </trkpt>
      <trkpt lat="25.5062380" lon="-100.7207620">
        <ele>2214.0</ele>
        <time>2022-08-20T14:26:56Z</time>
      </trkpt>
      <trkpt lat="25.5061920" lon="-100.7207280">
        <ele>2214.1</ele>
        <time>2022-08-20T14:26:57Z</time>
      </trkpt>
      <trkpt lat="25.5061490" lon="-100.7206930">
        <ele>2214.2</ele>
        <time>2022-08-20T14:26:58Z</time>
      </trkpt>
      <trkpt lat="25.5061070" lon="-100.7206530">
        <ele>2214.3</ele>
        <time>2022-08-20T14:26:59Z</time>
      </trkpt>
      <trkpt lat="25.5060660" lon="-100.7206070">
        <ele>2214.4</ele>
        <time>2022-08-20T14:27:00Z</time>
      </trkpt>
      <trkpt lat="25.5060240" lon="-100.7205630">
        <ele>2214.4</ele>
        <time>2022-08-20T14:27:01Z</time>
      </trkpt>
      <trkpt lat="25.5059780" lon="-100.7205230">
        <ele>2214.4</ele>
        <time>2022-08-20T14:27:02Z</time>
      </trkpt>
      <trkpt lat="25.5059300" lon="-100.7204820">
        <ele>2214.3</ele>
        <time>2022-08-20T14:27:03Z</time>
      </trkpt>
      <trkpt lat="25.5058780" lon="-100.7204380">
        <ele>2214.2</ele>
        <time>2022-08-20T14:27:04Z</time>
      </trkpt>
      <trkpt lat="25.5058270" lon="-100.7203920">
        <ele>2214.0</ele>
        <time>2022-08-20T14:27:05Z</time>
      </trkpt>
      <trkpt lat="25.5057770" lon="-100.7203450">
        <ele>2213.8</ele>
        <time>2022-08-20T14:27:06Z</time>
      </trkpt>
      <trkpt lat="25.5057300" lon="-100.7202930">
        <ele>2213.6</ele>
        <time>2022-08-20T14:27:07Z</time>
      </trkpt>
      <trkpt lat="25.5056810" lon="-100.7202410">
        <ele>2213.3</ele>
        <time>2022-08-20T14:27:08Z</time>
      </trkpt>
      <trkpt lat="25.5056290" lon="-100.7201900">
        <ele>2213.0</ele>
        <time>2022-08-20T14:27:09Z</time>
      </trkpt>
      <trkpt lat="25.5055750" lon="-100.7201370">
        <ele>2212.7</ele>
        <time>2022-08-20T14:27:10Z</time>
      </trkpt>
      <trkpt lat="25.5055200" lon="-100.7200810">
        <ele>2212.4</ele>
        <time>2022-08-20T14:27:11Z</time>
      </trkpt>
      <trkpt lat="25.5054650" lon="-100.7200210">
        <ele>2212.1</ele>
        <time>2022-08-20T14:27:12Z</time>
      </trkpt>
      <trkpt lat="25.5054110" lon="-100.7199590">
        <ele>2211.6</ele>
        <time>2022-08-20T14:27:13Z</time>
      </trkpt>
      <trkpt lat="25.5053610" lon="-100.7198950">
        <ele>2211.2</ele>
        <time>2022-08-20T14:27:14Z</time>
      </trkpt>
      <trkpt lat="25.5053140" lon="-100.7198290">
        <ele>2210.8</ele>
        <time>2022-08-20T14:27:15Z</time>
      </trkpt>
      <trkpt lat="25.5052770" lon="-100.7197560">
        <ele>2210.3</ele>
        <time>2022-08-20T14:27:16Z</time>
      </trkpt>
      <trkpt lat="25.5052490" lon="-100.7196730">
        <ele>2209.9</ele>
        <time>2022-08-20T14:27:17Z</time>
      </trkpt>
      <trkpt lat="25.5052240" lon="-100.7195840">
        <ele>2209.4</ele>
        <time>2022-08-20T14:27:18Z</time>
      </trkpt>
      <trkpt lat="25.5052010" lon="-100.7194910">
        <ele>2208.9</ele>
        <time>2022-08-20T14:27:19Z</time>
      </trkpt>
      <trkpt lat="25.5051810" lon="-100.7193990">
        <ele>2208.4</ele>
        <time>2022-08-20T14:27:20Z</time>
      </trkpt>
      <trkpt lat="25.5051690" lon="-100.7193110">
        <ele>2207.9</ele>
        <time>2022-08-20T14:27:21Z</time>
      </trkpt>
      <trkpt lat="25.5051570" lon="-100.7192300">
        <ele>2207.3</ele>
        <time>2022-08-20T14:27:22Z</time>
      </trkpt>
      <trkpt lat="25.5051410" lon="-100.7191560">
        <ele>2206.8</ele>
        <time>2022-08-20T14:27:23Z</time>
      </trkpt>
      <trkpt lat="25.5051210" lon="-100.7190860">
        <ele>2206.2</ele>
        <time>2022-08-20T14:27:24Z</time>
      </trkpt>
      <trkpt lat="25.5050960" lon="-100.7190200">
        <ele>2205.7</ele>
        <time>2022-08-20T14:27:25Z</time>
      </trkpt>
      <trkpt lat="25.5050640" lon="-100.7189550">
        <ele>2205.1</ele>
        <time>2022-08-20T14:27:26Z</time>
      </trkpt>
      <trkpt lat="25.5050280" lon="-100.7188880">
        <ele>2204.4</ele>
        <time>2022-08-20T14:27:27Z</time>
      </trkpt>
      <trkpt lat="25.5049870" lon="-100.7188200">
        <ele>2203.8</ele>
        <time>2022-08-20T14:27:28Z</time>
      </trkpt>
      <trkpt lat="25.5049430" lon="-100.7187510">
        <ele>2203.1</ele>
        <time>2022-08-20T14:27:29Z</time>
      </trkpt>
      <trkpt lat="25.5049000" lon="-100.7186790">
        <ele>2202.5</ele>
        <time>2022-08-20T14:27:30Z</time>
      </trkpt>
      <trkpt lat="25.5048590" lon="-100.7186090">
        <ele>2201.9</ele>
        <time>2022-08-20T14:27:31Z</time>
      </trkpt>
      <trkpt lat="25.5048140" lon="-100.7185360">
        <ele>2201.3</ele>
        <time>2022-08-20T14:27:32Z</time>
      </trkpt>
      <trkpt lat="25.5047670" lon="-100.7184600">
        <ele>2200.7</ele>
        <time>2022-08-20T14:27:33Z</time>
      </trkpt>
      <trkpt lat="25.5047180" lon="-100.7183800">
        <ele>2200.0</ele>
        <time>2022-08-20T14:27:34Z</time>
      </trkpt>
      <trkpt lat="25.5046700" lon="-100.7182980">
        <ele>2199.4</ele>
        <time>2022-08-20T14:27:35Z</time>
      </trkpt>
      <trkpt lat="25.5046190" lon="-100.7182180">
        <ele>2198.8</ele>
        <time>2022-08-20T14:27:36Z</time>
      </trkpt>
      <trkpt lat="25.5045600" lon="-100.7181440">
        <ele>2198.2</ele>
        <time>2022-08-20T14:27:37Z</time>
      </trkpt>
      <trkpt lat="25.5044940" lon="-100.7180760">
        <ele>2197.6</ele>
        <time>2022-08-20T14:27:38Z</time>
      </trkpt>
      <trkpt lat="25.5044230" lon="-100.7180100">
        <ele>2197.0</ele>
        <time>2022-08-20T14:27:39Z</time>
      </trkpt>
      <trkpt lat="25.5043500" lon="-100.7179460">
        <ele>2196.4</ele>
        <time>2022-08-20T14:27:40Z</time>
      </trkpt>
      <trkpt lat="25.5042780" lon="-100.7178810">
        <ele>2195.8</ele>
        <time>2022-08-20T14:27:41Z</time>
      </trkpt>
      <trkpt lat="25.5042080" lon="-100.7178130">
        <ele>2195.3</ele>
        <time>2022-08-20T14:27:42Z</time>
      </trkpt>
      <trkpt lat="25.5041420" lon="-100.7177420">
        <ele>2194.8</ele>
        <time>2022-08-20T14:27:43Z</time>
      </trkpt>
      <trkpt lat="25.5040770" lon="-100.7176700">
        <ele>2194.3</ele>
        <time>2022-08-20T14:27:44Z</time>
      </trkpt>
      <trkpt lat="25.5040130" lon="-100.7175990">
        <ele>2193.8</ele>
        <time>2022-08-20T14:27:45Z</time>
      </trkpt>
      <trkpt lat="25.5039500" lon="-100.7175260">
        <ele>2193.4</ele>
        <time>2022-08-20T14:27:46Z</time>
      </trkpt>
      <trkpt lat="25.5038890" lon="-100.7174550">
        <ele>2193.0</ele>
        <time>2022-08-20T14:27:47Z</time>
      </trkpt>
      <trkpt lat="25.5038280" lon="-100.7173820">
        <ele>2192.5</ele>
        <time>2022-08-20T14:27:48Z</time>
      </trkpt>
      <trkpt lat="25.5037690" lon="-100.7173070">
        <ele>2192.1</ele>
        <time>2022-08-20T14:27:49Z</time>
      </trkpt>
      <trkpt lat="25.5037110" lon="-100.7172310">
        <ele>2191.7</ele>
        <time>2022-08-20T14:27:50Z</time>
      </trkpt>
      <trkpt lat="25.5036570" lon="-100.7171510">
        <ele>2191.2</ele>
        <time>2022-08-20T14:27:51Z</time>
      </trkpt>
      <trkpt lat="25.5036070" lon="-100.7170720">
        <ele>2190.7</ele>
        <time>2022-08-20T14:27:52Z</time>
      </trkpt>
      <trkpt lat="25.5035620" lon="-100.7169930">
        <ele>2190.3</ele>
        <time>2022-08-20T14:27:53Z</time>
      </trkpt>
      <trkpt lat="25.5035240" lon="-100.7169200">
        <ele>2189.9</ele>
        <time>2022-08-20T14:27:54Z</time>
      </trkpt>
      <trkpt lat="25.5034930" lon="-100.7168510">
        <ele>2189.5</ele>
        <time>2022-08-20T14:27:55Z</time>
      </trkpt>
      <trkpt lat="25.5034620" lon="-100.7167870">
        <ele>2189.1</ele>
        <time>2022-08-20T14:27:56Z</time>
      </trkpt>
      <trkpt lat="25.5034260" lon="-100.7167270">
        <ele>2188.8</ele>
        <time>2022-08-20T14:27:57Z</time>
      </trkpt>
      <trkpt lat="25.5033850" lon="-100.7166720">
        <ele>2188.4</ele>
        <time>2022-08-20T14:27:58Z</time>
      </trkpt>
      <trkpt lat="25.5033400" lon="-100.7166240">
        <ele>2188.1</ele>
        <time>2022-08-20T14:27:59Z</time>
      </trkpt>
      <trkpt lat="25.5032940" lon="-100.7165840">
        <ele>2187.7</ele>
        <time>2022-08-20T14:28:00Z</time>
      </trkpt>
      <trkpt lat="25.5032450" lon="-100.7165470">
        <ele>2187.2</ele>
        <time>2022-08-20T14:28:01Z</time>
      </trkpt>
      <trkpt lat="25.5032010" lon="-100.7165070">
        <ele>2186.6</ele>
        <time>2022-08-20T14:28:02Z</time>
      </trkpt>
      <trkpt lat="25.5031670" lon="-100.7164590">
        <ele>2185.9</ele>
        <time>2022-08-20T14:28:03Z</time>
      </trkpt>
      <trkpt lat="25.5031520" lon="-100.7164060">
        <ele>2185.2</ele>
        <time>2022-08-20T14:28:04Z</time>
      </trkpt>
      <trkpt lat="25.5031660" lon="-100.7163490">
        <ele>2184.4</ele>
        <time>2022-08-20T14:28:05Z</time>
      </trkpt>
      <trkpt lat="25.5032030" lon="-100.7162910">
        <ele>2183.4</ele>
        <time>2022-08-20T14:28:06Z</time>
      </trkpt>
      <trkpt lat="25.5032570" lon="-100.7162330">
        <ele>2182.3</ele>
        <time>2022-08-20T14:28:07Z</time>
      </trkpt>
      <trkpt lat="25.5033090" lon="-100.7161740">
        <ele>2181.4</ele>
        <time>2022-08-20T14:28:08Z</time>
      </trkpt>
      <trkpt lat="25.5033550" lon="-100.7161110">
        <ele>2180.7</ele>
        <time>2022-08-20T14:28:09Z</time>
      </trkpt>
      <trkpt lat="25.5034010" lon="-100.7160440">
        <ele>2180.1</ele>
        <time>2022-08-20T14:28:10Z</time>
      </trkpt>
      <trkpt lat="25.5034400" lon="-100.7159800">
        <ele>2179.7</ele>
        <time>2022-08-20T14:28:11Z</time>
      </trkpt>
      <trkpt lat="25.5034730" lon="-100.7159190">
        <ele>2179.4</ele>
        <time>2022-08-20T14:28:12Z</time>
      </trkpt>
      <trkpt lat="25.5035060" lon="-100.7158610">
        <ele>2179.0</ele>
        <time>2022-08-20T14:28:13Z</time>
      </trkpt>
      <trkpt lat="25.5035390" lon="-100.7158060">
        <ele>2178.7</ele>
        <time>2022-08-20T14:28:14Z</time>
      </trkpt>
      <trkpt lat="25.5035780" lon="-100.7157530">
        <ele>2178.3</ele>
        <time>2022-08-20T14:28:15Z</time>
      </trkpt>
      <trkpt lat="25.5036230" lon="-100.7157030">
        <ele>2177.9</ele>
        <time>2022-08-20T14:28:16Z</time>
      </trkpt>
      <trkpt lat="25.5036760" lon="-100.7156550">
        <ele>2177.4</ele>
        <time>2022-08-20T14:28:17Z</time>
      </trkpt>
      <trkpt lat="25.5037360" lon="-100.7156040">
        <ele>2176.7</ele>
        <time>2022-08-20T14:28:18Z</time>
      </trkpt>
      <trkpt lat="25.5038000" lon="-100.7155540">
        <ele>2176.1</ele>
        <time>2022-08-20T14:28:19Z</time>
      </trkpt>
      <trkpt lat="25.5038680" lon="-100.7155050">
        <ele>2175.4</ele>
        <time>2022-08-20T14:28:20Z</time>
      </trkpt>
      <trkpt lat="25.5039400" lon="-100.7154580">
        <ele>2174.8</ele>
        <time>2022-08-20T14:28:21Z</time>
      </trkpt>
      <trkpt lat="25.5040140" lon="-100.7154140">
        <ele>2174.2</ele>
        <time>2022-08-20T14:28:22Z</time>
      </trkpt>
      <trkpt lat="25.5040870" lon="-100.7153760">
        <ele>2173.6</ele>
        <time>2022-08-20T14:28:23Z</time>
      </trkpt>
      <trkpt lat="25.5041560" lon="-100.7153430">
        <ele>2173.1</ele>
        <time>2022-08-20T14:28:24Z</time>
      </trkpt>
      <trkpt lat="25.5042240" lon="-100.7153160">
        <ele>2172.6</ele>
        <time>2022-08-20T14:28:25Z</time>
      </trkpt>
      <trkpt lat="25.5042950" lon="-100.7152930">
        <ele>2172.1</ele>
        <time>2022-08-20T14:28:26Z</time>
      </trkpt>
      <trkpt lat="25.5043700" lon="-100.7152770">
        <ele>2171.6</ele>
        <time>2022-08-20T14:28:27Z</time>
      </trkpt>
      <trkpt lat="25.5044510" lon="-100.7152660">
        <ele>2171.1</ele>
        <time>2022-08-20T14:28:28Z</time>
      </trkpt>
      <trkpt lat="25.5045340" lon="-100.7152600">
        <ele>2170.8</ele>
        <time>2022-08-20T14:28:29Z</time>
      </trkpt>
      <trkpt lat="25.5046130" lon="-100.7152560">
        <ele>2170.6</ele>
        <time>2022-08-20T14:28:30Z</time>
      </trkpt>
      <trkpt lat="25.5046810" lon="-100.7152540">
        <ele>2170.4</ele>
        <time>2022-08-20T14:28:31Z</time>
      </trkpt>
      <trkpt lat="25.5047360" lon="-100.7152490">
        <ele>2170.2</ele>
        <time>2022-08-20T14:28:32Z</time>
      </trkpt>
      <trkpt lat="25.5047660" lon="-100.7152380">
        <ele>2170.1</ele>
        <time>2022-08-20T14:28:33Z</time>
      </trkpt>
      <trkpt lat="25.5047890" lon="-100.7152010">
        <ele>2170.0</ele>
        <time>2022-08-20T14:28:34Z</time>
      </trkpt>
      <trkpt lat="25.5047950" lon="-100.7151840">
        <ele>2170.0</ele>
        <time>2022-08-20T14:28:35Z</time>
      </trkpt>
      <trkpt lat="25.5047800" lon="-100.7151360">
        <ele>2169.8</ele>
        <time>2022-08-20T14:28:36Z</time>
      </trkpt>
      <trkpt lat="25.5047470" lon="-100.7150780">
        <ele>2169.8</ele>
        <time>2022-08-20T14:28:37Z</time>
      </trkpt>
      <trkpt lat="25.5047110" lon="-100.7150310">
        <ele>2169.9</ele>
        <time>2022-08-20T14:28:38Z</time>
      </trkpt>
      <trkpt lat="25.5046780" lon="-100.7149950">
        <ele>2170.0</ele>
        <time>2022-08-20T14:28:39Z</time>
      </trkpt>
      <trkpt lat="25.5046500" lon="-100.7149640">
        <ele>2170.1</ele>
        <time>2022-08-20T14:28:40Z</time>
      </trkpt>
      <trkpt lat="25.5046050" lon="-100.7149220">
        <ele>2170.4</ele>
        <time>2022-08-20T14:28:41Z</time>
      </trkpt>
      <trkpt lat="25.5045720" lon="-100.7148890">
        <ele>2170.7</ele>
        <time>2022-08-20T14:28:42Z</time>
      </trkpt>
      <trkpt lat="25.5045200" lon="-100.7148590">
        <ele>2171.2</ele>
        <time>2022-08-20T14:28:44Z</time>
      </trkpt>
      <trkpt lat="25.5044950" lon="-100.7148390">
        <ele>2171.4</ele>
        <time>2022-08-20T14:28:45Z</time>
      </trkpt>
      <trkpt lat="25.5044470" lon="-100.7148160">
        <ele>2172.0</ele>
        <time>2022-08-20T14:28:47Z</time>
      </trkpt>
      <trkpt lat="25.5044160" lon="-100.7148040">
        <ele>2172.3</ele>
        <time>2022-08-20T14:28:48Z</time>
      </trkpt>
      <trkpt lat="25.5043820" lon="-100.7147920">
        <ele>2172.8</ele>
        <time>2022-08-20T14:28:49Z</time>
      </trkpt>
      <trkpt lat="25.5043510" lon="-100.7147760">
        <ele>2173.2</ele>
        <time>2022-08-20T14:28:50Z</time>
      </trkpt>
      <trkpt lat="25.5043160" lon="-100.7147630">
        <ele>2173.6</ele>
        <time>2022-08-20T14:28:51Z</time>
      </trkpt>
      <trkpt lat="25.5043040" lon="-100.7147600">
        <ele>2173.8</ele>
        <time>2022-08-20T14:28:52Z</time>
      </trkpt>
      <trkpt lat="25.5042690" lon="-100.7147430">
        <ele>2174.2</ele>
        <time>2022-08-20T14:28:53Z</time>
      </trkpt>
      <trkpt lat="25.5042570" lon="-100.7147360">
        <ele>2174.4</ele>
        <time>2022-08-20T14:28:54Z</time>
      </trkpt>
      <trkpt lat="25.5042260" lon="-100.7147160">
        <ele>2174.8</ele>
        <time>2022-08-20T14:28:56Z</time>
      </trkpt>
      <trkpt lat="25.5042170" lon="-100.7147090">
        <ele>2174.9</ele>
        <time>2022-08-20T14:28:57Z</time>
      </trkpt>
      <trkpt lat="25.5041910" lon="-100.7146790">
        <ele>2175.3</ele>
        <time>2022-08-20T14:28:58Z</time>
      </trkpt>
      <trkpt lat="25.5041710" lon="-100.7146670">
        <ele>2175.6</ele>
        <time>2022-08-20T14:28:59Z</time>
      </trkpt>
      <trkpt lat="25.5041690" lon="-100.7146640">
        <ele>2175.6</ele>
        <time>2022-08-20T14:29:00Z</time>
      </trkpt>
      <trkpt lat="25.5041660" lon="-100.7146610">
        <ele>2175.6</ele>
        <time>2022-08-20T14:29:01Z</time>
      </trkpt>
      <trkpt lat="25.5041380" lon="-100.7146390">
        <ele>2176.0</ele>
        <time>2022-08-20T14:29:03Z</time>
      </trkpt>
      <trkpt lat="25.5041060" lon="-100.7146030">
        <ele>2176.3</ele>
        <time>2022-08-20T14:29:04Z</time>
      </trkpt>
      <trkpt lat="25.5040800" lon="-100.7145740">
        <ele>2176.6</ele>
        <time>2022-08-20T14:29:06Z</time>
      </trkpt>
      <trkpt lat="25.5040680" lon="-100.7145660">
        <ele>2176.7</ele>
        <time>2022-08-20T14:29:07Z</time>
      </trkpt>
      <trkpt lat="25.5040410" lon="-100.7145320">
        <ele>2177.0</ele>
        <time>2022-08-20T14:29:08Z</time>
      </trkpt>
      <trkpt lat="25.5040320" lon="-100.7145200">
        <ele>2177.1</ele>
        <time>2022-08-20T14:29:09Z</time>
      </trkpt>
      <trkpt lat="25.5040040" lon="-100.7144920">
        <ele>2177.4</ele>
        <time>2022-08-20T14:29:10Z</time>
      </trkpt>
      <trkpt lat="25.5039750" lon="-100.7144680">
        <ele>2177.6</ele>
        <time>2022-08-20T14:29:11Z</time>
      </trkpt>
      <trkpt lat="25.5039540" lon="-100.7144440">
        <ele>2177.8</ele>
        <time>2022-08-20T14:29:13Z</time>
      </trkpt>
      <trkpt lat="25.5039320" lon="-100.7144210">
        <ele>2178.1</ele>
        <time>2022-08-20T14:29:14Z</time>
      </trkpt>
      <trkpt lat="25.5039120" lon="-100.7143980">
        <ele>2178.3</ele>
        <time>2022-08-20T14:29:15Z</time>
      </trkpt>
      <trkpt lat="25.5038780" lon="-100.7143500">
        <ele>2178.6</ele>
        <time>2022-08-20T14:29:16Z</time>
      </trkpt>
      <trkpt lat="25.5038580" lon="-100.7143190">
        <ele>2178.9</ele>
        <time>2022-08-20T14:29:17Z</time>
      </trkpt>
      <trkpt lat="25.5038350" lon="-100.7142860">
        <ele>2179.2</ele>
        <time>2022-08-20T14:29:19Z</time>
      </trkpt>
      <trkpt lat="25.5038000" lon="-100.7142440">
        <ele>2179.5</ele>
        <time>2022-08-20T14:29:20Z</time>
      </trkpt>
      <trkpt lat="25.5037760" lon="-100.7142220">
        <ele>2179.8</ele>
        <time>2022-08-20T14:29:21Z</time>
      </trkpt>
      <trkpt lat="25.5037560" lon="-100.7142020">
        <ele>2180.0</ele>
        <time>2022-08-20T14:29:22Z</time>
      </trkpt>
      <trkpt lat="25.5037300" lon="-100.7141740">
        <ele>2180.3</ele>
        <time>2022-08-20T14:29:24Z</time>
      </trkpt>
      <trkpt lat="25.5037050" lon="-100.7141420">
        <ele>2180.6</ele>
        <time>2022-08-20T14:29:26Z</time>
      </trkpt>
      <trkpt lat="25.5036750" lon="-100.7141030">
        <ele>2181.0</ele>
        <time>2022-08-20T14:29:28Z</time>
      </trkpt>
      <trkpt lat="25.5036640" lon="-100.7140890">
        <ele>2181.1</ele>
        <time>2022-08-20T14:29:29Z</time>
      </trkpt>
      <trkpt lat="25.5036530" lon="-100.7140750">
        <ele>2181.2</ele>
        <time>2022-08-20T14:29:30Z</time>
      </trkpt>
      <trkpt lat="25.5036340" lon="-100.7140500">
        <ele>2181.5</ele>
        <time>2022-08-20T14:29:31Z</time>
      </trkpt>
      <trkpt lat="25.5035930" lon="-100.7140050">
        <ele>2182.0</ele>
        <time>2022-08-20T14:29:33Z</time>
      </trkpt>
      <trkpt lat="25.5035730" lon="-100.7139670">
        <ele>2182.3</ele>
        <time>2022-08-20T14:29:34Z</time>
      </trkpt>
      <trkpt lat="25.5035680" lon="-100.7139540">
        <ele>2182.3</ele>
        <time>2022-08-20T14:29:35Z</time>
      </trkpt>
      <trkpt lat="25.5035470" lon="-100.7139100">
        <ele>2182.6</ele>
        <time>2022-08-20T14:29:36Z</time>
      </trkpt>
      <trkpt lat="25.5035340" lon="-100.7138750">
        <ele>2182.9</ele>
        <time>2022-08-20T14:29:38Z</time>
      </trkpt>
      <trkpt lat="25.5035260" lon="-100.7138420">
        <ele>2183.1</ele>
        <time>2022-08-20T14:29:39Z</time>
      </trkpt>
      <trkpt lat="25.5035140" lon="-100.7138050">
        <ele>2183.3</ele>
        <time>2022-08-20T14:29:40Z</time>
      </trkpt>
      <trkpt lat="25.5035060" lon="-100.7137680">
        <ele>2183.5</ele>
        <time>2022-08-20T14:29:41Z</time>
      </trkpt>
      <trkpt lat="25.5034980" lon="-100.7137380">
        <ele>2183.6</ele>
        <time>2022-08-20T14:29:42Z</time>
      </trkpt>
      <trkpt lat="25.5034890" lon="-100.7137120">
        <ele>2183.7</ele>
        <time>2022-08-20T14:29:43Z</time>
      </trkpt>
      <trkpt lat="25.5034800" lon="-100.7136750">
        <ele>2183.9</ele>
        <time>2022-08-20T14:29:45Z</time>
      </trkpt>
      <trkpt lat="25.5034730" lon="-100.7136340">
        <ele>2184.0</ele>
        <time>2022-08-20T14:29:46Z</time>
      </trkpt>
      <trkpt lat="25.5034660" lon="-100.7136050">
        <ele>2184.1</ele>
        <time>2022-08-20T14:29:48Z</time>
      </trkpt>
      <trkpt lat="25.5034560" lon="-100.7135630">
        <ele>2184.2</ele>
        <time>2022-08-20T14:29:49Z</time>
      </trkpt>
      <trkpt lat="25.5034530" lon="-100.7135240">
        <ele>2184.2</ele>
        <time>2022-08-20T14:29:51Z</time>
      </trkpt>
      <trkpt lat="25.5034490" lon="-100.7134870">
        <ele>2184.2</ele>
        <time>2022-08-20T14:29:52Z</time>
      </trkpt>
      <trkpt lat="25.5034460" lon="-100.7134450">
        <ele>2184.2</ele>
        <time>2022-08-20T14:29:53Z</time>
      </trkpt>
      <trkpt lat="25.5034440" lon="-100.7134280">
        <ele>2184.2</ele>
        <time>2022-08-20T14:29:54Z</time>
      </trkpt>
      <trkpt lat="25.5034360" lon="-100.7133840">
        <ele>2184.2</ele>
        <time>2022-08-20T14:29:55Z</time>
      </trkpt>
      <trkpt lat="25.5034300" lon="-100.7133220">
        <ele>2184.1</ele>
        <time>2022-08-20T14:29:57Z</time>
      </trkpt>
      <trkpt lat="25.5034260" lon="-100.7132430">
        <ele>2183.9</ele>
        <time>2022-08-20T14:29:58Z</time>
      </trkpt>
      <trkpt lat="25.5034270" lon="-100.7131780">
        <ele>2183.8</ele>
        <time>2022-08-20T14:29:59Z</time>
      </trkpt>
      <trkpt lat="25.5034330" lon="-100.7131260">
        <ele>2183.6</ele>
        <time>2022-08-20T14:30:01Z</time>
      </trkpt>
      <trkpt lat="25.5034400" lon="-100.7130840">
        <ele>2183.5</ele>
        <time>2022-08-20T14:30:02Z</time>
      </trkpt>
      <trkpt lat="25.5034450" lon="-100.7130320">
        <ele>2183.3</ele>
        <time>2022-08-20T14:30:03Z</time>
      </trkpt>
      <trkpt lat="25.5034410" lon="-100.7129400">
        <ele>2182.9</ele>
        <time>2022-08-20T14:30:04Z</time>
      </trkpt>
      <trkpt lat="25.5034360" lon="-100.7128750">
        <ele>2182.6</ele>
        <time>2022-08-20T14:30:05Z</time>
      </trkpt>
      <trkpt lat="25.5034270" lon="-100.7128110">
        <ele>2182.3</ele>
        <time>2022-08-20T14:30:06Z</time>
      </trkpt>
      <trkpt lat="25.5034180" lon="-100.7127470">
        <ele>2181.9</ele>
        <time>2022-08-20T14:30:07Z</time>
      </trkpt>
      <trkpt lat="25.5034090" lon="-100.7126810">
        <ele>2181.5</ele>
        <time>2022-08-20T14:30:08Z</time>
      </trkpt>
      <trkpt lat="25.5033970" lon="-100.7126130">
        <ele>2181.1</ele>
        <time>2022-08-20T14:30:09Z</time>
      </trkpt>
      <trkpt lat="25.5033810" lon="-100.7125410">
        <ele>2180.6</ele>
        <time>2022-08-20T14:30:10Z</time>
      </trkpt>
      <trkpt lat="25.5033610" lon="-100.7124670">
        <ele>2180.0</ele>
        <time>2022-08-20T14:30:11Z</time>
      </trkpt>
      <trkpt lat="25.5033370" lon="-100.7123930">
        <ele>2179.4</ele>
        <time>2022-08-20T14:30:12Z</time>
      </trkpt>
      <trkpt lat="25.5033150" lon="-100.7123140">
        <ele>2178.8</ele>
        <time>2022-08-20T14:30:13Z</time>
      </trkpt>
      <trkpt lat="25.5032960" lon="-100.7122340">
        <ele>2178.1</ele>
        <time>2022-08-20T14:30:14Z</time>
      </trkpt>
      <trkpt lat="25.5032790" lon="-100.7121520">
        <ele>2177.5</ele>
        <time>2022-08-20T14:30:15Z</time>
      </trkpt>
      <trkpt lat="25.5032620" lon="-100.7120670">
        <ele>2176.9</ele>
        <time>2022-08-20T14:30:16Z</time>
      </trkpt>
      <trkpt lat="25.5032460" lon="-100.7119780">
        <ele>2176.1</ele>
        <time>2022-08-20T14:30:17Z</time>
      </trkpt>
      <trkpt lat="25.5032310" lon="-100.7118950">
        <ele>2175.4</ele>
        <time>2022-08-20T14:30:18Z</time>
      </trkpt>
      <trkpt lat="25.5032160" lon="-100.7118110">
        <ele>2174.6</ele>
        <time>2022-08-20T14:30:19Z</time>
      </trkpt>
      <trkpt lat="25.5032040" lon="-100.7117310">
        <ele>2173.7</ele>
        <time>2022-08-20T14:30:20Z</time>
      </trkpt>
      <trkpt lat="25.5031970" lon="-100.7116470">
        <ele>2172.8</ele>
        <time>2022-08-20T14:30:21Z</time>
      </trkpt>
      <trkpt lat="25.5031970" lon="-100.7115560">
        <ele>2171.9</ele>
        <time>2022-08-20T14:30:22Z</time>
      </trkpt>
      <trkpt lat="25.5032060" lon="-100.7114600">
        <ele>2170.9</ele>
        <time>2022-08-20T14:30:23Z</time>
      </trkpt>
      <trkpt lat="25.5032240" lon="-100.7113590">
        <ele>2170.0</ele>
        <time>2022-08-20T14:30:24Z</time>
      </trkpt>
      <trkpt lat="25.5032480" lon="-100.7112590">
        <ele>2169.3</ele>
        <time>2022-08-20T14:30:25Z</time>
      </trkpt>
      <trkpt lat="25.5032680" lon="-100.7111550">
        <ele>2168.6</ele>
        <time>2022-08-20T14:30:26Z</time>
      </trkpt>
      <trkpt lat="25.5032730" lon="-100.7110560">
        <ele>2167.9</ele>
        <time>2022-08-20T14:30:27Z</time>
      </trkpt>
      <trkpt lat="25.5032600" lon="-100.7109560">
        <ele>2167.3</ele>
        <time>2022-08-20T14:30:28Z</time>
      </trkpt>
      <trkpt lat="25.5032300" lon="-100.7108630">
        <ele>2166.7</ele>
        <time>2022-08-20T14:30:29Z</time>
      </trkpt>
      <trkpt lat="25.5031890" lon="-100.7107710">
        <ele>2166.1</ele>
        <time>2022-08-20T14:30:30Z</time>
      </trkpt>
      <trkpt lat="25.5031400" lon="-100.7106840">
        <ele>2165.6</ele>
        <time>2022-08-20T14:30:31Z</time>
      </trkpt>
      <trkpt lat="25.5030860" lon="-100.7105990">
        <ele>2165.1</ele>
        <time>2022-08-20T14:30:32Z</time>
      </trkpt>
      <trkpt lat="25.5030300" lon="-100.7105130">
        <ele>2164.6</ele>
        <time>2022-08-20T14:30:33Z</time>
      </trkpt>
      <trkpt lat="25.5029740" lon="-100.7104280">
        <ele>2164.3</ele>
        <time>2022-08-20T14:30:34Z</time>
      </trkpt>
      <trkpt lat="25.5029210" lon="-100.7103430">
        <ele>2164.0</ele>
        <time>2022-08-20T14:30:35Z</time>
      </trkpt>
      <trkpt lat="25.5028720" lon="-100.7102610">
        <ele>2163.9</ele>
        <time>2022-08-20T14:30:36Z</time>
      </trkpt>
      <trkpt lat="25.5028250" lon="-100.7101840">
        <ele>2163.8</ele>
        <time>2022-08-20T14:30:37Z</time>
      </trkpt>
      <trkpt lat="25.5027850" lon="-100.7101050">
        <ele>2163.7</ele>
        <time>2022-08-20T14:30:38Z</time>
      </trkpt>
      <trkpt lat="25.5027630" lon="-100.7100250">
        <ele>2163.6</ele>
        <time>2022-08-20T14:30:39Z</time>
      </trkpt>
      <trkpt lat="25.5027560" lon="-100.7099420">
        <ele>2163.5</ele>
        <time>2022-08-20T14:30:40Z</time>
      </trkpt>
      <trkpt lat="25.5027620" lon="-100.7098580">
        <ele>2163.4</ele>
        <time>2022-08-20T14:30:41Z</time>
      </trkpt>
      <trkpt lat="25.5027860" lon="-100.7097810">
        <ele>2163.3</ele>
        <time>2022-08-20T14:30:42Z</time>
      </trkpt>
      <trkpt lat="25.5028190" lon="-100.7097040">
        <ele>2163.1</ele>
        <time>2022-08-20T14:30:43Z</time>
      </trkpt>
      <trkpt lat="25.5028620" lon="-100.7096410">
        <ele>2163.0</ele>
        <time>2022-08-20T14:30:44Z</time>
      </trkpt>
      <trkpt lat="25.5029100" lon="-100.7095820">
        <ele>2162.8</ele>
        <time>2022-08-20T14:30:45Z</time>
      </trkpt>
      <trkpt lat="25.5029520" lon="-100.7095280">
        <ele>2162.6</ele>
        <time>2022-08-20T14:30:46Z</time>
      </trkpt>
      <trkpt lat="25.5029990" lon="-100.7094780">
        <ele>2162.4</ele>
        <time>2022-08-20T14:30:47Z</time>
      </trkpt>
      <trkpt lat="25.5030460" lon="-100.7094310">
        <ele>2162.1</ele>
        <time>2022-08-20T14:30:48Z</time>
      </trkpt>
      <trkpt lat="25.5030940" lon="-100.7093790">
        <ele>2161.9</ele>
        <time>2022-08-20T14:30:49Z</time>
      </trkpt>
      <trkpt lat="25.5031360" lon="-100.7093200">
        <ele>2161.6</ele>
        <time>2022-08-20T14:30:50Z</time>
      </trkpt>
      <trkpt lat="25.5031700" lon="-100.7092520">
        <ele>2161.4</ele>
        <time>2022-08-20T14:30:51Z</time>
      </trkpt>
      <trkpt lat="25.5031900" lon="-100.7091820">
        <ele>2161.2</ele>
        <time>2022-08-20T14:30:52Z</time>
      </trkpt>
      <trkpt lat="25.5031960" lon="-100.7091090">
        <ele>2160.9</ele>
        <time>2022-08-20T14:30:53Z</time>
      </trkpt>
      <trkpt lat="25.5032030" lon="-100.7090370">
        <ele>2160.7</ele>
        <time>2022-08-20T14:30:54Z</time>
      </trkpt>
      <trkpt lat="25.5031960" lon="-100.7089640">
        <ele>2160.4</ele>
        <time>2022-08-20T14:30:55Z</time>
      </trkpt>
      <trkpt lat="25.5031910" lon="-100.7088920">
        <ele>2160.1</ele>
        <time>2022-08-20T14:30:56Z</time>
      </trkpt>
      <trkpt lat="25.5031950" lon="-100.7088180">
        <ele>2159.8</ele>
        <time>2022-08-20T14:30:57Z</time>
      </trkpt>
      <trkpt lat="25.5032110" lon="-100.7087450">
        <ele>2159.4</ele>
        <time>2022-08-20T14:30:58Z</time>
      </trkpt>
      <trkpt lat="25.5032390" lon="-100.7086720">
        <ele>2159.0</ele>
        <time>2022-08-20T14:30:59Z</time>
      </trkpt>
      <trkpt lat="25.5032840" lon="-100.7086030">
        <ele>2158.5</ele>
        <time>2022-08-20T14:31:00Z</time>
      </trkpt>
      <trkpt lat="25.5033440" lon="-100.7085390">
        <ele>2158.0</ele>
        <time>2022-08-20T14:31:01Z</time>
      </trkpt>
      <trkpt lat="25.5034160" lon="-100.7084840">
        <ele>2157.3</ele>
        <time>2022-08-20T14:31:02Z</time>
      </trkpt>
      <trkpt lat="25.5035140" lon="-100.7084490">
        <ele>2156.5</ele>
        <time>2022-08-20T14:31:03Z</time>
      </trkpt>
      <trkpt lat="25.5036100" lon="-100.7084230">
        <ele>2155.8</ele>
        <time>2022-08-20T14:31:04Z</time>
      </trkpt>
      <trkpt lat="25.5036980" lon="-100.7084040">
        <ele>2155.4</ele>
        <time>2022-08-20T14:31:05Z</time>
      </trkpt>
      <trkpt lat="25.5037800" lon="-100.7083710">
        <ele>2155.1</ele>
        <time>2022-08-20T14:31:06Z</time>
      </trkpt>
      <trkpt lat="25.5038540" lon="-100.7083250">
        <ele>2155.1</ele>
        <time>2022-08-20T14:31:07Z</time>
      </trkpt>
      <trkpt lat="25.5039200" lon="-100.7082730">
        <ele>2155.1</ele>
        <time>2022-08-20T14:31:08Z</time>
      </trkpt>
      <trkpt lat="25.5039800" lon="-100.7082190">
        <ele>2155.3</ele>
        <time>2022-08-20T14:31:09Z</time>
      </trkpt>
      <trkpt lat="25.5040240" lon="-100.7081740">
        <ele>2155.5</ele>
        <time>2022-08-20T14:31:10Z</time>
      </trkpt>
      <trkpt lat="25.5040700" lon="-100.7081320">
        <ele>2155.7</ele>
        <time>2022-08-20T14:31:11Z</time>
      </trkpt>
      <trkpt lat="25.5041120" lon="-100.7080980">
        <ele>2155.9</ele>
        <time>2022-08-20T14:31:12Z</time>
      </trkpt>
      <trkpt lat="25.5041500" lon="-100.7080720">
        <ele>2156.1</ele>
        <time>2022-08-20T14:31:13Z</time>
      </trkpt>
      <trkpt lat="25.5041910" lon="-100.7080480">
        <ele>2156.4</ele>
        <time>2022-08-20T14:31:14Z</time>
      </trkpt>
      <trkpt lat="25.5042290" lon="-100.7080310">
        <ele>2156.7</ele>
        <time>2022-08-20T14:31:15Z</time>
      </trkpt>
      <trkpt lat="25.5042560" lon="-100.7080230">
        <ele>2156.9</ele>
        <time>2022-08-20T14:31:16Z</time>
      </trkpt>
      <trkpt lat="25.5042890" lon="-100.7080080">
        <ele>2157.1</ele>
        <time>2022-08-20T14:31:17Z</time>
      </trkpt>
      <trkpt lat="25.5043240" lon="-100.7079910">
        <ele>2157.4</ele>
        <time>2022-08-20T14:31:18Z</time>
      </trkpt>
      <trkpt lat="25.5043600" lon="-100.7079750">
        <ele>2157.7</ele>
        <time>2022-08-20T14:31:19Z</time>
      </trkpt>
      <trkpt lat="25.5043740" lon="-100.7079680">
        <ele>2157.8</ele>
        <time>2022-08-20T14:31:20Z</time>
      </trkpt>
      <trkpt lat="25.5044030" lon="-100.7079520">
        <ele>2158.1</ele>
        <time>2022-08-20T14:31:21Z</time>
      </trkpt>
      <trkpt lat="25.5044370" lon="-100.7079400">
        <ele>2158.4</ele>
        <time>2022-08-20T14:31:22Z</time>
      </trkpt>
      <trkpt lat="25.5044510" lon="-100.7079340">
        <ele>2158.6</ele>
        <time>2022-08-20T14:31:23Z</time>
      </trkpt>
      <trkpt lat="25.5044640" lon="-100.7079280">
        <ele>2158.7</ele>
        <time>2022-08-20T14:31:24Z</time>
      </trkpt>
      <trkpt lat="25.5044810" lon="-100.7079000">
        <ele>2159.0</ele>
        <time>2022-08-20T14:31:25Z</time>
      </trkpt>
      <trkpt lat="25.5045030" lon="-100.7078730">
        <ele>2159.4</ele>
        <time>2022-08-20T14:31:26Z</time>
      </trkpt>
      <trkpt lat="25.5045380" lon="-100.7078430">
        <ele>2159.9</ele>
        <time>2022-08-20T14:31:28Z</time>
      </trkpt>
      <trkpt lat="25.5045630" lon="-100.7078120">
        <ele>2160.3</ele>
        <time>2022-08-20T14:31:30Z</time>
      </trkpt>
      <trkpt lat="25.5045710" lon="-100.7078030">
        <ele>2160.4</ele>
        <time>2022-08-20T14:31:31Z</time>
      </trkpt>
      <trkpt lat="25.5045940" lon="-100.7077750">
        <ele>2160.8</ele>
        <time>2022-08-20T14:31:32Z</time>
      </trkpt>
      <trkpt lat="25.5046170" lon="-100.7077340">
        <ele>2161.3</ele>
        <time>2022-08-20T14:31:34Z</time>
      </trkpt>
      <trkpt lat="25.5046230" lon="-100.7077170">
        <ele>2161.5</ele>
        <time>2022-08-20T14:31:35Z</time>
      </trkpt>
      <trkpt lat="25.5046400" lon="-100.7076870">
        <ele>2161.9</ele>
        <time>2022-08-20T14:31:36Z</time>
      </trkpt>
      <trkpt lat="25.5046440" lon="-100.7076780">
        <ele>2162.0</ele>
        <time>2022-08-20T14:31:37Z</time>
      </trkpt>
      <trkpt lat="25.5046510" lon="-100.7076590">
        <ele>2162.2</ele>
        <time>2022-08-20T14:31:38Z</time>
      </trkpt>
      <trkpt lat="25.5046560" lon="-100.7076400">
        <ele>2162.4</ele>
        <time>2022-08-20T14:31:40Z</time>
      </trkpt>
      <trkpt lat="25.5046570" lon="-100.7076270">
        <ele>2162.6</ele>
        <time>2022-08-20T14:31:41Z</time>
      </trkpt>
      <trkpt lat="25.5046590" lon="-100.7076190">
        <ele>2162.6</ele>
        <time>2022-08-20T14:31:42Z</time>
      </trkpt>
      <trkpt lat="25.5046650" lon="-100.7076080">
        <ele>2162.8</ele>
        <time>2022-08-20T14:31:43Z</time>
      </trkpt>
      <trkpt lat="25.5046830" lon="-100.7075660">
        <ele>2163.3</ele>
        <time>2022-08-20T14:31:45Z</time>
      </trkpt>
      <trkpt lat="25.5046890" lon="-100.7075480">
        <ele>2163.4</ele>
        <time>2022-08-20T14:31:46Z</time>
      </trkpt>
      <trkpt lat="25.5047040" lon="-100.7075170">
        <ele>2163.8</ele>
        <time>2022-08-20T14:31:47Z</time>
      </trkpt>
      <trkpt lat="25.5047170" lon="-100.7075010">
        <ele>2164.0</ele>
        <time>2022-08-20T14:31:48Z</time>
      </trkpt>
      <trkpt lat="25.5047250" lon="-100.7074750">
        <ele>2164.3</ele>
        <time>2022-08-20T14:31:50Z</time>
      </trkpt>
      <trkpt lat="25.5047290" lon="-100.7074360">
        <ele>2164.7</ele>
        <time>2022-08-20T14:31:51Z</time>
      </trkpt>
      <trkpt lat="25.5047310" lon="-100.7074240">
        <ele>2164.8</ele>
        <time>2022-08-20T14:31:52Z</time>
      </trkpt>
      <trkpt lat="25.5047380" lon="-100.7073860">
        <ele>2165.2</ele>
        <time>2022-08-20T14:31:53Z</time>
      </trkpt>
      <trkpt lat="25.5047410" lon="-100.7073750">
        <ele>2165.3</ele>
        <time>2022-08-20T14:31:54Z</time>
      </trkpt>
      <trkpt lat="25.5047650" lon="-100.7073240">
        <ele>2165.8</ele>
        <time>2022-08-20T14:31:56Z</time>
      </trkpt>
      <trkpt lat="25.5047720" lon="-100.7073080">
        <ele>2166.0</ele>
        <time>2022-08-20T14:31:57Z</time>
      </trkpt>
      <trkpt lat="25.5047800" lon="-100.7072920">
        <ele>2166.1</ele>
        <time>2022-08-20T14:31:58Z</time>
      </trkpt>
      <trkpt lat="25.5047930" lon="-100.7072610">
        <ele>2166.5</ele>
        <time>2022-08-20T14:31:59Z</time>
      </trkpt>
      <trkpt lat="25.5048110" lon="-100.7072140">
        <ele>2166.9</ele>
        <time>2022-08-20T14:32:01Z</time>
      </trkpt>
      <trkpt lat="25.5048170" lon="-100.7071980">
        <ele>2167.1</ele>
        <time>2022-08-20T14:32:02Z</time>
      </trkpt>
      <trkpt lat="25.5048220" lon="-100.7071820">
        <ele>2167.3</ele>
        <time>2022-08-20T14:32:03Z</time>
      </trkpt>
      <trkpt lat="25.5048470" lon="-100.7071350">
        <ele>2167.8</ele>
        <time>2022-08-20T14:32:05Z</time>
      </trkpt>
      <trkpt lat="25.5048570" lon="-100.7071220">
        <ele>2167.9</ele>
        <time>2022-08-20T14:32:06Z</time>
      </trkpt>
      <trkpt lat="25.5048670" lon="-100.7071080">
        <ele>2168.1</ele>
        <time>2022-08-20T14:32:07Z</time>
      </trkpt>
      <trkpt lat="25.5048830" lon="-100.7070830">
        <ele>2168.4</ele>
        <time>2022-08-20T14:32:08Z</time>
      </trkpt>
      <trkpt lat="25.5048900" lon="-100.7070730">
        <ele>2168.4</ele>
        <time>2022-08-20T14:32:09Z</time>
      </trkpt>
      <trkpt lat="25.5049060" lon="-100.7070390">
        <ele>2168.7</ele>
        <time>2022-08-20T14:32:11Z</time>
      </trkpt>
      <trkpt lat="25.5049100" lon="-100.7070290">
        <ele>2168.8</ele>
        <time>2022-08-20T14:32:12Z</time>
      </trkpt>
      <trkpt lat="25.5049260" lon="-100.7069930">
        <ele>2169.0</ele>
        <time>2022-08-20T14:32:13Z</time>
      </trkpt>
      <trkpt lat="25.5049330" lon="-100.7069820">
        <ele>2169.1</ele>
        <time>2022-08-20T14:32:14Z</time>
      </trkpt>
      <trkpt lat="25.5049570" lon="-100.7069390">
        <ele>2169.3</ele>
        <time>2022-08-20T14:32:15Z</time>
      </trkpt>
      <trkpt lat="25.5049710" lon="-100.7069140">
        <ele>2169.4</ele>
        <time>2022-08-20T14:32:16Z</time>
      </trkpt>
      <trkpt lat="25.5049870" lon="-100.7068840">
        <ele>2169.5</ele>
        <time>2022-08-20T14:32:18Z</time>
      </trkpt>
      <trkpt lat="25.5050020" lon="-100.7068680">
        <ele>2169.5</ele>
        <time>2022-08-20T14:32:19Z</time>
      </trkpt>
      <trkpt lat="25.5050250" lon="-100.7068410">
        <ele>2169.5</ele>
        <time>2022-08-20T14:32:21Z</time>
      </trkpt>
      <trkpt lat="25.5050490" lon="-100.7068030">
        <ele>2169.5</ele>
        <time>2022-08-20T14:32:22Z</time>
      </trkpt>
      <trkpt lat="25.5050580" lon="-100.7067870">
        <ele>2169.5</ele>
        <time>2022-08-20T14:32:23Z</time>
      </trkpt>
      <trkpt lat="25.5050760" lon="-100.7067580">
        <ele>2169.4</ele>
        <time>2022-08-20T14:32:24Z</time>
      </trkpt>
      <trkpt lat="25.5051230" lon="-100.7066830">
        <ele>2169.1</ele>
        <time>2022-08-20T14:32:25Z</time>
      </trkpt>
      <trkpt lat="25.5051870" lon="-100.7065370">
        <ele>2168.3</ele>
        <time>2022-08-20T14:32:27Z</time>
      </trkpt>
      <trkpt lat="25.5052000" lon="-100.7064730">
        <ele>2167.8</ele>
        <time>2022-08-20T14:32:28Z</time>
      </trkpt>
      <trkpt lat="25.5051940" lon="-100.7064060">
        <ele>2167.2</ele>
        <time>2022-08-20T14:32:29Z</time>
      </trkpt>
      <trkpt lat="25.5051650" lon="-100.7063400">
        <ele>2166.5</ele>
        <time>2022-08-20T14:32:30Z</time>
      </trkpt>
      <trkpt lat="25.5051190" lon="-100.7062800">
        <ele>2165.6</ele>
        <time>2022-08-20T14:32:31Z</time>
      </trkpt>
      <trkpt lat="25.5050580" lon="-100.7062260">
        <ele>2164.6</ele>
        <time>2022-08-20T14:32:32Z</time>
      </trkpt>
      <trkpt lat="25.5049900" lon="-100.7061760">
        <ele>2163.5</ele>
        <time>2022-08-20T14:32:33Z</time>
      </trkpt>
      <trkpt lat="25.5049130" lon="-100.7061310">
        <ele>2162.6</ele>
        <time>2022-08-20T14:32:34Z</time>
      </trkpt>
      <trkpt lat="25.5048370" lon="-100.7060890">
        <ele>2161.8</ele>
        <time>2022-08-20T14:32:35Z</time>
      </trkpt>
      <trkpt lat="25.5047660" lon="-100.7060480">
        <ele>2161.3</ele>
        <time>2022-08-20T14:32:36Z</time>
      </trkpt>
      <trkpt lat="25.5047050" lon="-100.7060050">
        <ele>2161.0</ele>
        <time>2022-08-20T14:32:37Z</time>
      </trkpt>
      <trkpt lat="25.5046560" lon="-100.7059540">
        <ele>2160.7</ele>
        <time>2022-08-20T14:32:38Z</time>
      </trkpt>
      <trkpt lat="25.5046190" lon="-100.7058990">
        <ele>2160.5</ele>
        <time>2022-08-20T14:32:39Z</time>
      </trkpt>
      <trkpt lat="25.5045920" lon="-100.7058360">
        <ele>2160.2</ele>
        <time>2022-08-20T14:32:40Z</time>
      </trkpt>
      <trkpt lat="25.5045730" lon="-100.7057670">
        <ele>2159.9</ele>
        <time>2022-08-20T14:32:41Z</time>
      </trkpt>
      <trkpt lat="25.5045660" lon="-100.7056950">
        <ele>2159.7</ele>
        <time>2022-08-20T14:32:42Z</time>
      </trkpt>
      <trkpt lat="25.5045660" lon="-100.7056250">
        <ele>2159.4</ele>
        <time>2022-08-20T14:32:43Z</time>
      </trkpt>
      <trkpt lat="25.5045660" lon="-100.7055640">
        <ele>2159.2</ele>
        <time>2022-08-20T14:32:44Z</time>
      </trkpt>
      <trkpt lat="25.5045660" lon="-100.7055110">
        <ele>2159.0</ele>
        <time>2022-08-20T14:32:45Z</time>
      </trkpt>
      <trkpt lat="25.5045710" lon="-100.7054660">
        <ele>2158.8</ele>
        <time>2022-08-20T14:32:46Z</time>
      </trkpt>
      <trkpt lat="25.5045730" lon="-100.7054460">
        <ele>2158.7</ele>
        <time>2022-08-20T14:32:47Z</time>
      </trkpt>
      <trkpt lat="25.5045790" lon="-100.7054090">
        <ele>2158.6</ele>
        <time>2022-08-20T14:32:48Z</time>
      </trkpt>
      <trkpt lat="25.5045800" lon="-100.7053950">
        <ele>2158.6</ele>
        <time>2022-08-20T14:32:49Z</time>
      </trkpt>
      <trkpt lat="25.5045840" lon="-100.7053750">
        <ele>2158.6</ele>
        <time>2022-08-20T14:32:50Z</time>
      </trkpt>
      <trkpt lat="25.5045860" lon="-100.7053560">
        <ele>2158.5</ele>
        <time>2022-08-20T14:32:51Z</time>
      </trkpt>
      <trkpt lat="25.5045910" lon="-100.7053240">
        <ele>2158.5</ele>
        <time>2022-08-20T14:32:52Z</time>
      </trkpt>
      <trkpt lat="25.5045890" lon="-100.7053130">
        <ele>2158.4</ele>
        <time>2022-08-20T14:32:53Z</time>
      </trkpt>
      <trkpt lat="25.5045800" lon="-100.7052830">
        <ele>2158.4</ele>
        <time>2022-08-20T14:32:54Z</time>
      </trkpt>
      <trkpt lat="25.5045640" lon="-100.7052450">
        <ele>2158.3</ele>
        <time>2022-08-20T14:32:55Z</time>
      </trkpt>
      <trkpt lat="25.5045580" lon="-100.7052100">
        <ele>2158.3</ele>
        <time>2022-08-20T14:32:56Z</time>
      </trkpt>
      <trkpt lat="25.5045610" lon="-100.7051820">
        <ele>2158.3</ele>
        <time>2022-08-20T14:32:57Z</time>
      </trkpt>
      <trkpt lat="25.5045660" lon="-100.7051500">
        <ele>2158.3</ele>
        <time>2022-08-20T14:32:59Z</time>
      </trkpt>
      <trkpt lat="25.5045680" lon="-100.7051150">
        <ele>2158.3</ele>
        <time>2022-08-20T14:33:00Z</time>
      </trkpt>
      <trkpt lat="25.5045700" lon="-100.7050780">
        <ele>2158.3</ele>
        <time>2022-08-20T14:33:01Z</time>
      </trkpt>
      <trkpt lat="25.5045750" lon="-100.7050440">
        <ele>2158.3</ele>
        <time>2022-08-20T14:33:02Z</time>
      </trkpt>
      <trkpt lat="25.5045840" lon="-100.7050050">
        <ele>2158.3</ele>
        <time>2022-08-20T14:33:03Z</time>
      </trkpt>
      <trkpt lat="25.5045880" lon="-100.7049710">
        <ele>2158.4</ele>
        <time>2022-08-20T14:33:04Z</time>
      </trkpt>
      <trkpt lat="25.5045960" lon="-100.7049250">
        <ele>2158.5</ele>
        <time>2022-08-20T14:33:06Z</time>
      </trkpt>
      <trkpt lat="25.5046030" lon="-100.7048670">
        <ele>2158.6</ele>
        <time>2022-08-20T14:33:07Z</time>
      </trkpt>
      <trkpt lat="25.5046250" lon="-100.7048130">
        <ele>2158.8</ele>
        <time>2022-08-20T14:33:08Z</time>
      </trkpt>
      <trkpt lat="25.5046440" lon="-100.7047590">
        <ele>2159.0</ele>
        <time>2022-08-20T14:33:10Z</time>
      </trkpt>
      <trkpt lat="25.5046640" lon="-100.7046890">
        <ele>2159.3</ele>
        <time>2022-08-20T14:33:11Z</time>
      </trkpt>
      <trkpt lat="25.5046870" lon="-100.7046260">
        <ele>2159.6</ele>
        <time>2022-08-20T14:33:13Z</time>
      </trkpt>
      <trkpt lat="25.5047000" lon="-100.7045830">
        <ele>2159.7</ele>
        <time>2022-08-20T14:33:14Z</time>
      </trkpt>
      <trkpt lat="25.5047130" lon="-100.7045520">
        <ele>2159.8</ele>
        <time>2022-08-20T14:33:15Z</time>
      </trkpt>
      <trkpt lat="25.5047210" lon="-100.7045400">
        <ele>2159.9</ele>
        <time>2022-08-20T14:33:16Z</time>
      </trkpt>
      <trkpt lat="25.5047290" lon="-100.7045210">
        <ele>2160.0</ele>
        <time>2022-08-20T14:33:17Z</time>
      </trkpt>
      <trkpt lat="25.5047380" lon="-100.7044800">
        <ele>2160.1</ele>
        <time>2022-08-20T14:33:18Z</time>
      </trkpt>
      <trkpt lat="25.5047570" lon="-100.7044250">
        <ele>2160.3</ele>
        <time>2022-08-20T14:33:20Z</time>
      </trkpt>
      <trkpt lat="25.5047710" lon="-100.7043860">
        <ele>2160.5</ele>
        <time>2022-08-20T14:33:21Z</time>
      </trkpt>
      <trkpt lat="25.5047790" lon="-100.7043500">
        <ele>2160.6</ele>
        <time>2022-08-20T14:33:22Z</time>
      </trkpt>
      <trkpt lat="25.5047840" lon="-100.7043160">
        <ele>2160.8</ele>
        <time>2022-08-20T14:33:23Z</time>
      </trkpt>
      <trkpt lat="25.5047980" lon="-100.7042810">
        <ele>2160.9</ele>
        <time>2022-08-20T14:33:24Z</time>
      </trkpt>
      <trkpt lat="25.5048140" lon="-100.7042340">
        <ele>2161.1</ele>
        <time>2022-08-20T14:33:25Z</time>
      </trkpt>
      <trkpt lat="25.5048200" lon="-100.7042140">
        <ele>2161.2</ele>
        <time>2022-08-20T14:33:26Z</time>
      </trkpt>
      <trkpt lat="25.5048310" lon="-100.7041820">
        <ele>2161.3</ele>
        <time>2022-08-20T14:33:27Z</time>
      </trkpt>
      <trkpt lat="25.5048430" lon="-100.7041310">
        <ele>2161.5</ele>
        <time>2022-08-20T14:33:28Z</time>
      </trkpt>
      <trkpt lat="25.5048520" lon="-100.7040840">
        <ele>2161.6</ele>
        <time>2022-08-20T14:33:29Z</time>
      </trkpt>
      <trkpt lat="25.5048640" lon="-100.7040370">
        <ele>2161.8</ele>
        <time>2022-08-20T14:33:31Z</time>
      </trkpt>
      <trkpt lat="25.5048790" lon="-100.7039990">
        <ele>2162.0</ele>
        <time>2022-08-20T14:33:32Z</time>
      </trkpt>
      <trkpt lat="25.5049040" lon="-100.7039440">
        <ele>2162.2</ele>
        <time>2022-08-20T14:33:33Z</time>
      </trkpt>
      <trkpt lat="25.5049270" lon="-100.7038920">
        <ele>2162.5</ele>
        <time>2022-08-20T14:33:34Z</time>
      </trkpt>
      <trkpt lat="25.5049410" lon="-100.7038550">
        <ele>2162.7</ele>
        <time>2022-08-20T14:33:36Z</time>
      </trkpt>
      <trkpt lat="25.5049590" lon="-100.7038200">
        <ele>2162.9</ele>
        <time>2022-08-20T14:33:37Z</time>
      </trkpt>
      <trkpt lat="25.5049770" lon="-100.7037940">
        <ele>2163.1</ele>
        <time>2022-08-20T14:33:38Z</time>
      </trkpt>
      <trkpt lat="25.5049930" lon="-100.7037720">
        <ele>2163.3</ele>
        <time>2022-08-20T14:33:39Z</time>
      </trkpt>
      <trkpt lat="25.5050080" lon="-100.7037420">
        <ele>2163.5</ele>
        <time>2022-08-20T14:33:41Z</time>
      </trkpt>
      <trkpt lat="25.5050230" lon="-100.7037050">
        <ele>2163.8</ele>
        <time>2022-08-20T14:33:42Z</time>
      </trkpt>
      <trkpt lat="25.5050270" lon="-100.7036920">
        <ele>2163.9</ele>
        <time>2022-08-20T14:33:43Z</time>
      </trkpt>
      <trkpt lat="25.5050350" lon="-100.7036570">
        <ele>2164.1</ele>
        <time>2022-08-20T14:33:44Z</time>
      </trkpt>
      <trkpt lat="25.5050380" lon="-100.7036220">
        <ele>2164.4</ele>
        <time>2022-08-20T14:33:45Z</time>
      </trkpt>
      <trkpt lat="25.5050420" lon="-100.7035660">
        <ele>2164.7</ele>
        <time>2022-08-20T14:33:46Z</time>
      </trkpt>
      <trkpt lat="25.5050490" lon="-100.7035250">
        <ele>2164.9</ele>
        <time>2022-08-20T14:33:48Z</time>
      </trkpt>
      <trkpt lat="25.5050530" lon="-100.7034940">
        <ele>2165.1</ele>
        <time>2022-08-20T14:33:49Z</time>
      </trkpt>
      <trkpt lat="25.5050540" lon="-100.7034600">
        <ele>2165.2</ele>
        <time>2022-08-20T14:33:50Z</time>
      </trkpt>
      <trkpt lat="25.5050550" lon="-100.7034430">
        <ele>2165.3</ele>
        <time>2022-08-20T14:33:51Z</time>
      </trkpt>
      <trkpt lat="25.5050530" lon="-100.7033640">
        <ele>2165.6</ele>
        <time>2022-08-20T14:33:53Z</time>
      </trkpt>
      <trkpt lat="25.5050500" lon="-100.7033110">
        <ele>2165.8</ele>
        <time>2022-08-20T14:33:54Z</time>
      </trkpt>
      <trkpt lat="25.5050490" lon="-100.7032580">
        <ele>2166.0</ele>
        <time>2022-08-20T14:33:55Z</time>
      </trkpt>
      <trkpt lat="25.5050490" lon="-100.7031970">
        <ele>2166.2</ele>
        <time>2022-08-20T14:33:56Z</time>
      </trkpt>
      <trkpt lat="25.5050500" lon="-100.7031430">
        <ele>2166.4</ele>
        <time>2022-08-20T14:33:57Z</time>
      </trkpt>
      <trkpt lat="25.5050550" lon="-100.7030920">
        <ele>2166.6</ele>
        <time>2022-08-20T14:33:58Z</time>
      </trkpt>
      <trkpt lat="25.5050610" lon="-100.7030460">
        <ele>2166.7</ele>
        <time>2022-08-20T14:33:59Z</time>
      </trkpt>
      <trkpt lat="25.5050680" lon="-100.7030070">
        <ele>2166.9</ele>
        <time>2022-08-20T14:34:00Z</time>
      </trkpt>
      <trkpt lat="25.5050770" lon="-100.7029730">
        <ele>2167.0</ele>
        <time>2022-08-20T14:34:01Z</time>
      </trkpt>
      <trkpt lat="25.5050890" lon="-100.7029390">
        <ele>2167.2</ele>
        <time>2022-08-20T14:34:02Z</time>
      </trkpt>
      <trkpt lat="25.5051050" lon="-100.7029030">
        <ele>2167.3</ele>
        <time>2022-08-20T14:34:03Z</time>
      </trkpt>
      <trkpt lat="25.5051280" lon="-100.7028660">
        <ele>2167.4</ele>
        <time>2022-08-20T14:34:05Z</time>
      </trkpt>
      <trkpt lat="25.5051480" lon="-100.7028370">
        <ele>2167.5</ele>
        <time>2022-08-20T14:34:06Z</time>
      </trkpt>
      <trkpt lat="25.5051720" lon="-100.7027950">
        <ele>2167.7</ele>
        <time>2022-08-20T14:34:07Z</time>
      </trkpt>
      <trkpt lat="25.5051970" lon="-100.7027540">
        <ele>2167.8</ele>
        <time>2022-08-20T14:34:08Z</time>
      </trkpt>
      <trkpt lat="25.5052230" lon="-100.7027120">
        <ele>2168.0</ele>
        <time>2022-08-20T14:34:10Z</time>
      </trkpt>
      <trkpt lat="25.5052460" lon="-100.7026780">
        <ele>2168.1</ele>
        <time>2022-08-20T14:34:11Z</time>
      </trkpt>
      <trkpt lat="25.5052690" lon="-100.7026460">
        <ele>2168.2</ele>
        <time>2022-08-20T14:34:12Z</time>
      </trkpt>
      <trkpt lat="25.5052870" lon="-100.7026190">
        <ele>2168.3</ele>
        <time>2022-08-20T14:34:13Z</time>
      </trkpt>
      <trkpt lat="25.5053180" lon="-100.7025660">
        <ele>2168.5</ele>
        <time>2022-08-20T14:34:14Z</time>
      </trkpt>
      <trkpt lat="25.5053400" lon="-100.7025360">
        <ele>2168.6</ele>
        <time>2022-08-20T14:34:16Z</time>
      </trkpt>
      <trkpt lat="25.5053460" lon="-100.7025280">
        <ele>2168.6</ele>
        <time>2022-08-20T14:34:17Z</time>
      </trkpt>
      <trkpt lat="25.5053870" lon="-100.7024840">
        <ele>2168.8</ele>
        <time>2022-08-20T14:34:18Z</time>
      </trkpt>
      <trkpt lat="25.5054210" lon="-100.7024540">
        <ele>2168.9</ele>
        <time>2022-08-20T14:34:20Z</time>
      </trkpt>
      <trkpt lat="25.5054480" lon="-100.7024370">
        <ele>2169.0</ele>
        <time>2022-08-20T14:34:21Z</time>
      </trkpt>
      <trkpt lat="25.5054810" lon="-100.7024200">
        <ele>2169.1</ele>
        <time>2022-08-20T14:34:22Z</time>
      </trkpt>
      <trkpt lat="25.5055120" lon="-100.7024060">
        <ele>2169.2</ele>
        <time>2022-08-20T14:34:23Z</time>
      </trkpt>
      <trkpt lat="25.5055470" lon="-100.7023960">
        <ele>2169.3</ele>
        <time>2022-08-20T14:34:24Z</time>
      </trkpt>
      <trkpt lat="25.5055900" lon="-100.7023950">
        <ele>2169.4</ele>
        <time>2022-08-20T14:34:25Z</time>
      </trkpt>
      <trkpt lat="25.5056500" lon="-100.7023950">
        <ele>2169.6</ele>
        <time>2022-08-20T14:34:26Z</time>
      </trkpt>
      <trkpt lat="25.5056990" lon="-100.7023980">
        <ele>2169.8</ele>
        <time>2022-08-20T14:34:27Z</time>
      </trkpt>
      <trkpt lat="25.5057580" lon="-100.7023980">
        <ele>2169.8</ele>
        <time>2022-08-20T14:34:29Z</time>
      </trkpt>
      <trkpt lat="25.5058320" lon="-100.7023760">
        <ele>2169.8</ele>
        <time>2022-08-20T14:34:30Z</time>
      </trkpt>
      <trkpt lat="25.5059070" lon="-100.7023510">
        <ele>2169.5</ele>
        <time>2022-08-20T14:34:31Z</time>
      </trkpt>
      <trkpt lat="25.5059760" lon="-100.7023250">
        <ele>2169.1</ele>
        <time>2022-08-20T14:34:32Z</time>
      </trkpt>
      <trkpt lat="25.5060360" lon="-100.7022890">
        <ele>2168.7</ele>
        <time>2022-08-20T14:34:33Z</time>
      </trkpt>
      <trkpt lat="25.5060790" lon="-100.7022460">
        <ele>2168.4</ele>
        <time>2022-08-20T14:34:34Z</time>
      </trkpt>
      <trkpt lat="25.5061090" lon="-100.7021960">
        <ele>2168.2</ele>
        <time>2022-08-20T14:34:35Z</time>
      </trkpt>
      <trkpt lat="25.5061280" lon="-100.7021450">
        <ele>2168.1</ele>
        <time>2022-08-20T14:34:36Z</time>
      </trkpt>
      <trkpt lat="25.5061410" lon="-100.7021250">
        <ele>2168.1</ele>
        <time>2022-08-20T14:34:37Z</time>
      </trkpt>
      <trkpt lat="25.5061420" lon="-100.7021180">
        <ele>2168.1</ele>
        <time>2022-08-20T14:34:38Z</time>
      </trkpt>
      <trkpt lat="25.5061270" lon="-100.7020870">
        <ele>2168.0</ele>
        <time>2022-08-20T14:34:39Z</time>
      </trkpt>
      <trkpt lat="25.5061520" lon="-100.7020520">
        <ele>2168.0</ele>
        <time>2022-08-20T14:34:40Z</time>
      </trkpt>
      <trkpt lat="25.5061880" lon="-100.7020000">
        <ele>2167.9</ele>
        <time>2022-08-20T14:34:42Z</time>
      </trkpt>
      <trkpt lat="25.5061980" lon="-100.7019760">
        <ele>2167.9</ele>
        <time>2022-08-20T14:34:44Z</time>
      </trkpt>
      <trkpt lat="25.5062010" lon="-100.7019640">
        <ele>2167.9</ele>
        <time>2022-08-20T14:34:45Z</time>
      </trkpt>
      <trkpt lat="25.5062020" lon="-100.7019550">
        <ele>2167.9</ele>
        <time>2022-08-20T14:34:46Z</time>
      </trkpt>
      <trkpt lat="25.5061990" lon="-100.7019440">
        <ele>2167.9</ele>
        <time>2022-08-20T14:34:47Z</time>
      </trkpt>
      <trkpt lat="25.5062060" lon="-100.7019020">
        <ele>2167.9</ele>
        <time>2022-08-20T14:34:49Z</time>
      </trkpt>
      <trkpt lat="25.5062210" lon="-100.7018660">
        <ele>2167.9</ele>
        <time>2022-08-20T14:34:50Z</time>
      </trkpt>
      <trkpt lat="25.5062330" lon="-100.7018400">
        <ele>2168.0</ele>
        <time>2022-08-20T14:34:51Z</time>
      </trkpt>
      <trkpt lat="25.5062420" lon="-100.7018090">
        <ele>2168.0</ele>
        <time>2022-08-20T14:34:53Z</time>
      </trkpt>
      <trkpt lat="25.5062480" lon="-100.7017740">
        <ele>2168.0</ele>
        <time>2022-08-20T14:34:54Z</time>
      </trkpt>
      <trkpt lat="25.5062580" lon="-100.7017350">
        <ele>2168.0</ele>
        <time>2022-08-20T14:34:56Z</time>
      </trkpt>
      <trkpt lat="25.5062700" lon="-100.7016980">
        <ele>2168.1</ele>
        <time>2022-08-20T14:34:57Z</time>
      </trkpt>
      <trkpt lat="25.5062730" lon="-100.7016870">
        <ele>2168.1</ele>
        <time>2022-08-20T14:34:58Z</time>
      </trkpt>
      <trkpt lat="25.5062830" lon="-100.7016450">
        <ele>2168.1</ele>
        <time>2022-08-20T14:34:59Z</time>
      </trkpt>
      <trkpt lat="25.5062920" lon="-100.7016010">
        <ele>2168.2</ele>
        <time>2022-08-20T14:35:01Z</time>
      </trkpt>
      <trkpt lat="25.5062950" lon="-100.7015800">
        <ele>2168.2</ele>
        <time>2022-08-20T14:35:02Z</time>
      </trkpt>
      <trkpt lat="25.5062970" lon="-100.7015510">
        <ele>2168.2</ele>
        <time>2022-08-20T14:35:03Z</time>
      </trkpt>
      <trkpt lat="25.5062990" lon="-100.7015120">
        <ele>2168.3</ele>
        <time>2022-08-20T14:35:05Z</time>
      </trkpt>
      <trkpt lat="25.5063010" lon="-100.7014760">
        <ele>2168.4</ele>
        <time>2022-08-20T14:35:06Z</time>
      </trkpt>
      <trkpt lat="25.5063010" lon="-100.7014380">
        <ele>2168.5</ele>
        <time>2022-08-20T14:35:07Z</time>
      </trkpt>
      <trkpt lat="25.5063000" lon="-100.7013950">
        <ele>2168.6</ele>
        <time>2022-08-20T14:35:08Z</time>
      </trkpt>
      <trkpt lat="25.5063020" lon="-100.7013500">
        <ele>2168.7</ele>
        <time>2022-08-20T14:35:10Z</time>
      </trkpt>
      <trkpt lat="25.5063000" lon="-100.7013120">
        <ele>2168.8</ele>
        <time>2022-08-20T14:35:11Z</time>
      </trkpt>
      <trkpt lat="25.5063010" lon="-100.7012790">
        <ele>2169.0</ele>
        <time>2022-08-20T14:35:12Z</time>
      </trkpt>
      <trkpt lat="25.5063040" lon="-100.7012410">
        <ele>2169.1</ele>
        <time>2022-08-20T14:35:13Z</time>
      </trkpt>
      <trkpt lat="25.5063080" lon="-100.7012040">
        <ele>2169.2</ele>
        <time>2022-08-20T14:35:15Z</time>
      </trkpt>
      <trkpt lat="25.5063130" lon="-100.7011710">
        <ele>2169.4</ele>
        <time>2022-08-20T14:35:16Z</time>
      </trkpt>
      <trkpt lat="25.5063180" lon="-100.7011390">
        <ele>2169.5</ele>
        <time>2022-08-20T14:35:17Z</time>
      </trkpt>
      <trkpt lat="25.5063310" lon="-100.7010770">
        <ele>2169.8</ele>
        <time>2022-08-20T14:35:18Z</time>
      </trkpt>
      <trkpt lat="25.5063410" lon="-100.7010270">
        <ele>2170.0</ele>
        <time>2022-08-20T14:35:20Z</time>
      </trkpt>
      <trkpt lat="25.5063500" lon="-100.7009600">
        <ele>2170.3</ele>
        <time>2022-08-20T14:35:21Z</time>
      </trkpt>
      <trkpt lat="25.5063550" lon="-100.7009030">
        <ele>2170.6</ele>
        <time>2022-08-20T14:35:22Z</time>
      </trkpt>
      <trkpt lat="25.5063580" lon="-100.7008570">
        <ele>2170.8</ele>
        <time>2022-08-20T14:35:23Z</time>
      </trkpt>
      <trkpt lat="25.5063610" lon="-100.7008150">
        <ele>2171.0</ele>
        <time>2022-08-20T14:35:25Z</time>
      </trkpt>
      <trkpt lat="25.5063680" lon="-100.7007660">
        <ele>2171.2</ele>
        <time>2022-08-20T14:35:26Z</time>
      </trkpt>
      <trkpt lat="25.5063770" lon="-100.7007310">
        <ele>2171.4</ele>
        <time>2022-08-20T14:35:27Z</time>
      </trkpt>
      <trkpt lat="25.5063840" lon="-100.7006990">
        <ele>2171.5</ele>
        <time>2022-08-20T14:35:28Z</time>
      </trkpt>
      <trkpt lat="25.5063920" lon="-100.7006580">
        <ele>2171.7</ele>
        <time>2022-08-20T14:35:30Z</time>
      </trkpt>
      <trkpt lat="25.5063970" lon="-100.7006230">
        <ele>2171.8</ele>
        <time>2022-08-20T14:35:31Z</time>
      </trkpt>
      <trkpt lat="25.5064010" lon="-100.7005920">
        <ele>2171.9</ele>
        <time>2022-08-20T14:35:32Z</time>
      </trkpt>
      <trkpt lat="25.5064070" lon="-100.7005530">
        <ele>2172.1</ele>
        <time>2022-08-20T14:35:33Z</time>
      </trkpt>
      <trkpt lat="25.5064160" lon="-100.7005130">
        <ele>2172.3</ele>
        <time>2022-08-20T14:35:34Z</time>
      </trkpt>
      <trkpt lat="25.5064260" lon="-100.7004710">
        <ele>2172.4</ele>
        <time>2022-08-20T14:35:35Z</time>
      </trkpt>
      <trkpt lat="25.5064380" lon="-100.7004260">
        <ele>2172.6</ele>
        <time>2022-08-20T14:35:37Z</time>
      </trkpt>
      <trkpt lat="25.5064510" lon="-100.7003700">
        <ele>2172.8</ele>
        <time>2022-08-20T14:35:38Z</time>
      </trkpt>
      <trkpt lat="25.5064630" lon="-100.7003240">
        <ele>2173.1</ele>
        <time>2022-08-20T14:35:39Z</time>
      </trkpt>
      <trkpt lat="25.5064700" lon="-100.7002910">
        <ele>2173.2</ele>
        <time>2022-08-20T14:35:41Z</time>
      </trkpt>
      <trkpt lat="25.5064790" lon="-100.7002580">
        <ele>2173.3</ele>
        <time>2022-08-20T14:35:42Z</time>
      </trkpt>
      <trkpt lat="25.5064900" lon="-100.7002290">
        <ele>2173.5</ele>
        <time>2022-08-20T14:35:43Z</time>
      </trkpt>
      <trkpt lat="25.5065100" lon="-100.7001860">
        <ele>2173.7</ele>
        <time>2022-08-20T14:35:44Z</time>
      </trkpt>
      <trkpt lat="25.5065260" lon="-100.7001560">
        <ele>2173.8</ele>
        <time>2022-08-20T14:35:45Z</time>
      </trkpt>
      <trkpt lat="25.5065390" lon="-100.7001330">
        <ele>2174.0</ele>
        <time>2022-08-20T14:35:46Z</time>
      </trkpt>
      <trkpt lat="25.5065660" lon="-100.7000910">
        <ele>2174.2</ele>
        <time>2022-08-20T14:35:48Z</time>
      </trkpt>
      <trkpt lat="25.5065890" lon="-100.7000570">
        <ele>2174.4</ele>
        <time>2022-08-20T14:35:49Z</time>
      </trkpt>
      <trkpt lat="25.5066180" lon="-100.7000130">
        <ele>2174.6</ele>
        <time>2022-08-20T14:35:50Z</time>
      </trkpt>
      <trkpt lat="25.5066610" lon="-100.6999450">
        <ele>2175.0</ele>
        <time>2022-08-20T14:35:53Z</time>
      </trkpt>
      <trkpt lat="25.5066890" lon="-100.6998980">
        <ele>2175.2</ele>
        <time>2022-08-20T14:35:54Z</time>
      </trkpt>
      <trkpt lat="25.5067250" lon="-100.6998350">
        <ele>2175.5</ele>
        <time>2022-08-20T14:35:55Z</time>
      </trkpt>
      <trkpt lat="25.5067710" lon="-100.6997620">
        <ele>2175.7</ele>
        <time>2022-08-20T14:35:56Z</time>
      </trkpt>
      <trkpt lat="25.5068190" lon="-100.6996960">
        <ele>2175.8</ele>
        <time>2022-08-20T14:35:57Z</time>
      </trkpt>
      <trkpt lat="25.5068580" lon="-100.6996490">
        <ele>2175.8</ele>
        <time>2022-08-20T14:35:59Z</time>
      </trkpt>
      <trkpt lat="25.5069330" lon="-100.6995620">
        <ele>2175.7</ele>
        <time>2022-08-20T14:36:00Z</time>
      </trkpt>
      <trkpt lat="25.5069830" lon="-100.6995010">
        <ele>2175.5</ele>
        <time>2022-08-20T14:36:01Z</time>
      </trkpt>
      <trkpt lat="25.5070220" lon="-100.6994430">
        <ele>2175.4</ele>
        <time>2022-08-20T14:36:02Z</time>
      </trkpt>
      <trkpt lat="25.5070490" lon="-100.6993850">
        <ele>2175.3</ele>
        <time>2022-08-20T14:36:03Z</time>
      </trkpt>
      <trkpt lat="25.5070540" lon="-100.6993550">
        <ele>2175.2</ele>
        <time>2022-08-20T14:36:04Z</time>
      </trkpt>
      <trkpt lat="25.5070450" lon="-100.6993150">
        <ele>2175.2</ele>
        <time>2022-08-20T14:36:05Z</time>
      </trkpt>
      <trkpt lat="25.5070460" lon="-100.6992430">
        <ele>2175.1</ele>
        <time>2022-08-20T14:36:06Z</time>
      </trkpt>
      <trkpt lat="25.5070550" lon="-100.6991770">
        <ele>2175.2</ele>
        <time>2022-08-20T14:36:07Z</time>
      </trkpt>
      <trkpt lat="25.5070690" lon="-100.6991170">
        <ele>2175.4</ele>
        <time>2022-08-20T14:36:08Z</time>
      </trkpt>
      <trkpt lat="25.5070770" lon="-100.6990810">
        <ele>2175.6</ele>
        <time>2022-08-20T14:36:09Z</time>
      </trkpt>
      <trkpt lat="25.5070650" lon="-100.6991140">
        <ele>2175.8</ele>
        <time>2022-08-20T14:36:10Z</time>
      </trkpt>
      <trkpt lat="25.5070560" lon="-100.6991230">
        <ele>2175.9</ele>
        <time>2022-08-20T14:36:11Z</time>
      </trkpt>
      <trkpt lat="25.5070530" lon="-100.6990750">
        <ele>2176.2</ele>
        <time>2022-08-20T14:36:12Z</time>
      </trkpt>
      <trkpt lat="25.5070590" lon="-100.6990070">
        <ele>2176.8</ele>
        <time>2022-08-20T14:36:13Z</time>
      </trkpt>
      <trkpt lat="25.5070620" lon="-100.6989470">
        <ele>2177.3</ele>
        <time>2022-08-20T14:36:15Z</time>
      </trkpt>
      <trkpt lat="25.5070700" lon="-100.6988720">
        <ele>2177.9</ele>
        <time>2022-08-20T14:36:16Z</time>
      </trkpt>
      <trkpt lat="25.5070740" lon="-100.6988240">
        <ele>2178.3</ele>
        <time>2022-08-20T14:36:17Z</time>
      </trkpt>
      <trkpt lat="25.5070770" lon="-100.6987730">
        <ele>2178.5</ele>
        <time>2022-08-20T14:36:18Z</time>
      </trkpt>
      <trkpt lat="25.5070710" lon="-100.6987160">
        <ele>2178.7</ele>
        <time>2022-08-20T14:36:19Z</time>
      </trkpt>
      <trkpt lat="25.5070610" lon="-100.6986790">
        <ele>2178.8</ele>
        <time>2022-08-20T14:36:20Z</time>
      </trkpt>
      <trkpt lat="25.5070440" lon="-100.6986460">
        <ele>2178.8</ele>
        <time>2022-08-20T14:36:21Z</time>
      </trkpt>
      <trkpt lat="25.5070140" lon="-100.6986190">
        <ele>2178.9</ele>
        <time>2022-08-20T14:36:23Z</time>
      </trkpt>
      <trkpt lat="25.5069850" lon="-100.6986030">
        <ele>2178.9</ele>
        <time>2022-08-20T14:36:24Z</time>
      </trkpt>
      <trkpt lat="25.5069540" lon="-100.6985840">
        <ele>2178.9</ele>
        <time>2022-08-20T14:36:25Z</time>
      </trkpt>
      <trkpt lat="25.5069190" lon="-100.6985460">
        <ele>2178.9</ele>
        <time>2022-08-20T14:36:26Z</time>
      </trkpt>
      <trkpt lat="25.5068930" lon="-100.6985190">
        <ele>2178.9</ele>
        <time>2022-08-20T14:36:28Z</time>
      </trkpt>
      <trkpt lat="25.5068550" lon="-100.6984840">
        <ele>2179.1</ele>
        <time>2022-08-20T14:36:29Z</time>
      </trkpt>
      <trkpt lat="25.5068290" lon="-100.6984630">
        <ele>2179.2</ele>
        <time>2022-08-20T14:36:30Z</time>
      </trkpt>
      <trkpt lat="25.5067980" lon="-100.6984430">
        <ele>2179.4</ele>
        <time>2022-08-20T14:36:32Z</time>
      </trkpt>
      <trkpt lat="25.5067690" lon="-100.6984320">
        <ele>2179.6</ele>
        <time>2022-08-20T14:36:33Z</time>
      </trkpt>
      <trkpt lat="25.5067370" lon="-100.6984210">
        <ele>2179.8</ele>
        <time>2022-08-20T14:36:34Z</time>
      </trkpt>
      <trkpt lat="25.5067250" lon="-100.6984170">
        <ele>2180.0</ele>
        <time>2022-08-20T14:36:35Z</time>
      </trkpt>
      <trkpt lat="25.5067090" lon="-100.6984100">
        <ele>2180.1</ele>
        <time>2022-08-20T14:36:37Z</time>
      </trkpt>
      <trkpt lat="25.5067000" lon="-100.6984050">
        <ele>2180.2</ele>
        <time>2022-08-20T14:36:38Z</time>
      </trkpt>
      <trkpt lat="25.5066910" lon="-100.6984000">
        <ele>2180.4</ele>
        <time>2022-08-20T14:36:39Z</time>
      </trkpt>
      <trkpt lat="25.5066720" lon="-100.6983830">
        <ele>2180.7</ele>
        <time>2022-08-20T14:36:41Z</time>
      </trkpt>
      <trkpt lat="25.5066650" lon="-100.6983710">
        <ele>2180.8</ele>
        <time>2022-08-20T14:36:42Z</time>
      </trkpt>
      <trkpt lat="25.5066570" lon="-100.6983510">
        <ele>2181.1</ele>
        <time>2022-08-20T14:36:43Z</time>
      </trkpt>
      <trkpt lat="25.5066440" lon="-100.6983220">
        <ele>2181.5</ele>
        <time>2022-08-20T14:36:45Z</time>
      </trkpt>
      <trkpt lat="25.5066290" lon="-100.6982920">
        <ele>2182.0</ele>
        <time>2022-08-20T14:36:46Z</time>
      </trkpt>
      <trkpt lat="25.5066240" lon="-100.6982820">
        <ele>2182.1</ele>
        <time>2022-08-20T14:36:47Z</time>
      </trkpt>
      <trkpt lat="25.5066130" lon="-100.6982490">
        <ele>2182.6</ele>
        <time>2022-08-20T14:36:48Z</time>
      </trkpt>
      <trkpt lat="25.5066010" lon="-100.6982220">
        <ele>2183.1</ele>
        <time>2022-08-20T14:36:49Z</time>
      </trkpt>
      <trkpt lat="25.5065840" lon="-100.6981830">
        <ele>2183.7</ele>
        <time>2022-08-20T14:36:51Z</time>
      </trkpt>
      <trkpt lat="25.5065790" lon="-100.6981690">
        <ele>2183.9</ele>
        <time>2022-08-20T14:36:52Z</time>
      </trkpt>
      <trkpt lat="25.5065720" lon="-100.6981390">
        <ele>2184.3</ele>
        <time>2022-08-20T14:36:54Z</time>
      </trkpt>
      <trkpt lat="25.5065710" lon="-100.6981210">
        <ele>2184.5</ele>
        <time>2022-08-20T14:36:55Z</time>
      </trkpt>
      <trkpt lat="25.5065630" lon="-100.6981010">
        <ele>2184.8</ele>
        <time>2022-08-20T14:36:56Z</time>
      </trkpt>
      <trkpt lat="25.5065510" lon="-100.6980570">
        <ele>2185.3</ele>
        <time>2022-08-20T14:36:57Z</time>
      </trkpt>
      <trkpt lat="25.5065470" lon="-100.6980360">
        <ele>2185.6</ele>
        <time>2022-08-20T14:36:58Z</time>
      </trkpt>
      <trkpt lat="25.5065420" lon="-100.6980010">
        <ele>2186.0</ele>
        <time>2022-08-20T14:37:00Z</time>
      </trkpt>
      <trkpt lat="25.5065380" lon="-100.6979660">
        <ele>2186.3</ele>
        <time>2022-08-20T14:37:02Z</time>
      </trkpt>
      <trkpt lat="25.5065380" lon="-100.6979550">
        <ele>2186.4</ele>
        <time>2022-08-20T14:37:03Z</time>
      </trkpt>
      <trkpt lat="25.5065340" lon="-100.6979220">
        <ele>2186.7</ele>
        <time>2022-08-20T14:37:04Z</time>
      </trkpt>
      <trkpt lat="25.5065340" lon="-100.6978870">
        <ele>2187.0</ele>
        <time>2022-08-20T14:37:05Z</time>
      </trkpt>
      <trkpt lat="25.5065380" lon="-100.6978560">
        <ele>2187.2</ele>
        <time>2022-08-20T14:37:06Z</time>
      </trkpt>
      <trkpt lat="25.5065510" lon="-100.6978160">
        <ele>2187.5</ele>
        <time>2022-08-20T14:37:07Z</time>
      </trkpt>
      <trkpt lat="25.5065550" lon="-100.6978030">
        <ele>2187.6</ele>
        <time>2022-08-20T14:37:08Z</time>
      </trkpt>
      <trkpt lat="25.5065780" lon="-100.6977600">
        <ele>2187.8</ele>
        <time>2022-08-20T14:37:10Z</time>
      </trkpt>
      <trkpt lat="25.5065890" lon="-100.6977470">
        <ele>2187.9</ele>
        <time>2022-08-20T14:37:11Z</time>
      </trkpt>
      <trkpt lat="25.5066000" lon="-100.6977340">
        <ele>2187.9</ele>
        <time>2022-08-20T14:37:12Z</time>
      </trkpt>
      <trkpt lat="25.5066250" lon="-100.6977150">
        <ele>2188.0</ele>
        <time>2022-08-20T14:37:13Z</time>
      </trkpt>
      <trkpt lat="25.5066580" lon="-100.6976920">
        <ele>2188.1</ele>
        <time>2022-08-20T14:37:14Z</time>
      </trkpt>
      <trkpt lat="25.5066860" lon="-100.6976840">
        <ele>2188.1</ele>
        <time>2022-08-20T14:37:15Z</time>
      </trkpt>
      <trkpt lat="25.5067220" lon="-100.6976780">
        <ele>2188.2</ele>
        <time>2022-08-20T14:37:17Z</time>
      </trkpt>
      <trkpt lat="25.5067530" lon="-100.6976750">
        <ele>2188.2</ele>
        <time>2022-08-20T14:37:18Z</time>
      </trkpt>
      <trkpt lat="25.5067630" lon="-100.6976750">
        <ele>2188.2</ele>
        <time>2022-08-20T14:37:19Z</time>
      </trkpt>
      <trkpt lat="25.5067930" lon="-100.6976800">
        <ele>2188.2</ele>
        <time>2022-08-20T14:37:20Z</time>
      </trkpt>
      <trkpt lat="25.5068110" lon="-100.6976820">
        <ele>2188.2</ele>
        <time>2022-08-20T14:37:21Z</time>
      </trkpt>
      <trkpt lat="25.5068290" lon="-100.6976840">
        <ele>2188.2</ele>
        <time>2022-08-20T14:37:23Z</time>
      </trkpt>
      <trkpt lat="25.5068440" lon="-100.6976860">
        <ele>2188.2</ele>
        <time>2022-08-20T14:37:24Z</time>
      </trkpt>
      <trkpt lat="25.5068580" lon="-100.6976890">
        <ele>2188.3</ele>
        <time>2022-08-20T14:37:25Z</time>
      </trkpt>
      <trkpt lat="25.5068770" lon="-100.6976960">
        <ele>2188.3</ele>
        <time>2022-08-20T14:37:26Z</time>
      </trkpt>
      <trkpt lat="25.5069030" lon="-100.6977060">
        <ele>2188.3</ele>
        <time>2022-08-20T14:37:28Z</time>
      </trkpt>
      <trkpt lat="25.5069380" lon="-100.6977040">
        <ele>2188.3</ele>
        <time>2022-08-20T14:37:29Z</time>
      </trkpt>
      <trkpt lat="25.5069550" lon="-100.6977040">
        <ele>2188.3</ele>
        <time>2022-08-20T14:37:30Z</time>
      </trkpt>
      <trkpt lat="25.5069770" lon="-100.6976990">
        <ele>2188.3</ele>
        <time>2022-08-20T14:37:32Z</time>
      </trkpt>
      <trkpt lat="25.5070170" lon="-100.6976980">
        <ele>2188.3</ele>
        <time>2022-08-20T14:37:33Z</time>
      </trkpt>
      <trkpt lat="25.5070530" lon="-100.6976960">
        <ele>2188.3</ele>
        <time>2022-08-20T14:37:35Z</time>
      </trkpt>
      <trkpt lat="25.5070620" lon="-100.6976930">
        <ele>2188.4</ele>
        <time>2022-08-20T14:37:36Z</time>
      </trkpt>
      <trkpt lat="25.5070950" lon="-100.6976870">
        <ele>2188.4</ele>
        <time>2022-08-20T14:37:37Z</time>
      </trkpt>
      <trkpt lat="25.5071080" lon="-100.6976830">
        <ele>2188.4</ele>
        <time>2022-08-20T14:37:38Z</time>
      </trkpt>
      <trkpt lat="25.5071450" lon="-100.6976590">
        <ele>2188.4</ele>
        <time>2022-08-20T14:37:39Z</time>
      </trkpt>
      <trkpt lat="25.5071630" lon="-100.6976450">
        <ele>2188.5</ele>
        <time>2022-08-20T14:37:40Z</time>
      </trkpt>
      <trkpt lat="25.5071870" lon="-100.6976340">
        <ele>2188.5</ele>
        <time>2022-08-20T14:37:41Z</time>
      </trkpt>
      <trkpt lat="25.5072210" lon="-100.6976180">
        <ele>2188.5</ele>
        <time>2022-08-20T14:37:43Z</time>
      </trkpt>
      <trkpt lat="25.5072460" lon="-100.6976030">
        <ele>2188.6</ele>
        <time>2022-08-20T14:37:44Z</time>
      </trkpt>
      <trkpt lat="25.5072760" lon="-100.6975800">
        <ele>2188.6</ele>
        <time>2022-08-20T14:37:45Z</time>
      </trkpt>
      <trkpt lat="25.5072860" lon="-100.6975720">
        <ele>2188.7</ele>
        <time>2022-08-20T14:37:46Z</time>
      </trkpt>
      <trkpt lat="25.5073210" lon="-100.6975390">
        <ele>2188.7</ele>
        <time>2022-08-20T14:37:48Z</time>
      </trkpt>
      <trkpt lat="25.5073330" lon="-100.6975280">
        <ele>2188.7</ele>
        <time>2022-08-20T14:37:49Z</time>
      </trkpt>
      <trkpt lat="25.5073440" lon="-100.6975180">
        <ele>2188.8</ele>
        <time>2022-08-20T14:37:50Z</time>
      </trkpt>
      <trkpt lat="25.5073730" lon="-100.6974940">
        <ele>2188.8</ele>
        <time>2022-08-20T14:37:51Z</time>
      </trkpt>
      <trkpt lat="25.5074030" lon="-100.6974800">
        <ele>2188.9</ele>
        <time>2022-08-20T14:37:52Z</time>
      </trkpt>
      <trkpt lat="25.5074290" lon="-100.6974550">
        <ele>2188.9</ele>
        <time>2022-08-20T14:37:54Z</time>
      </trkpt>
      <trkpt lat="25.5074370" lon="-100.6974450">
        <ele>2188.9</ele>
        <time>2022-08-20T14:37:55Z</time>
      </trkpt>
      <trkpt lat="25.5074570" lon="-100.6974120">
        <ele>2189.0</ele>
        <time>2022-08-20T14:37:56Z</time>
      </trkpt>
      <trkpt lat="25.5074620" lon="-100.6974010">
        <ele>2189.0</ele>
        <time>2022-08-20T14:37:57Z</time>
      </trkpt>
      <trkpt lat="25.5074780" lon="-100.6973660">
        <ele>2189.1</ele>
        <time>2022-08-20T14:37:58Z</time>
      </trkpt>
      <trkpt lat="25.5074830" lon="-100.6973560">
        <ele>2189.1</ele>
        <time>2022-08-20T14:37:59Z</time>
      </trkpt>
      <trkpt lat="25.5074950" lon="-100.6973220">
        <ele>2189.1</ele>
        <time>2022-08-20T14:38:00Z</time>
      </trkpt>
      <trkpt lat="25.5075000" lon="-100.6973110">
        <ele>2189.1</ele>
        <time>2022-08-20T14:38:01Z</time>
      </trkpt>
      <trkpt lat="25.5075170" lon="-100.6972850">
        <ele>2189.1</ele>
        <time>2022-08-20T14:38:02Z</time>
      </trkpt>
      <trkpt lat="25.5075330" lon="-100.6972590">
        <ele>2189.2</ele>
        <time>2022-08-20T14:38:03Z</time>
      </trkpt>
      <trkpt lat="25.5075380" lon="-100.6972510">
        <ele>2189.2</ele>
        <time>2022-08-20T14:38:04Z</time>
      </trkpt>
      <trkpt lat="25.5075480" lon="-100.6972370">
        <ele>2189.2</ele>
        <time>2022-08-20T14:38:05Z</time>
      </trkpt>
      <trkpt lat="25.5075740" lon="-100.6972010">
        <ele>2189.2</ele>
        <time>2022-08-20T14:38:07Z</time>
      </trkpt>
      <trkpt lat="25.5075860" lon="-100.6971810">
        <ele>2189.3</ele>
        <time>2022-08-20T14:38:09Z</time>
      </trkpt>
      <trkpt lat="25.5075890" lon="-100.6971790">
        <ele>2189.3</ele>
        <time>2022-08-20T14:38:10Z</time>
      </trkpt>
      <trkpt lat="25.5075930" lon="-100.6971720">
        <ele>2189.3</ele>
        <time>2022-08-20T14:38:11Z</time>
      </trkpt>
      <trkpt lat="25.5076170" lon="-100.6971350">
        <ele>2189.3</ele>
        <time>2022-08-20T14:38:13Z</time>
      </trkpt>
      <trkpt lat="25.5076380" lon="-100.6971040">
        <ele>2189.4</ele>
        <time>2022-08-20T14:38:14Z</time>
      </trkpt>
      <trkpt lat="25.5076550" lon="-100.6970760">
        <ele>2189.4</ele>
        <time>2022-08-20T14:38:15Z</time>
      </trkpt>
      <trkpt lat="25.5076720" lon="-100.6970370">
        <ele>2189.5</ele>
        <time>2022-08-20T14:38:16Z</time>
      </trkpt>
      <trkpt lat="25.5076770" lon="-100.6970220">
        <ele>2189.6</ele>
        <time>2022-08-20T14:38:17Z</time>
      </trkpt>
      <trkpt lat="25.5076860" lon="-100.6969860">
        <ele>2189.7</ele>
        <time>2022-08-20T14:38:18Z</time>
      </trkpt>
      <trkpt lat="25.5076990" lon="-100.6969460">
        <ele>2189.8</ele>
        <time>2022-08-20T14:38:20Z</time>
      </trkpt>
      <trkpt lat="25.5077150" lon="-100.6969030">
        <ele>2190.1</ele>
        <time>2022-08-20T14:38:21Z</time>
      </trkpt>
      <trkpt lat="25.5077310" lon="-100.6968620">
        <ele>2190.3</ele>
        <time>2022-08-20T14:38:22Z</time>
      </trkpt>
      <trkpt lat="25.5077450" lon="-100.6968200">
        <ele>2190.6</ele>
        <time>2022-08-20T14:38:23Z</time>
      </trkpt>
      <trkpt lat="25.5077610" lon="-100.6967800">
        <ele>2190.9</ele>
        <time>2022-08-20T14:38:24Z</time>
      </trkpt>
      <trkpt lat="25.5077770" lon="-100.6967410">
        <ele>2191.3</ele>
        <time>2022-08-20T14:38:25Z</time>
      </trkpt>
      <trkpt lat="25.5077950" lon="-100.6966960">
        <ele>2191.8</ele>
        <time>2022-08-20T14:38:26Z</time>
      </trkpt>
      <trkpt lat="25.5078090" lon="-100.6966540">
        <ele>2192.2</ele>
        <time>2022-08-20T14:38:27Z</time>
      </trkpt>
      <trkpt lat="25.5078220" lon="-100.6966120">
        <ele>2192.7</ele>
        <time>2022-08-20T14:38:28Z</time>
      </trkpt>
      <trkpt lat="25.5078410" lon="-100.6965650">
        <ele>2193.2</ele>
        <time>2022-08-20T14:38:30Z</time>
      </trkpt>
      <trkpt lat="25.5078610" lon="-100.6965260">
        <ele>2193.7</ele>
        <time>2022-08-20T14:38:31Z</time>
      </trkpt>
      <trkpt lat="25.5078820" lon="-100.6964870">
        <ele>2194.1</ele>
        <time>2022-08-20T14:38:32Z</time>
      </trkpt>
      <trkpt lat="25.5079040" lon="-100.6964410">
        <ele>2194.6</ele>
        <time>2022-08-20T14:38:33Z</time>
      </trkpt>
      <trkpt lat="25.5079230" lon="-100.6963970">
        <ele>2195.1</ele>
        <time>2022-08-20T14:38:34Z</time>
      </trkpt>
      <trkpt lat="25.5079380" lon="-100.6963700">
        <ele>2195.3</ele>
        <time>2022-08-20T14:38:35Z</time>
      </trkpt>
      <trkpt lat="25.5079570" lon="-100.6963310">
        <ele>2195.7</ele>
        <time>2022-08-20T14:38:37Z</time>
      </trkpt>
      <trkpt lat="25.5079730" lon="-100.6962940">
        <ele>2196.1</ele>
        <time>2022-08-20T14:38:38Z</time>
      </trkpt>
      <trkpt lat="25.5079780" lon="-100.6962820">
        <ele>2196.2</ele>
        <time>2022-08-20T14:38:39Z</time>
      </trkpt>
      <trkpt lat="25.5079900" lon="-100.6962500">
        <ele>2196.6</ele>
        <time>2022-08-20T14:38:40Z</time>
      </trkpt>
      <trkpt lat="25.5080020" lon="-100.6962150">
        <ele>2196.9</ele>
        <time>2022-08-20T14:38:41Z</time>
      </trkpt>
      <trkpt lat="25.5080150" lon="-100.6961780">
        <ele>2197.4</ele>
        <time>2022-08-20T14:38:42Z</time>
      </trkpt>
      <trkpt lat="25.5080190" lon="-100.6961670">
        <ele>2197.5</ele>
        <time>2022-08-20T14:38:43Z</time>
      </trkpt>
      <trkpt lat="25.5080300" lon="-100.6961380">
        <ele>2197.9</ele>
        <time>2022-08-20T14:38:44Z</time>
      </trkpt>
      <trkpt lat="25.5080330" lon="-100.6961300">
        <ele>2198.0</ele>
        <time>2022-08-20T14:38:45Z</time>
      </trkpt>
      <trkpt lat="25.5080380" lon="-100.6961090">
        <ele>2198.2</ele>
        <time>2022-08-20T14:38:46Z</time>
      </trkpt>
      <trkpt lat="25.5080420" lon="-100.6960950">
        <ele>2198.4</ele>
        <time>2022-08-20T14:38:48Z</time>
      </trkpt>
      <trkpt lat="25.5080450" lon="-100.6960790">
        <ele>2198.6</ele>
        <time>2022-08-20T14:38:49Z</time>
      </trkpt>
      <trkpt lat="25.5080490" lon="-100.6960630">
        <ele>2198.7</ele>
        <time>2022-08-20T14:38:51Z</time>
      </trkpt>
      <trkpt lat="25.5080510" lon="-100.6960560">
        <ele>2198.8</ele>
        <time>2022-08-20T14:38:52Z</time>
      </trkpt>
      <trkpt lat="25.5080580" lon="-100.6960460">
        <ele>2199.0</ele>
        <time>2022-08-20T14:38:53Z</time>
      </trkpt>
      <trkpt lat="25.5080620" lon="-100.6960420">
        <ele>2199.0</ele>
        <time>2022-08-20T14:38:54Z</time>
      </trkpt>
      <trkpt lat="25.5080650" lon="-100.6960390">
        <ele>2199.1</ele>
        <time>2022-08-20T14:38:55Z</time>
      </trkpt>
      <trkpt lat="25.5080730" lon="-100.6960300">
        <ele>2199.2</ele>
        <time>2022-08-20T14:38:56Z</time>
      </trkpt>
      <trkpt lat="25.5080800" lon="-100.6960180">
        <ele>2199.4</ele>
        <time>2022-08-20T14:38:57Z</time>
      </trkpt>
      <trkpt lat="25.5080870" lon="-100.6960050">
        <ele>2199.5</ele>
        <time>2022-08-20T14:38:58Z</time>
      </trkpt>
      <trkpt lat="25.5081030" lon="-100.6959610">
        <ele>2199.9</ele>
        <time>2022-08-20T14:39:00Z</time>
      </trkpt>
      <trkpt lat="25.5081260" lon="-100.6959240">
        <ele>2200.3</ele>
        <time>2022-08-20T14:39:01Z</time>
      </trkpt>
      <trkpt lat="25.5081470" lon="-100.6958890">
        <ele>2200.6</ele>
        <time>2022-08-20T14:39:02Z</time>
      </trkpt>
      <trkpt lat="25.5081660" lon="-100.6958630">
        <ele>2200.8</ele>
        <time>2022-08-20T14:39:03Z</time>
      </trkpt>
      <trkpt lat="25.5081820" lon="-100.6958310">
        <ele>2201.0</ele>
        <time>2022-08-20T14:39:04Z</time>
      </trkpt>
      <trkpt lat="25.5082070" lon="-100.6957980">
        <ele>2201.2</ele>
        <time>2022-08-20T14:39:05Z</time>
      </trkpt>
      <trkpt lat="25.5082150" lon="-100.6957880">
        <ele>2201.3</ele>
        <time>2022-08-20T14:39:06Z</time>
      </trkpt>
      <trkpt lat="25.5082310" lon="-100.6957560">
        <ele>2201.5</ele>
        <time>2022-08-20T14:39:07Z</time>
      </trkpt>
      <trkpt lat="25.5082350" lon="-100.6957480">
        <ele>2201.5</ele>
        <time>2022-08-20T14:39:08Z</time>
      </trkpt>
      <trkpt lat="25.5082570" lon="-100.6957200">
        <ele>2201.7</ele>
        <time>2022-08-20T14:39:09Z</time>
      </trkpt>
      <trkpt lat="25.5082660" lon="-100.6957100">
        <ele>2201.8</ele>
        <time>2022-08-20T14:39:10Z</time>
      </trkpt>
      <trkpt lat="25.5082920" lon="-100.6956820">
        <ele>2202.0</ele>
        <time>2022-08-20T14:39:12Z</time>
      </trkpt>
      <trkpt lat="25.5083180" lon="-100.6956530">
        <ele>2202.2</ele>
        <time>2022-08-20T14:39:13Z</time>
      </trkpt>
      <trkpt lat="25.5083440" lon="-100.6956240">
        <ele>2202.5</ele>
        <time>2022-08-20T14:39:14Z</time>
      </trkpt>
      <trkpt lat="25.5083520" lon="-100.6956130">
        <ele>2202.6</ele>
        <time>2022-08-20T14:39:15Z</time>
      </trkpt>
      <trkpt lat="25.5083750" lon="-100.6955730">
        <ele>2202.8</ele>
        <time>2022-08-20T14:39:17Z</time>
      </trkpt>
      <trkpt lat="25.5083870" lon="-100.6955610">
        <ele>2202.9</ele>
        <time>2022-08-20T14:39:18Z</time>
      </trkpt>
      <trkpt lat="25.5083980" lon="-100.6955490">
        <ele>2203.0</ele>
        <time>2022-08-20T14:39:19Z</time>
      </trkpt>
      <trkpt lat="25.5084270" lon="-100.6955240">
        <ele>2203.2</ele>
        <time>2022-08-20T14:39:21Z</time>
      </trkpt>
      <trkpt lat="25.5084580" lon="-100.6954980">
        <ele>2203.3</ele>
        <time>2022-08-20T14:39:22Z</time>
      </trkpt>
      <trkpt lat="25.5084720" lon="-100.6954860">
        <ele>2203.4</ele>
        <time>2022-08-20T14:39:23Z</time>
      </trkpt>
      <trkpt lat="25.5084890" lon="-100.6954700">
        <ele>2203.5</ele>
        <time>2022-08-20T14:39:24Z</time>
      </trkpt>
      <trkpt lat="25.5085050" lon="-100.6954470">
        <ele>2203.6</ele>
        <time>2022-08-20T14:39:26Z</time>
      </trkpt>
      <trkpt lat="25.5085270" lon="-100.6954150">
        <ele>2203.8</ele>
        <time>2022-08-20T14:39:27Z</time>
      </trkpt>
      <trkpt lat="25.5085610" lon="-100.6953760">
        <ele>2204.0</ele>
        <time>2022-08-20T14:39:29Z</time>
      </trkpt>
      <trkpt lat="25.5085790" lon="-100.6953620">
        <ele>2204.1</ele>
        <time>2022-08-20T14:39:31Z</time>
      </trkpt>
      <trkpt lat="25.5086060" lon="-100.6953390">
        <ele>2204.3</ele>
        <time>2022-08-20T14:39:32Z</time>
      </trkpt>
      <trkpt lat="25.5086150" lon="-100.6953310">
        <ele>2204.4</ele>
        <time>2022-08-20T14:39:33Z</time>
      </trkpt>
      <trkpt lat="25.5086350" lon="-100.6953080">
        <ele>2204.5</ele>
        <time>2022-08-20T14:39:34Z</time>
      </trkpt>
      <trkpt lat="25.5086490" lon="-100.6952920">
        <ele>2204.6</ele>
        <time>2022-08-20T14:39:35Z</time>
      </trkpt>
      <trkpt lat="25.5086720" lon="-100.6952690">
        <ele>2204.8</ele>
        <time>2022-08-20T14:39:37Z</time>
      </trkpt>
      <trkpt lat="25.5086980" lon="-100.6952450">
        <ele>2205.0</ele>
        <time>2022-08-20T14:39:38Z</time>
      </trkpt>
      <trkpt lat="25.5087050" lon="-100.6952390">
        <ele>2205.1</ele>
        <time>2022-08-20T14:39:39Z</time>
      </trkpt>
      <trkpt lat="25.5087310" lon="-100.6952220">
        <ele>2205.3</ele>
        <time>2022-08-20T14:39:40Z</time>
      </trkpt>
      <trkpt lat="25.5087370" lon="-100.6952180">
        <ele>2205.3</ele>
        <time>2022-08-20T14:39:41Z</time>
      </trkpt>
      <trkpt lat="25.5087600" lon="-100.6951870">
        <ele>2205.6</ele>
        <time>2022-08-20T14:39:44Z</time>
      </trkpt>
      <trkpt lat="25.5087670" lon="-100.6951750">
        <ele>2205.7</ele>
        <time>2022-08-20T14:39:46Z</time>
      </trkpt>
      <trkpt lat="25.5087820" lon="-100.6951580">
        <ele>2205.9</ele>
        <time>2022-08-20T14:39:47Z</time>
      </trkpt>
      <trkpt lat="25.5088070" lon="-100.6951340">
        <ele>2206.2</ele>
        <time>2022-08-20T14:39:49Z</time>
      </trkpt>
      <trkpt lat="25.5088160" lon="-100.6951260">
        <ele>2206.3</ele>
        <time>2022-08-20T14:39:50Z</time>
      </trkpt>
      <trkpt lat="25.5088430" lon="-100.6951100">
        <ele>2206.6</ele>
        <time>2022-08-20T14:39:52Z</time>
      </trkpt>
      <trkpt lat="25.5088540" lon="-100.6951040">
        <ele>2206.8</ele>
        <time>2022-08-20T14:39:53Z</time>
      </trkpt>
      <trkpt lat="25.5088780" lon="-100.6950820">
        <ele>2207.1</ele>
        <time>2022-08-20T14:39:55Z</time>
      </trkpt>
      <trkpt lat="25.5088860" lon="-100.6950750">
        <ele>2207.2</ele>
        <time>2022-08-20T14:39:56Z</time>
      </trkpt>
      <trkpt lat="25.5089070" lon="-100.6950530">
        <ele>2207.5</ele>
        <time>2022-08-20T14:39:57Z</time>
      </trkpt>
      <trkpt lat="25.5089320" lon="-100.6950240">
        <ele>2208.0</ele>
        <time>2022-08-20T14:39:59Z</time>
      </trkpt>
      <trkpt lat="25.5089390" lon="-100.6950130">
        <ele>2208.2</ele>
        <time>2022-08-20T14:40:00Z</time>
      </trkpt>
      <trkpt lat="25.5089660" lon="-100.6949950">
        <ele>2208.6</ele>
        <time>2022-08-20T14:40:02Z</time>
      </trkpt>
      <trkpt lat="25.5089720" lon="-100.6949910">
        <ele>2208.7</ele>
        <time>2022-08-20T14:40:03Z</time>
      </trkpt>
      <trkpt lat="25.5089820" lon="-100.6949810">
        <ele>2208.9</ele>
        <time>2022-08-20T14:40:04Z</time>
      </trkpt>
      <trkpt lat="25.5089870" lon="-100.6949730">
        <ele>2209.0</ele>
        <time>2022-08-20T14:40:05Z</time>
      </trkpt>
      <trkpt lat="25.5089920" lon="-100.6949660">
        <ele>2209.2</ele>
        <time>2022-08-20T14:40:06Z</time>
      </trkpt>
      <trkpt lat="25.5089970" lon="-100.6949580">
        <ele>2209.3</ele>
        <time>2022-08-20T14:40:07Z</time>
      </trkpt>
      <trkpt lat="25.5090170" lon="-100.6949290">
        <ele>2209.8</ele>
        <time>2022-08-20T14:40:09Z</time>
      </trkpt>
      <trkpt lat="25.5090240" lon="-100.6949200">
        <ele>2210.0</ele>
        <time>2022-08-20T14:40:10Z</time>
      </trkpt>
      <trkpt lat="25.5090460" lon="-100.6949030">
        <ele>2210.5</ele>
        <time>2022-08-20T14:40:12Z</time>
      </trkpt>
      <trkpt lat="25.5090570" lon="-100.6948840">
        <ele>2210.8</ele>
        <time>2022-08-20T14:40:13Z</time>
      </trkpt>
      <trkpt lat="25.5090650" lon="-100.6948690">
        <ele>2211.1</ele>
        <time>2022-08-20T14:40:14Z</time>
      </trkpt>
      <trkpt lat="25.5090740" lon="-100.6948520">
        <ele>2211.4</ele>
        <time>2022-08-20T14:40:15Z</time>
      </trkpt>
      <trkpt lat="25.5090780" lon="-100.6948340">
        <ele>2211.7</ele>
        <time>2022-08-20T14:40:16Z</time>
      </trkpt>
      <trkpt lat="25.5090920" lon="-100.6948100">
        <ele>2212.2</ele>
        <time>2022-08-20T14:40:18Z</time>
      </trkpt>
      <trkpt lat="25.5091030" lon="-100.6947960">
        <ele>2212.4</ele>
        <time>2022-08-20T14:40:19Z</time>
      </trkpt>
      <trkpt lat="25.5091260" lon="-100.6947720">
        <ele>2213.0</ele>
        <time>2022-08-20T14:40:21Z</time>
      </trkpt>
      <trkpt lat="25.5091490" lon="-100.6947620">
        <ele>2213.3</ele>
        <time>2022-08-20T14:40:22Z</time>
      </trkpt>
      <trkpt lat="25.5091540" lon="-100.6947610">
        <ele>2213.4</ele>
        <time>2022-08-20T14:40:23Z</time>
      </trkpt>
      <trkpt lat="25.5091580" lon="-100.6947560">
        <ele>2213.5</ele>
        <time>2022-08-20T14:40:25Z</time>
      </trkpt>
      <trkpt lat="25.5091580" lon="-100.6947460">
        <ele>2213.6</ele>
        <time>2022-08-20T14:40:26Z</time>
      </trkpt>
      <trkpt lat="25.5091670" lon="-100.6947350">
        <ele>2213.8</ele>
        <time>2022-08-20T14:40:27Z</time>
      </trkpt>
      <trkpt lat="25.5091790" lon="-100.6947250">
        <ele>2214.0</ele>
        <time>2022-08-20T14:40:28Z</time>
      </trkpt>
      <trkpt lat="25.5091830" lon="-100.6947150">
        <ele>2214.2</ele>
        <time>2022-08-20T14:40:30Z</time>
      </trkpt>
      <trkpt lat="25.5091870" lon="-100.6947060">
        <ele>2214.3</ele>
        <time>2022-08-20T14:40:31Z</time>
      </trkpt>
      <trkpt lat="25.5091930" lon="-100.6946950">
        <ele>2214.4</ele>
        <time>2022-08-20T14:40:32Z</time>
      </trkpt>
      <trkpt lat="25.5092020" lon="-100.6946820">
        <ele>2214.6</ele>
        <time>2022-08-20T14:40:33Z</time>
      </trkpt>
      <trkpt lat="25.5092020" lon="-100.6946710">
        <ele>2214.7</ele>
        <time>2022-08-20T14:40:35Z</time>
      </trkpt>
      <trkpt lat="25.5092060" lon="-100.6946630">
        <ele>2214.8</ele>
        <time>2022-08-20T14:40:36Z</time>
      </trkpt>
      <trkpt lat="25.5092120" lon="-100.6946560">
        <ele>2214.9</ele>
        <time>2022-08-20T14:40:38Z</time>
      </trkpt>
      <trkpt lat="25.5092350" lon="-100.6946350">
        <ele>2215.2</ele>
        <time>2022-08-20T14:40:40Z</time>
      </trkpt>
      <trkpt lat="25.5092450" lon="-100.6946230">
        <ele>2215.3</ele>
        <time>2022-08-20T14:40:41Z</time>
      </trkpt>
      <trkpt lat="25.5092680" lon="-100.6945960">
        <ele>2215.6</ele>
        <time>2022-08-20T14:40:43Z</time>
      </trkpt>
      <trkpt lat="25.5092750" lon="-100.6945890">
        <ele>2215.6</ele>
        <time>2022-08-20T14:40:44Z</time>
      </trkpt>
      <trkpt lat="25.5092900" lon="-100.6945580">
        <ele>2215.9</ele>
        <time>2022-08-20T14:40:45Z</time>
      </trkpt>
      <trkpt lat="25.5092950" lon="-100.6945470">
        <ele>2215.9</ele>
        <time>2022-08-20T14:40:46Z</time>
      </trkpt>
      <trkpt lat="25.5093070" lon="-100.6945230">
        <ele>2216.1</ele>
        <time>2022-08-20T14:40:47Z</time>
      </trkpt>
      <trkpt lat="25.5093250" lon="-100.6944930">
        <ele>2216.3</ele>
        <time>2022-08-20T14:40:49Z</time>
      </trkpt>
      <trkpt lat="25.5093450" lon="-100.6944650">
        <ele>2216.5</ele>
        <time>2022-08-20T14:40:50Z</time>
      </trkpt>
      <trkpt lat="25.5093510" lon="-100.6944550">
        <ele>2216.6</ele>
        <time>2022-08-20T14:40:51Z</time>
      </trkpt>
      <trkpt lat="25.5093700" lon="-100.6944220">
        <ele>2216.8</ele>
        <time>2022-08-20T14:40:52Z</time>
      </trkpt>
      <trkpt lat="25.5093730" lon="-100.6944090">
        <ele>2216.8</ele>
        <time>2022-08-20T14:40:53Z</time>
      </trkpt>
      <trkpt lat="25.5093830" lon="-100.6943730">
        <ele>2217.0</ele>
        <time>2022-08-20T14:40:54Z</time>
      </trkpt>
      <trkpt lat="25.5093910" lon="-100.6943550">
        <ele>2217.0</ele>
        <time>2022-08-20T14:40:55Z</time>
      </trkpt>
      <trkpt lat="25.5093960" lon="-100.6943370">
        <ele>2217.0</ele>
        <time>2022-08-20T14:40:56Z</time>
      </trkpt>
      <trkpt lat="25.5094010" lon="-100.6943220">
        <ele>2217.1</ele>
        <time>2022-08-20T14:40:58Z</time>
      </trkpt>
      <trkpt lat="25.5094070" lon="-100.6943030">
        <ele>2217.1</ele>
        <time>2022-08-20T14:40:59Z</time>
      </trkpt>
      <trkpt lat="25.5094230" lon="-100.6942730">
        <ele>2217.1</ele>
        <time>2022-08-20T14:41:00Z</time>
      </trkpt>
      <trkpt lat="25.5094300" lon="-100.6942640">
        <ele>2217.1</ele>
        <time>2022-08-20T14:41:01Z</time>
      </trkpt>
      <trkpt lat="25.5094540" lon="-100.6942140">
        <ele>2217.1</ele>
        <time>2022-08-20T14:41:03Z</time>
      </trkpt>
      <trkpt lat="25.5094650" lon="-100.6941880">
        <ele>2217.1</ele>
        <time>2022-08-20T14:41:04Z</time>
      </trkpt>
      <trkpt lat="25.5094860" lon="-100.6941310">
        <ele>2217.0</ele>
        <time>2022-08-20T14:41:06Z</time>
      </trkpt>
      <trkpt lat="25.5094950" lon="-100.6941000">
        <ele>2217.0</ele>
        <time>2022-08-20T14:41:07Z</time>
      </trkpt>
      <trkpt lat="25.5095140" lon="-100.6940480">
        <ele>2216.9</ele>
        <time>2022-08-20T14:41:08Z</time>
      </trkpt>
      <trkpt lat="25.5095230" lon="-100.6940220">
        <ele>2216.9</ele>
        <time>2022-08-20T14:41:09Z</time>
      </trkpt>
      <trkpt lat="25.5095350" lon="-100.6939850">
        <ele>2216.9</ele>
        <time>2022-08-20T14:41:11Z</time>
      </trkpt>
      <trkpt lat="25.5095450" lon="-100.6939520">
        <ele>2216.9</ele>
        <time>2022-08-20T14:41:12Z</time>
      </trkpt>
      <trkpt lat="25.5095570" lon="-100.6939000">
        <ele>2216.8</ele>
        <time>2022-08-20T14:41:13Z</time>
      </trkpt>
      <trkpt lat="25.5095610" lon="-100.6938740">
        <ele>2216.8</ele>
        <time>2022-08-20T14:41:14Z</time>
      </trkpt>
      <trkpt lat="25.5095650" lon="-100.6938330">
        <ele>2216.7</ele>
        <time>2022-08-20T14:41:15Z</time>
      </trkpt>
      <trkpt lat="25.5095700" lon="-100.6937930">
        <ele>2216.6</ele>
        <time>2022-08-20T14:41:17Z</time>
      </trkpt>
      <trkpt lat="25.5095720" lon="-100.6937600">
        <ele>2216.5</ele>
        <time>2022-08-20T14:41:18Z</time>
      </trkpt>
      <trkpt lat="25.5095700" lon="-100.6937140">
        <ele>2216.3</ele>
        <time>2022-08-20T14:41:19Z</time>
      </trkpt>
      <trkpt lat="25.5095650" lon="-100.6936720">
        <ele>2216.1</ele>
        <time>2022-08-20T14:41:21Z</time>
      </trkpt>
      <trkpt lat="25.5095590" lon="-100.6936270">
        <ele>2215.8</ele>
        <time>2022-08-20T14:41:22Z</time>
      </trkpt>
      <trkpt lat="25.5095410" lon="-100.6934220">
        <ele>2214.4</ele>
        <time>2022-08-20T14:41:24Z</time>
      </trkpt>
      <trkpt lat="25.5095340" lon="-100.6932980">
        <ele>2213.3</ele>
        <time>2022-08-20T14:41:25Z</time>
      </trkpt>
      <trkpt lat="25.5095290" lon="-100.6931710">
        <ele>2212.1</ele>
        <time>2022-08-20T14:41:26Z</time>
      </trkpt>
      <trkpt lat="25.5095190" lon="-100.6930590">
        <ele>2211.1</ele>
        <time>2022-08-20T14:41:27Z</time>
      </trkpt>
      <trkpt lat="25.5095050" lon="-100.6929620">
        <ele>2210.3</ele>
        <time>2022-08-20T14:41:28Z</time>
      </trkpt>
      <trkpt lat="25.5094890" lon="-100.6928890">
        <ele>2209.7</ele>
        <time>2022-08-20T14:41:29Z</time>
      </trkpt>
      <trkpt lat="25.5094750" lon="-100.6929390">
        <ele>2209.4</ele>
        <time>2022-08-20T14:41:30Z</time>
      </trkpt>
      <trkpt lat="25.5094700" lon="-100.6929940">
        <ele>2209.1</ele>
        <time>2022-08-20T14:41:31Z</time>
      </trkpt>
      <trkpt lat="25.5094760" lon="-100.6929360">
        <ele>2208.9</ele>
        <time>2022-08-20T14:41:32Z</time>
      </trkpt>
      <trkpt lat="25.5094840" lon="-100.6928980">
        <ele>2208.7</ele>
        <time>2022-08-20T14:41:33Z</time>
      </trkpt>
      <trkpt lat="25.5095090" lon="-100.6927870">
        <ele>2208.4</ele>
        <time>2022-08-20T14:41:35Z</time>
      </trkpt>
      <trkpt lat="25.5095140" lon="-100.6927150">
        <ele>2208.4</ele>
        <time>2022-08-20T14:41:36Z</time>
      </trkpt>
      <trkpt lat="25.5095150" lon="-100.6926130">
        <ele>2208.4</ele>
        <time>2022-08-20T14:41:38Z</time>
      </trkpt>
      <trkpt lat="25.5095180" lon="-100.6925630">
        <ele>2208.4</ele>
        <time>2022-08-20T14:41:39Z</time>
      </trkpt>
      <trkpt lat="25.5095250" lon="-100.6925140">
        <ele>2208.4</ele>
        <time>2022-08-20T14:41:40Z</time>
      </trkpt>
      <trkpt lat="25.5095350" lon="-100.6924660">
        <ele>2208.5</ele>
        <time>2022-08-20T14:41:41Z</time>
      </trkpt>
      <trkpt lat="25.5095430" lon="-100.6924210">
        <ele>2208.6</ele>
        <time>2022-08-20T14:41:42Z</time>
      </trkpt>
      <trkpt lat="25.5095500" lon="-100.6923840">
        <ele>2208.6</ele>
        <time>2022-08-20T14:41:43Z</time>
      </trkpt>
      <trkpt lat="25.5095620" lon="-100.6923180">
        <ele>2208.8</ele>
        <time>2022-08-20T14:41:44Z</time>
      </trkpt>
      <trkpt lat="25.5095860" lon="-100.6922700">
        <ele>2209.0</ele>
        <time>2022-08-20T14:41:45Z</time>
      </trkpt>
      <trkpt lat="25.5096170" lon="-100.6922190">
        <ele>2209.2</ele>
        <time>2022-08-20T14:41:47Z</time>
      </trkpt>
      <trkpt lat="25.5096360" lon="-100.6921550">
        <ele>2209.5</ele>
        <time>2022-08-20T14:41:48Z</time>
      </trkpt>
      <trkpt lat="25.5096520" lon="-100.6921080">
        <ele>2209.9</ele>
        <time>2022-08-20T14:41:50Z</time>
      </trkpt>
      <trkpt lat="25.5096670" lon="-100.6920740">
        <ele>2210.1</ele>
        <time>2022-08-20T14:41:51Z</time>
      </trkpt>
      <trkpt lat="25.5096830" lon="-100.6920430">
        <ele>2210.4</ele>
        <time>2022-08-20T14:41:52Z</time>
      </trkpt>
      <trkpt lat="25.5096980" lon="-100.6920050">
        <ele>2210.9</ele>
        <time>2022-08-20T14:41:53Z</time>
      </trkpt>
      <trkpt lat="25.5097030" lon="-100.6919930">
        <ele>2211.0</ele>
        <time>2022-08-20T14:41:54Z</time>
      </trkpt>
      <trkpt lat="25.5097150" lon="-100.6919580">
        <ele>2211.4</ele>
        <time>2022-08-20T14:41:55Z</time>
      </trkpt>
      <trkpt lat="25.5097180" lon="-100.6919470">
        <ele>2211.6</ele>
        <time>2022-08-20T14:41:56Z</time>
      </trkpt>
      <trkpt lat="25.5097210" lon="-100.6919300">
        <ele>2211.8</ele>
        <time>2022-08-20T14:41:57Z</time>
      </trkpt>
      <trkpt lat="25.5097230" lon="-100.6919110">
        <ele>2212.0</ele>
        <time>2022-08-20T14:41:58Z</time>
      </trkpt>
      <trkpt lat="25.5097240" lon="-100.6918910">
        <ele>2212.2</ele>
        <time>2022-08-20T14:41:59Z</time>
      </trkpt>
      <trkpt lat="25.5097260" lon="-100.6918720">
        <ele>2212.5</ele>
        <time>2022-08-20T14:42:00Z</time>
      </trkpt>
      <trkpt lat="25.5097280" lon="-100.6918580">
        <ele>2212.6</ele>
        <time>2022-08-20T14:42:01Z</time>
      </trkpt>
      <trkpt lat="25.5097320" lon="-100.6918410">
        <ele>2212.8</ele>
        <time>2022-08-20T14:42:02Z</time>
      </trkpt>
      <trkpt lat="25.5097400" lon="-100.6918130">
        <ele>2213.2</ele>
        <time>2022-08-20T14:42:03Z</time>
      </trkpt>
      <trkpt lat="25.5097430" lon="-100.6918030">
        <ele>2213.3</ele>
        <time>2022-08-20T14:42:04Z</time>
      </trkpt>
      <trkpt lat="25.5097490" lon="-100.6917810">
        <ele>2213.5</ele>
        <time>2022-08-20T14:42:05Z</time>
      </trkpt>
      <trkpt lat="25.5097570" lon="-100.6917610">
        <ele>2213.7</ele>
        <time>2022-08-20T14:42:07Z</time>
      </trkpt>
      <trkpt lat="25.5097640" lon="-100.6917450">
        <ele>2213.9</ele>
        <time>2022-08-20T14:42:08Z</time>
      </trkpt>
      <trkpt lat="25.5097680" lon="-100.6917260">
        <ele>2214.1</ele>
        <time>2022-08-20T14:42:09Z</time>
      </trkpt>
      <trkpt lat="25.5097690" lon="-100.6917090">
        <ele>2214.2</ele>
        <time>2022-08-20T14:42:11Z</time>
      </trkpt>
      <trkpt lat="25.5097700" lon="-100.6916890">
        <ele>2214.4</ele>
        <time>2022-08-20T14:42:12Z</time>
      </trkpt>
      <trkpt lat="25.5097720" lon="-100.6916590">
        <ele>2214.7</ele>
        <time>2022-08-20T14:42:13Z</time>
      </trkpt>
      <trkpt lat="25.5097720" lon="-100.6916480">
        <ele>2214.8</ele>
        <time>2022-08-20T14:42:14Z</time>
      </trkpt>
      <trkpt lat="25.5097760" lon="-100.6916090">
        <ele>2215.2</ele>
        <time>2022-08-20T14:42:16Z</time>
      </trkpt>
      <trkpt lat="25.5097790" lon="-100.6915900">
        <ele>2215.3</ele>
        <time>2022-08-20T14:42:17Z</time>
      </trkpt>
      <trkpt lat="25.5097850" lon="-100.6915560">
        <ele>2215.7</ele>
        <time>2022-08-20T14:42:19Z</time>
      </trkpt>
      <trkpt lat="25.5097930" lon="-100.6915260">
        <ele>2216.0</ele>
        <time>2022-08-20T14:42:20Z</time>
      </trkpt>
      <trkpt lat="25.5097970" lon="-100.6915160">
        <ele>2216.1</ele>
        <time>2022-08-20T14:42:21Z</time>
      </trkpt>
      <trkpt lat="25.5098020" lon="-100.6914940">
        <ele>2216.4</ele>
        <time>2022-08-20T14:42:22Z</time>
      </trkpt>
      <trkpt lat="25.5098050" lon="-100.6914830">
        <ele>2216.5</ele>
        <time>2022-08-20T14:42:24Z</time>
      </trkpt>
      <trkpt lat="25.5098070" lon="-100.6914720">
        <ele>2216.7</ele>
        <time>2022-08-20T14:42:25Z</time>
      </trkpt>
      <trkpt lat="25.5098200" lon="-100.6914280">
        <ele>2217.2</ele>
        <time>2022-08-20T14:42:27Z</time>
      </trkpt>
      <trkpt lat="25.5098250" lon="-100.6914150">
        <ele>2217.4</ele>
        <time>2022-08-20T14:42:28Z</time>
      </trkpt>
      <trkpt lat="25.5098310" lon="-100.6914010">
        <ele>2217.6</ele>
        <time>2022-08-20T14:42:29Z</time>
      </trkpt>
      <trkpt lat="25.5098410" lon="-100.6913710">
        <ele>2218.0</ele>
        <time>2022-08-20T14:42:30Z</time>
      </trkpt>
      <trkpt lat="25.5098440" lon="-100.6913610">
        <ele>2218.2</ele>
        <time>2022-08-20T14:42:31Z</time>
      </trkpt>
      <trkpt lat="25.5098520" lon="-100.6913440">
        <ele>2218.4</ele>
        <time>2022-08-20T14:42:32Z</time>
      </trkpt>
      <trkpt lat="25.5098540" lon="-100.6913260">
        <ele>2218.7</ele>
        <time>2022-08-20T14:42:33Z</time>
      </trkpt>
      <trkpt lat="25.5098560" lon="-100.6913110">
        <ele>2218.9</ele>
        <time>2022-08-20T14:42:34Z</time>
      </trkpt>
      <trkpt lat="25.5098570" lon="-100.6912910">
        <ele>2219.2</ele>
        <time>2022-08-20T14:42:35Z</time>
      </trkpt>
      <trkpt lat="25.5098560" lon="-100.6912730">
        <ele>2219.4</ele>
        <time>2022-08-20T14:42:37Z</time>
      </trkpt>
      <trkpt lat="25.5098550" lon="-100.6912520">
        <ele>2219.7</ele>
        <time>2022-08-20T14:42:38Z</time>
      </trkpt>
      <trkpt lat="25.5098540" lon="-100.6912200">
        <ele>2220.1</ele>
        <time>2022-08-20T14:42:39Z</time>
      </trkpt>
      <trkpt lat="25.5098540" lon="-100.6912100">
        <ele>2220.3</ele>
        <time>2022-08-20T14:42:40Z</time>
      </trkpt>
      <trkpt lat="25.5098510" lon="-100.6911830">
        <ele>2220.6</ele>
        <time>2022-08-20T14:42:41Z</time>
      </trkpt>
      <trkpt lat="25.5098460" lon="-100.6911650">
        <ele>2220.9</ele>
        <time>2022-08-20T14:42:43Z</time>
      </trkpt>
      <trkpt lat="25.5098440" lon="-100.6911470">
        <ele>2221.1</ele>
        <time>2022-08-20T14:42:44Z</time>
      </trkpt>
      <trkpt lat="25.5098410" lon="-100.6911310">
        <ele>2221.4</ele>
        <time>2022-08-20T14:42:45Z</time>
      </trkpt>
      <trkpt lat="25.5098400" lon="-100.6910970">
        <ele>2221.8</ele>
        <time>2022-08-20T14:42:46Z</time>
      </trkpt>
      <trkpt lat="25.5098400" lon="-100.6910850">
        <ele>2222.0</ele>
        <time>2022-08-20T14:42:47Z</time>
      </trkpt>
      <trkpt lat="25.5098490" lon="-100.6910540">
        <ele>2222.4</ele>
        <time>2022-08-20T14:42:49Z</time>
      </trkpt>
      <trkpt lat="25.5098510" lon="-100.6910460">
        <ele>2222.6</ele>
        <time>2022-08-20T14:42:50Z</time>
      </trkpt>
      <trkpt lat="25.5098590" lon="-100.6910270">
        <ele>2222.9</ele>
        <time>2022-08-20T14:42:51Z</time>
      </trkpt>
      <trkpt lat="25.5098640" lon="-100.6910150">
        <ele>2223.0</ele>
        <time>2022-08-20T14:42:52Z</time>
      </trkpt>
      <trkpt lat="25.5098690" lon="-100.6910030">
        <ele>2223.2</ele>
        <time>2022-08-20T14:42:53Z</time>
      </trkpt>
      <trkpt lat="25.5098810" lon="-100.6909760">
        <ele>2223.6</ele>
        <time>2022-08-20T14:42:54Z</time>
      </trkpt>
      <trkpt lat="25.5098890" lon="-100.6909580">
        <ele>2223.9</ele>
        <time>2022-08-20T14:42:55Z</time>
      </trkpt>
      <trkpt lat="25.5099120" lon="-100.6909090">
        <ele>2224.7</ele>
        <time>2022-08-20T14:42:57Z</time>
      </trkpt>
      <trkpt lat="25.5099210" lon="-100.6908830">
        <ele>2225.1</ele>
        <time>2022-08-20T14:42:59Z</time>
      </trkpt>
      <trkpt lat="25.5099320" lon="-100.6908540">
        <ele>2225.5</ele>
        <time>2022-08-20T14:43:00Z</time>
      </trkpt>
      <trkpt lat="25.5099480" lon="-100.6908140">
        <ele>2226.1</ele>
        <time>2022-08-20T14:43:01Z</time>
      </trkpt>
      <trkpt lat="25.5099540" lon="-100.6908000">
        <ele>2226.3</ele>
        <time>2022-08-20T14:43:02Z</time>
      </trkpt>
      <trkpt lat="25.5099660" lon="-100.6907580">
        <ele>2226.9</ele>
        <time>2022-08-20T14:43:04Z</time>
      </trkpt>
      <trkpt lat="25.5099690" lon="-100.6907440">
        <ele>2227.1</ele>
        <time>2022-08-20T14:43:05Z</time>
      </trkpt>
      <trkpt lat="25.5099730" lon="-100.6907250">
        <ele>2227.4</ele>
        <time>2022-08-20T14:43:06Z</time>
      </trkpt>
      <trkpt lat="25.5099740" lon="-100.6907050">
        <ele>2227.6</ele>
        <time>2022-08-20T14:43:07Z</time>
      </trkpt>
      <trkpt lat="25.5099780" lon="-100.6906730">
        <ele>2228.0</ele>
        <time>2022-08-20T14:43:08Z</time>
      </trkpt>
      <trkpt lat="25.5099800" lon="-100.6906640">
        <ele>2228.1</ele>
        <time>2022-08-20T14:43:09Z</time>
      </trkpt>
      <trkpt lat="25.5099860" lon="-100.6906450">
        <ele>2228.3</ele>
        <time>2022-08-20T14:43:11Z</time>
      </trkpt>
      <trkpt lat="25.5099880" lon="-100.6906290">
        <ele>2228.5</ele>
        <time>2022-08-20T14:43:12Z</time>
      </trkpt>
      <trkpt lat="25.5099940" lon="-100.6906080">
        <ele>2228.7</ele>
        <time>2022-08-20T14:43:13Z</time>
      </trkpt>
      <trkpt lat="25.5099980" lon="-100.6905910">
        <ele>2228.9</ele>
        <time>2022-08-20T14:43:14Z</time>
      </trkpt>
      <trkpt lat="25.5100030" lon="-100.6905740">
        <ele>2229.0</ele>
        <time>2022-08-20T14:43:15Z</time>
      </trkpt>
      <trkpt lat="25.5100070" lon="-100.6905550">
        <ele>2229.1</ele>
        <time>2022-08-20T14:43:17Z</time>
      </trkpt>
      <trkpt lat="25.5100190" lon="-100.6905250">
        <ele>2229.3</ele>
        <time>2022-08-20T14:43:18Z</time>
      </trkpt>
      <trkpt lat="25.5100330" lon="-100.6904910">
        <ele>2229.5</ele>
        <time>2022-08-20T14:43:20Z</time>
      </trkpt>
      <trkpt lat="25.5100380" lon="-100.6904820">
        <ele>2229.5</ele>
        <time>2022-08-20T14:43:21Z</time>
      </trkpt>
      <trkpt lat="25.5100490" lon="-100.6904640">
        <ele>2229.5</ele>
        <time>2022-08-20T14:43:22Z</time>
      </trkpt>
      <trkpt lat="25.5100650" lon="-100.6904270">
        <ele>2229.6</ele>
        <time>2022-08-20T14:43:24Z</time>
      </trkpt>
      <trkpt lat="25.5100730" lon="-100.6904070">
        <ele>2229.6</ele>
        <time>2022-08-20T14:43:25Z</time>
      </trkpt>
      <trkpt lat="25.5100800" lon="-100.6903960">
        <ele>2229.6</ele>
        <time>2022-08-20T14:43:26Z</time>
      </trkpt>
      <trkpt lat="25.5100910" lon="-100.6903680">
        <ele>2229.6</ele>
        <time>2022-08-20T14:43:27Z</time>
      </trkpt>
      <trkpt lat="25.5100950" lon="-100.6903580">
        <ele>2229.6</ele>
        <time>2022-08-20T14:43:28Z</time>
      </trkpt>
      <trkpt lat="25.5101090" lon="-100.6903230">
        <ele>2229.5</ele>
        <time>2022-08-20T14:43:29Z</time>
      </trkpt>
      <trkpt lat="25.5101130" lon="-100.6903110">
        <ele>2229.5</ele>
        <time>2022-08-20T14:43:30Z</time>
      </trkpt>
      <trkpt lat="25.5101230" lon="-100.6902800">
        <ele>2229.5</ele>
        <time>2022-08-20T14:43:31Z</time>
      </trkpt>
      <trkpt lat="25.5101260" lon="-100.6902700">
        <ele>2229.5</ele>
        <time>2022-08-20T14:43:32Z</time>
      </trkpt>
      <trkpt lat="25.5101360" lon="-100.6902280">
        <ele>2229.4</ele>
        <time>2022-08-20T14:43:33Z</time>
      </trkpt>
      <trkpt lat="25.5101390" lon="-100.6902110">
        <ele>2229.4</ele>
        <time>2022-08-20T14:43:34Z</time>
      </trkpt>
      <trkpt lat="25.5101400" lon="-100.6901800">
        <ele>2229.4</ele>
        <time>2022-08-20T14:43:36Z</time>
      </trkpt>
      <trkpt lat="25.5101370" lon="-100.6901500">
        <ele>2229.4</ele>
        <time>2022-08-20T14:43:37Z</time>
      </trkpt>
      <trkpt lat="25.5101300" lon="-100.6901190">
        <ele>2229.4</ele>
        <time>2022-08-20T14:43:38Z</time>
      </trkpt>
      <trkpt lat="25.5101170" lon="-100.6900780">
        <ele>2229.4</ele>
        <time>2022-08-20T14:43:39Z</time>
      </trkpt>
      <trkpt lat="25.5101060" lon="-100.6900480">
        <ele>2229.5</ele>
        <time>2022-08-20T14:43:40Z</time>
      </trkpt>
      <trkpt lat="25.5100870" lon="-100.6900090">
        <ele>2229.6</ele>
        <time>2022-08-20T14:43:42Z</time>
      </trkpt>
      <trkpt lat="25.5100780" lon="-100.6899720">
        <ele>2229.7</ele>
        <time>2022-08-20T14:43:43Z</time>
      </trkpt>
      <trkpt lat="25.5100660" lon="-100.6899150">
        <ele>2230.0</ele>
        <time>2022-08-20T14:43:44Z</time>
      </trkpt>
      <trkpt lat="25.5100600" lon="-100.6898790">
        <ele>2230.2</ele>
        <time>2022-08-20T14:43:45Z</time>
      </trkpt>
      <trkpt lat="25.5100580" lon="-100.6898460">
        <ele>2230.4</ele>
        <time>2022-08-20T14:43:47Z</time>
      </trkpt>
      <trkpt lat="25.5100520" lon="-100.6897920">
        <ele>2230.7</ele>
        <time>2022-08-20T14:43:48Z</time>
      </trkpt>
      <trkpt lat="25.5100500" lon="-100.6897640">
        <ele>2230.9</ele>
        <time>2022-08-20T14:43:50Z</time>
      </trkpt>
      <trkpt lat="25.5100460" lon="-100.6897220">
        <ele>2231.2</ele>
        <time>2022-08-20T14:43:51Z</time>
      </trkpt>
      <trkpt lat="25.5100440" lon="-100.6897090">
        <ele>2231.3</ele>
        <time>2022-08-20T14:43:52Z</time>
      </trkpt>
      <trkpt lat="25.5100400" lon="-100.6896750">
        <ele>2231.5</ele>
        <time>2022-08-20T14:43:53Z</time>
      </trkpt>
      <trkpt lat="25.5100350" lon="-100.6896440">
        <ele>2231.7</ele>
        <time>2022-08-20T14:43:54Z</time>
      </trkpt>
      <trkpt lat="25.5100320" lon="-100.6896080">
        <ele>2231.9</ele>
        <time>2022-08-20T14:43:55Z</time>
      </trkpt>
      <trkpt lat="25.5100300" lon="-100.6895720">
        <ele>2232.1</ele>
        <time>2022-08-20T14:43:56Z</time>
      </trkpt>
      <trkpt lat="25.5100280" lon="-100.6895590">
        <ele>2232.2</ele>
        <time>2022-08-20T14:43:57Z</time>
      </trkpt>
      <trkpt lat="25.5100210" lon="-100.6895180">
        <ele>2232.4</ele>
        <time>2022-08-20T14:43:59Z</time>
      </trkpt>
      <trkpt lat="25.5100180" lon="-100.6895000">
        <ele>2232.5</ele>
        <time>2022-08-20T14:44:00Z</time>
      </trkpt>
      <trkpt lat="25.5100120" lon="-100.6894650">
        <ele>2232.6</ele>
        <time>2022-08-20T14:44:01Z</time>
      </trkpt>
      <trkpt lat="25.5100080" lon="-100.6894350">
        <ele>2232.8</ele>
        <time>2022-08-20T14:44:02Z</time>
      </trkpt>
      <trkpt lat="25.5100040" lon="-100.6894000">
        <ele>2232.9</ele>
        <time>2022-08-20T14:44:03Z</time>
      </trkpt>
      <trkpt lat="25.5100030" lon="-100.6893570">
        <ele>2233.0</ele>
        <time>2022-08-20T14:44:04Z</time>
      </trkpt>
      <trkpt lat="25.5099990" lon="-100.6893210">
        <ele>2233.1</ele>
        <time>2022-08-20T14:44:06Z</time>
      </trkpt>
      <trkpt lat="25.5099950" lon="-100.6892900">
        <ele>2233.1</ele>
        <time>2022-08-20T14:44:07Z</time>
      </trkpt>
      <trkpt lat="25.5099940" lon="-100.6892400">
        <ele>2233.2</ele>
        <time>2022-08-20T14:44:08Z</time>
      </trkpt>
      <trkpt lat="25.5100010" lon="-100.6892000">
        <ele>2233.2</ele>
        <time>2022-08-20T14:44:09Z</time>
      </trkpt>
      <trkpt lat="25.5100060" lon="-100.6891650">
        <ele>2233.2</ele>
        <time>2022-08-20T14:44:11Z</time>
      </trkpt>
      <trkpt lat="25.5100080" lon="-100.6891190">
        <ele>2233.2</ele>
        <time>2022-08-20T14:44:12Z</time>
      </trkpt>
      <trkpt lat="25.5100110" lon="-100.6890820">
        <ele>2233.2</ele>
        <time>2022-08-20T14:44:13Z</time>
      </trkpt>
      <trkpt lat="25.5100120" lon="-100.6890250">
        <ele>2233.2</ele>
        <time>2022-08-20T14:44:14Z</time>
      </trkpt>
      <trkpt lat="25.5100100" lon="-100.6889720">
        <ele>2233.1</ele>
        <time>2022-08-20T14:44:16Z</time>
      </trkpt>
      <trkpt lat="25.5100020" lon="-100.6888830">
        <ele>2233.0</ele>
        <time>2022-08-20T14:44:17Z</time>
      </trkpt>
      <trkpt lat="25.5099930" lon="-100.6887080">
        <ele>2232.4</ele>
        <time>2022-08-20T14:44:19Z</time>
      </trkpt>
      <trkpt lat="25.5099820" lon="-100.6886160">
        <ele>2232.0</ele>
        <time>2022-08-20T14:44:20Z</time>
      </trkpt>
      <trkpt lat="25.5099670" lon="-100.6885240">
        <ele>2231.3</ele>
        <time>2022-08-20T14:44:21Z</time>
      </trkpt>
      <trkpt lat="25.5099460" lon="-100.6884340">
        <ele>2230.5</ele>
        <time>2022-08-20T14:44:22Z</time>
      </trkpt>
      <trkpt lat="25.5099190" lon="-100.6883520">
        <ele>2229.6</ele>
        <time>2022-08-20T14:44:23Z</time>
      </trkpt>
      <trkpt lat="25.5098900" lon="-100.6882720">
        <ele>2228.6</ele>
        <time>2022-08-20T14:44:24Z</time>
      </trkpt>
      <trkpt lat="25.5098620" lon="-100.6881940">
        <ele>2227.5</ele>
        <time>2022-08-20T14:44:25Z</time>
      </trkpt>
      <trkpt lat="25.5098350" lon="-100.6881160">
        <ele>2226.4</ele>
        <time>2022-08-20T14:44:26Z</time>
      </trkpt>
      <trkpt lat="25.5098050" lon="-100.6880380">
        <ele>2225.2</ele>
        <time>2022-08-20T14:44:27Z</time>
      </trkpt>
      <trkpt lat="25.5097700" lon="-100.6879660">
        <ele>2224.1</ele>
        <time>2022-08-20T14:44:28Z</time>
      </trkpt>
      <trkpt lat="25.5097280" lon="-100.6878990">
        <ele>2223.1</ele>
        <time>2022-08-20T14:44:29Z</time>
      </trkpt>
      <trkpt lat="25.5096840" lon="-100.6878300">
        <ele>2222.0</ele>
        <time>2022-08-20T14:44:30Z</time>
      </trkpt>
      <trkpt lat="25.5096420" lon="-100.6877590">
        <ele>2221.0</ele>
        <time>2022-08-20T14:44:31Z</time>
      </trkpt>
      <trkpt lat="25.5096100" lon="-100.6876830">
        <ele>2220.0</ele>
        <time>2022-08-20T14:44:32Z</time>
      </trkpt>
      <trkpt lat="25.5095930" lon="-100.6876000">
        <ele>2219.1</ele>
        <time>2022-08-20T14:44:33Z</time>
      </trkpt>
      <trkpt lat="25.5095980" lon="-100.6875140">
        <ele>2218.2</ele>
        <time>2022-08-20T14:44:34Z</time>
      </trkpt>
      <trkpt lat="25.5096150" lon="-100.6874290">
        <ele>2217.2</ele>
        <time>2022-08-20T14:44:35Z</time>
      </trkpt>
      <trkpt lat="25.5096650" lon="-100.6873450">
        <ele>2216.4</ele>
        <time>2022-08-20T14:44:36Z</time>
      </trkpt>
      <trkpt lat="25.5097210" lon="-100.6872680">
        <ele>2215.3</ele>
        <time>2022-08-20T14:44:37Z</time>
      </trkpt>
      <trkpt lat="25.5097770" lon="-100.6872000">
        <ele>2214.6</ele>
        <time>2022-08-20T14:44:38Z</time>
      </trkpt>
      <trkpt lat="25.5098280" lon="-100.6871430">
        <ele>2214.0</ele>
        <time>2022-08-20T14:44:39Z</time>
      </trkpt>
      <trkpt lat="25.5098730" lon="-100.6870910">
        <ele>2213.7</ele>
        <time>2022-08-20T14:44:40Z</time>
      </trkpt>
      <trkpt lat="25.5099180" lon="-100.6870490">
        <ele>2213.5</ele>
        <time>2022-08-20T14:44:41Z</time>
      </trkpt>
      <trkpt lat="25.5099570" lon="-100.6870060">
        <ele>2213.5</ele>
        <time>2022-08-20T14:44:42Z</time>
      </trkpt>
      <trkpt lat="25.5099900" lon="-100.6869670">
        <ele>2213.5</ele>
        <time>2022-08-20T14:44:43Z</time>
      </trkpt>
      <trkpt lat="25.5100090" lon="-100.6869440">
        <ele>2213.6</ele>
        <time>2022-08-20T14:44:44Z</time>
      </trkpt>
      <trkpt lat="25.5100260" lon="-100.6869090">
        <ele>2213.7</ele>
        <time>2022-08-20T14:44:45Z</time>
      </trkpt>
      <trkpt lat="25.5100380" lon="-100.6868760">
        <ele>2213.9</ele>
        <time>2022-08-20T14:44:46Z</time>
      </trkpt>
      <trkpt lat="25.5100510" lon="-100.6868400">
        <ele>2214.0</ele>
        <time>2022-08-20T14:44:47Z</time>
      </trkpt>
      <trkpt lat="25.5100620" lon="-100.6868030">
        <ele>2214.3</ele>
        <time>2022-08-20T14:44:48Z</time>
      </trkpt>
      <trkpt lat="25.5100700" lon="-100.6867700">
        <ele>2214.5</ele>
        <time>2022-08-20T14:44:49Z</time>
      </trkpt>
      <trkpt lat="25.5100760" lon="-100.6867400">
        <ele>2214.7</ele>
        <time>2022-08-20T14:44:50Z</time>
      </trkpt>
      <trkpt lat="25.5100900" lon="-100.6867300">
        <ele>2214.9</ele>
        <time>2022-08-20T14:44:51Z</time>
      </trkpt>
      <trkpt lat="25.5100950" lon="-100.6867250">
        <ele>2214.9</ele>
        <time>2022-08-20T14:44:52Z</time>
      </trkpt>
      <trkpt lat="25.5100990" lon="-100.6867200">
        <ele>2215.0</ele>
        <time>2022-08-20T14:44:53Z</time>
      </trkpt>
      <trkpt lat="25.5101040" lon="-100.6867150">
        <ele>2215.1</ele>
        <time>2022-08-20T14:44:54Z</time>
      </trkpt>
      <trkpt lat="25.5101040" lon="-100.6866890">
        <ele>2215.3</ele>
        <time>2022-08-20T14:44:55Z</time>
      </trkpt>
      <trkpt lat="25.5101060" lon="-100.6866570">
        <ele>2215.6</ele>
        <time>2022-08-20T14:44:57Z</time>
      </trkpt>
      <trkpt lat="25.5101060" lon="-100.6866180">
        <ele>2216.0</ele>
        <time>2022-08-20T14:44:58Z</time>
      </trkpt>
      <trkpt lat="25.5101060" lon="-100.6866030">
        <ele>2216.2</ele>
        <time>2022-08-20T14:44:59Z</time>
      </trkpt>
      <trkpt lat="25.5101110" lon="-100.6865670">
        <ele>2216.6</ele>
        <time>2022-08-20T14:45:00Z</time>
      </trkpt>
      <trkpt lat="25.5101130" lon="-100.6865540">
        <ele>2216.8</ele>
        <time>2022-08-20T14:45:01Z</time>
      </trkpt>
      <trkpt lat="25.5101160" lon="-100.6865150">
        <ele>2217.3</ele>
        <time>2022-08-20T14:45:02Z</time>
      </trkpt>
      <trkpt lat="25.5101160" lon="-100.6865060">
        <ele>2217.5</ele>
        <time>2022-08-20T14:45:03Z</time>
      </trkpt>
      <trkpt lat="25.5101150" lon="-100.6864650">
        <ele>2218.1</ele>
        <time>2022-08-20T14:45:05Z</time>
      </trkpt>
      <trkpt lat="25.5101150" lon="-100.6864550">
        <ele>2218.2</ele>
        <time>2022-08-20T14:45:06Z</time>
      </trkpt>
      <trkpt lat="25.5101150" lon="-100.6864450">
        <ele>2218.4</ele>
        <time>2022-08-20T14:45:08Z</time>
      </trkpt>
      <trkpt lat="25.5101140" lon="-100.6864360">
        <ele>2218.5</ele>
        <time>2022-08-20T14:45:09Z</time>
      </trkpt>
      <trkpt lat="25.5101140" lon="-100.6864260">
        <ele>2218.7</ele>
        <time>2022-08-20T14:45:10Z</time>
      </trkpt>
      <trkpt lat="25.5101170" lon="-100.6864110">
        <ele>2218.9</ele>
        <time>2022-08-20T14:45:11Z</time>
      </trkpt>
      <trkpt lat="25.5101180" lon="-100.6864000">
        <ele>2219.1</ele>
        <time>2022-08-20T14:45:12Z</time>
      </trkpt>
      <trkpt lat="25.5101200" lon="-100.6863910">
        <ele>2219.3</ele>
        <time>2022-08-20T14:45:13Z</time>
      </trkpt>
      <trkpt lat="25.5101190" lon="-100.6863780">
        <ele>2219.5</ele>
        <time>2022-08-20T14:45:14Z</time>
      </trkpt>
      <trkpt lat="25.5101200" lon="-100.6863720">
        <ele>2219.6</ele>
        <time>2022-08-20T14:45:16Z</time>
      </trkpt>
      <trkpt lat="25.5101250" lon="-100.6863650">
        <ele>2219.7</ele>
        <time>2022-08-20T14:45:17Z</time>
      </trkpt>
      <trkpt lat="25.5101260" lon="-100.6863590">
        <ele>2219.8</ele>
        <time>2022-08-20T14:45:19Z</time>
      </trkpt>
      <trkpt lat="25.5101230" lon="-100.6863480">
        <ele>2220.0</ele>
        <time>2022-08-20T14:45:20Z</time>
      </trkpt>
      <trkpt lat="25.5101220" lon="-100.6863380">
        <ele>2220.2</ele>
        <time>2022-08-20T14:45:21Z</time>
      </trkpt>
      <trkpt lat="25.5101200" lon="-100.6863280">
        <ele>2220.4</ele>
        <time>2022-08-20T14:45:22Z</time>
      </trkpt>
      <trkpt lat="25.5101190" lon="-100.6863130">
        <ele>2220.6</ele>
        <time>2022-08-20T14:45:24Z</time>
      </trkpt>
      <trkpt lat="25.5101090" lon="-100.6862990">
        <ele>2220.9</ele>
        <time>2022-08-20T14:45:25Z</time>
      </trkpt>
      <trkpt lat="25.5101030" lon="-100.6862820">
        <ele>2221.2</ele>
        <time>2022-08-20T14:45:26Z</time>
      </trkpt>
      <trkpt lat="25.5101000" lon="-100.6862660">
        <ele>2221.5</ele>
        <time>2022-08-20T14:45:27Z</time>
      </trkpt>
      <trkpt lat="25.5100970" lon="-100.6862560">
        <ele>2221.7</ele>
        <time>2022-08-20T14:45:28Z</time>
      </trkpt>
      <trkpt lat="25.5100960" lon="-100.6862410">
        <ele>2221.9</ele>
        <time>2022-08-20T14:45:29Z</time>
      </trkpt>
      <trkpt lat="25.5100920" lon="-100.6862270">
        <ele>2222.1</ele>
        <time>2022-08-20T14:45:31Z</time>
      </trkpt>
      <trkpt lat="25.5100910" lon="-100.6862080">
        <ele>2222.4</ele>
        <time>2022-08-20T14:45:32Z</time>
      </trkpt>
      <trkpt lat="25.5100920" lon="-100.6861880">
        <ele>2222.8</ele>
        <time>2022-08-20T14:45:33Z</time>
      </trkpt>
      <trkpt lat="25.5100860" lon="-100.6861550">
        <ele>2223.3</ele>
        <time>2022-08-20T14:45:35Z</time>
      </trkpt>
      <trkpt lat="25.5100850" lon="-100.6861460">
        <ele>2223.4</ele>
        <time>2022-08-20T14:45:36Z</time>
      </trkpt>
      <trkpt lat="25.5100810" lon="-100.6861140">
        <ele>2223.9</ele>
        <time>2022-08-20T14:45:37Z</time>
      </trkpt>
      <trkpt lat="25.5100790" lon="-100.6861020">
        <ele>2224.0</ele>
        <time>2022-08-20T14:45:38Z</time>
      </trkpt>
      <trkpt lat="25.5100760" lon="-100.6860840">
        <ele>2224.2</ele>
        <time>2022-08-20T14:45:39Z</time>
      </trkpt>
      <trkpt lat="25.5100720" lon="-100.6860630">
        <ele>2224.5</ele>
        <time>2022-08-20T14:45:41Z</time>
      </trkpt>
      <trkpt lat="25.5100650" lon="-100.6860280">
        <ele>2225.0</ele>
        <time>2022-08-20T14:45:42Z</time>
      </trkpt>
      <trkpt lat="25.5100630" lon="-100.6860110">
        <ele>2225.2</ele>
        <time>2022-08-20T14:45:43Z</time>
      </trkpt>
      <trkpt lat="25.5100610" lon="-100.6859700">
        <ele>2225.7</ele>
        <time>2022-08-20T14:45:44Z</time>
      </trkpt>
      <trkpt lat="25.5100590" lon="-100.6859540">
        <ele>2225.9</ele>
        <time>2022-08-20T14:45:45Z</time>
      </trkpt>
      <trkpt lat="25.5100560" lon="-100.6859240">
        <ele>2226.2</ele>
        <time>2022-08-20T14:45:46Z</time>
      </trkpt>
      <trkpt lat="25.5100520" lon="-100.6858930">
        <ele>2226.5</ele>
        <time>2022-08-20T14:45:48Z</time>
      </trkpt>
      <trkpt lat="25.5100480" lon="-100.6858590">
        <ele>2226.9</ele>
        <time>2022-08-20T14:45:49Z</time>
      </trkpt>
      <trkpt lat="25.5100420" lon="-100.6858230">
        <ele>2227.2</ele>
        <time>2022-08-20T14:45:50Z</time>
      </trkpt>
      <trkpt lat="25.5100370" lon="-100.6857850">
        <ele>2227.6</ele>
        <time>2022-08-20T14:45:51Z</time>
      </trkpt>
      <trkpt lat="25.5100360" lon="-100.6857500">
        <ele>2227.9</ele>
        <time>2022-08-20T14:45:52Z</time>
      </trkpt>
      <trkpt lat="25.5100360" lon="-100.6857240">
        <ele>2228.2</ele>
        <time>2022-08-20T14:45:53Z</time>
      </trkpt>
      <trkpt lat="25.5100400" lon="-100.6856980">
        <ele>2228.4</ele>
        <time>2022-08-20T14:45:55Z</time>
      </trkpt>
      <trkpt lat="25.5100500" lon="-100.6856570">
        <ele>2228.8</ele>
        <time>2022-08-20T14:45:56Z</time>
      </trkpt>
      <trkpt lat="25.5100550" lon="-100.6856270">
        <ele>2229.1</ele>
        <time>2022-08-20T14:45:58Z</time>
      </trkpt>
      <trkpt lat="25.5100550" lon="-100.6856120">
        <ele>2229.3</ele>
        <time>2022-08-20T14:45:59Z</time>
      </trkpt>
      <trkpt lat="25.5100550" lon="-100.6855880">
        <ele>2229.6</ele>
        <time>2022-08-20T14:46:00Z</time>
      </trkpt>
      <trkpt lat="25.5100520" lon="-100.6855630">
        <ele>2229.9</ele>
        <time>2022-08-20T14:46:02Z</time>
      </trkpt>
      <trkpt lat="25.5100520" lon="-100.6855460">
        <ele>2230.1</ele>
        <time>2022-08-20T14:46:03Z</time>
      </trkpt>
      <trkpt lat="25.5100520" lon="-100.6855200">
        <ele>2230.4</ele>
        <time>2022-08-20T14:46:05Z</time>
      </trkpt>
      <trkpt lat="25.5100510" lon="-100.6855050">
        <ele>2230.6</ele>
        <time>2022-08-20T14:46:06Z</time>
      </trkpt>
      <trkpt lat="25.5100520" lon="-100.6854830">
        <ele>2230.9</ele>
        <time>2022-08-20T14:46:07Z</time>
      </trkpt>
      <trkpt lat="25.5100540" lon="-100.6854630">
        <ele>2231.1</ele>
        <time>2022-08-20T14:46:08Z</time>
      </trkpt>
      <trkpt lat="25.5100550" lon="-100.6854430">
        <ele>2231.4</ele>
        <time>2022-08-20T14:46:10Z</time>
      </trkpt>
      <trkpt lat="25.5100580" lon="-100.6854230">
        <ele>2231.7</ele>
        <time>2022-08-20T14:46:11Z</time>
      </trkpt>
      <trkpt lat="25.5100590" lon="-100.6853850">
        <ele>2232.2</ele>
        <time>2022-08-20T14:46:13Z</time>
      </trkpt>
      <trkpt lat="25.5100560" lon="-100.6853630">
        <ele>2232.5</ele>
        <time>2022-08-20T14:46:15Z</time>
      </trkpt>
      <trkpt lat="25.5100550" lon="-100.6853540">
        <ele>2232.6</ele>
        <time>2022-08-20T14:46:16Z</time>
      </trkpt>
      <trkpt lat="25.5100460" lon="-100.6853180">
        <ele>2233.2</ele>
        <time>2022-08-20T14:46:17Z</time>
      </trkpt>
      <trkpt lat="25.5100430" lon="-100.6853080">
        <ele>2233.3</ele>
        <time>2022-08-20T14:46:18Z</time>
      </trkpt>
      <trkpt lat="25.5100340" lon="-100.6852870">
        <ele>2233.6</ele>
        <time>2022-08-20T14:46:20Z</time>
      </trkpt>
      <trkpt lat="25.5100270" lon="-100.6852740">
        <ele>2233.9</ele>
        <time>2022-08-20T14:46:21Z</time>
      </trkpt>
      <trkpt lat="25.5100190" lon="-100.6852600">
        <ele>2234.1</ele>
        <time>2022-08-20T14:46:22Z</time>
      </trkpt>
      <trkpt lat="25.5100080" lon="-100.6852410">
        <ele>2234.4</ele>
        <time>2022-08-20T14:46:23Z</time>
      </trkpt>
      <trkpt lat="25.5099830" lon="-100.6852120">
        <ele>2234.9</ele>
        <time>2022-08-20T14:46:24Z</time>
      </trkpt>
      <trkpt lat="25.5099720" lon="-100.6852010">
        <ele>2235.2</ele>
        <time>2022-08-20T14:46:25Z</time>
      </trkpt>
      <trkpt lat="25.5099500" lon="-100.6851770">
        <ele>2235.6</ele>
        <time>2022-08-20T14:46:27Z</time>
      </trkpt>
      <trkpt lat="25.5099420" lon="-100.6851660">
        <ele>2235.8</ele>
        <time>2022-08-20T14:46:28Z</time>
      </trkpt>
      <trkpt lat="25.5099170" lon="-100.6851410">
        <ele>2236.3</ele>
        <time>2022-08-20T14:46:29Z</time>
      </trkpt>
      <trkpt lat="25.5099060" lon="-100.6851330">
        <ele>2236.5</ele>
        <time>2022-08-20T14:46:30Z</time>
      </trkpt>
      <trkpt lat="25.5098890" lon="-100.6851210">
        <ele>2236.8</ele>
        <time>2022-08-20T14:46:31Z</time>
      </trkpt>
      <trkpt lat="25.5098710" lon="-100.6851080">
        <ele>2237.1</ele>
        <time>2022-08-20T14:46:33Z</time>
      </trkpt>
      <trkpt lat="25.5098400" lon="-100.6850910">
        <ele>2237.6</ele>
        <time>2022-08-20T14:46:34Z</time>
      </trkpt>
      <trkpt lat="25.5098250" lon="-100.6850840">
        <ele>2237.8</ele>
        <time>2022-08-20T14:46:35Z</time>
      </trkpt>
      <trkpt lat="25.5098060" lon="-100.6850710">
        <ele>2238.1</ele>
        <time>2022-08-20T14:46:36Z</time>
      </trkpt>
      <trkpt lat="25.5097770" lon="-100.6850560">
        <ele>2238.6</ele>
        <time>2022-08-20T14:46:38Z</time>
      </trkpt>
      <trkpt lat="25.5097640" lon="-100.6850470">
        <ele>2238.7</ele>
        <time>2022-08-20T14:46:40Z</time>
      </trkpt>
      <trkpt lat="25.5097540" lon="-100.6850340">
        <ele>2238.9</ele>
        <time>2022-08-20T14:46:41Z</time>
      </trkpt>
      <trkpt lat="25.5097250" lon="-100.6850160">
        <ele>2239.3</ele>
        <time>2022-08-20T14:46:42Z</time>
      </trkpt>
      <trkpt lat="25.5097070" lon="-100.6850110">
        <ele>2239.5</ele>
        <time>2022-08-20T14:46:44Z</time>
      </trkpt>
      <trkpt lat="25.5096900" lon="-100.6850100">
        <ele>2239.7</ele>
        <time>2022-08-20T14:46:45Z</time>
      </trkpt>
      <trkpt lat="25.5096720" lon="-100.6850110">
        <ele>2239.9</ele>
        <time>2022-08-20T14:46:46Z</time>
      </trkpt>
      <trkpt lat="25.5096590" lon="-100.6850130">
        <ele>2240.0</ele>
        <time>2022-08-20T14:46:47Z</time>
      </trkpt>
      <trkpt lat="25.5096450" lon="-100.6850090">
        <ele>2240.1</ele>
        <time>2022-08-20T14:46:48Z</time>
      </trkpt>
      <trkpt lat="25.5096250" lon="-100.6850030">
        <ele>2240.3</ele>
        <time>2022-08-20T14:46:50Z</time>
      </trkpt>
      <trkpt lat="25.5096140" lon="-100.6849940">
        <ele>2240.5</ele>
        <time>2022-08-20T14:46:51Z</time>
      </trkpt>
      <trkpt lat="25.5095960" lon="-100.6849800">
        <ele>2240.6</ele>
        <time>2022-08-20T14:46:52Z</time>
      </trkpt>
      <trkpt lat="25.5095880" lon="-100.6849750">
        <ele>2240.7</ele>
        <time>2022-08-20T14:46:53Z</time>
      </trkpt>
      <trkpt lat="25.5095790" lon="-100.6849690">
        <ele>2240.8</ele>
        <time>2022-08-20T14:46:54Z</time>
      </trkpt>
      <trkpt lat="25.5095660" lon="-100.6849560">
        <ele>2240.9</ele>
        <time>2022-08-20T14:46:55Z</time>
      </trkpt>
      <trkpt lat="25.5095490" lon="-100.6849340">
        <ele>2241.1</ele>
        <time>2022-08-20T14:46:57Z</time>
      </trkpt>
      <trkpt lat="25.5095280" lon="-100.6849050">
        <ele>2241.3</ele>
        <time>2022-08-20T14:46:58Z</time>
      </trkpt>
      <trkpt lat="25.5095200" lon="-100.6848940">
        <ele>2241.4</ele>
        <time>2022-08-20T14:46:59Z</time>
      </trkpt>
      <trkpt lat="25.5095070" lon="-100.6848620">
        <ele>2241.6</ele>
        <time>2022-08-20T14:47:00Z</time>
      </trkpt>
      <trkpt lat="25.5095020" lon="-100.6848490">
        <ele>2241.7</ele>
        <time>2022-08-20T14:47:01Z</time>
      </trkpt>
      <trkpt lat="25.5094880" lon="-100.6848310">
        <ele>2241.9</ele>
        <time>2022-08-20T14:47:02Z</time>
      </trkpt>
      <trkpt lat="25.5094790" lon="-100.6848180">
        <ele>2242.0</ele>
        <time>2022-08-20T14:47:03Z</time>
      </trkpt>
      <trkpt lat="25.5094650" lon="-100.6847890">
        <ele>2242.1</ele>
        <time>2022-08-20T14:47:05Z</time>
      </trkpt>
      <trkpt lat="25.5094600" lon="-100.6847800">
        <ele>2242.2</ele>
        <time>2022-08-20T14:47:06Z</time>
      </trkpt>
      <trkpt lat="25.5094470" lon="-100.6847400">
        <ele>2242.4</ele>
        <time>2022-08-20T14:47:07Z</time>
      </trkpt>
      <trkpt lat="25.5094400" lon="-100.6847230">
        <ele>2242.5</ele>
        <time>2022-08-20T14:47:08Z</time>
      </trkpt>
      <trkpt lat="25.5094290" lon="-100.6846920">
        <ele>2242.6</ele>
        <time>2022-08-20T14:47:10Z</time>
      </trkpt>
      <trkpt lat="25.5094190" lon="-100.6846620">
        <ele>2242.8</ele>
        <time>2022-08-20T14:47:11Z</time>
      </trkpt>
      <trkpt lat="25.5094090" lon="-100.6846200">
        <ele>2243.0</ele>
        <time>2022-08-20T14:47:12Z</time>
      </trkpt>
      <trkpt lat="25.5094070" lon="-100.6846070">
        <ele>2243.0</ele>
        <time>2022-08-20T14:47:13Z</time>
      </trkpt>
      <trkpt lat="25.5094000" lon="-100.6845820">
        <ele>2243.1</ele>
        <time>2022-08-20T14:47:14Z</time>
      </trkpt>
      <trkpt lat="25.5093820" lon="-100.6845470">
        <ele>2243.3</ele>
        <time>2022-08-20T14:47:16Z</time>
      </trkpt>
      <trkpt lat="25.5093670" lon="-100.6845180">
        <ele>2243.4</ele>
        <time>2022-08-20T14:47:17Z</time>
      </trkpt>
      <trkpt lat="25.5093490" lon="-100.6844670">
        <ele>2243.6</ele>
        <time>2022-08-20T14:47:19Z</time>
      </trkpt>
      <trkpt lat="25.5093460" lon="-100.6844500">
        <ele>2243.7</ele>
        <time>2022-08-20T14:47:20Z</time>
      </trkpt>
      <trkpt lat="25.5093420" lon="-100.6844320">
        <ele>2243.8</ele>
        <time>2022-08-20T14:47:21Z</time>
      </trkpt>
      <trkpt lat="25.5093380" lon="-100.6843990">
        <ele>2243.9</ele>
        <time>2022-08-20T14:47:22Z</time>
      </trkpt>
      <trkpt lat="25.5093320" lon="-100.6843620">
        <ele>2244.1</ele>
        <time>2022-08-20T14:47:23Z</time>
      </trkpt>
      <trkpt lat="25.5093280" lon="-100.6843480">
        <ele>2244.2</ele>
        <time>2022-08-20T14:47:24Z</time>
      </trkpt>
      <trkpt lat="25.5093140" lon="-100.6843020">
        <ele>2244.4</ele>
        <time>2022-08-20T14:47:26Z</time>
      </trkpt>
      <trkpt lat="25.5093090" lon="-100.6842870">
        <ele>2244.4</ele>
        <time>2022-08-20T14:47:27Z</time>
      </trkpt>
      <trkpt lat="25.5093040" lon="-100.6842730">
        <ele>2244.5</ele>
        <time>2022-08-20T14:47:28Z</time>
      </trkpt>
      <trkpt lat="25.5092970" lon="-100.6842400">
        <ele>2244.6</ele>
        <time>2022-08-20T14:47:29Z</time>
      </trkpt>
      <trkpt lat="25.5092930" lon="-100.6842220">
        <ele>2244.7</ele>
        <time>2022-08-20T14:47:30Z</time>
      </trkpt>
      <trkpt lat="25.5092910" lon="-100.6841990">
        <ele>2244.8</ele>
        <time>2022-08-20T14:47:32Z</time>
      </trkpt>
      <trkpt lat="25.5092840" lon="-100.6841610">
        <ele>2245.0</ele>
        <time>2022-08-20T14:47:33Z</time>
      </trkpt>
      <trkpt lat="25.5092800" lon="-100.6841470">
        <ele>2245.1</ele>
        <time>2022-08-20T14:47:34Z</time>
      </trkpt>
      <trkpt lat="25.5092730" lon="-100.6841140">
        <ele>2245.2</ele>
        <time>2022-08-20T14:47:35Z</time>
      </trkpt>
      <trkpt lat="25.5092700" lon="-100.6840930">
        <ele>2245.3</ele>
        <time>2022-08-20T14:47:36Z</time>
      </trkpt>
      <trkpt lat="25.5092670" lon="-100.6840750">
        <ele>2245.4</ele>
        <time>2022-08-20T14:47:38Z</time>
      </trkpt>
      <trkpt lat="25.5092620" lon="-100.6840470">
        <ele>2245.6</ele>
        <time>2022-08-20T14:47:39Z</time>
      </trkpt>
      <trkpt lat="25.5092600" lon="-100.6840350">
        <ele>2245.6</ele>
        <time>2022-08-20T14:47:40Z</time>
      </trkpt>
      <trkpt lat="25.5092500" lon="-100.6840030">
        <ele>2245.8</ele>
        <time>2022-08-20T14:47:41Z</time>
      </trkpt>
      <trkpt lat="25.5092330" lon="-100.6839640">
        <ele>2246.1</ele>
        <time>2022-08-20T14:47:43Z</time>
      </trkpt>
      <trkpt lat="25.5092260" lon="-100.6839500">
        <ele>2246.2</ele>
        <time>2022-08-20T14:47:44Z</time>
      </trkpt>
      <trkpt lat="25.5092140" lon="-100.6839140">
        <ele>2246.4</ele>
        <time>2022-08-20T14:47:45Z</time>
      </trkpt>
      <trkpt lat="25.5092110" lon="-100.6839010">
        <ele>2246.5</ele>
        <time>2022-08-20T14:47:46Z</time>
      </trkpt>
      <trkpt lat="25.5092050" lon="-100.6838790">
        <ele>2246.6</ele>
        <time>2022-08-20T14:47:47Z</time>
      </trkpt>
      <trkpt lat="25.5091930" lon="-100.6838560">
        <ele>2246.8</ele>
        <time>2022-08-20T14:47:49Z</time>
      </trkpt>
      <trkpt lat="25.5091800" lon="-100.6838180">
        <ele>2247.0</ele>
        <time>2022-08-20T14:47:50Z</time>
      </trkpt>
      <trkpt lat="25.5091770" lon="-100.6838040">
        <ele>2247.1</ele>
        <time>2022-08-20T14:47:51Z</time>
      </trkpt>
      <trkpt lat="25.5091710" lon="-100.6837750">
        <ele>2247.3</ele>
        <time>2022-08-20T14:47:52Z</time>
      </trkpt>
      <trkpt lat="25.5091540" lon="-100.6837290">
        <ele>2247.6</ele>
        <time>2022-08-20T14:47:54Z</time>
      </trkpt>
      <trkpt lat="25.5091470" lon="-100.6837140">
        <ele>2247.7</ele>
        <time>2022-08-20T14:47:56Z</time>
      </trkpt>
      <trkpt lat="25.5091390" lon="-100.6836980">
        <ele>2247.8</ele>
        <time>2022-08-20T14:47:57Z</time>
      </trkpt>
      <trkpt lat="25.5091260" lon="-100.6836620">
        <ele>2248.1</ele>
        <time>2022-08-20T14:47:58Z</time>
      </trkpt>
      <trkpt lat="25.5091210" lon="-100.6836450">
        <ele>2248.2</ele>
        <time>2022-08-20T14:47:59Z</time>
      </trkpt>
      <trkpt lat="25.5091070" lon="-100.6836070">
        <ele>2248.4</ele>
        <time>2022-08-20T14:48:01Z</time>
      </trkpt>
      <trkpt lat="25.5091030" lon="-100.6835950">
        <ele>2248.5</ele>
        <time>2022-08-20T14:48:02Z</time>
      </trkpt>
      <trkpt lat="25.5090920" lon="-100.6835590">
        <ele>2248.7</ele>
        <time>2022-08-20T14:48:03Z</time>
      </trkpt>
      <trkpt lat="25.5090880" lon="-100.6835470">
        <ele>2248.8</ele>
        <time>2022-08-20T14:48:04Z</time>
      </trkpt>
      <trkpt lat="25.5090760" lon="-100.6835160">
        <ele>2249.0</ele>
        <time>2022-08-20T14:48:05Z</time>
      </trkpt>
      <trkpt lat="25.5090640" lon="-100.6834810">
        <ele>2249.2</ele>
        <time>2022-08-20T14:48:07Z</time>
      </trkpt>
      <trkpt lat="25.5090490" lon="-100.6834400">
        <ele>2249.4</ele>
        <time>2022-08-20T14:48:08Z</time>
      </trkpt>
      <trkpt lat="25.5090380" lon="-100.6834050">
        <ele>2249.6</ele>
        <time>2022-08-20T14:48:10Z</time>
      </trkpt>
      <trkpt lat="25.5090240" lon="-100.6833690">
        <ele>2249.8</ele>
        <time>2022-08-20T14:48:11Z</time>
      </trkpt>
      <trkpt lat="25.5090130" lon="-100.6833340">
        <ele>2250.0</ele>
        <time>2022-08-20T14:48:13Z</time>
      </trkpt>
      <trkpt lat="25.5089980" lon="-100.6833040">
        <ele>2250.1</ele>
        <time>2022-08-20T14:48:14Z</time>
      </trkpt>
      <trkpt lat="25.5089830" lon="-100.6832710">
        <ele>2250.3</ele>
        <time>2022-08-20T14:48:16Z</time>
      </trkpt>
      <trkpt lat="25.5089750" lon="-100.6832350">
        <ele>2250.5</ele>
        <time>2022-08-20T14:48:17Z</time>
      </trkpt>
      <trkpt lat="25.5089690" lon="-100.6832020">
        <ele>2250.6</ele>
        <time>2022-08-20T14:48:18Z</time>
      </trkpt>
      <trkpt lat="25.5089580" lon="-100.6831570">
        <ele>2250.8</ele>
        <time>2022-08-20T14:48:19Z</time>
      </trkpt>
      <trkpt lat="25.5089500" lon="-100.6831300">
        <ele>2250.9</ele>
        <time>2022-08-20T14:48:20Z</time>
      </trkpt>
      <trkpt lat="25.5089400" lon="-100.6830950">
        <ele>2251.1</ele>
        <time>2022-08-20T14:48:22Z</time>
      </trkpt>
      <trkpt lat="25.5089260" lon="-100.6830540">
        <ele>2251.3</ele>
        <time>2022-08-20T14:48:23Z</time>
      </trkpt>
      <trkpt lat="25.5089220" lon="-100.6830390">
        <ele>2251.3</ele>
        <time>2022-08-20T14:48:24Z</time>
      </trkpt>
      <trkpt lat="25.5089120" lon="-100.6829980">
        <ele>2251.5</ele>
        <time>2022-08-20T14:48:25Z</time>
      </trkpt>
      <trkpt lat="25.5089040" lon="-100.6829590">
        <ele>2251.7</ele>
        <time>2022-08-20T14:48:26Z</time>
      </trkpt>
      <trkpt lat="25.5089020" lon="-100.6829490">
        <ele>2251.7</ele>
        <time>2022-08-20T14:48:27Z</time>
      </trkpt>
      <trkpt lat="25.5088990" lon="-100.6829330">
        <ele>2251.8</ele>
        <time>2022-08-20T14:48:28Z</time>
      </trkpt>
      <trkpt lat="25.5088970" lon="-100.6829160">
        <ele>2251.9</ele>
        <time>2022-08-20T14:48:29Z</time>
      </trkpt>
      <trkpt lat="25.5088910" lon="-100.6828990">
        <ele>2252.0</ele>
        <time>2022-08-20T14:48:30Z</time>
      </trkpt>
      <trkpt lat="25.5088850" lon="-100.6828780">
        <ele>2252.1</ele>
        <time>2022-08-20T14:48:32Z</time>
      </trkpt>
      <trkpt lat="25.5088780" lon="-100.6828420">
        <ele>2252.3</ele>
        <time>2022-08-20T14:48:33Z</time>
      </trkpt>
      <trkpt lat="25.5088760" lon="-100.6828310">
        <ele>2252.3</ele>
        <time>2022-08-20T14:48:34Z</time>
      </trkpt>
      <trkpt lat="25.5088680" lon="-100.6828120">
        <ele>2252.4</ele>
        <time>2022-08-20T14:48:35Z</time>
      </trkpt>
      <trkpt lat="25.5088590" lon="-100.6827850">
        <ele>2252.6</ele>
        <time>2022-08-20T14:48:37Z</time>
      </trkpt>
      <trkpt lat="25.5088460" lon="-100.6827450">
        <ele>2252.8</ele>
        <time>2022-08-20T14:48:38Z</time>
      </trkpt>
      <trkpt lat="25.5088350" lon="-100.6827140">
        <ele>2253.0</ele>
        <time>2022-08-20T14:48:39Z</time>
      </trkpt>
      <trkpt lat="25.5088180" lon="-100.6826620">
        <ele>2253.3</ele>
        <time>2022-08-20T14:48:41Z</time>
      </trkpt>
      <trkpt lat="25.5088090" lon="-100.6826450">
        <ele>2253.4</ele>
        <time>2022-08-20T14:48:42Z</time>
      </trkpt>
      <trkpt lat="25.5087990" lon="-100.6826280">
        <ele>2253.6</ele>
        <time>2022-08-20T14:48:43Z</time>
      </trkpt>
      <trkpt lat="25.5087780" lon="-100.6826050">
        <ele>2253.8</ele>
        <time>2022-08-20T14:48:44Z</time>
      </trkpt>
      <trkpt lat="25.5087600" lon="-100.6825750">
        <ele>2254.1</ele>
        <time>2022-08-20T14:48:45Z</time>
      </trkpt>
      <trkpt lat="25.5087460" lon="-100.6825480">
        <ele>2254.3</ele>
        <time>2022-08-20T14:48:46Z</time>
      </trkpt>
      <trkpt lat="25.5087200" lon="-100.6825190">
        <ele>2254.6</ele>
        <time>2022-08-20T14:48:48Z</time>
      </trkpt>
      <trkpt lat="25.5087120" lon="-100.6825110">
        <ele>2254.7</ele>
        <time>2022-08-20T14:48:49Z</time>
      </trkpt>
      <trkpt lat="25.5086840" lon="-100.6824870">
        <ele>2255.0</ele>
        <time>2022-08-20T14:48:50Z</time>
      </trkpt>
      <trkpt lat="25.5086740" lon="-100.6824830">
        <ele>2255.1</ele>
        <time>2022-08-20T14:48:51Z</time>
      </trkpt>
      <trkpt lat="25.5086490" lon="-100.6824530">
        <ele>2255.4</ele>
        <time>2022-08-20T14:48:52Z</time>
      </trkpt>
      <trkpt lat="25.5086400" lon="-100.6824420">
        <ele>2255.6</ele>
        <time>2022-08-20T14:48:53Z</time>
      </trkpt>
      <trkpt lat="25.5086190" lon="-100.6824160">
        <ele>2255.9</ele>
        <time>2022-08-20T14:48:55Z</time>
      </trkpt>
      <trkpt lat="25.5085980" lon="-100.6823760">
        <ele>2256.3</ele>
        <time>2022-08-20T14:48:56Z</time>
      </trkpt>
      <trkpt lat="25.5085890" lon="-100.6823630">
        <ele>2256.4</ele>
        <time>2022-08-20T14:48:57Z</time>
      </trkpt>
      <trkpt lat="25.5085730" lon="-100.6823570">
        <ele>2256.6</ele>
        <time>2022-08-20T14:48:59Z</time>
      </trkpt>
      <trkpt lat="25.5085460" lon="-100.6823400">
        <ele>2256.9</ele>
        <time>2022-08-20T14:49:00Z</time>
      </trkpt>
      <trkpt lat="25.5085180" lon="-100.6823140">
        <ele>2257.2</ele>
        <time>2022-08-20T14:49:02Z</time>
      </trkpt>
      <trkpt lat="25.5085040" lon="-100.6823050">
        <ele>2257.4</ele>
        <time>2022-08-20T14:49:03Z</time>
      </trkpt>
      <trkpt lat="25.5084760" lon="-100.6822840">
        <ele>2257.7</ele>
        <time>2022-08-20T14:49:05Z</time>
      </trkpt>
      <trkpt lat="25.5084680" lon="-100.6822780">
        <ele>2257.8</ele>
        <time>2022-08-20T14:49:06Z</time>
      </trkpt>
      <trkpt lat="25.5084420" lon="-100.6822580">
        <ele>2258.1</ele>
        <time>2022-08-20T14:49:07Z</time>
      </trkpt>
      <trkpt lat="25.5084310" lon="-100.6822520">
        <ele>2258.2</ele>
        <time>2022-08-20T14:49:08Z</time>
      </trkpt>
      <trkpt lat="25.5084010" lon="-100.6822500">
        <ele>2258.4</ele>
        <time>2022-08-20T14:49:09Z</time>
      </trkpt>
      <trkpt lat="25.5083920" lon="-100.6822510">
        <ele>2258.5</ele>
        <time>2022-08-20T14:49:10Z</time>
      </trkpt>
      <trkpt lat="25.5083720" lon="-100.6822470">
        <ele>2258.7</ele>
        <time>2022-08-20T14:49:11Z</time>
      </trkpt>
      <trkpt lat="25.5083570" lon="-100.6822390">
        <ele>2258.8</ele>
        <time>2022-08-20T14:49:13Z</time>
      </trkpt>
      <trkpt lat="25.5083390" lon="-100.6822160">
        <ele>2259.0</ele>
        <time>2022-08-20T14:49:14Z</time>
      </trkpt>
      <trkpt lat="25.5083150" lon="-100.6821930">
        <ele>2259.2</ele>
        <time>2022-08-20T14:49:15Z</time>
      </trkpt>
      <trkpt lat="25.5083050" lon="-100.6821850">
        <ele>2259.3</ele>
        <time>2022-08-20T14:49:16Z</time>
      </trkpt>
      <trkpt lat="25.5082830" lon="-100.6821620">
        <ele>2259.5</ele>
        <time>2022-08-20T14:49:18Z</time>
      </trkpt>
      <trkpt lat="25.5082440" lon="-100.6821270">
        <ele>2259.8</ele>
        <time>2022-08-20T14:49:20Z</time>
      </trkpt>
      <trkpt lat="25.5082180" lon="-100.6821150">
        <ele>2260.0</ele>
        <time>2022-08-20T14:49:22Z</time>
      </trkpt>
      <trkpt lat="25.5082030" lon="-100.6821110">
        <ele>2260.1</ele>
        <time>2022-08-20T14:49:24Z</time>
      </trkpt>
      <trkpt lat="25.5081890" lon="-100.6821020">
        <ele>2260.2</ele>
        <time>2022-08-20T14:49:25Z</time>
      </trkpt>
      <trkpt lat="25.5081750" lon="-100.6820900">
        <ele>2260.3</ele>
        <time>2022-08-20T14:49:26Z</time>
      </trkpt>
      <trkpt lat="25.5081470" lon="-100.6820680">
        <ele>2260.5</ele>
        <time>2022-08-20T14:49:27Z</time>
      </trkpt>
      <trkpt lat="25.5081380" lon="-100.6820590">
        <ele>2260.6</ele>
        <time>2022-08-20T14:49:28Z</time>
      </trkpt>
      <trkpt lat="25.5081130" lon="-100.6820280">
        <ele>2260.8</ele>
        <time>2022-08-20T14:49:29Z</time>
      </trkpt>
      <trkpt lat="25.5081030" lon="-100.6820160">
        <ele>2260.8</ele>
        <time>2022-08-20T14:49:30Z</time>
      </trkpt>
      <trkpt lat="25.5080740" lon="-100.6819980">
        <ele>2261.0</ele>
        <time>2022-08-20T14:49:31Z</time>
      </trkpt>
      <trkpt lat="25.5080620" lon="-100.6819900">
        <ele>2261.1</ele>
        <time>2022-08-20T14:49:32Z</time>
      </trkpt>
      <trkpt lat="25.5080340" lon="-100.6819720">
        <ele>2261.2</ele>
        <time>2022-08-20T14:49:33Z</time>
      </trkpt>
      <trkpt lat="25.5080030" lon="-100.6819480">
        <ele>2261.4</ele>
        <time>2022-08-20T14:49:35Z</time>
      </trkpt>
      <trkpt lat="25.5079750" lon="-100.6819290">
        <ele>2261.6</ele>
        <time>2022-08-20T14:49:36Z</time>
      </trkpt>
      <trkpt lat="25.5079570" lon="-100.6819130">
        <ele>2261.7</ele>
        <time>2022-08-20T14:49:37Z</time>
      </trkpt>
      <trkpt lat="25.5079340" lon="-100.6818920">
        <ele>2261.8</ele>
        <time>2022-08-20T14:49:39Z</time>
      </trkpt>
      <trkpt lat="25.5079010" lon="-100.6818660">
        <ele>2262.0</ele>
        <time>2022-08-20T14:49:40Z</time>
      </trkpt>
      <trkpt lat="25.5078880" lon="-100.6818550">
        <ele>2262.1</ele>
        <time>2022-08-20T14:49:41Z</time>
      </trkpt>
      <trkpt lat="25.5078490" lon="-100.6818240">
        <ele>2262.4</ele>
        <time>2022-08-20T14:49:43Z</time>
      </trkpt>
      <trkpt lat="25.5078320" lon="-100.6818130">
        <ele>2262.5</ele>
        <time>2022-08-20T14:49:44Z</time>
      </trkpt>
      <trkpt lat="25.5078150" lon="-100.6818020">
        <ele>2262.6</ele>
        <time>2022-08-20T14:49:45Z</time>
      </trkpt>
      <trkpt lat="25.5077840" lon="-100.6817810">
        <ele>2262.8</ele>
        <time>2022-08-20T14:49:47Z</time>
      </trkpt>
      <trkpt lat="25.5077690" lon="-100.6817720">
        <ele>2262.9</ele>
        <time>2022-08-20T14:49:48Z</time>
      </trkpt>
      <trkpt lat="25.5077490" lon="-100.6817610">
        <ele>2263.0</ele>
        <time>2022-08-20T14:49:50Z</time>
      </trkpt>
      <trkpt lat="25.5077200" lon="-100.6817410">
        <ele>2263.2</ele>
        <time>2022-08-20T14:49:51Z</time>
      </trkpt>
      <trkpt lat="25.5077040" lon="-100.6817320">
        <ele>2263.3</ele>
        <time>2022-08-20T14:49:52Z</time>
      </trkpt>
      <trkpt lat="25.5076700" lon="-100.6817170">
        <ele>2263.5</ele>
        <time>2022-08-20T14:49:54Z</time>
      </trkpt>
      <trkpt lat="25.5076390" lon="-100.6816980">
        <ele>2263.7</ele>
        <time>2022-08-20T14:49:55Z</time>
      </trkpt>
      <trkpt lat="25.5076050" lon="-100.6816790">
        <ele>2264.0</ele>
        <time>2022-08-20T14:49:56Z</time>
      </trkpt>
      <trkpt lat="25.5075930" lon="-100.6816710">
        <ele>2264.1</ele>
        <time>2022-08-20T14:49:57Z</time>
      </trkpt>
      <trkpt lat="25.5075590" lon="-100.6816510">
        <ele>2264.3</ele>
        <time>2022-08-20T14:49:59Z</time>
      </trkpt>
      <trkpt lat="25.5075480" lon="-100.6816460">
        <ele>2264.4</ele>
        <time>2022-08-20T14:50:00Z</time>
      </trkpt>
      <trkpt lat="25.5075230" lon="-100.6816300">
        <ele>2264.6</ele>
        <time>2022-08-20T14:50:01Z</time>
      </trkpt>
      <trkpt lat="25.5074910" lon="-100.6816080">
        <ele>2264.9</ele>
        <time>2022-08-20T14:50:02Z</time>
      </trkpt>
      <trkpt lat="25.5074670" lon="-100.6815940">
        <ele>2265.0</ele>
        <time>2022-08-20T14:50:03Z</time>
      </trkpt>
      <trkpt lat="25.5074410" lon="-100.6815800">
        <ele>2265.3</ele>
        <time>2022-08-20T14:50:05Z</time>
      </trkpt>
      <trkpt lat="25.5074130" lon="-100.6815590">
        <ele>2265.5</ele>
        <time>2022-08-20T14:50:06Z</time>
      </trkpt>
      <trkpt lat="25.5074040" lon="-100.6815520">
        <ele>2265.6</ele>
        <time>2022-08-20T14:50:07Z</time>
      </trkpt>
      <trkpt lat="25.5073660" lon="-100.6815290">
        <ele>2265.9</ele>
        <time>2022-08-20T14:50:08Z</time>
      </trkpt>
      <trkpt lat="25.5073330" lon="-100.6814990">
        <ele>2266.2</ele>
        <time>2022-08-20T14:50:10Z</time>
      </trkpt>
      <trkpt lat="25.5073210" lon="-100.6814900">
        <ele>2266.3</ele>
        <time>2022-08-20T14:50:11Z</time>
      </trkpt>
      <trkpt lat="25.5073090" lon="-100.6814800">
        <ele>2266.4</ele>
        <time>2022-08-20T14:50:12Z</time>
      </trkpt>
      <trkpt lat="25.5072820" lon="-100.6814590">
        <ele>2266.7</ele>
        <time>2022-08-20T14:50:13Z</time>
      </trkpt>
      <trkpt lat="25.5072710" lon="-100.6814530">
        <ele>2266.8</ele>
        <time>2022-08-20T14:50:14Z</time>
      </trkpt>
      <trkpt lat="25.5072450" lon="-100.6814360">
        <ele>2267.0</ele>
        <time>2022-08-20T14:50:15Z</time>
      </trkpt>
      <trkpt lat="25.5072230" lon="-100.6814250">
        <ele>2267.2</ele>
        <time>2022-08-20T14:50:16Z</time>
      </trkpt>
      <trkpt lat="25.5071950" lon="-100.6814090">
        <ele>2267.5</ele>
        <time>2022-08-20T14:50:18Z</time>
      </trkpt>
      <trkpt lat="25.5071780" lon="-100.6814010">
        <ele>2267.6</ele>
        <time>2022-08-20T14:50:19Z</time>
      </trkpt>
      <trkpt lat="25.5071690" lon="-100.6813970">
        <ele>2267.7</ele>
        <time>2022-08-20T14:50:21Z</time>
      </trkpt>
      <trkpt lat="25.5071610" lon="-100.6813940">
        <ele>2267.8</ele>
        <time>2022-08-20T14:50:22Z</time>
      </trkpt>
      <trkpt lat="25.5071310" lon="-100.6813810">
        <ele>2268.0</ele>
        <time>2022-08-20T14:50:24Z</time>
      </trkpt>
      <trkpt lat="25.5070910" lon="-100.6813640">
        <ele>2268.4</ele>
        <time>2022-08-20T14:50:25Z</time>
      </trkpt>
      <trkpt lat="25.5070490" lon="-100.6813440">
        <ele>2268.7</ele>
        <time>2022-08-20T14:50:27Z</time>
      </trkpt>
      <trkpt lat="25.5070080" lon="-100.6813180">
        <ele>2269.0</ele>
        <time>2022-08-20T14:50:28Z</time>
      </trkpt>
      <trkpt lat="25.5069790" lon="-100.6813030">
        <ele>2269.2</ele>
        <time>2022-08-20T14:50:29Z</time>
      </trkpt>
      <trkpt lat="25.5069520" lon="-100.6812900">
        <ele>2269.4</ele>
        <time>2022-08-20T14:50:30Z</time>
      </trkpt>
      <trkpt lat="25.5069270" lon="-100.6812760">
        <ele>2269.6</ele>
        <time>2022-08-20T14:50:31Z</time>
      </trkpt>
      <trkpt lat="25.5068860" lon="-100.6812530">
        <ele>2269.9</ele>
        <time>2022-08-20T14:50:33Z</time>
      </trkpt>
      <trkpt lat="25.5068700" lon="-100.6812430">
        <ele>2270.0</ele>
        <time>2022-08-20T14:50:34Z</time>
      </trkpt>
      <trkpt lat="25.5068550" lon="-100.6812330">
        <ele>2270.1</ele>
        <time>2022-08-20T14:50:35Z</time>
      </trkpt>
      <trkpt lat="25.5068250" lon="-100.6812170">
        <ele>2270.2</ele>
        <time>2022-08-20T14:50:36Z</time>
      </trkpt>
      <trkpt lat="25.5067960" lon="-100.6811980">
        <ele>2270.4</ele>
        <time>2022-08-20T14:50:37Z</time>
      </trkpt>
      <trkpt lat="25.5067630" lon="-100.6811730">
        <ele>2270.6</ele>
        <time>2022-08-20T14:50:39Z</time>
      </trkpt>
      <trkpt lat="25.5067370" lon="-100.6811590">
        <ele>2270.7</ele>
        <time>2022-08-20T14:50:40Z</time>
      </trkpt>
      <trkpt lat="25.5067090" lon="-100.6811430">
        <ele>2270.9</ele>
        <time>2022-08-20T14:50:41Z</time>
      </trkpt>
      <trkpt lat="25.5066850" lon="-100.6811300">
        <ele>2271.0</ele>
        <time>2022-08-20T14:50:42Z</time>
      </trkpt>
      <trkpt lat="25.5066580" lon="-100.6811080">
        <ele>2271.2</ele>
        <time>2022-08-20T14:50:44Z</time>
      </trkpt>
      <trkpt lat="25.5066320" lon="-100.6810830">
        <ele>2271.3</ele>
        <time>2022-08-20T14:50:45Z</time>
      </trkpt>
      <trkpt lat="25.5066020" lon="-100.6810540">
        <ele>2271.5</ele>
        <time>2022-08-20T14:50:46Z</time>
      </trkpt>
      <trkpt lat="25.5065910" lon="-100.6810440">
        <ele>2271.6</ele>
        <time>2022-08-20T14:50:47Z</time>
      </trkpt>
      <trkpt lat="25.5065700" lon="-100.6810210">
        <ele>2271.7</ele>
        <time>2022-08-20T14:50:49Z</time>
      </trkpt>
      <trkpt lat="25.5065510" lon="-100.6809990">
        <ele>2271.9</ele>
        <time>2022-08-20T14:50:50Z</time>
      </trkpt>
      <trkpt lat="25.5065250" lon="-100.6809720">
        <ele>2272.1</ele>
        <time>2022-08-20T14:50:51Z</time>
      </trkpt>
      <trkpt lat="25.5064980" lon="-100.6809410">
        <ele>2272.3</ele>
        <time>2022-08-20T14:50:52Z</time>
      </trkpt>
      <trkpt lat="25.5064880" lon="-100.6809290">
        <ele>2272.4</ele>
        <time>2022-08-20T14:50:53Z</time>
      </trkpt>
      <trkpt lat="25.5064730" lon="-100.6809090">
        <ele>2272.6</ele>
        <time>2022-08-20T14:50:54Z</time>
      </trkpt>
      <trkpt lat="25.5064640" lon="-100.6808890">
        <ele>2272.7</ele>
        <time>2022-08-20T14:50:56Z</time>
      </trkpt>
      <trkpt lat="25.5064480" lon="-100.6808550">
        <ele>2273.0</ele>
        <time>2022-08-20T14:50:57Z</time>
      </trkpt>
      <trkpt lat="25.5064440" lon="-100.6808450">
        <ele>2273.1</ele>
        <time>2022-08-20T14:50:58Z</time>
      </trkpt>
      <trkpt lat="25.5064340" lon="-100.6808230">
        <ele>2273.3</ele>
        <time>2022-08-20T14:50:59Z</time>
      </trkpt>
      <trkpt lat="25.5064280" lon="-100.6807960">
        <ele>2273.5</ele>
        <time>2022-08-20T14:51:01Z</time>
      </trkpt>
      <trkpt lat="25.5064200" lon="-100.6807610">
        <ele>2273.8</ele>
        <time>2022-08-20T14:51:02Z</time>
      </trkpt>
      <trkpt lat="25.5064170" lon="-100.6807480">
        <ele>2273.9</ele>
        <time>2022-08-20T14:51:03Z</time>
      </trkpt>
      <trkpt lat="25.5064190" lon="-100.6807090">
        <ele>2274.2</ele>
        <time>2022-08-20T14:51:04Z</time>
      </trkpt>
      <trkpt lat="25.5064240" lon="-100.6806940">
        <ele>2274.3</ele>
        <time>2022-08-20T14:51:05Z</time>
      </trkpt>
      <trkpt lat="25.5064280" lon="-100.6806570">
        <ele>2274.6</ele>
        <time>2022-08-20T14:51:07Z</time>
      </trkpt>
      <trkpt lat="25.5064270" lon="-100.6806460">
        <ele>2274.7</ele>
        <time>2022-08-20T14:51:08Z</time>
      </trkpt>
      <trkpt lat="25.5064240" lon="-100.6806280">
        <ele>2274.8</ele>
        <time>2022-08-20T14:51:09Z</time>
      </trkpt>
      <trkpt lat="25.5064210" lon="-100.6806080">
        <ele>2275.0</ele>
        <time>2022-08-20T14:51:10Z</time>
      </trkpt>
      <trkpt lat="25.5064160" lon="-100.6805760">
        <ele>2275.2</ele>
        <time>2022-08-20T14:51:11Z</time>
      </trkpt>
      <trkpt lat="25.5064150" lon="-100.6805650">
        <ele>2275.3</ele>
        <time>2022-08-20T14:51:12Z</time>
      </trkpt>
      <trkpt lat="25.5064130" lon="-100.6805190">
        <ele>2275.6</ele>
        <time>2022-08-20T14:51:14Z</time>
      </trkpt>
      <trkpt lat="25.5064070" lon="-100.6804740">
        <ele>2275.9</ele>
        <time>2022-08-20T14:51:16Z</time>
      </trkpt>
      <trkpt lat="25.5063980" lon="-100.6804370">
        <ele>2276.2</ele>
        <time>2022-08-20T14:51:18Z</time>
      </trkpt>
      <trkpt lat="25.5063930" lon="-100.6804040">
        <ele>2276.4</ele>
        <time>2022-08-20T14:51:19Z</time>
      </trkpt>
      <trkpt lat="25.5063880" lon="-100.6803550">
        <ele>2276.7</ele>
        <time>2022-08-20T14:51:21Z</time>
      </trkpt>
      <trkpt lat="25.5063850" lon="-100.6803370">
        <ele>2276.9</ele>
        <time>2022-08-20T14:51:22Z</time>
      </trkpt>
      <trkpt lat="25.5063810" lon="-100.6803180">
        <ele>2277.0</ele>
        <time>2022-08-20T14:51:23Z</time>
      </trkpt>
      <trkpt lat="25.5063720" lon="-100.6802890">
        <ele>2277.2</ele>
        <time>2022-08-20T14:51:24Z</time>
      </trkpt>
      <trkpt lat="25.5063640" lon="-100.6802470">
        <ele>2277.4</ele>
        <time>2022-08-20T14:51:25Z</time>
      </trkpt>
      <trkpt lat="25.5063630" lon="-100.6802320">
        <ele>2277.5</ele>
        <time>2022-08-20T14:51:26Z</time>
      </trkpt>
      <trkpt lat="25.5063460" lon="-100.6801950">
        <ele>2277.8</ele>
        <time>2022-08-20T14:51:28Z</time>
      </trkpt>
      <trkpt lat="25.5063320" lon="-100.6801650">
        <ele>2278.0</ele>
        <time>2022-08-20T14:51:29Z</time>
      </trkpt>
      <trkpt lat="25.5063240" lon="-100.6801320">
        <ele>2278.2</ele>
        <time>2022-08-20T14:51:31Z</time>
      </trkpt>
      <trkpt lat="25.5063220" lon="-100.6801220">
        <ele>2278.2</ele>
        <time>2022-08-20T14:51:32Z</time>
      </trkpt>
      <trkpt lat="25.5063180" lon="-100.6800860">
        <ele>2278.4</ele>
        <time>2022-08-20T14:51:33Z</time>
      </trkpt>
      <trkpt lat="25.5063150" lon="-100.6800760">
        <ele>2278.5</ele>
        <time>2022-08-20T14:51:34Z</time>
      </trkpt>
      <trkpt lat="25.5063060" lon="-100.6800380">
        <ele>2278.7</ele>
        <time>2022-08-20T14:51:35Z</time>
      </trkpt>
      <trkpt lat="25.5062880" lon="-100.6799940">
        <ele>2278.9</ele>
        <time>2022-08-20T14:51:37Z</time>
      </trkpt>
      <trkpt lat="25.5062830" lon="-100.6799800">
        <ele>2278.9</ele>
        <time>2022-08-20T14:51:38Z</time>
      </trkpt>
      <trkpt lat="25.5062780" lon="-100.6799670">
        <ele>2279.0</ele>
        <time>2022-08-20T14:51:39Z</time>
      </trkpt>
      <trkpt lat="25.5062770" lon="-100.6799510">
        <ele>2279.0</ele>
        <time>2022-08-20T14:51:40Z</time>
      </trkpt>
      <trkpt lat="25.5062710" lon="-100.6799370">
        <ele>2279.1</ele>
        <time>2022-08-20T14:51:41Z</time>
      </trkpt>
      <trkpt lat="25.5062620" lon="-100.6799320">
        <ele>2279.1</ele>
        <time>2022-08-20T14:51:42Z</time>
      </trkpt>
      <trkpt lat="25.5062590" lon="-100.6799270">
        <ele>2279.1</ele>
        <time>2022-08-20T14:51:43Z</time>
      </trkpt>
      <trkpt lat="25.5062630" lon="-100.6799500">
        <ele>2279.2</ele>
        <time>2022-08-20T14:51:44Z</time>
      </trkpt>
      <trkpt lat="25.5062640" lon="-100.6799560">
        <ele>2279.2</ele>
        <time>2022-08-20T14:51:45Z</time>
      </trkpt>
      <trkpt lat="25.5062650" lon="-100.6799590">
        <ele>2279.2</ele>
        <time>2022-08-20T14:51:46Z</time>
      </trkpt>
      <trkpt lat="25.5062660" lon="-100.6799600">
        <ele>2279.2</ele>
        <time>2022-08-20T14:51:47Z</time>
      </trkpt>
      <trkpt lat="25.5062660" lon="-100.6799590">
        <ele>2279.2</ele>
        <time>2022-08-20T14:51:48Z</time>
      </trkpt>
      <trkpt lat="25.5062660" lon="-100.6799590">
        <ele>2279.2</ele>
        <time>2022-08-20T14:51:49Z</time>
      </trkpt>
      <trkpt lat="25.5062660" lon="-100.6799590">
        <ele>2279.2</ele>
        <time>2022-08-20T14:51:50Z</time>
      </trkpt>
      <trkpt lat="25.5062660" lon="-100.6799580">
        <ele>2279.2</ele>
        <time>2022-08-20T14:51:51Z</time>
      </trkpt>
      <trkpt lat="25.5062660" lon="-100.6799560">
        <ele>2279.2</ele>
        <time>2022-08-20T14:51:52Z</time>
      </trkpt>
      <trkpt lat="25.5062660" lon="-100.6799560">
        <ele>2279.2</ele>
        <time>2022-08-20T14:51:53Z</time>
      </trkpt>
      <trkpt lat="25.5062650" lon="-100.6799550">
        <ele>2279.3</ele>
        <time>2022-08-20T14:51:55Z</time>
      </trkpt>
      <trkpt lat="25.5062640" lon="-100.6799530">
        <ele>2279.3</ele>
        <time>2022-08-20T14:51:56Z</time>
      </trkpt>
      <trkpt lat="25.5062640" lon="-100.6799520">
        <ele>2279.3</ele>
        <time>2022-08-20T14:51:57Z</time>
      </trkpt>
      <trkpt lat="25.5062620" lon="-100.6799490">
        <ele>2279.3</ele>
        <time>2022-08-20T14:51:58Z</time>
      </trkpt>
      <trkpt lat="25.5062600" lon="-100.6799480">
        <ele>2279.3</ele>
        <time>2022-08-20T14:51:59Z</time>
      </trkpt>
      <trkpt lat="25.5062590" lon="-100.6799470">
        <ele>2279.3</ele>
        <time>2022-08-20T14:52:00Z</time>
      </trkpt>
      <trkpt lat="25.5062560" lon="-100.6799410">
        <ele>2279.3</ele>
        <time>2022-08-20T14:52:01Z</time>
      </trkpt>
      <trkpt lat="25.5062500" lon="-100.6799320">
        <ele>2279.3</ele>
        <time>2022-08-20T14:52:02Z</time>
      </trkpt>
      <trkpt lat="25.5062480" lon="-100.6799060">
        <ele>2279.4</ele>
        <time>2022-08-20T14:52:04Z</time>
      </trkpt>
      <trkpt lat="25.5062530" lon="-100.6798680">
        <ele>2279.4</ele>
        <time>2022-08-20T14:52:05Z</time>
      </trkpt>
      <trkpt lat="25.5062550" lon="-100.6798530">
        <ele>2279.5</ele>
        <time>2022-08-20T14:52:06Z</time>
      </trkpt>
      <trkpt lat="25.5062530" lon="-100.6798180">
        <ele>2279.5</ele>
        <time>2022-08-20T14:52:08Z</time>
      </trkpt>
      <trkpt lat="25.5062510" lon="-100.6798090">
        <ele>2279.5</ele>
        <time>2022-08-20T14:52:09Z</time>
      </trkpt>
      <trkpt lat="25.5062480" lon="-100.6797760">
        <ele>2279.5</ele>
        <time>2022-08-20T14:52:10Z</time>
      </trkpt>
      <trkpt lat="25.5062470" lon="-100.6797640">
        <ele>2279.5</ele>
        <time>2022-08-20T14:52:11Z</time>
      </trkpt>
      <trkpt lat="25.5062370" lon="-100.6797320">
        <ele>2279.6</ele>
        <time>2022-08-20T14:52:12Z</time>
      </trkpt>
      <trkpt lat="25.5062330" lon="-100.6797210">
        <ele>2279.6</ele>
        <time>2022-08-20T14:52:13Z</time>
      </trkpt>
      <trkpt lat="25.5062290" lon="-100.6796900">
        <ele>2279.6</ele>
        <time>2022-08-20T14:52:14Z</time>
      </trkpt>
      <trkpt lat="25.5062250" lon="-100.6796740">
        <ele>2279.6</ele>
        <time>2022-08-20T14:52:15Z</time>
      </trkpt>
      <trkpt lat="25.5062130" lon="-100.6796570">
        <ele>2279.6</ele>
        <time>2022-08-20T14:52:16Z</time>
      </trkpt>
      <trkpt lat="25.5061990" lon="-100.6796310">
        <ele>2279.6</ele>
        <time>2022-08-20T14:52:18Z</time>
      </trkpt>
      <trkpt lat="25.5061750" lon="-100.6795890">
        <ele>2279.6</ele>
        <time>2022-08-20T14:52:19Z</time>
      </trkpt>
      <trkpt lat="25.5061640" lon="-100.6795700">
        <ele>2279.6</ele>
        <time>2022-08-20T14:52:20Z</time>
      </trkpt>
      <trkpt lat="25.5061380" lon="-100.6795250">
        <ele>2279.6</ele>
        <time>2022-08-20T14:52:22Z</time>
      </trkpt>
      <trkpt lat="25.5061280" lon="-100.6795060">
        <ele>2279.6</ele>
        <time>2022-08-20T14:52:23Z</time>
      </trkpt>
      <trkpt lat="25.5061180" lon="-100.6794880">
        <ele>2279.6</ele>
        <time>2022-08-20T14:52:24Z</time>
      </trkpt>
      <trkpt lat="25.5060960" lon="-100.6794560">
        <ele>2279.6</ele>
        <time>2022-08-20T14:52:25Z</time>
      </trkpt>
      <trkpt lat="25.5060810" lon="-100.6794300">
        <ele>2279.6</ele>
        <time>2022-08-20T14:52:26Z</time>
      </trkpt>
      <trkpt lat="25.5060620" lon="-100.6794010">
        <ele>2279.6</ele>
        <time>2022-08-20T14:52:27Z</time>
      </trkpt>
      <trkpt lat="25.5060450" lon="-100.6793730">
        <ele>2279.6</ele>
        <time>2022-08-20T14:52:29Z</time>
      </trkpt>
      <trkpt lat="25.5060260" lon="-100.6793370">
        <ele>2279.6</ele>
        <time>2022-08-20T14:52:30Z</time>
      </trkpt>
      <trkpt lat="25.5060120" lon="-100.6793000">
        <ele>2279.6</ele>
        <time>2022-08-20T14:52:32Z</time>
      </trkpt>
      <trkpt lat="25.5060100" lon="-100.6792560">
        <ele>2279.6</ele>
        <time>2022-08-20T14:52:33Z</time>
      </trkpt>
      <trkpt lat="25.5060110" lon="-100.6792400">
        <ele>2279.6</ele>
        <time>2022-08-20T14:52:34Z</time>
      </trkpt>
      <trkpt lat="25.5060140" lon="-100.6791910">
        <ele>2279.6</ele>
        <time>2022-08-20T14:52:35Z</time>
      </trkpt>
      <trkpt lat="25.5060130" lon="-100.6791340">
        <ele>2279.6</ele>
        <time>2022-08-20T14:52:37Z</time>
      </trkpt>
      <trkpt lat="25.5060130" lon="-100.6791150">
        <ele>2279.6</ele>
        <time>2022-08-20T14:52:38Z</time>
      </trkpt>
      <trkpt lat="25.5060140" lon="-100.6790960">
        <ele>2279.6</ele>
        <time>2022-08-20T14:52:39Z</time>
      </trkpt>
      <trkpt lat="25.5060150" lon="-100.6790660">
        <ele>2279.6</ele>
        <time>2022-08-20T14:52:40Z</time>
      </trkpt>
      <trkpt lat="25.5060130" lon="-100.6790360">
        <ele>2279.6</ele>
        <time>2022-08-20T14:52:41Z</time>
      </trkpt>
      <trkpt lat="25.5060070" lon="-100.6789860">
        <ele>2279.6</ele>
        <time>2022-08-20T14:52:42Z</time>
      </trkpt>
      <trkpt lat="25.5060020" lon="-100.6789620">
        <ele>2279.6</ele>
        <time>2022-08-20T14:52:43Z</time>
      </trkpt>
      <trkpt lat="25.5059990" lon="-100.6789350">
        <ele>2279.6</ele>
        <time>2022-08-20T14:52:45Z</time>
      </trkpt>
      <trkpt lat="25.5060140" lon="-100.6788900">
        <ele>2279.6</ele>
        <time>2022-08-20T14:52:46Z</time>
      </trkpt>
      <trkpt lat="25.5060240" lon="-100.6788710">
        <ele>2279.6</ele>
        <time>2022-08-20T14:52:47Z</time>
      </trkpt>
      <trkpt lat="25.5060390" lon="-100.6788270">
        <ele>2279.6</ele>
        <time>2022-08-20T14:52:49Z</time>
      </trkpt>
      <trkpt lat="25.5060530" lon="-100.6787840">
        <ele>2279.5</ele>
        <time>2022-08-20T14:52:50Z</time>
      </trkpt>
      <trkpt lat="25.5060640" lon="-100.6787500">
        <ele>2279.5</ele>
        <time>2022-08-20T14:52:51Z</time>
      </trkpt>
      <trkpt lat="25.5060800" lon="-100.6786820">
        <ele>2279.4</ele>
        <time>2022-08-20T14:52:53Z</time>
      </trkpt>
      <trkpt lat="25.5060880" lon="-100.6786460">
        <ele>2279.4</ele>
        <time>2022-08-20T14:52:55Z</time>
      </trkpt>
      <trkpt lat="25.5060940" lon="-100.6786040">
        <ele>2279.3</ele>
        <time>2022-08-20T14:52:56Z</time>
      </trkpt>
      <trkpt lat="25.5061020" lon="-100.6785570">
        <ele>2279.3</ele>
        <time>2022-08-20T14:52:57Z</time>
      </trkpt>
      <trkpt lat="25.5061110" lon="-100.6785030">
        <ele>2279.2</ele>
        <time>2022-08-20T14:52:58Z</time>
      </trkpt>
      <trkpt lat="25.5061130" lon="-100.6784500">
        <ele>2279.2</ele>
        <time>2022-08-20T14:53:00Z</time>
      </trkpt>
      <trkpt lat="25.5061220" lon="-100.6783940">
        <ele>2279.2</ele>
        <time>2022-08-20T14:53:01Z</time>
      </trkpt>
      <trkpt lat="25.5061320" lon="-100.6783310">
        <ele>2279.1</ele>
        <time>2022-08-20T14:53:03Z</time>
      </trkpt>
      <trkpt lat="25.5061430" lon="-100.6782880">
        <ele>2279.1</ele>
        <time>2022-08-20T14:53:05Z</time>
      </trkpt>
      <trkpt lat="25.5061500" lon="-100.6782400">
        <ele>2279.0</ele>
        <time>2022-08-20T14:53:06Z</time>
      </trkpt>
      <trkpt lat="25.5061530" lon="-100.6782190">
        <ele>2279.0</ele>
        <time>2022-08-20T14:53:07Z</time>
      </trkpt>
      <trkpt lat="25.5061550" lon="-100.6781890">
        <ele>2279.0</ele>
        <time>2022-08-20T14:53:08Z</time>
      </trkpt>
      <trkpt lat="25.5061530" lon="-100.6781110">
        <ele>2278.9</ele>
        <time>2022-08-20T14:53:10Z</time>
      </trkpt>
      <trkpt lat="25.5061480" lon="-100.6780760">
        <ele>2278.8</ele>
        <time>2022-08-20T14:53:12Z</time>
      </trkpt>
      <trkpt lat="25.5061380" lon="-100.6780070">
        <ele>2278.7</ele>
        <time>2022-08-20T14:53:13Z</time>
      </trkpt>
      <trkpt lat="25.5061350" lon="-100.6779740">
        <ele>2278.6</ele>
        <time>2022-08-20T14:53:14Z</time>
      </trkpt>
      <trkpt lat="25.5061340" lon="-100.6779360">
        <ele>2278.5</ele>
        <time>2022-08-20T14:53:16Z</time>
      </trkpt>
      <trkpt lat="25.5061300" lon="-100.6778910">
        <ele>2278.4</ele>
        <time>2022-08-20T14:53:17Z</time>
      </trkpt>
      <trkpt lat="25.5061280" lon="-100.6778560">
        <ele>2278.3</ele>
        <time>2022-08-20T14:53:18Z</time>
      </trkpt>
      <trkpt lat="25.5061240" lon="-100.6778080">
        <ele>2278.1</ele>
        <time>2022-08-20T14:53:19Z</time>
      </trkpt>
      <trkpt lat="25.5061190" lon="-100.6777630">
        <ele>2278.0</ele>
        <time>2022-08-20T14:53:21Z</time>
      </trkpt>
      <trkpt lat="25.5061160" lon="-100.6777220">
        <ele>2277.9</ele>
        <time>2022-08-20T14:53:22Z</time>
      </trkpt>
      <trkpt lat="25.5061110" lon="-100.6776790">
        <ele>2277.7</ele>
        <time>2022-08-20T14:53:23Z</time>
      </trkpt>
      <trkpt lat="25.5061060" lon="-100.6776340">
        <ele>2277.6</ele>
        <time>2022-08-20T14:53:24Z</time>
      </trkpt>
      <trkpt lat="25.5061040" lon="-100.6775910">
        <ele>2277.4</ele>
        <time>2022-08-20T14:53:25Z</time>
      </trkpt>
      <trkpt lat="25.5060990" lon="-100.6775560">
        <ele>2277.3</ele>
        <time>2022-08-20T14:53:26Z</time>
      </trkpt>
      <trkpt lat="25.5060930" lon="-100.6775270">
        <ele>2277.2</ele>
        <time>2022-08-20T14:53:27Z</time>
      </trkpt>
      <trkpt lat="25.5060890" lon="-100.6774900">
        <ele>2277.1</ele>
        <time>2022-08-20T14:53:29Z</time>
      </trkpt>
      <trkpt lat="25.5060880" lon="-100.6774810">
        <ele>2277.1</ele>
        <time>2022-08-20T14:53:30Z</time>
      </trkpt>
      <trkpt lat="25.5060840" lon="-100.6774740">
        <ele>2277.1</ele>
        <time>2022-08-20T14:53:31Z</time>
      </trkpt>
      <trkpt lat="25.5060720" lon="-100.6774130">
        <ele>2276.8</ele>
        <time>2022-08-20T14:53:33Z</time>
      </trkpt>
      <trkpt lat="25.5060740" lon="-100.6773870">
        <ele>2276.7</ele>
        <time>2022-08-20T14:53:35Z</time>
      </trkpt>
      <trkpt lat="25.5060740" lon="-100.6773690">
        <ele>2276.7</ele>
        <time>2022-08-20T14:53:36Z</time>
      </trkpt>
      <trkpt lat="25.5060690" lon="-100.6773660">
        <ele>2276.7</ele>
        <time>2022-08-20T14:53:37Z</time>
      </trkpt>
      <trkpt lat="25.5060690" lon="-100.6773600">
        <ele>2276.6</ele>
        <time>2022-08-20T14:53:38Z</time>
      </trkpt>
      <trkpt lat="25.5060690" lon="-100.6773590">
        <ele>2276.6</ele>
        <time>2022-08-20T14:53:39Z</time>
      </trkpt>
      <trkpt lat="25.5060710" lon="-100.6773580">
        <ele>2276.6</ele>
        <time>2022-08-20T14:53:40Z</time>
      </trkpt>
      <trkpt lat="25.5060740" lon="-100.6773790">
        <ele>2276.5</ele>
        <time>2022-08-20T14:53:41Z</time>
      </trkpt>
      <trkpt lat="25.5060730" lon="-100.6773880">
        <ele>2276.5</ele>
        <time>2022-08-20T14:53:42Z</time>
      </trkpt>
      <trkpt lat="25.5060730" lon="-100.6773910">
        <ele>2276.5</ele>
        <time>2022-08-20T14:53:43Z</time>
      </trkpt>
      <trkpt lat="25.5060730" lon="-100.6773930">
        <ele>2276.5</ele>
        <time>2022-08-20T14:53:44Z</time>
      </trkpt>
      <trkpt lat="25.5060740" lon="-100.6773940">
        <ele>2276.5</ele>
        <time>2022-08-20T14:53:45Z</time>
      </trkpt>
      <trkpt lat="25.5060750" lon="-100.6773940">
        <ele>2276.5</ele>
        <time>2022-08-20T14:53:46Z</time>
      </trkpt>
      <trkpt lat="25.5060760" lon="-100.6773930">
        <ele>2276.5</ele>
        <time>2022-08-20T14:53:47Z</time>
      </trkpt>
      <trkpt lat="25.5060770" lon="-100.6773920">
        <ele>2276.5</ele>
        <time>2022-08-20T14:53:49Z</time>
      </trkpt>
      <trkpt lat="25.5060780" lon="-100.6773910">
        <ele>2276.4</ele>
        <time>2022-08-20T14:53:50Z</time>
      </trkpt>
      <trkpt lat="25.5060780" lon="-100.6773910">
        <ele>2276.4</ele>
        <time>2022-08-20T14:53:51Z</time>
      </trkpt>
      <trkpt lat="25.5060800" lon="-100.6773910">
        <ele>2276.4</ele>
        <time>2022-08-20T14:53:53Z</time>
      </trkpt>
      <trkpt lat="25.5060810" lon="-100.6773870">
        <ele>2276.4</ele>
        <time>2022-08-20T14:53:54Z</time>
      </trkpt>
      <trkpt lat="25.5060830" lon="-100.6773830">
        <ele>2276.4</ele>
        <time>2022-08-20T14:53:55Z</time>
      </trkpt>
      <trkpt lat="25.5060850" lon="-100.6773800">
        <ele>2276.4</ele>
        <time>2022-08-20T14:53:56Z</time>
      </trkpt>
      <trkpt lat="25.5060890" lon="-100.6773720">
        <ele>2276.3</ele>
        <time>2022-08-20T14:53:58Z</time>
      </trkpt>
      <trkpt lat="25.5060890" lon="-100.6773690">
        <ele>2276.3</ele>
        <time>2022-08-20T14:53:59Z</time>
      </trkpt>
      <trkpt lat="25.5060900" lon="-100.6773640">
        <ele>2276.3</ele>
        <time>2022-08-20T14:54:00Z</time>
      </trkpt>
      <trkpt lat="25.5060880" lon="-100.6773560">
        <ele>2276.3</ele>
        <time>2022-08-20T14:54:01Z</time>
      </trkpt>
      <trkpt lat="25.5060780" lon="-100.6773370">
        <ele>2276.2</ele>
        <time>2022-08-20T14:54:02Z</time>
      </trkpt>
      <trkpt lat="25.5060700" lon="-100.6773270">
        <ele>2276.1</ele>
        <time>2022-08-20T14:54:03Z</time>
      </trkpt>
      <trkpt lat="25.5060630" lon="-100.6773170">
        <ele>2276.0</ele>
        <time>2022-08-20T14:54:04Z</time>
      </trkpt>
      <trkpt lat="25.5060400" lon="-100.6772870">
        <ele>2275.8</ele>
        <time>2022-08-20T14:54:05Z</time>
      </trkpt>
      <trkpt lat="25.5060300" lon="-100.6772780">
        <ele>2275.8</ele>
        <time>2022-08-20T14:54:06Z</time>
      </trkpt>
      <trkpt lat="25.5059990" lon="-100.6772570">
        <ele>2275.5</ele>
        <time>2022-08-20T14:54:07Z</time>
      </trkpt>
      <trkpt lat="25.5059650" lon="-100.6772350">
        <ele>2275.3</ele>
        <time>2022-08-20T14:54:09Z</time>
      </trkpt>
      <trkpt lat="25.5057880" lon="-100.6771140">
        <ele>2274.1</ele>
        <time>2022-08-20T14:54:10Z</time>
      </trkpt>
      <trkpt lat="25.5057470" lon="-100.6770930">
        <ele>2273.9</ele>
        <time>2022-08-20T14:54:11Z</time>
      </trkpt>
      <trkpt lat="25.5056780" lon="-100.6770650">
        <ele>2273.6</ele>
        <time>2022-08-20T14:54:12Z</time>
      </trkpt>
      <trkpt lat="25.5056240" lon="-100.6770480">
        <ele>2273.4</ele>
        <time>2022-08-20T14:54:13Z</time>
      </trkpt>
      <trkpt lat="25.5055770" lon="-100.6770400">
        <ele>2273.3</ele>
        <time>2022-08-20T14:54:14Z</time>
      </trkpt>
      <trkpt lat="25.5055460" lon="-100.6770360">
        <ele>2273.2</ele>
        <time>2022-08-20T14:54:15Z</time>
      </trkpt>
      <trkpt lat="25.5055240" lon="-100.6770310">
        <ele>2273.2</ele>
        <time>2022-08-20T14:54:16Z</time>
      </trkpt>
      <trkpt lat="25.5054770" lon="-100.6770110">
        <ele>2273.1</ele>
        <time>2022-08-20T14:54:17Z</time>
      </trkpt>
      <trkpt lat="25.5054490" lon="-100.6769810">
        <ele>2273.0</ele>
        <time>2022-08-20T14:54:19Z</time>
      </trkpt>
      <trkpt lat="25.5054330" lon="-100.6769440">
        <ele>2273.0</ele>
        <time>2022-08-20T14:54:20Z</time>
      </trkpt>
      <trkpt lat="25.5054210" lon="-100.6769070">
        <ele>2272.9</ele>
        <time>2022-08-20T14:54:21Z</time>
      </trkpt>
      <trkpt lat="25.5054130" lon="-100.6768580">
        <ele>2272.9</ele>
        <time>2022-08-20T14:54:22Z</time>
      </trkpt>
      <trkpt lat="25.5054140" lon="-100.6768170">
        <ele>2272.9</ele>
        <time>2022-08-20T14:54:23Z</time>
      </trkpt>
      <trkpt lat="25.5054200" lon="-100.6767730">
        <ele>2272.9</ele>
        <time>2022-08-20T14:54:25Z</time>
      </trkpt>
      <trkpt lat="25.5054210" lon="-100.6767310">
        <ele>2272.9</ele>
        <time>2022-08-20T14:54:26Z</time>
      </trkpt>
      <trkpt lat="25.5054160" lon="-100.6766920">
        <ele>2272.9</ele>
        <time>2022-08-20T14:54:27Z</time>
      </trkpt>
      <trkpt lat="25.5054120" lon="-100.6766530">
        <ele>2273.0</ele>
        <time>2022-08-20T14:54:28Z</time>
      </trkpt>
      <trkpt lat="25.5054250" lon="-100.6765930">
        <ele>2273.2</ele>
        <time>2022-08-20T14:54:29Z</time>
      </trkpt>
      <trkpt lat="25.5054530" lon="-100.6765590">
        <ele>2273.4</ele>
        <time>2022-08-20T14:54:30Z</time>
      </trkpt>
      <trkpt lat="25.5054820" lon="-100.6765380">
        <ele>2273.6</ele>
        <time>2022-08-20T14:54:32Z</time>
      </trkpt>
      <trkpt lat="25.5055000" lon="-100.6765360">
        <ele>2273.8</ele>
        <time>2022-08-20T14:54:33Z</time>
      </trkpt>
      <trkpt lat="25.5055130" lon="-100.6765360">
        <ele>2273.9</ele>
        <time>2022-08-20T14:54:34Z</time>
      </trkpt>
      <trkpt lat="25.5055290" lon="-100.6765390">
        <ele>2274.0</ele>
        <time>2022-08-20T14:54:35Z</time>
      </trkpt>
      <trkpt lat="25.5055410" lon="-100.6765400">
        <ele>2274.2</ele>
        <time>2022-08-20T14:54:36Z</time>
      </trkpt>
      <trkpt lat="25.5055550" lon="-100.6765390">
        <ele>2274.3</ele>
        <time>2022-08-20T14:54:37Z</time>
      </trkpt>
      <trkpt lat="25.5055650" lon="-100.6765350">
        <ele>2274.4</ele>
        <time>2022-08-20T14:54:38Z</time>
      </trkpt>
      <trkpt lat="25.5055790" lon="-100.6765300">
        <ele>2274.6</ele>
        <time>2022-08-20T14:54:40Z</time>
      </trkpt>
      <trkpt lat="25.5055940" lon="-100.6765160">
        <ele>2274.8</ele>
        <time>2022-08-20T14:54:41Z</time>
      </trkpt>
      <trkpt lat="25.5056050" lon="-100.6765090">
        <ele>2275.0</ele>
        <time>2022-08-20T14:54:43Z</time>
      </trkpt>
      <trkpt lat="25.5056100" lon="-100.6765020">
        <ele>2275.1</ele>
        <time>2022-08-20T14:54:44Z</time>
      </trkpt>
      <trkpt lat="25.5056140" lon="-100.6764940">
        <ele>2275.2</ele>
        <time>2022-08-20T14:54:45Z</time>
      </trkpt>
      <trkpt lat="25.5056180" lon="-100.6764860">
        <ele>2275.3</ele>
        <time>2022-08-20T14:54:46Z</time>
      </trkpt>
      <trkpt lat="25.5056220" lon="-100.6764810">
        <ele>2275.4</ele>
        <time>2022-08-20T14:54:47Z</time>
      </trkpt>
      <trkpt lat="25.5056280" lon="-100.6764740">
        <ele>2275.5</ele>
        <time>2022-08-20T14:54:48Z</time>
      </trkpt>
      <trkpt lat="25.5056350" lon="-100.6764680">
        <ele>2275.6</ele>
        <time>2022-08-20T14:54:49Z</time>
      </trkpt>
      <trkpt lat="25.5056420" lon="-100.6764610">
        <ele>2275.7</ele>
        <time>2022-08-20T14:54:50Z</time>
      </trkpt>
      <trkpt lat="25.5056450" lon="-100.6764540">
        <ele>2275.8</ele>
        <time>2022-08-20T14:54:51Z</time>
      </trkpt>
      <trkpt lat="25.5056520" lon="-100.6764450">
        <ele>2276.0</ele>
        <time>2022-08-20T14:54:52Z</time>
      </trkpt>
      <trkpt lat="25.5056570" lon="-100.6764360">
        <ele>2276.1</ele>
        <time>2022-08-20T14:54:53Z</time>
      </trkpt>
      <trkpt lat="25.5056620" lon="-100.6764250">
        <ele>2276.2</ele>
        <time>2022-08-20T14:54:54Z</time>
      </trkpt>
      <trkpt lat="25.5056750" lon="-100.6764060">
        <ele>2276.5</ele>
        <time>2022-08-20T14:54:55Z</time>
      </trkpt>
      <trkpt lat="25.5056810" lon="-100.6763900">
        <ele>2276.8</ele>
        <time>2022-08-20T14:54:57Z</time>
      </trkpt>
      <trkpt lat="25.5056850" lon="-100.6763780">
        <ele>2276.9</ele>
        <time>2022-08-20T14:54:58Z</time>
      </trkpt>
      <trkpt lat="25.5056930" lon="-100.6763610">
        <ele>2277.1</ele>
        <time>2022-08-20T14:54:59Z</time>
      </trkpt>
      <trkpt lat="25.5057010" lon="-100.6763440">
        <ele>2277.4</ele>
        <time>2022-08-20T14:55:00Z</time>
      </trkpt>
      <trkpt lat="25.5057050" lon="-100.6763250">
        <ele>2277.6</ele>
        <time>2022-08-20T14:55:01Z</time>
      </trkpt>
      <trkpt lat="25.5057080" lon="-100.6762940">
        <ele>2278.2</ele>
        <time>2022-08-20T14:55:02Z</time>
      </trkpt>
      <trkpt lat="25.5057090" lon="-100.6762470">
        <ele>2278.8</ele>
        <time>2022-08-20T14:55:04Z</time>
      </trkpt>
      <trkpt lat="25.5057070" lon="-100.6762300">
        <ele>2278.9</ele>
        <time>2022-08-20T14:55:05Z</time>
      </trkpt>
      <trkpt lat="25.5057060" lon="-100.6762140">
        <ele>2279.1</ele>
        <time>2022-08-20T14:55:06Z</time>
      </trkpt>
      <trkpt lat="25.5057090" lon="-100.6761890">
        <ele>2279.4</ele>
        <time>2022-08-20T14:55:08Z</time>
      </trkpt>
      <trkpt lat="25.5057120" lon="-100.6761800">
        <ele>2279.5</ele>
        <time>2022-08-20T14:55:09Z</time>
      </trkpt>
      <trkpt lat="25.5057130" lon="-100.6761720">
        <ele>2279.6</ele>
        <time>2022-08-20T14:55:10Z</time>
      </trkpt>
      <trkpt lat="25.5057120" lon="-100.6761650">
        <ele>2279.7</ele>
        <time>2022-08-20T14:55:12Z</time>
      </trkpt>
      <trkpt lat="25.5057110" lon="-100.6761620">
        <ele>2279.7</ele>
        <time>2022-08-20T14:55:13Z</time>
      </trkpt>
      <trkpt lat="25.5057110" lon="-100.6761590">
        <ele>2279.7</ele>
        <time>2022-08-20T14:55:14Z</time>
      </trkpt>
      <trkpt lat="25.5057110" lon="-100.6761580">
        <ele>2279.7</ele>
        <time>2022-08-20T14:55:15Z</time>
      </trkpt>
      <trkpt lat="25.5057110" lon="-100.6761580">
        <ele>2279.7</ele>
        <time>2022-08-20T14:55:16Z</time>
      </trkpt>
      <trkpt lat="25.5057100" lon="-100.6761570">
        <ele>2279.8</ele>
        <time>2022-08-20T14:55:17Z</time>
      </trkpt>
      <trkpt lat="25.5057100" lon="-100.6761570">
        <ele>2279.8</ele>
        <time>2022-08-20T14:55:18Z</time>
      </trkpt>
      <trkpt lat="25.5057100" lon="-100.6761340">
        <ele>2280.0</ele>
        <time>2022-08-20T14:55:20Z</time>
      </trkpt>
      <trkpt lat="25.5057110" lon="-100.6760850">
        <ele>2280.5</ele>
        <time>2022-08-20T14:55:21Z</time>
      </trkpt>
      <trkpt lat="25.5057120" lon="-100.6760610">
        <ele>2280.8</ele>
        <time>2022-08-20T14:55:22Z</time>
      </trkpt>
      <trkpt lat="25.5057160" lon="-100.6760210">
        <ele>2281.2</ele>
        <time>2022-08-20T14:55:23Z</time>
      </trkpt>
      <trkpt lat="25.5057180" lon="-100.6759850">
        <ele>2281.6</ele>
        <time>2022-08-20T14:55:24Z</time>
      </trkpt>
      <trkpt lat="25.5057260" lon="-100.6759400">
        <ele>2282.0</ele>
        <time>2022-08-20T14:55:26Z</time>
      </trkpt>
      <trkpt lat="25.5057270" lon="-100.6759260">
        <ele>2282.2</ele>
        <time>2022-08-20T14:55:27Z</time>
      </trkpt>
      <trkpt lat="25.5057270" lon="-100.6759130">
        <ele>2282.3</ele>
        <time>2022-08-20T14:55:28Z</time>
      </trkpt>
      <trkpt lat="25.5057220" lon="-100.6758760">
        <ele>2282.7</ele>
        <time>2022-08-20T14:55:29Z</time>
      </trkpt>
      <trkpt lat="25.5057180" lon="-100.6758640">
        <ele>2282.8</ele>
        <time>2022-08-20T14:55:31Z</time>
      </trkpt>
      <trkpt lat="25.5057140" lon="-100.6758410">
        <ele>2283.1</ele>
        <time>2022-08-20T14:55:32Z</time>
      </trkpt>
      <trkpt lat="25.5057110" lon="-100.6758020">
        <ele>2283.4</ele>
        <time>2022-08-20T14:55:33Z</time>
      </trkpt>
      <trkpt lat="25.5057100" lon="-100.6757900">
        <ele>2283.6</ele>
        <time>2022-08-20T14:55:34Z</time>
      </trkpt>
      <trkpt lat="25.5057090" lon="-100.6757750">
        <ele>2283.7</ele>
        <time>2022-08-20T14:55:35Z</time>
      </trkpt>
      <trkpt lat="25.5057050" lon="-100.6757580">
        <ele>2283.9</ele>
        <time>2022-08-20T14:55:36Z</time>
      </trkpt>
      <trkpt lat="25.5056980" lon="-100.6757290">
        <ele>2284.2</ele>
        <time>2022-08-20T14:55:37Z</time>
      </trkpt>
      <trkpt lat="25.5056960" lon="-100.6757160">
        <ele>2284.3</ele>
        <time>2022-08-20T14:55:38Z</time>
      </trkpt>
      <trkpt lat="25.5056890" lon="-100.6756980">
        <ele>2284.5</ele>
        <time>2022-08-20T14:55:40Z</time>
      </trkpt>
      <trkpt lat="25.5056860" lon="-100.6756810">
        <ele>2284.7</ele>
        <time>2022-08-20T14:55:41Z</time>
      </trkpt>
      <trkpt lat="25.5056750" lon="-100.6756460">
        <ele>2285.0</ele>
        <time>2022-08-20T14:55:42Z</time>
      </trkpt>
      <trkpt lat="25.5056740" lon="-100.6756280">
        <ele>2285.2</ele>
        <time>2022-08-20T14:55:44Z</time>
      </trkpt>
      <trkpt lat="25.5056730" lon="-100.6756110">
        <ele>2285.4</ele>
        <time>2022-08-20T14:55:45Z</time>
      </trkpt>
      <trkpt lat="25.5056570" lon="-100.6755750">
        <ele>2285.7</ele>
        <time>2022-08-20T14:55:46Z</time>
      </trkpt>
      <trkpt lat="25.5056500" lon="-100.6755630">
        <ele>2285.8</ele>
        <time>2022-08-20T14:55:47Z</time>
      </trkpt>
      <trkpt lat="25.5056340" lon="-100.6755310">
        <ele>2286.2</ele>
        <time>2022-08-20T14:55:49Z</time>
      </trkpt>
      <trkpt lat="25.5056310" lon="-100.6755190">
        <ele>2286.3</ele>
        <time>2022-08-20T14:55:50Z</time>
      </trkpt>
      <trkpt lat="25.5056310" lon="-100.6754950">
        <ele>2286.5</ele>
        <time>2022-08-20T14:55:51Z</time>
      </trkpt>
      <trkpt lat="25.5056320" lon="-100.6754730">
        <ele>2286.7</ele>
        <time>2022-08-20T14:55:53Z</time>
      </trkpt>
      <trkpt lat="25.5056350" lon="-100.6754410">
        <ele>2287.0</ele>
        <time>2022-08-20T14:55:54Z</time>
      </trkpt>
      <trkpt lat="25.5056340" lon="-100.6754080">
        <ele>2287.3</ele>
        <time>2022-08-20T14:55:55Z</time>
      </trkpt>
      <trkpt lat="25.5056340" lon="-100.6753960">
        <ele>2287.4</ele>
        <time>2022-08-20T14:55:56Z</time>
      </trkpt>
      <trkpt lat="25.5056290" lon="-100.6753650">
        <ele>2287.7</ele>
        <time>2022-08-20T14:55:58Z</time>
      </trkpt>
      <trkpt lat="25.5056310" lon="-100.6753330">
        <ele>2287.9</ele>
        <time>2022-08-20T14:55:59Z</time>
      </trkpt>
      <trkpt lat="25.5056420" lon="-100.6752940">
        <ele>2288.3</ele>
        <time>2022-08-20T14:56:00Z</time>
      </trkpt>
      <trkpt lat="25.5056440" lon="-100.6752810">
        <ele>2288.4</ele>
        <time>2022-08-20T14:56:01Z</time>
      </trkpt>
      <trkpt lat="25.5056400" lon="-100.6752580">
        <ele>2288.6</ele>
        <time>2022-08-20T14:56:02Z</time>
      </trkpt>
      <trkpt lat="25.5056280" lon="-100.6752250">
        <ele>2288.9</ele>
        <time>2022-08-20T14:56:04Z</time>
      </trkpt>
      <trkpt lat="25.5056240" lon="-100.6752090">
        <ele>2289.1</ele>
        <time>2022-08-20T14:56:05Z</time>
      </trkpt>
      <trkpt lat="25.5056200" lon="-100.6751860">
        <ele>2289.3</ele>
        <time>2022-08-20T14:56:06Z</time>
      </trkpt>
      <trkpt lat="25.5056160" lon="-100.6751580">
        <ele>2289.5</ele>
        <time>2022-08-20T14:56:07Z</time>
      </trkpt>
      <trkpt lat="25.5056160" lon="-100.6751390">
        <ele>2289.7</ele>
        <time>2022-08-20T14:56:09Z</time>
      </trkpt>
      <trkpt lat="25.5056160" lon="-100.6751140">
        <ele>2289.9</ele>
        <time>2022-08-20T14:56:10Z</time>
      </trkpt>
      <trkpt lat="25.5056150" lon="-100.6751030">
        <ele>2290.0</ele>
        <time>2022-08-20T14:56:11Z</time>
      </trkpt>
      <trkpt lat="25.5056150" lon="-100.6750920">
        <ele>2290.1</ele>
        <time>2022-08-20T14:56:12Z</time>
      </trkpt>
      <trkpt lat="25.5056100" lon="-100.6750540">
        <ele>2290.4</ele>
        <time>2022-08-20T14:56:13Z</time>
      </trkpt>
      <trkpt lat="25.5056080" lon="-100.6750430">
        <ele>2290.5</ele>
        <time>2022-08-20T14:56:14Z</time>
      </trkpt>
      <trkpt lat="25.5056070" lon="-100.6750250">
        <ele>2290.7</ele>
        <time>2022-08-20T14:56:16Z</time>
      </trkpt>
      <trkpt lat="25.5056060" lon="-100.6750090">
        <ele>2290.8</ele>
        <time>2022-08-20T14:56:17Z</time>
      </trkpt>
      <trkpt lat="25.5056150" lon="-100.6749970">
        <ele>2290.9</ele>
        <time>2022-08-20T14:56:18Z</time>
      </trkpt>
      <trkpt lat="25.5056280" lon="-100.6749800">
        <ele>2291.1</ele>
        <time>2022-08-20T14:56:19Z</time>
      </trkpt>
      <trkpt lat="25.5056240" lon="-100.6749460">
        <ele>2291.4</ele>
        <time>2022-08-20T14:56:20Z</time>
      </trkpt>
      <trkpt lat="25.5056200" lon="-100.6749340">
        <ele>2291.5</ele>
        <time>2022-08-20T14:56:21Z</time>
      </trkpt>
      <trkpt lat="25.5056220" lon="-100.6748970">
        <ele>2291.8</ele>
        <time>2022-08-20T14:56:23Z</time>
      </trkpt>
      <trkpt lat="25.5056250" lon="-100.6748800">
        <ele>2292.0</ele>
        <time>2022-08-20T14:56:25Z</time>
      </trkpt>
      <trkpt lat="25.5056270" lon="-100.6748680">
        <ele>2292.1</ele>
        <time>2022-08-20T14:56:26Z</time>
      </trkpt>
      <trkpt lat="25.5056300" lon="-100.6748610">
        <ele>2292.2</ele>
        <time>2022-08-20T14:56:27Z</time>
      </trkpt>
      <trkpt lat="25.5056230" lon="-100.6748460">
        <ele>2292.3</ele>
        <time>2022-08-20T14:56:29Z</time>
      </trkpt>
      <trkpt lat="25.5056200" lon="-100.6748310">
        <ele>2292.4</ele>
        <time>2022-08-20T14:56:30Z</time>
      </trkpt>
      <trkpt lat="25.5056180" lon="-100.6748010">
        <ele>2292.7</ele>
        <time>2022-08-20T14:56:31Z</time>
      </trkpt>
      <trkpt lat="25.5056150" lon="-100.6747880">
        <ele>2292.8</ele>
        <time>2022-08-20T14:56:32Z</time>
      </trkpt>
      <trkpt lat="25.5056110" lon="-100.6747640">
        <ele>2293.0</ele>
        <time>2022-08-20T14:56:33Z</time>
      </trkpt>
      <trkpt lat="25.5056010" lon="-100.6747340">
        <ele>2293.3</ele>
        <time>2022-08-20T14:56:35Z</time>
      </trkpt>
      <trkpt lat="25.5055930" lon="-100.6746970">
        <ele>2293.6</ele>
        <time>2022-08-20T14:56:36Z</time>
      </trkpt>
      <trkpt lat="25.5055900" lon="-100.6746880">
        <ele>2293.7</ele>
        <time>2022-08-20T14:56:37Z</time>
      </trkpt>
      <trkpt lat="25.5055860" lon="-100.6746520">
        <ele>2294.0</ele>
        <time>2022-08-20T14:56:39Z</time>
      </trkpt>
      <trkpt lat="25.5055820" lon="-100.6746400">
        <ele>2294.1</ele>
        <time>2022-08-20T14:56:40Z</time>
      </trkpt>
      <trkpt lat="25.5055700" lon="-100.6746000">
        <ele>2294.5</ele>
        <time>2022-08-20T14:56:41Z</time>
      </trkpt>
      <trkpt lat="25.5055640" lon="-100.6745830">
        <ele>2294.6</ele>
        <time>2022-08-20T14:56:42Z</time>
      </trkpt>
      <trkpt lat="25.5055540" lon="-100.6745460">
        <ele>2294.9</ele>
        <time>2022-08-20T14:56:43Z</time>
      </trkpt>
      <trkpt lat="25.5055500" lon="-100.6745340">
        <ele>2295.1</ele>
        <time>2022-08-20T14:56:44Z</time>
      </trkpt>
      <trkpt lat="25.5055430" lon="-100.6745150">
        <ele>2295.2</ele>
        <time>2022-08-20T14:56:46Z</time>
      </trkpt>
      <trkpt lat="25.5055340" lon="-100.6745030">
        <ele>2295.4</ele>
        <time>2022-08-20T14:56:47Z</time>
      </trkpt>
      <trkpt lat="25.5055180" lon="-100.6744800">
        <ele>2295.6</ele>
        <time>2022-08-20T14:56:48Z</time>
      </trkpt>
      <trkpt lat="25.5054980" lon="-100.6744520">
        <ele>2295.9</ele>
        <time>2022-08-20T14:56:50Z</time>
      </trkpt>
      <trkpt lat="25.5054830" lon="-100.6744300">
        <ele>2296.1</ele>
        <time>2022-08-20T14:56:52Z</time>
      </trkpt>
      <trkpt lat="25.5054650" lon="-100.6744040">
        <ele>2296.4</ele>
        <time>2022-08-20T14:56:53Z</time>
      </trkpt>
      <trkpt lat="25.5054580" lon="-100.6743950">
        <ele>2296.5</ele>
        <time>2022-08-20T14:56:54Z</time>
      </trkpt>
      <trkpt lat="25.5054460" lon="-100.6743810">
        <ele>2296.7</ele>
        <time>2022-08-20T14:56:55Z</time>
      </trkpt>
      <trkpt lat="25.5054330" lon="-100.6743680">
        <ele>2296.9</ele>
        <time>2022-08-20T14:56:56Z</time>
      </trkpt>
      <trkpt lat="25.5054110" lon="-100.6743420">
        <ele>2297.2</ele>
        <time>2022-08-20T14:56:58Z</time>
      </trkpt>
      <trkpt lat="25.5054050" lon="-100.6743350">
        <ele>2297.3</ele>
        <time>2022-08-20T14:56:59Z</time>
      </trkpt>
      <trkpt lat="25.5053940" lon="-100.6743180">
        <ele>2297.4</ele>
        <time>2022-08-20T14:57:00Z</time>
      </trkpt>
      <trkpt lat="25.5053810" lon="-100.6743070">
        <ele>2297.6</ele>
        <time>2022-08-20T14:57:01Z</time>
      </trkpt>
      <trkpt lat="25.5053680" lon="-100.6742960">
        <ele>2297.8</ele>
        <time>2022-08-20T14:57:02Z</time>
      </trkpt>
      <trkpt lat="25.5053580" lon="-100.6742850">
        <ele>2297.9</ele>
        <time>2022-08-20T14:57:03Z</time>
      </trkpt>
      <trkpt lat="25.5053380" lon="-100.6742680">
        <ele>2298.2</ele>
        <time>2022-08-20T14:57:04Z</time>
      </trkpt>
      <trkpt lat="25.5053260" lon="-100.6742590">
        <ele>2298.3</ele>
        <time>2022-08-20T14:57:06Z</time>
      </trkpt>
      <trkpt lat="25.5053140" lon="-100.6742500">
        <ele>2298.5</ele>
        <time>2022-08-20T14:57:08Z</time>
      </trkpt>
      <trkpt lat="25.5053020" lon="-100.6742400">
        <ele>2298.7</ele>
        <time>2022-08-20T14:57:09Z</time>
      </trkpt>
      <trkpt lat="25.5052910" lon="-100.6742290">
        <ele>2298.8</ele>
        <time>2022-08-20T14:57:10Z</time>
      </trkpt>
      <trkpt lat="25.5052810" lon="-100.6742160">
        <ele>2299.0</ele>
        <time>2022-08-20T14:57:11Z</time>
      </trkpt>
      <trkpt lat="25.5052630" lon="-100.6741970">
        <ele>2299.3</ele>
        <time>2022-08-20T14:57:12Z</time>
      </trkpt>
      <trkpt lat="25.5052540" lon="-100.6741910">
        <ele>2299.4</ele>
        <time>2022-08-20T14:57:13Z</time>
      </trkpt>
      <trkpt lat="25.5052450" lon="-100.6741840">
        <ele>2299.5</ele>
        <time>2022-08-20T14:57:14Z</time>
      </trkpt>
      <trkpt lat="25.5052320" lon="-100.6741720">
        <ele>2299.7</ele>
        <time>2022-08-20T14:57:15Z</time>
      </trkpt>
      <trkpt lat="25.5052190" lon="-100.6741620">
        <ele>2299.9</ele>
        <time>2022-08-20T14:57:16Z</time>
      </trkpt>
      <trkpt lat="25.5051970" lon="-100.6741400">
        <ele>2300.2</ele>
        <time>2022-08-20T14:57:17Z</time>
      </trkpt>
      <trkpt lat="25.5051900" lon="-100.6741310">
        <ele>2300.3</ele>
        <time>2022-08-20T14:57:18Z</time>
      </trkpt>
      <trkpt lat="25.5051640" lon="-100.6741150">
        <ele>2300.6</ele>
        <time>2022-08-20T14:57:19Z</time>
      </trkpt>
      <trkpt lat="25.5051550" lon="-100.6741090">
        <ele>2300.8</ele>
        <time>2022-08-20T14:57:20Z</time>
      </trkpt>
      <trkpt lat="25.5051330" lon="-100.6740860">
        <ele>2301.1</ele>
        <time>2022-08-20T14:57:21Z</time>
      </trkpt>
      <trkpt lat="25.5051260" lon="-100.6740780">
        <ele>2301.2</ele>
        <time>2022-08-20T14:57:22Z</time>
      </trkpt>
      <trkpt lat="25.5050990" lon="-100.6740530">
        <ele>2301.6</ele>
        <time>2022-08-20T14:57:23Z</time>
      </trkpt>
      <trkpt lat="25.5050900" lon="-100.6740460">
        <ele>2301.7</ele>
        <time>2022-08-20T14:57:24Z</time>
      </trkpt>
      <trkpt lat="25.5050740" lon="-100.6740360">
        <ele>2301.9</ele>
        <time>2022-08-20T14:57:25Z</time>
      </trkpt>
      <trkpt lat="25.5050580" lon="-100.6740200">
        <ele>2302.2</ele>
        <time>2022-08-20T14:57:27Z</time>
      </trkpt>
      <trkpt lat="25.5050480" lon="-100.6740090">
        <ele>2302.3</ele>
        <time>2022-08-20T14:57:28Z</time>
      </trkpt>
      <trkpt lat="25.5050330" lon="-100.6739960">
        <ele>2302.5</ele>
        <time>2022-08-20T14:57:29Z</time>
      </trkpt>
      <trkpt lat="25.5050180" lon="-100.6739830">
        <ele>2302.7</ele>
        <time>2022-08-20T14:57:30Z</time>
      </trkpt>
      <trkpt lat="25.5050000" lon="-100.6739740">
        <ele>2303.0</ele>
        <time>2022-08-20T14:57:32Z</time>
      </trkpt>
      <trkpt lat="25.5049810" lon="-100.6739630">
        <ele>2303.2</ele>
        <time>2022-08-20T14:57:33Z</time>
      </trkpt>
      <trkpt lat="25.5049560" lon="-100.6739470">
        <ele>2303.5</ele>
        <time>2022-08-20T14:57:35Z</time>
      </trkpt>
      <trkpt lat="25.5049270" lon="-100.6739330">
        <ele>2303.9</ele>
        <time>2022-08-20T14:57:36Z</time>
      </trkpt>
      <trkpt lat="25.5049170" lon="-100.6739280">
        <ele>2304.0</ele>
        <time>2022-08-20T14:57:37Z</time>
      </trkpt>
      <trkpt lat="25.5048870" lon="-100.6739050">
        <ele>2304.4</ele>
        <time>2022-08-20T14:57:38Z</time>
      </trkpt>
      <trkpt lat="25.5048770" lon="-100.6738980">
        <ele>2304.5</ele>
        <time>2022-08-20T14:57:39Z</time>
      </trkpt>
      <trkpt lat="25.5048640" lon="-100.6738850">
        <ele>2304.7</ele>
        <time>2022-08-20T14:57:41Z</time>
      </trkpt>
      <trkpt lat="25.5048500" lon="-100.6738730">
        <ele>2304.9</ele>
        <time>2022-08-20T14:57:42Z</time>
      </trkpt>
      <trkpt lat="25.5048190" lon="-100.6738770">
        <ele>2305.3</ele>
        <time>2022-08-20T14:57:44Z</time>
      </trkpt>
      <trkpt lat="25.5047890" lon="-100.6738690">
        <ele>2305.6</ele>
        <time>2022-08-20T14:57:46Z</time>
      </trkpt>
      <trkpt lat="25.5047760" lon="-100.6738650">
        <ele>2305.8</ele>
        <time>2022-08-20T14:57:47Z</time>
      </trkpt>
      <trkpt lat="25.5047630" lon="-100.6738600">
        <ele>2305.9</ele>
        <time>2022-08-20T14:57:48Z</time>
      </trkpt>
      <trkpt lat="25.5047420" lon="-100.6738420">
        <ele>2306.3</ele>
        <time>2022-08-20T14:57:50Z</time>
      </trkpt>
      <trkpt lat="25.5047340" lon="-100.6738320">
        <ele>2306.4</ele>
        <time>2022-08-20T14:57:51Z</time>
      </trkpt>
      <trkpt lat="25.5047190" lon="-100.6738140">
        <ele>2306.7</ele>
        <time>2022-08-20T14:57:52Z</time>
      </trkpt>
      <trkpt lat="25.5047020" lon="-100.6738020">
        <ele>2306.9</ele>
        <time>2022-08-20T14:57:54Z</time>
      </trkpt>
      <trkpt lat="25.5046870" lon="-100.6737910">
        <ele>2307.1</ele>
        <time>2022-08-20T14:57:55Z</time>
      </trkpt>
      <trkpt lat="25.5046730" lon="-100.6737800">
        <ele>2307.4</ele>
        <time>2022-08-20T14:57:56Z</time>
      </trkpt>
      <trkpt lat="25.5046630" lon="-100.6737630">
        <ele>2307.6</ele>
        <time>2022-08-20T14:57:57Z</time>
      </trkpt>
      <trkpt lat="25.5046490" lon="-100.6737440">
        <ele>2307.9</ele>
        <time>2022-08-20T14:57:59Z</time>
      </trkpt>
      <trkpt lat="25.5046380" lon="-100.6737310">
        <ele>2308.1</ele>
        <time>2022-08-20T14:58:00Z</time>
      </trkpt>
      <trkpt lat="25.5046240" lon="-100.6737150">
        <ele>2308.3</ele>
        <time>2022-08-20T14:58:01Z</time>
      </trkpt>
      <trkpt lat="25.5046100" lon="-100.6737070">
        <ele>2308.5</ele>
        <time>2022-08-20T14:58:03Z</time>
      </trkpt>
      <trkpt lat="25.5045980" lon="-100.6736990">
        <ele>2308.7</ele>
        <time>2022-08-20T14:58:04Z</time>
      </trkpt>
      <trkpt lat="25.5045850" lon="-100.6736820">
        <ele>2308.9</ele>
        <time>2022-08-20T14:58:05Z</time>
      </trkpt>
      <trkpt lat="25.5045780" lon="-100.6736730">
        <ele>2309.1</ele>
        <time>2022-08-20T14:58:06Z</time>
      </trkpt>
      <trkpt lat="25.5045710" lon="-100.6736650">
        <ele>2309.2</ele>
        <time>2022-08-20T14:58:07Z</time>
      </trkpt>
      <trkpt lat="25.5045590" lon="-100.6736510">
        <ele>2309.4</ele>
        <time>2022-08-20T14:58:08Z</time>
      </trkpt>
      <trkpt lat="25.5045450" lon="-100.6736390">
        <ele>2309.6</ele>
        <time>2022-08-20T14:58:10Z</time>
      </trkpt>
      <trkpt lat="25.5045320" lon="-100.6736330">
        <ele>2309.8</ele>
        <time>2022-08-20T14:58:11Z</time>
      </trkpt>
      <trkpt lat="25.5045170" lon="-100.6736200">
        <ele>2310.1</ele>
        <time>2022-08-20T14:58:12Z</time>
      </trkpt>
      <trkpt lat="25.5044890" lon="-100.6735980">
        <ele>2310.5</ele>
        <time>2022-08-20T14:58:13Z</time>
      </trkpt>
      <trkpt lat="25.5044790" lon="-100.6735900">
        <ele>2310.6</ele>
        <time>2022-08-20T14:58:14Z</time>
      </trkpt>
      <trkpt lat="25.5044650" lon="-100.6735770">
        <ele>2310.9</ele>
        <time>2022-08-20T14:58:16Z</time>
      </trkpt>
      <trkpt lat="25.5044550" lon="-100.6735770">
        <ele>2311.0</ele>
        <time>2022-08-20T14:58:17Z</time>
      </trkpt>
      <trkpt lat="25.5044510" lon="-100.6735730">
        <ele>2311.0</ele>
        <time>2022-08-20T14:58:18Z</time>
      </trkpt>
      <trkpt lat="25.5044480" lon="-100.6735620">
        <ele>2311.2</ele>
        <time>2022-08-20T14:58:19Z</time>
      </trkpt>
      <trkpt lat="25.5044390" lon="-100.6735560">
        <ele>2311.3</ele>
        <time>2022-08-20T14:58:20Z</time>
      </trkpt>
      <trkpt lat="25.5044270" lon="-100.6735440">
        <ele>2311.5</ele>
        <time>2022-08-20T14:58:21Z</time>
      </trkpt>
      <trkpt lat="25.5044180" lon="-100.6735400">
        <ele>2311.6</ele>
        <time>2022-08-20T14:58:23Z</time>
      </trkpt>
      <trkpt lat="25.5044080" lon="-100.6735290">
        <ele>2311.7</ele>
        <time>2022-08-20T14:58:24Z</time>
      </trkpt>
      <trkpt lat="25.5044070" lon="-100.6735300">
        <ele>2311.8</ele>
        <time>2022-08-20T14:58:25Z</time>
      </trkpt>
      <trkpt lat="25.5044000" lon="-100.6735270">
        <ele>2311.9</ele>
        <time>2022-08-20T14:58:26Z</time>
      </trkpt>
      <trkpt lat="25.5043780" lon="-100.6735100">
        <ele>2312.2</ele>
        <time>2022-08-20T14:58:27Z</time>
      </trkpt>
      <trkpt lat="25.5043680" lon="-100.6735010">
        <ele>2312.3</ele>
        <time>2022-08-20T14:58:28Z</time>
      </trkpt>
      <trkpt lat="25.5043540" lon="-100.6734840">
        <ele>2312.5</ele>
        <time>2022-08-20T14:58:30Z</time>
      </trkpt>
      <trkpt lat="25.5043480" lon="-100.6734770">
        <ele>2312.6</ele>
        <time>2022-08-20T14:58:31Z</time>
      </trkpt>
      <trkpt lat="25.5043410" lon="-100.6734710">
        <ele>2312.7</ele>
        <time>2022-08-20T14:58:32Z</time>
      </trkpt>
      <trkpt lat="25.5043340" lon="-100.6734650">
        <ele>2312.8</ele>
        <time>2022-08-20T14:58:34Z</time>
      </trkpt>
      <trkpt lat="25.5043270" lon="-100.6734590">
        <ele>2312.9</ele>
        <time>2022-08-20T14:58:35Z</time>
      </trkpt>
      <trkpt lat="25.5043160" lon="-100.6734510">
        <ele>2313.1</ele>
        <time>2022-08-20T14:58:36Z</time>
      </trkpt>
      <trkpt lat="25.5042960" lon="-100.6734270">
        <ele>2313.4</ele>
        <time>2022-08-20T14:58:37Z</time>
      </trkpt>
      <trkpt lat="25.5042910" lon="-100.6734200">
        <ele>2313.4</ele>
        <time>2022-08-20T14:58:38Z</time>
      </trkpt>
      <trkpt lat="25.5042860" lon="-100.6734100">
        <ele>2313.5</ele>
        <time>2022-08-20T14:58:40Z</time>
      </trkpt>
      <trkpt lat="25.5042780" lon="-100.6733990">
        <ele>2313.6</ele>
        <time>2022-08-20T14:58:41Z</time>
      </trkpt>
      <trkpt lat="25.5042730" lon="-100.6733880">
        <ele>2313.7</ele>
        <time>2022-08-20T14:58:42Z</time>
      </trkpt>
      <trkpt lat="25.5042620" lon="-100.6733620">
        <ele>2313.9</ele>
        <time>2022-08-20T14:58:43Z</time>
      </trkpt>
      <trkpt lat="25.5042520" lon="-100.6733430">
        <ele>2314.1</ele>
        <time>2022-08-20T14:58:45Z</time>
      </trkpt>
      <trkpt lat="25.5042360" lon="-100.6733160">
        <ele>2314.3</ele>
        <time>2022-08-20T14:58:46Z</time>
      </trkpt>
      <trkpt lat="25.5042290" lon="-100.6733070">
        <ele>2314.4</ele>
        <time>2022-08-20T14:58:47Z</time>
      </trkpt>
      <trkpt lat="25.5042130" lon="-100.6732790">
        <ele>2314.6</ele>
        <time>2022-08-20T14:58:49Z</time>
      </trkpt>
      <trkpt lat="25.5041800" lon="-100.6732510">
        <ele>2314.8</ele>
        <time>2022-08-20T14:58:51Z</time>
      </trkpt>
      <trkpt lat="25.5041530" lon="-100.6732330">
        <ele>2315.0</ele>
        <time>2022-08-20T14:58:52Z</time>
      </trkpt>
      <trkpt lat="25.5041450" lon="-100.6732330">
        <ele>2315.0</ele>
        <time>2022-08-20T14:58:53Z</time>
      </trkpt>
      <trkpt lat="25.5041310" lon="-100.6732260">
        <ele>2315.1</ele>
        <time>2022-08-20T14:58:54Z</time>
      </trkpt>
      <trkpt lat="25.5041190" lon="-100.6732290">
        <ele>2315.2</ele>
        <time>2022-08-20T14:58:55Z</time>
      </trkpt>
      <trkpt lat="25.5041110" lon="-100.6732340">
        <ele>2315.3</ele>
        <time>2022-08-20T14:58:56Z</time>
      </trkpt>
      <trkpt lat="25.5041010" lon="-100.6732330">
        <ele>2315.3</ele>
        <time>2022-08-20T14:58:57Z</time>
      </trkpt>
      <trkpt lat="25.5040980" lon="-100.6732300">
        <ele>2315.3</ele>
        <time>2022-08-20T14:58:58Z</time>
      </trkpt>
      <trkpt lat="25.5040950" lon="-100.6732260">
        <ele>2315.4</ele>
        <time>2022-08-20T14:58:59Z</time>
      </trkpt>
      <trkpt lat="25.5040920" lon="-100.6732220">
        <ele>2315.4</ele>
        <time>2022-08-20T14:59:00Z</time>
      </trkpt>
      <trkpt lat="25.5040890" lon="-100.6732190">
        <ele>2315.4</ele>
        <time>2022-08-20T14:59:02Z</time>
      </trkpt>
      <trkpt lat="25.5040860" lon="-100.6732150">
        <ele>2315.5</ele>
        <time>2022-08-20T14:59:03Z</time>
      </trkpt>
      <trkpt lat="25.5040830" lon="-100.6732120">
        <ele>2315.5</ele>
        <time>2022-08-20T14:59:04Z</time>
      </trkpt>
      <trkpt lat="25.5040800" lon="-100.6732080">
        <ele>2315.5</ele>
        <time>2022-08-20T14:59:05Z</time>
      </trkpt>
      <trkpt lat="25.5040600" lon="-100.6731860">
        <ele>2315.7</ele>
        <time>2022-08-20T14:59:06Z</time>
      </trkpt>
      <trkpt lat="25.5040510" lon="-100.6731790">
        <ele>2315.8</ele>
        <time>2022-08-20T14:59:07Z</time>
      </trkpt>
      <trkpt lat="25.5040320" lon="-100.6731560">
        <ele>2316.0</ele>
        <time>2022-08-20T14:59:08Z</time>
      </trkpt>
      <trkpt lat="25.5040250" lon="-100.6731470">
        <ele>2316.0</ele>
        <time>2022-08-20T14:59:09Z</time>
      </trkpt>
      <trkpt lat="25.5040120" lon="-100.6731340">
        <ele>2316.1</ele>
        <time>2022-08-20T14:59:10Z</time>
      </trkpt>
      <trkpt lat="25.5040020" lon="-100.6731230">
        <ele>2316.2</ele>
        <time>2022-08-20T14:59:11Z</time>
      </trkpt>
      <trkpt lat="25.5039860" lon="-100.6731050">
        <ele>2316.4</ele>
        <time>2022-08-20T14:59:12Z</time>
      </trkpt>
      <trkpt lat="25.5039810" lon="-100.6730960">
        <ele>2316.5</ele>
        <time>2022-08-20T14:59:13Z</time>
      </trkpt>
      <trkpt lat="25.5039750" lon="-100.6730870">
        <ele>2316.6</ele>
        <time>2022-08-20T14:59:14Z</time>
      </trkpt>
      <trkpt lat="25.5039470" lon="-100.6730610">
        <ele>2316.9</ele>
        <time>2022-08-20T14:59:15Z</time>
      </trkpt>
      <trkpt lat="25.5039380" lon="-100.6730530">
        <ele>2317.0</ele>
        <time>2022-08-20T14:59:16Z</time>
      </trkpt>
      <trkpt lat="25.5039120" lon="-100.6730280">
        <ele>2317.3</ele>
        <time>2022-08-20T14:59:17Z</time>
      </trkpt>
      <trkpt lat="25.5039030" lon="-100.6730210">
        <ele>2317.4</ele>
        <time>2022-08-20T14:59:18Z</time>
      </trkpt>
      <trkpt lat="25.5038860" lon="-100.6730090">
        <ele>2317.6</ele>
        <time>2022-08-20T14:59:19Z</time>
      </trkpt>
      <trkpt lat="25.5038800" lon="-100.6730050">
        <ele>2317.7</ele>
        <time>2022-08-20T14:59:20Z</time>
      </trkpt>
      <trkpt lat="25.5038470" lon="-100.6729760">
        <ele>2318.1</ele>
        <time>2022-08-20T14:59:22Z</time>
      </trkpt>
      <trkpt lat="25.5038360" lon="-100.6729680">
        <ele>2318.2</ele>
        <time>2022-08-20T14:59:23Z</time>
      </trkpt>
      <trkpt lat="25.5038240" lon="-100.6729600">
        <ele>2318.3</ele>
        <time>2022-08-20T14:59:24Z</time>
      </trkpt>
      <trkpt lat="25.5037970" lon="-100.6729480">
        <ele>2318.6</ele>
        <time>2022-08-20T14:59:25Z</time>
      </trkpt>
      <trkpt lat="25.5037880" lon="-100.6729430">
        <ele>2318.7</ele>
        <time>2022-08-20T14:59:26Z</time>
      </trkpt>
      <trkpt lat="25.5037740" lon="-100.6729320">
        <ele>2318.9</ele>
        <time>2022-08-20T14:59:28Z</time>
      </trkpt>
      <trkpt lat="25.5037560" lon="-100.6729290">
        <ele>2319.0</ele>
        <time>2022-08-20T14:59:29Z</time>
      </trkpt>
      <trkpt lat="25.5037430" lon="-100.6729250">
        <ele>2319.2</ele>
        <time>2022-08-20T14:59:30Z</time>
      </trkpt>
      <trkpt lat="25.5037250" lon="-100.6729180">
        <ele>2319.3</ele>
        <time>2022-08-20T14:59:31Z</time>
      </trkpt>
      <trkpt lat="25.5037090" lon="-100.6729080">
        <ele>2319.5</ele>
        <time>2022-08-20T14:59:32Z</time>
      </trkpt>
      <trkpt lat="25.5036900" lon="-100.6728950">
        <ele>2319.7</ele>
        <time>2022-08-20T14:59:34Z</time>
      </trkpt>
      <trkpt lat="25.5036600" lon="-100.6728800">
        <ele>2319.9</ele>
        <time>2022-08-20T14:59:35Z</time>
      </trkpt>
      <trkpt lat="25.5036490" lon="-100.6728760">
        <ele>2320.0</ele>
        <time>2022-08-20T14:59:36Z</time>
      </trkpt>
      <trkpt lat="25.5036150" lon="-100.6728610">
        <ele>2320.3</ele>
        <time>2022-08-20T14:59:37Z</time>
      </trkpt>
      <trkpt lat="25.5036020" lon="-100.6728550">
        <ele>2320.4</ele>
        <time>2022-08-20T14:59:38Z</time>
      </trkpt>
      <trkpt lat="25.5035720" lon="-100.6728360">
        <ele>2320.6</ele>
        <time>2022-08-20T14:59:40Z</time>
      </trkpt>
      <trkpt lat="25.5035630" lon="-100.6728300">
        <ele>2320.7</ele>
        <time>2022-08-20T14:59:41Z</time>
      </trkpt>
      <trkpt lat="25.5035300" lon="-100.6728200">
        <ele>2321.0</ele>
        <time>2022-08-20T14:59:42Z</time>
      </trkpt>
      <trkpt lat="25.5035230" lon="-100.6728180">
        <ele>2321.0</ele>
        <time>2022-08-20T14:59:43Z</time>
      </trkpt>
      <trkpt lat="25.5034980" lon="-100.6728040">
        <ele>2321.2</ele>
        <time>2022-08-20T14:59:44Z</time>
      </trkpt>
      <trkpt lat="25.5034900" lon="-100.6727990">
        <ele>2321.3</ele>
        <time>2022-08-20T14:59:45Z</time>
      </trkpt>
      <trkpt lat="25.5034750" lon="-100.6727870">
        <ele>2321.4</ele>
        <time>2022-08-20T14:59:46Z</time>
      </trkpt>
      <trkpt lat="25.5034610" lon="-100.6727790">
        <ele>2321.5</ele>
        <time>2022-08-20T14:59:47Z</time>
      </trkpt>
      <trkpt lat="25.5034220" lon="-100.6727500">
        <ele>2321.8</ele>
        <time>2022-08-20T14:59:49Z</time>
      </trkpt>
      <trkpt lat="25.5034110" lon="-100.6727430">
        <ele>2321.9</ele>
        <time>2022-08-20T14:59:51Z</time>
      </trkpt>
      <trkpt lat="25.5034010" lon="-100.6727360">
        <ele>2322.0</ele>
        <time>2022-08-20T14:59:52Z</time>
      </trkpt>
      <trkpt lat="25.5033710" lon="-100.6727210">
        <ele>2322.2</ele>
        <time>2022-08-20T14:59:53Z</time>
      </trkpt>
      <trkpt lat="25.5033610" lon="-100.6727180">
        <ele>2322.3</ele>
        <time>2022-08-20T14:59:54Z</time>
      </trkpt>
      <trkpt lat="25.5033290" lon="-100.6727030">
        <ele>2322.5</ele>
        <time>2022-08-20T14:59:55Z</time>
      </trkpt>
      <trkpt lat="25.5033120" lon="-100.6726890">
        <ele>2322.7</ele>
        <time>2022-08-20T14:59:56Z</time>
      </trkpt>
      <trkpt lat="25.5033040" lon="-100.6726670">
        <ele>2322.8</ele>
        <time>2022-08-20T14:59:58Z</time>
      </trkpt>
      <trkpt lat="25.5032890" lon="-100.6726410">
        <ele>2323.0</ele>
        <time>2022-08-20T14:59:59Z</time>
      </trkpt>
      <trkpt lat="25.5032820" lon="-100.6726340">
        <ele>2323.1</ele>
        <time>2022-08-20T15:00:00Z</time>
      </trkpt>
      <trkpt lat="25.5032560" lon="-100.6726150">
        <ele>2323.4</ele>
        <time>2022-08-20T15:00:01Z</time>
      </trkpt>
      <trkpt lat="25.5032500" lon="-100.6726140">
        <ele>2323.4</ele>
        <time>2022-08-20T15:00:02Z</time>
      </trkpt>
      <trkpt lat="25.5032360" lon="-100.6726000">
        <ele>2323.6</ele>
        <time>2022-08-20T15:00:04Z</time>
      </trkpt>
      <trkpt lat="25.5032260" lon="-100.6725850">
        <ele>2323.7</ele>
        <time>2022-08-20T15:00:05Z</time>
      </trkpt>
      <trkpt lat="25.5032170" lon="-100.6725690">
        <ele>2323.9</ele>
        <time>2022-08-20T15:00:06Z</time>
      </trkpt>
      <trkpt lat="25.5032070" lon="-100.6725550">
        <ele>2324.0</ele>
        <time>2022-08-20T15:00:07Z</time>
      </trkpt>
      <trkpt lat="25.5031950" lon="-100.6725440">
        <ele>2324.1</ele>
        <time>2022-08-20T15:00:08Z</time>
      </trkpt>
      <trkpt lat="25.5031970" lon="-100.6725240">
        <ele>2324.3</ele>
        <time>2022-08-20T15:00:09Z</time>
      </trkpt>
      <trkpt lat="25.5031880" lon="-100.6724870">
        <ele>2324.6</ele>
        <time>2022-08-20T15:00:11Z</time>
      </trkpt>
      <trkpt lat="25.5031800" lon="-100.6724750">
        <ele>2324.8</ele>
        <time>2022-08-20T15:00:12Z</time>
      </trkpt>
      <trkpt lat="25.5031710" lon="-100.6724640">
        <ele>2324.9</ele>
        <time>2022-08-20T15:00:14Z</time>
      </trkpt>
      <trkpt lat="25.5031660" lon="-100.6724590">
        <ele>2324.9</ele>
        <time>2022-08-20T15:00:15Z</time>
      </trkpt>
      <trkpt lat="25.5031590" lon="-100.6724550">
        <ele>2325.0</ele>
        <time>2022-08-20T15:00:16Z</time>
      </trkpt>
      <trkpt lat="25.5031530" lon="-100.6724450">
        <ele>2325.1</ele>
        <time>2022-08-20T15:00:17Z</time>
      </trkpt>
      <trkpt lat="25.5031460" lon="-100.6724330">
        <ele>2325.2</ele>
        <time>2022-08-20T15:00:18Z</time>
      </trkpt>
      <trkpt lat="25.5031360" lon="-100.6724230">
        <ele>2325.4</ele>
        <time>2022-08-20T15:00:19Z</time>
      </trkpt>
      <trkpt lat="25.5031060" lon="-100.6723890">
        <ele>2325.8</ele>
        <time>2022-08-20T15:00:21Z</time>
      </trkpt>
      <trkpt lat="25.5030930" lon="-100.6723780">
        <ele>2325.9</ele>
        <time>2022-08-20T15:00:22Z</time>
      </trkpt>
      <trkpt lat="25.5030770" lon="-100.6723710">
        <ele>2326.1</ele>
        <time>2022-08-20T15:00:24Z</time>
      </trkpt>
      <trkpt lat="25.5030680" lon="-100.6723610">
        <ele>2326.2</ele>
        <time>2022-08-20T15:00:25Z</time>
      </trkpt>
      <trkpt lat="25.5030610" lon="-100.6723550">
        <ele>2326.3</ele>
        <time>2022-08-20T15:00:26Z</time>
      </trkpt>
      <trkpt lat="25.5030520" lon="-100.6723450">
        <ele>2326.3</ele>
        <time>2022-08-20T15:00:28Z</time>
      </trkpt>
      <trkpt lat="25.5030460" lon="-100.6723340">
        <ele>2326.3</ele>
        <time>2022-08-20T15:00:29Z</time>
      </trkpt>
      <trkpt lat="25.5030360" lon="-100.6723160">
        <ele>2326.2</ele>
        <time>2022-08-20T15:00:30Z</time>
      </trkpt>
      <trkpt lat="25.5030150" lon="-100.6722920">
        <ele>2326.2</ele>
        <time>2022-08-20T15:00:32Z</time>
      </trkpt>
      <trkpt lat="25.5029860" lon="-100.6722730">
        <ele>2326.2</ele>
        <time>2022-08-20T15:00:33Z</time>
      </trkpt>
      <trkpt lat="25.5029690" lon="-100.6722570">
        <ele>2326.1</ele>
        <time>2022-08-20T15:00:34Z</time>
      </trkpt>
      <trkpt lat="25.5029490" lon="-100.6722390">
        <ele>2326.1</ele>
        <time>2022-08-20T15:00:36Z</time>
      </trkpt>
      <trkpt lat="25.5029260" lon="-100.6722220">
        <ele>2326.0</ele>
        <time>2022-08-20T15:00:37Z</time>
      </trkpt>
      <trkpt lat="25.5029020" lon="-100.6722050">
        <ele>2325.9</ele>
        <time>2022-08-20T15:00:38Z</time>
      </trkpt>
      <trkpt lat="25.5028710" lon="-100.6721810">
        <ele>2325.7</ele>
        <time>2022-08-20T15:00:39Z</time>
      </trkpt>
      <trkpt lat="25.5027330" lon="-100.6720680">
        <ele>2325.0</ele>
        <time>2022-08-20T15:00:41Z</time>
      </trkpt>
      <trkpt lat="25.5026840" lon="-100.6720270">
        <ele>2324.8</ele>
        <time>2022-08-20T15:00:42Z</time>
      </trkpt>
      <trkpt lat="25.5026410" lon="-100.6719930">
        <ele>2324.6</ele>
        <time>2022-08-20T15:00:43Z</time>
      </trkpt>
      <trkpt lat="25.5025990" lon="-100.6719650">
        <ele>2324.5</ele>
        <time>2022-08-20T15:00:44Z</time>
      </trkpt>
      <trkpt lat="25.5025610" lon="-100.6719460">
        <ele>2324.4</ele>
        <time>2022-08-20T15:00:45Z</time>
      </trkpt>
      <trkpt lat="25.5025260" lon="-100.6719220">
        <ele>2324.3</ele>
        <time>2022-08-20T15:00:46Z</time>
      </trkpt>
      <trkpt lat="25.5024980" lon="-100.6719120">
        <ele>2324.2</ele>
        <time>2022-08-20T15:00:47Z</time>
      </trkpt>
      <trkpt lat="25.5024530" lon="-100.6718970">
        <ele>2324.1</ele>
        <time>2022-08-20T15:00:49Z</time>
      </trkpt>
      <trkpt lat="25.5024140" lon="-100.6718790">
        <ele>2324.1</ele>
        <time>2022-08-20T15:00:50Z</time>
      </trkpt>
      <trkpt lat="25.5023820" lon="-100.6718600">
        <ele>2324.0</ele>
        <time>2022-08-20T15:00:51Z</time>
      </trkpt>
      <trkpt lat="25.5023440" lon="-100.6718420">
        <ele>2323.9</ele>
        <time>2022-08-20T15:00:52Z</time>
      </trkpt>
      <trkpt lat="25.5023100" lon="-100.6718300">
        <ele>2323.9</ele>
        <time>2022-08-20T15:00:53Z</time>
      </trkpt>
      <trkpt lat="25.5022800" lon="-100.6718130">
        <ele>2323.8</ele>
        <time>2022-08-20T15:00:54Z</time>
      </trkpt>
      <trkpt lat="25.5022460" lon="-100.6717980">
        <ele>2323.8</ele>
        <time>2022-08-20T15:00:55Z</time>
      </trkpt>
      <trkpt lat="25.5022060" lon="-100.6717760">
        <ele>2323.7</ele>
        <time>2022-08-20T15:00:56Z</time>
      </trkpt>
      <trkpt lat="25.5021720" lon="-100.6717600">
        <ele>2323.7</ele>
        <time>2022-08-20T15:00:57Z</time>
      </trkpt>
      <trkpt lat="25.5021380" lon="-100.6717400">
        <ele>2323.6</ele>
        <time>2022-08-20T15:00:58Z</time>
      </trkpt>
      <trkpt lat="25.5021030" lon="-100.6717140">
        <ele>2323.6</ele>
        <time>2022-08-20T15:00:59Z</time>
      </trkpt>
      <trkpt lat="25.5020760" lon="-100.6716940">
        <ele>2323.6</ele>
        <time>2022-08-20T15:01:00Z</time>
      </trkpt>
      <trkpt lat="25.5020480" lon="-100.6716780">
        <ele>2323.6</ele>
        <time>2022-08-20T15:01:01Z</time>
      </trkpt>
      <trkpt lat="25.5020330" lon="-100.6716710">
        <ele>2323.6</ele>
        <time>2022-08-20T15:01:02Z</time>
      </trkpt>
      <trkpt lat="25.5020220" lon="-100.6716640">
        <ele>2323.5</ele>
        <time>2022-08-20T15:01:04Z</time>
      </trkpt>
      <trkpt lat="25.5020110" lon="-100.6716580">
        <ele>2323.5</ele>
        <time>2022-08-20T15:01:05Z</time>
      </trkpt>
      <trkpt lat="25.5020000" lon="-100.6716520">
        <ele>2323.5</ele>
        <time>2022-08-20T15:01:06Z</time>
      </trkpt>
      <trkpt lat="25.5019430" lon="-100.6716290">
        <ele>2323.5</ele>
        <time>2022-08-20T15:01:07Z</time>
      </trkpt>
      <trkpt lat="25.5018840" lon="-100.6716050">
        <ele>2323.4</ele>
        <time>2022-08-20T15:01:08Z</time>
      </trkpt>
      <trkpt lat="25.5017640" lon="-100.6715640">
        <ele>2323.2</ele>
        <time>2022-08-20T15:01:10Z</time>
      </trkpt>
      <trkpt lat="25.5017020" lon="-100.6715400">
        <ele>2323.1</ele>
        <time>2022-08-20T15:01:11Z</time>
      </trkpt>
      <trkpt lat="25.5016240" lon="-100.6714980">
        <ele>2323.1</ele>
        <time>2022-08-20T15:01:12Z</time>
      </trkpt>
      <trkpt lat="25.5015620" lon="-100.6714530">
        <ele>2323.1</ele>
        <time>2022-08-20T15:01:14Z</time>
      </trkpt>
      <trkpt lat="25.5015220" lon="-100.6714400">
        <ele>2323.1</ele>
        <time>2022-08-20T15:01:16Z</time>
      </trkpt>
      <trkpt lat="25.5014680" lon="-100.6714200">
        <ele>2323.2</ele>
        <time>2022-08-20T15:01:17Z</time>
      </trkpt>
      <trkpt lat="25.5014320" lon="-100.6714110">
        <ele>2323.3</ele>
        <time>2022-08-20T15:01:18Z</time>
      </trkpt>
      <trkpt lat="25.5013840" lon="-100.6713970">
        <ele>2323.5</ele>
        <time>2022-08-20T15:01:20Z</time>
      </trkpt>
      <trkpt lat="25.5013490" lon="-100.6713830">
        <ele>2323.7</ele>
        <time>2022-08-20T15:01:21Z</time>
      </trkpt>
      <trkpt lat="25.5013190" lon="-100.6713700">
        <ele>2323.8</ele>
        <time>2022-08-20T15:01:22Z</time>
      </trkpt>
      <trkpt lat="25.5012890" lon="-100.6713590">
        <ele>2324.0</ele>
        <time>2022-08-20T15:01:23Z</time>
      </trkpt>
      <trkpt lat="25.5012580" lon="-100.6713510">
        <ele>2324.1</ele>
        <time>2022-08-20T15:01:24Z</time>
      </trkpt>
      <trkpt lat="25.5012200" lon="-100.6713360">
        <ele>2324.3</ele>
        <time>2022-08-20T15:01:25Z</time>
      </trkpt>
      <trkpt lat="25.5011960" lon="-100.6713230">
        <ele>2324.4</ele>
        <time>2022-08-20T15:01:26Z</time>
      </trkpt>
      <trkpt lat="25.5011790" lon="-100.6713160">
        <ele>2324.5</ele>
        <time>2022-08-20T15:01:28Z</time>
      </trkpt>
      <trkpt lat="25.5011500" lon="-100.6713050">
        <ele>2324.7</ele>
        <time>2022-08-20T15:01:29Z</time>
      </trkpt>
      <trkpt lat="25.5011330" lon="-100.6712990">
        <ele>2324.7</ele>
        <time>2022-08-20T15:01:30Z</time>
      </trkpt>
      <trkpt lat="25.5010770" lon="-100.6712730">
        <ele>2325.0</ele>
        <time>2022-08-20T15:01:31Z</time>
      </trkpt>
      <trkpt lat="25.5010390" lon="-100.6712540">
        <ele>2325.2</ele>
        <time>2022-08-20T15:01:33Z</time>
      </trkpt>
      <trkpt lat="25.5010000" lon="-100.6712330">
        <ele>2325.3</ele>
        <time>2022-08-20T15:01:34Z</time>
      </trkpt>
      <trkpt lat="25.5009370" lon="-100.6712060">
        <ele>2325.6</ele>
        <time>2022-08-20T15:01:36Z</time>
      </trkpt>
      <trkpt lat="25.5009100" lon="-100.6711950">
        <ele>2325.6</ele>
        <time>2022-08-20T15:01:37Z</time>
      </trkpt>
      <trkpt lat="25.5008790" lon="-100.6711840">
        <ele>2325.7</ele>
        <time>2022-08-20T15:01:38Z</time>
      </trkpt>
      <trkpt lat="25.5008450" lon="-100.6711660">
        <ele>2325.8</ele>
        <time>2022-08-20T15:01:39Z</time>
      </trkpt>
      <trkpt lat="25.5007980" lon="-100.6711360">
        <ele>2325.9</ele>
        <time>2022-08-20T15:01:40Z</time>
      </trkpt>
      <trkpt lat="25.5007610" lon="-100.6711110">
        <ele>2325.9</ele>
        <time>2022-08-20T15:01:41Z</time>
      </trkpt>
      <trkpt lat="25.5007180" lon="-100.6710780">
        <ele>2326.0</ele>
        <time>2022-08-20T15:01:42Z</time>
      </trkpt>
      <trkpt lat="25.5006770" lon="-100.6710510">
        <ele>2326.0</ele>
        <time>2022-08-20T15:01:44Z</time>
      </trkpt>
      <trkpt lat="25.5006450" lon="-100.6710200">
        <ele>2326.0</ele>
        <time>2022-08-20T15:01:45Z</time>
      </trkpt>
      <trkpt lat="25.5006030" lon="-100.6709790">
        <ele>2325.9</ele>
        <time>2022-08-20T15:01:46Z</time>
      </trkpt>
      <trkpt lat="25.5005660" lon="-100.6709520">
        <ele>2325.9</ele>
        <time>2022-08-20T15:01:47Z</time>
      </trkpt>
      <trkpt lat="25.5004930" lon="-100.6709090">
        <ele>2325.8</ele>
        <time>2022-08-20T15:01:49Z</time>
      </trkpt>
      <trkpt lat="25.5004430" lon="-100.6708930">
        <ele>2325.8</ele>
        <time>2022-08-20T15:01:50Z</time>
      </trkpt>
      <trkpt lat="25.5003970" lon="-100.6708950">
        <ele>2325.8</ele>
        <time>2022-08-20T15:01:51Z</time>
      </trkpt>
      <trkpt lat="25.5003760" lon="-100.6709240">
        <ele>2325.9</ele>
        <time>2022-08-20T15:01:52Z</time>
      </trkpt>
      <trkpt lat="25.5003620" lon="-100.6709650">
        <ele>2326.0</ele>
        <time>2022-08-20T15:01:53Z</time>
      </trkpt>
      <trkpt lat="25.5003550" lon="-100.6709900">
        <ele>2326.1</ele>
        <time>2022-08-20T15:01:54Z</time>
      </trkpt>
      <trkpt lat="25.5003480" lon="-100.6710010">
        <ele>2326.2</ele>
        <time>2022-08-20T15:01:55Z</time>
      </trkpt>
      <trkpt lat="25.5003430" lon="-100.6710090">
        <ele>2326.3</ele>
        <time>2022-08-20T15:01:56Z</time>
      </trkpt>
      <trkpt lat="25.5003320" lon="-100.6710200">
        <ele>2326.3</ele>
        <time>2022-08-20T15:01:57Z</time>
      </trkpt>
      <trkpt lat="25.5003100" lon="-100.6710470">
        <ele>2326.6</ele>
        <time>2022-08-20T15:01:59Z</time>
      </trkpt>
      <trkpt lat="25.5002890" lon="-100.6710670">
        <ele>2326.8</ele>
        <time>2022-08-20T15:02:00Z</time>
      </trkpt>
      <trkpt lat="25.5002810" lon="-100.6710740">
        <ele>2326.8</ele>
        <time>2022-08-20T15:02:01Z</time>
      </trkpt>
      <trkpt lat="25.5002620" lon="-100.6710840">
        <ele>2327.0</ele>
        <time>2022-08-20T15:02:02Z</time>
      </trkpt>
      <trkpt lat="25.5002300" lon="-100.6710860">
        <ele>2327.3</ele>
        <time>2022-08-20T15:02:04Z</time>
      </trkpt>
      <trkpt lat="25.5001970" lon="-100.6710770">
        <ele>2327.6</ele>
        <time>2022-08-20T15:02:05Z</time>
      </trkpt>
      <trkpt lat="25.5001790" lon="-100.6710670">
        <ele>2327.7</ele>
        <time>2022-08-20T15:02:07Z</time>
      </trkpt>
      <trkpt lat="25.5001740" lon="-100.6710520">
        <ele>2327.9</ele>
        <time>2022-08-20T15:02:08Z</time>
      </trkpt>
      <trkpt lat="25.5001620" lon="-100.6710420">
        <ele>2328.0</ele>
        <time>2022-08-20T15:02:09Z</time>
      </trkpt>
      <trkpt lat="25.5001510" lon="-100.6710250">
        <ele>2328.2</ele>
        <time>2022-08-20T15:02:10Z</time>
      </trkpt>
      <trkpt lat="25.5001230" lon="-100.6710020">
        <ele>2328.5</ele>
        <time>2022-08-20T15:02:11Z</time>
      </trkpt>
      <trkpt lat="25.5001150" lon="-100.6709950">
        <ele>2328.5</ele>
        <time>2022-08-20T15:02:12Z</time>
      </trkpt>
      <trkpt lat="25.5000850" lon="-100.6709510">
        <ele>2329.0</ele>
        <time>2022-08-20T15:02:14Z</time>
      </trkpt>
      <trkpt lat="25.5000770" lon="-100.6709370">
        <ele>2329.1</ele>
        <time>2022-08-20T15:02:15Z</time>
      </trkpt>
      <trkpt lat="25.5000700" lon="-100.6709230">
        <ele>2329.2</ele>
        <time>2022-08-20T15:02:16Z</time>
      </trkpt>
      <trkpt lat="25.5000250" lon="-100.6709010">
        <ele>2329.5</ele>
        <time>2022-08-20T15:02:18Z</time>
      </trkpt>
      <trkpt lat="25.5000120" lon="-100.6708970">
        <ele>2329.6</ele>
        <time>2022-08-20T15:02:19Z</time>
      </trkpt>
      <trkpt lat="25.4999990" lon="-100.6708940">
        <ele>2329.7</ele>
        <time>2022-08-20T15:02:20Z</time>
      </trkpt>
      <trkpt lat="25.4999720" lon="-100.6708990">
        <ele>2329.9</ele>
        <time>2022-08-20T15:02:22Z</time>
      </trkpt>
      <trkpt lat="25.4999380" lon="-100.6709160">
        <ele>2330.2</ele>
        <time>2022-08-20T15:02:23Z</time>
      </trkpt>
      <trkpt lat="25.4999000" lon="-100.6709420">
        <ele>2330.6</ele>
        <time>2022-08-20T15:02:25Z</time>
      </trkpt>
      <trkpt lat="25.4998890" lon="-100.6709470">
        <ele>2330.8</ele>
        <time>2022-08-20T15:02:26Z</time>
      </trkpt>
      <trkpt lat="25.4998780" lon="-100.6709510">
        <ele>2330.9</ele>
        <time>2022-08-20T15:02:27Z</time>
      </trkpt>
      <trkpt lat="25.4998620" lon="-100.6709490">
        <ele>2331.0</ele>
        <time>2022-08-20T15:02:28Z</time>
      </trkpt>
      <trkpt lat="25.4998490" lon="-100.6709500">
        <ele>2331.2</ele>
        <time>2022-08-20T15:02:29Z</time>
      </trkpt>
      <trkpt lat="25.4998340" lon="-100.6709460">
        <ele>2331.3</ele>
        <time>2022-08-20T15:02:30Z</time>
      </trkpt>
      <trkpt lat="25.4998130" lon="-100.6709430">
        <ele>2331.6</ele>
        <time>2022-08-20T15:02:32Z</time>
      </trkpt>
      <trkpt lat="25.4997830" lon="-100.6709370">
        <ele>2331.9</ele>
        <time>2022-08-20T15:02:33Z</time>
      </trkpt>
      <trkpt lat="25.4997480" lon="-100.6709150">
        <ele>2332.4</ele>
        <time>2022-08-20T15:02:35Z</time>
      </trkpt>
      <trkpt lat="25.4997370" lon="-100.6709070">
        <ele>2332.5</ele>
        <time>2022-08-20T15:02:36Z</time>
      </trkpt>
      <trkpt lat="25.4997110" lon="-100.6708750">
        <ele>2333.0</ele>
        <time>2022-08-20T15:02:37Z</time>
      </trkpt>
      <trkpt lat="25.4996840" lon="-100.6708470">
        <ele>2333.4</ele>
        <time>2022-08-20T15:02:39Z</time>
      </trkpt>
      <trkpt lat="25.4996700" lon="-100.6708160">
        <ele>2333.7</ele>
        <time>2022-08-20T15:02:40Z</time>
      </trkpt>
      <trkpt lat="25.4996640" lon="-100.6708080">
        <ele>2333.8</ele>
        <time>2022-08-20T15:02:41Z</time>
      </trkpt>
      <trkpt lat="25.4996500" lon="-100.6707840">
        <ele>2334.1</ele>
        <time>2022-08-20T15:02:42Z</time>
      </trkpt>
      <trkpt lat="25.4996440" lon="-100.6707620">
        <ele>2334.4</ele>
        <time>2022-08-20T15:02:44Z</time>
      </trkpt>
      <trkpt lat="25.4996370" lon="-100.6707300">
        <ele>2334.7</ele>
        <time>2022-08-20T15:02:45Z</time>
      </trkpt>
      <trkpt lat="25.4996350" lon="-100.6707200">
        <ele>2334.8</ele>
        <time>2022-08-20T15:02:46Z</time>
      </trkpt>
      <trkpt lat="25.4996380" lon="-100.6706880">
        <ele>2335.2</ele>
        <time>2022-08-20T15:02:48Z</time>
      </trkpt>
      <trkpt lat="25.4996360" lon="-100.6706700">
        <ele>2335.3</ele>
        <time>2022-08-20T15:02:49Z</time>
      </trkpt>
      <trkpt lat="25.4996310" lon="-100.6706390">
        <ele>2335.6</ele>
        <time>2022-08-20T15:02:51Z</time>
      </trkpt>
      <trkpt lat="25.4996290" lon="-100.6705990">
        <ele>2336.0</ele>
        <time>2022-08-20T15:02:52Z</time>
      </trkpt>
      <trkpt lat="25.4996280" lon="-100.6705850">
        <ele>2336.2</ele>
        <time>2022-08-20T15:02:53Z</time>
      </trkpt>
      <trkpt lat="25.4996320" lon="-100.6705370">
        <ele>2336.7</ele>
        <time>2022-08-20T15:02:55Z</time>
      </trkpt>
      <trkpt lat="25.4996380" lon="-100.6705170">
        <ele>2337.4</ele>
        <time>2022-08-20T15:02:56Z</time>
      </trkpt>
      <trkpt lat="25.4996410" lon="-100.6704970">
        <ele>2337.5</ele>
        <time>2022-08-20T15:02:58Z</time>
      </trkpt>
      <trkpt lat="25.4996360" lon="-100.6704660">
        <ele>2337.7</ele>
        <time>2022-08-20T15:02:59Z</time>
      </trkpt>
      <trkpt lat="25.4996330" lon="-100.6704570">
        <ele>2337.7</ele>
        <time>2022-08-20T15:03:00Z</time>
      </trkpt>
      <trkpt lat="25.4996290" lon="-100.6704440">
        <ele>2337.8</ele>
        <time>2022-08-20T15:03:01Z</time>
      </trkpt>
      <trkpt lat="25.4996180" lon="-100.6704320">
        <ele>2337.9</ele>
        <time>2022-08-20T15:03:02Z</time>
      </trkpt>
      <trkpt lat="25.4996020" lon="-100.6704190">
        <ele>2338.1</ele>
        <time>2022-08-20T15:03:04Z</time>
      </trkpt>
      <trkpt lat="25.4995730" lon="-100.6704080">
        <ele>2338.3</ele>
        <time>2022-08-20T15:03:05Z</time>
      </trkpt>
      <trkpt lat="25.4995610" lon="-100.6704040">
        <ele>2338.4</ele>
        <time>2022-08-20T15:03:06Z</time>
      </trkpt>
      <trkpt lat="25.4995310" lon="-100.6704110">
        <ele>2338.6</ele>
        <time>2022-08-20T15:03:07Z</time>
      </trkpt>
      <trkpt lat="25.4995220" lon="-100.6704210">
        <ele>2338.8</ele>
        <time>2022-08-20T15:03:08Z</time>
      </trkpt>
      <trkpt lat="25.4994970" lon="-100.6704480">
        <ele>2339.0</ele>
        <time>2022-08-20T15:03:09Z</time>
      </trkpt>
      <trkpt lat="25.4994870" lon="-100.6704560">
        <ele>2339.2</ele>
        <time>2022-08-20T15:03:10Z</time>
      </trkpt>
      <trkpt lat="25.4994570" lon="-100.6704750">
        <ele>2339.4</ele>
        <time>2022-08-20T15:03:11Z</time>
      </trkpt>
      <trkpt lat="25.4994460" lon="-100.6704800">
        <ele>2339.5</ele>
        <time>2022-08-20T15:03:12Z</time>
      </trkpt>
      <trkpt lat="25.4994230" lon="-100.6704890">
        <ele>2339.7</ele>
        <time>2022-08-20T15:03:13Z</time>
      </trkpt>
      <trkpt lat="25.4993990" lon="-100.6704970">
        <ele>2340.0</ele>
        <time>2022-08-20T15:03:15Z</time>
      </trkpt>
      <trkpt lat="25.4993750" lon="-100.6705100">
        <ele>2340.2</ele>
        <time>2022-08-20T15:03:16Z</time>
      </trkpt>
      <trkpt lat="25.4993440" lon="-100.6705140">
        <ele>2340.4</ele>
        <time>2022-08-20T15:03:17Z</time>
      </trkpt>
      <trkpt lat="25.4993340" lon="-100.6705140">
        <ele>2340.5</ele>
        <time>2022-08-20T15:03:18Z</time>
      </trkpt>
      <trkpt lat="25.4993050" lon="-100.6705030">
        <ele>2340.8</ele>
        <time>2022-08-20T15:03:19Z</time>
      </trkpt>
      <trkpt lat="25.4992960" lon="-100.6704990">
        <ele>2340.9</ele>
        <time>2022-08-20T15:03:20Z</time>
      </trkpt>
      <trkpt lat="25.4992680" lon="-100.6704890">
        <ele>2341.1</ele>
        <time>2022-08-20T15:03:21Z</time>
      </trkpt>
      <trkpt lat="25.4992590" lon="-100.6704860">
        <ele>2341.2</ele>
        <time>2022-08-20T15:03:22Z</time>
      </trkpt>
      <trkpt lat="25.4992460" lon="-100.6704800">
        <ele>2341.4</ele>
        <time>2022-08-20T15:03:24Z</time>
      </trkpt>
      <trkpt lat="25.4992310" lon="-100.6704670">
        <ele>2341.6</ele>
        <time>2022-08-20T15:03:25Z</time>
      </trkpt>
      <trkpt lat="25.4992060" lon="-100.6704460">
        <ele>2341.9</ele>
        <time>2022-08-20T15:03:26Z</time>
      </trkpt>
      <trkpt lat="25.4991970" lon="-100.6704400">
        <ele>2342.0</ele>
        <time>2022-08-20T15:03:27Z</time>
      </trkpt>
      <trkpt lat="25.4991720" lon="-100.6704210">
        <ele>2342.3</ele>
        <time>2022-08-20T15:03:28Z</time>
      </trkpt>
      <trkpt lat="25.4991630" lon="-100.6704150">
        <ele>2342.4</ele>
        <time>2022-08-20T15:03:29Z</time>
      </trkpt>
      <trkpt lat="25.4991240" lon="-100.6703960">
        <ele>2342.9</ele>
        <time>2022-08-20T15:03:31Z</time>
      </trkpt>
      <trkpt lat="25.4991100" lon="-100.6703840">
        <ele>2343.1</ele>
        <time>2022-08-20T15:03:32Z</time>
      </trkpt>
      <trkpt lat="25.4991030" lon="-100.6703710">
        <ele>2343.3</ele>
        <time>2022-08-20T15:03:34Z</time>
      </trkpt>
      <trkpt lat="25.4990900" lon="-100.6703620">
        <ele>2343.5</ele>
        <time>2022-08-20T15:03:35Z</time>
      </trkpt>
      <trkpt lat="25.4990770" lon="-100.6703520">
        <ele>2343.7</ele>
        <time>2022-08-20T15:03:36Z</time>
      </trkpt>
      <trkpt lat="25.4990640" lon="-100.6703440">
        <ele>2343.9</ele>
        <time>2022-08-20T15:03:37Z</time>
      </trkpt>
      <trkpt lat="25.4990530" lon="-100.6703320">
        <ele>2344.1</ele>
        <time>2022-08-20T15:03:39Z</time>
      </trkpt>
      <trkpt lat="25.4990420" lon="-100.6703230">
        <ele>2344.2</ele>
        <time>2022-08-20T15:03:40Z</time>
      </trkpt>
      <trkpt lat="25.4990280" lon="-100.6703110">
        <ele>2344.4</ele>
        <time>2022-08-20T15:03:41Z</time>
      </trkpt>
      <trkpt lat="25.4990050" lon="-100.6702860">
        <ele>2344.9</ele>
        <time>2022-08-20T15:03:42Z</time>
      </trkpt>
      <trkpt lat="25.4989960" lon="-100.6702750">
        <ele>2345.0</ele>
        <time>2022-08-20T15:03:44Z</time>
      </trkpt>
      <trkpt lat="25.4989860" lon="-100.6702640">
        <ele>2345.2</ele>
        <time>2022-08-20T15:03:45Z</time>
      </trkpt>
      <trkpt lat="25.4989760" lon="-100.6702530">
        <ele>2345.4</ele>
        <time>2022-08-20T15:03:46Z</time>
      </trkpt>
      <trkpt lat="25.4989550" lon="-100.6702330">
        <ele>2345.7</ele>
        <time>2022-08-20T15:03:47Z</time>
      </trkpt>
      <trkpt lat="25.4989480" lon="-100.6702270">
        <ele>2345.9</ele>
        <time>2022-08-20T15:03:48Z</time>
      </trkpt>
      <trkpt lat="25.4989340" lon="-100.6702150">
        <ele>2346.1</ele>
        <time>2022-08-20T15:03:49Z</time>
      </trkpt>
      <trkpt lat="25.4989230" lon="-100.6702030">
        <ele>2346.3</ele>
        <time>2022-08-20T15:03:50Z</time>
      </trkpt>
      <trkpt lat="25.4989100" lon="-100.6701920">
        <ele>2346.5</ele>
        <time>2022-08-20T15:03:51Z</time>
      </trkpt>
      <trkpt lat="25.4988940" lon="-100.6701810">
        <ele>2346.8</ele>
        <time>2022-08-20T15:03:52Z</time>
      </trkpt>
      <trkpt lat="25.4988720" lon="-100.6701570">
        <ele>2347.2</ele>
        <time>2022-08-20T15:03:53Z</time>
      </trkpt>
      <trkpt lat="25.4988670" lon="-100.6701520">
        <ele>2347.3</ele>
        <time>2022-08-20T15:03:54Z</time>
      </trkpt>
      <trkpt lat="25.4988450" lon="-100.6701300">
        <ele>2347.7</ele>
        <time>2022-08-20T15:03:56Z</time>
      </trkpt>
      <trkpt lat="25.4988390" lon="-100.6701230">
        <ele>2347.8</ele>
        <time>2022-08-20T15:03:57Z</time>
      </trkpt>
      <trkpt lat="25.4988220" lon="-100.6700960">
        <ele>2348.2</ele>
        <time>2022-08-20T15:03:58Z</time>
      </trkpt>
      <trkpt lat="25.4988160" lon="-100.6700910">
        <ele>2348.3</ele>
        <time>2022-08-20T15:03:59Z</time>
      </trkpt>
      <trkpt lat="25.4987960" lon="-100.6700740">
        <ele>2348.7</ele>
        <time>2022-08-20T15:04:00Z</time>
      </trkpt>
      <trkpt lat="25.4987800" lon="-100.6700540">
        <ele>2349.0</ele>
        <time>2022-08-20T15:04:02Z</time>
      </trkpt>
      <trkpt lat="25.4987820" lon="-100.6700580">
        <ele>2349.1</ele>
        <time>2022-08-20T15:04:03Z</time>
      </trkpt>
      <trkpt lat="25.4987750" lon="-100.6700520">
        <ele>2349.2</ele>
        <time>2022-08-20T15:04:04Z</time>
      </trkpt>
      <trkpt lat="25.4987690" lon="-100.6700470">
        <ele>2349.3</ele>
        <time>2022-08-20T15:04:05Z</time>
      </trkpt>
      <trkpt lat="25.4987620" lon="-100.6700410">
        <ele>2349.4</ele>
        <time>2022-08-20T15:04:07Z</time>
      </trkpt>
      <trkpt lat="25.4987560" lon="-100.6700360">
        <ele>2349.5</ele>
        <time>2022-08-20T15:04:08Z</time>
      </trkpt>
      <trkpt lat="25.4987490" lon="-100.6700300">
        <ele>2349.6</ele>
        <time>2022-08-20T15:04:09Z</time>
      </trkpt>
      <trkpt lat="25.4987260" lon="-100.6700050">
        <ele>2350.1</ele>
        <time>2022-08-20T15:04:10Z</time>
      </trkpt>
      <trkpt lat="25.4987190" lon="-100.6699930">
        <ele>2350.3</ele>
        <time>2022-08-20T15:04:11Z</time>
      </trkpt>
      <trkpt lat="25.4987070" lon="-100.6699740">
        <ele>2350.6</ele>
        <time>2022-08-20T15:04:12Z</time>
      </trkpt>
      <trkpt lat="25.4986950" lon="-100.6699610">
        <ele>2350.8</ele>
        <time>2022-08-20T15:04:14Z</time>
      </trkpt>
      <trkpt lat="25.4986720" lon="-100.6699340">
        <ele>2351.3</ele>
        <time>2022-08-20T15:04:15Z</time>
      </trkpt>
      <trkpt lat="25.4986660" lon="-100.6699280">
        <ele>2351.4</ele>
        <time>2022-08-20T15:04:16Z</time>
      </trkpt>
      <trkpt lat="25.4986500" lon="-100.6699220">
        <ele>2351.6</ele>
        <time>2022-08-20T15:04:18Z</time>
      </trkpt>
      <trkpt lat="25.4986440" lon="-100.6699170">
        <ele>2351.7</ele>
        <time>2022-08-20T15:04:20Z</time>
      </trkpt>
      <trkpt lat="25.4986470" lon="-100.6699190">
        <ele>2351.7</ele>
        <time>2022-08-20T15:04:21Z</time>
      </trkpt>
      <trkpt lat="25.4986390" lon="-100.6699100">
        <ele>2351.9</ele>
        <time>2022-08-20T15:04:22Z</time>
      </trkpt>
      <trkpt lat="25.4986270" lon="-100.6699010">
        <ele>2352.1</ele>
        <time>2022-08-20T15:04:23Z</time>
      </trkpt>
      <trkpt lat="25.4986150" lon="-100.6698930">
        <ele>2352.3</ele>
        <time>2022-08-20T15:04:24Z</time>
      </trkpt>
      <trkpt lat="25.4986020" lon="-100.6698790">
        <ele>2352.5</ele>
        <time>2022-08-20T15:04:26Z</time>
      </trkpt>
      <trkpt lat="25.4985950" lon="-100.6698710">
        <ele>2352.7</ele>
        <time>2022-08-20T15:04:27Z</time>
      </trkpt>
      <trkpt lat="25.4985870" lon="-100.6698620">
        <ele>2352.8</ele>
        <time>2022-08-20T15:04:28Z</time>
      </trkpt>
      <trkpt lat="25.4985770" lon="-100.6698500">
        <ele>2353.0</ele>
        <time>2022-08-20T15:04:29Z</time>
      </trkpt>
      <trkpt lat="25.4985530" lon="-100.6698260">
        <ele>2353.4</ele>
        <time>2022-08-20T15:04:31Z</time>
      </trkpt>
      <trkpt lat="25.4985270" lon="-100.6697980">
        <ele>2353.9</ele>
        <time>2022-08-20T15:04:32Z</time>
      </trkpt>
      <trkpt lat="25.4985190" lon="-100.6697850">
        <ele>2354.1</ele>
        <time>2022-08-20T15:04:33Z</time>
      </trkpt>
      <trkpt lat="25.4985040" lon="-100.6697580">
        <ele>2354.4</ele>
        <time>2022-08-20T15:04:35Z</time>
      </trkpt>
      <trkpt lat="25.4985000" lon="-100.6697510">
        <ele>2354.5</ele>
        <time>2022-08-20T15:04:36Z</time>
      </trkpt>
      <trkpt lat="25.4984940" lon="-100.6697410">
        <ele>2354.7</ele>
        <time>2022-08-20T15:04:37Z</time>
      </trkpt>
      <trkpt lat="25.4984870" lon="-100.6697310">
        <ele>2354.8</ele>
        <time>2022-08-20T15:04:38Z</time>
      </trkpt>
      <trkpt lat="25.4984800" lon="-100.6697270">
        <ele>2354.9</ele>
        <time>2022-08-20T15:04:39Z</time>
      </trkpt>
      <trkpt lat="25.4984590" lon="-100.6697160">
        <ele>2355.2</ele>
        <time>2022-08-20T15:04:41Z</time>
      </trkpt>
      <trkpt lat="25.4984530" lon="-100.6697120">
        <ele>2355.2</ele>
        <time>2022-08-20T15:04:42Z</time>
      </trkpt>
      <trkpt lat="25.4984480" lon="-100.6697080">
        <ele>2355.3</ele>
        <time>2022-08-20T15:04:43Z</time>
      </trkpt>
      <trkpt lat="25.4984350" lon="-100.6697100">
        <ele>2355.5</ele>
        <time>2022-08-20T15:04:44Z</time>
      </trkpt>
      <trkpt lat="25.4984220" lon="-100.6697020">
        <ele>2355.6</ele>
        <time>2022-08-20T15:04:45Z</time>
      </trkpt>
      <trkpt lat="25.4984190" lon="-100.6696990">
        <ele>2355.7</ele>
        <time>2022-08-20T15:04:47Z</time>
      </trkpt>
      <trkpt lat="25.4984110" lon="-100.6696920">
        <ele>2355.8</ele>
        <time>2022-08-20T15:04:48Z</time>
      </trkpt>
      <trkpt lat="25.4984020" lon="-100.6696880">
        <ele>2355.9</ele>
        <time>2022-08-20T15:04:49Z</time>
      </trkpt>
      <trkpt lat="25.4983940" lon="-100.6696840">
        <ele>2356.0</ele>
        <time>2022-08-20T15:04:50Z</time>
      </trkpt>
      <trkpt lat="25.4983720" lon="-100.6696700">
        <ele>2356.3</ele>
        <time>2022-08-20T15:04:51Z</time>
      </trkpt>
      <trkpt lat="25.4983620" lon="-100.6696640">
        <ele>2356.4</ele>
        <time>2022-08-20T15:04:52Z</time>
      </trkpt>
      <trkpt lat="25.4983510" lon="-100.6696550">
        <ele>2356.6</ele>
        <time>2022-08-20T15:04:53Z</time>
      </trkpt>
      <trkpt lat="25.4983460" lon="-100.6696500">
        <ele>2356.6</ele>
        <time>2022-08-20T15:04:54Z</time>
      </trkpt>
      <trkpt lat="25.4983310" lon="-100.6696400">
        <ele>2356.8</ele>
        <time>2022-08-20T15:04:56Z</time>
      </trkpt>
      <trkpt lat="25.4983070" lon="-100.6696260">
        <ele>2357.1</ele>
        <time>2022-08-20T15:04:57Z</time>
      </trkpt>
      <trkpt lat="25.4982940" lon="-100.6696180">
        <ele>2357.2</ele>
        <time>2022-08-20T15:04:59Z</time>
      </trkpt>
      <trkpt lat="25.4982800" lon="-100.6696100">
        <ele>2357.3</ele>
        <time>2022-08-20T15:05:00Z</time>
      </trkpt>
      <trkpt lat="25.4982670" lon="-100.6696020">
        <ele>2357.5</ele>
        <time>2022-08-20T15:05:01Z</time>
      </trkpt>
      <trkpt lat="25.4982510" lon="-100.6695970">
        <ele>2357.6</ele>
        <time>2022-08-20T15:05:03Z</time>
      </trkpt>
      <trkpt lat="25.4982370" lon="-100.6695920">
        <ele>2357.7</ele>
        <time>2022-08-20T15:05:04Z</time>
      </trkpt>
      <trkpt lat="25.4982230" lon="-100.6695830">
        <ele>2357.8</ele>
        <time>2022-08-20T15:05:05Z</time>
      </trkpt>
      <trkpt lat="25.4982030" lon="-100.6695680">
        <ele>2358.0</ele>
        <time>2022-08-20T15:05:07Z</time>
      </trkpt>
      <trkpt lat="25.4981810" lon="-100.6695490">
        <ele>2358.2</ele>
        <time>2022-08-20T15:05:08Z</time>
      </trkpt>
      <trkpt lat="25.4981730" lon="-100.6695410">
        <ele>2358.2</ele>
        <time>2022-08-20T15:05:09Z</time>
      </trkpt>
      <trkpt lat="25.4981510" lon="-100.6695190">
        <ele>2358.4</ele>
        <time>2022-08-20T15:05:10Z</time>
      </trkpt>
      <trkpt lat="25.4981420" lon="-100.6695110">
        <ele>2358.5</ele>
        <time>2022-08-20T15:05:11Z</time>
      </trkpt>
      <trkpt lat="25.4981180" lon="-100.6694960">
        <ele>2358.7</ele>
        <time>2022-08-20T15:05:12Z</time>
      </trkpt>
      <trkpt lat="25.4980880" lon="-100.6694850">
        <ele>2358.9</ele>
        <time>2022-08-20T15:05:13Z</time>
      </trkpt>
      <trkpt lat="25.4980480" lon="-100.6694730">
        <ele>2359.1</ele>
        <time>2022-08-20T15:05:15Z</time>
      </trkpt>
      <trkpt lat="25.4980320" lon="-100.6694700">
        <ele>2359.2</ele>
        <time>2022-08-20T15:05:16Z</time>
      </trkpt>
      <trkpt lat="25.4980170" lon="-100.6694640">
        <ele>2359.3</ele>
        <time>2022-08-20T15:05:17Z</time>
      </trkpt>
      <trkpt lat="25.4979990" lon="-100.6694560">
        <ele>2359.5</ele>
        <time>2022-08-20T15:05:18Z</time>
      </trkpt>
      <trkpt lat="25.4979770" lon="-100.6694450">
        <ele>2359.6</ele>
        <time>2022-08-20T15:05:19Z</time>
      </trkpt>
      <trkpt lat="25.4979720" lon="-100.6694340">
        <ele>2359.7</ele>
        <time>2022-08-20T15:05:20Z</time>
      </trkpt>
      <trkpt lat="25.4979660" lon="-100.6694200">
        <ele>2359.8</ele>
        <time>2022-08-20T15:05:21Z</time>
      </trkpt>
      <trkpt lat="25.4979610" lon="-100.6694070">
        <ele>2359.9</ele>
        <time>2022-08-20T15:05:23Z</time>
      </trkpt>
      <trkpt lat="25.4979350" lon="-100.6693860">
        <ele>2360.2</ele>
        <time>2022-08-20T15:05:25Z</time>
      </trkpt>
      <trkpt lat="25.4979200" lon="-100.6693720">
        <ele>2360.3</ele>
        <time>2022-08-20T15:05:26Z</time>
      </trkpt>
      <trkpt lat="25.4979100" lon="-100.6693610">
        <ele>2360.5</ele>
        <time>2022-08-20T15:05:27Z</time>
      </trkpt>
      <trkpt lat="25.4979030" lon="-100.6693530">
        <ele>2360.6</ele>
        <time>2022-08-20T15:05:28Z</time>
      </trkpt>
      <trkpt lat="25.4979040" lon="-100.6693480">
        <ele>2360.6</ele>
        <time>2022-08-20T15:05:29Z</time>
      </trkpt>
      <trkpt lat="25.4979050" lon="-100.6693480">
        <ele>2360.6</ele>
        <time>2022-08-20T15:05:31Z</time>
      </trkpt>
      <trkpt lat="25.4979040" lon="-100.6693460">
        <ele>2360.6</ele>
        <time>2022-08-20T15:05:32Z</time>
      </trkpt>
      <trkpt lat="25.4979030" lon="-100.6693400">
        <ele>2360.7</ele>
        <time>2022-08-20T15:05:33Z</time>
      </trkpt>
      <trkpt lat="25.4979030" lon="-100.6693320">
        <ele>2360.7</ele>
        <time>2022-08-20T15:05:34Z</time>
      </trkpt>
      <trkpt lat="25.4979050" lon="-100.6693310">
        <ele>2360.8</ele>
        <time>2022-08-20T15:05:35Z</time>
      </trkpt>
      <trkpt lat="25.4979050" lon="-100.6693290">
        <ele>2360.8</ele>
        <time>2022-08-20T15:05:36Z</time>
      </trkpt>
      <trkpt lat="25.4979050" lon="-100.6693280">
        <ele>2360.8</ele>
        <time>2022-08-20T15:05:37Z</time>
      </trkpt>
      <trkpt lat="25.4979060" lon="-100.6693300">
        <ele>2360.8</ele>
        <time>2022-08-20T15:05:38Z</time>
      </trkpt>
      <trkpt lat="25.4979070" lon="-100.6693320">
        <ele>2360.8</ele>
        <time>2022-08-20T15:05:39Z</time>
      </trkpt>
      <trkpt lat="25.4979070" lon="-100.6693330">
        <ele>2360.8</ele>
        <time>2022-08-20T15:05:40Z</time>
      </trkpt>
      <trkpt lat="25.4979070" lon="-100.6693340">
        <ele>2360.8</ele>
        <time>2022-08-20T15:05:41Z</time>
      </trkpt>
      <trkpt lat="25.4979070" lon="-100.6693340">
        <ele>2360.8</ele>
        <time>2022-08-20T15:05:42Z</time>
      </trkpt>
      <trkpt lat="25.4979080" lon="-100.6693340">
        <ele>2360.8</ele>
        <time>2022-08-20T15:05:43Z</time>
      </trkpt>
      <trkpt lat="25.4979070" lon="-100.6693330">
        <ele>2360.9</ele>
        <time>2022-08-20T15:05:44Z</time>
      </trkpt>
      <trkpt lat="25.4979070" lon="-100.6693330">
        <ele>2360.9</ele>
        <time>2022-08-20T15:05:45Z</time>
      </trkpt>
      <trkpt lat="25.4979080" lon="-100.6693330">
        <ele>2360.9</ele>
        <time>2022-08-20T15:05:46Z</time>
      </trkpt>
      <trkpt lat="25.4979070" lon="-100.6693330">
        <ele>2360.9</ele>
        <time>2022-08-20T15:05:47Z</time>
      </trkpt>
      <trkpt lat="25.4979070" lon="-100.6693330">
        <ele>2360.9</ele>
        <time>2022-08-20T15:05:48Z</time>
      </trkpt>
      <trkpt lat="25.4979070" lon="-100.6693330">
        <ele>2360.9</ele>
        <time>2022-08-20T15:05:49Z</time>
      </trkpt>
      <trkpt lat="25.4979060" lon="-100.6693380">
        <ele>2360.9</ele>
        <time>2022-08-20T15:05:50Z</time>
      </trkpt>
      <trkpt lat="25.4979060" lon="-100.6693400">
        <ele>2360.9</ele>
        <time>2022-08-20T15:05:51Z</time>
      </trkpt>
      <trkpt lat="25.4979060" lon="-100.6693400">
        <ele>2360.9</ele>
        <time>2022-08-20T15:05:52Z</time>
      </trkpt>
      <trkpt lat="25.4979060" lon="-100.6693400">
        <ele>2360.9</ele>
        <time>2022-08-20T15:05:53Z</time>
      </trkpt>
      <trkpt lat="25.4979060" lon="-100.6693400">
        <ele>2360.9</ele>
        <time>2022-08-20T15:05:54Z</time>
      </trkpt>
      <trkpt lat="25.4979060" lon="-100.6693400">
        <ele>2360.9</ele>
        <time>2022-08-20T15:05:55Z</time>
      </trkpt>
      <trkpt lat="25.4979060" lon="-100.6693400">
        <ele>2360.9</ele>
        <time>2022-08-20T15:05:56Z</time>
      </trkpt>
      <trkpt lat="25.4979060" lon="-100.6693400">
        <ele>2360.9</ele>
        <time>2022-08-20T15:05:57Z</time>
      </trkpt>
      <trkpt lat="25.4979060" lon="-100.6693400">
        <ele>2360.9</ele>
        <time>2022-08-20T15:05:58Z</time>
      </trkpt>
      <trkpt lat="25.4979060" lon="-100.6693400">
        <ele>2360.9</ele>
        <time>2022-08-20T15:05:59Z</time>
      </trkpt>
      <trkpt lat="25.4979060" lon="-100.6693400">
        <ele>2360.9</ele>
        <time>2022-08-20T15:06:00Z</time>
      </trkpt>
      <trkpt lat="25.4979060" lon="-100.6693400">
        <ele>2360.9</ele>
        <time>2022-08-20T15:06:01Z</time>
      </trkpt>
      <trkpt lat="25.4979060" lon="-100.6693400">
        <ele>2360.9</ele>
        <time>2022-08-20T15:06:02Z</time>
      </trkpt>
      <trkpt lat="25.4979060" lon="-100.6693400">
        <ele>2360.9</ele>
        <time>2022-08-20T15:06:03Z</time>
      </trkpt>
      <trkpt lat="25.4979060" lon="-100.6693400">
        <ele>2360.9</ele>
        <time>2022-08-20T15:06:04Z</time>
      </trkpt>
      <trkpt lat="25.4979060" lon="-100.6693400">
        <ele>2360.9</ele>
        <time>2022-08-20T15:06:05Z</time>
      </trkpt>
      <trkpt lat="25.4979060" lon="-100.6693400">
        <ele>2360.9</ele>
        <time>2022-08-20T15:06:06Z</time>
      </trkpt>
      <trkpt lat="25.4979060" lon="-100.6693400">
        <ele>2360.9</ele>
        <time>2022-08-20T15:06:07Z</time>
      </trkpt>
      <trkpt lat="25.4979060" lon="-100.6693400">
        <ele>2360.9</ele>
        <time>2022-08-20T15:06:08Z</time>
      </trkpt>
      <trkpt lat="25.4979060" lon="-100.6693400">
        <ele>2360.9</ele>
        <time>2022-08-20T15:06:09Z</time>
      </trkpt>
      <trkpt lat="25.4979060" lon="-100.6693400">
        <ele>2360.9</ele>
        <time>2022-08-20T15:06:10Z</time>
      </trkpt>
      <trkpt lat="25.4979060" lon="-100.6693400">
        <ele>2360.9</ele>
        <time>2022-08-20T15:06:11Z</time>
      </trkpt>
      <trkpt lat="25.4979060" lon="-100.6693400">
        <ele>2360.9</ele>
        <time>2022-08-20T15:06:12Z</time>
      </trkpt>
      <trkpt lat="25.4979060" lon="-100.6693400">
        <ele>2360.9</ele>
        <time>2022-08-20T15:06:13Z</time>
      </trkpt>
      <trkpt lat="25.4979060" lon="-100.6693400">
        <ele>2360.9</ele>
        <time>2022-08-20T15:06:14Z</time>
      </trkpt>
      <trkpt lat="25.4979060" lon="-100.6693400">
        <ele>2360.9</ele>
        <time>2022-08-20T15:06:15Z</time>
      </trkpt>
      <trkpt lat="25.4979060" lon="-100.6693400">
        <ele>2360.9</ele>
        <time>2022-08-20T15:06:16Z</time>
      </trkpt>
      <trkpt lat="25.4979060" lon="-100.6693400">
        <ele>2360.9</ele>
        <time>2022-08-20T15:06:17Z</time>
      </trkpt>
      <trkpt lat="25.4979060" lon="-100.6693400">
        <ele>2360.9</ele>
        <time>2022-08-20T15:06:18Z</time>
      </trkpt>
      <trkpt lat="25.4979060" lon="-100.6693400">
        <ele>2360.9</ele>
        <time>2022-08-20T15:06:19Z</time>
      </trkpt>
      <trkpt lat="25.4979060" lon="-100.6693400">
        <ele>2360.9</ele>
        <time>2022-08-20T15:06:20Z</time>
      </trkpt>
      <trkpt lat="25.4979060" lon="-100.6693400">
        <ele>2360.9</ele>
        <time>2022-08-20T15:06:21Z</time>
      </trkpt>
      <trkpt lat="25.4979060" lon="-100.6693400">
        <ele>2360.9</ele>
        <time>2022-08-20T15:06:22Z</time>
      </trkpt>
      <trkpt lat="25.4979060" lon="-100.6693400">
        <ele>2360.9</ele>
        <time>2022-08-20T15:06:23Z</time>
      </trkpt>
      <trkpt lat="25.4979060" lon="-100.6693400">
        <ele>2360.9</ele>
        <time>2022-08-20T15:06:24Z</time>
      </trkpt>
      <trkpt lat="25.4979060" lon="-100.6693400">
        <ele>2360.9</ele>
        <time>2022-08-20T15:06:25Z</time>
      </trkpt>
      <trkpt lat="25.4979060" lon="-100.6693400">
        <ele>2360.9</ele>
        <time>2022-08-20T15:06:26Z</time>
      </trkpt>
      <trkpt lat="25.4979060" lon="-100.6693400">
        <ele>2360.9</ele>
        <time>2022-08-20T15:06:27Z</time>
      </trkpt>
      <trkpt lat="25.4979060" lon="-100.6693400">
        <ele>2360.9</ele>
        <time>2022-08-20T15:06:28Z</time>
      </trkpt>
      <trkpt lat="25.4979060" lon="-100.6693400">
        <ele>2360.9</ele>
        <time>2022-08-20T15:06:29Z</time>
      </trkpt>
      <trkpt lat="25.4979060" lon="-100.6693400">
        <ele>2360.9</ele>
        <time>2022-08-20T15:06:30Z</time>
      </trkpt>
      <trkpt lat="25.4979070" lon="-100.6693440">
        <ele>2361.0</ele>
        <time>2022-08-20T15:06:31Z</time>
      </trkpt>
      <trkpt lat="25.4979090" lon="-100.6693500">
        <ele>2361.0</ele>
        <time>2022-08-20T15:06:32Z</time>
      </trkpt>
      <trkpt lat="25.4979060" lon="-100.6693500">
        <ele>2361.0</ele>
        <time>2022-08-20T15:06:33Z</time>
      </trkpt>
      <trkpt lat="25.4979070" lon="-100.6693520">
        <ele>2361.1</ele>
        <time>2022-08-20T15:06:34Z</time>
      </trkpt>
      <trkpt lat="25.4979100" lon="-100.6693550">
        <ele>2361.1</ele>
        <time>2022-08-20T15:06:35Z</time>
      </trkpt>
      <trkpt lat="25.4979200" lon="-100.6693600">
        <ele>2361.2</ele>
        <time>2022-08-20T15:06:36Z</time>
      </trkpt>
      <trkpt lat="25.4979240" lon="-100.6693610">
        <ele>2361.2</ele>
        <time>2022-08-20T15:06:37Z</time>
      </trkpt>
      <trkpt lat="25.4979260" lon="-100.6693610">
        <ele>2361.3</ele>
        <time>2022-08-20T15:06:38Z</time>
      </trkpt>
      <trkpt lat="25.4979270" lon="-100.6693610">
        <ele>2361.3</ele>
        <time>2022-08-20T15:06:39Z</time>
      </trkpt>
      <trkpt lat="25.4979270" lon="-100.6693600">
        <ele>2361.3</ele>
        <time>2022-08-20T15:06:40Z</time>
      </trkpt>
      <trkpt lat="25.4979280" lon="-100.6693600">
        <ele>2361.3</ele>
        <time>2022-08-20T15:06:41Z</time>
      </trkpt>
      <trkpt lat="25.4979280" lon="-100.6693600">
        <ele>2361.3</ele>
        <time>2022-08-20T15:06:42Z</time>
      </trkpt>
      <trkpt lat="25.4979280" lon="-100.6693590">
        <ele>2361.3</ele>
        <time>2022-08-20T15:06:43Z</time>
      </trkpt>
      <trkpt lat="25.4979280" lon="-100.6693590">
        <ele>2361.3</ele>
        <time>2022-08-20T15:06:44Z</time>
      </trkpt>
      <trkpt lat="25.4979290" lon="-100.6693590">
        <ele>2361.3</ele>
        <time>2022-08-20T15:06:45Z</time>
      </trkpt>
      <trkpt lat="25.4979290" lon="-100.6693590">
        <ele>2361.3</ele>
        <time>2022-08-20T15:06:47Z</time>
      </trkpt>
      <trkpt lat="25.4979300" lon="-100.6693590">
        <ele>2361.3</ele>
        <time>2022-08-20T15:06:48Z</time>
      </trkpt>
      <trkpt lat="25.4979330" lon="-100.6693590">
        <ele>2361.3</ele>
        <time>2022-08-20T15:06:49Z</time>
      </trkpt>
      <trkpt lat="25.4979360" lon="-100.6693580">
        <ele>2361.4</ele>
        <time>2022-08-20T15:06:50Z</time>
      </trkpt>
      <trkpt lat="25.4979400" lon="-100.6693570">
        <ele>2361.4</ele>
        <time>2022-08-20T15:06:51Z</time>
      </trkpt>
      <trkpt lat="25.4979450" lon="-100.6693530">
        <ele>2361.5</ele>
        <time>2022-08-20T15:06:52Z</time>
      </trkpt>
      <trkpt lat="25.4979410" lon="-100.6693420">
        <ele>2361.6</ele>
        <time>2022-08-20T15:06:53Z</time>
      </trkpt>
      <trkpt lat="25.4979280" lon="-100.6693240">
        <ele>2361.8</ele>
        <time>2022-08-20T15:06:54Z</time>
      </trkpt>
      <trkpt lat="25.4979090" lon="-100.6692980">
        <ele>2362.0</ele>
        <time>2022-08-20T15:06:56Z</time>
      </trkpt>
      <trkpt lat="25.4978940" lon="-100.6692780">
        <ele>2362.3</ele>
        <time>2022-08-20T15:06:57Z</time>
      </trkpt>
      <trkpt lat="25.4978660" lon="-100.6692420">
        <ele>2362.7</ele>
        <time>2022-08-20T15:06:59Z</time>
      </trkpt>
      <trkpt lat="25.4978450" lon="-100.6692130">
        <ele>2363.0</ele>
        <time>2022-08-20T15:07:00Z</time>
      </trkpt>
      <trkpt lat="25.4978380" lon="-100.6692040">
        <ele>2363.1</ele>
        <time>2022-08-20T15:07:01Z</time>
      </trkpt>
      <trkpt lat="25.4978290" lon="-100.6691880">
        <ele>2363.3</ele>
        <time>2022-08-20T15:07:02Z</time>
      </trkpt>
      <trkpt lat="25.4978110" lon="-100.6691620">
        <ele>2363.6</ele>
        <time>2022-08-20T15:07:03Z</time>
      </trkpt>
      <trkpt lat="25.4978000" lon="-100.6691500">
        <ele>2363.7</ele>
        <time>2022-08-20T15:07:04Z</time>
      </trkpt>
      <trkpt lat="25.4977890" lon="-100.6691310">
        <ele>2364.0</ele>
        <time>2022-08-20T15:07:06Z</time>
      </trkpt>
      <trkpt lat="25.4977800" lon="-100.6691170">
        <ele>2364.1</ele>
        <time>2022-08-20T15:07:07Z</time>
      </trkpt>
      <trkpt lat="25.4977700" lon="-100.6691010">
        <ele>2364.3</ele>
        <time>2022-08-20T15:07:08Z</time>
      </trkpt>
      <trkpt lat="25.4977610" lon="-100.6690880">
        <ele>2364.5</ele>
        <time>2022-08-20T15:07:09Z</time>
      </trkpt>
      <trkpt lat="25.4977410" lon="-100.6690590">
        <ele>2364.8</ele>
        <time>2022-08-20T15:07:10Z</time>
      </trkpt>
      <trkpt lat="25.4977310" lon="-100.6690460">
        <ele>2365.0</ele>
        <time>2022-08-20T15:07:11Z</time>
      </trkpt>
      <trkpt lat="25.4977200" lon="-100.6690160">
        <ele>2365.3</ele>
        <time>2022-08-20T15:07:12Z</time>
      </trkpt>
      <trkpt lat="25.4977110" lon="-100.6689970">
        <ele>2365.5</ele>
        <time>2022-08-20T15:07:13Z</time>
      </trkpt>
      <trkpt lat="25.4976990" lon="-100.6689760">
        <ele>2365.8</ele>
        <time>2022-08-20T15:07:15Z</time>
      </trkpt>
      <trkpt lat="25.4976810" lon="-100.6689390">
        <ele>2366.2</ele>
        <time>2022-08-20T15:07:16Z</time>
      </trkpt>
      <trkpt lat="25.4976760" lon="-100.6689250">
        <ele>2366.3</ele>
        <time>2022-08-20T15:07:17Z</time>
      </trkpt>
      <trkpt lat="25.4976640" lon="-100.6689120">
        <ele>2366.5</ele>
        <time>2022-08-20T15:07:18Z</time>
      </trkpt>
      <trkpt lat="25.4976450" lon="-100.6688910">
        <ele>2366.7</ele>
        <time>2022-08-20T15:07:20Z</time>
      </trkpt>
      <trkpt lat="25.4976400" lon="-100.6688770">
        <ele>2366.9</ele>
        <time>2022-08-20T15:07:21Z</time>
      </trkpt>
      <trkpt lat="25.4976340" lon="-100.6688640">
        <ele>2367.0</ele>
        <time>2022-08-20T15:07:22Z</time>
      </trkpt>
      <trkpt lat="25.4976260" lon="-100.6688400">
        <ele>2367.2</ele>
        <time>2022-08-20T15:07:24Z</time>
      </trkpt>
      <trkpt lat="25.4976220" lon="-100.6688220">
        <ele>2367.4</ele>
        <time>2022-08-20T15:07:25Z</time>
      </trkpt>
      <trkpt lat="25.4976160" lon="-100.6688100">
        <ele>2367.5</ele>
        <time>2022-08-20T15:07:26Z</time>
      </trkpt>
      <trkpt lat="25.4976010" lon="-100.6687960">
        <ele>2367.7</ele>
        <time>2022-08-20T15:07:27Z</time>
      </trkpt>
      <trkpt lat="25.4975880" lon="-100.6687840">
        <ele>2367.9</ele>
        <time>2022-08-20T15:07:29Z</time>
      </trkpt>
      <trkpt lat="25.4975720" lon="-100.6687580">
        <ele>2368.2</ele>
        <time>2022-08-20T15:07:30Z</time>
      </trkpt>
      <trkpt lat="25.4975670" lon="-100.6687470">
        <ele>2368.3</ele>
        <time>2022-08-20T15:07:31Z</time>
      </trkpt>
      <trkpt lat="25.4975590" lon="-100.6687150">
        <ele>2368.6</ele>
        <time>2022-08-20T15:07:33Z</time>
      </trkpt>
      <trkpt lat="25.4975560" lon="-100.6686980">
        <ele>2368.8</ele>
        <time>2022-08-20T15:07:35Z</time>
      </trkpt>
      <trkpt lat="25.4975530" lon="-100.6686830">
        <ele>2368.9</ele>
        <time>2022-08-20T15:07:36Z</time>
      </trkpt>
      <trkpt lat="25.4975480" lon="-100.6686630">
        <ele>2369.1</ele>
        <time>2022-08-20T15:07:37Z</time>
      </trkpt>
      <trkpt lat="25.4975440" lon="-100.6686490">
        <ele>2369.3</ele>
        <time>2022-08-20T15:07:38Z</time>
      </trkpt>
      <trkpt lat="25.4975350" lon="-100.6686260">
        <ele>2369.6</ele>
        <time>2022-08-20T15:07:40Z</time>
      </trkpt>
      <trkpt lat="25.4975330" lon="-100.6686110">
        <ele>2369.7</ele>
        <time>2022-08-20T15:07:41Z</time>
      </trkpt>
      <trkpt lat="25.4975330" lon="-100.6685970">
        <ele>2369.9</ele>
        <time>2022-08-20T15:07:42Z</time>
      </trkpt>
      <trkpt lat="25.4975300" lon="-100.6685840">
        <ele>2370.0</ele>
        <time>2022-08-20T15:07:43Z</time>
      </trkpt>
      <trkpt lat="25.4975250" lon="-100.6685620">
        <ele>2370.3</ele>
        <time>2022-08-20T15:07:45Z</time>
      </trkpt>
      <trkpt lat="25.4975220" lon="-100.6685390">
        <ele>2370.5</ele>
        <time>2022-08-20T15:07:46Z</time>
      </trkpt>
      <trkpt lat="25.4975230" lon="-100.6685260">
        <ele>2370.7</ele>
        <time>2022-08-20T15:07:47Z</time>
      </trkpt>
      <trkpt lat="25.4975240" lon="-100.6685140">
        <ele>2370.8</ele>
        <time>2022-08-20T15:07:48Z</time>
      </trkpt>
      <trkpt lat="25.4975270" lon="-100.6684810">
        <ele>2371.2</ele>
        <time>2022-08-20T15:07:49Z</time>
      </trkpt>
      <trkpt lat="25.4975330" lon="-100.6684470">
        <ele>2371.5</ele>
        <time>2022-08-20T15:07:50Z</time>
      </trkpt>
      <trkpt lat="25.4975370" lon="-100.6684370">
        <ele>2371.6</ele>
        <time>2022-08-20T15:07:51Z</time>
      </trkpt>
      <trkpt lat="25.4975410" lon="-100.6684040">
        <ele>2372.0</ele>
        <time>2022-08-20T15:07:52Z</time>
      </trkpt>
      <trkpt lat="25.4975390" lon="-100.6683890">
        <ele>2372.1</ele>
        <time>2022-08-20T15:07:54Z</time>
      </trkpt>
      <trkpt lat="25.4975370" lon="-100.6683750">
        <ele>2372.3</ele>
        <time>2022-08-20T15:07:56Z</time>
      </trkpt>
      <trkpt lat="25.4975340" lon="-100.6683600">
        <ele>2372.4</ele>
        <time>2022-08-20T15:07:57Z</time>
      </trkpt>
      <trkpt lat="25.4975260" lon="-100.6683310">
        <ele>2372.8</ele>
        <time>2022-08-20T15:07:58Z</time>
      </trkpt>
      <trkpt lat="25.4975220" lon="-100.6683210">
        <ele>2372.9</ele>
        <time>2022-08-20T15:07:59Z</time>
      </trkpt>
      <trkpt lat="25.4975110" lon="-100.6683070">
        <ele>2373.1</ele>
        <time>2022-08-20T15:08:00Z</time>
      </trkpt>
      <trkpt lat="25.4974900" lon="-100.6682980">
        <ele>2373.3</ele>
        <time>2022-08-20T15:08:02Z</time>
      </trkpt>
      <trkpt lat="25.4974740" lon="-100.6682940">
        <ele>2373.5</ele>
        <time>2022-08-20T15:08:03Z</time>
      </trkpt>
      <trkpt lat="25.4974590" lon="-100.6682950">
        <ele>2373.7</ele>
        <time>2022-08-20T15:08:04Z</time>
      </trkpt>
      <trkpt lat="25.4974370" lon="-100.6682920">
        <ele>2374.0</ele>
        <time>2022-08-20T15:08:05Z</time>
      </trkpt>
      <trkpt lat="25.4974280" lon="-100.6682910">
        <ele>2374.1</ele>
        <time>2022-08-20T15:08:06Z</time>
      </trkpt>
      <trkpt lat="25.4974180" lon="-100.6682890">
        <ele>2374.2</ele>
        <time>2022-08-20T15:08:07Z</time>
      </trkpt>
      <trkpt lat="25.4974170" lon="-100.6682820">
        <ele>2374.3</ele>
        <time>2022-08-20T15:08:09Z</time>
      </trkpt>
      <trkpt lat="25.4974130" lon="-100.6682670">
        <ele>2374.5</ele>
        <time>2022-08-20T15:08:10Z</time>
      </trkpt>
      <trkpt lat="25.4974200" lon="-100.6682560">
        <ele>2374.6</ele>
        <time>2022-08-20T15:08:12Z</time>
      </trkpt>
      <trkpt lat="25.4974230" lon="-100.6682430">
        <ele>2374.7</ele>
        <time>2022-08-20T15:08:13Z</time>
      </trkpt>
      <trkpt lat="25.4974210" lon="-100.6682260">
        <ele>2374.9</ele>
        <time>2022-08-20T15:08:14Z</time>
      </trkpt>
      <trkpt lat="25.4974340" lon="-100.6681910">
        <ele>2375.3</ele>
        <time>2022-08-20T15:08:16Z</time>
      </trkpt>
      <trkpt lat="25.4974390" lon="-100.6681780">
        <ele>2375.5</ele>
        <time>2022-08-20T15:08:17Z</time>
      </trkpt>
      <trkpt lat="25.4974410" lon="-100.6681540">
        <ele>2375.8</ele>
        <time>2022-08-20T15:08:19Z</time>
      </trkpt>
      <trkpt lat="25.4974390" lon="-100.6681430">
        <ele>2375.9</ele>
        <time>2022-08-20T15:08:20Z</time>
      </trkpt>
      <trkpt lat="25.4974440" lon="-100.6681270">
        <ele>2376.1</ele>
        <time>2022-08-20T15:08:21Z</time>
      </trkpt>
      <trkpt lat="25.4974450" lon="-100.6681160">
        <ele>2376.2</ele>
        <time>2022-08-20T15:08:22Z</time>
      </trkpt>
      <trkpt lat="25.4974480" lon="-100.6681090">
        <ele>2376.3</ele>
        <time>2022-08-20T15:08:23Z</time>
      </trkpt>
      <trkpt lat="25.4974490" lon="-100.6680930">
        <ele>2376.4</ele>
        <time>2022-08-20T15:08:25Z</time>
      </trkpt>
      <trkpt lat="25.4974510" lon="-100.6680750">
        <ele>2376.6</ele>
        <time>2022-08-20T15:08:26Z</time>
      </trkpt>
      <trkpt lat="25.4974520" lon="-100.6680400">
        <ele>2377.0</ele>
        <time>2022-08-20T15:08:27Z</time>
      </trkpt>
      <trkpt lat="25.4974500" lon="-100.6680040">
        <ele>2377.3</ele>
        <time>2022-08-20T15:08:28Z</time>
      </trkpt>
      <trkpt lat="25.4974490" lon="-100.6679940">
        <ele>2377.4</ele>
        <time>2022-08-20T15:08:29Z</time>
      </trkpt>
      <trkpt lat="25.4974500" lon="-100.6679600">
        <ele>2377.7</ele>
        <time>2022-08-20T15:08:30Z</time>
      </trkpt>
      <trkpt lat="25.4974600" lon="-100.6679250">
        <ele>2378.1</ele>
        <time>2022-08-20T15:08:32Z</time>
      </trkpt>
      <trkpt lat="25.4974620" lon="-100.6679150">
        <ele>2378.2</ele>
        <time>2022-08-20T15:08:33Z</time>
      </trkpt>
      <trkpt lat="25.4974740" lon="-100.6678870">
        <ele>2378.4</ele>
        <time>2022-08-20T15:08:34Z</time>
      </trkpt>
      <trkpt lat="25.4974770" lon="-100.6678770">
        <ele>2378.5</ele>
        <time>2022-08-20T15:08:35Z</time>
      </trkpt>
      <trkpt lat="25.4974840" lon="-100.6678470">
        <ele>2378.8</ele>
        <time>2022-08-20T15:08:36Z</time>
      </trkpt>
      <trkpt lat="25.4974980" lon="-100.6678040">
        <ele>2379.1</ele>
        <time>2022-08-20T15:08:37Z</time>
      </trkpt>
      <trkpt lat="25.4975070" lon="-100.6677500">
        <ele>2379.5</ele>
        <time>2022-08-20T15:08:39Z</time>
      </trkpt>
      <trkpt lat="25.4975120" lon="-100.6677050">
        <ele>2379.8</ele>
        <time>2022-08-20T15:08:41Z</time>
      </trkpt>
      <trkpt lat="25.4974950" lon="-100.6676790">
        <ele>2379.9</ele>
        <time>2022-08-20T15:08:43Z</time>
      </trkpt>
      <trkpt lat="25.4974850" lon="-100.6676710">
        <ele>2380.0</ele>
        <time>2022-08-20T15:08:44Z</time>
      </trkpt>
      <trkpt lat="25.4974750" lon="-100.6676630">
        <ele>2380.1</ele>
        <time>2022-08-20T15:08:45Z</time>
      </trkpt>
      <trkpt lat="25.4974590" lon="-100.6676590">
        <ele>2380.1</ele>
        <time>2022-08-20T15:08:46Z</time>
      </trkpt>
      <trkpt lat="25.4974300" lon="-100.6676760">
        <ele>2380.2</ele>
        <time>2022-08-20T15:08:48Z</time>
      </trkpt>
      <trkpt lat="25.4974000" lon="-100.6676970">
        <ele>2380.4</ele>
        <time>2022-08-20T15:08:49Z</time>
      </trkpt>
      <trkpt lat="25.4973890" lon="-100.6677080">
        <ele>2380.4</ele>
        <time>2022-08-20T15:08:50Z</time>
      </trkpt>
      <trkpt lat="25.4973760" lon="-100.6677270">
        <ele>2380.5</ele>
        <time>2022-08-20T15:08:51Z</time>
      </trkpt>
      <trkpt lat="25.4973700" lon="-100.6677340">
        <ele>2380.5</ele>
        <time>2022-08-20T15:08:52Z</time>
      </trkpt>
      <trkpt lat="25.4973640" lon="-100.6677400">
        <ele>2380.5</ele>
        <time>2022-08-20T15:08:53Z</time>
      </trkpt>
      <trkpt lat="25.4973510" lon="-100.6677670">
        <ele>2380.6</ele>
        <time>2022-08-20T15:08:54Z</time>
      </trkpt>
      <trkpt lat="25.4973340" lon="-100.6678020">
        <ele>2380.8</ele>
        <time>2022-08-20T15:08:55Z</time>
      </trkpt>
      <trkpt lat="25.4973250" lon="-100.6678140">
        <ele>2380.8</ele>
        <time>2022-08-20T15:08:56Z</time>
      </trkpt>
      <trkpt lat="25.4972900" lon="-100.6678440">
        <ele>2381.0</ele>
        <time>2022-08-20T15:08:58Z</time>
      </trkpt>
      <trkpt lat="25.4972770" lon="-100.6678540">
        <ele>2381.1</ele>
        <time>2022-08-20T15:08:59Z</time>
      </trkpt>
      <trkpt lat="25.4972640" lon="-100.6678640">
        <ele>2381.2</ele>
        <time>2022-08-20T15:09:00Z</time>
      </trkpt>
      <trkpt lat="25.4972390" lon="-100.6678770">
        <ele>2381.4</ele>
        <time>2022-08-20T15:09:01Z</time>
      </trkpt>
      <trkpt lat="25.4972070" lon="-100.6678880">
        <ele>2381.6</ele>
        <time>2022-08-20T15:09:03Z</time>
      </trkpt>
      <trkpt lat="25.4971960" lon="-100.6678890">
        <ele>2381.6</ele>
        <time>2022-08-20T15:09:04Z</time>
      </trkpt>
      <trkpt lat="25.4971680" lon="-100.6678910">
        <ele>2381.8</ele>
        <time>2022-08-20T15:09:05Z</time>
      </trkpt>
      <trkpt lat="25.4971570" lon="-100.6678900">
        <ele>2381.9</ele>
        <time>2022-08-20T15:09:06Z</time>
      </trkpt>
      <trkpt lat="25.4971160" lon="-100.6678880">
        <ele>2382.1</ele>
        <time>2022-08-20T15:09:07Z</time>
      </trkpt>
      <trkpt lat="25.4971000" lon="-100.6678870">
        <ele>2382.2</ele>
        <time>2022-08-20T15:09:08Z</time>
      </trkpt>
      <trkpt lat="25.4970700" lon="-100.6678830">
        <ele>2382.4</ele>
        <time>2022-08-20T15:09:09Z</time>
      </trkpt>
      <trkpt lat="25.4970280" lon="-100.6678720">
        <ele>2382.7</ele>
        <time>2022-08-20T15:09:10Z</time>
      </trkpt>
      <trkpt lat="25.4970010" lon="-100.6678600">
        <ele>2382.9</ele>
        <time>2022-08-20T15:09:11Z</time>
      </trkpt>
      <trkpt lat="25.4969940" lon="-100.6678570">
        <ele>2382.9</ele>
        <time>2022-08-20T15:09:12Z</time>
      </trkpt>
      <trkpt lat="25.4969800" lon="-100.6678500">
        <ele>2383.0</ele>
        <time>2022-08-20T15:09:13Z</time>
      </trkpt>
      <trkpt lat="25.4969610" lon="-100.6678360">
        <ele>2383.2</ele>
        <time>2022-08-20T15:09:15Z</time>
      </trkpt>
      <trkpt lat="25.4969340" lon="-100.6678120">
        <ele>2383.4</ele>
        <time>2022-08-20T15:09:16Z</time>
      </trkpt>
      <trkpt lat="25.4969240" lon="-100.6678030">
        <ele>2383.4</ele>
        <time>2022-08-20T15:09:17Z</time>
      </trkpt>
      <trkpt lat="25.4969000" lon="-100.6677870">
        <ele>2383.6</ele>
        <time>2022-08-20T15:09:18Z</time>
      </trkpt>
      <trkpt lat="25.4968720" lon="-100.6677670">
        <ele>2383.8</ele>
        <time>2022-08-20T15:09:19Z</time>
      </trkpt>
      <trkpt lat="25.4968390" lon="-100.6677460">
        <ele>2384.1</ele>
        <time>2022-08-20T15:09:20Z</time>
      </trkpt>
      <trkpt lat="25.4968270" lon="-100.6677380">
        <ele>2384.2</ele>
        <time>2022-08-20T15:09:21Z</time>
      </trkpt>
      <trkpt lat="25.4968100" lon="-100.6677240">
        <ele>2384.4</ele>
        <time>2022-08-20T15:09:22Z</time>
      </trkpt>
      <trkpt lat="25.4967910" lon="-100.6677050">
        <ele>2384.6</ele>
        <time>2022-08-20T15:09:24Z</time>
      </trkpt>
      <trkpt lat="25.4967790" lon="-100.6676850">
        <ele>2384.8</ele>
        <time>2022-08-20T15:09:25Z</time>
      </trkpt>
      <trkpt lat="25.4967660" lon="-100.6676560">
        <ele>2385.1</ele>
        <time>2022-08-20T15:09:27Z</time>
      </trkpt>
      <trkpt lat="25.4967450" lon="-100.6676250">
        <ele>2385.4</ele>
        <time>2022-08-20T15:09:28Z</time>
      </trkpt>
      <trkpt lat="25.4967380" lon="-100.6676130">
        <ele>2385.6</ele>
        <time>2022-08-20T15:09:29Z</time>
      </trkpt>
      <trkpt lat="25.4967250" lon="-100.6675780">
        <ele>2386.0</ele>
        <time>2022-08-20T15:09:30Z</time>
      </trkpt>
      <trkpt lat="25.4967200" lon="-100.6675660">
        <ele>2386.1</ele>
        <time>2022-08-20T15:09:31Z</time>
      </trkpt>
      <trkpt lat="25.4967080" lon="-100.6675250">
        <ele>2386.6</ele>
        <time>2022-08-20T15:09:33Z</time>
      </trkpt>
      <trkpt lat="25.4967020" lon="-100.6675120">
        <ele>2386.7</ele>
        <time>2022-08-20T15:09:34Z</time>
      </trkpt>
      <trkpt lat="25.4966880" lon="-100.6674850">
        <ele>2387.1</ele>
        <time>2022-08-20T15:09:35Z</time>
      </trkpt>
      <trkpt lat="25.4966830" lon="-100.6674770">
        <ele>2387.2</ele>
        <time>2022-08-20T15:09:36Z</time>
      </trkpt>
      <trkpt lat="25.4966730" lon="-100.6674530">
        <ele>2387.5</ele>
        <time>2022-08-20T15:09:37Z</time>
      </trkpt>
      <trkpt lat="25.4966670" lon="-100.6674320">
        <ele>2387.7</ele>
        <time>2022-08-20T15:09:39Z</time>
      </trkpt>
      <trkpt lat="25.4966570" lon="-100.6674000">
        <ele>2388.1</ele>
        <time>2022-08-20T15:09:40Z</time>
      </trkpt>
      <trkpt lat="25.4966530" lon="-100.6673850">
        <ele>2388.3</ele>
        <time>2022-08-20T15:09:41Z</time>
      </trkpt>
      <trkpt lat="25.4966460" lon="-100.6673560">
        <ele>2388.6</ele>
        <time>2022-08-20T15:09:42Z</time>
      </trkpt>
      <trkpt lat="25.4966410" lon="-100.6673330">
        <ele>2388.9</ele>
        <time>2022-08-20T15:09:44Z</time>
      </trkpt>
      <trkpt lat="25.4966420" lon="-100.6673180">
        <ele>2389.1</ele>
        <time>2022-08-20T15:09:45Z</time>
      </trkpt>
      <trkpt lat="25.4966450" lon="-100.6673030">
        <ele>2389.3</ele>
        <time>2022-08-20T15:09:46Z</time>
      </trkpt>
      <trkpt lat="25.4966450" lon="-100.6672850">
        <ele>2389.5</ele>
        <time>2022-08-20T15:09:47Z</time>
      </trkpt>
      <trkpt lat="25.4966440" lon="-100.6672720">
        <ele>2389.6</ele>
        <time>2022-08-20T15:09:48Z</time>
      </trkpt>
      <trkpt lat="25.4966440" lon="-100.6672610">
        <ele>2389.8</ele>
        <time>2022-08-20T15:09:49Z</time>
      </trkpt>
      <trkpt lat="25.4966430" lon="-100.6672480">
        <ele>2389.9</ele>
        <time>2022-08-20T15:09:50Z</time>
      </trkpt>
      <trkpt lat="25.4966370" lon="-100.6672390">
        <ele>2390.0</ele>
        <time>2022-08-20T15:09:51Z</time>
      </trkpt>
      <trkpt lat="25.4966330" lon="-100.6672260">
        <ele>2390.2</ele>
        <time>2022-08-20T15:09:52Z</time>
      </trkpt>
      <trkpt lat="25.4966280" lon="-100.6672140">
        <ele>2390.4</ele>
        <time>2022-08-20T15:09:53Z</time>
      </trkpt>
      <trkpt lat="25.4966250" lon="-100.6672020">
        <ele>2390.5</ele>
        <time>2022-08-20T15:09:54Z</time>
      </trkpt>
      <trkpt lat="25.4966220" lon="-100.6671680">
        <ele>2390.9</ele>
        <time>2022-08-20T15:09:56Z</time>
      </trkpt>
      <trkpt lat="25.4966100" lon="-100.6671370">
        <ele>2391.3</ele>
        <time>2022-08-20T15:09:57Z</time>
      </trkpt>
      <trkpt lat="25.4966050" lon="-100.6671240">
        <ele>2391.5</ele>
        <time>2022-08-20T15:09:58Z</time>
      </trkpt>
      <trkpt lat="25.4965880" lon="-100.6670880">
        <ele>2391.9</ele>
        <time>2022-08-20T15:10:00Z</time>
      </trkpt>
      <trkpt lat="25.4965800" lon="-100.6670700">
        <ele>2392.1</ele>
        <time>2022-08-20T15:10:01Z</time>
      </trkpt>
      <trkpt lat="25.4965660" lon="-100.6670290">
        <ele>2392.6</ele>
        <time>2022-08-20T15:10:03Z</time>
      </trkpt>
      <trkpt lat="25.4965580" lon="-100.6669940">
        <ele>2393.0</ele>
        <time>2022-08-20T15:10:04Z</time>
      </trkpt>
      <trkpt lat="25.4965570" lon="-100.6669790">
        <ele>2393.1</ele>
        <time>2022-08-20T15:10:06Z</time>
      </trkpt>
      <trkpt lat="25.4965570" lon="-100.6669640">
        <ele>2393.3</ele>
        <time>2022-08-20T15:10:07Z</time>
      </trkpt>
      <trkpt lat="25.4965560" lon="-100.6669490">
        <ele>2393.4</ele>
        <time>2022-08-20T15:10:08Z</time>
      </trkpt>
      <trkpt lat="25.4965490" lon="-100.6669280">
        <ele>2393.7</ele>
        <time>2022-08-20T15:10:09Z</time>
      </trkpt>
      <trkpt lat="25.4965380" lon="-100.6668980">
        <ele>2394.0</ele>
        <time>2022-08-20T15:10:11Z</time>
      </trkpt>
      <trkpt lat="25.4965300" lon="-100.6668660">
        <ele>2394.3</ele>
        <time>2022-08-20T15:10:12Z</time>
      </trkpt>
      <trkpt lat="25.4965270" lon="-100.6668510">
        <ele>2394.4</ele>
        <time>2022-08-20T15:10:14Z</time>
      </trkpt>
      <trkpt lat="25.4965240" lon="-100.6668360">
        <ele>2394.5</ele>
        <time>2022-08-20T15:10:15Z</time>
      </trkpt>
      <trkpt lat="25.4965210" lon="-100.6668210">
        <ele>2394.7</ele>
        <time>2022-08-20T15:10:16Z</time>
      </trkpt>
      <trkpt lat="25.4965140" lon="-100.6668070">
        <ele>2394.8</ele>
        <time>2022-08-20T15:10:17Z</time>
      </trkpt>
      <trkpt lat="25.4965040" lon="-100.6667800">
        <ele>2395.1</ele>
        <time>2022-08-20T15:10:19Z</time>
      </trkpt>
      <trkpt lat="25.4965060" lon="-100.6667500">
        <ele>2395.4</ele>
        <time>2022-08-20T15:10:20Z</time>
      </trkpt>
      <trkpt lat="25.4965050" lon="-100.6667380">
        <ele>2395.5</ele>
        <time>2022-08-20T15:10:21Z</time>
      </trkpt>
      <trkpt lat="25.4964890" lon="-100.6667090">
        <ele>2395.8</ele>
        <time>2022-08-20T15:10:22Z</time>
      </trkpt>
      <trkpt lat="25.4964830" lon="-100.6667000">
        <ele>2395.9</ele>
        <time>2022-08-20T15:10:23Z</time>
      </trkpt>
      <trkpt lat="25.4964700" lon="-100.6666860">
        <ele>2396.1</ele>
        <time>2022-08-20T15:10:24Z</time>
      </trkpt>
      <trkpt lat="25.4964630" lon="-100.6666800">
        <ele>2396.2</ele>
        <time>2022-08-20T15:10:26Z</time>
      </trkpt>
      <trkpt lat="25.4964560" lon="-100.6666740">
        <ele>2396.3</ele>
        <time>2022-08-20T15:10:27Z</time>
      </trkpt>
      <trkpt lat="25.4964510" lon="-100.6666630">
        <ele>2396.4</ele>
        <time>2022-08-20T15:10:28Z</time>
      </trkpt>
      <trkpt lat="25.4964360" lon="-100.6666480">
        <ele>2396.6</ele>
        <time>2022-08-20T15:10:29Z</time>
      </trkpt>
      <trkpt lat="25.4964230" lon="-100.6666440">
        <ele>2396.7</ele>
        <time>2022-08-20T15:10:31Z</time>
      </trkpt>
      <trkpt lat="25.4964060" lon="-100.6666370">
        <ele>2396.9</ele>
        <time>2022-08-20T15:10:32Z</time>
      </trkpt>
      <trkpt lat="25.4963780" lon="-100.6666150">
        <ele>2397.3</ele>
        <time>2022-08-20T15:10:34Z</time>
      </trkpt>
      <trkpt lat="25.4963720" lon="-100.6666070">
        <ele>2397.4</ele>
        <time>2022-08-20T15:10:35Z</time>
      </trkpt>
      <trkpt lat="25.4963640" lon="-100.6665940">
        <ele>2397.5</ele>
        <time>2022-08-20T15:10:36Z</time>
      </trkpt>
      <trkpt lat="25.4963560" lon="-100.6665800">
        <ele>2397.7</ele>
        <time>2022-08-20T15:10:37Z</time>
      </trkpt>
      <trkpt lat="25.4963460" lon="-100.6665470">
        <ele>2398.1</ele>
        <time>2022-08-20T15:10:39Z</time>
      </trkpt>
      <trkpt lat="25.4963450" lon="-100.6665370">
        <ele>2398.2</ele>
        <time>2022-08-20T15:10:40Z</time>
      </trkpt>
      <trkpt lat="25.4963250" lon="-100.6664950">
        <ele>2398.6</ele>
        <time>2022-08-20T15:10:41Z</time>
      </trkpt>
      <trkpt lat="25.4963180" lon="-100.6664770">
        <ele>2398.8</ele>
        <time>2022-08-20T15:10:43Z</time>
      </trkpt>
      <trkpt lat="25.4963150" lon="-100.6664610">
        <ele>2399.0</ele>
        <time>2022-08-20T15:10:44Z</time>
      </trkpt>
      <trkpt lat="25.4963030" lon="-100.6664280">
        <ele>2399.4</ele>
        <time>2022-08-20T15:10:45Z</time>
      </trkpt>
      <trkpt lat="25.4962970" lon="-100.6664120">
        <ele>2399.5</ele>
        <time>2022-08-20T15:10:46Z</time>
      </trkpt>
      <trkpt lat="25.4962810" lon="-100.6663840">
        <ele>2399.9</ele>
        <time>2022-08-20T15:10:48Z</time>
      </trkpt>
      <trkpt lat="25.4962770" lon="-100.6663780">
        <ele>2399.9</ele>
        <time>2022-08-20T15:10:49Z</time>
      </trkpt>
      <trkpt lat="25.4962610" lon="-100.6663480">
        <ele>2400.3</ele>
        <time>2022-08-20T15:10:50Z</time>
      </trkpt>
      <trkpt lat="25.4962560" lon="-100.6663370">
        <ele>2400.4</ele>
        <time>2022-08-20T15:10:51Z</time>
      </trkpt>
      <trkpt lat="25.4962520" lon="-100.6663040">
        <ele>2400.7</ele>
        <time>2022-08-20T15:10:52Z</time>
      </trkpt>
      <trkpt lat="25.4962500" lon="-100.6662820">
        <ele>2400.9</ele>
        <time>2022-08-20T15:10:54Z</time>
      </trkpt>
      <trkpt lat="25.4962470" lon="-100.6662670">
        <ele>2401.0</ele>
        <time>2022-08-20T15:10:55Z</time>
      </trkpt>
      <trkpt lat="25.4962440" lon="-100.6662290">
        <ele>2401.3</ele>
        <time>2022-08-20T15:10:56Z</time>
      </trkpt>
      <trkpt lat="25.4962430" lon="-100.6662150">
        <ele>2401.4</ele>
        <time>2022-08-20T15:10:57Z</time>
      </trkpt>
      <trkpt lat="25.4962320" lon="-100.6661810">
        <ele>2401.7</ele>
        <time>2022-08-20T15:10:59Z</time>
      </trkpt>
      <trkpt lat="25.4962280" lon="-100.6661730">
        <ele>2401.7</ele>
        <time>2022-08-20T15:11:00Z</time>
      </trkpt>
      <trkpt lat="25.4962170" lon="-100.6661450">
        <ele>2401.9</ele>
        <time>2022-08-20T15:11:01Z</time>
      </trkpt>
      <trkpt lat="25.4962100" lon="-100.6661080">
        <ele>2402.2</ele>
        <time>2022-08-20T15:11:03Z</time>
      </trkpt>
      <trkpt lat="25.4962090" lon="-100.6660990">
        <ele>2402.2</ele>
        <time>2022-08-20T15:11:04Z</time>
      </trkpt>
      <trkpt lat="25.4961960" lon="-100.6660720">
        <ele>2402.4</ele>
        <time>2022-08-20T15:11:05Z</time>
      </trkpt>
      <trkpt lat="25.4961900" lon="-100.6660570">
        <ele>2402.5</ele>
        <time>2022-08-20T15:11:06Z</time>
      </trkpt>
      <trkpt lat="25.4961830" lon="-100.6660320">
        <ele>2402.7</ele>
        <time>2022-08-20T15:11:07Z</time>
      </trkpt>
      <trkpt lat="25.4961780" lon="-100.6660140">
        <ele>2402.8</ele>
        <time>2022-08-20T15:11:09Z</time>
      </trkpt>
      <trkpt lat="25.4961740" lon="-100.6659980">
        <ele>2402.9</ele>
        <time>2022-08-20T15:11:10Z</time>
      </trkpt>
      <trkpt lat="25.4961670" lon="-100.6659860">
        <ele>2403.0</ele>
        <time>2022-08-20T15:11:11Z</time>
      </trkpt>
      <trkpt lat="25.4961570" lon="-100.6659470">
        <ele>2403.3</ele>
        <time>2022-08-20T15:11:12Z</time>
      </trkpt>
      <trkpt lat="25.4961550" lon="-100.6659340">
        <ele>2403.3</ele>
        <time>2022-08-20T15:11:13Z</time>
      </trkpt>
      <trkpt lat="25.4961470" lon="-100.6659030">
        <ele>2403.6</ele>
        <time>2022-08-20T15:11:15Z</time>
      </trkpt>
      <trkpt lat="25.4961300" lon="-100.6658730">
        <ele>2403.8</ele>
        <time>2022-08-20T15:11:16Z</time>
      </trkpt>
      <trkpt lat="25.4961150" lon="-100.6658180">
        <ele>2404.2</ele>
        <time>2022-08-20T15:11:18Z</time>
      </trkpt>
      <trkpt lat="25.4961110" lon="-100.6657970">
        <ele>2404.3</ele>
        <time>2022-08-20T15:11:19Z</time>
      </trkpt>
      <trkpt lat="25.4961070" lon="-100.6657760">
        <ele>2404.5</ele>
        <time>2022-08-20T15:11:20Z</time>
      </trkpt>
      <trkpt lat="25.4961010" lon="-100.6657400">
        <ele>2404.7</ele>
        <time>2022-08-20T15:11:22Z</time>
      </trkpt>
      <trkpt lat="25.4960990" lon="-100.6657290">
        <ele>2404.8</ele>
        <time>2022-08-20T15:11:23Z</time>
      </trkpt>
      <trkpt lat="25.4960950" lon="-100.6656900">
        <ele>2405.1</ele>
        <time>2022-08-20T15:11:24Z</time>
      </trkpt>
      <trkpt lat="25.4960890" lon="-100.6656570">
        <ele>2405.3</ele>
        <time>2022-08-20T15:11:26Z</time>
      </trkpt>
      <trkpt lat="25.4960880" lon="-100.6656460">
        <ele>2405.4</ele>
        <time>2022-08-20T15:11:27Z</time>
      </trkpt>
      <trkpt lat="25.4960850" lon="-100.6656260">
        <ele>2405.5</ele>
        <time>2022-08-20T15:11:28Z</time>
      </trkpt>
      <trkpt lat="25.4960820" lon="-100.6656080">
        <ele>2405.6</ele>
        <time>2022-08-20T15:11:29Z</time>
      </trkpt>
      <trkpt lat="25.4960800" lon="-100.6655780">
        <ele>2405.8</ele>
        <time>2022-08-20T15:11:30Z</time>
      </trkpt>
      <trkpt lat="25.4960810" lon="-100.6655670">
        <ele>2405.9</ele>
        <time>2022-08-20T15:11:31Z</time>
      </trkpt>
      <trkpt lat="25.4960840" lon="-100.6655510">
        <ele>2406.0</ele>
        <time>2022-08-20T15:11:32Z</time>
      </trkpt>
      <trkpt lat="25.4960770" lon="-100.6655340">
        <ele>2406.1</ele>
        <time>2022-08-20T15:11:33Z</time>
      </trkpt>
      <trkpt lat="25.4960680" lon="-100.6655040">
        <ele>2406.2</ele>
        <time>2022-08-20T15:11:35Z</time>
      </trkpt>
      <trkpt lat="25.4960670" lon="-100.6654900">
        <ele>2406.3</ele>
        <time>2022-08-20T15:11:36Z</time>
      </trkpt>
      <trkpt lat="25.4960670" lon="-100.6654800">
        <ele>2406.4</ele>
        <time>2022-08-20T15:11:37Z</time>
      </trkpt>
      <trkpt lat="25.4960640" lon="-100.6654720">
        <ele>2406.4</ele>
        <time>2022-08-20T15:11:38Z</time>
      </trkpt>
      <trkpt lat="25.4960650" lon="-100.6654560">
        <ele>2406.5</ele>
        <time>2022-08-20T15:11:39Z</time>
      </trkpt>
      <trkpt lat="25.4960630" lon="-100.6654470">
        <ele>2406.5</ele>
        <time>2022-08-20T15:11:40Z</time>
      </trkpt>
      <trkpt lat="25.4960610" lon="-100.6654380">
        <ele>2406.6</ele>
        <time>2022-08-20T15:11:41Z</time>
      </trkpt>
      <trkpt lat="25.4960590" lon="-100.6654290">
        <ele>2406.6</ele>
        <time>2022-08-20T15:11:42Z</time>
      </trkpt>
      <trkpt lat="25.4960410" lon="-100.6653930">
        <ele>2406.8</ele>
        <time>2022-08-20T15:11:44Z</time>
      </trkpt>
      <trkpt lat="25.4960360" lon="-100.6653810">
        <ele>2406.8</ele>
        <time>2022-08-20T15:11:45Z</time>
      </trkpt>
      <trkpt lat="25.4960280" lon="-100.6653620">
        <ele>2406.9</ele>
        <time>2022-08-20T15:11:46Z</time>
      </trkpt>
      <trkpt lat="25.4960220" lon="-100.6653310">
        <ele>2407.0</ele>
        <time>2022-08-20T15:11:48Z</time>
      </trkpt>
      <trkpt lat="25.4960200" lon="-100.6653160">
        <ele>2407.1</ele>
        <time>2022-08-20T15:11:49Z</time>
      </trkpt>
      <trkpt lat="25.4960220" lon="-100.6653100">
        <ele>2407.1</ele>
        <time>2022-08-20T15:11:50Z</time>
      </trkpt>
      <trkpt lat="25.4960250" lon="-100.6653070">
        <ele>2407.1</ele>
        <time>2022-08-20T15:11:51Z</time>
      </trkpt>
      <trkpt lat="25.4960270" lon="-100.6653040">
        <ele>2407.1</ele>
        <time>2022-08-20T15:11:52Z</time>
      </trkpt>
      <trkpt lat="25.4960240" lon="-100.6653010">
        <ele>2407.1</ele>
        <time>2022-08-20T15:11:53Z</time>
      </trkpt>
      <trkpt lat="25.4960210" lon="-100.6652980">
        <ele>2407.1</ele>
        <time>2022-08-20T15:11:54Z</time>
      </trkpt>
      <trkpt lat="25.4960190" lon="-100.6652980">
        <ele>2407.1</ele>
        <time>2022-08-20T15:11:55Z</time>
      </trkpt>
      <trkpt lat="25.4960180" lon="-100.6653030">
        <ele>2407.2</ele>
        <time>2022-08-20T15:11:56Z</time>
      </trkpt>
      <trkpt lat="25.4960220" lon="-100.6653130">
        <ele>2407.2</ele>
        <time>2022-08-20T15:11:57Z</time>
      </trkpt>
      <trkpt lat="25.4960250" lon="-100.6653210">
        <ele>2407.2</ele>
        <time>2022-08-20T15:11:58Z</time>
      </trkpt>
      <trkpt lat="25.4960260" lon="-100.6653230">
        <ele>2407.2</ele>
        <time>2022-08-20T15:11:59Z</time>
      </trkpt>
      <trkpt lat="25.4960270" lon="-100.6653250">
        <ele>2407.2</ele>
        <time>2022-08-20T15:12:00Z</time>
      </trkpt>
      <trkpt lat="25.4960280" lon="-100.6653260">
        <ele>2407.2</ele>
        <time>2022-08-20T15:12:01Z</time>
      </trkpt>
      <trkpt lat="25.4960290" lon="-100.6653280">
        <ele>2407.2</ele>
        <time>2022-08-20T15:12:02Z</time>
      </trkpt>
      <trkpt lat="25.4960290" lon="-100.6653290">
        <ele>2407.2</ele>
        <time>2022-08-20T15:12:03Z</time>
      </trkpt>
      <trkpt lat="25.4960300" lon="-100.6653300">
        <ele>2407.2</ele>
        <time>2022-08-20T15:12:04Z</time>
      </trkpt>
      <trkpt lat="25.4960300" lon="-100.6653320">
        <ele>2407.2</ele>
        <time>2022-08-20T15:12:05Z</time>
      </trkpt>
      <trkpt lat="25.4960300" lon="-100.6653320">
        <ele>2407.2</ele>
        <time>2022-08-20T15:12:06Z</time>
      </trkpt>
      <trkpt lat="25.4960290" lon="-100.6653330">
        <ele>2407.2</ele>
        <time>2022-08-20T15:12:07Z</time>
      </trkpt>
      <trkpt lat="25.4960340" lon="-100.6653440">
        <ele>2407.3</ele>
        <time>2022-08-20T15:12:08Z</time>
      </trkpt>
      <trkpt lat="25.4960350" lon="-100.6653480">
        <ele>2407.3</ele>
        <time>2022-08-20T15:12:09Z</time>
      </trkpt>
      <trkpt lat="25.4960360" lon="-100.6653490">
        <ele>2407.3</ele>
        <time>2022-08-20T15:12:10Z</time>
      </trkpt>
      <trkpt lat="25.4960360" lon="-100.6653490">
        <ele>2407.3</ele>
        <time>2022-08-20T15:12:11Z</time>
      </trkpt>
      <trkpt lat="25.4960360" lon="-100.6653490">
        <ele>2407.3</ele>
        <time>2022-08-20T15:12:12Z</time>
      </trkpt>
      <trkpt lat="25.4960360" lon="-100.6653490">
        <ele>2407.3</ele>
        <time>2022-08-20T15:12:13Z</time>
      </trkpt>
      <trkpt lat="25.4960360" lon="-100.6653490">
        <ele>2407.3</ele>
        <time>2022-08-20T15:12:14Z</time>
      </trkpt>
      <trkpt lat="25.4960360" lon="-100.6653490">
        <ele>2407.3</ele>
        <time>2022-08-20T15:12:15Z</time>
      </trkpt>
      <trkpt lat="25.4960360" lon="-100.6653490">
        <ele>2407.3</ele>
        <time>2022-08-20T15:12:16Z</time>
      </trkpt>
      <trkpt lat="25.4960360" lon="-100.6653490">
        <ele>2407.3</ele>
        <time>2022-08-20T15:12:17Z</time>
      </trkpt>
      <trkpt lat="25.4960360" lon="-100.6653490">
        <ele>2407.3</ele>
        <time>2022-08-20T15:12:18Z</time>
      </trkpt>
      <trkpt lat="25.4960360" lon="-100.6653490">
        <ele>2407.3</ele>
        <time>2022-08-20T15:12:19Z</time>
      </trkpt>
      <trkpt lat="25.4960360" lon="-100.6653490">
        <ele>2407.3</ele>
        <time>2022-08-20T15:12:20Z</time>
      </trkpt>
      <trkpt lat="25.4960360" lon="-100.6653490">
        <ele>2407.3</ele>
        <time>2022-08-20T15:12:21Z</time>
      </trkpt>
      <trkpt lat="25.4960360" lon="-100.6653490">
        <ele>2407.3</ele>
        <time>2022-08-20T15:12:22Z</time>
      </trkpt>
      <trkpt lat="25.4960360" lon="-100.6653490">
        <ele>2407.3</ele>
        <time>2022-08-20T15:12:23Z</time>
      </trkpt>
      <trkpt lat="25.4960360" lon="-100.6653490">
        <ele>2407.3</ele>
        <time>2022-08-20T15:12:24Z</time>
      </trkpt>
      <trkpt lat="25.4960360" lon="-100.6653490">
        <ele>2407.3</ele>
        <time>2022-08-20T15:12:25Z</time>
      </trkpt>
      <trkpt lat="25.4960360" lon="-100.6653490">
        <ele>2407.3</ele>
        <time>2022-08-20T15:12:26Z</time>
      </trkpt>
      <trkpt lat="25.4960360" lon="-100.6653490">
        <ele>2407.3</ele>
        <time>2022-08-20T15:12:27Z</time>
      </trkpt>
      <trkpt lat="25.4960360" lon="-100.6653490">
        <ele>2407.3</ele>
        <time>2022-08-20T15:12:28Z</time>
      </trkpt>
      <trkpt lat="25.4960360" lon="-100.6653490">
        <ele>2407.3</ele>
        <time>2022-08-20T15:12:29Z</time>
      </trkpt>
      <trkpt lat="25.4960360" lon="-100.6653490">
        <ele>2407.3</ele>
        <time>2022-08-20T15:12:30Z</time>
      </trkpt>
      <trkpt lat="25.4960360" lon="-100.6653490">
        <ele>2407.3</ele>
        <time>2022-08-20T15:12:31Z</time>
      </trkpt>
      <trkpt lat="25.4960360" lon="-100.6653490">
        <ele>2407.3</ele>
        <time>2022-08-20T15:12:32Z</time>
      </trkpt>
      <trkpt lat="25.4960360" lon="-100.6653490">
        <ele>2407.3</ele>
        <time>2022-08-20T15:12:33Z</time>
      </trkpt>
      <trkpt lat="25.4960360" lon="-100.6653490">
        <ele>2407.3</ele>
        <time>2022-08-20T15:12:34Z</time>
      </trkpt>
      <trkpt lat="25.4960360" lon="-100.6653490">
        <ele>2407.3</ele>
        <time>2022-08-20T15:12:35Z</time>
      </trkpt>
      <trkpt lat="25.4960360" lon="-100.6653490">
        <ele>2407.3</ele>
        <time>2022-08-20T15:12:36Z</time>
      </trkpt>
      <trkpt lat="25.4960360" lon="-100.6653490">
        <ele>2407.3</ele>
        <time>2022-08-20T15:12:37Z</time>
      </trkpt>
      <trkpt lat="25.4960360" lon="-100.6653490">
        <ele>2407.3</ele>
        <time>2022-08-20T15:12:38Z</time>
      </trkpt>
      <trkpt lat="25.4960360" lon="-100.6653490">
        <ele>2407.3</ele>
        <time>2022-08-20T15:12:39Z</time>
      </trkpt>
      <trkpt lat="25.4960360" lon="-100.6653490">
        <ele>2407.3</ele>
        <time>2022-08-20T15:12:40Z</time>
      </trkpt>
      <trkpt lat="25.4960360" lon="-100.6653490">
        <ele>2407.3</ele>
        <time>2022-08-20T15:12:41Z</time>
      </trkpt>
      <trkpt lat="25.4960360" lon="-100.6653490">
        <ele>2407.3</ele>
        <time>2022-08-20T15:12:42Z</time>
      </trkpt>
      <trkpt lat="25.4960360" lon="-100.6653490">
        <ele>2407.3</ele>
        <time>2022-08-20T15:12:43Z</time>
      </trkpt>
      <trkpt lat="25.4960360" lon="-100.6653490">
        <ele>2407.3</ele>
        <time>2022-08-20T15:12:44Z</time>
      </trkpt>
      <trkpt lat="25.4960360" lon="-100.6653490">
        <ele>2407.3</ele>
        <time>2022-08-20T15:12:45Z</time>
      </trkpt>
      <trkpt lat="25.4960360" lon="-100.6653490">
        <ele>2407.3</ele>
        <time>2022-08-20T15:12:46Z</time>
      </trkpt>
      <trkpt lat="25.4960360" lon="-100.6653490">
        <ele>2407.3</ele>
        <time>2022-08-20T15:12:47Z</time>
      </trkpt>
      <trkpt lat="25.4960360" lon="-100.6653490">
        <ele>2407.3</ele>
        <time>2022-08-20T15:12:48Z</time>
      </trkpt>
      <trkpt lat="25.4960360" lon="-100.6653490">
        <ele>2407.3</ele>
        <time>2022-08-20T15:12:49Z</time>
      </trkpt>
      <trkpt lat="25.4960360" lon="-100.6653490">
        <ele>2407.3</ele>
        <time>2022-08-20T15:12:50Z</time>
      </trkpt>
      <trkpt lat="25.4960360" lon="-100.6653490">
        <ele>2407.3</ele>
        <time>2022-08-20T15:12:51Z</time>
      </trkpt>
      <trkpt lat="25.4960360" lon="-100.6653490">
        <ele>2407.3</ele>
        <time>2022-08-20T15:12:52Z</time>
      </trkpt>
      <trkpt lat="25.4960360" lon="-100.6653490">
        <ele>2407.3</ele>
        <time>2022-08-20T15:12:53Z</time>
      </trkpt>
      <trkpt lat="25.4960360" lon="-100.6653490">
        <ele>2407.3</ele>
        <time>2022-08-20T15:12:54Z</time>
      </trkpt>
      <trkpt lat="25.4960360" lon="-100.6653490">
        <ele>2407.3</ele>
        <time>2022-08-20T15:12:55Z</time>
      </trkpt>
      <trkpt lat="25.4960360" lon="-100.6653490">
        <ele>2407.3</ele>
        <time>2022-08-20T15:12:56Z</time>
      </trkpt>
      <trkpt lat="25.4960360" lon="-100.6653490">
        <ele>2407.3</ele>
        <time>2022-08-20T15:12:57Z</time>
      </trkpt>
      <trkpt lat="25.4960360" lon="-100.6653490">
        <ele>2407.3</ele>
        <time>2022-08-20T15:12:58Z</time>
      </trkpt>
      <trkpt lat="25.4960360" lon="-100.6653490">
        <ele>2407.3</ele>
        <time>2022-08-20T15:12:59Z</time>
      </trkpt>
      <trkpt lat="25.4960360" lon="-100.6653490">
        <ele>2407.3</ele>
        <time>2022-08-20T15:13:00Z</time>
      </trkpt>
      <trkpt lat="25.4960360" lon="-100.6653490">
        <ele>2407.3</ele>
        <time>2022-08-20T15:13:01Z</time>
      </trkpt>
      <trkpt lat="25.4960360" lon="-100.6653490">
        <ele>2407.3</ele>
        <time>2022-08-20T15:13:02Z</time>
      </trkpt>
      <trkpt lat="25.4960360" lon="-100.6653490">
        <ele>2407.3</ele>
        <time>2022-08-20T15:13:03Z</time>
      </trkpt>
      <trkpt lat="25.4960360" lon="-100.6653490">
        <ele>2407.3</ele>
        <time>2022-08-20T15:13:04Z</time>
      </trkpt>
      <trkpt lat="25.4960360" lon="-100.6653490">
        <ele>2407.3</ele>
        <time>2022-08-20T15:13:05Z</time>
      </trkpt>
      <trkpt lat="25.4960360" lon="-100.6653490">
        <ele>2407.3</ele>
        <time>2022-08-20T15:13:06Z</time>
      </trkpt>
      <trkpt lat="25.4960360" lon="-100.6653490">
        <ele>2407.3</ele>
        <time>2022-08-20T15:13:07Z</time>
      </trkpt>
      <trkpt lat="25.4960360" lon="-100.6653490">
        <ele>2407.3</ele>
        <time>2022-08-20T15:13:08Z</time>
      </trkpt>
      <trkpt lat="25.4960360" lon="-100.6653490">
        <ele>2407.3</ele>
        <time>2022-08-20T15:13:09Z</time>
      </trkpt>
      <trkpt lat="25.4960360" lon="-100.6653490">
        <ele>2407.3</ele>
        <time>2022-08-20T15:13:10Z</time>
      </trkpt>
      <trkpt lat="25.4960360" lon="-100.6653490">
        <ele>2407.3</ele>
        <time>2022-08-20T15:13:11Z</time>
      </trkpt>
      <trkpt lat="25.4960360" lon="-100.6653490">
        <ele>2407.3</ele>
        <time>2022-08-20T15:13:12Z</time>
      </trkpt>
      <trkpt lat="25.4960360" lon="-100.6653490">
        <ele>2407.3</ele>
        <time>2022-08-20T15:13:13Z</time>
      </trkpt>
      <trkpt lat="25.4960360" lon="-100.6653490">
        <ele>2407.3</ele>
        <time>2022-08-20T15:13:14Z</time>
      </trkpt>
      <trkpt lat="25.4960360" lon="-100.6653490">
        <ele>2407.3</ele>
        <time>2022-08-20T15:13:15Z</time>
      </trkpt>
      <trkpt lat="25.4960360" lon="-100.6653490">
        <ele>2407.3</ele>
        <time>2022-08-20T15:13:16Z</time>
      </trkpt>
      <trkpt lat="25.4960360" lon="-100.6653490">
        <ele>2407.3</ele>
        <time>2022-08-20T15:13:17Z</time>
      </trkpt>
      <trkpt lat="25.4960360" lon="-100.6653490">
        <ele>2407.3</ele>
        <time>2022-08-20T15:13:18Z</time>
      </trkpt>
      <trkpt lat="25.4960360" lon="-100.6653490">
        <ele>2407.3</ele>
        <time>2022-08-20T15:13:19Z</time>
      </trkpt>
      <trkpt lat="25.4960360" lon="-100.6653490">
        <ele>2407.3</ele>
        <time>2022-08-20T15:13:20Z</time>
      </trkpt>
      <trkpt lat="25.4960360" lon="-100.6653490">
        <ele>2407.3</ele>
        <time>2022-08-20T15:13:21Z</time>
      </trkpt>
      <trkpt lat="25.4960360" lon="-100.6653490">
        <ele>2407.3</ele>
        <time>2022-08-20T15:13:22Z</time>
      </trkpt>
      <trkpt lat="25.4960360" lon="-100.6653490">
        <ele>2407.3</ele>
        <time>2022-08-20T15:13:23Z</time>
      </trkpt>
      <trkpt lat="25.4960360" lon="-100.6653490">
        <ele>2407.3</ele>
        <time>2022-08-20T15:13:24Z</time>
      </trkpt>
      <trkpt lat="25.4960360" lon="-100.6653490">
        <ele>2407.3</ele>
        <time>2022-08-20T15:13:25Z</time>
      </trkpt>
      <trkpt lat="25.4960360" lon="-100.6653490">
        <ele>2407.3</ele>
        <time>2022-08-20T15:13:26Z</time>
      </trkpt>
      <trkpt lat="25.4960360" lon="-100.6653490">
        <ele>2407.3</ele>
        <time>2022-08-20T15:13:27Z</time>
      </trkpt>
      <trkpt lat="25.4960360" lon="-100.6653490">
        <ele>2407.3</ele>
        <time>2022-08-20T15:13:28Z</time>
      </trkpt>
      <trkpt lat="25.4960360" lon="-100.6653490">
        <ele>2407.3</ele>
        <time>2022-08-20T15:13:29Z</time>
      </trkpt>
      <trkpt lat="25.4960360" lon="-100.6653490">
        <ele>2407.3</ele>
        <time>2022-08-20T15:13:30Z</time>
      </trkpt>
      <trkpt lat="25.4960360" lon="-100.6653490">
        <ele>2407.3</ele>
        <time>2022-08-20T15:13:31Z</time>
      </trkpt>
      <trkpt lat="25.4960360" lon="-100.6653490">
        <ele>2407.3</ele>
        <time>2022-08-20T15:13:32Z</time>
      </trkpt>
      <trkpt lat="25.4960360" lon="-100.6653490">
        <ele>2407.3</ele>
        <time>2022-08-20T15:13:33Z</time>
      </trkpt>
      <trkpt lat="25.4960360" lon="-100.6653490">
        <ele>2407.3</ele>
        <time>2022-08-20T15:13:34Z</time>
      </trkpt>
      <trkpt lat="25.4960360" lon="-100.6653490">
        <ele>2407.3</ele>
        <time>2022-08-20T15:13:35Z</time>
      </trkpt>
      <trkpt lat="25.4960360" lon="-100.6653490">
        <ele>2407.3</ele>
        <time>2022-08-20T15:13:36Z</time>
      </trkpt>
      <trkpt lat="25.4960360" lon="-100.6653490">
        <ele>2407.3</ele>
        <time>2022-08-20T15:13:37Z</time>
      </trkpt>
      <trkpt lat="25.4960360" lon="-100.6653490">
        <ele>2407.3</ele>
        <time>2022-08-20T15:13:38Z</time>
      </trkpt>
      <trkpt lat="25.4960360" lon="-100.6653490">
        <ele>2407.3</ele>
        <time>2022-08-20T15:13:39Z</time>
      </trkpt>
      <trkpt lat="25.4960360" lon="-100.6653490">
        <ele>2407.3</ele>
        <time>2022-08-20T15:13:40Z</time>
      </trkpt>
      <trkpt lat="25.4960360" lon="-100.6653490">
        <ele>2407.3</ele>
        <time>2022-08-20T15:13:41Z</time>
      </trkpt>
      <trkpt lat="25.4960360" lon="-100.6653490">
        <ele>2407.3</ele>
        <time>2022-08-20T15:13:42Z</time>
      </trkpt>
      <trkpt lat="25.4960360" lon="-100.6653490">
        <ele>2407.3</ele>
        <time>2022-08-20T15:13:43Z</time>
      </trkpt>
      <trkpt lat="25.4960360" lon="-100.6653490">
        <ele>2407.3</ele>
        <time>2022-08-20T15:13:44Z</time>
      </trkpt>
      <trkpt lat="25.4960360" lon="-100.6653490">
        <ele>2407.3</ele>
        <time>2022-08-20T15:13:45Z</time>
      </trkpt>
      <trkpt lat="25.4960360" lon="-100.6653490">
        <ele>2407.3</ele>
        <time>2022-08-20T15:13:46Z</time>
      </trkpt>
      <trkpt lat="25.4960360" lon="-100.6653490">
        <ele>2407.3</ele>
        <time>2022-08-20T15:13:47Z</time>
      </trkpt>
      <trkpt lat="25.4960360" lon="-100.6653490">
        <ele>2407.3</ele>
        <time>2022-08-20T15:13:48Z</time>
      </trkpt>
      <trkpt lat="25.4960360" lon="-100.6653490">
        <ele>2407.3</ele>
        <time>2022-08-20T15:13:49Z</time>
      </trkpt>
      <trkpt lat="25.4960360" lon="-100.6653490">
        <ele>2407.3</ele>
        <time>2022-08-20T15:13:50Z</time>
      </trkpt>
      <trkpt lat="25.4960360" lon="-100.6653490">
        <ele>2407.3</ele>
        <time>2022-08-20T15:13:51Z</time>
      </trkpt>
      <trkpt lat="25.4960360" lon="-100.6653490">
        <ele>2407.3</ele>
        <time>2022-08-20T15:13:52Z</time>
      </trkpt>
      <trkpt lat="25.4960360" lon="-100.6653490">
        <ele>2407.3</ele>
        <time>2022-08-20T15:13:53Z</time>
      </trkpt>
      <trkpt lat="25.4960360" lon="-100.6653490">
        <ele>2407.3</ele>
        <time>2022-08-20T15:13:54Z</time>
      </trkpt>
      <trkpt lat="25.4960360" lon="-100.6653490">
        <ele>2407.3</ele>
        <time>2022-08-20T15:13:55Z</time>
      </trkpt>
      <trkpt lat="25.4960360" lon="-100.6653490">
        <ele>2407.3</ele>
        <time>2022-08-20T15:13:56Z</time>
      </trkpt>
      <trkpt lat="25.4960360" lon="-100.6653490">
        <ele>2407.3</ele>
        <time>2022-08-20T15:13:57Z</time>
      </trkpt>
      <trkpt lat="25.4960360" lon="-100.6653490">
        <ele>2407.3</ele>
        <time>2022-08-20T15:13:58Z</time>
      </trkpt>
      <trkpt lat="25.4960360" lon="-100.6653490">
        <ele>2407.3</ele>
        <time>2022-08-20T15:13:59Z</time>
      </trkpt>
      <trkpt lat="25.4960360" lon="-100.6653490">
        <ele>2407.3</ele>
        <time>2022-08-20T15:14:00Z</time>
      </trkpt>
      <trkpt lat="25.4960360" lon="-100.6653490">
        <ele>2407.3</ele>
        <time>2022-08-20T15:14:01Z</time>
      </trkpt>
      <trkpt lat="25.4960360" lon="-100.6653490">
        <ele>2407.3</ele>
        <time>2022-08-20T15:14:02Z</time>
      </trkpt>
      <trkpt lat="25.4960360" lon="-100.6653490">
        <ele>2407.3</ele>
        <time>2022-08-20T15:14:03Z</time>
      </trkpt>
      <trkpt lat="25.4960360" lon="-100.6653490">
        <ele>2407.3</ele>
        <time>2022-08-20T15:14:04Z</time>
      </trkpt>
      <trkpt lat="25.4960360" lon="-100.6653490">
        <ele>2407.3</ele>
        <time>2022-08-20T15:14:05Z</time>
      </trkpt>
      <trkpt lat="25.4960360" lon="-100.6653490">
        <ele>2407.3</ele>
        <time>2022-08-20T15:14:06Z</time>
      </trkpt>
      <trkpt lat="25.4960360" lon="-100.6653490">
        <ele>2407.3</ele>
        <time>2022-08-20T15:14:07Z</time>
      </trkpt>
      <trkpt lat="25.4960360" lon="-100.6653490">
        <ele>2407.3</ele>
        <time>2022-08-20T15:14:08Z</time>
      </trkpt>
      <trkpt lat="25.4960360" lon="-100.6653490">
        <ele>2407.3</ele>
        <time>2022-08-20T15:14:09Z</time>
      </trkpt>
      <trkpt lat="25.4960360" lon="-100.6653490">
        <ele>2407.3</ele>
        <time>2022-08-20T15:14:10Z</time>
      </trkpt>
      <trkpt lat="25.4960360" lon="-100.6653490">
        <ele>2407.3</ele>
        <time>2022-08-20T15:14:11Z</time>
      </trkpt>
      <trkpt lat="25.4960360" lon="-100.6653490">
        <ele>2407.3</ele>
        <time>2022-08-20T15:14:12Z</time>
      </trkpt>
      <trkpt lat="25.4960360" lon="-100.6653490">
        <ele>2407.3</ele>
        <time>2022-08-20T15:14:13Z</time>
      </trkpt>
      <trkpt lat="25.4960360" lon="-100.6653490">
        <ele>2407.3</ele>
        <time>2022-08-20T15:14:14Z</time>
      </trkpt>
      <trkpt lat="25.4960360" lon="-100.6653490">
        <ele>2407.3</ele>
        <time>2022-08-20T15:14:15Z</time>
      </trkpt>
      <trkpt lat="25.4960360" lon="-100.6653490">
        <ele>2407.3</ele>
        <time>2022-08-20T15:14:16Z</time>
      </trkpt>
      <trkpt lat="25.4960360" lon="-100.6653490">
        <ele>2407.3</ele>
        <time>2022-08-20T15:14:17Z</time>
      </trkpt>
      <trkpt lat="25.4960360" lon="-100.6653490">
        <ele>2407.3</ele>
        <time>2022-08-20T15:14:18Z</time>
      </trkpt>
      <trkpt lat="25.4960360" lon="-100.6653490">
        <ele>2407.3</ele>
        <time>2022-08-20T15:14:19Z</time>
      </trkpt>
      <trkpt lat="25.4960360" lon="-100.6653490">
        <ele>2407.3</ele>
        <time>2022-08-20T15:14:20Z</time>
      </trkpt>
      <trkpt lat="25.4960360" lon="-100.6653490">
        <ele>2407.3</ele>
        <time>2022-08-20T15:14:21Z</time>
      </trkpt>
      <trkpt lat="25.4960360" lon="-100.6653490">
        <ele>2407.3</ele>
        <time>2022-08-20T15:14:22Z</time>
      </trkpt>
      <trkpt lat="25.4960360" lon="-100.6653490">
        <ele>2407.3</ele>
        <time>2022-08-20T15:14:23Z</time>
      </trkpt>
      <trkpt lat="25.4960360" lon="-100.6653490">
        <ele>2407.3</ele>
        <time>2022-08-20T15:14:24Z</time>
      </trkpt>
      <trkpt lat="25.4960360" lon="-100.6653490">
        <ele>2407.3</ele>
        <time>2022-08-20T15:14:25Z</time>
      </trkpt>
      <trkpt lat="25.4960360" lon="-100.6653490">
        <ele>2407.3</ele>
        <time>2022-08-20T15:14:26Z</time>
      </trkpt>
      <trkpt lat="25.4960360" lon="-100.6653490">
        <ele>2407.3</ele>
        <time>2022-08-20T15:14:27Z</time>
      </trkpt>
      <trkpt lat="25.4960360" lon="-100.6653490">
        <ele>2407.3</ele>
        <time>2022-08-20T15:14:28Z</time>
      </trkpt>
      <trkpt lat="25.4960360" lon="-100.6653490">
        <ele>2407.3</ele>
        <time>2022-08-20T15:14:29Z</time>
      </trkpt>
      <trkpt lat="25.4960360" lon="-100.6653490">
        <ele>2407.3</ele>
        <time>2022-08-20T15:14:30Z</time>
      </trkpt>
      <trkpt lat="25.4960360" lon="-100.6653490">
        <ele>2407.3</ele>
        <time>2022-08-20T15:14:31Z</time>
      </trkpt>
      <trkpt lat="25.4960360" lon="-100.6653490">
        <ele>2407.3</ele>
        <time>2022-08-20T15:14:32Z</time>
      </trkpt>
      <trkpt lat="25.4960360" lon="-100.6653490">
        <ele>2407.3</ele>
        <time>2022-08-20T15:14:33Z</time>
      </trkpt>
      <trkpt lat="25.4960360" lon="-100.6653490">
        <ele>2407.3</ele>
        <time>2022-08-20T15:14:34Z</time>
      </trkpt>
      <trkpt lat="25.4960360" lon="-100.6653490">
        <ele>2407.3</ele>
        <time>2022-08-20T15:14:35Z</time>
      </trkpt>
      <trkpt lat="25.4960360" lon="-100.6653490">
        <ele>2407.3</ele>
        <time>2022-08-20T15:14:36Z</time>
      </trkpt>
      <trkpt lat="25.4960360" lon="-100.6653490">
        <ele>2407.3</ele>
        <time>2022-08-20T15:14:37Z</time>
      </trkpt>
      <trkpt lat="25.4960360" lon="-100.6653490">
        <ele>2407.3</ele>
        <time>2022-08-20T15:14:38Z</time>
      </trkpt>
      <trkpt lat="25.4960360" lon="-100.6653490">
        <ele>2407.3</ele>
        <time>2022-08-20T15:14:39Z</time>
      </trkpt>
      <trkpt lat="25.4960360" lon="-100.6653490">
        <ele>2407.3</ele>
        <time>2022-08-20T15:14:40Z</time>
      </trkpt>
      <trkpt lat="25.4960360" lon="-100.6653490">
        <ele>2407.3</ele>
        <time>2022-08-20T15:14:41Z</time>
      </trkpt>
      <trkpt lat="25.4960360" lon="-100.6653490">
        <ele>2407.3</ele>
        <time>2022-08-20T15:14:42Z</time>
      </trkpt>
      <trkpt lat="25.4960360" lon="-100.6653490">
        <ele>2407.3</ele>
        <time>2022-08-20T15:14:43Z</time>
      </trkpt>
      <trkpt lat="25.4960360" lon="-100.6653490">
        <ele>2407.3</ele>
        <time>2022-08-20T15:14:44Z</time>
      </trkpt>
      <trkpt lat="25.4960360" lon="-100.6653490">
        <ele>2407.3</ele>
        <time>2022-08-20T15:14:45Z</time>
      </trkpt>
      <trkpt lat="25.4960360" lon="-100.6653490">
        <ele>2407.3</ele>
        <time>2022-08-20T15:14:46Z</time>
      </trkpt>
      <trkpt lat="25.4960360" lon="-100.6653490">
        <ele>2407.3</ele>
        <time>2022-08-20T15:14:47Z</time>
      </trkpt>
      <trkpt lat="25.4960360" lon="-100.6653490">
        <ele>2407.3</ele>
        <time>2022-08-20T15:14:48Z</time>
      </trkpt>
      <trkpt lat="25.4960360" lon="-100.6653490">
        <ele>2407.3</ele>
        <time>2022-08-20T15:14:49Z</time>
      </trkpt>
      <trkpt lat="25.4960360" lon="-100.6653490">
        <ele>2407.3</ele>
        <time>2022-08-20T15:14:50Z</time>
      </trkpt>
      <trkpt lat="25.4960360" lon="-100.6653490">
        <ele>2407.3</ele>
        <time>2022-08-20T15:14:51Z</time>
      </trkpt>
      <trkpt lat="25.4960360" lon="-100.6653490">
        <ele>2407.3</ele>
        <time>2022-08-20T15:14:52Z</time>
      </trkpt>
      <trkpt lat="25.4960360" lon="-100.6653490">
        <ele>2407.3</ele>
        <time>2022-08-20T15:14:53Z</time>
      </trkpt>
      <trkpt lat="25.4960360" lon="-100.6653490">
        <ele>2407.3</ele>
        <time>2022-08-20T15:14:54Z</time>
      </trkpt>
      <trkpt lat="25.4960360" lon="-100.6653490">
        <ele>2407.3</ele>
        <time>2022-08-20T15:14:55Z</time>
      </trkpt>
      <trkpt lat="25.4960360" lon="-100.6653490">
        <ele>2407.3</ele>
        <time>2022-08-20T15:14:56Z</time>
      </trkpt>
      <trkpt lat="25.4960360" lon="-100.6653490">
        <ele>2407.3</ele>
        <time>2022-08-20T15:14:57Z</time>
      </trkpt>
      <trkpt lat="25.4960360" lon="-100.6653490">
        <ele>2407.3</ele>
        <time>2022-08-20T15:14:58Z</time>
      </trkpt>
      <trkpt lat="25.4960360" lon="-100.6653490">
        <ele>2407.3</ele>
        <time>2022-08-20T15:14:59Z</time>
      </trkpt>
      <trkpt lat="25.4960360" lon="-100.6653490">
        <ele>2407.3</ele>
        <time>2022-08-20T15:15:00Z</time>
      </trkpt>
      <trkpt lat="25.4960360" lon="-100.6653490">
        <ele>2407.3</ele>
        <time>2022-08-20T15:15:01Z</time>
      </trkpt>
      <trkpt lat="25.4960360" lon="-100.6653490">
        <ele>2407.3</ele>
        <time>2022-08-20T15:15:02Z</time>
      </trkpt>
      <trkpt lat="25.4960360" lon="-100.6653490">
        <ele>2407.3</ele>
        <time>2022-08-20T15:15:03Z</time>
      </trkpt>
      <trkpt lat="25.4960360" lon="-100.6653490">
        <ele>2407.3</ele>
        <time>2022-08-20T15:15:04Z</time>
      </trkpt>
      <trkpt lat="25.4960360" lon="-100.6653490">
        <ele>2407.3</ele>
        <time>2022-08-20T15:15:05Z</time>
      </trkpt>
      <trkpt lat="25.4960360" lon="-100.6653490">
        <ele>2407.3</ele>
        <time>2022-08-20T15:15:06Z</time>
      </trkpt>
      <trkpt lat="25.4960360" lon="-100.6653490">
        <ele>2407.3</ele>
        <time>2022-08-20T15:15:07Z</time>
      </trkpt>
      <trkpt lat="25.4960360" lon="-100.6653490">
        <ele>2407.3</ele>
        <time>2022-08-20T15:15:08Z</time>
      </trkpt>
      <trkpt lat="25.4960360" lon="-100.6653490">
        <ele>2407.3</ele>
        <time>2022-08-20T15:15:09Z</time>
      </trkpt>
      <trkpt lat="25.4960360" lon="-100.6653490">
        <ele>2407.3</ele>
        <time>2022-08-20T15:15:10Z</time>
      </trkpt>
      <trkpt lat="25.4960360" lon="-100.6653490">
        <ele>2407.3</ele>
        <time>2022-08-20T15:15:11Z</time>
      </trkpt>
      <trkpt lat="25.4960360" lon="-100.6653490">
        <ele>2407.3</ele>
        <time>2022-08-20T15:15:12Z</time>
      </trkpt>
      <trkpt lat="25.4960360" lon="-100.6653490">
        <ele>2407.3</ele>
        <time>2022-08-20T15:15:13Z</time>
      </trkpt>
      <trkpt lat="25.4960360" lon="-100.6653490">
        <ele>2407.3</ele>
        <time>2022-08-20T15:15:14Z</time>
      </trkpt>
      <trkpt lat="25.4960360" lon="-100.6653490">
        <ele>2407.3</ele>
        <time>2022-08-20T15:15:15Z</time>
      </trkpt>
      <trkpt lat="25.4960360" lon="-100.6653490">
        <ele>2407.3</ele>
        <time>2022-08-20T15:15:16Z</time>
      </trkpt>
      <trkpt lat="25.4960360" lon="-100.6653490">
        <ele>2407.3</ele>
        <time>2022-08-20T15:15:17Z</time>
      </trkpt>
      <trkpt lat="25.4960360" lon="-100.6653490">
        <ele>2407.3</ele>
        <time>2022-08-20T15:15:18Z</time>
      </trkpt>
      <trkpt lat="25.4960360" lon="-100.6653490">
        <ele>2407.3</ele>
        <time>2022-08-20T15:15:19Z</time>
      </trkpt>
      <trkpt lat="25.4960360" lon="-100.6653490">
        <ele>2407.3</ele>
        <time>2022-08-20T15:15:20Z</time>
      </trkpt>
      <trkpt lat="25.4960360" lon="-100.6653490">
        <ele>2407.3</ele>
        <time>2022-08-20T15:15:21Z</time>
      </trkpt>
      <trkpt lat="25.4960360" lon="-100.6653490">
        <ele>2407.3</ele>
        <time>2022-08-20T15:15:22Z</time>
      </trkpt>
      <trkpt lat="25.4960360" lon="-100.6653490">
        <ele>2407.3</ele>
        <time>2022-08-20T15:15:23Z</time>
      </trkpt>
      <trkpt lat="25.4960360" lon="-100.6653490">
        <ele>2407.3</ele>
        <time>2022-08-20T15:15:24Z</time>
      </trkpt>
      <trkpt lat="25.4960360" lon="-100.6653490">
        <ele>2407.3</ele>
        <time>2022-08-20T15:15:25Z</time>
      </trkpt>
      <trkpt lat="25.4960360" lon="-100.6653490">
        <ele>2407.3</ele>
        <time>2022-08-20T15:15:26Z</time>
      </trkpt>
      <trkpt lat="25.4960360" lon="-100.6653490">
        <ele>2407.3</ele>
        <time>2022-08-20T15:15:27Z</time>
      </trkpt>
      <trkpt lat="25.4960360" lon="-100.6653490">
        <ele>2407.3</ele>
        <time>2022-08-20T15:15:28Z</time>
      </trkpt>
      <trkpt lat="25.4960360" lon="-100.6653490">
        <ele>2407.3</ele>
        <time>2022-08-20T15:15:29Z</time>
      </trkpt>
      <trkpt lat="25.4960360" lon="-100.6653490">
        <ele>2407.3</ele>
        <time>2022-08-20T15:15:30Z</time>
      </trkpt>
      <trkpt lat="25.4960360" lon="-100.6653490">
        <ele>2407.3</ele>
        <time>2022-08-20T15:15:31Z</time>
      </trkpt>
      <trkpt lat="25.4960360" lon="-100.6653500">
        <ele>2407.3</ele>
        <time>2022-08-20T15:15:32Z</time>
      </trkpt>
      <trkpt lat="25.4960360" lon="-100.6653500">
        <ele>2407.3</ele>
        <time>2022-08-20T15:15:33Z</time>
      </trkpt>
      <trkpt lat="25.4960360" lon="-100.6653500">
        <ele>2407.3</ele>
        <time>2022-08-20T15:15:34Z</time>
      </trkpt>
      <trkpt lat="25.4960360" lon="-100.6653500">
        <ele>2407.3</ele>
        <time>2022-08-20T15:15:35Z</time>
      </trkpt>
      <trkpt lat="25.4960360" lon="-100.6653500">
        <ele>2407.3</ele>
        <time>2022-08-20T15:15:36Z</time>
      </trkpt>
      <trkpt lat="25.4960360" lon="-100.6653500">
        <ele>2407.3</ele>
        <time>2022-08-20T15:15:37Z</time>
      </trkpt>
      <trkpt lat="25.4960360" lon="-100.6653500">
        <ele>2407.3</ele>
        <time>2022-08-20T15:15:38Z</time>
      </trkpt>
      <trkpt lat="25.4960360" lon="-100.6653500">
        <ele>2407.3</ele>
        <time>2022-08-20T15:15:39Z</time>
      </trkpt>
      <trkpt lat="25.4960360" lon="-100.6653500">
        <ele>2407.3</ele>
        <time>2022-08-20T15:15:40Z</time>
      </trkpt>
      <trkpt lat="25.4960360" lon="-100.6653500">
        <ele>2407.3</ele>
        <time>2022-08-20T15:15:41Z</time>
      </trkpt>
      <trkpt lat="25.4960360" lon="-100.6653500">
        <ele>2407.3</ele>
        <time>2022-08-20T15:15:42Z</time>
      </trkpt>
      <trkpt lat="25.4960360" lon="-100.6653500">
        <ele>2407.3</ele>
        <time>2022-08-20T15:15:43Z</time>
      </trkpt>
      <trkpt lat="25.4960360" lon="-100.6653500">
        <ele>2407.3</ele>
        <time>2022-08-20T15:15:44Z</time>
      </trkpt>
      <trkpt lat="25.4960360" lon="-100.6653500">
        <ele>2407.3</ele>
        <time>2022-08-20T15:15:45Z</time>
      </trkpt>
      <trkpt lat="25.4960360" lon="-100.6653500">
        <ele>2407.3</ele>
        <time>2022-08-20T15:15:46Z</time>
      </trkpt>
      <trkpt lat="25.4960360" lon="-100.6653500">
        <ele>2407.3</ele>
        <time>2022-08-20T15:15:47Z</time>
      </trkpt>
      <trkpt lat="25.4960360" lon="-100.6653500">
        <ele>2407.3</ele>
        <time>2022-08-20T15:15:48Z</time>
      </trkpt>
      <trkpt lat="25.4960360" lon="-100.6653500">
        <ele>2407.3</ele>
        <time>2022-08-20T15:15:49Z</time>
      </trkpt>
      <trkpt lat="25.4960360" lon="-100.6653500">
        <ele>2407.3</ele>
        <time>2022-08-20T15:15:50Z</time>
      </trkpt>
      <trkpt lat="25.4960360" lon="-100.6653500">
        <ele>2407.3</ele>
        <time>2022-08-20T15:15:51Z</time>
      </trkpt>
      <trkpt lat="25.4960360" lon="-100.6653500">
        <ele>2407.3</ele>
        <time>2022-08-20T15:15:52Z</time>
      </trkpt>
      <trkpt lat="25.4960360" lon="-100.6653500">
        <ele>2407.3</ele>
        <time>2022-08-20T15:15:53Z</time>
      </trkpt>
      <trkpt lat="25.4960360" lon="-100.6653500">
        <ele>2407.3</ele>
        <time>2022-08-20T15:15:54Z</time>
      </trkpt>
      <trkpt lat="25.4960360" lon="-100.6653500">
        <ele>2407.3</ele>
        <time>2022-08-20T15:15:55Z</time>
      </trkpt>
      <trkpt lat="25.4960360" lon="-100.6653500">
        <ele>2407.3</ele>
        <time>2022-08-20T15:15:56Z</time>
      </trkpt>
      <trkpt lat="25.4960360" lon="-100.6653500">
        <ele>2407.3</ele>
        <time>2022-08-20T15:15:57Z</time>
      </trkpt>
      <trkpt lat="25.4960360" lon="-100.6653500">
        <ele>2407.3</ele>
        <time>2022-08-20T15:15:58Z</time>
      </trkpt>
      <trkpt lat="25.4960360" lon="-100.6653500">
        <ele>2407.3</ele>
        <time>2022-08-20T15:15:59Z</time>
      </trkpt>
      <trkpt lat="25.4960360" lon="-100.6653500">
        <ele>2407.3</ele>
        <time>2022-08-20T15:16:00Z</time>
      </trkpt>
      <trkpt lat="25.4960360" lon="-100.6653500">
        <ele>2407.3</ele>
        <time>2022-08-20T15:16:01Z</time>
      </trkpt>
      <trkpt lat="25.4960360" lon="-100.6653500">
        <ele>2407.3</ele>
        <time>2022-08-20T15:16:02Z</time>
      </trkpt>
      <trkpt lat="25.4960360" lon="-100.6653500">
        <ele>2407.3</ele>
        <time>2022-08-20T15:16:03Z</time>
      </trkpt>
      <trkpt lat="25.4960360" lon="-100.6653500">
        <ele>2407.3</ele>
        <time>2022-08-20T15:16:04Z</time>
      </trkpt>
      <trkpt lat="25.4960360" lon="-100.6653500">
        <ele>2407.3</ele>
        <time>2022-08-20T15:16:05Z</time>
      </trkpt>
      <trkpt lat="25.4960360" lon="-100.6653500">
        <ele>2407.3</ele>
        <time>2022-08-20T15:16:06Z</time>
      </trkpt>
      <trkpt lat="25.4960360" lon="-100.6653500">
        <ele>2407.3</ele>
        <time>2022-08-20T15:16:07Z</time>
      </trkpt>
      <trkpt lat="25.4960360" lon="-100.6653500">
        <ele>2407.3</ele>
        <time>2022-08-20T15:16:08Z</time>
      </trkpt>
      <trkpt lat="25.4960360" lon="-100.6653500">
        <ele>2407.3</ele>
        <time>2022-08-20T15:16:09Z</time>
      </trkpt>
      <trkpt lat="25.4960360" lon="-100.6653500">
        <ele>2407.3</ele>
        <time>2022-08-20T15:16:10Z</time>
      </trkpt>
      <trkpt lat="25.4960360" lon="-100.6653500">
        <ele>2407.3</ele>
        <time>2022-08-20T15:16:11Z</time>
      </trkpt>
      <trkpt lat="25.4960360" lon="-100.6653500">
        <ele>2407.3</ele>
        <time>2022-08-20T15:16:12Z</time>
      </trkpt>
      <trkpt lat="25.4960360" lon="-100.6653500">
        <ele>2407.3</ele>
        <time>2022-08-20T15:16:13Z</time>
      </trkpt>
      <trkpt lat="25.4960360" lon="-100.6653500">
        <ele>2407.3</ele>
        <time>2022-08-20T15:16:14Z</time>
      </trkpt>
      <trkpt lat="25.4960360" lon="-100.6653500">
        <ele>2407.3</ele>
        <time>2022-08-20T15:16:15Z</time>
      </trkpt>
      <trkpt lat="25.4960360" lon="-100.6653500">
        <ele>2407.3</ele>
        <time>2022-08-20T15:16:16Z</time>
      </trkpt>
      <trkpt lat="25.4960360" lon="-100.6653500">
        <ele>2407.3</ele>
        <time>2022-08-20T15:16:17Z</time>
      </trkpt>
      <trkpt lat="25.4960360" lon="-100.6653500">
        <ele>2407.3</ele>
        <time>2022-08-20T15:16:18Z</time>
      </trkpt>
      <trkpt lat="25.4960360" lon="-100.6653500">
        <ele>2407.3</ele>
        <time>2022-08-20T15:16:19Z</time>
      </trkpt>
      <trkpt lat="25.4960360" lon="-100.6653500">
        <ele>2407.3</ele>
        <time>2022-08-20T15:16:20Z</time>
      </trkpt>
      <trkpt lat="25.4960360" lon="-100.6653500">
        <ele>2407.3</ele>
        <time>2022-08-20T15:16:21Z</time>
      </trkpt>
      <trkpt lat="25.4960360" lon="-100.6653500">
        <ele>2407.3</ele>
        <time>2022-08-20T15:16:22Z</time>
      </trkpt>
      <trkpt lat="25.4960360" lon="-100.6653500">
        <ele>2407.3</ele>
        <time>2022-08-20T15:16:23Z</time>
      </trkpt>
      <trkpt lat="25.4960360" lon="-100.6653500">
        <ele>2407.3</ele>
        <time>2022-08-20T15:16:24Z</time>
      </trkpt>
      <trkpt lat="25.4960360" lon="-100.6653500">
        <ele>2407.3</ele>
        <time>2022-08-20T15:16:25Z</time>
      </trkpt>
      <trkpt lat="25.4960360" lon="-100.6653500">
        <ele>2407.3</ele>
        <time>2022-08-20T15:16:26Z</time>
      </trkpt>
      <trkpt lat="25.4960360" lon="-100.6653500">
        <ele>2407.3</ele>
        <time>2022-08-20T15:16:27Z</time>
      </trkpt>
      <trkpt lat="25.4960360" lon="-100.6653500">
        <ele>2407.3</ele>
        <time>2022-08-20T15:16:28Z</time>
      </trkpt>
      <trkpt lat="25.4960360" lon="-100.6653500">
        <ele>2407.3</ele>
        <time>2022-08-20T15:16:29Z</time>
      </trkpt>
      <trkpt lat="25.4960360" lon="-100.6653500">
        <ele>2407.3</ele>
        <time>2022-08-20T15:16:30Z</time>
      </trkpt>
      <trkpt lat="25.4960360" lon="-100.6653500">
        <ele>2407.3</ele>
        <time>2022-08-20T15:16:31Z</time>
      </trkpt>
      <trkpt lat="25.4960360" lon="-100.6653500">
        <ele>2407.3</ele>
        <time>2022-08-20T15:16:32Z</time>
      </trkpt>
      <trkpt lat="25.4960360" lon="-100.6653500">
        <ele>2407.3</ele>
        <time>2022-08-20T15:16:33Z</time>
      </trkpt>
      <trkpt lat="25.4960360" lon="-100.6653500">
        <ele>2407.3</ele>
        <time>2022-08-20T15:16:34Z</time>
      </trkpt>
      <trkpt lat="25.4960360" lon="-100.6653500">
        <ele>2407.3</ele>
        <time>2022-08-20T15:16:35Z</time>
      </trkpt>
      <trkpt lat="25.4960360" lon="-100.6653500">
        <ele>2407.3</ele>
        <time>2022-08-20T15:16:36Z</time>
      </trkpt>
      <trkpt lat="25.4960360" lon="-100.6653500">
        <ele>2407.3</ele>
        <time>2022-08-20T15:16:37Z</time>
      </trkpt>
      <trkpt lat="25.4960360" lon="-100.6653500">
        <ele>2407.3</ele>
        <time>2022-08-20T15:16:38Z</time>
      </trkpt>
      <trkpt lat="25.4960360" lon="-100.6653500">
        <ele>2407.3</ele>
        <time>2022-08-20T15:16:39Z</time>
      </trkpt>
      <trkpt lat="25.4960360" lon="-100.6653500">
        <ele>2407.3</ele>
        <time>2022-08-20T15:16:40Z</time>
      </trkpt>
      <trkpt lat="25.4960360" lon="-100.6653500">
        <ele>2407.3</ele>
        <time>2022-08-20T15:16:41Z</time>
      </trkpt>
      <trkpt lat="25.4960360" lon="-100.6653500">
        <ele>2407.3</ele>
        <time>2022-08-20T15:16:42Z</time>
      </trkpt>
      <trkpt lat="25.4960360" lon="-100.6653500">
        <ele>2407.3</ele>
        <time>2022-08-20T15:16:43Z</time>
      </trkpt>
      <trkpt lat="25.4960360" lon="-100.6653500">
        <ele>2407.3</ele>
        <time>2022-08-20T15:16:44Z</time>
      </trkpt>
      <trkpt lat="25.4960360" lon="-100.6653500">
        <ele>2407.3</ele>
        <time>2022-08-20T15:16:45Z</time>
      </trkpt>
      <trkpt lat="25.4960360" lon="-100.6653500">
        <ele>2407.3</ele>
        <time>2022-08-20T15:16:46Z</time>
      </trkpt>
      <trkpt lat="25.4960360" lon="-100.6653500">
        <ele>2407.3</ele>
        <time>2022-08-20T15:16:47Z</time>
      </trkpt>
      <trkpt lat="25.4960360" lon="-100.6653500">
        <ele>2407.3</ele>
        <time>2022-08-20T15:16:48Z</time>
      </trkpt>
      <trkpt lat="25.4960360" lon="-100.6653500">
        <ele>2407.3</ele>
        <time>2022-08-20T15:16:49Z</time>
      </trkpt>
      <trkpt lat="25.4960360" lon="-100.6653500">
        <ele>2407.3</ele>
        <time>2022-08-20T15:16:50Z</time>
      </trkpt>
      <trkpt lat="25.4960360" lon="-100.6653500">
        <ele>2407.3</ele>
        <time>2022-08-20T15:16:51Z</time>
      </trkpt>
      <trkpt lat="25.4960360" lon="-100.6653500">
        <ele>2407.3</ele>
        <time>2022-08-20T15:16:52Z</time>
      </trkpt>
      <trkpt lat="25.4960360" lon="-100.6653500">
        <ele>2407.3</ele>
        <time>2022-08-20T15:16:53Z</time>
      </trkpt>
      <trkpt lat="25.4960360" lon="-100.6653500">
        <ele>2407.3</ele>
        <time>2022-08-20T15:16:54Z</time>
      </trkpt>
      <trkpt lat="25.4960360" lon="-100.6653500">
        <ele>2407.3</ele>
        <time>2022-08-20T15:16:55Z</time>
      </trkpt>
      <trkpt lat="25.4960360" lon="-100.6653500">
        <ele>2407.3</ele>
        <time>2022-08-20T15:16:56Z</time>
      </trkpt>
      <trkpt lat="25.4960360" lon="-100.6653500">
        <ele>2407.3</ele>
        <time>2022-08-20T15:16:57Z</time>
      </trkpt>
      <trkpt lat="25.4960360" lon="-100.6653500">
        <ele>2407.3</ele>
        <time>2022-08-20T15:16:58Z</time>
      </trkpt>
      <trkpt lat="25.4960360" lon="-100.6653500">
        <ele>2407.3</ele>
        <time>2022-08-20T15:16:59Z</time>
      </trkpt>
      <trkpt lat="25.4960360" lon="-100.6653500">
        <ele>2407.3</ele>
        <time>2022-08-20T15:17:00Z</time>
      </trkpt>
      <trkpt lat="25.4960360" lon="-100.6653500">
        <ele>2407.3</ele>
        <time>2022-08-20T15:17:01Z</time>
      </trkpt>
      <trkpt lat="25.4960360" lon="-100.6653500">
        <ele>2407.3</ele>
        <time>2022-08-20T15:17:02Z</time>
      </trkpt>
      <trkpt lat="25.4960360" lon="-100.6653500">
        <ele>2407.3</ele>
        <time>2022-08-20T15:17:03Z</time>
      </trkpt>
      <trkpt lat="25.4960360" lon="-100.6653500">
        <ele>2407.3</ele>
        <time>2022-08-20T15:17:04Z</time>
      </trkpt>
      <trkpt lat="25.4960360" lon="-100.6653500">
        <ele>2407.3</ele>
        <time>2022-08-20T15:17:05Z</time>
      </trkpt>
      <trkpt lat="25.4960360" lon="-100.6653500">
        <ele>2407.3</ele>
        <time>2022-08-20T15:17:06Z</time>
      </trkpt>
      <trkpt lat="25.4960360" lon="-100.6653500">
        <ele>2407.3</ele>
        <time>2022-08-20T15:17:07Z</time>
      </trkpt>
      <trkpt lat="25.4960360" lon="-100.6653500">
        <ele>2407.3</ele>
        <time>2022-08-20T15:17:08Z</time>
      </trkpt>
      <trkpt lat="25.4960360" lon="-100.6653500">
        <ele>2407.3</ele>
        <time>2022-08-20T15:17:09Z</time>
      </trkpt>
      <trkpt lat="25.4960360" lon="-100.6653500">
        <ele>2407.3</ele>
        <time>2022-08-20T15:17:10Z</time>
      </trkpt>
      <trkpt lat="25.4960360" lon="-100.6653500">
        <ele>2407.3</ele>
        <time>2022-08-20T15:17:11Z</time>
      </trkpt>
      <trkpt lat="25.4960360" lon="-100.6653500">
        <ele>2407.3</ele>
        <time>2022-08-20T15:17:12Z</time>
      </trkpt>
      <trkpt lat="25.4960360" lon="-100.6653500">
        <ele>2407.3</ele>
        <time>2022-08-20T15:17:13Z</time>
      </trkpt>
      <trkpt lat="25.4960360" lon="-100.6653500">
        <ele>2407.3</ele>
        <time>2022-08-20T15:17:14Z</time>
      </trkpt>
      <trkpt lat="25.4960360" lon="-100.6653500">
        <ele>2407.3</ele>
        <time>2022-08-20T15:17:15Z</time>
      </trkpt>
      <trkpt lat="25.4960360" lon="-100.6653500">
        <ele>2407.3</ele>
        <time>2022-08-20T15:17:16Z</time>
      </trkpt>
      <trkpt lat="25.4960360" lon="-100.6653500">
        <ele>2407.3</ele>
        <time>2022-08-20T15:17:17Z</time>
      </trkpt>
      <trkpt lat="25.4960360" lon="-100.6653500">
        <ele>2407.3</ele>
        <time>2022-08-20T15:17:18Z</time>
      </trkpt>
      <trkpt lat="25.4960360" lon="-100.6653500">
        <ele>2407.3</ele>
        <time>2022-08-20T15:17:19Z</time>
      </trkpt>
      <trkpt lat="25.4960360" lon="-100.6653500">
        <ele>2407.3</ele>
        <time>2022-08-20T15:17:20Z</time>
      </trkpt>
      <trkpt lat="25.4960360" lon="-100.6653500">
        <ele>2407.3</ele>
        <time>2022-08-20T15:17:21Z</time>
      </trkpt>
      <trkpt lat="25.4960360" lon="-100.6653500">
        <ele>2407.3</ele>
        <time>2022-08-20T15:17:22Z</time>
      </trkpt>
      <trkpt lat="25.4960360" lon="-100.6653500">
        <ele>2407.3</ele>
        <time>2022-08-20T15:17:23Z</time>
      </trkpt>
      <trkpt lat="25.4960360" lon="-100.6653500">
        <ele>2407.3</ele>
        <time>2022-08-20T15:17:24Z</time>
      </trkpt>
      <trkpt lat="25.4960360" lon="-100.6653500">
        <ele>2407.3</ele>
        <time>2022-08-20T15:17:25Z</time>
      </trkpt>
      <trkpt lat="25.4960360" lon="-100.6653500">
        <ele>2407.3</ele>
        <time>2022-08-20T15:17:26Z</time>
      </trkpt>
      <trkpt lat="25.4960360" lon="-100.6653500">
        <ele>2407.3</ele>
        <time>2022-08-20T15:17:27Z</time>
      </trkpt>
      <trkpt lat="25.4960360" lon="-100.6653500">
        <ele>2407.3</ele>
        <time>2022-08-20T15:17:28Z</time>
      </trkpt>
      <trkpt lat="25.4960360" lon="-100.6653500">
        <ele>2407.3</ele>
        <time>2022-08-20T15:17:29Z</time>
      </trkpt>
      <trkpt lat="25.4960360" lon="-100.6653500">
        <ele>2407.3</ele>
        <time>2022-08-20T15:17:30Z</time>
      </trkpt>
      <trkpt lat="25.4960360" lon="-100.6653500">
        <ele>2407.3</ele>
        <time>2022-08-20T15:17:31Z</time>
      </trkpt>
      <trkpt lat="25.4960360" lon="-100.6653500">
        <ele>2407.3</ele>
        <time>2022-08-20T15:17:32Z</time>
      </trkpt>
      <trkpt lat="25.4960360" lon="-100.6653500">
        <ele>2407.3</ele>
        <time>2022-08-20T15:17:33Z</time>
      </trkpt>
      <trkpt lat="25.4960360" lon="-100.6653500">
        <ele>2407.3</ele>
        <time>2022-08-20T15:17:34Z</time>
      </trkpt>
      <trkpt lat="25.4960360" lon="-100.6653500">
        <ele>2407.3</ele>
        <time>2022-08-20T15:17:35Z</time>
      </trkpt>
      <trkpt lat="25.4960360" lon="-100.6653500">
        <ele>2407.3</ele>
        <time>2022-08-20T15:17:36Z</time>
      </trkpt>
      <trkpt lat="25.4960360" lon="-100.6653500">
        <ele>2407.3</ele>
        <time>2022-08-20T15:17:37Z</time>
      </trkpt>
      <trkpt lat="25.4960360" lon="-100.6653500">
        <ele>2407.3</ele>
        <time>2022-08-20T15:17:38Z</time>
      </trkpt>
      <trkpt lat="25.4960360" lon="-100.6653500">
        <ele>2407.3</ele>
        <time>2022-08-20T15:17:39Z</time>
      </trkpt>
      <trkpt lat="25.4960360" lon="-100.6653500">
        <ele>2407.3</ele>
        <time>2022-08-20T15:17:40Z</time>
      </trkpt>
      <trkpt lat="25.4960360" lon="-100.6653500">
        <ele>2407.3</ele>
        <time>2022-08-20T15:17:41Z</time>
      </trkpt>
      <trkpt lat="25.4960360" lon="-100.6653500">
        <ele>2407.3</ele>
        <time>2022-08-20T15:17:42Z</time>
      </trkpt>
      <trkpt lat="25.4960360" lon="-100.6653500">
        <ele>2407.3</ele>
        <time>2022-08-20T15:17:43Z</time>
      </trkpt>
      <trkpt lat="25.4960360" lon="-100.6653500">
        <ele>2407.3</ele>
        <time>2022-08-20T15:17:44Z</time>
      </trkpt>
      <trkpt lat="25.4960360" lon="-100.6653500">
        <ele>2407.3</ele>
        <time>2022-08-20T15:17:45Z</time>
      </trkpt>
      <trkpt lat="25.4960360" lon="-100.6653500">
        <ele>2407.3</ele>
        <time>2022-08-20T15:17:46Z</time>
      </trkpt>
      <trkpt lat="25.4960360" lon="-100.6653500">
        <ele>2407.3</ele>
        <time>2022-08-20T15:17:47Z</time>
      </trkpt>
      <trkpt lat="25.4960360" lon="-100.6653500">
        <ele>2407.3</ele>
        <time>2022-08-20T15:17:48Z</time>
      </trkpt>
      <trkpt lat="25.4960360" lon="-100.6653500">
        <ele>2407.3</ele>
        <time>2022-08-20T15:17:49Z</time>
      </trkpt>
      <trkpt lat="25.4960360" lon="-100.6653500">
        <ele>2407.3</ele>
        <time>2022-08-20T15:17:50Z</time>
      </trkpt>
      <trkpt lat="25.4960360" lon="-100.6653500">
        <ele>2407.3</ele>
        <time>2022-08-20T15:17:51Z</time>
      </trkpt>
      <trkpt lat="25.4960360" lon="-100.6653500">
        <ele>2407.3</ele>
        <time>2022-08-20T15:17:52Z</time>
      </trkpt>
      <trkpt lat="25.4960360" lon="-100.6653500">
        <ele>2407.3</ele>
        <time>2022-08-20T15:17:53Z</time>
      </trkpt>
      <trkpt lat="25.4960360" lon="-100.6653500">
        <ele>2407.3</ele>
        <time>2022-08-20T15:17:54Z</time>
      </trkpt>
      <trkpt lat="25.4960360" lon="-100.6653500">
        <ele>2407.3</ele>
        <time>2022-08-20T15:17:55Z</time>
      </trkpt>
      <trkpt lat="25.4960360" lon="-100.6653500">
        <ele>2407.3</ele>
        <time>2022-08-20T15:17:56Z</time>
      </trkpt>
      <trkpt lat="25.4960360" lon="-100.6653500">
        <ele>2407.3</ele>
        <time>2022-08-20T15:17:57Z</time>
      </trkpt>
      <trkpt lat="25.4960360" lon="-100.6653500">
        <ele>2407.3</ele>
        <time>2022-08-20T15:17:58Z</time>
      </trkpt>
      <trkpt lat="25.4960360" lon="-100.6653500">
        <ele>2407.3</ele>
        <time>2022-08-20T15:17:59Z</time>
      </trkpt>
      <trkpt lat="25.4960360" lon="-100.6653500">
        <ele>2407.3</ele>
        <time>2022-08-20T15:18:00Z</time>
      </trkpt>
      <trkpt lat="25.4960360" lon="-100.6653500">
        <ele>2407.3</ele>
        <time>2022-08-20T15:18:01Z</time>
      </trkpt>
      <trkpt lat="25.4960360" lon="-100.6653500">
        <ele>2407.3</ele>
        <time>2022-08-20T15:18:02Z</time>
      </trkpt>
      <trkpt lat="25.4960360" lon="-100.6653500">
        <ele>2407.3</ele>
        <time>2022-08-20T15:18:03Z</time>
      </trkpt>
      <trkpt lat="25.4960360" lon="-100.6653500">
        <ele>2407.3</ele>
        <time>2022-08-20T15:18:04Z</time>
      </trkpt>
      <trkpt lat="25.4960360" lon="-100.6653500">
        <ele>2407.3</ele>
        <time>2022-08-20T15:18:05Z</time>
      </trkpt>
      <trkpt lat="25.4960360" lon="-100.6653500">
        <ele>2407.3</ele>
        <time>2022-08-20T15:18:06Z</time>
      </trkpt>
      <trkpt lat="25.4960360" lon="-100.6653500">
        <ele>2407.3</ele>
        <time>2022-08-20T15:18:07Z</time>
      </trkpt>
      <trkpt lat="25.4960360" lon="-100.6653500">
        <ele>2407.3</ele>
        <time>2022-08-20T15:18:08Z</time>
      </trkpt>
      <trkpt lat="25.4960360" lon="-100.6653500">
        <ele>2407.3</ele>
        <time>2022-08-20T15:18:09Z</time>
      </trkpt>
      <trkpt lat="25.4960360" lon="-100.6653500">
        <ele>2407.3</ele>
        <time>2022-08-20T15:18:10Z</time>
      </trkpt>
      <trkpt lat="25.4960360" lon="-100.6653500">
        <ele>2407.3</ele>
        <time>2022-08-20T15:18:11Z</time>
      </trkpt>
      <trkpt lat="25.4960360" lon="-100.6653500">
        <ele>2407.3</ele>
        <time>2022-08-20T15:18:12Z</time>
      </trkpt>
      <trkpt lat="25.4960360" lon="-100.6653500">
        <ele>2407.3</ele>
        <time>2022-08-20T15:18:13Z</time>
      </trkpt>
      <trkpt lat="25.4960360" lon="-100.6653500">
        <ele>2407.3</ele>
        <time>2022-08-20T15:18:14Z</time>
      </trkpt>
      <trkpt lat="25.4960360" lon="-100.6653500">
        <ele>2407.3</ele>
        <time>2022-08-20T15:18:15Z</time>
      </trkpt>
      <trkpt lat="25.4960360" lon="-100.6653500">
        <ele>2407.3</ele>
        <time>2022-08-20T15:18:16Z</time>
      </trkpt>
      <trkpt lat="25.4960360" lon="-100.6653500">
        <ele>2407.3</ele>
        <time>2022-08-20T15:18:17Z</time>
      </trkpt>
      <trkpt lat="25.4960360" lon="-100.6653500">
        <ele>2407.3</ele>
        <time>2022-08-20T15:18:18Z</time>
      </trkpt>
      <trkpt lat="25.4960360" lon="-100.6653500">
        <ele>2407.3</ele>
        <time>2022-08-20T15:18:19Z</time>
      </trkpt>
      <trkpt lat="25.4960360" lon="-100.6653500">
        <ele>2407.3</ele>
        <time>2022-08-20T15:18:20Z</time>
      </trkpt>
      <trkpt lat="25.4960360" lon="-100.6653500">
        <ele>2407.3</ele>
        <time>2022-08-20T15:18:21Z</time>
      </trkpt>
      <trkpt lat="25.4960360" lon="-100.6653500">
        <ele>2407.3</ele>
        <time>2022-08-20T15:18:22Z</time>
      </trkpt>
      <trkpt lat="25.4960360" lon="-100.6653500">
        <ele>2407.3</ele>
        <time>2022-08-20T15:18:23Z</time>
      </trkpt>
      <trkpt lat="25.4960360" lon="-100.6653500">
        <ele>2407.3</ele>
        <time>2022-08-20T15:18:24Z</time>
      </trkpt>
      <trkpt lat="25.4960360" lon="-100.6653500">
        <ele>2407.3</ele>
        <time>2022-08-20T15:18:25Z</time>
      </trkpt>
      <trkpt lat="25.4960360" lon="-100.6653500">
        <ele>2407.3</ele>
        <time>2022-08-20T15:18:26Z</time>
      </trkpt>
      <trkpt lat="25.4960360" lon="-100.6653500">
        <ele>2407.3</ele>
        <time>2022-08-20T15:18:27Z</time>
      </trkpt>
      <trkpt lat="25.4960360" lon="-100.6653500">
        <ele>2407.3</ele>
        <time>2022-08-20T15:18:28Z</time>
      </trkpt>
      <trkpt lat="25.4960360" lon="-100.6653500">
        <ele>2407.3</ele>
        <time>2022-08-20T15:18:29Z</time>
      </trkpt>
      <trkpt lat="25.4960360" lon="-100.6653500">
        <ele>2407.3</ele>
        <time>2022-08-20T15:18:30Z</time>
      </trkpt>
      <trkpt lat="25.4960360" lon="-100.6653500">
        <ele>2407.3</ele>
        <time>2022-08-20T15:18:31Z</time>
      </trkpt>
      <trkpt lat="25.4960360" lon="-100.6653500">
        <ele>2407.3</ele>
        <time>2022-08-20T15:18:32Z</time>
      </trkpt>
      <trkpt lat="25.4960360" lon="-100.6653500">
        <ele>2407.3</ele>
        <time>2022-08-20T15:18:33Z</time>
      </trkpt>
      <trkpt lat="25.4960360" lon="-100.6653500">
        <ele>2407.3</ele>
        <time>2022-08-20T15:18:34Z</time>
      </trkpt>
      <trkpt lat="25.4960360" lon="-100.6653500">
        <ele>2407.3</ele>
        <time>2022-08-20T15:18:35Z</time>
      </trkpt>
      <trkpt lat="25.4960360" lon="-100.6653500">
        <ele>2407.3</ele>
        <time>2022-08-20T15:18:36Z</time>
      </trkpt>
      <trkpt lat="25.4960360" lon="-100.6653500">
        <ele>2407.3</ele>
        <time>2022-08-20T15:18:37Z</time>
      </trkpt>
      <trkpt lat="25.4960360" lon="-100.6653500">
        <ele>2407.3</ele>
        <time>2022-08-20T15:18:38Z</time>
      </trkpt>
      <trkpt lat="25.4960360" lon="-100.6653500">
        <ele>2407.3</ele>
        <time>2022-08-20T15:18:39Z</time>
      </trkpt>
      <trkpt lat="25.4960360" lon="-100.6653500">
        <ele>2407.3</ele>
        <time>2022-08-20T15:18:40Z</time>
      </trkpt>
      <trkpt lat="25.4960360" lon="-100.6653500">
        <ele>2407.3</ele>
        <time>2022-08-20T15:18:41Z</time>
      </trkpt>
      <trkpt lat="25.4960360" lon="-100.6653500">
        <ele>2407.3</ele>
        <time>2022-08-20T15:18:42Z</time>
      </trkpt>
      <trkpt lat="25.4960360" lon="-100.6653500">
        <ele>2407.3</ele>
        <time>2022-08-20T15:18:43Z</time>
      </trkpt>
      <trkpt lat="25.4960360" lon="-100.6653500">
        <ele>2407.3</ele>
        <time>2022-08-20T15:18:44Z</time>
      </trkpt>
      <trkpt lat="25.4960360" lon="-100.6653500">
        <ele>2407.3</ele>
        <time>2022-08-20T15:18:45Z</time>
      </trkpt>
      <trkpt lat="25.4960360" lon="-100.6653500">
        <ele>2407.3</ele>
        <time>2022-08-20T15:18:46Z</time>
      </trkpt>
      <trkpt lat="25.4960360" lon="-100.6653500">
        <ele>2407.3</ele>
        <time>2022-08-20T15:18:47Z</time>
      </trkpt>
      <trkpt lat="25.4960360" lon="-100.6653500">
        <ele>2407.3</ele>
        <time>2022-08-20T15:18:48Z</time>
      </trkpt>
      <trkpt lat="25.4960360" lon="-100.6653500">
        <ele>2407.3</ele>
        <time>2022-08-20T15:18:49Z</time>
      </trkpt>
      <trkpt lat="25.4960360" lon="-100.6653500">
        <ele>2407.3</ele>
        <time>2022-08-20T15:18:50Z</time>
      </trkpt>
      <trkpt lat="25.4960360" lon="-100.6653500">
        <ele>2407.3</ele>
        <time>2022-08-20T15:18:51Z</time>
      </trkpt>
      <trkpt lat="25.4960360" lon="-100.6653500">
        <ele>2407.3</ele>
        <time>2022-08-20T15:18:52Z</time>
      </trkpt>
      <trkpt lat="25.4960360" lon="-100.6653500">
        <ele>2407.3</ele>
        <time>2022-08-20T15:18:53Z</time>
      </trkpt>
      <trkpt lat="25.4960360" lon="-100.6653500">
        <ele>2407.3</ele>
        <time>2022-08-20T15:18:54Z</time>
      </trkpt>
      <trkpt lat="25.4960360" lon="-100.6653500">
        <ele>2407.3</ele>
        <time>2022-08-20T15:18:55Z</time>
      </trkpt>
      <trkpt lat="25.4960360" lon="-100.6653500">
        <ele>2407.3</ele>
        <time>2022-08-20T15:18:56Z</time>
      </trkpt>
      <trkpt lat="25.4960360" lon="-100.6653500">
        <ele>2407.3</ele>
        <time>2022-08-20T15:18:57Z</time>
      </trkpt>
      <trkpt lat="25.4960360" lon="-100.6653500">
        <ele>2407.3</ele>
        <time>2022-08-20T15:18:58Z</time>
      </trkpt>
      <trkpt lat="25.4960360" lon="-100.6653500">
        <ele>2407.3</ele>
        <time>2022-08-20T15:18:59Z</time>
      </trkpt>
      <trkpt lat="25.4960360" lon="-100.6653500">
        <ele>2407.3</ele>
        <time>2022-08-20T15:19:00Z</time>
      </trkpt>
      <trkpt lat="25.4960360" lon="-100.6653500">
        <ele>2407.3</ele>
        <time>2022-08-20T15:19:01Z</time>
      </trkpt>
      <trkpt lat="25.4960360" lon="-100.6653500">
        <ele>2407.3</ele>
        <time>2022-08-20T15:19:02Z</time>
      </trkpt>
      <trkpt lat="25.4960360" lon="-100.6653500">
        <ele>2407.3</ele>
        <time>2022-08-20T15:19:03Z</time>
      </trkpt>
      <trkpt lat="25.4960360" lon="-100.6653500">
        <ele>2407.3</ele>
        <time>2022-08-20T15:19:04Z</time>
      </trkpt>
      <trkpt lat="25.4960360" lon="-100.6653500">
        <ele>2407.3</ele>
        <time>2022-08-20T15:19:05Z</time>
      </trkpt>
      <trkpt lat="25.4960360" lon="-100.6653500">
        <ele>2407.3</ele>
        <time>2022-08-20T15:19:06Z</time>
      </trkpt>
      <trkpt lat="25.4960350" lon="-100.6653500">
        <ele>2407.3</ele>
        <time>2022-08-20T15:19:07Z</time>
      </trkpt>
      <trkpt lat="25.4960360" lon="-100.6653500">
        <ele>2407.3</ele>
        <time>2022-08-20T15:19:08Z</time>
      </trkpt>
      <trkpt lat="25.4960360" lon="-100.6653500">
        <ele>2407.3</ele>
        <time>2022-08-20T15:19:09Z</time>
      </trkpt>
      <trkpt lat="25.4960370" lon="-100.6653500">
        <ele>2407.3</ele>
        <time>2022-08-20T15:19:10Z</time>
      </trkpt>
      <trkpt lat="25.4960370" lon="-100.6653500">
        <ele>2407.3</ele>
        <time>2022-08-20T15:19:11Z</time>
      </trkpt>
      <trkpt lat="25.4960370" lon="-100.6653500">
        <ele>2407.3</ele>
        <time>2022-08-20T15:19:12Z</time>
      </trkpt>
      <trkpt lat="25.4960370" lon="-100.6653500">
        <ele>2407.3</ele>
        <time>2022-08-20T15:19:13Z</time>
      </trkpt>
      <trkpt lat="25.4960370" lon="-100.6653500">
        <ele>2407.3</ele>
        <time>2022-08-20T15:19:14Z</time>
      </trkpt>
      <trkpt lat="25.4960370" lon="-100.6653500">
        <ele>2407.3</ele>
        <time>2022-08-20T15:19:15Z</time>
      </trkpt>
      <trkpt lat="25.4960370" lon="-100.6653510">
        <ele>2407.3</ele>
        <time>2022-08-20T15:19:16Z</time>
      </trkpt>
      <trkpt lat="25.4960370" lon="-100.6653510">
        <ele>2407.3</ele>
        <time>2022-08-20T15:19:17Z</time>
      </trkpt>
      <trkpt lat="25.4960380" lon="-100.6653510">
        <ele>2407.3</ele>
        <time>2022-08-20T15:19:18Z</time>
      </trkpt>
      <trkpt lat="25.4960380" lon="-100.6653520">
        <ele>2407.3</ele>
        <time>2022-08-20T15:19:19Z</time>
      </trkpt>
      <trkpt lat="25.4960380" lon="-100.6653530">
        <ele>2407.3</ele>
        <time>2022-08-20T15:19:20Z</time>
      </trkpt>
      <trkpt lat="25.4960380" lon="-100.6653530">
        <ele>2407.3</ele>
        <time>2022-08-20T15:19:21Z</time>
      </trkpt>
      <trkpt lat="25.4960380" lon="-100.6653530">
        <ele>2407.3</ele>
        <time>2022-08-20T15:19:22Z</time>
      </trkpt>
      <trkpt lat="25.4960370" lon="-100.6653540">
        <ele>2407.3</ele>
        <time>2022-08-20T15:19:23Z</time>
      </trkpt>
      <trkpt lat="25.4960370" lon="-100.6653540">
        <ele>2407.3</ele>
        <time>2022-08-20T15:19:24Z</time>
      </trkpt>
      <trkpt lat="25.4960370" lon="-100.6653540">
        <ele>2407.3</ele>
        <time>2022-08-20T15:19:25Z</time>
      </trkpt>
      <trkpt lat="25.4960370" lon="-100.6653510">
        <ele>2407.3</ele>
        <time>2022-08-20T15:19:26Z</time>
      </trkpt>
      <trkpt lat="25.4960360" lon="-100.6653500">
        <ele>2407.3</ele>
        <time>2022-08-20T15:19:27Z</time>
      </trkpt>
      <trkpt lat="25.4960360" lon="-100.6653500">
        <ele>2407.3</ele>
        <time>2022-08-20T15:19:28Z</time>
      </trkpt>
      <trkpt lat="25.4960360" lon="-100.6653500">
        <ele>2407.3</ele>
        <time>2022-08-20T15:19:29Z</time>
      </trkpt>
      <trkpt lat="25.4960360" lon="-100.6653500">
        <ele>2407.3</ele>
        <time>2022-08-20T15:19:30Z</time>
      </trkpt>
      <trkpt lat="25.4960360" lon="-100.6653500">
        <ele>2407.3</ele>
        <time>2022-08-20T15:19:31Z</time>
      </trkpt>
      <trkpt lat="25.4960360" lon="-100.6653500">
        <ele>2407.3</ele>
        <time>2022-08-20T15:19:32Z</time>
      </trkpt>
      <trkpt lat="25.4960360" lon="-100.6653500">
        <ele>2407.3</ele>
        <time>2022-08-20T15:19:33Z</time>
      </trkpt>
      <trkpt lat="25.4960360" lon="-100.6653500">
        <ele>2407.3</ele>
        <time>2022-08-20T15:19:34Z</time>
      </trkpt>
      <trkpt lat="25.4960360" lon="-100.6653500">
        <ele>2407.3</ele>
        <time>2022-08-20T15:19:35Z</time>
      </trkpt>
      <trkpt lat="25.4960360" lon="-100.6653500">
        <ele>2407.3</ele>
        <time>2022-08-20T15:19:36Z</time>
      </trkpt>
      <trkpt lat="25.4960360" lon="-100.6653500">
        <ele>2407.3</ele>
        <time>2022-08-20T15:19:37Z</time>
      </trkpt>
      <trkpt lat="25.4960360" lon="-100.6653500">
        <ele>2407.3</ele>
        <time>2022-08-20T15:19:38Z</time>
      </trkpt>
      <trkpt lat="25.4960360" lon="-100.6653500">
        <ele>2407.3</ele>
        <time>2022-08-20T15:19:39Z</time>
      </trkpt>
      <trkpt lat="25.4960360" lon="-100.6653500">
        <ele>2407.3</ele>
        <time>2022-08-20T15:19:40Z</time>
      </trkpt>
      <trkpt lat="25.4960360" lon="-100.6653500">
        <ele>2407.3</ele>
        <time>2022-08-20T15:19:41Z</time>
      </trkpt>
      <trkpt lat="25.4960360" lon="-100.6653500">
        <ele>2407.3</ele>
        <time>2022-08-20T15:19:42Z</time>
      </trkpt>
      <trkpt lat="25.4960360" lon="-100.6653500">
        <ele>2407.3</ele>
        <time>2022-08-20T15:19:43Z</time>
      </trkpt>
      <trkpt lat="25.4960360" lon="-100.6653500">
        <ele>2407.3</ele>
        <time>2022-08-20T15:19:44Z</time>
      </trkpt>
      <trkpt lat="25.4960360" lon="-100.6653500">
        <ele>2407.3</ele>
        <time>2022-08-20T15:19:45Z</time>
      </trkpt>
      <trkpt lat="25.4960360" lon="-100.6653500">
        <ele>2407.3</ele>
        <time>2022-08-20T15:19:46Z</time>
      </trkpt>
      <trkpt lat="25.4960360" lon="-100.6653500">
        <ele>2407.3</ele>
        <time>2022-08-20T15:19:47Z</time>
      </trkpt>
      <trkpt lat="25.4960360" lon="-100.6653500">
        <ele>2407.3</ele>
        <time>2022-08-20T15:19:48Z</time>
      </trkpt>
      <trkpt lat="25.4960360" lon="-100.6653500">
        <ele>2407.3</ele>
        <time>2022-08-20T15:19:49Z</time>
      </trkpt>
      <trkpt lat="25.4960360" lon="-100.6653500">
        <ele>2407.3</ele>
        <time>2022-08-20T15:19:50Z</time>
      </trkpt>
      <trkpt lat="25.4960360" lon="-100.6653500">
        <ele>2407.3</ele>
        <time>2022-08-20T15:19:51Z</time>
      </trkpt>
      <trkpt lat="25.4960360" lon="-100.6653500">
        <ele>2407.3</ele>
        <time>2022-08-20T15:19:52Z</time>
      </trkpt>
      <trkpt lat="25.4960360" lon="-100.6653500">
        <ele>2407.3</ele>
        <time>2022-08-20T15:19:53Z</time>
      </trkpt>
      <trkpt lat="25.4960360" lon="-100.6653500">
        <ele>2407.3</ele>
        <time>2022-08-20T15:19:54Z</time>
      </trkpt>
      <trkpt lat="25.4960360" lon="-100.6653500">
        <ele>2407.3</ele>
        <time>2022-08-20T15:19:55Z</time>
      </trkpt>
      <trkpt lat="25.4960360" lon="-100.6653500">
        <ele>2407.3</ele>
        <time>2022-08-20T15:19:56Z</time>
      </trkpt>
      <trkpt lat="25.4960360" lon="-100.6653500">
        <ele>2407.3</ele>
        <time>2022-08-20T15:19:57Z</time>
      </trkpt>
      <trkpt lat="25.4960360" lon="-100.6653500">
        <ele>2407.3</ele>
        <time>2022-08-20T15:19:58Z</time>
      </trkpt>
      <trkpt lat="25.4960360" lon="-100.6653500">
        <ele>2407.3</ele>
        <time>2022-08-20T15:19:59Z</time>
      </trkpt>
      <trkpt lat="25.4960360" lon="-100.6653500">
        <ele>2407.3</ele>
        <time>2022-08-20T15:20:00Z</time>
      </trkpt>
      <trkpt lat="25.4960360" lon="-100.6653500">
        <ele>2407.4</ele>
        <time>2022-08-20T15:20:01Z</time>
      </trkpt>
      <trkpt lat="25.4960360" lon="-100.6653500">
        <ele>2407.4</ele>
        <time>2022-08-20T15:20:02Z</time>
      </trkpt>
      <trkpt lat="25.4960360" lon="-100.6653500">
        <ele>2407.4</ele>
        <time>2022-08-20T15:20:03Z</time>
      </trkpt>
      <trkpt lat="25.4960360" lon="-100.6653500">
        <ele>2407.4</ele>
        <time>2022-08-20T15:20:04Z</time>
      </trkpt>
      <trkpt lat="25.4960360" lon="-100.6653500">
        <ele>2407.4</ele>
        <time>2022-08-20T15:20:05Z</time>
      </trkpt>
      <trkpt lat="25.4960360" lon="-100.6653500">
        <ele>2407.4</ele>
        <time>2022-08-20T15:20:06Z</time>
      </trkpt>
      <trkpt lat="25.4960360" lon="-100.6653500">
        <ele>2407.4</ele>
        <time>2022-08-20T15:20:07Z</time>
      </trkpt>
      <trkpt lat="25.4960360" lon="-100.6653500">
        <ele>2407.4</ele>
        <time>2022-08-20T15:20:08Z</time>
      </trkpt>
      <trkpt lat="25.4960360" lon="-100.6653500">
        <ele>2407.4</ele>
        <time>2022-08-20T15:20:09Z</time>
      </trkpt>
      <trkpt lat="25.4960360" lon="-100.6653500">
        <ele>2407.4</ele>
        <time>2022-08-20T15:20:10Z</time>
      </trkpt>
      <trkpt lat="25.4960360" lon="-100.6653500">
        <ele>2407.4</ele>
        <time>2022-08-20T15:20:11Z</time>
      </trkpt>
      <trkpt lat="25.4960360" lon="-100.6653500">
        <ele>2407.4</ele>
        <time>2022-08-20T15:20:12Z</time>
      </trkpt>
      <trkpt lat="25.4960360" lon="-100.6653500">
        <ele>2407.4</ele>
        <time>2022-08-20T15:20:13Z</time>
      </trkpt>
      <trkpt lat="25.4960360" lon="-100.6653500">
        <ele>2407.4</ele>
        <time>2022-08-20T15:20:14Z</time>
      </trkpt>
      <trkpt lat="25.4960360" lon="-100.6653500">
        <ele>2407.4</ele>
        <time>2022-08-20T15:20:15Z</time>
      </trkpt>
      <trkpt lat="25.4960360" lon="-100.6653500">
        <ele>2407.4</ele>
        <time>2022-08-20T15:20:16Z</time>
      </trkpt>
      <trkpt lat="25.4960360" lon="-100.6653500">
        <ele>2407.4</ele>
        <time>2022-08-20T15:20:17Z</time>
      </trkpt>
      <trkpt lat="25.4960360" lon="-100.6653500">
        <ele>2407.4</ele>
        <time>2022-08-20T15:20:18Z</time>
      </trkpt>
      <trkpt lat="25.4960360" lon="-100.6653500">
        <ele>2407.4</ele>
        <time>2022-08-20T15:20:19Z</time>
      </trkpt>
      <trkpt lat="25.4960360" lon="-100.6653500">
        <ele>2407.4</ele>
        <time>2022-08-20T15:20:20Z</time>
      </trkpt>
      <trkpt lat="25.4960360" lon="-100.6653500">
        <ele>2407.4</ele>
        <time>2022-08-20T15:20:21Z</time>
      </trkpt>
      <trkpt lat="25.4960360" lon="-100.6653500">
        <ele>2407.4</ele>
        <time>2022-08-20T15:20:22Z</time>
      </trkpt>
      <trkpt lat="25.4960360" lon="-100.6653500">
        <ele>2407.4</ele>
        <time>2022-08-20T15:20:23Z</time>
      </trkpt>
      <trkpt lat="25.4960360" lon="-100.6653500">
        <ele>2407.4</ele>
        <time>2022-08-20T15:20:24Z</time>
      </trkpt>
      <trkpt lat="25.4960360" lon="-100.6653500">
        <ele>2407.4</ele>
        <time>2022-08-20T15:20:25Z</time>
      </trkpt>
      <trkpt lat="25.4960360" lon="-100.6653500">
        <ele>2407.4</ele>
        <time>2022-08-20T15:20:26Z</time>
      </trkpt>
      <trkpt lat="25.4960360" lon="-100.6653500">
        <ele>2407.4</ele>
        <time>2022-08-20T15:20:27Z</time>
      </trkpt>
      <trkpt lat="25.4960360" lon="-100.6653500">
        <ele>2407.4</ele>
        <time>2022-08-20T15:20:28Z</time>
      </trkpt>
      <trkpt lat="25.4960360" lon="-100.6653500">
        <ele>2407.4</ele>
        <time>2022-08-20T15:20:29Z</time>
      </trkpt>
      <trkpt lat="25.4960360" lon="-100.6653500">
        <ele>2407.4</ele>
        <time>2022-08-20T15:20:30Z</time>
      </trkpt>
      <trkpt lat="25.4960360" lon="-100.6653500">
        <ele>2407.4</ele>
        <time>2022-08-20T15:20:31Z</time>
      </trkpt>
      <trkpt lat="25.4960360" lon="-100.6653500">
        <ele>2407.4</ele>
        <time>2022-08-20T15:20:32Z</time>
      </trkpt>
      <trkpt lat="25.4960370" lon="-100.6653510">
        <ele>2407.4</ele>
        <time>2022-08-20T15:20:33Z</time>
      </trkpt>
      <trkpt lat="25.4960370" lon="-100.6653510">
        <ele>2407.4</ele>
        <time>2022-08-20T15:20:34Z</time>
      </trkpt>
      <trkpt lat="25.4960370" lon="-100.6653490">
        <ele>2407.4</ele>
        <time>2022-08-20T15:20:35Z</time>
      </trkpt>
      <trkpt lat="25.4960370" lon="-100.6653490">
        <ele>2407.4</ele>
        <time>2022-08-20T15:20:37Z</time>
      </trkpt>
      <trkpt lat="25.4960370" lon="-100.6653490">
        <ele>2407.4</ele>
        <time>2022-08-20T15:20:38Z</time>
      </trkpt>
      <trkpt lat="25.4960370" lon="-100.6653490">
        <ele>2407.4</ele>
        <time>2022-08-20T15:20:39Z</time>
      </trkpt>
      <trkpt lat="25.4960370" lon="-100.6653490">
        <ele>2407.4</ele>
        <time>2022-08-20T15:20:40Z</time>
      </trkpt>
      <trkpt lat="25.4960380" lon="-100.6653490">
        <ele>2407.4</ele>
        <time>2022-08-20T15:20:42Z</time>
      </trkpt>
      <trkpt lat="25.4960370" lon="-100.6653490">
        <ele>2407.4</ele>
        <time>2022-08-20T15:20:43Z</time>
      </trkpt>
      <trkpt lat="25.4960370" lon="-100.6653490">
        <ele>2407.4</ele>
        <time>2022-08-20T15:20:44Z</time>
      </trkpt>
      <trkpt lat="25.4960370" lon="-100.6653490">
        <ele>2407.4</ele>
        <time>2022-08-20T15:20:45Z</time>
      </trkpt>
      <trkpt lat="25.4960370" lon="-100.6653490">
        <ele>2407.4</ele>
        <time>2022-08-20T15:20:46Z</time>
      </trkpt>
      <trkpt lat="25.4960370" lon="-100.6653490">
        <ele>2407.4</ele>
        <time>2022-08-20T15:20:47Z</time>
      </trkpt>
      <trkpt lat="25.4960370" lon="-100.6653490">
        <ele>2407.4</ele>
        <time>2022-08-20T15:20:48Z</time>
      </trkpt>
      <trkpt lat="25.4960370" lon="-100.6653490">
        <ele>2407.4</ele>
        <time>2022-08-20T15:20:50Z</time>
      </trkpt>
      <trkpt lat="25.4960370" lon="-100.6653490">
        <ele>2407.4</ele>
        <time>2022-08-20T15:20:51Z</time>
      </trkpt>
      <trkpt lat="25.4960370" lon="-100.6653490">
        <ele>2407.4</ele>
        <time>2022-08-20T15:20:52Z</time>
      </trkpt>
      <trkpt lat="25.4960370" lon="-100.6653490">
        <ele>2407.4</ele>
        <time>2022-08-20T15:20:53Z</time>
      </trkpt>
      <trkpt lat="25.4960360" lon="-100.6653490">
        <ele>2407.4</ele>
        <time>2022-08-20T15:20:54Z</time>
      </trkpt>
      <trkpt lat="25.4960360" lon="-100.6653500">
        <ele>2407.4</ele>
        <time>2022-08-20T15:20:55Z</time>
      </trkpt>
      <trkpt lat="25.4960350" lon="-100.6653500">
        <ele>2407.4</ele>
        <time>2022-08-20T15:20:56Z</time>
      </trkpt>
      <trkpt lat="25.4960350" lon="-100.6653500">
        <ele>2407.4</ele>
        <time>2022-08-20T15:20:57Z</time>
      </trkpt>
      <trkpt lat="25.4960350" lon="-100.6653500">
        <ele>2407.4</ele>
        <time>2022-08-20T15:20:58Z</time>
      </trkpt>
      <trkpt lat="25.4960350" lon="-100.6653500">
        <ele>2407.4</ele>
        <time>2022-08-20T15:20:59Z</time>
      </trkpt>
      <trkpt lat="25.4960350" lon="-100.6653500">
        <ele>2407.4</ele>
        <time>2022-08-20T15:21:00Z</time>
      </trkpt>
      <trkpt lat="25.4960350" lon="-100.6653500">
        <ele>2407.4</ele>
        <time>2022-08-20T15:21:01Z</time>
      </trkpt>
      <trkpt lat="25.4960350" lon="-100.6653500">
        <ele>2407.4</ele>
        <time>2022-08-20T15:21:02Z</time>
      </trkpt>
      <trkpt lat="25.4960360" lon="-100.6653500">
        <ele>2407.4</ele>
        <time>2022-08-20T15:21:03Z</time>
      </trkpt>
      <trkpt lat="25.4960350" lon="-100.6653500">
        <ele>2407.4</ele>
        <time>2022-08-20T15:21:04Z</time>
      </trkpt>
      <trkpt lat="25.4960340" lon="-100.6653490">
        <ele>2407.4</ele>
        <time>2022-08-20T15:21:05Z</time>
      </trkpt>
      <trkpt lat="25.4960340" lon="-100.6653490">
        <ele>2407.4</ele>
        <time>2022-08-20T15:21:07Z</time>
      </trkpt>
      <trkpt lat="25.4960330" lon="-100.6653490">
        <ele>2407.4</ele>
        <time>2022-08-20T15:21:08Z</time>
      </trkpt>
      <trkpt lat="25.4960340" lon="-100.6653490">
        <ele>2407.4</ele>
        <time>2022-08-20T15:21:09Z</time>
      </trkpt>
      <trkpt lat="25.4960330" lon="-100.6653490">
        <ele>2407.4</ele>
        <time>2022-08-20T15:21:10Z</time>
      </trkpt>
      <trkpt lat="25.4960330" lon="-100.6653500">
        <ele>2407.4</ele>
        <time>2022-08-20T15:21:11Z</time>
      </trkpt>
      <trkpt lat="25.4960330" lon="-100.6653500">
        <ele>2407.4</ele>
        <time>2022-08-20T15:21:12Z</time>
      </trkpt>
      <trkpt lat="25.4960330" lon="-100.6653500">
        <ele>2407.4</ele>
        <time>2022-08-20T15:21:13Z</time>
      </trkpt>
      <trkpt lat="25.4960330" lon="-100.6653500">
        <ele>2407.4</ele>
        <time>2022-08-20T15:21:14Z</time>
      </trkpt>
      <trkpt lat="25.4960330" lon="-100.6653500">
        <ele>2407.4</ele>
        <time>2022-08-20T15:21:15Z</time>
      </trkpt>
      <trkpt lat="25.4960330" lon="-100.6653500">
        <ele>2407.4</ele>
        <time>2022-08-20T15:21:16Z</time>
      </trkpt>
      <trkpt lat="25.4960320" lon="-100.6653500">
        <ele>2407.4</ele>
        <time>2022-08-20T15:21:18Z</time>
      </trkpt>
      <trkpt lat="25.4960320" lon="-100.6653500">
        <ele>2407.4</ele>
        <time>2022-08-20T15:21:19Z</time>
      </trkpt>
      <trkpt lat="25.4960320" lon="-100.6653510">
        <ele>2407.4</ele>
        <time>2022-08-20T15:21:20Z</time>
      </trkpt>
      <trkpt lat="25.4960310" lon="-100.6653510">
        <ele>2407.4</ele>
        <time>2022-08-20T15:21:21Z</time>
      </trkpt>
      <trkpt lat="25.4960300" lon="-100.6653520">
        <ele>2407.4</ele>
        <time>2022-08-20T15:21:22Z</time>
      </trkpt>
      <trkpt lat="25.4960290" lon="-100.6653530">
        <ele>2407.4</ele>
        <time>2022-08-20T15:21:23Z</time>
      </trkpt>
      <trkpt lat="25.4960290" lon="-100.6653540">
        <ele>2407.4</ele>
        <time>2022-08-20T15:21:24Z</time>
      </trkpt>
      <trkpt lat="25.4960290" lon="-100.6653540">
        <ele>2407.4</ele>
        <time>2022-08-20T15:21:25Z</time>
      </trkpt>
      <trkpt lat="25.4960280" lon="-100.6653540">
        <ele>2407.4</ele>
        <time>2022-08-20T15:21:26Z</time>
      </trkpt>
      <trkpt lat="25.4960290" lon="-100.6653540">
        <ele>2407.4</ele>
        <time>2022-08-20T15:21:27Z</time>
      </trkpt>
      <trkpt lat="25.4960290" lon="-100.6653540">
        <ele>2407.4</ele>
        <time>2022-08-20T15:21:28Z</time>
      </trkpt>
      <trkpt lat="25.4960290" lon="-100.6653530">
        <ele>2407.4</ele>
        <time>2022-08-20T15:21:29Z</time>
      </trkpt>
      <trkpt lat="25.4960290" lon="-100.6653520">
        <ele>2407.4</ele>
        <time>2022-08-20T15:21:30Z</time>
      </trkpt>
      <trkpt lat="25.4960300" lon="-100.6653510">
        <ele>2407.4</ele>
        <time>2022-08-20T15:21:31Z</time>
      </trkpt>
      <trkpt lat="25.4960300" lon="-100.6653500">
        <ele>2407.4</ele>
        <time>2022-08-20T15:21:32Z</time>
      </trkpt>
      <trkpt lat="25.4960310" lon="-100.6653490">
        <ele>2407.5</ele>
        <time>2022-08-20T15:21:33Z</time>
      </trkpt>
      <trkpt lat="25.4960320" lon="-100.6653480">
        <ele>2407.5</ele>
        <time>2022-08-20T15:21:34Z</time>
      </trkpt>
      <trkpt lat="25.4960330" lon="-100.6653470">
        <ele>2407.5</ele>
        <time>2022-08-20T15:21:35Z</time>
      </trkpt>
      <trkpt lat="25.4960350" lon="-100.6653460">
        <ele>2407.5</ele>
        <time>2022-08-20T15:21:36Z</time>
      </trkpt>
      <trkpt lat="25.4960360" lon="-100.6653470">
        <ele>2407.5</ele>
        <time>2022-08-20T15:21:37Z</time>
      </trkpt>
      <trkpt lat="25.4960370" lon="-100.6653470">
        <ele>2407.5</ele>
        <time>2022-08-20T15:21:38Z</time>
      </trkpt>
      <trkpt lat="25.4960380" lon="-100.6653470">
        <ele>2407.5</ele>
        <time>2022-08-20T15:21:39Z</time>
      </trkpt>
      <trkpt lat="25.4960380" lon="-100.6653470">
        <ele>2407.5</ele>
        <time>2022-08-20T15:21:40Z</time>
      </trkpt>
      <trkpt lat="25.4960380" lon="-100.6653470">
        <ele>2407.5</ele>
        <time>2022-08-20T15:21:41Z</time>
      </trkpt>
      <trkpt lat="25.4960380" lon="-100.6653460">
        <ele>2407.5</ele>
        <time>2022-08-20T15:21:42Z</time>
      </trkpt>
      <trkpt lat="25.4960380" lon="-100.6653460">
        <ele>2407.5</ele>
        <time>2022-08-20T15:21:43Z</time>
      </trkpt>
      <trkpt lat="25.4960380" lon="-100.6653470">
        <ele>2407.5</ele>
        <time>2022-08-20T15:21:44Z</time>
      </trkpt>
      <trkpt lat="25.4960380" lon="-100.6653470">
        <ele>2407.5</ele>
        <time>2022-08-20T15:21:45Z</time>
      </trkpt>
      <trkpt lat="25.4960370" lon="-100.6653480">
        <ele>2407.5</ele>
        <time>2022-08-20T15:21:46Z</time>
      </trkpt>
      <trkpt lat="25.4960410" lon="-100.6653530">
        <ele>2407.5</ele>
        <time>2022-08-20T15:21:47Z</time>
      </trkpt>
      <trkpt lat="25.4960460" lon="-100.6653620">
        <ele>2407.5</ele>
        <time>2022-08-20T15:21:48Z</time>
      </trkpt>
      <trkpt lat="25.4960560" lon="-100.6653870">
        <ele>2407.6</ele>
        <time>2022-08-20T15:21:50Z</time>
      </trkpt>
      <trkpt lat="25.4960600" lon="-100.6653960">
        <ele>2407.6</ele>
        <time>2022-08-20T15:21:51Z</time>
      </trkpt>
      <trkpt lat="25.4960630" lon="-100.6654060">
        <ele>2407.6</ele>
        <time>2022-08-20T15:21:52Z</time>
      </trkpt>
      <trkpt lat="25.4960680" lon="-100.6654210">
        <ele>2407.6</ele>
        <time>2022-08-20T15:21:54Z</time>
      </trkpt>
      <trkpt lat="25.4960750" lon="-100.6654390">
        <ele>2407.6</ele>
        <time>2022-08-20T15:21:55Z</time>
      </trkpt>
      <trkpt lat="25.4960820" lon="-100.6654510">
        <ele>2407.6</ele>
        <time>2022-08-20T15:21:57Z</time>
      </trkpt>
      <trkpt lat="25.4960870" lon="-100.6654620">
        <ele>2407.6</ele>
        <time>2022-08-20T15:21:58Z</time>
      </trkpt>
      <trkpt lat="25.4960900" lon="-100.6654670">
        <ele>2407.6</ele>
        <time>2022-08-20T15:21:59Z</time>
      </trkpt>
      <trkpt lat="25.4960910" lon="-100.6654710">
        <ele>2407.6</ele>
        <time>2022-08-20T15:22:00Z</time>
      </trkpt>
      <trkpt lat="25.4960900" lon="-100.6654730">
        <ele>2407.6</ele>
        <time>2022-08-20T15:22:01Z</time>
      </trkpt>
      <trkpt lat="25.4960880" lon="-100.6654740">
        <ele>2407.6</ele>
        <time>2022-08-20T15:22:02Z</time>
      </trkpt>
      <trkpt lat="25.4960870" lon="-100.6654750">
        <ele>2407.6</ele>
        <time>2022-08-20T15:22:03Z</time>
      </trkpt>
      <trkpt lat="25.4960870" lon="-100.6654770">
        <ele>2407.6</ele>
        <time>2022-08-20T15:22:04Z</time>
      </trkpt>
      <trkpt lat="25.4960860" lon="-100.6654800">
        <ele>2407.6</ele>
        <time>2022-08-20T15:22:05Z</time>
      </trkpt>
      <trkpt lat="25.4960860" lon="-100.6654820">
        <ele>2407.6</ele>
        <time>2022-08-20T15:22:06Z</time>
      </trkpt>
      <trkpt lat="25.4960860" lon="-100.6654840">
        <ele>2407.6</ele>
        <time>2022-08-20T15:22:07Z</time>
      </trkpt>
      <trkpt lat="25.4960870" lon="-100.6654860">
        <ele>2407.6</ele>
        <time>2022-08-20T15:22:08Z</time>
      </trkpt>
      <trkpt lat="25.4960870" lon="-100.6654860">
        <ele>2407.6</ele>
        <time>2022-08-20T15:22:09Z</time>
      </trkpt>
      <trkpt lat="25.4960890" lon="-100.6654870">
        <ele>2407.6</ele>
        <time>2022-08-20T15:22:10Z</time>
      </trkpt>
      <trkpt lat="25.4960900" lon="-100.6654870">
        <ele>2407.6</ele>
        <time>2022-08-20T15:22:11Z</time>
      </trkpt>
      <trkpt lat="25.4960920" lon="-100.6654870">
        <ele>2407.6</ele>
        <time>2022-08-20T15:22:13Z</time>
      </trkpt>
      <trkpt lat="25.4960940" lon="-100.6654870">
        <ele>2407.6</ele>
        <time>2022-08-20T15:22:14Z</time>
      </trkpt>
      <trkpt lat="25.4960960" lon="-100.6654900">
        <ele>2407.5</ele>
        <time>2022-08-20T15:22:16Z</time>
      </trkpt>
      <trkpt lat="25.4960950" lon="-100.6654910">
        <ele>2407.5</ele>
        <time>2022-08-20T15:22:17Z</time>
      </trkpt>
      <trkpt lat="25.4960890" lon="-100.6654880">
        <ele>2407.5</ele>
        <time>2022-08-20T15:22:18Z</time>
      </trkpt>
      <trkpt lat="25.4960870" lon="-100.6654870">
        <ele>2407.5</ele>
        <time>2022-08-20T15:22:19Z</time>
      </trkpt>
      <trkpt lat="25.4960870" lon="-100.6654870">
        <ele>2407.5</ele>
        <time>2022-08-20T15:22:20Z</time>
      </trkpt>
      <trkpt lat="25.4960860" lon="-100.6654870">
        <ele>2407.5</ele>
        <time>2022-08-20T15:22:21Z</time>
      </trkpt>
      <trkpt lat="25.4960860" lon="-100.6654870">
        <ele>2407.5</ele>
        <time>2022-08-20T15:22:22Z</time>
      </trkpt>
      <trkpt lat="25.4960860" lon="-100.6654870">
        <ele>2407.5</ele>
        <time>2022-08-20T15:22:23Z</time>
      </trkpt>
      <trkpt lat="25.4960860" lon="-100.6654870">
        <ele>2407.5</ele>
        <time>2022-08-20T15:22:24Z</time>
      </trkpt>
      <trkpt lat="25.4960860" lon="-100.6654870">
        <ele>2407.5</ele>
        <time>2022-08-20T15:22:25Z</time>
      </trkpt>
      <trkpt lat="25.4960860" lon="-100.6654870">
        <ele>2407.5</ele>
        <time>2022-08-20T15:22:26Z</time>
      </trkpt>
      <trkpt lat="25.4960860" lon="-100.6654870">
        <ele>2407.5</ele>
        <time>2022-08-20T15:22:27Z</time>
      </trkpt>
      <trkpt lat="25.4960860" lon="-100.6654870">
        <ele>2407.5</ele>
        <time>2022-08-20T15:22:28Z</time>
      </trkpt>
      <trkpt lat="25.4960860" lon="-100.6654870">
        <ele>2407.5</ele>
        <time>2022-08-20T15:22:29Z</time>
      </trkpt>
      <trkpt lat="25.4960860" lon="-100.6654870">
        <ele>2407.5</ele>
        <time>2022-08-20T15:22:30Z</time>
      </trkpt>
      <trkpt lat="25.4960860" lon="-100.6654870">
        <ele>2407.5</ele>
        <time>2022-08-20T15:22:31Z</time>
      </trkpt>
      <trkpt lat="25.4960860" lon="-100.6654870">
        <ele>2407.5</ele>
        <time>2022-08-20T15:22:32Z</time>
      </trkpt>
      <trkpt lat="25.4960860" lon="-100.6654870">
        <ele>2407.5</ele>
        <time>2022-08-20T15:22:33Z</time>
      </trkpt>
      <trkpt lat="25.4960860" lon="-100.6654870">
        <ele>2407.5</ele>
        <time>2022-08-20T15:22:34Z</time>
      </trkpt>
      <trkpt lat="25.4960860" lon="-100.6654870">
        <ele>2407.5</ele>
        <time>2022-08-20T15:22:35Z</time>
      </trkpt>
      <trkpt lat="25.4960860" lon="-100.6654870">
        <ele>2407.5</ele>
        <time>2022-08-20T15:22:36Z</time>
      </trkpt>
      <trkpt lat="25.4960860" lon="-100.6654870">
        <ele>2407.5</ele>
        <time>2022-08-20T15:22:37Z</time>
      </trkpt>
      <trkpt lat="25.4960860" lon="-100.6654870">
        <ele>2407.5</ele>
        <time>2022-08-20T15:22:38Z</time>
      </trkpt>
      <trkpt lat="25.4960860" lon="-100.6654870">
        <ele>2407.5</ele>
        <time>2022-08-20T15:22:39Z</time>
      </trkpt>
      <trkpt lat="25.4960860" lon="-100.6654870">
        <ele>2407.5</ele>
        <time>2022-08-20T15:22:40Z</time>
      </trkpt>
      <trkpt lat="25.4960860" lon="-100.6654870">
        <ele>2407.5</ele>
        <time>2022-08-20T15:22:41Z</time>
      </trkpt>
      <trkpt lat="25.4960860" lon="-100.6654870">
        <ele>2407.5</ele>
        <time>2022-08-20T15:22:42Z</time>
      </trkpt>
      <trkpt lat="25.4960860" lon="-100.6654870">
        <ele>2407.5</ele>
        <time>2022-08-20T15:22:43Z</time>
      </trkpt>
      <trkpt lat="25.4960860" lon="-100.6654870">
        <ele>2407.5</ele>
        <time>2022-08-20T15:22:44Z</time>
      </trkpt>
      <trkpt lat="25.4960860" lon="-100.6654870">
        <ele>2407.5</ele>
        <time>2022-08-20T15:22:45Z</time>
      </trkpt>
      <trkpt lat="25.4960860" lon="-100.6654870">
        <ele>2407.5</ele>
        <time>2022-08-20T15:22:46Z</time>
      </trkpt>
      <trkpt lat="25.4960860" lon="-100.6654870">
        <ele>2407.5</ele>
        <time>2022-08-20T15:22:47Z</time>
      </trkpt>
      <trkpt lat="25.4960860" lon="-100.6654870">
        <ele>2407.5</ele>
        <time>2022-08-20T15:22:48Z</time>
      </trkpt>
      <trkpt lat="25.4960860" lon="-100.6654870">
        <ele>2407.5</ele>
        <time>2022-08-20T15:22:49Z</time>
      </trkpt>
      <trkpt lat="25.4960860" lon="-100.6654870">
        <ele>2407.5</ele>
        <time>2022-08-20T15:22:50Z</time>
      </trkpt>
      <trkpt lat="25.4960860" lon="-100.6654870">
        <ele>2407.5</ele>
        <time>2022-08-20T15:22:51Z</time>
      </trkpt>
      <trkpt lat="25.4960890" lon="-100.6655000">
        <ele>2407.5</ele>
        <time>2022-08-20T15:22:52Z</time>
      </trkpt>
      <trkpt lat="25.4960890" lon="-100.6655050">
        <ele>2407.5</ele>
        <time>2022-08-20T15:22:53Z</time>
      </trkpt>
      <trkpt lat="25.4960890" lon="-100.6655070">
        <ele>2407.5</ele>
        <time>2022-08-20T15:22:54Z</time>
      </trkpt>
      <trkpt lat="25.4960900" lon="-100.6655070">
        <ele>2407.5</ele>
        <time>2022-08-20T15:22:55Z</time>
      </trkpt>
      <trkpt lat="25.4960900" lon="-100.6655070">
        <ele>2407.5</ele>
        <time>2022-08-20T15:22:56Z</time>
      </trkpt>
      <trkpt lat="25.4960900" lon="-100.6655060">
        <ele>2407.5</ele>
        <time>2022-08-20T15:22:57Z</time>
      </trkpt>
      <trkpt lat="25.4960900" lon="-100.6655060">
        <ele>2407.5</ele>
        <time>2022-08-20T15:22:58Z</time>
      </trkpt>
      <trkpt lat="25.4960900" lon="-100.6655060">
        <ele>2407.5</ele>
        <time>2022-08-20T15:22:59Z</time>
      </trkpt>
      <trkpt lat="25.4960900" lon="-100.6655060">
        <ele>2407.5</ele>
        <time>2022-08-20T15:23:00Z</time>
      </trkpt>
      <trkpt lat="25.4960900" lon="-100.6655060">
        <ele>2407.5</ele>
        <time>2022-08-20T15:23:01Z</time>
      </trkpt>
      <trkpt lat="25.4960900" lon="-100.6655060">
        <ele>2407.5</ele>
        <time>2022-08-20T15:23:02Z</time>
      </trkpt>
      <trkpt lat="25.4960900" lon="-100.6655060">
        <ele>2407.5</ele>
        <time>2022-08-20T15:23:03Z</time>
      </trkpt>
      <trkpt lat="25.4960900" lon="-100.6655060">
        <ele>2407.5</ele>
        <time>2022-08-20T15:23:04Z</time>
      </trkpt>
      <trkpt lat="25.4960900" lon="-100.6655060">
        <ele>2407.5</ele>
        <time>2022-08-20T15:23:05Z</time>
      </trkpt>
      <trkpt lat="25.4960900" lon="-100.6655060">
        <ele>2407.5</ele>
        <time>2022-08-20T15:23:06Z</time>
      </trkpt>
      <trkpt lat="25.4960900" lon="-100.6655060">
        <ele>2407.5</ele>
        <time>2022-08-20T15:23:07Z</time>
      </trkpt>
      <trkpt lat="25.4960900" lon="-100.6655060">
        <ele>2407.5</ele>
        <time>2022-08-20T15:23:08Z</time>
      </trkpt>
      <trkpt lat="25.4960900" lon="-100.6655060">
        <ele>2407.5</ele>
        <time>2022-08-20T15:23:09Z</time>
      </trkpt>
      <trkpt lat="25.4960900" lon="-100.6655060">
        <ele>2407.5</ele>
        <time>2022-08-20T15:23:10Z</time>
      </trkpt>
      <trkpt lat="25.4960900" lon="-100.6655060">
        <ele>2407.5</ele>
        <time>2022-08-20T15:23:11Z</time>
      </trkpt>
      <trkpt lat="25.4960900" lon="-100.6655060">
        <ele>2407.5</ele>
        <time>2022-08-20T15:23:12Z</time>
      </trkpt>
      <trkpt lat="25.4960910" lon="-100.6655070">
        <ele>2407.5</ele>
        <time>2022-08-20T15:23:13Z</time>
      </trkpt>
      <trkpt lat="25.4960900" lon="-100.6655080">
        <ele>2407.5</ele>
        <time>2022-08-20T15:23:14Z</time>
      </trkpt>
      <trkpt lat="25.4960890" lon="-100.6655090">
        <ele>2407.5</ele>
        <time>2022-08-20T15:23:15Z</time>
      </trkpt>
      <trkpt lat="25.4960890" lon="-100.6655100">
        <ele>2407.5</ele>
        <time>2022-08-20T15:23:16Z</time>
      </trkpt>
      <trkpt lat="25.4960890" lon="-100.6655100">
        <ele>2407.5</ele>
        <time>2022-08-20T15:23:17Z</time>
      </trkpt>
      <trkpt lat="25.4960900" lon="-100.6655100">
        <ele>2407.5</ele>
        <time>2022-08-20T15:23:18Z</time>
      </trkpt>
      <trkpt lat="25.4960900" lon="-100.6655100">
        <ele>2407.5</ele>
        <time>2022-08-20T15:23:19Z</time>
      </trkpt>
      <trkpt lat="25.4960910" lon="-100.6655100">
        <ele>2407.5</ele>
        <time>2022-08-20T15:23:20Z</time>
      </trkpt>
      <trkpt lat="25.4960910" lon="-100.6655100">
        <ele>2407.5</ele>
        <time>2022-08-20T15:23:21Z</time>
      </trkpt>
      <trkpt lat="25.4960910" lon="-100.6655100">
        <ele>2407.5</ele>
        <time>2022-08-20T15:23:22Z</time>
      </trkpt>
      <trkpt lat="25.4960910" lon="-100.6655100">
        <ele>2407.5</ele>
        <time>2022-08-20T15:23:23Z</time>
      </trkpt>
      <trkpt lat="25.4960910" lon="-100.6655100">
        <ele>2407.5</ele>
        <time>2022-08-20T15:23:24Z</time>
      </trkpt>
      <trkpt lat="25.4960910" lon="-100.6655100">
        <ele>2407.5</ele>
        <time>2022-08-20T15:23:25Z</time>
      </trkpt>
      <trkpt lat="25.4960910" lon="-100.6655100">
        <ele>2407.5</ele>
        <time>2022-08-20T15:23:26Z</time>
      </trkpt>
      <trkpt lat="25.4960910" lon="-100.6655100">
        <ele>2407.5</ele>
        <time>2022-08-20T15:23:27Z</time>
      </trkpt>
      <trkpt lat="25.4960910" lon="-100.6655100">
        <ele>2407.5</ele>
        <time>2022-08-20T15:23:28Z</time>
      </trkpt>
      <trkpt lat="25.4960910" lon="-100.6655100">
        <ele>2407.5</ele>
        <time>2022-08-20T15:23:29Z</time>
      </trkpt>
      <trkpt lat="25.4960910" lon="-100.6655100">
        <ele>2407.5</ele>
        <time>2022-08-20T15:23:30Z</time>
      </trkpt>
      <trkpt lat="25.4960910" lon="-100.6655100">
        <ele>2407.5</ele>
        <time>2022-08-20T15:23:31Z</time>
      </trkpt>
      <trkpt lat="25.4960910" lon="-100.6655100">
        <ele>2407.5</ele>
        <time>2022-08-20T15:23:32Z</time>
      </trkpt>
      <trkpt lat="25.4960910" lon="-100.6655100">
        <ele>2407.5</ele>
        <time>2022-08-20T15:23:33Z</time>
      </trkpt>
      <trkpt lat="25.4960910" lon="-100.6655100">
        <ele>2407.5</ele>
        <time>2022-08-20T15:23:34Z</time>
      </trkpt>
      <trkpt lat="25.4960910" lon="-100.6655100">
        <ele>2407.5</ele>
        <time>2022-08-20T15:23:35Z</time>
      </trkpt>
      <trkpt lat="25.4960910" lon="-100.6655100">
        <ele>2407.5</ele>
        <time>2022-08-20T15:23:36Z</time>
      </trkpt>
      <trkpt lat="25.4960910" lon="-100.6655100">
        <ele>2407.5</ele>
        <time>2022-08-20T15:23:37Z</time>
      </trkpt>
      <trkpt lat="25.4960910" lon="-100.6655100">
        <ele>2407.5</ele>
        <time>2022-08-20T15:23:38Z</time>
      </trkpt>
      <trkpt lat="25.4960910" lon="-100.6655100">
        <ele>2407.5</ele>
        <time>2022-08-20T15:23:39Z</time>
      </trkpt>
      <trkpt lat="25.4960910" lon="-100.6655100">
        <ele>2407.5</ele>
        <time>2022-08-20T15:23:40Z</time>
      </trkpt>
      <trkpt lat="25.4960910" lon="-100.6655100">
        <ele>2407.5</ele>
        <time>2022-08-20T15:23:41Z</time>
      </trkpt>
      <trkpt lat="25.4960910" lon="-100.6655100">
        <ele>2407.5</ele>
        <time>2022-08-20T15:23:42Z</time>
      </trkpt>
      <trkpt lat="25.4960910" lon="-100.6655100">
        <ele>2407.5</ele>
        <time>2022-08-20T15:23:43Z</time>
      </trkpt>
      <trkpt lat="25.4960910" lon="-100.6655100">
        <ele>2407.5</ele>
        <time>2022-08-20T15:23:44Z</time>
      </trkpt>
      <trkpt lat="25.4960910" lon="-100.6655100">
        <ele>2407.5</ele>
        <time>2022-08-20T15:23:45Z</time>
      </trkpt>
      <trkpt lat="25.4960910" lon="-100.6655100">
        <ele>2407.5</ele>
        <time>2022-08-20T15:23:46Z</time>
      </trkpt>
      <trkpt lat="25.4960910" lon="-100.6655100">
        <ele>2407.5</ele>
        <time>2022-08-20T15:23:47Z</time>
      </trkpt>
      <trkpt lat="25.4960910" lon="-100.6655100">
        <ele>2407.5</ele>
        <time>2022-08-20T15:23:48Z</time>
      </trkpt>
      <trkpt lat="25.4960910" lon="-100.6655100">
        <ele>2407.5</ele>
        <time>2022-08-20T15:23:49Z</time>
      </trkpt>
      <trkpt lat="25.4960910" lon="-100.6655100">
        <ele>2407.5</ele>
        <time>2022-08-20T15:23:50Z</time>
      </trkpt>
      <trkpt lat="25.4960910" lon="-100.6655100">
        <ele>2407.5</ele>
        <time>2022-08-20T15:23:51Z</time>
      </trkpt>
      <trkpt lat="25.4960910" lon="-100.6655100">
        <ele>2407.5</ele>
        <time>2022-08-20T15:23:52Z</time>
      </trkpt>
      <trkpt lat="25.4960910" lon="-100.6655100">
        <ele>2407.5</ele>
        <time>2022-08-20T15:23:53Z</time>
      </trkpt>
      <trkpt lat="25.4960910" lon="-100.6655100">
        <ele>2407.5</ele>
        <time>2022-08-20T15:23:54Z</time>
      </trkpt>
      <trkpt lat="25.4960910" lon="-100.6655100">
        <ele>2407.5</ele>
        <time>2022-08-20T15:23:55Z</time>
      </trkpt>
      <trkpt lat="25.4960910" lon="-100.6655100">
        <ele>2407.5</ele>
        <time>2022-08-20T15:23:56Z</time>
      </trkpt>
      <trkpt lat="25.4960910" lon="-100.6655100">
        <ele>2407.5</ele>
        <time>2022-08-20T15:23:57Z</time>
      </trkpt>
      <trkpt lat="25.4960910" lon="-100.6655100">
        <ele>2407.5</ele>
        <time>2022-08-20T15:23:58Z</time>
      </trkpt>
      <trkpt lat="25.4960910" lon="-100.6655100">
        <ele>2407.5</ele>
        <time>2022-08-20T15:23:59Z</time>
      </trkpt>
      <trkpt lat="25.4960910" lon="-100.6655080">
        <ele>2407.5</ele>
        <time>2022-08-20T15:24:00Z</time>
      </trkpt>
      <trkpt lat="25.4960910" lon="-100.6655080">
        <ele>2407.5</ele>
        <time>2022-08-20T15:24:01Z</time>
      </trkpt>
      <trkpt lat="25.4960910" lon="-100.6655080">
        <ele>2407.5</ele>
        <time>2022-08-20T15:24:02Z</time>
      </trkpt>
      <trkpt lat="25.4960900" lon="-100.6655070">
        <ele>2407.5</ele>
        <time>2022-08-20T15:24:03Z</time>
      </trkpt>
      <trkpt lat="25.4960910" lon="-100.6655070">
        <ele>2407.5</ele>
        <time>2022-08-20T15:24:04Z</time>
      </trkpt>
      <trkpt lat="25.4960910" lon="-100.6655070">
        <ele>2407.5</ele>
        <time>2022-08-20T15:24:05Z</time>
      </trkpt>
      <trkpt lat="25.4960910" lon="-100.6655070">
        <ele>2407.5</ele>
        <time>2022-08-20T15:24:06Z</time>
      </trkpt>
      <trkpt lat="25.4960910" lon="-100.6655070">
        <ele>2407.5</ele>
        <time>2022-08-20T15:24:07Z</time>
      </trkpt>
      <trkpt lat="25.4960910" lon="-100.6655080">
        <ele>2407.5</ele>
        <time>2022-08-20T15:24:08Z</time>
      </trkpt>
      <trkpt lat="25.4960910" lon="-100.6655090">
        <ele>2407.5</ele>
        <time>2022-08-20T15:24:09Z</time>
      </trkpt>
      <trkpt lat="25.4960900" lon="-100.6655080">
        <ele>2407.5</ele>
        <time>2022-08-20T15:24:10Z</time>
      </trkpt>
      <trkpt lat="25.4960880" lon="-100.6655080">
        <ele>2407.5</ele>
        <time>2022-08-20T15:24:11Z</time>
      </trkpt>
      <trkpt lat="25.4960880" lon="-100.6655070">
        <ele>2407.5</ele>
        <time>2022-08-20T15:24:12Z</time>
      </trkpt>
      <trkpt lat="25.4960870" lon="-100.6655060">
        <ele>2407.5</ele>
        <time>2022-08-20T15:24:13Z</time>
      </trkpt>
      <trkpt lat="25.4960870" lon="-100.6655060">
        <ele>2407.5</ele>
        <time>2022-08-20T15:24:14Z</time>
      </trkpt>
      <trkpt lat="25.4960880" lon="-100.6655040">
        <ele>2407.5</ele>
        <time>2022-08-20T15:24:15Z</time>
      </trkpt>
      <trkpt lat="25.4960910" lon="-100.6655060">
        <ele>2407.5</ele>
        <time>2022-08-20T15:24:17Z</time>
      </trkpt>
      <trkpt lat="25.4960920" lon="-100.6655070">
        <ele>2407.5</ele>
        <time>2022-08-20T15:24:18Z</time>
      </trkpt>
      <trkpt lat="25.4960950" lon="-100.6655080">
        <ele>2407.5</ele>
        <time>2022-08-20T15:24:19Z</time>
      </trkpt>
      <trkpt lat="25.4960960" lon="-100.6655090">
        <ele>2407.5</ele>
        <time>2022-08-20T15:24:20Z</time>
      </trkpt>
      <trkpt lat="25.4960990" lon="-100.6655110">
        <ele>2407.4</ele>
        <time>2022-08-20T15:24:21Z</time>
      </trkpt>
      <trkpt lat="25.4961010" lon="-100.6655130">
        <ele>2407.4</ele>
        <time>2022-08-20T15:24:22Z</time>
      </trkpt>
      <trkpt lat="25.4961030" lon="-100.6655140">
        <ele>2407.4</ele>
        <time>2022-08-20T15:24:23Z</time>
      </trkpt>
      <trkpt lat="25.4961050" lon="-100.6655150">
        <ele>2407.4</ele>
        <time>2022-08-20T15:24:24Z</time>
      </trkpt>
      <trkpt lat="25.4961060" lon="-100.6655160">
        <ele>2407.4</ele>
        <time>2022-08-20T15:24:25Z</time>
      </trkpt>
      <trkpt lat="25.4961060" lon="-100.6655170">
        <ele>2407.4</ele>
        <time>2022-08-20T15:24:26Z</time>
      </trkpt>
      <trkpt lat="25.4961060" lon="-100.6655170">
        <ele>2407.4</ele>
        <time>2022-08-20T15:24:27Z</time>
      </trkpt>
      <trkpt lat="25.4961060" lon="-100.6655170">
        <ele>2407.4</ele>
        <time>2022-08-20T15:24:28Z</time>
      </trkpt>
      <trkpt lat="25.4961060" lon="-100.6655180">
        <ele>2407.4</ele>
        <time>2022-08-20T15:24:29Z</time>
      </trkpt>
      <trkpt lat="25.4961070" lon="-100.6655180">
        <ele>2407.4</ele>
        <time>2022-08-20T15:24:30Z</time>
      </trkpt>
      <trkpt lat="25.4961070" lon="-100.6655190">
        <ele>2407.4</ele>
        <time>2022-08-20T15:24:31Z</time>
      </trkpt>
      <trkpt lat="25.4961070" lon="-100.6655200">
        <ele>2407.4</ele>
        <time>2022-08-20T15:24:32Z</time>
      </trkpt>
      <trkpt lat="25.4961070" lon="-100.6655210">
        <ele>2407.4</ele>
        <time>2022-08-20T15:24:33Z</time>
      </trkpt>
      <trkpt lat="25.4961080" lon="-100.6655210">
        <ele>2407.4</ele>
        <time>2022-08-20T15:24:34Z</time>
      </trkpt>
      <trkpt lat="25.4961080" lon="-100.6655210">
        <ele>2407.4</ele>
        <time>2022-08-20T15:24:35Z</time>
      </trkpt>
      <trkpt lat="25.4961060" lon="-100.6655190">
        <ele>2407.4</ele>
        <time>2022-08-20T15:24:36Z</time>
      </trkpt>
      <trkpt lat="25.4961040" lon="-100.6655180">
        <ele>2407.4</ele>
        <time>2022-08-20T15:24:37Z</time>
      </trkpt>
      <trkpt lat="25.4961050" lon="-100.6655200">
        <ele>2407.4</ele>
        <time>2022-08-20T15:24:38Z</time>
      </trkpt>
      <trkpt lat="25.4961050" lon="-100.6655210">
        <ele>2407.4</ele>
        <time>2022-08-20T15:24:39Z</time>
      </trkpt>
      <trkpt lat="25.4961040" lon="-100.6655220">
        <ele>2407.4</ele>
        <time>2022-08-20T15:24:40Z</time>
      </trkpt>
      <trkpt lat="25.4961050" lon="-100.6655220">
        <ele>2407.4</ele>
        <time>2022-08-20T15:24:41Z</time>
      </trkpt>
      <trkpt lat="25.4961050" lon="-100.6655220">
        <ele>2407.4</ele>
        <time>2022-08-20T15:24:42Z</time>
      </trkpt>
      <trkpt lat="25.4961110" lon="-100.6655210">
        <ele>2407.4</ele>
        <time>2022-08-20T15:24:44Z</time>
      </trkpt>
      <trkpt lat="25.4961170" lon="-100.6655210">
        <ele>2407.3</ele>
        <time>2022-08-20T15:24:46Z</time>
      </trkpt>
      <trkpt lat="25.4961200" lon="-100.6655220">
        <ele>2407.3</ele>
        <time>2022-08-20T15:24:47Z</time>
      </trkpt>
      <trkpt lat="25.4961220" lon="-100.6655250">
        <ele>2407.3</ele>
        <time>2022-08-20T15:24:48Z</time>
      </trkpt>
      <trkpt lat="25.4961230" lon="-100.6655270">
        <ele>2407.3</ele>
        <time>2022-08-20T15:24:49Z</time>
      </trkpt>
      <trkpt lat="25.4961230" lon="-100.6655270">
        <ele>2407.3</ele>
        <time>2022-08-20T15:24:50Z</time>
      </trkpt>
      <trkpt lat="25.4961210" lon="-100.6655270">
        <ele>2407.3</ele>
        <time>2022-08-20T15:24:51Z</time>
      </trkpt>
      <trkpt lat="25.4961190" lon="-100.6655260">
        <ele>2407.3</ele>
        <time>2022-08-20T15:24:52Z</time>
      </trkpt>
      <trkpt lat="25.4961170" lon="-100.6655250">
        <ele>2407.3</ele>
        <time>2022-08-20T15:24:53Z</time>
      </trkpt>
      <trkpt lat="25.4961160" lon="-100.6655240">
        <ele>2407.3</ele>
        <time>2022-08-20T15:24:54Z</time>
      </trkpt>
      <trkpt lat="25.4961140" lon="-100.6655240">
        <ele>2407.3</ele>
        <time>2022-08-20T15:24:55Z</time>
      </trkpt>
      <trkpt lat="25.4961130" lon="-100.6655240">
        <ele>2407.3</ele>
        <time>2022-08-20T15:24:56Z</time>
      </trkpt>
      <trkpt lat="25.4961120" lon="-100.6655230">
        <ele>2407.3</ele>
        <time>2022-08-20T15:24:57Z</time>
      </trkpt>
      <trkpt lat="25.4961110" lon="-100.6655230">
        <ele>2407.3</ele>
        <time>2022-08-20T15:24:58Z</time>
      </trkpt>
      <trkpt lat="25.4961110" lon="-100.6655230">
        <ele>2407.3</ele>
        <time>2022-08-20T15:24:59Z</time>
      </trkpt>
      <trkpt lat="25.4961070" lon="-100.6655190">
        <ele>2407.3</ele>
        <time>2022-08-20T15:25:00Z</time>
      </trkpt>
      <trkpt lat="25.4961060" lon="-100.6655180">
        <ele>2407.3</ele>
        <time>2022-08-20T15:25:01Z</time>
      </trkpt>
      <trkpt lat="25.4961050" lon="-100.6655170">
        <ele>2407.3</ele>
        <time>2022-08-20T15:25:02Z</time>
      </trkpt>
      <trkpt lat="25.4961050" lon="-100.6655170">
        <ele>2407.3</ele>
        <time>2022-08-20T15:25:03Z</time>
      </trkpt>
      <trkpt lat="25.4961050" lon="-100.6655170">
        <ele>2407.3</ele>
        <time>2022-08-20T15:25:04Z</time>
      </trkpt>
      <trkpt lat="25.4961050" lon="-100.6655170">
        <ele>2407.3</ele>
        <time>2022-08-20T15:25:05Z</time>
      </trkpt>
      <trkpt lat="25.4961050" lon="-100.6655170">
        <ele>2407.3</ele>
        <time>2022-08-20T15:25:06Z</time>
      </trkpt>
      <trkpt lat="25.4961050" lon="-100.6655170">
        <ele>2407.3</ele>
        <time>2022-08-20T15:25:07Z</time>
      </trkpt>
      <trkpt lat="25.4961050" lon="-100.6655170">
        <ele>2407.3</ele>
        <time>2022-08-20T15:25:08Z</time>
      </trkpt>
      <trkpt lat="25.4961050" lon="-100.6655170">
        <ele>2407.3</ele>
        <time>2022-08-20T15:25:09Z</time>
      </trkpt>
      <trkpt lat="25.4961050" lon="-100.6655170">
        <ele>2407.3</ele>
        <time>2022-08-20T15:25:10Z</time>
      </trkpt>
      <trkpt lat="25.4961050" lon="-100.6655170">
        <ele>2407.3</ele>
        <time>2022-08-20T15:25:11Z</time>
      </trkpt>
      <trkpt lat="25.4961050" lon="-100.6655170">
        <ele>2407.3</ele>
        <time>2022-08-20T15:25:12Z</time>
      </trkpt>
      <trkpt lat="25.4961050" lon="-100.6655170">
        <ele>2407.3</ele>
        <time>2022-08-20T15:25:13Z</time>
      </trkpt>
      <trkpt lat="25.4961050" lon="-100.6655170">
        <ele>2407.3</ele>
        <time>2022-08-20T15:25:14Z</time>
      </trkpt>
      <trkpt lat="25.4961050" lon="-100.6655170">
        <ele>2407.3</ele>
        <time>2022-08-20T15:25:15Z</time>
      </trkpt>
      <trkpt lat="25.4961050" lon="-100.6655170">
        <ele>2407.3</ele>
        <time>2022-08-20T15:25:16Z</time>
      </trkpt>
      <trkpt lat="25.4961050" lon="-100.6655170">
        <ele>2407.3</ele>
        <time>2022-08-20T15:25:17Z</time>
      </trkpt>
      <trkpt lat="25.4961050" lon="-100.6655170">
        <ele>2407.3</ele>
        <time>2022-08-20T15:25:18Z</time>
      </trkpt>
      <trkpt lat="25.4961050" lon="-100.6655170">
        <ele>2407.3</ele>
        <time>2022-08-20T15:25:19Z</time>
      </trkpt>
      <trkpt lat="25.4961050" lon="-100.6655170">
        <ele>2407.3</ele>
        <time>2022-08-20T15:25:20Z</time>
      </trkpt>
      <trkpt lat="25.4961050" lon="-100.6655170">
        <ele>2407.3</ele>
        <time>2022-08-20T15:25:21Z</time>
      </trkpt>
      <trkpt lat="25.4961050" lon="-100.6655170">
        <ele>2407.3</ele>
        <time>2022-08-20T15:25:22Z</time>
      </trkpt>
      <trkpt lat="25.4961050" lon="-100.6655170">
        <ele>2407.3</ele>
        <time>2022-08-20T15:25:23Z</time>
      </trkpt>
      <trkpt lat="25.4961050" lon="-100.6655170">
        <ele>2407.3</ele>
        <time>2022-08-20T15:25:24Z</time>
      </trkpt>
      <trkpt lat="25.4961050" lon="-100.6655170">
        <ele>2407.3</ele>
        <time>2022-08-20T15:25:25Z</time>
      </trkpt>
      <trkpt lat="25.4961050" lon="-100.6655170">
        <ele>2407.3</ele>
        <time>2022-08-20T15:25:26Z</time>
      </trkpt>
      <trkpt lat="25.4961050" lon="-100.6655170">
        <ele>2407.3</ele>
        <time>2022-08-20T15:25:27Z</time>
      </trkpt>
      <trkpt lat="25.4961050" lon="-100.6655170">
        <ele>2407.3</ele>
        <time>2022-08-20T15:25:28Z</time>
      </trkpt>
      <trkpt lat="25.4961050" lon="-100.6655170">
        <ele>2407.3</ele>
        <time>2022-08-20T15:25:29Z</time>
      </trkpt>
      <trkpt lat="25.4961050" lon="-100.6655170">
        <ele>2407.3</ele>
        <time>2022-08-20T15:25:30Z</time>
      </trkpt>
      <trkpt lat="25.4961050" lon="-100.6655170">
        <ele>2407.3</ele>
        <time>2022-08-20T15:25:31Z</time>
      </trkpt>
      <trkpt lat="25.4961050" lon="-100.6655170">
        <ele>2407.3</ele>
        <time>2022-08-20T15:25:32Z</time>
      </trkpt>
      <trkpt lat="25.4961050" lon="-100.6655170">
        <ele>2407.3</ele>
        <time>2022-08-20T15:25:33Z</time>
      </trkpt>
      <trkpt lat="25.4961050" lon="-100.6655170">
        <ele>2407.3</ele>
        <time>2022-08-20T15:25:34Z</time>
      </trkpt>
      <trkpt lat="25.4961050" lon="-100.6655170">
        <ele>2407.3</ele>
        <time>2022-08-20T15:25:35Z</time>
      </trkpt>
      <trkpt lat="25.4961050" lon="-100.6655170">
        <ele>2407.3</ele>
        <time>2022-08-20T15:25:36Z</time>
      </trkpt>
      <trkpt lat="25.4961050" lon="-100.6655170">
        <ele>2407.3</ele>
        <time>2022-08-20T15:25:37Z</time>
      </trkpt>
      <trkpt lat="25.4961050" lon="-100.6655170">
        <ele>2407.3</ele>
        <time>2022-08-20T15:25:38Z</time>
      </trkpt>
      <trkpt lat="25.4961050" lon="-100.6655170">
        <ele>2407.3</ele>
        <time>2022-08-20T15:25:39Z</time>
      </trkpt>
      <trkpt lat="25.4961050" lon="-100.6655170">
        <ele>2407.3</ele>
        <time>2022-08-20T15:25:40Z</time>
      </trkpt>
      <trkpt lat="25.4961050" lon="-100.6655170">
        <ele>2407.3</ele>
        <time>2022-08-20T15:25:41Z</time>
      </trkpt>
      <trkpt lat="25.4961050" lon="-100.6655170">
        <ele>2407.3</ele>
        <time>2022-08-20T15:25:42Z</time>
      </trkpt>
      <trkpt lat="25.4961050" lon="-100.6655170">
        <ele>2407.3</ele>
        <time>2022-08-20T15:25:43Z</time>
      </trkpt>
      <trkpt lat="25.4961050" lon="-100.6655170">
        <ele>2407.3</ele>
        <time>2022-08-20T15:25:44Z</time>
      </trkpt>
      <trkpt lat="25.4961050" lon="-100.6655170">
        <ele>2407.3</ele>
        <time>2022-08-20T15:25:45Z</time>
      </trkpt>
      <trkpt lat="25.4961050" lon="-100.6655170">
        <ele>2407.3</ele>
        <time>2022-08-20T15:25:46Z</time>
      </trkpt>
      <trkpt lat="25.4961050" lon="-100.6655170">
        <ele>2407.3</ele>
        <time>2022-08-20T15:25:47Z</time>
      </trkpt>
      <trkpt lat="25.4961050" lon="-100.6655170">
        <ele>2407.3</ele>
        <time>2022-08-20T15:25:48Z</time>
      </trkpt>
      <trkpt lat="25.4961040" lon="-100.6655170">
        <ele>2407.3</ele>
        <time>2022-08-20T15:25:49Z</time>
      </trkpt>
      <trkpt lat="25.4961050" lon="-100.6655170">
        <ele>2407.3</ele>
        <time>2022-08-20T15:25:50Z</time>
      </trkpt>
      <trkpt lat="25.4961050" lon="-100.6655170">
        <ele>2407.3</ele>
        <time>2022-08-20T15:25:51Z</time>
      </trkpt>
      <trkpt lat="25.4961070" lon="-100.6655180">
        <ele>2407.2</ele>
        <time>2022-08-20T15:25:52Z</time>
      </trkpt>
      <trkpt lat="25.4961070" lon="-100.6655180">
        <ele>2407.2</ele>
        <time>2022-08-20T15:25:53Z</time>
      </trkpt>
      <trkpt lat="25.4961050" lon="-100.6655170">
        <ele>2407.2</ele>
        <time>2022-08-20T15:25:54Z</time>
      </trkpt>
      <trkpt lat="25.4961060" lon="-100.6655160">
        <ele>2407.2</ele>
        <time>2022-08-20T15:25:55Z</time>
      </trkpt>
      <trkpt lat="25.4961060" lon="-100.6655170">
        <ele>2407.2</ele>
        <time>2022-08-20T15:25:56Z</time>
      </trkpt>
      <trkpt lat="25.4961060" lon="-100.6655170">
        <ele>2407.2</ele>
        <time>2022-08-20T15:25:57Z</time>
      </trkpt>
      <trkpt lat="25.4961040" lon="-100.6655170">
        <ele>2407.2</ele>
        <time>2022-08-20T15:25:58Z</time>
      </trkpt>
      <trkpt lat="25.4961020" lon="-100.6655160">
        <ele>2407.2</ele>
        <time>2022-08-20T15:25:59Z</time>
      </trkpt>
      <trkpt lat="25.4961010" lon="-100.6655140">
        <ele>2407.2</ele>
        <time>2022-08-20T15:26:00Z</time>
      </trkpt>
      <trkpt lat="25.4961010" lon="-100.6655140">
        <ele>2407.2</ele>
        <time>2022-08-20T15:26:01Z</time>
      </trkpt>
      <trkpt lat="25.4961000" lon="-100.6655120">
        <ele>2407.2</ele>
        <time>2022-08-20T15:26:02Z</time>
      </trkpt>
      <trkpt lat="25.4960980" lon="-100.6655110">
        <ele>2407.2</ele>
        <time>2022-08-20T15:26:03Z</time>
      </trkpt>
      <trkpt lat="25.4960980" lon="-100.6655100">
        <ele>2407.2</ele>
        <time>2022-08-20T15:26:04Z</time>
      </trkpt>
      <trkpt lat="25.4960970" lon="-100.6655090">
        <ele>2407.2</ele>
        <time>2022-08-20T15:26:05Z</time>
      </trkpt>
      <trkpt lat="25.4960970" lon="-100.6655090">
        <ele>2407.2</ele>
        <time>2022-08-20T15:26:06Z</time>
      </trkpt>
      <trkpt lat="25.4960970" lon="-100.6655090">
        <ele>2407.2</ele>
        <time>2022-08-20T15:26:07Z</time>
      </trkpt>
      <trkpt lat="25.4960970" lon="-100.6655090">
        <ele>2407.2</ele>
        <time>2022-08-20T15:26:08Z</time>
      </trkpt>
      <trkpt lat="25.4960980" lon="-100.6655090">
        <ele>2407.2</ele>
        <time>2022-08-20T15:26:09Z</time>
      </trkpt>
      <trkpt lat="25.4960990" lon="-100.6655090">
        <ele>2407.2</ele>
        <time>2022-08-20T15:26:10Z</time>
      </trkpt>
      <trkpt lat="25.4961000" lon="-100.6655090">
        <ele>2407.2</ele>
        <time>2022-08-20T15:26:11Z</time>
      </trkpt>
      <trkpt lat="25.4961020" lon="-100.6655120">
        <ele>2407.2</ele>
        <time>2022-08-20T15:26:12Z</time>
      </trkpt>
      <trkpt lat="25.4961050" lon="-100.6655180">
        <ele>2407.2</ele>
        <time>2022-08-20T15:26:13Z</time>
      </trkpt>
      <trkpt lat="25.4961010" lon="-100.6655150">
        <ele>2407.1</ele>
        <time>2022-08-20T15:26:14Z</time>
      </trkpt>
      <trkpt lat="25.4960990" lon="-100.6655200">
        <ele>2407.1</ele>
        <time>2022-08-20T15:26:15Z</time>
      </trkpt>
      <trkpt lat="25.4960980" lon="-100.6655330">
        <ele>2407.1</ele>
        <time>2022-08-20T15:26:16Z</time>
      </trkpt>
      <trkpt lat="25.4961010" lon="-100.6655530">
        <ele>2407.0</ele>
        <time>2022-08-20T15:26:17Z</time>
      </trkpt>
      <trkpt lat="25.4961070" lon="-100.6656010">
        <ele>2406.8</ele>
        <time>2022-08-20T15:26:19Z</time>
      </trkpt>
      <trkpt lat="25.4961110" lon="-100.6656250">
        <ele>2406.7</ele>
        <time>2022-08-20T15:26:20Z</time>
      </trkpt>
      <trkpt lat="25.4961160" lon="-100.6656520">
        <ele>2406.6</ele>
        <time>2022-08-20T15:26:21Z</time>
      </trkpt>
      <trkpt lat="25.4961260" lon="-100.6656890">
        <ele>2406.4</ele>
        <time>2022-08-20T15:26:23Z</time>
      </trkpt>
      <trkpt lat="25.4961380" lon="-100.6657320">
        <ele>2406.1</ele>
        <time>2022-08-20T15:26:24Z</time>
      </trkpt>
      <trkpt lat="25.4961570" lon="-100.6658060">
        <ele>2405.6</ele>
        <time>2022-08-20T15:26:26Z</time>
      </trkpt>
      <trkpt lat="25.4961730" lon="-100.6658490">
        <ele>2405.3</ele>
        <time>2022-08-20T15:26:28Z</time>
      </trkpt>
      <trkpt lat="25.4961950" lon="-100.6659050">
        <ele>2404.8</ele>
        <time>2022-08-20T15:26:29Z</time>
      </trkpt>
      <trkpt lat="25.4962160" lon="-100.6659600">
        <ele>2404.4</ele>
        <time>2022-08-20T15:26:30Z</time>
      </trkpt>
      <trkpt lat="25.4962310" lon="-100.6660100">
        <ele>2404.0</ele>
        <time>2022-08-20T15:26:31Z</time>
      </trkpt>
      <trkpt lat="25.4963160" lon="-100.6663070">
        <ele>2401.8</ele>
        <time>2022-08-20T15:26:33Z</time>
      </trkpt>
      <trkpt lat="25.4963270" lon="-100.6663450">
        <ele>2401.5</ele>
        <time>2022-08-20T15:26:34Z</time>
      </trkpt>
      <trkpt lat="25.4963500" lon="-100.6664160">
        <ele>2400.8</ele>
        <time>2022-08-20T15:26:35Z</time>
      </trkpt>
      <trkpt lat="25.4963720" lon="-100.6664840">
        <ele>2400.1</ele>
        <time>2022-08-20T15:26:36Z</time>
      </trkpt>
      <trkpt lat="25.4963940" lon="-100.6665490">
        <ele>2399.3</ele>
        <time>2022-08-20T15:26:37Z</time>
      </trkpt>
      <trkpt lat="25.4964160" lon="-100.6666110">
        <ele>2398.6</ele>
        <time>2022-08-20T15:26:38Z</time>
      </trkpt>
      <trkpt lat="25.4964410" lon="-100.6666700">
        <ele>2397.8</ele>
        <time>2022-08-20T15:26:39Z</time>
      </trkpt>
      <trkpt lat="25.4964700" lon="-100.6667180">
        <ele>2397.2</ele>
        <time>2022-08-20T15:26:40Z</time>
      </trkpt>
      <trkpt lat="25.4965050" lon="-100.6667560">
        <ele>2396.6</ele>
        <time>2022-08-20T15:26:41Z</time>
      </trkpt>
      <trkpt lat="25.4965440" lon="-100.6667970">
        <ele>2396.0</ele>
        <time>2022-08-20T15:26:42Z</time>
      </trkpt>
      <trkpt lat="25.4965790" lon="-100.6668500">
        <ele>2395.4</ele>
        <time>2022-08-20T15:26:43Z</time>
      </trkpt>
      <trkpt lat="25.4966080" lon="-100.6669140">
        <ele>2394.6</ele>
        <time>2022-08-20T15:26:44Z</time>
      </trkpt>
      <trkpt lat="25.4966270" lon="-100.6669820">
        <ele>2393.9</ele>
        <time>2022-08-20T15:26:45Z</time>
      </trkpt>
      <trkpt lat="25.4966410" lon="-100.6670470">
        <ele>2393.2</ele>
        <time>2022-08-20T15:26:46Z</time>
      </trkpt>
      <trkpt lat="25.4966490" lon="-100.6671090">
        <ele>2392.5</ele>
        <time>2022-08-20T15:26:47Z</time>
      </trkpt>
      <trkpt lat="25.4966570" lon="-100.6671590">
        <ele>2391.9</ele>
        <time>2022-08-20T15:26:48Z</time>
      </trkpt>
      <trkpt lat="25.4966670" lon="-100.6671900">
        <ele>2391.5</ele>
        <time>2022-08-20T15:26:49Z</time>
      </trkpt>
      <trkpt lat="25.4966810" lon="-100.6672230">
        <ele>2391.0</ele>
        <time>2022-08-20T15:26:50Z</time>
      </trkpt>
      <trkpt lat="25.4967060" lon="-100.6672830">
        <ele>2390.1</ele>
        <time>2022-08-20T15:26:51Z</time>
      </trkpt>
      <trkpt lat="25.4967270" lon="-100.6673430">
        <ele>2389.3</ele>
        <time>2022-08-20T15:26:52Z</time>
      </trkpt>
      <trkpt lat="25.4967430" lon="-100.6674040">
        <ele>2388.5</ele>
        <time>2022-08-20T15:26:53Z</time>
      </trkpt>
      <trkpt lat="25.4967580" lon="-100.6674620">
        <ele>2387.7</ele>
        <time>2022-08-20T15:26:54Z</time>
      </trkpt>
      <trkpt lat="25.4967730" lon="-100.6675180">
        <ele>2387.0</ele>
        <time>2022-08-20T15:26:55Z</time>
      </trkpt>
      <trkpt lat="25.4967870" lon="-100.6675710">
        <ele>2386.3</ele>
        <time>2022-08-20T15:26:56Z</time>
      </trkpt>
      <trkpt lat="25.4968010" lon="-100.6676220">
        <ele>2385.7</ele>
        <time>2022-08-20T15:26:57Z</time>
      </trkpt>
      <trkpt lat="25.4968170" lon="-100.6676770">
        <ele>2385.1</ele>
        <time>2022-08-20T15:26:58Z</time>
      </trkpt>
      <trkpt lat="25.4968390" lon="-100.6677350">
        <ele>2384.5</ele>
        <time>2022-08-20T15:26:59Z</time>
      </trkpt>
      <trkpt lat="25.4968740" lon="-100.6677920">
        <ele>2384.0</ele>
        <time>2022-08-20T15:27:00Z</time>
      </trkpt>
      <trkpt lat="25.4969240" lon="-100.6678400">
        <ele>2383.5</ele>
        <time>2022-08-20T15:27:01Z</time>
      </trkpt>
      <trkpt lat="25.4969880" lon="-100.6678790">
        <ele>2383.0</ele>
        <time>2022-08-20T15:27:02Z</time>
      </trkpt>
      <trkpt lat="25.4970580" lon="-100.6679080">
        <ele>2382.5</ele>
        <time>2022-08-20T15:27:03Z</time>
      </trkpt>
      <trkpt lat="25.4971260" lon="-100.6679270">
        <ele>2382.0</ele>
        <time>2022-08-20T15:27:04Z</time>
      </trkpt>
      <trkpt lat="25.4971900" lon="-100.6679390">
        <ele>2381.6</ele>
        <time>2022-08-20T15:27:05Z</time>
      </trkpt>
      <trkpt lat="25.4972440" lon="-100.6679320">
        <ele>2381.2</ele>
        <time>2022-08-20T15:27:06Z</time>
      </trkpt>
      <trkpt lat="25.4972910" lon="-100.6679120">
        <ele>2380.9</ele>
        <time>2022-08-20T15:27:07Z</time>
      </trkpt>
      <trkpt lat="25.4973320" lon="-100.6678880">
        <ele>2380.7</ele>
        <time>2022-08-20T15:27:08Z</time>
      </trkpt>
      <trkpt lat="25.4973570" lon="-100.6678680">
        <ele>2380.6</ele>
        <time>2022-08-20T15:27:09Z</time>
      </trkpt>
      <trkpt lat="25.4973850" lon="-100.6678420">
        <ele>2380.4</ele>
        <time>2022-08-20T15:27:10Z</time>
      </trkpt>
      <trkpt lat="25.4974030" lon="-100.6678180">
        <ele>2380.3</ele>
        <time>2022-08-20T15:27:11Z</time>
      </trkpt>
      <trkpt lat="25.4974260" lon="-100.6677870">
        <ele>2380.2</ele>
        <time>2022-08-20T15:27:12Z</time>
      </trkpt>
      <trkpt lat="25.4974470" lon="-100.6677610">
        <ele>2380.1</ele>
        <time>2022-08-20T15:27:13Z</time>
      </trkpt>
      <trkpt lat="25.4974920" lon="-100.6677420">
        <ele>2379.8</ele>
        <time>2022-08-20T15:27:14Z</time>
      </trkpt>
      <trkpt lat="25.4975250" lon="-100.6677370">
        <ele>2379.6</ele>
        <time>2022-08-20T15:27:15Z</time>
      </trkpt>
      <trkpt lat="25.4975340" lon="-100.6677370">
        <ele>2379.5</ele>
        <time>2022-08-20T15:27:16Z</time>
      </trkpt>
      <trkpt lat="25.4975500" lon="-100.6677490">
        <ele>2379.4</ele>
        <time>2022-08-20T15:27:18Z</time>
      </trkpt>
      <trkpt lat="25.4975600" lon="-100.6677640">
        <ele>2379.2</ele>
        <time>2022-08-20T15:27:19Z</time>
      </trkpt>
      <trkpt lat="25.4975690" lon="-100.6677930">
        <ele>2379.0</ele>
        <time>2022-08-20T15:27:20Z</time>
      </trkpt>
      <trkpt lat="25.4975710" lon="-100.6678030">
        <ele>2378.9</ele>
        <time>2022-08-20T15:27:21Z</time>
      </trkpt>
      <trkpt lat="25.4975770" lon="-100.6678230">
        <ele>2378.7</ele>
        <time>2022-08-20T15:27:22Z</time>
      </trkpt>
      <trkpt lat="25.4975760" lon="-100.6678400">
        <ele>2378.5</ele>
        <time>2022-08-20T15:27:23Z</time>
      </trkpt>
      <trkpt lat="25.4975720" lon="-100.6678530">
        <ele>2378.4</ele>
        <time>2022-08-20T15:27:24Z</time>
      </trkpt>
      <trkpt lat="25.4975720" lon="-100.6678540">
        <ele>2378.4</ele>
        <time>2022-08-20T15:27:25Z</time>
      </trkpt>
      <trkpt lat="25.4975720" lon="-100.6678540">
        <ele>2378.4</ele>
        <time>2022-08-20T15:27:26Z</time>
      </trkpt>
      <trkpt lat="25.4975720" lon="-100.6678550">
        <ele>2378.4</ele>
        <time>2022-08-20T15:27:27Z</time>
      </trkpt>
      <trkpt lat="25.4975720" lon="-100.6678550">
        <ele>2378.4</ele>
        <time>2022-08-20T15:27:28Z</time>
      </trkpt>
      <trkpt lat="25.4975720" lon="-100.6678550">
        <ele>2378.4</ele>
        <time>2022-08-20T15:27:29Z</time>
      </trkpt>
      <trkpt lat="25.4975720" lon="-100.6678560">
        <ele>2378.4</ele>
        <time>2022-08-20T15:27:30Z</time>
      </trkpt>
      <trkpt lat="25.4975720" lon="-100.6678560">
        <ele>2378.4</ele>
        <time>2022-08-20T15:27:31Z</time>
      </trkpt>
      <trkpt lat="25.4975720" lon="-100.6678560">
        <ele>2378.4</ele>
        <time>2022-08-20T15:27:32Z</time>
      </trkpt>
      <trkpt lat="25.4975720" lon="-100.6678570">
        <ele>2378.4</ele>
        <time>2022-08-20T15:27:33Z</time>
      </trkpt>
      <trkpt lat="25.4975720" lon="-100.6678570">
        <ele>2378.4</ele>
        <time>2022-08-20T15:27:34Z</time>
      </trkpt>
      <trkpt lat="25.4975720" lon="-100.6678580">
        <ele>2378.3</ele>
        <time>2022-08-20T15:27:35Z</time>
      </trkpt>
      <trkpt lat="25.4975720" lon="-100.6678580">
        <ele>2378.3</ele>
        <time>2022-08-20T15:27:36Z</time>
      </trkpt>
      <trkpt lat="25.4975720" lon="-100.6678580">
        <ele>2378.3</ele>
        <time>2022-08-20T15:27:37Z</time>
      </trkpt>
      <trkpt lat="25.4975720" lon="-100.6678590">
        <ele>2378.3</ele>
        <time>2022-08-20T15:27:38Z</time>
      </trkpt>
      <trkpt lat="25.4975720" lon="-100.6678590">
        <ele>2378.3</ele>
        <time>2022-08-20T15:27:39Z</time>
      </trkpt>
      <trkpt lat="25.4975720" lon="-100.6678600">
        <ele>2378.3</ele>
        <time>2022-08-20T15:27:40Z</time>
      </trkpt>
      <trkpt lat="25.4975720" lon="-100.6678600">
        <ele>2378.3</ele>
        <time>2022-08-20T15:27:41Z</time>
      </trkpt>
      <trkpt lat="25.4975720" lon="-100.6678600">
        <ele>2378.3</ele>
        <time>2022-08-20T15:27:42Z</time>
      </trkpt>
      <trkpt lat="25.4975720" lon="-100.6678610">
        <ele>2378.3</ele>
        <time>2022-08-20T15:27:43Z</time>
      </trkpt>
      <trkpt lat="25.4975720" lon="-100.6678610">
        <ele>2378.3</ele>
        <time>2022-08-20T15:27:44Z</time>
      </trkpt>
      <trkpt lat="25.4975720" lon="-100.6678610">
        <ele>2378.3</ele>
        <time>2022-08-20T15:27:45Z</time>
      </trkpt>
      <trkpt lat="25.4975720" lon="-100.6678620">
        <ele>2378.3</ele>
        <time>2022-08-20T15:27:46Z</time>
      </trkpt>
      <trkpt lat="25.4975720" lon="-100.6678620">
        <ele>2378.3</ele>
        <time>2022-08-20T15:27:47Z</time>
      </trkpt>
      <trkpt lat="25.4975720" lon="-100.6678630">
        <ele>2378.3</ele>
        <time>2022-08-20T15:27:48Z</time>
      </trkpt>
      <trkpt lat="25.4975720" lon="-100.6678630">
        <ele>2378.3</ele>
        <time>2022-08-20T15:27:49Z</time>
      </trkpt>
      <trkpt lat="25.4975720" lon="-100.6678630">
        <ele>2378.3</ele>
        <time>2022-08-20T15:27:50Z</time>
      </trkpt>
      <trkpt lat="25.4975720" lon="-100.6678640">
        <ele>2378.3</ele>
        <time>2022-08-20T15:27:51Z</time>
      </trkpt>
      <trkpt lat="25.4975720" lon="-100.6678640">
        <ele>2378.3</ele>
        <time>2022-08-20T15:27:52Z</time>
      </trkpt>
      <trkpt lat="25.4975720" lon="-100.6678650">
        <ele>2378.3</ele>
        <time>2022-08-20T15:27:53Z</time>
      </trkpt>
      <trkpt lat="25.4975720" lon="-100.6678650">
        <ele>2378.3</ele>
        <time>2022-08-20T15:27:54Z</time>
      </trkpt>
      <trkpt lat="25.4975720" lon="-100.6678650">
        <ele>2378.3</ele>
        <time>2022-08-20T15:27:55Z</time>
      </trkpt>
      <trkpt lat="25.4975720" lon="-100.6678660">
        <ele>2378.3</ele>
        <time>2022-08-20T15:27:56Z</time>
      </trkpt>
      <trkpt lat="25.4975720" lon="-100.6678660">
        <ele>2378.3</ele>
        <time>2022-08-20T15:27:57Z</time>
      </trkpt>
      <trkpt lat="25.4975720" lon="-100.6678660">
        <ele>2378.3</ele>
        <time>2022-08-20T15:27:58Z</time>
      </trkpt>
      <trkpt lat="25.4975720" lon="-100.6678670">
        <ele>2378.3</ele>
        <time>2022-08-20T15:27:59Z</time>
      </trkpt>
      <trkpt lat="25.4975720" lon="-100.6678670">
        <ele>2378.3</ele>
        <time>2022-08-20T15:28:00Z</time>
      </trkpt>
      <trkpt lat="25.4975720" lon="-100.6678680">
        <ele>2378.3</ele>
        <time>2022-08-20T15:28:01Z</time>
      </trkpt>
      <trkpt lat="25.4975720" lon="-100.6678680">
        <ele>2378.3</ele>
        <time>2022-08-20T15:28:02Z</time>
      </trkpt>
      <trkpt lat="25.4975720" lon="-100.6678680">
        <ele>2378.3</ele>
        <time>2022-08-20T15:28:03Z</time>
      </trkpt>
      <trkpt lat="25.4975720" lon="-100.6678690">
        <ele>2378.2</ele>
        <time>2022-08-20T15:28:04Z</time>
      </trkpt>
      <trkpt lat="25.4975720" lon="-100.6678690">
        <ele>2378.2</ele>
        <time>2022-08-20T15:28:05Z</time>
      </trkpt>
      <trkpt lat="25.4975720" lon="-100.6678690">
        <ele>2378.2</ele>
        <time>2022-08-20T15:28:06Z</time>
      </trkpt>
      <trkpt lat="25.4975720" lon="-100.6678700">
        <ele>2378.2</ele>
        <time>2022-08-20T15:28:07Z</time>
      </trkpt>
      <trkpt lat="25.4975720" lon="-100.6678700">
        <ele>2378.2</ele>
        <time>2022-08-20T15:28:08Z</time>
      </trkpt>
      <trkpt lat="25.4975720" lon="-100.6678710">
        <ele>2378.2</ele>
        <time>2022-08-20T15:28:09Z</time>
      </trkpt>
      <trkpt lat="25.4975720" lon="-100.6678710">
        <ele>2378.2</ele>
        <time>2022-08-20T15:28:10Z</time>
      </trkpt>
      <trkpt lat="25.4975720" lon="-100.6678710">
        <ele>2378.2</ele>
        <time>2022-08-20T15:28:11Z</time>
      </trkpt>
      <trkpt lat="25.4975720" lon="-100.6678720">
        <ele>2378.2</ele>
        <time>2022-08-20T15:28:12Z</time>
      </trkpt>
      <trkpt lat="25.4975720" lon="-100.6678720">
        <ele>2378.2</ele>
        <time>2022-08-20T15:28:13Z</time>
      </trkpt>
      <trkpt lat="25.4975720" lon="-100.6678730">
        <ele>2378.2</ele>
        <time>2022-08-20T15:28:14Z</time>
      </trkpt>
      <trkpt lat="25.4975720" lon="-100.6678730">
        <ele>2378.2</ele>
        <time>2022-08-20T15:28:15Z</time>
      </trkpt>
      <trkpt lat="25.4975720" lon="-100.6678730">
        <ele>2378.2</ele>
        <time>2022-08-20T15:28:16Z</time>
      </trkpt>
      <trkpt lat="25.4975720" lon="-100.6678740">
        <ele>2378.2</ele>
        <time>2022-08-20T15:28:17Z</time>
      </trkpt>
      <trkpt lat="25.4975720" lon="-100.6678740">
        <ele>2378.2</ele>
        <time>2022-08-20T15:28:18Z</time>
      </trkpt>
      <trkpt lat="25.4975720" lon="-100.6678740">
        <ele>2378.2</ele>
        <time>2022-08-20T15:28:19Z</time>
      </trkpt>
      <trkpt lat="25.4975720" lon="-100.6678750">
        <ele>2378.2</ele>
        <time>2022-08-20T15:28:20Z</time>
      </trkpt>
      <trkpt lat="25.4975720" lon="-100.6678750">
        <ele>2378.2</ele>
        <time>2022-08-20T15:28:21Z</time>
      </trkpt>
      <trkpt lat="25.4975720" lon="-100.6678760">
        <ele>2378.2</ele>
        <time>2022-08-20T15:28:22Z</time>
      </trkpt>
      <trkpt lat="25.4975720" lon="-100.6678760">
        <ele>2378.2</ele>
        <time>2022-08-20T15:28:23Z</time>
      </trkpt>
      <trkpt lat="25.4975710" lon="-100.6678760">
        <ele>2378.2</ele>
        <time>2022-08-20T15:28:24Z</time>
      </trkpt>
      <trkpt lat="25.4975710" lon="-100.6678770">
        <ele>2378.2</ele>
        <time>2022-08-20T15:28:25Z</time>
      </trkpt>
      <trkpt lat="25.4975710" lon="-100.6678770">
        <ele>2378.2</ele>
        <time>2022-08-20T15:28:26Z</time>
      </trkpt>
      <trkpt lat="25.4975710" lon="-100.6678780">
        <ele>2378.1</ele>
        <time>2022-08-20T15:28:27Z</time>
      </trkpt>
      <trkpt lat="25.4975710" lon="-100.6678780">
        <ele>2378.1</ele>
        <time>2022-08-20T15:28:28Z</time>
      </trkpt>
      <trkpt lat="25.4975710" lon="-100.6678780">
        <ele>2378.1</ele>
        <time>2022-08-20T15:28:29Z</time>
      </trkpt>
      <trkpt lat="25.4975710" lon="-100.6678790">
        <ele>2378.1</ele>
        <time>2022-08-20T15:28:30Z</time>
      </trkpt>
      <trkpt lat="25.4975710" lon="-100.6678790">
        <ele>2378.1</ele>
        <time>2022-08-20T15:28:31Z</time>
      </trkpt>
      <trkpt lat="25.4975710" lon="-100.6678790">
        <ele>2378.1</ele>
        <time>2022-08-20T15:28:32Z</time>
      </trkpt>
      <trkpt lat="25.4975710" lon="-100.6678800">
        <ele>2378.1</ele>
        <time>2022-08-20T15:28:33Z</time>
      </trkpt>
      <trkpt lat="25.4975710" lon="-100.6678800">
        <ele>2378.1</ele>
        <time>2022-08-20T15:28:34Z</time>
      </trkpt>
      <trkpt lat="25.4975710" lon="-100.6678810">
        <ele>2378.1</ele>
        <time>2022-08-20T15:28:35Z</time>
      </trkpt>
      <trkpt lat="25.4975710" lon="-100.6678810">
        <ele>2378.1</ele>
        <time>2022-08-20T15:28:36Z</time>
      </trkpt>
      <trkpt lat="25.4975710" lon="-100.6678810">
        <ele>2378.1</ele>
        <time>2022-08-20T15:28:37Z</time>
      </trkpt>
      <trkpt lat="25.4975710" lon="-100.6678820">
        <ele>2378.1</ele>
        <time>2022-08-20T15:28:38Z</time>
      </trkpt>
      <trkpt lat="25.4975710" lon="-100.6678820">
        <ele>2378.1</ele>
        <time>2022-08-20T15:28:39Z</time>
      </trkpt>
      <trkpt lat="25.4975710" lon="-100.6678830">
        <ele>2378.1</ele>
        <time>2022-08-20T15:28:40Z</time>
      </trkpt>
      <trkpt lat="25.4975710" lon="-100.6678830">
        <ele>2378.1</ele>
        <time>2022-08-20T15:28:41Z</time>
      </trkpt>
      <trkpt lat="25.4975710" lon="-100.6678830">
        <ele>2378.1</ele>
        <time>2022-08-20T15:28:42Z</time>
      </trkpt>
      <trkpt lat="25.4975710" lon="-100.6678840">
        <ele>2378.1</ele>
        <time>2022-08-20T15:28:43Z</time>
      </trkpt>
      <trkpt lat="25.4975710" lon="-100.6678840">
        <ele>2378.1</ele>
        <time>2022-08-20T15:28:44Z</time>
      </trkpt>
      <trkpt lat="25.4975710" lon="-100.6678840">
        <ele>2378.1</ele>
        <time>2022-08-20T15:28:45Z</time>
      </trkpt>
      <trkpt lat="25.4975710" lon="-100.6678850">
        <ele>2378.1</ele>
        <time>2022-08-20T15:28:46Z</time>
      </trkpt>
      <trkpt lat="25.4975710" lon="-100.6678850">
        <ele>2378.1</ele>
        <time>2022-08-20T15:28:47Z</time>
      </trkpt>
      <trkpt lat="25.4975710" lon="-100.6678860">
        <ele>2378.1</ele>
        <time>2022-08-20T15:28:48Z</time>
      </trkpt>
      <trkpt lat="25.4975710" lon="-100.6678860">
        <ele>2378.1</ele>
        <time>2022-08-20T15:28:49Z</time>
      </trkpt>
      <trkpt lat="25.4975710" lon="-100.6678860">
        <ele>2378.1</ele>
        <time>2022-08-20T15:28:50Z</time>
      </trkpt>
      <trkpt lat="25.4975710" lon="-100.6678870">
        <ele>2378.1</ele>
        <time>2022-08-20T15:28:51Z</time>
      </trkpt>
      <trkpt lat="25.4975710" lon="-100.6678870">
        <ele>2378.1</ele>
        <time>2022-08-20T15:28:52Z</time>
      </trkpt>
      <trkpt lat="25.4975710" lon="-100.6678880">
        <ele>2378.1</ele>
        <time>2022-08-20T15:28:53Z</time>
      </trkpt>
      <trkpt lat="25.4975710" lon="-100.6678880">
        <ele>2378.1</ele>
        <time>2022-08-20T15:28:54Z</time>
      </trkpt>
      <trkpt lat="25.4975650" lon="-100.6679260">
        <ele>2377.7</ele>
        <time>2022-08-20T15:28:55Z</time>
      </trkpt>
      <trkpt lat="25.4975610" lon="-100.6679380">
        <ele>2377.5</ele>
        <time>2022-08-20T15:28:56Z</time>
      </trkpt>
      <trkpt lat="25.4975530" lon="-100.6679680">
        <ele>2377.2</ele>
        <time>2022-08-20T15:28:57Z</time>
      </trkpt>
      <trkpt lat="25.4975430" lon="-100.6680010">
        <ele>2376.8</ele>
        <time>2022-08-20T15:28:58Z</time>
      </trkpt>
      <trkpt lat="25.4975420" lon="-100.6680430">
        <ele>2376.3</ele>
        <time>2022-08-20T15:28:59Z</time>
      </trkpt>
      <trkpt lat="25.4975470" lon="-100.6680920">
        <ele>2375.7</ele>
        <time>2022-08-20T15:29:01Z</time>
      </trkpt>
      <trkpt lat="25.4975450" lon="-100.6681650">
        <ele>2374.9</ele>
        <time>2022-08-20T15:29:02Z</time>
      </trkpt>
      <trkpt lat="25.4975480" lon="-100.6682140">
        <ele>2374.3</ele>
        <time>2022-08-20T15:29:03Z</time>
      </trkpt>
      <trkpt lat="25.4975540" lon="-100.6683020">
        <ele>2373.2</ele>
        <time>2022-08-20T15:29:05Z</time>
      </trkpt>
      <trkpt lat="25.4975600" lon="-100.6683410">
        <ele>2372.8</ele>
        <time>2022-08-20T15:29:06Z</time>
      </trkpt>
      <trkpt lat="25.4975770" lon="-100.6684170">
        <ele>2371.9</ele>
        <time>2022-08-20T15:29:08Z</time>
      </trkpt>
      <trkpt lat="25.4975900" lon="-100.6684740">
        <ele>2371.2</ele>
        <time>2022-08-20T15:29:09Z</time>
      </trkpt>
      <trkpt lat="25.4976020" lon="-100.6685340">
        <ele>2370.4</ele>
        <time>2022-08-20T15:29:10Z</time>
      </trkpt>
      <trkpt lat="25.4976100" lon="-100.6685950">
        <ele>2369.7</ele>
        <time>2022-08-20T15:29:11Z</time>
      </trkpt>
      <trkpt lat="25.4976180" lon="-100.6686560">
        <ele>2369.0</ele>
        <time>2022-08-20T15:29:12Z</time>
      </trkpt>
      <trkpt lat="25.4976290" lon="-100.6687140">
        <ele>2368.3</ele>
        <time>2022-08-20T15:29:13Z</time>
      </trkpt>
      <trkpt lat="25.4976470" lon="-100.6687730">
        <ele>2367.7</ele>
        <time>2022-08-20T15:29:14Z</time>
      </trkpt>
      <trkpt lat="25.4976740" lon="-100.6688320">
        <ele>2367.0</ele>
        <time>2022-08-20T15:29:15Z</time>
      </trkpt>
      <trkpt lat="25.4977050" lon="-100.6688970">
        <ele>2366.3</ele>
        <time>2022-08-20T15:29:16Z</time>
      </trkpt>
      <trkpt lat="25.4977350" lon="-100.6689630">
        <ele>2365.6</ele>
        <time>2022-08-20T15:29:17Z</time>
      </trkpt>
      <trkpt lat="25.4977670" lon="-100.6690330">
        <ele>2364.7</ele>
        <time>2022-08-20T15:29:18Z</time>
      </trkpt>
      <trkpt lat="25.4978000" lon="-100.6691040">
        <ele>2363.9</ele>
        <time>2022-08-20T15:29:19Z</time>
      </trkpt>
      <trkpt lat="25.4978300" lon="-100.6691650">
        <ele>2363.1</ele>
        <time>2022-08-20T15:29:20Z</time>
      </trkpt>
      <trkpt lat="25.4978590" lon="-100.6692150">
        <ele>2362.6</ele>
        <time>2022-08-20T15:29:21Z</time>
      </trkpt>
      <trkpt lat="25.4978870" lon="-100.6692510">
        <ele>2362.1</ele>
        <time>2022-08-20T15:29:22Z</time>
      </trkpt>
      <trkpt lat="25.4979130" lon="-100.6692800">
        <ele>2361.7</ele>
        <time>2022-08-20T15:29:23Z</time>
      </trkpt>
      <trkpt lat="25.4979520" lon="-100.6693290">
        <ele>2361.1</ele>
        <time>2022-08-20T15:29:24Z</time>
      </trkpt>
      <trkpt lat="25.4979910" lon="-100.6693790">
        <ele>2360.5</ele>
        <time>2022-08-20T15:29:25Z</time>
      </trkpt>
      <trkpt lat="25.4980350" lon="-100.6694300">
        <ele>2359.9</ele>
        <time>2022-08-20T15:29:26Z</time>
      </trkpt>
      <trkpt lat="25.4980860" lon="-100.6694820">
        <ele>2359.4</ele>
        <time>2022-08-20T15:29:27Z</time>
      </trkpt>
      <trkpt lat="25.4981440" lon="-100.6695300">
        <ele>2358.9</ele>
        <time>2022-08-20T15:29:28Z</time>
      </trkpt>
      <trkpt lat="25.4982020" lon="-100.6695680">
        <ele>2358.4</ele>
        <time>2022-08-20T15:29:29Z</time>
      </trkpt>
      <trkpt lat="25.4982630" lon="-100.6695970">
        <ele>2357.9</ele>
        <time>2022-08-20T15:29:30Z</time>
      </trkpt>
      <trkpt lat="25.4983250" lon="-100.6696240">
        <ele>2357.4</ele>
        <time>2022-08-20T15:29:31Z</time>
      </trkpt>
      <trkpt lat="25.4983780" lon="-100.6696520">
        <ele>2356.8</ele>
        <time>2022-08-20T15:29:32Z</time>
      </trkpt>
      <trkpt lat="25.4984160" lon="-100.6696800">
        <ele>2356.3</ele>
        <time>2022-08-20T15:29:33Z</time>
      </trkpt>
      <trkpt lat="25.4984480" lon="-100.6697090">
        <ele>2355.8</ele>
        <time>2022-08-20T15:29:34Z</time>
      </trkpt>
      <trkpt lat="25.4984590" lon="-100.6697200">
        <ele>2355.6</ele>
        <time>2022-08-20T15:29:35Z</time>
      </trkpt>
      <trkpt lat="25.4984920" lon="-100.6697380">
        <ele>2355.1</ele>
        <time>2022-08-20T15:29:36Z</time>
      </trkpt>
      <trkpt lat="25.4985050" lon="-100.6697430">
        <ele>2354.9</ele>
        <time>2022-08-20T15:29:37Z</time>
      </trkpt>
      <trkpt lat="25.4985450" lon="-100.6697620">
        <ele>2354.3</ele>
        <time>2022-08-20T15:29:38Z</time>
      </trkpt>
      <trkpt lat="25.4985600" lon="-100.6697710">
        <ele>2354.1</ele>
        <time>2022-08-20T15:29:39Z</time>
      </trkpt>
      <trkpt lat="25.4986250" lon="-100.6698420">
        <ele>2352.8</ele>
        <time>2022-08-20T15:29:41Z</time>
      </trkpt>
      <trkpt lat="25.4986650" lon="-100.6698880">
        <ele>2351.9</ele>
        <time>2022-08-20T15:29:42Z</time>
      </trkpt>
      <trkpt lat="25.4987040" lon="-100.6699360">
        <ele>2351.1</ele>
        <time>2022-08-20T15:29:43Z</time>
      </trkpt>
      <trkpt lat="25.4987420" lon="-100.6699860">
        <ele>2350.2</ele>
        <time>2022-08-20T15:29:44Z</time>
      </trkpt>
      <trkpt lat="25.4987770" lon="-100.6700370">
        <ele>2349.3</ele>
        <time>2022-08-20T15:29:45Z</time>
      </trkpt>
      <trkpt lat="25.4988110" lon="-100.6700810">
        <ele>2348.5</ele>
        <time>2022-08-20T15:29:46Z</time>
      </trkpt>
      <trkpt lat="25.4988480" lon="-100.6701240">
        <ele>2347.6</ele>
        <time>2022-08-20T15:29:47Z</time>
      </trkpt>
      <trkpt lat="25.4988880" lon="-100.6701640">
        <ele>2346.8</ele>
        <time>2022-08-20T15:29:48Z</time>
      </trkpt>
      <trkpt lat="25.4989340" lon="-100.6702040">
        <ele>2346.0</ele>
        <time>2022-08-20T15:29:49Z</time>
      </trkpt>
      <trkpt lat="25.4989820" lon="-100.6702440">
        <ele>2345.1</ele>
        <time>2022-08-20T15:29:50Z</time>
      </trkpt>
      <trkpt lat="25.4990300" lon="-100.6702830">
        <ele>2344.3</ele>
        <time>2022-08-20T15:29:51Z</time>
      </trkpt>
      <trkpt lat="25.4990760" lon="-100.6703210">
        <ele>2343.5</ele>
        <time>2022-08-20T15:29:52Z</time>
      </trkpt>
      <trkpt lat="25.4991190" lon="-100.6703560">
        <ele>2342.8</ele>
        <time>2022-08-20T15:29:53Z</time>
      </trkpt>
      <trkpt lat="25.4991610" lon="-100.6703870">
        <ele>2342.1</ele>
        <time>2022-08-20T15:29:54Z</time>
      </trkpt>
      <trkpt lat="25.4992040" lon="-100.6704170">
        <ele>2341.6</ele>
        <time>2022-08-20T15:29:55Z</time>
      </trkpt>
      <trkpt lat="25.4992470" lon="-100.6704480">
        <ele>2341.0</ele>
        <time>2022-08-20T15:29:56Z</time>
      </trkpt>
      <trkpt lat="25.4992940" lon="-100.6704780">
        <ele>2340.5</ele>
        <time>2022-08-20T15:29:57Z</time>
      </trkpt>
      <trkpt lat="25.4993450" lon="-100.6705060">
        <ele>2340.0</ele>
        <time>2022-08-20T15:29:58Z</time>
      </trkpt>
      <trkpt lat="25.4993990" lon="-100.6705330">
        <ele>2339.4</ele>
        <time>2022-08-20T15:29:59Z</time>
      </trkpt>
      <trkpt lat="25.4994560" lon="-100.6705560">
        <ele>2338.9</ele>
        <time>2022-08-20T15:30:00Z</time>
      </trkpt>
      <trkpt lat="25.4995130" lon="-100.6705680">
        <ele>2338.3</ele>
        <time>2022-08-20T15:30:01Z</time>
      </trkpt>
      <trkpt lat="25.4995680" lon="-100.6705650">
        <ele>2337.9</ele>
        <time>2022-08-20T15:30:02Z</time>
      </trkpt>
      <trkpt lat="25.4996220" lon="-100.6705490">
        <ele>2337.5</ele>
        <time>2022-08-20T15:30:03Z</time>
      </trkpt>
      <trkpt lat="25.4996750" lon="-100.6705280">
        <ele>2337.2</ele>
        <time>2022-08-20T15:30:04Z</time>
      </trkpt>
      <trkpt lat="25.4997230" lon="-100.6705130">
        <ele>2336.9</ele>
        <time>2022-08-20T15:30:05Z</time>
      </trkpt>
      <trkpt lat="25.4997530" lon="-100.6705130">
        <ele>2336.7</ele>
        <time>2022-08-20T15:30:06Z</time>
      </trkpt>
      <trkpt lat="25.4997880" lon="-100.6705420">
        <ele>2336.7</ele>
        <time>2022-08-20T15:30:07Z</time>
      </trkpt>
      <trkpt lat="25.4998000" lon="-100.6705830">
        <ele>2336.2</ele>
        <time>2022-08-20T15:30:08Z</time>
      </trkpt>
      <trkpt lat="25.4998030" lon="-100.6706440">
        <ele>2335.6</ele>
        <time>2022-08-20T15:30:09Z</time>
      </trkpt>
      <trkpt lat="25.4997870" lon="-100.6707040">
        <ele>2335.0</ele>
        <time>2022-08-20T15:30:10Z</time>
      </trkpt>
      <trkpt lat="25.4997630" lon="-100.6707670">
        <ele>2334.3</ele>
        <time>2022-08-20T15:30:11Z</time>
      </trkpt>
      <trkpt lat="25.4997530" lon="-100.6708260">
        <ele>2333.7</ele>
        <time>2022-08-20T15:30:12Z</time>
      </trkpt>
      <trkpt lat="25.4997590" lon="-100.6708800">
        <ele>2333.1</ele>
        <time>2022-08-20T15:30:13Z</time>
      </trkpt>
      <trkpt lat="25.4997810" lon="-100.6709310">
        <ele>2332.5</ele>
        <time>2022-08-20T15:30:14Z</time>
      </trkpt>
      <trkpt lat="25.4998160" lon="-100.6709730">
        <ele>2331.9</ele>
        <time>2022-08-20T15:30:15Z</time>
      </trkpt>
      <trkpt lat="25.4998590" lon="-100.6709980">
        <ele>2331.4</ele>
        <time>2022-08-20T15:30:16Z</time>
      </trkpt>
      <trkpt lat="25.4999040" lon="-100.6710050">
        <ele>2330.9</ele>
        <time>2022-08-20T15:30:17Z</time>
      </trkpt>
      <trkpt lat="25.4999540" lon="-100.6710040">
        <ele>2330.5</ele>
        <time>2022-08-20T15:30:18Z</time>
      </trkpt>
      <trkpt lat="25.4999990" lon="-100.6710010">
        <ele>2330.1</ele>
        <time>2022-08-20T15:30:19Z</time>
      </trkpt>
      <trkpt lat="25.5000440" lon="-100.6709800">
        <ele>2329.7</ele>
        <time>2022-08-20T15:30:20Z</time>
      </trkpt>
      <trkpt lat="25.5000820" lon="-100.6709770">
        <ele>2329.4</ele>
        <time>2022-08-20T15:30:21Z</time>
      </trkpt>
      <trkpt lat="25.5001460" lon="-100.6709920">
        <ele>2328.9</ele>
        <time>2022-08-20T15:30:22Z</time>
      </trkpt>
      <trkpt lat="25.5001840" lon="-100.6710200">
        <ele>2328.6</ele>
        <time>2022-08-20T15:30:23Z</time>
      </trkpt>
      <trkpt lat="25.5002090" lon="-100.6710580">
        <ele>2328.2</ele>
        <time>2022-08-20T15:30:25Z</time>
      </trkpt>
      <trkpt lat="25.5002250" lon="-100.6710880">
        <ele>2327.9</ele>
        <time>2022-08-20T15:30:26Z</time>
      </trkpt>
      <trkpt lat="25.5002510" lon="-100.6711070">
        <ele>2327.7</ele>
        <time>2022-08-20T15:30:27Z</time>
      </trkpt>
      <trkpt lat="25.5002860" lon="-100.6711130">
        <ele>2327.3</ele>
        <time>2022-08-20T15:30:28Z</time>
      </trkpt>
      <trkpt lat="25.5003460" lon="-100.6711010">
        <ele>2326.9</ele>
        <time>2022-08-20T15:30:29Z</time>
      </trkpt>
      <trkpt lat="25.5003940" lon="-100.6710740">
        <ele>2326.5</ele>
        <time>2022-08-20T15:30:30Z</time>
      </trkpt>
      <trkpt lat="25.5004300" lon="-100.6710300">
        <ele>2326.1</ele>
        <time>2022-08-20T15:30:31Z</time>
      </trkpt>
      <trkpt lat="25.5004530" lon="-100.6709750">
        <ele>2325.9</ele>
        <time>2022-08-20T15:30:32Z</time>
      </trkpt>
      <trkpt lat="25.5004700" lon="-100.6709150">
        <ele>2325.8</ele>
        <time>2022-08-20T15:30:33Z</time>
      </trkpt>
      <trkpt lat="25.5004950" lon="-100.6708650">
        <ele>2325.8</ele>
        <time>2022-08-20T15:30:34Z</time>
      </trkpt>
      <trkpt lat="25.5005280" lon="-100.6708330">
        <ele>2325.8</ele>
        <time>2022-08-20T15:30:35Z</time>
      </trkpt>
      <trkpt lat="25.5005490" lon="-100.6708630">
        <ele>2325.8</ele>
        <time>2022-08-20T15:30:36Z</time>
      </trkpt>
      <trkpt lat="25.5005960" lon="-100.6708820">
        <ele>2325.9</ele>
        <time>2022-08-20T15:30:37Z</time>
      </trkpt>
      <trkpt lat="25.5006300" lon="-100.6709160">
        <ele>2325.9</ele>
        <time>2022-08-20T15:30:39Z</time>
      </trkpt>
      <trkpt lat="25.5006510" lon="-100.6709480">
        <ele>2326.0</ele>
        <time>2022-08-20T15:30:40Z</time>
      </trkpt>
      <trkpt lat="25.5006740" lon="-100.6709810">
        <ele>2326.0</ele>
        <time>2022-08-20T15:30:41Z</time>
      </trkpt>
      <trkpt lat="25.5006970" lon="-100.6710040">
        <ele>2326.0</ele>
        <time>2022-08-20T15:30:42Z</time>
      </trkpt>
      <trkpt lat="25.5007230" lon="-100.6710260">
        <ele>2326.0</ele>
        <time>2022-08-20T15:30:44Z</time>
      </trkpt>
      <trkpt lat="25.5007640" lon="-100.6710520">
        <ele>2326.0</ele>
        <time>2022-08-20T15:30:45Z</time>
      </trkpt>
      <trkpt lat="25.5008170" lon="-100.6710800">
        <ele>2325.9</ele>
        <time>2022-08-20T15:30:47Z</time>
      </trkpt>
      <trkpt lat="25.5008490" lon="-100.6711000">
        <ele>2325.8</ele>
        <time>2022-08-20T15:30:48Z</time>
      </trkpt>
      <trkpt lat="25.5008820" lon="-100.6711210">
        <ele>2325.7</ele>
        <time>2022-08-20T15:30:49Z</time>
      </trkpt>
      <trkpt lat="25.5009180" lon="-100.6711430">
        <ele>2325.6</ele>
        <time>2022-08-20T15:30:50Z</time>
      </trkpt>
      <trkpt lat="25.5009650" lon="-100.6711690">
        <ele>2325.5</ele>
        <time>2022-08-20T15:30:51Z</time>
      </trkpt>
      <trkpt lat="25.5010020" lon="-100.6711860">
        <ele>2325.3</ele>
        <time>2022-08-20T15:30:53Z</time>
      </trkpt>
      <trkpt lat="25.5010340" lon="-100.6711960">
        <ele>2325.2</ele>
        <time>2022-08-20T15:30:54Z</time>
      </trkpt>
      <trkpt lat="25.5010600" lon="-100.6712090">
        <ele>2325.1</ele>
        <time>2022-08-20T15:30:55Z</time>
      </trkpt>
      <trkpt lat="25.5010890" lon="-100.6712210">
        <ele>2325.0</ele>
        <time>2022-08-20T15:30:56Z</time>
      </trkpt>
      <trkpt lat="25.5011390" lon="-100.6712410">
        <ele>2324.7</ele>
        <time>2022-08-20T15:30:57Z</time>
      </trkpt>
      <trkpt lat="25.5011870" lon="-100.6712610">
        <ele>2324.5</ele>
        <time>2022-08-20T15:30:58Z</time>
      </trkpt>
      <trkpt lat="25.5012290" lon="-100.6712790">
        <ele>2324.3</ele>
        <time>2022-08-20T15:30:59Z</time>
      </trkpt>
      <trkpt lat="25.5012880" lon="-100.6713110">
        <ele>2324.0</ele>
        <time>2022-08-20T15:31:01Z</time>
      </trkpt>
      <trkpt lat="25.5013460" lon="-100.6713380">
        <ele>2323.7</ele>
        <time>2022-08-20T15:31:02Z</time>
      </trkpt>
      <trkpt lat="25.5013970" lon="-100.6713630">
        <ele>2323.5</ele>
        <time>2022-08-20T15:31:03Z</time>
      </trkpt>
      <trkpt lat="25.5014520" lon="-100.6713890">
        <ele>2323.3</ele>
        <time>2022-08-20T15:31:04Z</time>
      </trkpt>
      <trkpt lat="25.5015090" lon="-100.6714140">
        <ele>2323.1</ele>
        <time>2022-08-20T15:31:05Z</time>
      </trkpt>
      <trkpt lat="25.5015710" lon="-100.6714410">
        <ele>2323.1</ele>
        <time>2022-08-20T15:31:06Z</time>
      </trkpt>
      <trkpt lat="25.5016330" lon="-100.6714680">
        <ele>2323.1</ele>
        <time>2022-08-20T15:31:07Z</time>
      </trkpt>
      <trkpt lat="25.5016930" lon="-100.6714970">
        <ele>2323.1</ele>
        <time>2022-08-20T15:31:08Z</time>
      </trkpt>
      <trkpt lat="25.5017540" lon="-100.6715230">
        <ele>2323.2</ele>
        <time>2022-08-20T15:31:09Z</time>
      </trkpt>
      <trkpt lat="25.5018120" lon="-100.6715500">
        <ele>2323.3</ele>
        <time>2022-08-20T15:31:10Z</time>
      </trkpt>
      <trkpt lat="25.5018670" lon="-100.6715800">
        <ele>2323.4</ele>
        <time>2022-08-20T15:31:11Z</time>
      </trkpt>
      <trkpt lat="25.5019200" lon="-100.6716090">
        <ele>2323.5</ele>
        <time>2022-08-20T15:31:12Z</time>
      </trkpt>
      <trkpt lat="25.5019690" lon="-100.6716360">
        <ele>2323.5</ele>
        <time>2022-08-20T15:31:13Z</time>
      </trkpt>
      <trkpt lat="25.5020160" lon="-100.6716580">
        <ele>2323.5</ele>
        <time>2022-08-20T15:31:14Z</time>
      </trkpt>
      <trkpt lat="25.5020610" lon="-100.6716770">
        <ele>2323.6</ele>
        <time>2022-08-20T15:31:15Z</time>
      </trkpt>
      <trkpt lat="25.5021050" lon="-100.6716950">
        <ele>2323.6</ele>
        <time>2022-08-20T15:31:16Z</time>
      </trkpt>
      <trkpt lat="25.5021470" lon="-100.6717140">
        <ele>2323.7</ele>
        <time>2022-08-20T15:31:17Z</time>
      </trkpt>
      <trkpt lat="25.5021920" lon="-100.6717370">
        <ele>2323.7</ele>
        <time>2022-08-20T15:31:18Z</time>
      </trkpt>
      <trkpt lat="25.5022340" lon="-100.6717620">
        <ele>2323.8</ele>
        <time>2022-08-20T15:31:19Z</time>
      </trkpt>
      <trkpt lat="25.5022770" lon="-100.6717860">
        <ele>2323.8</ele>
        <time>2022-08-20T15:31:20Z</time>
      </trkpt>
      <trkpt lat="25.5023200" lon="-100.6718060">
        <ele>2323.9</ele>
        <time>2022-08-20T15:31:21Z</time>
      </trkpt>
      <trkpt lat="25.5023650" lon="-100.6718250">
        <ele>2324.0</ele>
        <time>2022-08-20T15:31:22Z</time>
      </trkpt>
      <trkpt lat="25.5024120" lon="-100.6718460">
        <ele>2324.1</ele>
        <time>2022-08-20T15:31:23Z</time>
      </trkpt>
      <trkpt lat="25.5024580" lon="-100.6718710">
        <ele>2324.1</ele>
        <time>2022-08-20T15:31:24Z</time>
      </trkpt>
      <trkpt lat="25.5025050" lon="-100.6718960">
        <ele>2324.3</ele>
        <time>2022-08-20T15:31:25Z</time>
      </trkpt>
      <trkpt lat="25.5025500" lon="-100.6719210">
        <ele>2324.4</ele>
        <time>2022-08-20T15:31:26Z</time>
      </trkpt>
      <trkpt lat="25.5025950" lon="-100.6719470">
        <ele>2324.5</ele>
        <time>2022-08-20T15:31:27Z</time>
      </trkpt>
      <trkpt lat="25.5026410" lon="-100.6719700">
        <ele>2324.6</ele>
        <time>2022-08-20T15:31:28Z</time>
      </trkpt>
      <trkpt lat="25.5026900" lon="-100.6719920">
        <ele>2324.8</ele>
        <time>2022-08-20T15:31:29Z</time>
      </trkpt>
      <trkpt lat="25.5027390" lon="-100.6720170">
        <ele>2325.0</ele>
        <time>2022-08-20T15:31:30Z</time>
      </trkpt>
      <trkpt lat="25.5027870" lon="-100.6720470">
        <ele>2325.2</ele>
        <time>2022-08-20T15:31:31Z</time>
      </trkpt>
      <trkpt lat="25.5028310" lon="-100.6720860">
        <ele>2325.4</ele>
        <time>2022-08-20T15:31:32Z</time>
      </trkpt>
      <trkpt lat="25.5028690" lon="-100.6721280">
        <ele>2325.7</ele>
        <time>2022-08-20T15:31:33Z</time>
      </trkpt>
      <trkpt lat="25.5029040" lon="-100.6721690">
        <ele>2325.9</ele>
        <time>2022-08-20T15:31:34Z</time>
      </trkpt>
      <trkpt lat="25.5029380" lon="-100.6722050">
        <ele>2326.0</ele>
        <time>2022-08-20T15:31:35Z</time>
      </trkpt>
      <trkpt lat="25.5029620" lon="-100.6722280">
        <ele>2326.1</ele>
        <time>2022-08-20T15:31:36Z</time>
      </trkpt>
      <trkpt lat="25.5029980" lon="-100.6722650">
        <ele>2326.2</ele>
        <time>2022-08-20T15:31:37Z</time>
      </trkpt>
      <trkpt lat="25.5030260" lon="-100.6722970">
        <ele>2326.2</ele>
        <time>2022-08-20T15:31:38Z</time>
      </trkpt>
      <trkpt lat="25.5030440" lon="-100.6723200">
        <ele>2326.3</ele>
        <time>2022-08-20T15:31:39Z</time>
      </trkpt>
      <trkpt lat="25.5030770" lon="-100.6723670">
        <ele>2326.2</ele>
        <time>2022-08-20T15:31:40Z</time>
      </trkpt>
      <trkpt lat="25.5030960" lon="-100.6723960">
        <ele>2325.9</ele>
        <time>2022-08-20T15:31:41Z</time>
      </trkpt>
      <trkpt lat="25.5031270" lon="-100.6724430">
        <ele>2325.4</ele>
        <time>2022-08-20T15:31:42Z</time>
      </trkpt>
      <trkpt lat="25.5031420" lon="-100.6724870">
        <ele>2325.0</ele>
        <time>2022-08-20T15:31:43Z</time>
      </trkpt>
      <trkpt lat="25.5031750" lon="-100.6725350">
        <ele>2324.5</ele>
        <time>2022-08-20T15:31:44Z</time>
      </trkpt>
      <trkpt lat="25.5032180" lon="-100.6725860">
        <ele>2323.9</ele>
        <time>2022-08-20T15:31:45Z</time>
      </trkpt>
      <trkpt lat="25.5032630" lon="-100.6726370">
        <ele>2323.3</ele>
        <time>2022-08-20T15:31:46Z</time>
      </trkpt>
      <trkpt lat="25.5033110" lon="-100.6726870">
        <ele>2322.8</ele>
        <time>2022-08-20T15:31:47Z</time>
      </trkpt>
      <trkpt lat="25.5033640" lon="-100.6727350">
        <ele>2322.3</ele>
        <time>2022-08-20T15:31:48Z</time>
      </trkpt>
      <trkpt lat="25.5034190" lon="-100.6727800">
        <ele>2321.9</ele>
        <time>2022-08-20T15:31:49Z</time>
      </trkpt>
      <trkpt lat="25.5034760" lon="-100.6728190">
        <ele>2321.4</ele>
        <time>2022-08-20T15:31:50Z</time>
      </trkpt>
      <trkpt lat="25.5035350" lon="-100.6728520">
        <ele>2321.0</ele>
        <time>2022-08-20T15:31:51Z</time>
      </trkpt>
      <trkpt lat="25.5035980" lon="-100.6728790">
        <ele>2320.5</ele>
        <time>2022-08-20T15:31:52Z</time>
      </trkpt>
      <trkpt lat="25.5036610" lon="-100.6729030">
        <ele>2320.0</ele>
        <time>2022-08-20T15:31:53Z</time>
      </trkpt>
      <trkpt lat="25.5037190" lon="-100.6729240">
        <ele>2319.5</ele>
        <time>2022-08-20T15:31:54Z</time>
      </trkpt>
      <trkpt lat="25.5037720" lon="-100.6729440">
        <ele>2319.0</ele>
        <time>2022-08-20T15:31:55Z</time>
      </trkpt>
      <trkpt lat="25.5038290" lon="-100.6729670">
        <ele>2318.4</ele>
        <time>2022-08-20T15:31:56Z</time>
      </trkpt>
      <trkpt lat="25.5038900" lon="-100.6729930">
        <ele>2317.8</ele>
        <time>2022-08-20T15:31:57Z</time>
      </trkpt>
      <trkpt lat="25.5039530" lon="-100.6730270">
        <ele>2317.1</ele>
        <time>2022-08-20T15:31:58Z</time>
      </trkpt>
      <trkpt lat="25.5040140" lon="-100.6730670">
        <ele>2316.5</ele>
        <time>2022-08-20T15:31:59Z</time>
      </trkpt>
      <trkpt lat="25.5040740" lon="-100.6731130">
        <ele>2316.0</ele>
        <time>2022-08-20T15:32:00Z</time>
      </trkpt>
      <trkpt lat="25.5041330" lon="-100.6731600">
        <ele>2315.5</ele>
        <time>2022-08-20T15:32:01Z</time>
      </trkpt>
      <trkpt lat="25.5041920" lon="-100.6732110">
        <ele>2315.1</ele>
        <time>2022-08-20T15:32:02Z</time>
      </trkpt>
      <trkpt lat="25.5042520" lon="-100.6732650">
        <ele>2314.6</ele>
        <time>2022-08-20T15:32:03Z</time>
      </trkpt>
      <trkpt lat="25.5043100" lon="-100.6733240">
        <ele>2314.1</ele>
        <time>2022-08-20T15:32:04Z</time>
      </trkpt>
      <trkpt lat="25.5043580" lon="-100.6733830">
        <ele>2313.5</ele>
        <time>2022-08-20T15:32:05Z</time>
      </trkpt>
      <trkpt lat="25.5043920" lon="-100.6734410">
        <ele>2312.8</ele>
        <time>2022-08-20T15:32:06Z</time>
      </trkpt>
      <trkpt lat="25.5044190" lon="-100.6734980">
        <ele>2312.2</ele>
        <time>2022-08-20T15:32:07Z</time>
      </trkpt>
      <trkpt lat="25.5044460" lon="-100.6735530">
        <ele>2311.5</ele>
        <time>2022-08-20T15:32:08Z</time>
      </trkpt>
      <trkpt lat="25.5044770" lon="-100.6736010">
        <ele>2310.9</ele>
        <time>2022-08-20T15:32:09Z</time>
      </trkpt>
      <trkpt lat="25.5045170" lon="-100.6736470">
        <ele>2310.2</ele>
        <time>2022-08-20T15:32:10Z</time>
      </trkpt>
      <trkpt lat="25.5045640" lon="-100.6736910">
        <ele>2309.4</ele>
        <time>2022-08-20T15:32:11Z</time>
      </trkpt>
      <trkpt lat="25.5046120" lon="-100.6737350">
        <ele>2308.6</ele>
        <time>2022-08-20T15:32:12Z</time>
      </trkpt>
      <trkpt lat="25.5046630" lon="-100.6737780">
        <ele>2307.8</ele>
        <time>2022-08-20T15:32:13Z</time>
      </trkpt>
      <trkpt lat="25.5047150" lon="-100.6738200">
        <ele>2307.0</ele>
        <time>2022-08-20T15:32:14Z</time>
      </trkpt>
      <trkpt lat="25.5047660" lon="-100.6738600">
        <ele>2306.3</ele>
        <time>2022-08-20T15:32:15Z</time>
      </trkpt>
      <trkpt lat="25.5048160" lon="-100.6738990">
        <ele>2305.5</ele>
        <time>2022-08-20T15:32:16Z</time>
      </trkpt>
      <trkpt lat="25.5048660" lon="-100.6739340">
        <ele>2304.9</ele>
        <time>2022-08-20T15:32:17Z</time>
      </trkpt>
      <trkpt lat="25.5049160" lon="-100.6739670">
        <ele>2304.2</ele>
        <time>2022-08-20T15:32:18Z</time>
      </trkpt>
      <trkpt lat="25.5049690" lon="-100.6740020">
        <ele>2303.5</ele>
        <time>2022-08-20T15:32:19Z</time>
      </trkpt>
      <trkpt lat="25.5050210" lon="-100.6740370">
        <ele>2302.9</ele>
        <time>2022-08-20T15:32:20Z</time>
      </trkpt>
      <trkpt lat="25.5050740" lon="-100.6740710">
        <ele>2302.2</ele>
        <time>2022-08-20T15:32:21Z</time>
      </trkpt>
      <trkpt lat="25.5051300" lon="-100.6741050">
        <ele>2301.5</ele>
        <time>2022-08-20T15:32:22Z</time>
      </trkpt>
      <trkpt lat="25.5051870" lon="-100.6741420">
        <ele>2300.7</ele>
        <time>2022-08-20T15:32:23Z</time>
      </trkpt>
      <trkpt lat="25.5052430" lon="-100.6741780">
        <ele>2300.0</ele>
        <time>2022-08-20T15:32:24Z</time>
      </trkpt>
      <trkpt lat="25.5053000" lon="-100.6742140">
        <ele>2299.3</ele>
        <time>2022-08-20T15:32:25Z</time>
      </trkpt>
      <trkpt lat="25.5053550" lon="-100.6742520">
        <ele>2298.6</ele>
        <time>2022-08-20T15:32:26Z</time>
      </trkpt>
      <trkpt lat="25.5054120" lon="-100.6742940">
        <ele>2297.8</ele>
        <time>2022-08-20T15:32:27Z</time>
      </trkpt>
      <trkpt lat="25.5054650" lon="-100.6743370">
        <ele>2297.2</ele>
        <time>2022-08-20T15:32:28Z</time>
      </trkpt>
      <trkpt lat="25.5055130" lon="-100.6743880">
        <ele>2296.5</ele>
        <time>2022-08-20T15:32:29Z</time>
      </trkpt>
      <trkpt lat="25.5055550" lon="-100.6744440">
        <ele>2295.9</ele>
        <time>2022-08-20T15:32:30Z</time>
      </trkpt>
      <trkpt lat="25.5055920" lon="-100.6745040">
        <ele>2295.3</ele>
        <time>2022-08-20T15:32:31Z</time>
      </trkpt>
      <trkpt lat="25.5056240" lon="-100.6745680">
        <ele>2294.7</ele>
        <time>2022-08-20T15:32:32Z</time>
      </trkpt>
      <trkpt lat="25.5056490" lon="-100.6746350">
        <ele>2294.1</ele>
        <time>2022-08-20T15:32:33Z</time>
      </trkpt>
      <trkpt lat="25.5056650" lon="-100.6747030">
        <ele>2293.5</ele>
        <time>2022-08-20T15:32:34Z</time>
      </trkpt>
      <trkpt lat="25.5056730" lon="-100.6747760">
        <ele>2292.9</ele>
        <time>2022-08-20T15:32:35Z</time>
      </trkpt>
      <trkpt lat="25.5056750" lon="-100.6748490">
        <ele>2292.2</ele>
        <time>2022-08-20T15:32:36Z</time>
      </trkpt>
      <trkpt lat="25.5056750" lon="-100.6749160">
        <ele>2291.6</ele>
        <time>2022-08-20T15:32:37Z</time>
      </trkpt>
      <trkpt lat="25.5056730" lon="-100.6749830">
        <ele>2291.1</ele>
        <time>2022-08-20T15:32:38Z</time>
      </trkpt>
      <trkpt lat="25.5056710" lon="-100.6750470">
        <ele>2290.5</ele>
        <time>2022-08-20T15:32:39Z</time>
      </trkpt>
      <trkpt lat="25.5056720" lon="-100.6751110">
        <ele>2290.0</ele>
        <time>2022-08-20T15:32:40Z</time>
      </trkpt>
      <trkpt lat="25.5056750" lon="-100.6751690">
        <ele>2289.5</ele>
        <time>2022-08-20T15:32:41Z</time>
      </trkpt>
      <trkpt lat="25.5056770" lon="-100.6752240">
        <ele>2289.0</ele>
        <time>2022-08-20T15:32:42Z</time>
      </trkpt>
      <trkpt lat="25.5056780" lon="-100.6752750">
        <ele>2288.5</ele>
        <time>2022-08-20T15:32:43Z</time>
      </trkpt>
      <trkpt lat="25.5056770" lon="-100.6753090">
        <ele>2288.3</ele>
        <time>2022-08-20T15:32:44Z</time>
      </trkpt>
      <trkpt lat="25.5056730" lon="-100.6753680">
        <ele>2287.7</ele>
        <time>2022-08-20T15:32:45Z</time>
      </trkpt>
      <trkpt lat="25.5056650" lon="-100.6754310">
        <ele>2287.2</ele>
        <time>2022-08-20T15:32:46Z</time>
      </trkpt>
      <trkpt lat="25.5056600" lon="-100.6754970">
        <ele>2286.6</ele>
        <time>2022-08-20T15:32:47Z</time>
      </trkpt>
      <trkpt lat="25.5056590" lon="-100.6755680">
        <ele>2285.9</ele>
        <time>2022-08-20T15:32:48Z</time>
      </trkpt>
      <trkpt lat="25.5056650" lon="-100.6756460">
        <ele>2285.2</ele>
        <time>2022-08-20T15:32:49Z</time>
      </trkpt>
      <trkpt lat="25.5056760" lon="-100.6757300">
        <ele>2284.4</ele>
        <time>2022-08-20T15:32:50Z</time>
      </trkpt>
      <trkpt lat="25.5056900" lon="-100.6758160">
        <ele>2283.6</ele>
        <time>2022-08-20T15:32:51Z</time>
      </trkpt>
      <trkpt lat="25.5057040" lon="-100.6759000">
        <ele>2282.7</ele>
        <time>2022-08-20T15:32:52Z</time>
      </trkpt>
      <trkpt lat="25.5057170" lon="-100.6759800">
        <ele>2281.9</ele>
        <time>2022-08-20T15:32:53Z</time>
      </trkpt>
      <trkpt lat="25.5057270" lon="-100.6760500">
        <ele>2281.1</ele>
        <time>2022-08-20T15:32:54Z</time>
      </trkpt>
      <trkpt lat="25.5057370" lon="-100.6761150">
        <ele>2280.4</ele>
        <time>2022-08-20T15:32:55Z</time>
      </trkpt>
      <trkpt lat="25.5057500" lon="-100.6761780">
        <ele>2279.7</ele>
        <time>2022-08-20T15:32:56Z</time>
      </trkpt>
      <trkpt lat="25.5057640" lon="-100.6762420">
        <ele>2279.0</ele>
        <time>2022-08-20T15:32:57Z</time>
      </trkpt>
      <trkpt lat="25.5057740" lon="-100.6763040">
        <ele>2278.3</ele>
        <time>2022-08-20T15:32:58Z</time>
      </trkpt>
      <trkpt lat="25.5057710" lon="-100.6763680">
        <ele>2277.6</ele>
        <time>2022-08-20T15:32:59Z</time>
      </trkpt>
      <trkpt lat="25.5057520" lon="-100.6764300">
        <ele>2276.8</ele>
        <time>2022-08-20T15:33:00Z</time>
      </trkpt>
      <trkpt lat="25.5057160" lon="-100.6764870">
        <ele>2275.9</ele>
        <time>2022-08-20T15:33:01Z</time>
      </trkpt>
      <trkpt lat="25.5056690" lon="-100.6765350">
        <ele>2275.1</ele>
        <time>2022-08-20T15:33:02Z</time>
      </trkpt>
      <trkpt lat="25.5056150" lon="-100.6765720">
        <ele>2274.3</ele>
        <time>2022-08-20T15:33:03Z</time>
      </trkpt>
      <trkpt lat="25.5055590" lon="-100.6765970">
        <ele>2273.8</ele>
        <time>2022-08-20T15:33:04Z</time>
      </trkpt>
      <trkpt lat="25.5055050" lon="-100.6766140">
        <ele>2273.4</ele>
        <time>2022-08-20T15:33:05Z</time>
      </trkpt>
      <trkpt lat="25.5054560" lon="-100.6766290">
        <ele>2273.1</ele>
        <time>2022-08-20T15:33:06Z</time>
      </trkpt>
      <trkpt lat="25.5054240" lon="-100.6766400">
        <ele>2273.0</ele>
        <time>2022-08-20T15:33:07Z</time>
      </trkpt>
      <trkpt lat="25.5054020" lon="-100.6766670">
        <ele>2272.9</ele>
        <time>2022-08-20T15:33:08Z</time>
      </trkpt>
      <trkpt lat="25.5053860" lon="-100.6767080">
        <ele>2272.9</ele>
        <time>2022-08-20T15:33:09Z</time>
      </trkpt>
      <trkpt lat="25.5053880" lon="-100.6767470">
        <ele>2272.9</ele>
        <time>2022-08-20T15:33:10Z</time>
      </trkpt>
      <trkpt lat="25.5054000" lon="-100.6767830">
        <ele>2272.9</ele>
        <time>2022-08-20T15:33:11Z</time>
      </trkpt>
      <trkpt lat="25.5054140" lon="-100.6768250">
        <ele>2272.9</ele>
        <time>2022-08-20T15:33:12Z</time>
      </trkpt>
      <trkpt lat="25.5054210" lon="-100.6768540">
        <ele>2272.9</ele>
        <time>2022-08-20T15:33:13Z</time>
      </trkpt>
      <trkpt lat="25.5054080" lon="-100.6768860">
        <ele>2272.9</ele>
        <time>2022-08-20T15:33:14Z</time>
      </trkpt>
      <trkpt lat="25.5054060" lon="-100.6769240">
        <ele>2273.0</ele>
        <time>2022-08-20T15:33:15Z</time>
      </trkpt>
      <trkpt lat="25.5054140" lon="-100.6769590">
        <ele>2273.0</ele>
        <time>2022-08-20T15:33:16Z</time>
      </trkpt>
      <trkpt lat="25.5054240" lon="-100.6769920">
        <ele>2273.1</ele>
        <time>2022-08-20T15:33:17Z</time>
      </trkpt>
      <trkpt lat="25.5054420" lon="-100.6770200">
        <ele>2273.1</ele>
        <time>2022-08-20T15:33:18Z</time>
      </trkpt>
      <trkpt lat="25.5054650" lon="-100.6770440">
        <ele>2273.2</ele>
        <time>2022-08-20T15:33:19Z</time>
      </trkpt>
      <trkpt lat="25.5054980" lon="-100.6770590">
        <ele>2273.3</ele>
        <time>2022-08-20T15:33:20Z</time>
      </trkpt>
      <trkpt lat="25.5055700" lon="-100.6770790">
        <ele>2273.4</ele>
        <time>2022-08-20T15:33:21Z</time>
      </trkpt>
      <trkpt lat="25.5056220" lon="-100.6770810">
        <ele>2273.6</ele>
        <time>2022-08-20T15:33:23Z</time>
      </trkpt>
      <trkpt lat="25.5056810" lon="-100.6770840">
        <ele>2273.8</ele>
        <time>2022-08-20T15:33:24Z</time>
      </trkpt>
      <trkpt lat="25.5057170" lon="-100.6770810">
        <ele>2274.0</ele>
        <time>2022-08-20T15:33:25Z</time>
      </trkpt>
      <trkpt lat="25.5057700" lon="-100.6770850">
        <ele>2274.2</ele>
        <time>2022-08-20T15:33:27Z</time>
      </trkpt>
      <trkpt lat="25.5058050" lon="-100.6770920">
        <ele>2274.4</ele>
        <time>2022-08-20T15:33:28Z</time>
      </trkpt>
      <trkpt lat="25.5058360" lon="-100.6771010">
        <ele>2274.6</ele>
        <time>2022-08-20T15:33:29Z</time>
      </trkpt>
      <trkpt lat="25.5058920" lon="-100.6771350">
        <ele>2275.0</ele>
        <time>2022-08-20T15:33:30Z</time>
      </trkpt>
      <trkpt lat="25.5059190" lon="-100.6771520">
        <ele>2275.2</ele>
        <time>2022-08-20T15:33:32Z</time>
      </trkpt>
      <trkpt lat="25.5059460" lon="-100.6771660">
        <ele>2275.4</ele>
        <time>2022-08-20T15:33:33Z</time>
      </trkpt>
      <trkpt lat="25.5059740" lon="-100.6771900">
        <ele>2275.6</ele>
        <time>2022-08-20T15:33:34Z</time>
      </trkpt>
      <trkpt lat="25.5059840" lon="-100.6771980">
        <ele>2275.7</ele>
        <time>2022-08-20T15:33:35Z</time>
      </trkpt>
      <trkpt lat="25.5060090" lon="-100.6772200">
        <ele>2275.9</ele>
        <time>2022-08-20T15:33:36Z</time>
      </trkpt>
      <trkpt lat="25.5060190" lon="-100.6772290">
        <ele>2275.9</ele>
        <time>2022-08-20T15:33:37Z</time>
      </trkpt>
      <trkpt lat="25.5060410" lon="-100.6772610">
        <ele>2276.1</ele>
        <time>2022-08-20T15:33:39Z</time>
      </trkpt>
      <trkpt lat="25.5060490" lon="-100.6772710">
        <ele>2276.2</ele>
        <time>2022-08-20T15:33:40Z</time>
      </trkpt>
      <trkpt lat="25.5060660" lon="-100.6773030">
        <ele>2276.4</ele>
        <time>2022-08-20T15:33:41Z</time>
      </trkpt>
      <trkpt lat="25.5060790" lon="-100.6773400">
        <ele>2276.5</ele>
        <time>2022-08-20T15:33:42Z</time>
      </trkpt>
      <trkpt lat="25.5060830" lon="-100.6773530">
        <ele>2276.6</ele>
        <time>2022-08-20T15:33:43Z</time>
      </trkpt>
      <trkpt lat="25.5060880" lon="-100.6774040">
        <ele>2276.8</ele>
        <time>2022-08-20T15:33:45Z</time>
      </trkpt>
      <trkpt lat="25.5060870" lon="-100.6774230">
        <ele>2276.8</ele>
        <time>2022-08-20T15:33:46Z</time>
      </trkpt>
      <trkpt lat="25.5060850" lon="-100.6774410">
        <ele>2276.9</ele>
        <time>2022-08-20T15:33:47Z</time>
      </trkpt>
      <trkpt lat="25.5060800" lon="-100.6774830">
        <ele>2277.1</ele>
        <time>2022-08-20T15:33:48Z</time>
      </trkpt>
      <trkpt lat="25.5060780" lon="-100.6774950">
        <ele>2277.1</ele>
        <time>2022-08-20T15:33:49Z</time>
      </trkpt>
      <trkpt lat="25.5060830" lon="-100.6775340">
        <ele>2277.2</ele>
        <time>2022-08-20T15:33:50Z</time>
      </trkpt>
      <trkpt lat="25.5060840" lon="-100.6775460">
        <ele>2277.3</ele>
        <time>2022-08-20T15:33:51Z</time>
      </trkpt>
      <trkpt lat="25.5060930" lon="-100.6775870">
        <ele>2277.4</ele>
        <time>2022-08-20T15:33:52Z</time>
      </trkpt>
      <trkpt lat="25.5060950" lon="-100.6776040">
        <ele>2277.4</ele>
        <time>2022-08-20T15:33:53Z</time>
      </trkpt>
      <trkpt lat="25.5061010" lon="-100.6776450">
        <ele>2277.6</ele>
        <time>2022-08-20T15:33:54Z</time>
      </trkpt>
      <trkpt lat="25.5061020" lon="-100.6776580">
        <ele>2277.6</ele>
        <time>2022-08-20T15:33:55Z</time>
      </trkpt>
      <trkpt lat="25.5061040" lon="-100.6776700">
        <ele>2277.7</ele>
        <time>2022-08-20T15:33:57Z</time>
      </trkpt>
      <trkpt lat="25.5061020" lon="-100.6776650">
        <ele>2277.7</ele>
        <time>2022-08-20T15:33:58Z</time>
      </trkpt>
      <trkpt lat="25.5061050" lon="-100.6776830">
        <ele>2277.7</ele>
        <time>2022-08-20T15:33:59Z</time>
      </trkpt>
      <trkpt lat="25.5061110" lon="-100.6777240">
        <ele>2277.9</ele>
        <time>2022-08-20T15:34:01Z</time>
      </trkpt>
      <trkpt lat="25.5061150" lon="-100.6777640">
        <ele>2278.0</ele>
        <time>2022-08-20T15:34:02Z</time>
      </trkpt>
      <trkpt lat="25.5061160" lon="-100.6777990">
        <ele>2278.1</ele>
        <time>2022-08-20T15:34:03Z</time>
      </trkpt>
      <trkpt lat="25.5061210" lon="-100.6778290">
        <ele>2278.2</ele>
        <time>2022-08-20T15:34:04Z</time>
      </trkpt>
      <trkpt lat="25.5061310" lon="-100.6778700">
        <ele>2278.3</ele>
        <time>2022-08-20T15:34:05Z</time>
      </trkpt>
      <trkpt lat="25.5061360" lon="-100.6779010">
        <ele>2278.4</ele>
        <time>2022-08-20T15:34:06Z</time>
      </trkpt>
      <trkpt lat="25.5061370" lon="-100.6779350">
        <ele>2278.5</ele>
        <time>2022-08-20T15:34:07Z</time>
      </trkpt>
      <trkpt lat="25.5061420" lon="-100.6779770">
        <ele>2278.6</ele>
        <time>2022-08-20T15:34:09Z</time>
      </trkpt>
      <trkpt lat="25.5061440" lon="-100.6779910">
        <ele>2278.6</ele>
        <time>2022-08-20T15:34:10Z</time>
      </trkpt>
      <trkpt lat="25.5061520" lon="-100.6780390">
        <ele>2278.7</ele>
        <time>2022-08-20T15:34:11Z</time>
      </trkpt>
      <trkpt lat="25.5061540" lon="-100.6780590">
        <ele>2278.8</ele>
        <time>2022-08-20T15:34:12Z</time>
      </trkpt>
      <trkpt lat="25.5061580" lon="-100.6781110">
        <ele>2278.9</ele>
        <time>2022-08-20T15:34:13Z</time>
      </trkpt>
      <trkpt lat="25.5061610" lon="-100.6781320">
        <ele>2278.9</ele>
        <time>2022-08-20T15:34:14Z</time>
      </trkpt>
      <trkpt lat="25.5061640" lon="-100.6781660">
        <ele>2278.9</ele>
        <time>2022-08-20T15:34:16Z</time>
      </trkpt>
      <trkpt lat="25.5061640" lon="-100.6782050">
        <ele>2279.0</ele>
        <time>2022-08-20T15:34:17Z</time>
      </trkpt>
      <trkpt lat="25.5061630" lon="-100.6782220">
        <ele>2279.0</ele>
        <time>2022-08-20T15:34:18Z</time>
      </trkpt>
      <trkpt lat="25.5061590" lon="-100.6782630">
        <ele>2279.0</ele>
        <time>2022-08-20T15:34:19Z</time>
      </trkpt>
      <trkpt lat="25.5061590" lon="-100.6782770">
        <ele>2279.1</ele>
        <time>2022-08-20T15:34:20Z</time>
      </trkpt>
      <trkpt lat="25.5061580" lon="-100.6783110">
        <ele>2279.1</ele>
        <time>2022-08-20T15:34:21Z</time>
      </trkpt>
      <trkpt lat="25.5061590" lon="-100.6783350">
        <ele>2279.1</ele>
        <time>2022-08-20T15:34:22Z</time>
      </trkpt>
      <trkpt lat="25.5061570" lon="-100.6783670">
        <ele>2279.1</ele>
        <time>2022-08-20T15:34:24Z</time>
      </trkpt>
      <trkpt lat="25.5061530" lon="-100.6784000">
        <ele>2279.2</ele>
        <time>2022-08-20T15:34:25Z</time>
      </trkpt>
      <trkpt lat="25.5061500" lon="-100.6784390">
        <ele>2279.2</ele>
        <time>2022-08-20T15:34:26Z</time>
      </trkpt>
      <trkpt lat="25.5061480" lon="-100.6784830">
        <ele>2279.2</ele>
        <time>2022-08-20T15:34:27Z</time>
      </trkpt>
      <trkpt lat="25.5061430" lon="-100.6785160">
        <ele>2279.2</ele>
        <time>2022-08-20T15:34:28Z</time>
      </trkpt>
      <trkpt lat="25.5061310" lon="-100.6785570">
        <ele>2279.3</ele>
        <time>2022-08-20T15:34:29Z</time>
      </trkpt>
      <trkpt lat="25.5061230" lon="-100.6785920">
        <ele>2279.3</ele>
        <time>2022-08-20T15:34:30Z</time>
      </trkpt>
      <trkpt lat="25.5061100" lon="-100.6786300">
        <ele>2279.3</ele>
        <time>2022-08-20T15:34:31Z</time>
      </trkpt>
      <trkpt lat="25.5060980" lon="-100.6786960">
        <ele>2279.4</ele>
        <time>2022-08-20T15:34:33Z</time>
      </trkpt>
      <trkpt lat="25.5060880" lon="-100.6787660">
        <ele>2279.5</ele>
        <time>2022-08-20T15:34:34Z</time>
      </trkpt>
      <trkpt lat="25.5060780" lon="-100.6788120">
        <ele>2279.6</ele>
        <time>2022-08-20T15:34:35Z</time>
      </trkpt>
      <trkpt lat="25.5060670" lon="-100.6788670">
        <ele>2279.6</ele>
        <time>2022-08-20T15:34:36Z</time>
      </trkpt>
      <trkpt lat="25.5060530" lon="-100.6789030">
        <ele>2279.6</ele>
        <time>2022-08-20T15:34:37Z</time>
      </trkpt>
      <trkpt lat="25.5060370" lon="-100.6789510">
        <ele>2279.6</ele>
        <time>2022-08-20T15:34:39Z</time>
      </trkpt>
      <trkpt lat="25.5060280" lon="-100.6790170">
        <ele>2279.6</ele>
        <time>2022-08-20T15:34:40Z</time>
      </trkpt>
      <trkpt lat="25.5060360" lon="-100.6790610">
        <ele>2279.6</ele>
        <time>2022-08-20T15:34:42Z</time>
      </trkpt>
      <trkpt lat="25.5060380" lon="-100.6791060">
        <ele>2279.6</ele>
        <time>2022-08-20T15:34:43Z</time>
      </trkpt>
      <trkpt lat="25.5060420" lon="-100.6792030">
        <ele>2279.6</ele>
        <time>2022-08-20T15:34:44Z</time>
      </trkpt>
      <trkpt lat="25.5060430" lon="-100.6792480">
        <ele>2279.6</ele>
        <time>2022-08-20T15:34:45Z</time>
      </trkpt>
      <trkpt lat="25.5060540" lon="-100.6793130">
        <ele>2279.6</ele>
        <time>2022-08-20T15:34:47Z</time>
      </trkpt>
      <trkpt lat="25.5060670" lon="-100.6793640">
        <ele>2279.6</ele>
        <time>2022-08-20T15:34:48Z</time>
      </trkpt>
      <trkpt lat="25.5060860" lon="-100.6794100">
        <ele>2279.6</ele>
        <time>2022-08-20T15:34:49Z</time>
      </trkpt>
      <trkpt lat="25.5061090" lon="-100.6794540">
        <ele>2279.6</ele>
        <time>2022-08-20T15:34:50Z</time>
      </trkpt>
      <trkpt lat="25.5061330" lon="-100.6794970">
        <ele>2279.6</ele>
        <time>2022-08-20T15:34:51Z</time>
      </trkpt>
      <trkpt lat="25.5061570" lon="-100.6795380">
        <ele>2279.6</ele>
        <time>2022-08-20T15:34:52Z</time>
      </trkpt>
      <trkpt lat="25.5061840" lon="-100.6795810">
        <ele>2279.6</ele>
        <time>2022-08-20T15:34:53Z</time>
      </trkpt>
      <trkpt lat="25.5061990" lon="-100.6796100">
        <ele>2279.6</ele>
        <time>2022-08-20T15:34:54Z</time>
      </trkpt>
      <trkpt lat="25.5062090" lon="-100.6796270">
        <ele>2279.6</ele>
        <time>2022-08-20T15:34:56Z</time>
      </trkpt>
      <trkpt lat="25.5062180" lon="-100.6796430">
        <ele>2279.6</ele>
        <time>2022-08-20T15:34:57Z</time>
      </trkpt>
      <trkpt lat="25.5062420" lon="-100.6797090">
        <ele>2279.6</ele>
        <time>2022-08-20T15:34:58Z</time>
      </trkpt>
      <trkpt lat="25.5063050" lon="-100.6798780">
        <ele>2279.4</ele>
        <time>2022-08-20T15:35:00Z</time>
      </trkpt>
      <trkpt lat="25.5063180" lon="-100.6799220">
        <ele>2279.3</ele>
        <time>2022-08-20T15:35:01Z</time>
      </trkpt>
      <trkpt lat="25.5063360" lon="-100.6799840">
        <ele>2279.2</ele>
        <time>2022-08-20T15:35:02Z</time>
      </trkpt>
      <trkpt lat="25.5063550" lon="-100.6800540">
        <ele>2278.9</ele>
        <time>2022-08-20T15:35:03Z</time>
      </trkpt>
      <trkpt lat="25.5063710" lon="-100.6801160">
        <ele>2278.7</ele>
        <time>2022-08-20T15:35:05Z</time>
      </trkpt>
      <trkpt lat="25.5063810" lon="-100.6801720">
        <ele>2278.4</ele>
        <time>2022-08-20T15:35:06Z</time>
      </trkpt>
      <trkpt lat="25.5063890" lon="-100.6802290">
        <ele>2278.1</ele>
        <time>2022-08-20T15:35:07Z</time>
      </trkpt>
      <trkpt lat="25.5063960" lon="-100.6802910">
        <ele>2277.7</ele>
        <time>2022-08-20T15:35:08Z</time>
      </trkpt>
      <trkpt lat="25.5064030" lon="-100.6803550">
        <ele>2277.3</ele>
        <time>2022-08-20T15:35:09Z</time>
      </trkpt>
      <trkpt lat="25.5064110" lon="-100.6804210">
        <ele>2276.9</ele>
        <time>2022-08-20T15:35:10Z</time>
      </trkpt>
      <trkpt lat="25.5064160" lon="-100.6804910">
        <ele>2276.5</ele>
        <time>2022-08-20T15:35:11Z</time>
      </trkpt>
      <trkpt lat="25.5064200" lon="-100.6805630">
        <ele>2276.0</ele>
        <time>2022-08-20T15:35:12Z</time>
      </trkpt>
      <trkpt lat="25.5064220" lon="-100.6806350">
        <ele>2275.5</ele>
        <time>2022-08-20T15:35:13Z</time>
      </trkpt>
      <trkpt lat="25.5064240" lon="-100.6807080">
        <ele>2274.9</ele>
        <time>2022-08-20T15:35:14Z</time>
      </trkpt>
      <trkpt lat="25.5064290" lon="-100.6807800">
        <ele>2274.4</ele>
        <time>2022-08-20T15:35:15Z</time>
      </trkpt>
      <trkpt lat="25.5064400" lon="-100.6808470">
        <ele>2273.9</ele>
        <time>2022-08-20T15:35:16Z</time>
      </trkpt>
      <trkpt lat="25.5064620" lon="-100.6809110">
        <ele>2273.3</ele>
        <time>2022-08-20T15:35:17Z</time>
      </trkpt>
      <trkpt lat="25.5065000" lon="-100.6809750">
        <ele>2272.8</ele>
        <time>2022-08-20T15:35:18Z</time>
      </trkpt>
      <trkpt lat="25.5065550" lon="-100.6810350">
        <ele>2272.3</ele>
        <time>2022-08-20T15:35:19Z</time>
      </trkpt>
      <trkpt lat="25.5066230" lon="-100.6810890">
        <ele>2271.8</ele>
        <time>2022-08-20T15:35:20Z</time>
      </trkpt>
      <trkpt lat="25.5066990" lon="-100.6811380">
        <ele>2271.4</ele>
        <time>2022-08-20T15:35:21Z</time>
      </trkpt>
      <trkpt lat="25.5067820" lon="-100.6811820">
        <ele>2270.9</ele>
        <time>2022-08-20T15:35:22Z</time>
      </trkpt>
      <trkpt lat="25.5068650" lon="-100.6812170">
        <ele>2270.5</ele>
        <time>2022-08-20T15:35:23Z</time>
      </trkpt>
      <trkpt lat="25.5069470" lon="-100.6812480">
        <ele>2270.1</ele>
        <time>2022-08-20T15:35:24Z</time>
      </trkpt>
      <trkpt lat="25.5070270" lon="-100.6812810">
        <ele>2269.6</ele>
        <time>2022-08-20T15:35:25Z</time>
      </trkpt>
      <trkpt lat="25.5071030" lon="-100.6813170">
        <ele>2269.1</ele>
        <time>2022-08-20T15:35:26Z</time>
      </trkpt>
      <trkpt lat="25.5071770" lon="-100.6813560">
        <ele>2268.5</ele>
        <time>2022-08-20T15:35:27Z</time>
      </trkpt>
      <trkpt lat="25.5072480" lon="-100.6813950">
        <ele>2267.9</ele>
        <time>2022-08-20T15:35:28Z</time>
      </trkpt>
      <trkpt lat="25.5073150" lon="-100.6814350">
        <ele>2267.3</ele>
        <time>2022-08-20T15:35:29Z</time>
      </trkpt>
      <trkpt lat="25.5073780" lon="-100.6814740">
        <ele>2266.7</ele>
        <time>2022-08-20T15:35:30Z</time>
      </trkpt>
      <trkpt lat="25.5074420" lon="-100.6815160">
        <ele>2266.1</ele>
        <time>2022-08-20T15:35:31Z</time>
      </trkpt>
      <trkpt lat="25.5075050" lon="-100.6815570">
        <ele>2265.6</ele>
        <time>2022-08-20T15:35:32Z</time>
      </trkpt>
      <trkpt lat="25.5075700" lon="-100.6815950">
        <ele>2265.1</ele>
        <time>2022-08-20T15:35:33Z</time>
      </trkpt>
      <trkpt lat="25.5076360" lon="-100.6816300">
        <ele>2264.5</ele>
        <time>2022-08-20T15:35:34Z</time>
      </trkpt>
      <trkpt lat="25.5077040" lon="-100.6816630">
        <ele>2264.1</ele>
        <time>2022-08-20T15:35:35Z</time>
      </trkpt>
      <trkpt lat="25.5077710" lon="-100.6816980">
        <ele>2263.6</ele>
        <time>2022-08-20T15:35:36Z</time>
      </trkpt>
      <trkpt lat="25.5078390" lon="-100.6817400">
        <ele>2263.2</ele>
        <time>2022-08-20T15:35:37Z</time>
      </trkpt>
      <trkpt lat="25.5079020" lon="-100.6817890">
        <ele>2262.7</ele>
        <time>2022-08-20T15:35:38Z</time>
      </trkpt>
      <trkpt lat="25.5079610" lon="-100.6818470">
        <ele>2262.3</ele>
        <time>2022-08-20T15:35:39Z</time>
      </trkpt>
      <trkpt lat="25.5080190" lon="-100.6819080">
        <ele>2261.9</ele>
        <time>2022-08-20T15:35:40Z</time>
      </trkpt>
      <trkpt lat="25.5080790" lon="-100.6819690">
        <ele>2261.5</ele>
        <time>2022-08-20T15:35:41Z</time>
      </trkpt>
      <trkpt lat="25.5081400" lon="-100.6820300">
        <ele>2261.1</ele>
        <time>2022-08-20T15:35:42Z</time>
      </trkpt>
      <trkpt lat="25.5082050" lon="-100.6820890">
        <ele>2260.7</ele>
        <time>2022-08-20T15:35:43Z</time>
      </trkpt>
      <trkpt lat="25.5082700" lon="-100.6821440">
        <ele>2260.2</ele>
        <time>2022-08-20T15:35:44Z</time>
      </trkpt>
      <trkpt lat="25.5083350" lon="-100.6821960">
        <ele>2259.7</ele>
        <time>2022-08-20T15:35:45Z</time>
      </trkpt>
      <trkpt lat="25.5083990" lon="-100.6822450">
        <ele>2259.2</ele>
        <time>2022-08-20T15:35:46Z</time>
      </trkpt>
      <trkpt lat="25.5084620" lon="-100.6822920">
        <ele>2258.6</ele>
        <time>2022-08-20T15:35:47Z</time>
      </trkpt>
      <trkpt lat="25.5085240" lon="-100.6823350">
        <ele>2258.0</ele>
        <time>2022-08-20T15:35:48Z</time>
      </trkpt>
      <trkpt lat="25.5085820" lon="-100.6823710">
        <ele>2257.4</ele>
        <time>2022-08-20T15:35:49Z</time>
      </trkpt>
      <trkpt lat="25.5086330" lon="-100.6824040">
        <ele>2256.9</ele>
        <time>2022-08-20T15:35:50Z</time>
      </trkpt>
      <trkpt lat="25.5086780" lon="-100.6824320">
        <ele>2256.4</ele>
        <time>2022-08-20T15:35:51Z</time>
      </trkpt>
      <trkpt lat="25.5087210" lon="-100.6824580">
        <ele>2255.9</ele>
        <time>2022-08-20T15:35:52Z</time>
      </trkpt>
      <trkpt lat="25.5087650" lon="-100.6824880">
        <ele>2255.4</ele>
        <time>2022-08-20T15:35:53Z</time>
      </trkpt>
      <trkpt lat="25.5088050" lon="-100.6825280">
        <ele>2255.0</ele>
        <time>2022-08-20T15:35:54Z</time>
      </trkpt>
      <trkpt lat="25.5088450" lon="-100.6825770">
        <ele>2254.4</ele>
        <time>2022-08-20T15:35:55Z</time>
      </trkpt>
      <trkpt lat="25.5088810" lon="-100.6826380">
        <ele>2253.9</ele>
        <time>2022-08-20T15:35:56Z</time>
      </trkpt>
      <trkpt lat="25.5089100" lon="-100.6827140">
        <ele>2253.3</ele>
        <time>2022-08-20T15:35:57Z</time>
      </trkpt>
      <trkpt lat="25.5089330" lon="-100.6828020">
        <ele>2252.8</ele>
        <time>2022-08-20T15:35:58Z</time>
      </trkpt>
      <trkpt lat="25.5089530" lon="-100.6828970">
        <ele>2252.3</ele>
        <time>2022-08-20T15:35:59Z</time>
      </trkpt>
      <trkpt lat="25.5089720" lon="-100.6829980">
        <ele>2251.8</ele>
        <time>2022-08-20T15:36:00Z</time>
      </trkpt>
      <trkpt lat="25.5089900" lon="-100.6831010">
        <ele>2251.4</ele>
        <time>2022-08-20T15:36:01Z</time>
      </trkpt>
      <trkpt lat="25.5090090" lon="-100.6831990">
        <ele>2250.9</ele>
        <time>2022-08-20T15:36:02Z</time>
      </trkpt>
      <trkpt lat="25.5090290" lon="-100.6832890">
        <ele>2250.5</ele>
        <time>2022-08-20T15:36:03Z</time>
      </trkpt>
      <trkpt lat="25.5090530" lon="-100.6833720">
        <ele>2250.2</ele>
        <time>2022-08-20T15:36:04Z</time>
      </trkpt>
      <trkpt lat="25.5090790" lon="-100.6834570">
        <ele>2249.7</ele>
        <time>2022-08-20T15:36:05Z</time>
      </trkpt>
      <trkpt lat="25.5091070" lon="-100.6835430">
        <ele>2249.3</ele>
        <time>2022-08-20T15:36:06Z</time>
      </trkpt>
      <trkpt lat="25.5091320" lon="-100.6836270">
        <ele>2248.8</ele>
        <time>2022-08-20T15:36:07Z</time>
      </trkpt>
      <trkpt lat="25.5091580" lon="-100.6837130">
        <ele>2248.3</ele>
        <time>2022-08-20T15:36:08Z</time>
      </trkpt>
      <trkpt lat="25.5091850" lon="-100.6837990">
        <ele>2247.7</ele>
        <time>2022-08-20T15:36:09Z</time>
      </trkpt>
      <trkpt lat="25.5092140" lon="-100.6838870">
        <ele>2247.1</ele>
        <time>2022-08-20T15:36:10Z</time>
      </trkpt>
      <trkpt lat="25.5092420" lon="-100.6839790">
        <ele>2246.5</ele>
        <time>2022-08-20T15:36:11Z</time>
      </trkpt>
      <trkpt lat="25.5092710" lon="-100.6840760">
        <ele>2245.9</ele>
        <time>2022-08-20T15:36:12Z</time>
      </trkpt>
      <trkpt lat="25.5092980" lon="-100.6841740">
        <ele>2245.4</ele>
        <time>2022-08-20T15:36:13Z</time>
      </trkpt>
      <trkpt lat="25.5093230" lon="-100.6842700">
        <ele>2244.9</ele>
        <time>2022-08-20T15:36:14Z</time>
      </trkpt>
      <trkpt lat="25.5093500" lon="-100.6843680">
        <ele>2244.5</ele>
        <time>2022-08-20T15:36:15Z</time>
      </trkpt>
      <trkpt lat="25.5093760" lon="-100.6844630">
        <ele>2244.0</ele>
        <time>2022-08-20T15:36:16Z</time>
      </trkpt>
      <trkpt lat="25.5094070" lon="-100.6845570">
        <ele>2243.6</ele>
        <time>2022-08-20T15:36:17Z</time>
      </trkpt>
      <trkpt lat="25.5094410" lon="-100.6846520">
        <ele>2243.2</ele>
        <time>2022-08-20T15:36:18Z</time>
      </trkpt>
      <trkpt lat="25.5094760" lon="-100.6847390">
        <ele>2242.8</ele>
        <time>2022-08-20T15:36:19Z</time>
      </trkpt>
      <trkpt lat="25.5095160" lon="-100.6848220">
        <ele>2242.4</ele>
        <time>2022-08-20T15:36:20Z</time>
      </trkpt>
      <trkpt lat="25.5095590" lon="-100.6848950">
        <ele>2242.0</ele>
        <time>2022-08-20T15:36:21Z</time>
      </trkpt>
      <trkpt lat="25.5096080" lon="-100.6849570">
        <ele>2241.5</ele>
        <time>2022-08-20T15:36:22Z</time>
      </trkpt>
      <trkpt lat="25.5096640" lon="-100.6850050">
        <ele>2241.0</ele>
        <time>2022-08-20T15:36:23Z</time>
      </trkpt>
      <trkpt lat="25.5097260" lon="-100.6850410">
        <ele>2240.5</ele>
        <time>2022-08-20T15:36:24Z</time>
      </trkpt>
      <trkpt lat="25.5097880" lon="-100.6850600">
        <ele>2239.9</ele>
        <time>2022-08-20T15:36:25Z</time>
      </trkpt>
      <trkpt lat="25.5098500" lon="-100.6850620">
        <ele>2239.2</ele>
        <time>2022-08-20T15:36:26Z</time>
      </trkpt>
      <trkpt lat="25.5099050" lon="-100.6850650">
        <ele>2238.6</ele>
        <time>2022-08-20T15:36:27Z</time>
      </trkpt>
      <trkpt lat="25.5099580" lon="-100.6850780">
        <ele>2237.8</ele>
        <time>2022-08-20T15:36:28Z</time>
      </trkpt>
      <trkpt lat="25.5100120" lon="-100.6851020">
        <ele>2237.0</ele>
        <time>2022-08-20T15:36:29Z</time>
      </trkpt>
      <trkpt lat="25.5100600" lon="-100.6851430">
        <ele>2236.1</ele>
        <time>2022-08-20T15:36:30Z</time>
      </trkpt>
      <trkpt lat="25.5100980" lon="-100.6852010">
        <ele>2235.2</ele>
        <time>2022-08-20T15:36:31Z</time>
      </trkpt>
      <trkpt lat="25.5101250" lon="-100.6852700">
        <ele>2234.2</ele>
        <time>2022-08-20T15:36:32Z</time>
      </trkpt>
      <trkpt lat="25.5101430" lon="-100.6853480">
        <ele>2233.0</ele>
        <time>2022-08-20T15:36:33Z</time>
      </trkpt>
      <trkpt lat="25.5101470" lon="-100.6854300">
        <ele>2231.9</ele>
        <time>2022-08-20T15:36:34Z</time>
      </trkpt>
      <trkpt lat="25.5101410" lon="-100.6855130">
        <ele>2230.8</ele>
        <time>2022-08-20T15:36:35Z</time>
      </trkpt>
      <trkpt lat="25.5101350" lon="-100.6855940">
        <ele>2229.8</ele>
        <time>2022-08-20T15:36:36Z</time>
      </trkpt>
      <trkpt lat="25.5101250" lon="-100.6856680">
        <ele>2229.0</ele>
        <time>2022-08-20T15:36:37Z</time>
      </trkpt>
      <trkpt lat="25.5101160" lon="-100.6857360">
        <ele>2228.3</ele>
        <time>2022-08-20T15:36:38Z</time>
      </trkpt>
      <trkpt lat="25.5101200" lon="-100.6858030">
        <ele>2227.7</ele>
        <time>2022-08-20T15:36:39Z</time>
      </trkpt>
      <trkpt lat="25.5101330" lon="-100.6858650">
        <ele>2227.1</ele>
        <time>2022-08-20T15:36:40Z</time>
      </trkpt>
      <trkpt lat="25.5101470" lon="-100.6859240">
        <ele>2226.5</ele>
        <time>2022-08-20T15:36:41Z</time>
      </trkpt>
      <trkpt lat="25.5101590" lon="-100.6859800">
        <ele>2225.8</ele>
        <time>2022-08-20T15:36:42Z</time>
      </trkpt>
      <trkpt lat="25.5101670" lon="-100.6860370">
        <ele>2225.2</ele>
        <time>2022-08-20T15:36:43Z</time>
      </trkpt>
      <trkpt lat="25.5101710" lon="-100.6860970">
        <ele>2224.4</ele>
        <time>2022-08-20T15:36:44Z</time>
      </trkpt>
      <trkpt lat="25.5101690" lon="-100.6861600">
        <ele>2223.6</ele>
        <time>2022-08-20T15:36:45Z</time>
      </trkpt>
      <trkpt lat="25.5101630" lon="-100.6862220">
        <ele>2222.6</ele>
        <time>2022-08-20T15:36:46Z</time>
      </trkpt>
      <trkpt lat="25.5101550" lon="-100.6862850">
        <ele>2221.7</ele>
        <time>2022-08-20T15:36:47Z</time>
      </trkpt>
      <trkpt lat="25.5101460" lon="-100.6863440">
        <ele>2220.7</ele>
        <time>2022-08-20T15:36:48Z</time>
      </trkpt>
      <trkpt lat="25.5101380" lon="-100.6863990">
        <ele>2219.7</ele>
        <time>2022-08-20T15:36:49Z</time>
      </trkpt>
      <trkpt lat="25.5101290" lon="-100.6864420">
        <ele>2219.0</ele>
        <time>2022-08-20T15:36:50Z</time>
      </trkpt>
      <trkpt lat="25.5101220" lon="-100.6864720">
        <ele>2218.5</ele>
        <time>2022-08-20T15:36:51Z</time>
      </trkpt>
      <trkpt lat="25.5101140" lon="-100.6865190">
        <ele>2217.8</ele>
        <time>2022-08-20T15:36:52Z</time>
      </trkpt>
      <trkpt lat="25.5101060" lon="-100.6865670">
        <ele>2217.1</ele>
        <time>2022-08-20T15:36:53Z</time>
      </trkpt>
      <trkpt lat="25.5100980" lon="-100.6866210">
        <ele>2216.4</ele>
        <time>2022-08-20T15:36:54Z</time>
      </trkpt>
      <trkpt lat="25.5100880" lon="-100.6866810">
        <ele>2215.7</ele>
        <time>2022-08-20T15:36:55Z</time>
      </trkpt>
      <trkpt lat="25.5100750" lon="-100.6867430">
        <ele>2215.1</ele>
        <time>2022-08-20T15:36:56Z</time>
      </trkpt>
      <trkpt lat="25.5100590" lon="-100.6868000">
        <ele>2214.6</ele>
        <time>2022-08-20T15:36:57Z</time>
      </trkpt>
      <trkpt lat="25.5100510" lon="-100.6868500">
        <ele>2214.3</ele>
        <time>2022-08-20T15:36:58Z</time>
      </trkpt>
      <trkpt lat="25.5100330" lon="-100.6868810">
        <ele>2214.1</ele>
        <time>2022-08-20T15:36:59Z</time>
      </trkpt>
      <trkpt lat="25.5100170" lon="-100.6869220">
        <ele>2213.9</ele>
        <time>2022-08-20T15:37:00Z</time>
      </trkpt>
      <trkpt lat="25.5100010" lon="-100.6869590">
        <ele>2213.7</ele>
        <time>2022-08-20T15:37:01Z</time>
      </trkpt>
      <trkpt lat="25.5099640" lon="-100.6870220">
        <ele>2213.5</ele>
        <time>2022-08-20T15:37:02Z</time>
      </trkpt>
      <trkpt lat="25.5099210" lon="-100.6870710">
        <ele>2213.5</ele>
        <time>2022-08-20T15:37:04Z</time>
      </trkpt>
      <trkpt lat="25.5098880" lon="-100.6871230">
        <ele>2213.6</ele>
        <time>2022-08-20T15:37:05Z</time>
      </trkpt>
      <trkpt lat="25.5098600" lon="-100.6871700">
        <ele>2213.8</ele>
        <time>2022-08-20T15:37:06Z</time>
      </trkpt>
      <trkpt lat="25.5098320" lon="-100.6872180">
        <ele>2214.1</ele>
        <time>2022-08-20T15:37:07Z</time>
      </trkpt>
      <trkpt lat="25.5098040" lon="-100.6872590">
        <ele>2214.4</ele>
        <time>2022-08-20T15:37:08Z</time>
      </trkpt>
      <trkpt lat="25.5097940" lon="-100.6872910">
        <ele>2214.6</ele>
        <time>2022-08-20T15:37:09Z</time>
      </trkpt>
      <trkpt lat="25.5097870" lon="-100.6873080">
        <ele>2214.8</ele>
        <time>2022-08-20T15:37:10Z</time>
      </trkpt>
      <trkpt lat="25.5097700" lon="-100.6873190">
        <ele>2214.9</ele>
        <time>2022-08-20T15:37:11Z</time>
      </trkpt>
      <trkpt lat="25.5097580" lon="-100.6873220">
        <ele>2215.1</ele>
        <time>2022-08-20T15:37:12Z</time>
      </trkpt>
      <trkpt lat="25.5097240" lon="-100.6873080">
        <ele>2215.4</ele>
        <time>2022-08-20T15:37:13Z</time>
      </trkpt>
      <trkpt lat="25.5097110" lon="-100.6873230">
        <ele>2215.6</ele>
        <time>2022-08-20T15:37:15Z</time>
      </trkpt>
      <trkpt lat="25.5097070" lon="-100.6873380">
        <ele>2215.8</ele>
        <time>2022-08-20T15:37:17Z</time>
      </trkpt>
      <trkpt lat="25.5097040" lon="-100.6873530">
        <ele>2216.0</ele>
        <time>2022-08-20T15:37:18Z</time>
      </trkpt>
      <trkpt lat="25.5097000" lon="-100.6873670">
        <ele>2216.1</ele>
        <time>2022-08-20T15:37:20Z</time>
      </trkpt>
      <trkpt lat="25.5096970" lon="-100.6873820">
        <ele>2216.3</ele>
        <time>2022-08-20T15:37:21Z</time>
      </trkpt>
      <trkpt lat="25.5096930" lon="-100.6873970">
        <ele>2216.5</ele>
        <time>2022-08-20T15:37:22Z</time>
      </trkpt>
      <trkpt lat="25.5096750" lon="-100.6874470">
        <ele>2217.2</ele>
        <time>2022-08-20T15:37:24Z</time>
      </trkpt>
      <trkpt lat="25.5096670" lon="-100.6874650">
        <ele>2217.4</ele>
        <time>2022-08-20T15:37:25Z</time>
      </trkpt>
      <trkpt lat="25.5096600" lon="-100.6874830">
        <ele>2217.7</ele>
        <time>2022-08-20T15:37:26Z</time>
      </trkpt>
      <trkpt lat="25.5096450" lon="-100.6875180">
        <ele>2218.1</ele>
        <time>2022-08-20T15:37:27Z</time>
      </trkpt>
      <trkpt lat="25.5096350" lon="-100.6875430">
        <ele>2218.4</ele>
        <time>2022-08-20T15:37:29Z</time>
      </trkpt>
      <trkpt lat="25.5096340" lon="-100.6875470">
        <ele>2218.4</ele>
        <time>2022-08-20T15:37:30Z</time>
      </trkpt>
      <trkpt lat="25.5096330" lon="-100.6875510">
        <ele>2218.5</ele>
        <time>2022-08-20T15:37:31Z</time>
      </trkpt>
      <trkpt lat="25.5096330" lon="-100.6875550">
        <ele>2218.5</ele>
        <time>2022-08-20T15:37:32Z</time>
      </trkpt>
      <trkpt lat="25.5096320" lon="-100.6875590">
        <ele>2218.6</ele>
        <time>2022-08-20T15:37:33Z</time>
      </trkpt>
      <trkpt lat="25.5096340" lon="-100.6875940">
        <ele>2218.9</ele>
        <time>2022-08-20T15:37:34Z</time>
      </trkpt>
      <trkpt lat="25.5096330" lon="-100.6876320">
        <ele>2219.4</ele>
        <time>2022-08-20T15:37:35Z</time>
      </trkpt>
      <trkpt lat="25.5096340" lon="-100.6876620">
        <ele>2219.7</ele>
        <time>2022-08-20T15:37:36Z</time>
      </trkpt>
      <trkpt lat="25.5096400" lon="-100.6876920">
        <ele>2220.0</ele>
        <time>2022-08-20T15:37:37Z</time>
      </trkpt>
      <trkpt lat="25.5096450" lon="-100.6877320">
        <ele>2220.5</ele>
        <time>2022-08-20T15:37:39Z</time>
      </trkpt>
      <trkpt lat="25.5096480" lon="-100.6877430">
        <ele>2220.6</ele>
        <time>2022-08-20T15:37:40Z</time>
      </trkpt>
      <trkpt lat="25.5096530" lon="-100.6877810">
        <ele>2221.1</ele>
        <time>2022-08-20T15:37:41Z</time>
      </trkpt>
      <trkpt lat="25.5096550" lon="-100.6877930">
        <ele>2221.2</ele>
        <time>2022-08-20T15:37:42Z</time>
      </trkpt>
      <trkpt lat="25.5096670" lon="-100.6878180">
        <ele>2221.6</ele>
        <time>2022-08-20T15:37:43Z</time>
      </trkpt>
      <trkpt lat="25.5096740" lon="-100.6878310">
        <ele>2221.7</ele>
        <time>2022-08-20T15:37:44Z</time>
      </trkpt>
      <trkpt lat="25.5096840" lon="-100.6878410">
        <ele>2221.9</ele>
        <time>2022-08-20T15:37:46Z</time>
      </trkpt>
      <trkpt lat="25.5096970" lon="-100.6878600">
        <ele>2222.2</ele>
        <time>2022-08-20T15:37:47Z</time>
      </trkpt>
      <trkpt lat="25.5097150" lon="-100.6878880">
        <ele>2222.7</ele>
        <time>2022-08-20T15:37:48Z</time>
      </trkpt>
      <trkpt lat="25.5097320" lon="-100.6879150">
        <ele>2223.1</ele>
        <time>2022-08-20T15:37:49Z</time>
      </trkpt>
      <trkpt lat="25.5097380" lon="-100.6879230">
        <ele>2223.2</ele>
        <time>2022-08-20T15:37:50Z</time>
      </trkpt>
      <trkpt lat="25.5097520" lon="-100.6879350">
        <ele>2223.5</ele>
        <time>2022-08-20T15:37:52Z</time>
      </trkpt>
      <trkpt lat="25.5097610" lon="-100.6879460">
        <ele>2223.7</ele>
        <time>2022-08-20T15:37:53Z</time>
      </trkpt>
      <trkpt lat="25.5097690" lon="-100.6879590">
        <ele>2223.9</ele>
        <time>2022-08-20T15:37:54Z</time>
      </trkpt>
      <trkpt lat="25.5097830" lon="-100.6879780">
        <ele>2224.2</ele>
        <time>2022-08-20T15:37:55Z</time>
      </trkpt>
      <trkpt lat="25.5098010" lon="-100.6879870">
        <ele>2224.5</ele>
        <time>2022-08-20T15:37:56Z</time>
      </trkpt>
      <trkpt lat="25.5098090" lon="-100.6879980">
        <ele>2224.7</ele>
        <time>2022-08-20T15:37:57Z</time>
      </trkpt>
      <trkpt lat="25.5098060" lon="-100.6880060">
        <ele>2224.8</ele>
        <time>2022-08-20T15:37:59Z</time>
      </trkpt>
      <trkpt lat="25.5098100" lon="-100.6880230">
        <ele>2225.1</ele>
        <time>2022-08-20T15:38:00Z</time>
      </trkpt>
      <trkpt lat="25.5098170" lon="-100.6880400">
        <ele>2225.3</ele>
        <time>2022-08-20T15:38:02Z</time>
      </trkpt>
      <trkpt lat="25.5098240" lon="-100.6880530">
        <ele>2225.5</ele>
        <time>2022-08-20T15:38:03Z</time>
      </trkpt>
      <trkpt lat="25.5098360" lon="-100.6880710">
        <ele>2225.8</ele>
        <time>2022-08-20T15:38:04Z</time>
      </trkpt>
      <trkpt lat="25.5098310" lon="-100.6880820">
        <ele>2226.0</ele>
        <time>2022-08-20T15:38:06Z</time>
      </trkpt>
      <trkpt lat="25.5098380" lon="-100.6880950">
        <ele>2226.2</ele>
        <time>2022-08-20T15:38:07Z</time>
      </trkpt>
      <trkpt lat="25.5098470" lon="-100.6881080">
        <ele>2226.4</ele>
        <time>2022-08-20T15:38:08Z</time>
      </trkpt>
      <trkpt lat="25.5098540" lon="-100.6881220">
        <ele>2226.7</ele>
        <time>2022-08-20T15:38:09Z</time>
      </trkpt>
      <trkpt lat="25.5098610" lon="-100.6881350">
        <ele>2226.9</ele>
        <time>2022-08-20T15:38:11Z</time>
      </trkpt>
      <trkpt lat="25.5098650" lon="-100.6881470">
        <ele>2227.1</ele>
        <time>2022-08-20T15:38:12Z</time>
      </trkpt>
      <trkpt lat="25.5098710" lon="-100.6881610">
        <ele>2227.3</ele>
        <time>2022-08-20T15:38:13Z</time>
      </trkpt>
      <trkpt lat="25.5098810" lon="-100.6881950">
        <ele>2227.8</ele>
        <time>2022-08-20T15:38:15Z</time>
      </trkpt>
      <trkpt lat="25.5098910" lon="-100.6882250">
        <ele>2228.2</ele>
        <time>2022-08-20T15:38:16Z</time>
      </trkpt>
      <trkpt lat="25.5098980" lon="-100.6882420">
        <ele>2228.4</ele>
        <time>2022-08-20T15:38:17Z</time>
      </trkpt>
      <trkpt lat="25.5098970" lon="-100.6882500">
        <ele>2228.5</ele>
        <time>2022-08-20T15:38:19Z</time>
      </trkpt>
      <trkpt lat="25.5099010" lon="-100.6882630">
        <ele>2228.7</ele>
        <time>2022-08-20T15:38:20Z</time>
      </trkpt>
      <trkpt lat="25.5099110" lon="-100.6882750">
        <ele>2228.9</ele>
        <time>2022-08-20T15:38:21Z</time>
      </trkpt>
      <trkpt lat="25.5099160" lon="-100.6882940">
        <ele>2229.1</ele>
        <time>2022-08-20T15:38:22Z</time>
      </trkpt>
      <trkpt lat="25.5099220" lon="-100.6883130">
        <ele>2229.4</ele>
        <time>2022-08-20T15:38:23Z</time>
      </trkpt>
      <trkpt lat="25.5099260" lon="-100.6883220">
        <ele>2229.5</ele>
        <time>2022-08-20T15:38:24Z</time>
      </trkpt>
      <trkpt lat="25.5099320" lon="-100.6883310">
        <ele>2229.6</ele>
        <time>2022-08-20T15:38:26Z</time>
      </trkpt>
      <trkpt lat="25.5099350" lon="-100.6883290">
        <ele>2229.6</ele>
        <time>2022-08-20T15:38:27Z</time>
      </trkpt>
      <trkpt lat="25.5099420" lon="-100.6883460">
        <ele>2229.8</ele>
        <time>2022-08-20T15:38:29Z</time>
      </trkpt>
      <trkpt lat="25.5099480" lon="-100.6883620">
        <ele>2230.0</ele>
        <time>2022-08-20T15:38:31Z</time>
      </trkpt>
      <trkpt lat="25.5099540" lon="-100.6883770">
        <ele>2230.2</ele>
        <time>2022-08-20T15:38:32Z</time>
      </trkpt>
      <trkpt lat="25.5099600" lon="-100.6883900">
        <ele>2230.3</ele>
        <time>2022-08-20T15:38:33Z</time>
      </trkpt>
      <trkpt lat="25.5099720" lon="-100.6884110">
        <ele>2230.6</ele>
        <time>2022-08-20T15:38:34Z</time>
      </trkpt>
      <trkpt lat="25.5099740" lon="-100.6884290">
        <ele>2230.7</ele>
        <time>2022-08-20T15:38:36Z</time>
      </trkpt>
      <trkpt lat="25.5099760" lon="-100.6884500">
        <ele>2230.9</ele>
        <time>2022-08-20T15:38:37Z</time>
      </trkpt>
      <trkpt lat="25.5099810" lon="-100.6884610">
        <ele>2231.0</ele>
        <time>2022-08-20T15:38:38Z</time>
      </trkpt>
      <trkpt lat="25.5099910" lon="-100.6884800">
        <ele>2231.2</ele>
        <time>2022-08-20T15:38:39Z</time>
      </trkpt>
      <trkpt lat="25.5100030" lon="-100.6885110">
        <ele>2231.5</ele>
        <time>2022-08-20T15:38:40Z</time>
      </trkpt>
      <trkpt lat="25.5100080" lon="-100.6885280">
        <ele>2231.6</ele>
        <time>2022-08-20T15:38:42Z</time>
      </trkpt>
      <trkpt lat="25.5100130" lon="-100.6885440">
        <ele>2231.7</ele>
        <time>2022-08-20T15:38:43Z</time>
      </trkpt>
      <trkpt lat="25.5100180" lon="-100.6885600">
        <ele>2231.8</ele>
        <time>2022-08-20T15:38:44Z</time>
      </trkpt>
      <trkpt lat="25.5100230" lon="-100.6886020">
        <ele>2232.1</ele>
        <time>2022-08-20T15:38:45Z</time>
      </trkpt>
      <trkpt lat="25.5100250" lon="-100.6886150">
        <ele>2232.2</ele>
        <time>2022-08-20T15:38:46Z</time>
      </trkpt>
      <trkpt lat="25.5100270" lon="-100.6886430">
        <ele>2232.3</ele>
        <time>2022-08-20T15:38:47Z</time>
      </trkpt>
      <trkpt lat="25.5100280" lon="-100.6886690">
        <ele>2232.4</ele>
        <time>2022-08-20T15:38:49Z</time>
      </trkpt>
      <trkpt lat="25.5100280" lon="-100.6887100">
        <ele>2232.6</ele>
        <time>2022-08-20T15:38:50Z</time>
      </trkpt>
      <trkpt lat="25.5100270" lon="-100.6887260">
        <ele>2232.7</ele>
        <time>2022-08-20T15:38:51Z</time>
      </trkpt>
      <trkpt lat="25.5100250" lon="-100.6887590">
        <ele>2232.8</ele>
        <time>2022-08-20T15:38:52Z</time>
      </trkpt>
      <trkpt lat="25.5100190" lon="-100.6887960">
        <ele>2232.9</ele>
        <time>2022-08-20T15:38:54Z</time>
      </trkpt>
      <trkpt lat="25.5100160" lon="-100.6888100">
        <ele>2232.9</ele>
        <time>2022-08-20T15:38:55Z</time>
      </trkpt>
      <trkpt lat="25.5100090" lon="-100.6888460">
        <ele>2233.0</ele>
        <time>2022-08-20T15:38:56Z</time>
      </trkpt>
      <trkpt lat="25.5100070" lon="-100.6888710">
        <ele>2233.1</ele>
        <time>2022-08-20T15:38:57Z</time>
      </trkpt>
      <trkpt lat="25.5100020" lon="-100.6888980">
        <ele>2233.1</ele>
        <time>2022-08-20T15:38:59Z</time>
      </trkpt>
      <trkpt lat="25.5099930" lon="-100.6889400">
        <ele>2233.2</ele>
        <time>2022-08-20T15:39:00Z</time>
      </trkpt>
      <trkpt lat="25.5099900" lon="-100.6889590">
        <ele>2233.2</ele>
        <time>2022-08-20T15:39:01Z</time>
      </trkpt>
      <trkpt lat="25.5099820" lon="-100.6889960">
        <ele>2233.2</ele>
        <time>2022-08-20T15:39:02Z</time>
      </trkpt>
      <trkpt lat="25.5099780" lon="-100.6890100">
        <ele>2233.2</ele>
        <time>2022-08-20T15:39:03Z</time>
      </trkpt>
      <trkpt lat="25.5099720" lon="-100.6890350">
        <ele>2233.2</ele>
        <time>2022-08-20T15:39:04Z</time>
      </trkpt>
      <trkpt lat="25.5099670" lon="-100.6890680">
        <ele>2233.2</ele>
        <time>2022-08-20T15:39:06Z</time>
      </trkpt>
      <trkpt lat="25.5099720" lon="-100.6890990">
        <ele>2233.2</ele>
        <time>2022-08-20T15:39:07Z</time>
      </trkpt>
      <trkpt lat="25.5099830" lon="-100.6891390">
        <ele>2233.2</ele>
        <time>2022-08-20T15:39:08Z</time>
      </trkpt>
      <trkpt lat="25.5099960" lon="-100.6892050">
        <ele>2233.2</ele>
        <time>2022-08-20T15:39:09Z</time>
      </trkpt>
      <trkpt lat="25.5100070" lon="-100.6892420">
        <ele>2233.1</ele>
        <time>2022-08-20T15:39:11Z</time>
      </trkpt>
      <trkpt lat="25.5100190" lon="-100.6892910">
        <ele>2233.0</ele>
        <time>2022-08-20T15:39:12Z</time>
      </trkpt>
      <trkpt lat="25.5100310" lon="-100.6893580">
        <ele>2232.8</ele>
        <time>2022-08-20T15:39:13Z</time>
      </trkpt>
      <trkpt lat="25.5100410" lon="-100.6894430">
        <ele>2232.5</ele>
        <time>2022-08-20T15:39:15Z</time>
      </trkpt>
      <trkpt lat="25.5100570" lon="-100.6895390">
        <ele>2232.0</ele>
        <time>2022-08-20T15:39:16Z</time>
      </trkpt>
      <trkpt lat="25.5100690" lon="-100.6896110">
        <ele>2231.5</ele>
        <time>2022-08-20T15:39:17Z</time>
      </trkpt>
      <trkpt lat="25.5100810" lon="-100.6896760">
        <ele>2231.1</ele>
        <time>2022-08-20T15:39:18Z</time>
      </trkpt>
      <trkpt lat="25.5100930" lon="-100.6897410">
        <ele>2230.7</ele>
        <time>2022-08-20T15:39:19Z</time>
      </trkpt>
      <trkpt lat="25.5101050" lon="-100.6898070">
        <ele>2230.3</ele>
        <time>2022-08-20T15:39:20Z</time>
      </trkpt>
      <trkpt lat="25.5101220" lon="-100.6898790">
        <ele>2229.9</ele>
        <time>2022-08-20T15:39:21Z</time>
      </trkpt>
      <trkpt lat="25.5101460" lon="-100.6899530">
        <ele>2229.6</ele>
        <time>2022-08-20T15:39:22Z</time>
      </trkpt>
      <trkpt lat="25.5101750" lon="-100.6900260">
        <ele>2229.4</ele>
        <time>2022-08-20T15:39:23Z</time>
      </trkpt>
      <trkpt lat="25.5101960" lon="-100.6900990">
        <ele>2229.4</ele>
        <time>2022-08-20T15:39:24Z</time>
      </trkpt>
      <trkpt lat="25.5102020" lon="-100.6901700">
        <ele>2229.4</ele>
        <time>2022-08-20T15:39:25Z</time>
      </trkpt>
      <trkpt lat="25.5101930" lon="-100.6902370">
        <ele>2229.5</ele>
        <time>2022-08-20T15:39:26Z</time>
      </trkpt>
      <trkpt lat="25.5101730" lon="-100.6903000">
        <ele>2229.6</ele>
        <time>2022-08-20T15:39:27Z</time>
      </trkpt>
      <trkpt lat="25.5101500" lon="-100.6903600">
        <ele>2229.6</ele>
        <time>2022-08-20T15:39:28Z</time>
      </trkpt>
      <trkpt lat="25.5101260" lon="-100.6904280">
        <ele>2229.5</ele>
        <time>2022-08-20T15:39:29Z</time>
      </trkpt>
      <trkpt lat="25.5101050" lon="-100.6904990">
        <ele>2229.1</ele>
        <time>2022-08-20T15:39:30Z</time>
      </trkpt>
      <trkpt lat="25.5100860" lon="-100.6905690">
        <ele>2228.5</ele>
        <time>2022-08-20T15:39:31Z</time>
      </trkpt>
      <trkpt lat="25.5100670" lon="-100.6906450">
        <ele>2227.6</ele>
        <time>2022-08-20T15:39:32Z</time>
      </trkpt>
      <trkpt lat="25.5100450" lon="-100.6907290">
        <ele>2226.4</ele>
        <time>2022-08-20T15:39:33Z</time>
      </trkpt>
      <trkpt lat="25.5100190" lon="-100.6908180">
        <ele>2225.1</ele>
        <time>2022-08-20T15:39:34Z</time>
      </trkpt>
      <trkpt lat="25.5099900" lon="-100.6908950">
        <ele>2223.9</ele>
        <time>2022-08-20T15:39:35Z</time>
      </trkpt>
      <trkpt lat="25.5099580" lon="-100.6909620">
        <ele>2222.9</ele>
        <time>2022-08-20T15:39:36Z</time>
      </trkpt>
      <trkpt lat="25.5099280" lon="-100.6910200">
        <ele>2221.9</ele>
        <time>2022-08-20T15:39:37Z</time>
      </trkpt>
      <trkpt lat="25.5099060" lon="-100.6910780">
        <ele>2221.1</ele>
        <time>2022-08-20T15:39:38Z</time>
      </trkpt>
      <trkpt lat="25.5098970" lon="-100.6911350">
        <ele>2220.3</ele>
        <time>2022-08-20T15:39:39Z</time>
      </trkpt>
      <trkpt lat="25.5098950" lon="-100.6911950">
        <ele>2219.5</ele>
        <time>2022-08-20T15:39:40Z</time>
      </trkpt>
      <trkpt lat="25.5098970" lon="-100.6912590">
        <ele>2218.6</ele>
        <time>2022-08-20T15:39:41Z</time>
      </trkpt>
      <trkpt lat="25.5098950" lon="-100.6913160">
        <ele>2217.8</ele>
        <time>2022-08-20T15:39:42Z</time>
      </trkpt>
      <trkpt lat="25.5098910" lon="-100.6913670">
        <ele>2217.1</ele>
        <time>2022-08-20T15:39:43Z</time>
      </trkpt>
      <trkpt lat="25.5098840" lon="-100.6914070">
        <ele>2216.6</ele>
        <time>2022-08-20T15:39:44Z</time>
      </trkpt>
      <trkpt lat="25.5098710" lon="-100.6914690">
        <ele>2215.9</ele>
        <time>2022-08-20T15:39:45Z</time>
      </trkpt>
      <trkpt lat="25.5098510" lon="-100.6915290">
        <ele>2215.2</ele>
        <time>2022-08-20T15:39:46Z</time>
      </trkpt>
      <trkpt lat="25.5098300" lon="-100.6915870">
        <ele>2214.7</ele>
        <time>2022-08-20T15:39:47Z</time>
      </trkpt>
      <trkpt lat="25.5098130" lon="-100.6916460">
        <ele>2214.1</ele>
        <time>2022-08-20T15:39:48Z</time>
      </trkpt>
      <trkpt lat="25.5098000" lon="-100.6917070">
        <ele>2213.5</ele>
        <time>2022-08-20T15:39:49Z</time>
      </trkpt>
      <trkpt lat="25.5097910" lon="-100.6917690">
        <ele>2212.8</ele>
        <time>2022-08-20T15:39:50Z</time>
      </trkpt>
      <trkpt lat="25.5097810" lon="-100.6918300">
        <ele>2212.1</ele>
        <time>2022-08-20T15:39:51Z</time>
      </trkpt>
      <trkpt lat="25.5097650" lon="-100.6918920">
        <ele>2211.3</ele>
        <time>2022-08-20T15:39:52Z</time>
      </trkpt>
      <trkpt lat="25.5097420" lon="-100.6919490">
        <ele>2210.6</ele>
        <time>2022-08-20T15:39:53Z</time>
      </trkpt>
      <trkpt lat="25.5097120" lon="-100.6920130">
        <ele>2210.0</ele>
        <time>2022-08-20T15:39:54Z</time>
      </trkpt>
      <trkpt lat="25.5096750" lon="-100.6920830">
        <ele>2209.5</ele>
        <time>2022-08-20T15:39:55Z</time>
      </trkpt>
      <trkpt lat="25.5096360" lon="-100.6921500">
        <ele>2209.1</ele>
        <time>2022-08-20T15:39:56Z</time>
      </trkpt>
      <trkpt lat="25.5096010" lon="-100.6922050">
        <ele>2208.9</ele>
        <time>2022-08-20T15:39:57Z</time>
      </trkpt>
      <trkpt lat="25.5095730" lon="-100.6922470">
        <ele>2208.7</ele>
        <time>2022-08-20T15:39:58Z</time>
      </trkpt>
      <trkpt lat="25.5095490" lon="-100.6922840">
        <ele>2208.6</ele>
        <time>2022-08-20T15:39:59Z</time>
      </trkpt>
      <trkpt lat="25.5095410" lon="-100.6922990">
        <ele>2208.6</ele>
        <time>2022-08-20T15:40:00Z</time>
      </trkpt>
      <trkpt lat="25.5095200" lon="-100.6923560">
        <ele>2208.5</ele>
        <time>2022-08-20T15:40:01Z</time>
      </trkpt>
      <trkpt lat="25.5094990" lon="-100.6924310">
        <ele>2208.4</ele>
        <time>2022-08-20T15:40:02Z</time>
      </trkpt>
      <trkpt lat="25.5094810" lon="-100.6925130">
        <ele>2208.4</ele>
        <time>2022-08-20T15:40:03Z</time>
      </trkpt>
      <trkpt lat="25.5094700" lon="-100.6925880">
        <ele>2208.4</ele>
        <time>2022-08-20T15:40:04Z</time>
      </trkpt>
      <trkpt lat="25.5094680" lon="-100.6926600">
        <ele>2208.4</ele>
        <time>2022-08-20T15:40:05Z</time>
      </trkpt>
      <trkpt lat="25.5094720" lon="-100.6927260">
        <ele>2208.6</ele>
        <time>2022-08-20T15:40:06Z</time>
      </trkpt>
      <trkpt lat="25.5094770" lon="-100.6927870">
        <ele>2208.8</ele>
        <time>2022-08-20T15:40:07Z</time>
      </trkpt>
      <trkpt lat="25.5094810" lon="-100.6928440">
        <ele>2209.0</ele>
        <time>2022-08-20T15:40:08Z</time>
      </trkpt>
      <trkpt lat="25.5094820" lon="-100.6928890">
        <ele>2209.2</ele>
        <time>2022-08-20T15:40:09Z</time>
      </trkpt>
      <trkpt lat="25.5094720" lon="-100.6928640">
        <ele>2209.4</ele>
        <time>2022-08-20T15:40:10Z</time>
      </trkpt>
      <trkpt lat="25.5094920" lon="-100.6929180">
        <ele>2209.7</ele>
        <time>2022-08-20T15:40:11Z</time>
      </trkpt>
      <trkpt lat="25.5095260" lon="-100.6930180">
        <ele>2210.5</ele>
        <time>2022-08-20T15:40:12Z</time>
      </trkpt>
      <trkpt lat="25.5095350" lon="-100.6930760">
        <ele>2211.0</ele>
        <time>2022-08-20T15:40:13Z</time>
      </trkpt>
      <trkpt lat="25.5095390" lon="-100.6931260">
        <ele>2211.5</ele>
        <time>2022-08-20T15:40:14Z</time>
      </trkpt>
      <trkpt lat="25.5095330" lon="-100.6931680">
        <ele>2211.9</ele>
        <time>2022-08-20T15:40:15Z</time>
      </trkpt>
      <trkpt lat="25.5095300" lon="-100.6931990">
        <ele>2212.1</ele>
        <time>2022-08-20T15:40:16Z</time>
      </trkpt>
      <trkpt lat="25.5095290" lon="-100.6932410">
        <ele>2212.5</ele>
        <time>2022-08-20T15:40:17Z</time>
      </trkpt>
      <trkpt lat="25.5095310" lon="-100.6932760">
        <ele>2212.9</ele>
        <time>2022-08-20T15:40:18Z</time>
      </trkpt>
      <trkpt lat="25.5095360" lon="-100.6933070">
        <ele>2213.2</ele>
        <time>2022-08-20T15:40:19Z</time>
      </trkpt>
      <trkpt lat="25.5095400" lon="-100.6933430">
        <ele>2213.5</ele>
        <time>2022-08-20T15:40:21Z</time>
      </trkpt>
      <trkpt lat="25.5095480" lon="-100.6933770">
        <ele>2213.8</ele>
        <time>2022-08-20T15:40:22Z</time>
      </trkpt>
      <trkpt lat="25.5095520" lon="-100.6933990">
        <ele>2214.0</ele>
        <time>2022-08-20T15:40:23Z</time>
      </trkpt>
      <trkpt lat="25.5095560" lon="-100.6934000">
        <ele>2214.0</ele>
        <time>2022-08-20T15:40:24Z</time>
      </trkpt>
      <trkpt lat="25.5095590" lon="-100.6934050">
        <ele>2214.1</ele>
        <time>2022-08-20T15:40:25Z</time>
      </trkpt>
      <trkpt lat="25.5095600" lon="-100.6934100">
        <ele>2214.1</ele>
        <time>2022-08-20T15:40:26Z</time>
      </trkpt>
      <trkpt lat="25.5095670" lon="-100.6934350">
        <ele>2214.4</ele>
        <time>2022-08-20T15:40:27Z</time>
      </trkpt>
      <trkpt lat="25.5095750" lon="-100.6934690">
        <ele>2214.7</ele>
        <time>2022-08-20T15:40:29Z</time>
      </trkpt>
      <trkpt lat="25.5095860" lon="-100.6935150">
        <ele>2215.0</ele>
        <time>2022-08-20T15:40:30Z</time>
      </trkpt>
      <trkpt lat="25.5095960" lon="-100.6935740">
        <ele>2215.4</ele>
        <time>2022-08-20T15:40:31Z</time>
      </trkpt>
      <trkpt lat="25.5095970" lon="-100.6936150">
        <ele>2215.7</ele>
        <time>2022-08-20T15:40:32Z</time>
      </trkpt>
      <trkpt lat="25.5096020" lon="-100.6936750">
        <ele>2216.0</ele>
        <time>2022-08-20T15:40:34Z</time>
      </trkpt>
      <trkpt lat="25.5096020" lon="-100.6937100">
        <ele>2216.2</ele>
        <time>2022-08-20T15:40:35Z</time>
      </trkpt>
      <trkpt lat="25.5096000" lon="-100.6937420">
        <ele>2216.4</ele>
        <time>2022-08-20T15:40:36Z</time>
      </trkpt>
      <trkpt lat="25.5096000" lon="-100.6937880">
        <ele>2216.5</ele>
        <time>2022-08-20T15:40:37Z</time>
      </trkpt>
      <trkpt lat="25.5095850" lon="-100.6938530">
        <ele>2216.7</ele>
        <time>2022-08-20T15:40:39Z</time>
      </trkpt>
      <trkpt lat="25.5095700" lon="-100.6938980">
        <ele>2216.8</ele>
        <time>2022-08-20T15:40:40Z</time>
      </trkpt>
      <trkpt lat="25.5095460" lon="-100.6939790">
        <ele>2216.9</ele>
        <time>2022-08-20T15:40:41Z</time>
      </trkpt>
      <trkpt lat="25.5095380" lon="-100.6940170">
        <ele>2216.9</ele>
        <time>2022-08-20T15:40:42Z</time>
      </trkpt>
      <trkpt lat="25.5095180" lon="-100.6940910">
        <ele>2217.0</ele>
        <time>2022-08-20T15:40:44Z</time>
      </trkpt>
      <trkpt lat="25.5095050" lon="-100.6941250">
        <ele>2217.0</ele>
        <time>2022-08-20T15:40:45Z</time>
      </trkpt>
      <trkpt lat="25.5094780" lon="-100.6942110">
        <ele>2217.1</ele>
        <time>2022-08-20T15:40:47Z</time>
      </trkpt>
      <trkpt lat="25.5094570" lon="-100.6942690">
        <ele>2217.1</ele>
        <time>2022-08-20T15:40:48Z</time>
      </trkpt>
      <trkpt lat="25.5094370" lon="-100.6943340">
        <ele>2217.1</ele>
        <time>2022-08-20T15:40:49Z</time>
      </trkpt>
      <trkpt lat="25.5093950" lon="-100.6944410">
        <ele>2216.7</ele>
        <time>2022-08-20T15:40:51Z</time>
      </trkpt>
      <trkpt lat="25.5093620" lon="-100.6944910">
        <ele>2216.4</ele>
        <time>2022-08-20T15:40:52Z</time>
      </trkpt>
      <trkpt lat="25.5093260" lon="-100.6945430">
        <ele>2216.0</ele>
        <time>2022-08-20T15:40:53Z</time>
      </trkpt>
      <trkpt lat="25.5092810" lon="-100.6945990">
        <ele>2215.5</ele>
        <time>2022-08-20T15:40:54Z</time>
      </trkpt>
      <trkpt lat="25.5092350" lon="-100.6946580">
        <ele>2214.9</ele>
        <time>2022-08-20T15:40:55Z</time>
      </trkpt>
      <trkpt lat="25.5091900" lon="-100.6947200">
        <ele>2214.0</ele>
        <time>2022-08-20T15:40:56Z</time>
      </trkpt>
      <trkpt lat="25.5091460" lon="-100.6947810">
        <ele>2213.0</ele>
        <time>2022-08-20T15:40:57Z</time>
      </trkpt>
      <trkpt lat="25.5091000" lon="-100.6948430">
        <ele>2211.8</ele>
        <time>2022-08-20T15:40:58Z</time>
      </trkpt>
      <trkpt lat="25.5090520" lon="-100.6949040">
        <ele>2210.5</ele>
        <time>2022-08-20T15:40:59Z</time>
      </trkpt>
      <trkpt lat="25.5089990" lon="-100.6949690">
        <ele>2209.1</ele>
        <time>2022-08-20T15:41:00Z</time>
      </trkpt>
      <trkpt lat="25.5089440" lon="-100.6950350">
        <ele>2208.0</ele>
        <time>2022-08-20T15:41:01Z</time>
      </trkpt>
      <trkpt lat="25.5088870" lon="-100.6951030">
        <ele>2207.0</ele>
        <time>2022-08-20T15:41:02Z</time>
      </trkpt>
      <trkpt lat="25.5088220" lon="-100.6951730">
        <ele>2206.1</ele>
        <time>2022-08-20T15:41:03Z</time>
      </trkpt>
      <trkpt lat="25.5087530" lon="-100.6952410">
        <ele>2205.3</ele>
        <time>2022-08-20T15:41:04Z</time>
      </trkpt>
      <trkpt lat="25.5086820" lon="-100.6953110">
        <ele>2204.7</ele>
        <time>2022-08-20T15:41:05Z</time>
      </trkpt>
      <trkpt lat="25.5086110" lon="-100.6953850">
        <ele>2204.2</ele>
        <time>2022-08-20T15:41:06Z</time>
      </trkpt>
      <trkpt lat="25.5085420" lon="-100.6954550">
        <ele>2203.7</ele>
        <time>2022-08-20T15:41:07Z</time>
      </trkpt>
      <trkpt lat="25.5084680" lon="-100.6955210">
        <ele>2203.3</ele>
        <time>2022-08-20T15:41:08Z</time>
      </trkpt>
      <trkpt lat="25.5083970" lon="-100.6955860">
        <ele>2202.8</ele>
        <time>2022-08-20T15:41:09Z</time>
      </trkpt>
      <trkpt lat="25.5083320" lon="-100.6956570">
        <ele>2202.3</ele>
        <time>2022-08-20T15:41:10Z</time>
      </trkpt>
      <trkpt lat="25.5082700" lon="-100.6957350">
        <ele>2201.7</ele>
        <time>2022-08-20T15:41:11Z</time>
      </trkpt>
      <trkpt lat="25.5082130" lon="-100.6958230">
        <ele>2201.1</ele>
        <time>2022-08-20T15:41:12Z</time>
      </trkpt>
      <trkpt lat="25.5081590" lon="-100.6959100">
        <ele>2200.5</ele>
        <time>2022-08-20T15:41:13Z</time>
      </trkpt>
      <trkpt lat="25.5081120" lon="-100.6959930">
        <ele>2199.7</ele>
        <time>2022-08-20T15:41:14Z</time>
      </trkpt>
      <trkpt lat="25.5080780" lon="-100.6960620">
        <ele>2198.9</ele>
        <time>2022-08-20T15:41:15Z</time>
      </trkpt>
      <trkpt lat="25.5080570" lon="-100.6961230">
        <ele>2198.2</ele>
        <time>2022-08-20T15:41:16Z</time>
      </trkpt>
      <trkpt lat="25.5080430" lon="-100.6961900">
        <ele>2197.4</ele>
        <time>2022-08-20T15:41:17Z</time>
      </trkpt>
      <trkpt lat="25.5080210" lon="-100.6962670">
        <ele>2196.5</ele>
        <time>2022-08-20T15:41:18Z</time>
      </trkpt>
      <trkpt lat="25.5079880" lon="-100.6963430">
        <ele>2195.8</ele>
        <time>2022-08-20T15:41:19Z</time>
      </trkpt>
      <trkpt lat="25.5079440" lon="-100.6964140">
        <ele>2195.1</ele>
        <time>2022-08-20T15:41:20Z</time>
      </trkpt>
      <trkpt lat="25.5078980" lon="-100.6964830">
        <ele>2194.3</ele>
        <time>2022-08-20T15:41:21Z</time>
      </trkpt>
      <trkpt lat="25.5078590" lon="-100.6965600">
        <ele>2193.5</ele>
        <time>2022-08-20T15:41:22Z</time>
      </trkpt>
      <trkpt lat="25.5078250" lon="-100.6966460">
        <ele>2192.5</ele>
        <time>2022-08-20T15:41:23Z</time>
      </trkpt>
      <trkpt lat="25.5077940" lon="-100.6967400">
        <ele>2191.6</ele>
        <time>2022-08-20T15:41:24Z</time>
      </trkpt>
      <trkpt lat="25.5077620" lon="-100.6968360">
        <ele>2190.7</ele>
        <time>2022-08-20T15:41:25Z</time>
      </trkpt>
      <trkpt lat="25.5077280" lon="-100.6969270">
        <ele>2190.1</ele>
        <time>2022-08-20T15:41:26Z</time>
      </trkpt>
      <trkpt lat="25.5076930" lon="-100.6970140">
        <ele>2189.7</ele>
        <time>2022-08-20T15:41:27Z</time>
      </trkpt>
      <trkpt lat="25.5076570" lon="-100.6970980">
        <ele>2189.5</ele>
        <time>2022-08-20T15:41:28Z</time>
      </trkpt>
      <trkpt lat="25.5076220" lon="-100.6971790">
        <ele>2189.3</ele>
        <time>2022-08-20T15:41:29Z</time>
      </trkpt>
      <trkpt lat="25.5075870" lon="-100.6972540">
        <ele>2189.2</ele>
        <time>2022-08-20T15:41:30Z</time>
      </trkpt>
      <trkpt lat="25.5075530" lon="-100.6973200">
        <ele>2189.2</ele>
        <time>2022-08-20T15:41:31Z</time>
      </trkpt>
      <trkpt lat="25.5075200" lon="-100.6973770">
        <ele>2189.1</ele>
        <time>2022-08-20T15:41:32Z</time>
      </trkpt>
      <trkpt lat="25.5074890" lon="-100.6974260">
        <ele>2189.1</ele>
        <time>2022-08-20T15:41:33Z</time>
      </trkpt>
      <trkpt lat="25.5074580" lon="-100.6974750">
        <ele>2189.0</ele>
        <time>2022-08-20T15:41:34Z</time>
      </trkpt>
      <trkpt lat="25.5074270" lon="-100.6975200">
        <ele>2188.9</ele>
        <time>2022-08-20T15:41:35Z</time>
      </trkpt>
      <trkpt lat="25.5073940" lon="-100.6975620">
        <ele>2188.9</ele>
        <time>2022-08-20T15:41:36Z</time>
      </trkpt>
      <trkpt lat="25.5073590" lon="-100.6976060">
        <ele>2188.8</ele>
        <time>2022-08-20T15:41:37Z</time>
      </trkpt>
      <trkpt lat="25.5073200" lon="-100.6976490">
        <ele>2188.7</ele>
        <time>2022-08-20T15:41:38Z</time>
      </trkpt>
      <trkpt lat="25.5072770" lon="-100.6976910">
        <ele>2188.6</ele>
        <time>2022-08-20T15:41:39Z</time>
      </trkpt>
      <trkpt lat="25.5072260" lon="-100.6977220">
        <ele>2188.5</ele>
        <time>2022-08-20T15:41:40Z</time>
      </trkpt>
      <trkpt lat="25.5071710" lon="-100.6977470">
        <ele>2188.5</ele>
        <time>2022-08-20T15:41:41Z</time>
      </trkpt>
      <trkpt lat="25.5071140" lon="-100.6977660">
        <ele>2188.4</ele>
        <time>2022-08-20T15:41:42Z</time>
      </trkpt>
      <trkpt lat="25.5070580" lon="-100.6977700">
        <ele>2188.4</ele>
        <time>2022-08-20T15:41:43Z</time>
      </trkpt>
      <trkpt lat="25.5070050" lon="-100.6977620">
        <ele>2188.3</ele>
        <time>2022-08-20T15:41:44Z</time>
      </trkpt>
      <trkpt lat="25.5069560" lon="-100.6977540">
        <ele>2188.3</ele>
        <time>2022-08-20T15:41:45Z</time>
      </trkpt>
      <trkpt lat="25.5069090" lon="-100.6977420">
        <ele>2188.3</ele>
        <time>2022-08-20T15:41:46Z</time>
      </trkpt>
      <trkpt lat="25.5068680" lon="-100.6977310">
        <ele>2188.3</ele>
        <time>2022-08-20T15:41:47Z</time>
      </trkpt>
      <trkpt lat="25.5068280" lon="-100.6977180">
        <ele>2188.2</ele>
        <time>2022-08-20T15:41:48Z</time>
      </trkpt>
      <trkpt lat="25.5068120" lon="-100.6977160">
        <ele>2188.2</ele>
        <time>2022-08-20T15:41:49Z</time>
      </trkpt>
      <trkpt lat="25.5067780" lon="-100.6977160">
        <ele>2188.2</ele>
        <time>2022-08-20T15:41:50Z</time>
      </trkpt>
      <trkpt lat="25.5067660" lon="-100.6977160">
        <ele>2188.2</ele>
        <time>2022-08-20T15:41:51Z</time>
      </trkpt>
      <trkpt lat="25.5067370" lon="-100.6977190">
        <ele>2188.2</ele>
        <time>2022-08-20T15:41:52Z</time>
      </trkpt>
      <trkpt lat="25.5066990" lon="-100.6977290">
        <ele>2188.2</ele>
        <time>2022-08-20T15:41:53Z</time>
      </trkpt>
      <trkpt lat="25.5066840" lon="-100.6977350">
        <ele>2188.2</ele>
        <time>2022-08-20T15:41:54Z</time>
      </trkpt>
      <trkpt lat="25.5066560" lon="-100.6977270">
        <ele>2188.1</ele>
        <time>2022-08-20T15:41:55Z</time>
      </trkpt>
      <trkpt lat="25.5066230" lon="-100.6977590">
        <ele>2188.1</ele>
        <time>2022-08-20T15:41:56Z</time>
      </trkpt>
      <trkpt lat="25.5065950" lon="-100.6978040">
        <ele>2187.9</ele>
        <time>2022-08-20T15:41:58Z</time>
      </trkpt>
      <trkpt lat="25.5065790" lon="-100.6979030">
        <ele>2187.5</ele>
        <time>2022-08-20T15:42:00Z</time>
      </trkpt>
      <trkpt lat="25.5065900" lon="-100.6979670">
        <ele>2187.1</ele>
        <time>2022-08-20T15:42:01Z</time>
      </trkpt>
      <trkpt lat="25.5066170" lon="-100.6980780">
        <ele>2186.2</ele>
        <time>2022-08-20T15:42:03Z</time>
      </trkpt>
      <trkpt lat="25.5066350" lon="-100.6981360">
        <ele>2185.6</ele>
        <time>2022-08-20T15:42:04Z</time>
      </trkpt>
      <trkpt lat="25.5066540" lon="-100.6981940">
        <ele>2184.9</ele>
        <time>2022-08-20T15:42:05Z</time>
      </trkpt>
      <trkpt lat="25.5066750" lon="-100.6982530">
        <ele>2184.1</ele>
        <time>2022-08-20T15:42:06Z</time>
      </trkpt>
      <trkpt lat="25.5067010" lon="-100.6983090">
        <ele>2183.3</ele>
        <time>2022-08-20T15:42:07Z</time>
      </trkpt>
      <trkpt lat="25.5067320" lon="-100.6983610">
        <ele>2182.5</ele>
        <time>2022-08-20T15:42:08Z</time>
      </trkpt>
      <trkpt lat="25.5067720" lon="-100.6984060">
        <ele>2181.6</ele>
        <time>2022-08-20T15:42:09Z</time>
      </trkpt>
      <trkpt lat="25.5068200" lon="-100.6984450">
        <ele>2180.8</ele>
        <time>2022-08-20T15:42:10Z</time>
      </trkpt>
      <trkpt lat="25.5068680" lon="-100.6984760">
        <ele>2180.2</ele>
        <time>2022-08-20T15:42:11Z</time>
      </trkpt>
      <trkpt lat="25.5069150" lon="-100.6985070">
        <ele>2179.7</ele>
        <time>2022-08-20T15:42:12Z</time>
      </trkpt>
      <trkpt lat="25.5069600" lon="-100.6985460">
        <ele>2179.3</ele>
        <time>2022-08-20T15:42:13Z</time>
      </trkpt>
      <trkpt lat="25.5069990" lon="-100.6985900">
        <ele>2179.1</ele>
        <time>2022-08-20T15:42:14Z</time>
      </trkpt>
      <trkpt lat="25.5070380" lon="-100.6986310">
        <ele>2178.9</ele>
        <time>2022-08-20T15:42:15Z</time>
      </trkpt>
      <trkpt lat="25.5070730" lon="-100.6986690">
        <ele>2178.9</ele>
        <time>2022-08-20T15:42:16Z</time>
      </trkpt>
      <trkpt lat="25.5071000" lon="-100.6987050">
        <ele>2178.9</ele>
        <time>2022-08-20T15:42:17Z</time>
      </trkpt>
      <trkpt lat="25.5071170" lon="-100.6987420">
        <ele>2178.9</ele>
        <time>2022-08-20T15:42:18Z</time>
      </trkpt>
      <trkpt lat="25.5071240" lon="-100.6987580">
        <ele>2178.9</ele>
        <time>2022-08-20T15:42:19Z</time>
      </trkpt>
      <trkpt lat="25.5071360" lon="-100.6988020">
        <ele>2178.8</ele>
        <time>2022-08-20T15:42:20Z</time>
      </trkpt>
      <trkpt lat="25.5071480" lon="-100.6988500">
        <ele>2178.8</ele>
        <time>2022-08-20T15:42:21Z</time>
      </trkpt>
      <trkpt lat="25.5071550" lon="-100.6988910">
        <ele>2178.7</ele>
        <time>2022-08-20T15:42:22Z</time>
      </trkpt>
      <trkpt lat="25.5071510" lon="-100.6989270">
        <ele>2178.6</ele>
        <time>2022-08-20T15:42:23Z</time>
      </trkpt>
      <trkpt lat="25.5071380" lon="-100.6989900">
        <ele>2178.4</ele>
        <time>2022-08-20T15:42:24Z</time>
      </trkpt>
      <trkpt lat="25.5071220" lon="-100.6990530">
        <ele>2178.0</ele>
        <time>2022-08-20T15:42:25Z</time>
      </trkpt>
      <trkpt lat="25.5071040" lon="-100.6991240">
        <ele>2177.4</ele>
        <time>2022-08-20T15:42:26Z</time>
      </trkpt>
      <trkpt lat="25.5070860" lon="-100.6992010">
        <ele>2176.8</ele>
        <time>2022-08-20T15:42:27Z</time>
      </trkpt>
      <trkpt lat="25.5070680" lon="-100.6992820">
        <ele>2176.1</ele>
        <time>2022-08-20T15:42:28Z</time>
      </trkpt>
      <trkpt lat="25.5070560" lon="-100.6993670">
        <ele>2175.6</ele>
        <time>2022-08-20T15:42:29Z</time>
      </trkpt>
      <trkpt lat="25.5070440" lon="-100.6994470">
        <ele>2175.3</ele>
        <time>2022-08-20T15:42:30Z</time>
      </trkpt>
      <trkpt lat="25.5070230" lon="-100.6995160">
        <ele>2175.2</ele>
        <time>2022-08-20T15:42:31Z</time>
      </trkpt>
      <trkpt lat="25.5069900" lon="-100.6995730">
        <ele>2175.1</ele>
        <time>2022-08-20T15:42:32Z</time>
      </trkpt>
      <trkpt lat="25.5069520" lon="-100.6996190">
        <ele>2175.2</ele>
        <time>2022-08-20T15:42:33Z</time>
      </trkpt>
      <trkpt lat="25.5069120" lon="-100.6996560">
        <ele>2175.3</ele>
        <time>2022-08-20T15:42:34Z</time>
      </trkpt>
      <trkpt lat="25.5068740" lon="-100.6996910">
        <ele>2175.4</ele>
        <time>2022-08-20T15:42:35Z</time>
      </trkpt>
      <trkpt lat="25.5068890" lon="-100.6997200">
        <ele>2175.4</ele>
        <time>2022-08-20T15:42:36Z</time>
      </trkpt>
      <trkpt lat="25.5068370" lon="-100.6997730">
        <ele>2175.6</ele>
        <time>2022-08-20T15:42:38Z</time>
      </trkpt>
      <trkpt lat="25.5067880" lon="-100.6998120">
        <ele>2175.7</ele>
        <time>2022-08-20T15:42:39Z</time>
      </trkpt>
      <trkpt lat="25.5067270" lon="-100.6998720">
        <ele>2175.8</ele>
        <time>2022-08-20T15:42:40Z</time>
      </trkpt>
      <trkpt lat="25.5066960" lon="-100.6999080">
        <ele>2175.8</ele>
        <time>2022-08-20T15:42:41Z</time>
      </trkpt>
      <trkpt lat="25.5066710" lon="-100.6999500">
        <ele>2175.8</ele>
        <time>2022-08-20T15:42:42Z</time>
      </trkpt>
      <trkpt lat="25.5066420" lon="-100.7000260">
        <ele>2175.7</ele>
        <time>2022-08-20T15:42:44Z</time>
      </trkpt>
      <trkpt lat="25.5066190" lon="-100.7000750">
        <ele>2175.6</ele>
        <time>2022-08-20T15:42:45Z</time>
      </trkpt>
      <trkpt lat="25.5065920" lon="-100.7001280">
        <ele>2175.4</ele>
        <time>2022-08-20T15:42:46Z</time>
      </trkpt>
      <trkpt lat="25.5065660" lon="-100.7001850">
        <ele>2175.1</ele>
        <time>2022-08-20T15:42:47Z</time>
      </trkpt>
      <trkpt lat="25.5065430" lon="-100.7002450">
        <ele>2174.9</ele>
        <time>2022-08-20T15:42:48Z</time>
      </trkpt>
      <trkpt lat="25.5065210" lon="-100.7003060">
        <ele>2174.6</ele>
        <time>2022-08-20T15:42:49Z</time>
      </trkpt>
      <trkpt lat="25.5064990" lon="-100.7003680">
        <ele>2174.3</ele>
        <time>2022-08-20T15:42:50Z</time>
      </trkpt>
      <trkpt lat="25.5064770" lon="-100.7004330">
        <ele>2174.0</ele>
        <time>2022-08-20T15:42:51Z</time>
      </trkpt>
      <trkpt lat="25.5064550" lon="-100.7004970">
        <ele>2173.7</ele>
        <time>2022-08-20T15:42:52Z</time>
      </trkpt>
      <trkpt lat="25.5064380" lon="-100.7005600">
        <ele>2173.5</ele>
        <time>2022-08-20T15:42:53Z</time>
      </trkpt>
      <trkpt lat="25.5064220" lon="-100.7006220">
        <ele>2173.2</ele>
        <time>2022-08-20T15:42:54Z</time>
      </trkpt>
      <trkpt lat="25.5064070" lon="-100.7006830">
        <ele>2172.9</ele>
        <time>2022-08-20T15:42:55Z</time>
      </trkpt>
      <trkpt lat="25.5063950" lon="-100.7007490">
        <ele>2172.7</ele>
        <time>2022-08-20T15:42:56Z</time>
      </trkpt>
      <trkpt lat="25.5063870" lon="-100.7008200">
        <ele>2172.4</ele>
        <time>2022-08-20T15:42:57Z</time>
      </trkpt>
      <trkpt lat="25.5063830" lon="-100.7008950">
        <ele>2172.1</ele>
        <time>2022-08-20T15:42:58Z</time>
      </trkpt>
      <trkpt lat="25.5063760" lon="-100.7009680">
        <ele>2171.9</ele>
        <time>2022-08-20T15:42:59Z</time>
      </trkpt>
      <trkpt lat="25.5063680" lon="-100.7010400">
        <ele>2171.6</ele>
        <time>2022-08-20T15:43:00Z</time>
      </trkpt>
      <trkpt lat="25.5063620" lon="-100.7011100">
        <ele>2171.3</ele>
        <time>2022-08-20T15:43:01Z</time>
      </trkpt>
      <trkpt lat="25.5063600" lon="-100.7011840">
        <ele>2171.0</ele>
        <time>2022-08-20T15:43:02Z</time>
      </trkpt>
      <trkpt lat="25.5063580" lon="-100.7012580">
        <ele>2170.6</ele>
        <time>2022-08-20T15:43:03Z</time>
      </trkpt>
      <trkpt lat="25.5063520" lon="-100.7013260">
        <ele>2170.3</ele>
        <time>2022-08-20T15:43:04Z</time>
      </trkpt>
      <trkpt lat="25.5063480" lon="-100.7013870">
        <ele>2170.1</ele>
        <time>2022-08-20T15:43:05Z</time>
      </trkpt>
      <trkpt lat="25.5063450" lon="-100.7014390">
        <ele>2169.8</ele>
        <time>2022-08-20T15:43:06Z</time>
      </trkpt>
      <trkpt lat="25.5063390" lon="-100.7014920">
        <ele>2169.6</ele>
        <time>2022-08-20T15:43:07Z</time>
      </trkpt>
      <trkpt lat="25.5063380" lon="-100.7015170">
        <ele>2169.5</ele>
        <time>2022-08-20T15:43:08Z</time>
      </trkpt>
      <trkpt lat="25.5063340" lon="-100.7015740">
        <ele>2169.3</ele>
        <time>2022-08-20T15:43:09Z</time>
      </trkpt>
      <trkpt lat="25.5063260" lon="-100.7016160">
        <ele>2169.1</ele>
        <time>2022-08-20T15:43:10Z</time>
      </trkpt>
      <trkpt lat="25.5063160" lon="-100.7016530">
        <ele>2169.0</ele>
        <time>2022-08-20T15:43:11Z</time>
      </trkpt>
      <trkpt lat="25.5063070" lon="-100.7016840">
        <ele>2168.9</ele>
        <time>2022-08-20T15:43:12Z</time>
      </trkpt>
      <trkpt lat="25.5063000" lon="-100.7017220">
        <ele>2168.8</ele>
        <time>2022-08-20T15:43:13Z</time>
      </trkpt>
      <trkpt lat="25.5062730" lon="-100.7017530">
        <ele>2168.6</ele>
        <time>2022-08-20T15:43:14Z</time>
      </trkpt>
      <trkpt lat="25.5062600" lon="-100.7018010">
        <ele>2168.5</ele>
        <time>2022-08-20T15:43:15Z</time>
      </trkpt>
      <trkpt lat="25.5062280" lon="-100.7018820">
        <ele>2168.3</ele>
        <time>2022-08-20T15:43:17Z</time>
      </trkpt>
      <trkpt lat="25.5062110" lon="-100.7019210">
        <ele>2168.2</ele>
        <time>2022-08-20T15:43:19Z</time>
      </trkpt>
      <trkpt lat="25.5061930" lon="-100.7019800">
        <ele>2168.2</ele>
        <time>2022-08-20T15:43:20Z</time>
      </trkpt>
      <trkpt lat="25.5061810" lon="-100.7020200">
        <ele>2168.1</ele>
        <time>2022-08-20T15:43:21Z</time>
      </trkpt>
      <trkpt lat="25.5061640" lon="-100.7020660">
        <ele>2168.1</ele>
        <time>2022-08-20T15:43:23Z</time>
      </trkpt>
      <trkpt lat="25.5061510" lon="-100.7021030">
        <ele>2168.0</ele>
        <time>2022-08-20T15:43:24Z</time>
      </trkpt>
      <trkpt lat="25.5061380" lon="-100.7021410">
        <ele>2168.0</ele>
        <time>2022-08-20T15:43:25Z</time>
      </trkpt>
      <trkpt lat="25.5061150" lon="-100.7021940">
        <ele>2168.0</ele>
        <time>2022-08-20T15:43:26Z</time>
      </trkpt>
      <trkpt lat="25.5060960" lon="-100.7022480">
        <ele>2167.9</ele>
        <time>2022-08-20T15:43:27Z</time>
      </trkpt>
      <trkpt lat="25.5060780" lon="-100.7022920">
        <ele>2167.9</ele>
        <time>2022-08-20T15:43:28Z</time>
      </trkpt>
      <trkpt lat="25.5060480" lon="-100.7023390">
        <ele>2167.9</ele>
        <time>2022-08-20T15:43:29Z</time>
      </trkpt>
      <trkpt lat="25.5060070" lon="-100.7023920">
        <ele>2168.0</ele>
        <time>2022-08-20T15:43:31Z</time>
      </trkpt>
      <trkpt lat="25.5059820" lon="-100.7024260">
        <ele>2168.0</ele>
        <time>2022-08-20T15:43:32Z</time>
      </trkpt>
      <trkpt lat="25.5059210" lon="-100.7024490">
        <ele>2168.0</ele>
        <time>2022-08-20T15:43:33Z</time>
      </trkpt>
      <trkpt lat="25.5058420" lon="-100.7024000">
        <ele>2168.2</ele>
        <time>2022-08-20T15:43:35Z</time>
      </trkpt>
      <trkpt lat="25.5057940" lon="-100.7023830">
        <ele>2168.4</ele>
        <time>2022-08-20T15:43:36Z</time>
      </trkpt>
      <trkpt lat="25.5057530" lon="-100.7023820">
        <ele>2168.6</ele>
        <time>2022-08-20T15:43:37Z</time>
      </trkpt>
      <trkpt lat="25.5057250" lon="-100.7023580">
        <ele>2168.8</ele>
        <time>2022-08-20T15:43:38Z</time>
      </trkpt>
      <trkpt lat="25.5056700" lon="-100.7023580">
        <ele>2169.1</ele>
        <time>2022-08-20T15:43:39Z</time>
      </trkpt>
      <trkpt lat="25.5056230" lon="-100.7023760">
        <ele>2169.3</ele>
        <time>2022-08-20T15:43:40Z</time>
      </trkpt>
      <trkpt lat="25.5055530" lon="-100.7024300">
        <ele>2169.7</ele>
        <time>2022-08-20T15:43:42Z</time>
      </trkpt>
      <trkpt lat="25.5055100" lon="-100.7024600">
        <ele>2169.8</ele>
        <time>2022-08-20T15:43:43Z</time>
      </trkpt>
      <trkpt lat="25.5054700" lon="-100.7024970">
        <ele>2169.8</ele>
        <time>2022-08-20T15:43:44Z</time>
      </trkpt>
      <trkpt lat="25.5054340" lon="-100.7025350">
        <ele>2169.8</ele>
        <time>2022-08-20T15:43:45Z</time>
      </trkpt>
      <trkpt lat="25.5054020" lon="-100.7025690">
        <ele>2169.7</ele>
        <time>2022-08-20T15:43:46Z</time>
      </trkpt>
      <trkpt lat="25.5053900" lon="-100.7025930">
        <ele>2169.6</ele>
        <time>2022-08-20T15:43:47Z</time>
      </trkpt>
      <trkpt lat="25.5053910" lon="-100.7026060">
        <ele>2169.6</ele>
        <time>2022-08-20T15:43:48Z</time>
      </trkpt>
      <trkpt lat="25.5053410" lon="-100.7026340">
        <ele>2169.4</ele>
        <time>2022-08-20T15:43:49Z</time>
      </trkpt>
      <trkpt lat="25.5053230" lon="-100.7026110">
        <ele>2169.4</ele>
        <time>2022-08-20T15:43:51Z</time>
      </trkpt>
      <trkpt lat="25.5053280" lon="-100.7026010">
        <ele>2169.3</ele>
        <time>2022-08-20T15:43:52Z</time>
      </trkpt>
      <trkpt lat="25.5053420" lon="-100.7025890">
        <ele>2169.3</ele>
        <time>2022-08-20T15:43:53Z</time>
      </trkpt>
      <trkpt lat="25.5053710" lon="-100.7025860">
        <ele>2169.2</ele>
        <time>2022-08-20T15:43:54Z</time>
      </trkpt>
      <trkpt lat="25.5054100" lon="-100.7026050">
        <ele>2169.1</ele>
        <time>2022-08-20T15:43:55Z</time>
      </trkpt>
      <trkpt lat="25.5054360" lon="-100.7026200">
        <ele>2169.0</ele>
        <time>2022-08-20T15:43:56Z</time>
      </trkpt>
      <trkpt lat="25.5054390" lon="-100.7026250">
        <ele>2169.0</ele>
        <time>2022-08-20T15:43:57Z</time>
      </trkpt>
      <trkpt lat="25.5054490" lon="-100.7026390">
        <ele>2169.0</ele>
        <time>2022-08-20T15:43:58Z</time>
      </trkpt>
      <trkpt lat="25.5054510" lon="-100.7026490">
        <ele>2168.9</ele>
        <time>2022-08-20T15:43:59Z</time>
      </trkpt>
      <trkpt lat="25.5054500" lon="-100.7026510">
        <ele>2168.9</ele>
        <time>2022-08-20T15:44:00Z</time>
      </trkpt>
      <trkpt lat="25.5054490" lon="-100.7026520">
        <ele>2168.9</ele>
        <time>2022-08-20T15:44:01Z</time>
      </trkpt>
      <trkpt lat="25.5054490" lon="-100.7026520">
        <ele>2168.9</ele>
        <time>2022-08-20T15:44:02Z</time>
      </trkpt>
      <trkpt lat="25.5054490" lon="-100.7026520">
        <ele>2168.9</ele>
        <time>2022-08-20T15:44:03Z</time>
      </trkpt>
      <trkpt lat="25.5054670" lon="-100.7026560">
        <ele>2168.9</ele>
        <time>2022-08-20T15:44:04Z</time>
      </trkpt>
      <trkpt lat="25.5054570" lon="-100.7026380">
        <ele>2168.8</ele>
        <time>2022-08-20T15:44:05Z</time>
      </trkpt>
      <trkpt lat="25.5054330" lon="-100.7026210">
        <ele>2168.8</ele>
        <time>2022-08-20T15:44:06Z</time>
      </trkpt>
      <trkpt lat="25.5054100" lon="-100.7026050">
        <ele>2168.7</ele>
        <time>2022-08-20T15:44:07Z</time>
      </trkpt>
      <trkpt lat="25.5053840" lon="-100.7025970">
        <ele>2168.6</ele>
        <time>2022-08-20T15:44:08Z</time>
      </trkpt>
      <trkpt lat="25.5053660" lon="-100.7025920">
        <ele>2168.5</ele>
        <time>2022-08-20T15:44:09Z</time>
      </trkpt>
      <trkpt lat="25.5053580" lon="-100.7025890">
        <ele>2168.5</ele>
        <time>2022-08-20T15:44:10Z</time>
      </trkpt>
      <trkpt lat="25.5053570" lon="-100.7025890">
        <ele>2168.5</ele>
        <time>2022-08-20T15:44:11Z</time>
      </trkpt>
      <trkpt lat="25.5053560" lon="-100.7025880">
        <ele>2168.5</ele>
        <time>2022-08-20T15:44:12Z</time>
      </trkpt>
      <trkpt lat="25.5053550" lon="-100.7025880">
        <ele>2168.5</ele>
        <time>2022-08-20T15:44:13Z</time>
      </trkpt>
      <trkpt lat="25.5053550" lon="-100.7025880">
        <ele>2168.5</ele>
        <time>2022-08-20T15:44:14Z</time>
      </trkpt>
      <trkpt lat="25.5053550" lon="-100.7025880">
        <ele>2168.5</ele>
        <time>2022-08-20T15:44:15Z</time>
      </trkpt>
      <trkpt lat="25.5053550" lon="-100.7025880">
        <ele>2168.5</ele>
        <time>2022-08-20T15:44:16Z</time>
      </trkpt>
      <trkpt lat="25.5053550" lon="-100.7025880">
        <ele>2168.5</ele>
        <time>2022-08-20T15:44:17Z</time>
      </trkpt>
      <trkpt lat="25.5053550" lon="-100.7025880">
        <ele>2168.5</ele>
        <time>2022-08-20T15:44:18Z</time>
      </trkpt>
      <trkpt lat="25.5053550" lon="-100.7025880">
        <ele>2168.5</ele>
        <time>2022-08-20T15:44:19Z</time>
      </trkpt>
      <trkpt lat="25.5053550" lon="-100.7025880">
        <ele>2168.5</ele>
        <time>2022-08-20T15:44:20Z</time>
      </trkpt>
      <trkpt lat="25.5053550" lon="-100.7025880">
        <ele>2168.5</ele>
        <time>2022-08-20T15:44:21Z</time>
      </trkpt>
      <trkpt lat="25.5053550" lon="-100.7025880">
        <ele>2168.5</ele>
        <time>2022-08-20T15:44:22Z</time>
      </trkpt>
      <trkpt lat="25.5053550" lon="-100.7025880">
        <ele>2168.5</ele>
        <time>2022-08-20T15:44:23Z</time>
      </trkpt>
      <trkpt lat="25.5053550" lon="-100.7025880">
        <ele>2168.5</ele>
        <time>2022-08-20T15:44:24Z</time>
      </trkpt>
      <trkpt lat="25.5053550" lon="-100.7025880">
        <ele>2168.5</ele>
        <time>2022-08-20T15:44:25Z</time>
      </trkpt>
      <trkpt lat="25.5053550" lon="-100.7025880">
        <ele>2168.5</ele>
        <time>2022-08-20T15:44:26Z</time>
      </trkpt>
      <trkpt lat="25.5053550" lon="-100.7025880">
        <ele>2168.5</ele>
        <time>2022-08-20T15:44:27Z</time>
      </trkpt>
      <trkpt lat="25.5053550" lon="-100.7025880">
        <ele>2168.5</ele>
        <time>2022-08-20T15:44:28Z</time>
      </trkpt>
      <trkpt lat="25.5053550" lon="-100.7025880">
        <ele>2168.5</ele>
        <time>2022-08-20T15:44:29Z</time>
      </trkpt>
      <trkpt lat="25.5053550" lon="-100.7025880">
        <ele>2168.5</ele>
        <time>2022-08-20T15:44:30Z</time>
      </trkpt>
      <trkpt lat="25.5053550" lon="-100.7025880">
        <ele>2168.5</ele>
        <time>2022-08-20T15:44:31Z</time>
      </trkpt>
      <trkpt lat="25.5053550" lon="-100.7025880">
        <ele>2168.5</ele>
        <time>2022-08-20T15:44:32Z</time>
      </trkpt>
      <trkpt lat="25.5053550" lon="-100.7025880">
        <ele>2168.5</ele>
        <time>2022-08-20T15:44:33Z</time>
      </trkpt>
      <trkpt lat="25.5053560" lon="-100.7026000">
        <ele>2168.5</ele>
        <time>2022-08-20T15:44:34Z</time>
      </trkpt>
      <trkpt lat="25.5053540" lon="-100.7026210">
        <ele>2168.4</ele>
        <time>2022-08-20T15:44:35Z</time>
      </trkpt>
      <trkpt lat="25.5053360" lon="-100.7026530">
        <ele>2168.3</ele>
        <time>2022-08-20T15:44:36Z</time>
      </trkpt>
      <trkpt lat="25.5053350" lon="-100.7026700">
        <ele>2168.2</ele>
        <time>2022-08-20T15:44:37Z</time>
      </trkpt>
      <trkpt lat="25.5053220" lon="-100.7027010">
        <ele>2168.1</ele>
        <time>2022-08-20T15:44:38Z</time>
      </trkpt>
      <trkpt lat="25.5052870" lon="-100.7027470">
        <ele>2168.0</ele>
        <time>2022-08-20T15:44:39Z</time>
      </trkpt>
      <trkpt lat="25.5052210" lon="-100.7028480">
        <ele>2167.7</ele>
        <time>2022-08-20T15:44:41Z</time>
      </trkpt>
      <trkpt lat="25.5051860" lon="-100.7028960">
        <ele>2167.5</ele>
        <time>2022-08-20T15:44:42Z</time>
      </trkpt>
      <trkpt lat="25.5051530" lon="-100.7029310">
        <ele>2167.3</ele>
        <time>2022-08-20T15:44:43Z</time>
      </trkpt>
      <trkpt lat="25.5051140" lon="-100.7029330">
        <ele>2167.2</ele>
        <time>2022-08-20T15:44:44Z</time>
      </trkpt>
      <trkpt lat="25.5050750" lon="-100.7029600">
        <ele>2167.0</ele>
        <time>2022-08-20T15:44:45Z</time>
      </trkpt>
      <trkpt lat="25.5050610" lon="-100.7030680">
        <ele>2166.6</ele>
        <time>2022-08-20T15:44:47Z</time>
      </trkpt>
      <trkpt lat="25.5050550" lon="-100.7031360">
        <ele>2166.4</ele>
        <time>2022-08-20T15:44:48Z</time>
      </trkpt>
      <trkpt lat="25.5050580" lon="-100.7032110">
        <ele>2166.1</ele>
        <time>2022-08-20T15:44:49Z</time>
      </trkpt>
      <trkpt lat="25.5050560" lon="-100.7032790">
        <ele>2165.9</ele>
        <time>2022-08-20T15:44:50Z</time>
      </trkpt>
      <trkpt lat="25.5050620" lon="-100.7033510">
        <ele>2165.6</ele>
        <time>2022-08-20T15:44:51Z</time>
      </trkpt>
      <trkpt lat="25.5050690" lon="-100.7034200">
        <ele>2165.4</ele>
        <time>2022-08-20T15:44:52Z</time>
      </trkpt>
      <trkpt lat="25.5050730" lon="-100.7034890">
        <ele>2165.1</ele>
        <time>2022-08-20T15:44:53Z</time>
      </trkpt>
      <trkpt lat="25.5050700" lon="-100.7035570">
        <ele>2164.8</ele>
        <time>2022-08-20T15:44:54Z</time>
      </trkpt>
      <trkpt lat="25.5050560" lon="-100.7036220">
        <ele>2164.4</ele>
        <time>2022-08-20T15:44:55Z</time>
      </trkpt>
      <trkpt lat="25.5050280" lon="-100.7036840">
        <ele>2163.9</ele>
        <time>2022-08-20T15:44:56Z</time>
      </trkpt>
      <trkpt lat="25.5049850" lon="-100.7037400">
        <ele>2163.4</ele>
        <time>2022-08-20T15:44:57Z</time>
      </trkpt>
      <trkpt lat="25.5049360" lon="-100.7038070">
        <ele>2162.9</ele>
        <time>2022-08-20T15:44:58Z</time>
      </trkpt>
      <trkpt lat="25.5048940" lon="-100.7038820">
        <ele>2162.4</ele>
        <time>2022-08-20T15:44:59Z</time>
      </trkpt>
      <trkpt lat="25.5048580" lon="-100.7039620">
        <ele>2162.0</ele>
        <time>2022-08-20T15:45:00Z</time>
      </trkpt>
      <trkpt lat="25.5048300" lon="-100.7040430">
        <ele>2161.7</ele>
        <time>2022-08-20T15:45:01Z</time>
      </trkpt>
      <trkpt lat="25.5048050" lon="-100.7041250">
        <ele>2161.4</ele>
        <time>2022-08-20T15:45:02Z</time>
      </trkpt>
      <trkpt lat="25.5047800" lon="-100.7042070">
        <ele>2161.1</ele>
        <time>2022-08-20T15:45:03Z</time>
      </trkpt>
      <trkpt lat="25.5047620" lon="-100.7042920">
        <ele>2160.8</ele>
        <time>2022-08-20T15:45:04Z</time>
      </trkpt>
      <trkpt lat="25.5047500" lon="-100.7043840">
        <ele>2160.5</ele>
        <time>2022-08-20T15:45:05Z</time>
      </trkpt>
      <trkpt lat="25.5047360" lon="-100.7044730">
        <ele>2160.2</ele>
        <time>2022-08-20T15:45:06Z</time>
      </trkpt>
      <trkpt lat="25.5047180" lon="-100.7045560">
        <ele>2159.8</ele>
        <time>2022-08-20T15:45:07Z</time>
      </trkpt>
      <trkpt lat="25.5046970" lon="-100.7046330">
        <ele>2159.6</ele>
        <time>2022-08-20T15:45:08Z</time>
      </trkpt>
      <trkpt lat="25.5046730" lon="-100.7047070">
        <ele>2159.3</ele>
        <time>2022-08-20T15:45:09Z</time>
      </trkpt>
      <trkpt lat="25.5046480" lon="-100.7047820">
        <ele>2159.0</ele>
        <time>2022-08-20T15:45:10Z</time>
      </trkpt>
      <trkpt lat="25.5046170" lon="-100.7048580">
        <ele>2158.7</ele>
        <time>2022-08-20T15:45:11Z</time>
      </trkpt>
      <trkpt lat="25.5045830" lon="-100.7049330">
        <ele>2158.5</ele>
        <time>2022-08-20T15:45:12Z</time>
      </trkpt>
      <trkpt lat="25.5045540" lon="-100.7050040">
        <ele>2158.3</ele>
        <time>2022-08-20T15:45:13Z</time>
      </trkpt>
      <trkpt lat="25.5045360" lon="-100.7050660">
        <ele>2158.3</ele>
        <time>2022-08-20T15:45:14Z</time>
      </trkpt>
      <trkpt lat="25.5045330" lon="-100.7051250">
        <ele>2158.3</ele>
        <time>2022-08-20T15:45:15Z</time>
      </trkpt>
      <trkpt lat="25.5045410" lon="-100.7051840">
        <ele>2158.3</ele>
        <time>2022-08-20T15:45:16Z</time>
      </trkpt>
      <trkpt lat="25.5045550" lon="-100.7052340">
        <ele>2158.3</ele>
        <time>2022-08-20T15:45:17Z</time>
      </trkpt>
      <trkpt lat="25.5045670" lon="-100.7052650">
        <ele>2158.4</ele>
        <time>2022-08-20T15:45:18Z</time>
      </trkpt>
      <trkpt lat="25.5045820" lon="-100.7053080">
        <ele>2158.4</ele>
        <time>2022-08-20T15:45:19Z</time>
      </trkpt>
      <trkpt lat="25.5045910" lon="-100.7053450">
        <ele>2158.5</ele>
        <time>2022-08-20T15:45:20Z</time>
      </trkpt>
      <trkpt lat="25.5045930" lon="-100.7053760">
        <ele>2158.6</ele>
        <time>2022-08-20T15:45:21Z</time>
      </trkpt>
      <trkpt lat="25.5045930" lon="-100.7054110">
        <ele>2158.7</ele>
        <time>2022-08-20T15:45:22Z</time>
      </trkpt>
      <trkpt lat="25.5045940" lon="-100.7054540">
        <ele>2158.8</ele>
        <time>2022-08-20T15:45:23Z</time>
      </trkpt>
      <trkpt lat="25.5045940" lon="-100.7055120">
        <ele>2159.0</ele>
        <time>2022-08-20T15:45:24Z</time>
      </trkpt>
      <trkpt lat="25.5045720" lon="-100.7055600">
        <ele>2159.2</ele>
        <time>2022-08-20T15:45:25Z</time>
      </trkpt>
      <trkpt lat="25.5045870" lon="-100.7056460">
        <ele>2159.5</ele>
        <time>2022-08-20T15:45:27Z</time>
      </trkpt>
      <trkpt lat="25.5046080" lon="-100.7057320">
        <ele>2159.8</ele>
        <time>2022-08-20T15:45:28Z</time>
      </trkpt>
      <trkpt lat="25.5046360" lon="-100.7058070">
        <ele>2160.2</ele>
        <time>2022-08-20T15:45:30Z</time>
      </trkpt>
      <trkpt lat="25.5046600" lon="-100.7058570">
        <ele>2160.4</ele>
        <time>2022-08-20T15:45:31Z</time>
      </trkpt>
      <trkpt lat="25.5046840" lon="-100.7058990">
        <ele>2160.6</ele>
        <time>2022-08-20T15:45:32Z</time>
      </trkpt>
      <trkpt lat="25.5047260" lon="-100.7059580">
        <ele>2160.8</ele>
        <time>2022-08-20T15:45:33Z</time>
      </trkpt>
      <trkpt lat="25.5047700" lon="-100.7060140">
        <ele>2161.1</ele>
        <time>2022-08-20T15:45:34Z</time>
      </trkpt>
      <trkpt lat="25.5048140" lon="-100.7060660">
        <ele>2161.4</ele>
        <time>2022-08-20T15:45:36Z</time>
      </trkpt>
      <trkpt lat="25.5048510" lon="-100.7061020">
        <ele>2161.8</ele>
        <time>2022-08-20T15:45:37Z</time>
      </trkpt>
      <trkpt lat="25.5048780" lon="-100.7061340">
        <ele>2162.1</ele>
        <time>2022-08-20T15:45:38Z</time>
      </trkpt>
      <trkpt lat="25.5049110" lon="-100.7061720">
        <ele>2162.5</ele>
        <time>2022-08-20T15:45:39Z</time>
      </trkpt>
      <trkpt lat="25.5049480" lon="-100.7062030">
        <ele>2163.0</ele>
        <time>2022-08-20T15:45:40Z</time>
      </trkpt>
      <trkpt lat="25.5049800" lon="-100.7062220">
        <ele>2163.4</ele>
        <time>2022-08-20T15:45:41Z</time>
      </trkpt>
      <trkpt lat="25.5050150" lon="-100.7062450">
        <ele>2163.9</ele>
        <time>2022-08-20T15:45:42Z</time>
      </trkpt>
      <trkpt lat="25.5050570" lon="-100.7062700">
        <ele>2164.6</ele>
        <time>2022-08-20T15:45:44Z</time>
      </trkpt>
      <trkpt lat="25.5050720" lon="-100.7062780">
        <ele>2164.8</ele>
        <time>2022-08-20T15:45:45Z</time>
      </trkpt>
      <trkpt lat="25.5050870" lon="-100.7062860">
        <ele>2165.0</ele>
        <time>2022-08-20T15:45:46Z</time>
      </trkpt>
      <trkpt lat="25.5051100" lon="-100.7063030">
        <ele>2165.4</ele>
        <time>2022-08-20T15:45:47Z</time>
      </trkpt>
      <trkpt lat="25.5051130" lon="-100.7063060">
        <ele>2165.4</ele>
        <time>2022-08-20T15:45:48Z</time>
      </trkpt>
      <trkpt lat="25.5051060" lon="-100.7063090">
        <ele>2165.5</ele>
        <time>2022-08-20T15:45:50Z</time>
      </trkpt>
      <trkpt lat="25.5051150" lon="-100.7063190">
        <ele>2165.7</ele>
        <time>2022-08-20T15:45:51Z</time>
      </trkpt>
      <trkpt lat="25.5051180" lon="-100.7063210">
        <ele>2165.7</ele>
        <time>2022-08-20T15:45:52Z</time>
      </trkpt>
      <trkpt lat="25.5051210" lon="-100.7063250">
        <ele>2165.8</ele>
        <time>2022-08-20T15:45:53Z</time>
      </trkpt>
      <trkpt lat="25.5051280" lon="-100.7063330">
        <ele>2165.9</ele>
        <time>2022-08-20T15:45:54Z</time>
      </trkpt>
      <trkpt lat="25.5051370" lon="-100.7063420">
        <ele>2166.1</ele>
        <time>2022-08-20T15:45:55Z</time>
      </trkpt>
      <trkpt lat="25.5051520" lon="-100.7063590">
        <ele>2166.3</ele>
        <time>2022-08-20T15:45:57Z</time>
      </trkpt>
      <trkpt lat="25.5051610" lon="-100.7063750">
        <ele>2166.6</ele>
        <time>2022-08-20T15:45:58Z</time>
      </trkpt>
      <trkpt lat="25.5051700" lon="-100.7063910">
        <ele>2166.7</ele>
        <time>2022-08-20T15:45:59Z</time>
      </trkpt>
      <trkpt lat="25.5051790" lon="-100.7064240">
        <ele>2167.1</ele>
        <time>2022-08-20T15:46:00Z</time>
      </trkpt>
      <trkpt lat="25.5051870" lon="-100.7064590">
        <ele>2167.4</ele>
        <time>2022-08-20T15:46:01Z</time>
      </trkpt>
      <trkpt lat="25.5051890" lon="-100.7064700">
        <ele>2167.5</ele>
        <time>2022-08-20T15:46:02Z</time>
      </trkpt>
      <trkpt lat="25.5051930" lon="-100.7065020">
        <ele>2167.8</ele>
        <time>2022-08-20T15:46:04Z</time>
      </trkpt>
      <trkpt lat="25.5051930" lon="-100.7065140">
        <ele>2167.9</ele>
        <time>2022-08-20T15:46:05Z</time>
      </trkpt>
      <trkpt lat="25.5051900" lon="-100.7065480">
        <ele>2168.1</ele>
        <time>2022-08-20T15:46:06Z</time>
      </trkpt>
      <trkpt lat="25.5051890" lon="-100.7065590">
        <ele>2168.2</ele>
        <time>2022-08-20T15:46:07Z</time>
      </trkpt>
      <trkpt lat="25.5051800" lon="-100.7065950">
        <ele>2168.4</ele>
        <time>2022-08-20T15:46:08Z</time>
      </trkpt>
      <trkpt lat="25.5051780" lon="-100.7066060">
        <ele>2168.5</ele>
        <time>2022-08-20T15:46:09Z</time>
      </trkpt>
      <trkpt lat="25.5051620" lon="-100.7066370">
        <ele>2168.7</ele>
        <time>2022-08-20T15:46:11Z</time>
      </trkpt>
      <trkpt lat="25.5051410" lon="-100.7066600">
        <ele>2168.9</ele>
        <time>2022-08-20T15:46:12Z</time>
      </trkpt>
      <trkpt lat="25.5051140" lon="-100.7066920">
        <ele>2169.1</ele>
        <time>2022-08-20T15:46:13Z</time>
      </trkpt>
      <trkpt lat="25.5050930" lon="-100.7067280">
        <ele>2169.2</ele>
        <time>2022-08-20T15:46:15Z</time>
      </trkpt>
      <trkpt lat="25.5050860" lon="-100.7067410">
        <ele>2169.3</ele>
        <time>2022-08-20T15:46:16Z</time>
      </trkpt>
      <trkpt lat="25.5050690" lon="-100.7067710">
        <ele>2169.4</ele>
        <time>2022-08-20T15:46:17Z</time>
      </trkpt>
      <trkpt lat="25.5050500" lon="-100.7068030">
        <ele>2169.5</ele>
        <time>2022-08-20T15:46:19Z</time>
      </trkpt>
      <trkpt lat="25.5050360" lon="-100.7068330">
        <ele>2169.5</ele>
        <time>2022-08-20T15:46:20Z</time>
      </trkpt>
      <trkpt lat="25.5050210" lon="-100.7068620">
        <ele>2169.5</ele>
        <time>2022-08-20T15:46:21Z</time>
      </trkpt>
      <trkpt lat="25.5050030" lon="-100.7068930">
        <ele>2169.5</ele>
        <time>2022-08-20T15:46:22Z</time>
      </trkpt>
      <trkpt lat="25.5049760" lon="-100.7069330">
        <ele>2169.4</ele>
        <time>2022-08-20T15:46:23Z</time>
      </trkpt>
      <trkpt lat="25.5049370" lon="-100.7069750">
        <ele>2169.2</ele>
        <time>2022-08-20T15:46:25Z</time>
      </trkpt>
      <trkpt lat="25.5049050" lon="-100.7070100">
        <ele>2169.0</ele>
        <time>2022-08-20T15:46:26Z</time>
      </trkpt>
      <trkpt lat="25.5048850" lon="-100.7070450">
        <ele>2168.7</ele>
        <time>2022-08-20T15:46:27Z</time>
      </trkpt>
      <trkpt lat="25.5048220" lon="-100.7072020">
        <ele>2167.2</ele>
        <time>2022-08-20T15:46:29Z</time>
      </trkpt>
      <trkpt lat="25.5047900" lon="-100.7072750">
        <ele>2166.4</ele>
        <time>2022-08-20T15:46:30Z</time>
      </trkpt>
      <trkpt lat="25.5047600" lon="-100.7073490">
        <ele>2165.7</ele>
        <time>2022-08-20T15:46:31Z</time>
      </trkpt>
      <trkpt lat="25.5047280" lon="-100.7074260">
        <ele>2164.9</ele>
        <time>2022-08-20T15:46:32Z</time>
      </trkpt>
      <trkpt lat="25.5046940" lon="-100.7075030">
        <ele>2164.0</ele>
        <time>2022-08-20T15:46:33Z</time>
      </trkpt>
      <trkpt lat="25.5046590" lon="-100.7075830">
        <ele>2163.1</ele>
        <time>2022-08-20T15:46:34Z</time>
      </trkpt>
      <trkpt lat="25.5046250" lon="-100.7076660">
        <ele>2162.2</ele>
        <time>2022-08-20T15:46:35Z</time>
      </trkpt>
      <trkpt lat="25.5045890" lon="-100.7077510">
        <ele>2161.2</ele>
        <time>2022-08-20T15:46:36Z</time>
      </trkpt>
      <trkpt lat="25.5045450" lon="-100.7078340">
        <ele>2160.1</ele>
        <time>2022-08-20T15:46:37Z</time>
      </trkpt>
      <trkpt lat="25.5044900" lon="-100.7079120">
        <ele>2159.1</ele>
        <time>2022-08-20T15:46:38Z</time>
      </trkpt>
      <trkpt lat="25.5044220" lon="-100.7079810">
        <ele>2158.2</ele>
        <time>2022-08-20T15:46:39Z</time>
      </trkpt>
      <trkpt lat="25.5043400" lon="-100.7080390">
        <ele>2157.4</ele>
        <time>2022-08-20T15:46:40Z</time>
      </trkpt>
      <trkpt lat="25.5042530" lon="-100.7080900">
        <ele>2156.7</ele>
        <time>2022-08-20T15:46:41Z</time>
      </trkpt>
      <trkpt lat="25.5041670" lon="-100.7081340">
        <ele>2156.1</ele>
        <time>2022-08-20T15:46:42Z</time>
      </trkpt>
      <trkpt lat="25.5040850" lon="-100.7081770">
        <ele>2155.7</ele>
        <time>2022-08-20T15:46:43Z</time>
      </trkpt>
      <trkpt lat="25.5040050" lon="-100.7082250">
        <ele>2155.4</ele>
        <time>2022-08-20T15:46:44Z</time>
      </trkpt>
      <trkpt lat="25.5039330" lon="-100.7082770">
        <ele>2155.2</ele>
        <time>2022-08-20T15:46:45Z</time>
      </trkpt>
      <trkpt lat="25.5038670" lon="-100.7083340">
        <ele>2155.1</ele>
        <time>2022-08-20T15:46:46Z</time>
      </trkpt>
      <trkpt lat="25.5038070" lon="-100.7083960">
        <ele>2155.1</ele>
        <time>2022-08-20T15:46:47Z</time>
      </trkpt>
      <trkpt lat="25.5037500" lon="-100.7084610">
        <ele>2155.3</ele>
        <time>2022-08-20T15:46:48Z</time>
      </trkpt>
      <trkpt lat="25.5036910" lon="-100.7085170">
        <ele>2155.6</ele>
        <time>2022-08-20T15:46:49Z</time>
      </trkpt>
      <trkpt lat="25.5036250" lon="-100.7085600">
        <ele>2156.1</ele>
        <time>2022-08-20T15:46:50Z</time>
      </trkpt>
      <trkpt lat="25.5035500" lon="-100.7085790">
        <ele>2156.7</ele>
        <time>2022-08-20T15:46:51Z</time>
      </trkpt>
      <trkpt lat="25.5034720" lon="-100.7085850">
        <ele>2157.3</ele>
        <time>2022-08-20T15:46:52Z</time>
      </trkpt>
      <trkpt lat="25.5033970" lon="-100.7085920">
        <ele>2157.9</ele>
        <time>2022-08-20T15:46:53Z</time>
      </trkpt>
      <trkpt lat="25.5033330" lon="-100.7086120">
        <ele>2158.3</ele>
        <time>2022-08-20T15:46:54Z</time>
      </trkpt>
      <trkpt lat="25.5032870" lon="-100.7086530">
        <ele>2158.7</ele>
        <time>2022-08-20T15:46:55Z</time>
      </trkpt>
      <trkpt lat="25.5032570" lon="-100.7087150">
        <ele>2159.1</ele>
        <time>2022-08-20T15:46:56Z</time>
      </trkpt>
      <trkpt lat="25.5032390" lon="-100.7087850">
        <ele>2159.5</ele>
        <time>2022-08-20T15:46:57Z</time>
      </trkpt>
      <trkpt lat="25.5032230" lon="-100.7088500">
        <ele>2159.8</ele>
        <time>2022-08-20T15:46:58Z</time>
      </trkpt>
      <trkpt lat="25.5032110" lon="-100.7089090">
        <ele>2160.1</ele>
        <time>2022-08-20T15:46:59Z</time>
      </trkpt>
      <trkpt lat="25.5032030" lon="-100.7089670">
        <ele>2160.3</ele>
        <time>2022-08-20T15:47:00Z</time>
      </trkpt>
      <trkpt lat="25.5032010" lon="-100.7090280">
        <ele>2160.6</ele>
        <time>2022-08-20T15:47:01Z</time>
      </trkpt>
      <trkpt lat="25.5031970" lon="-100.7090850">
        <ele>2160.8</ele>
        <time>2022-08-20T15:47:02Z</time>
      </trkpt>
      <trkpt lat="25.5031940" lon="-100.7091400">
        <ele>2161.0</ele>
        <time>2022-08-20T15:47:03Z</time>
      </trkpt>
      <trkpt lat="25.5031920" lon="-100.7091910">
        <ele>2161.1</ele>
        <time>2022-08-20T15:47:04Z</time>
      </trkpt>
      <trkpt lat="25.5031880" lon="-100.7092270">
        <ele>2161.3</ele>
        <time>2022-08-20T15:47:05Z</time>
      </trkpt>
      <trkpt lat="25.5031790" lon="-100.7092870">
        <ele>2161.4</ele>
        <time>2022-08-20T15:47:06Z</time>
      </trkpt>
      <trkpt lat="25.5031630" lon="-100.7093390">
        <ele>2161.6</ele>
        <time>2022-08-20T15:47:07Z</time>
      </trkpt>
      <trkpt lat="25.5031400" lon="-100.7093860">
        <ele>2161.8</ele>
        <time>2022-08-20T15:47:08Z</time>
      </trkpt>
      <trkpt lat="25.5031120" lon="-100.7094370">
        <ele>2162.0</ele>
        <time>2022-08-20T15:47:09Z</time>
      </trkpt>
      <trkpt lat="25.5030770" lon="-100.7094810">
        <ele>2162.2</ele>
        <time>2022-08-20T15:47:10Z</time>
      </trkpt>
      <trkpt lat="25.5030410" lon="-100.7095140">
        <ele>2162.4</ele>
        <time>2022-08-20T15:47:11Z</time>
      </trkpt>
      <trkpt lat="25.5030130" lon="-100.7095360">
        <ele>2162.5</ele>
        <time>2022-08-20T15:47:12Z</time>
      </trkpt>
      <trkpt lat="25.5029870" lon="-100.7095570">
        <ele>2162.6</ele>
        <time>2022-08-20T15:47:13Z</time>
      </trkpt>
      <trkpt lat="25.5029470" lon="-100.7095910">
        <ele>2162.8</ele>
        <time>2022-08-20T15:47:14Z</time>
      </trkpt>
      <trkpt lat="25.5029140" lon="-100.7096300">
        <ele>2162.9</ele>
        <time>2022-08-20T15:47:15Z</time>
      </trkpt>
      <trkpt lat="25.5028920" lon="-100.7096730">
        <ele>2163.0</ele>
        <time>2022-08-20T15:47:16Z</time>
      </trkpt>
      <trkpt lat="25.5028740" lon="-100.7097110">
        <ele>2163.1</ele>
        <time>2022-08-20T15:47:17Z</time>
      </trkpt>
      <trkpt lat="25.5028490" lon="-100.7097660">
        <ele>2163.2</ele>
        <time>2022-08-20T15:47:18Z</time>
      </trkpt>
      <trkpt lat="25.5028240" lon="-100.7098130">
        <ele>2163.3</ele>
        <time>2022-08-20T15:47:19Z</time>
      </trkpt>
      <trkpt lat="25.5027970" lon="-100.7098560">
        <ele>2163.4</ele>
        <time>2022-08-20T15:47:20Z</time>
      </trkpt>
      <trkpt lat="25.5027690" lon="-100.7099110">
        <ele>2163.5</ele>
        <time>2022-08-20T15:47:21Z</time>
      </trkpt>
      <trkpt lat="25.5027650" lon="-100.7099980">
        <ele>2163.6</ele>
        <time>2022-08-20T15:47:23Z</time>
      </trkpt>
      <trkpt lat="25.5027780" lon="-100.7100540">
        <ele>2163.6</ele>
        <time>2022-08-20T15:47:24Z</time>
      </trkpt>
      <trkpt lat="25.5027970" lon="-100.7101090">
        <ele>2163.7</ele>
        <time>2022-08-20T15:47:25Z</time>
      </trkpt>
      <trkpt lat="25.5028220" lon="-100.7101620">
        <ele>2163.7</ele>
        <time>2022-08-20T15:47:26Z</time>
      </trkpt>
      <trkpt lat="25.5028510" lon="-100.7102090">
        <ele>2163.8</ele>
        <time>2022-08-20T15:47:27Z</time>
      </trkpt>
      <trkpt lat="25.5028770" lon="-100.7102540">
        <ele>2163.9</ele>
        <time>2022-08-20T15:47:28Z</time>
      </trkpt>
      <trkpt lat="25.5028960" lon="-100.7102930">
        <ele>2163.9</ele>
        <time>2022-08-20T15:47:29Z</time>
      </trkpt>
      <trkpt lat="25.5029170" lon="-100.7103310">
        <ele>2164.0</ele>
        <time>2022-08-20T15:47:30Z</time>
      </trkpt>
      <trkpt lat="25.5029470" lon="-100.7103720">
        <ele>2164.1</ele>
        <time>2022-08-20T15:47:31Z</time>
      </trkpt>
      <trkpt lat="25.5029700" lon="-100.7104090">
        <ele>2164.2</ele>
        <time>2022-08-20T15:47:32Z</time>
      </trkpt>
      <trkpt lat="25.5030080" lon="-100.7104630">
        <ele>2164.4</ele>
        <time>2022-08-20T15:47:33Z</time>
      </trkpt>
      <trkpt lat="25.5030060" lon="-100.7105060">
        <ele>2164.6</ele>
        <time>2022-08-20T15:47:34Z</time>
      </trkpt>
      <trkpt lat="25.5030430" lon="-100.7105550">
        <ele>2164.8</ele>
        <time>2022-08-20T15:47:35Z</time>
      </trkpt>
      <trkpt lat="25.5030870" lon="-100.7106100">
        <ele>2165.1</ele>
        <time>2022-08-20T15:47:36Z</time>
      </trkpt>
      <trkpt lat="25.5031180" lon="-100.7106530">
        <ele>2165.4</ele>
        <time>2022-08-20T15:47:38Z</time>
      </trkpt>
      <trkpt lat="25.5031530" lon="-100.7107070">
        <ele>2165.7</ele>
        <time>2022-08-20T15:47:39Z</time>
      </trkpt>
      <trkpt lat="25.5031780" lon="-100.7107580">
        <ele>2166.0</ele>
        <time>2022-08-20T15:47:40Z</time>
      </trkpt>
      <trkpt lat="25.5031860" lon="-100.7107860">
        <ele>2166.2</ele>
        <time>2022-08-20T15:47:42Z</time>
      </trkpt>
      <trkpt lat="25.5032030" lon="-100.7108350">
        <ele>2166.5</ele>
        <time>2022-08-20T15:47:44Z</time>
      </trkpt>
      <trkpt lat="25.5032150" lon="-100.7108650">
        <ele>2166.7</ele>
        <time>2022-08-20T15:47:45Z</time>
      </trkpt>
      <trkpt lat="25.5032250" lon="-100.7109110">
        <ele>2167.0</ele>
        <time>2022-08-20T15:47:46Z</time>
      </trkpt>
      <trkpt lat="25.5032290" lon="-100.7109330">
        <ele>2167.1</ele>
        <time>2022-08-20T15:47:47Z</time>
      </trkpt>
      <trkpt lat="25.5032310" lon="-100.7109380">
        <ele>2167.1</ele>
        <time>2022-08-20T15:47:49Z</time>
      </trkpt>
      <trkpt lat="25.5032320" lon="-100.7109530">
        <ele>2167.2</ele>
        <time>2022-08-20T15:47:50Z</time>
      </trkpt>
      <trkpt lat="25.5032340" lon="-100.7109680">
        <ele>2167.4</ele>
        <time>2022-08-20T15:47:51Z</time>
      </trkpt>
      <trkpt lat="25.5032360" lon="-100.7109830">
        <ele>2167.5</ele>
        <time>2022-08-20T15:47:52Z</time>
      </trkpt>
      <trkpt lat="25.5032420" lon="-100.7110200">
        <ele>2167.7</ele>
        <time>2022-08-20T15:47:53Z</time>
      </trkpt>
      <trkpt lat="25.5032470" lon="-100.7110650">
        <ele>2168.0</ele>
        <time>2022-08-20T15:47:54Z</time>
      </trkpt>
      <trkpt lat="25.5032470" lon="-100.7111080">
        <ele>2168.3</ele>
        <time>2022-08-20T15:47:55Z</time>
      </trkpt>
      <trkpt lat="25.5032480" lon="-100.7111450">
        <ele>2168.6</ele>
        <time>2022-08-20T15:47:57Z</time>
      </trkpt>
      <trkpt lat="25.5032580" lon="-100.7111770">
        <ele>2168.8</ele>
        <time>2022-08-20T15:47:58Z</time>
      </trkpt>
      <trkpt lat="25.5032640" lon="-100.7112110">
        <ele>2169.0</ele>
        <time>2022-08-20T15:47:59Z</time>
      </trkpt>
      <trkpt lat="25.5032680" lon="-100.7112610">
        <ele>2169.4</ele>
        <time>2022-08-20T15:48:00Z</time>
      </trkpt>
      <trkpt lat="25.5032640" lon="-100.7113070">
        <ele>2169.7</ele>
        <time>2022-08-20T15:48:02Z</time>
      </trkpt>
      <trkpt lat="25.5032530" lon="-100.7113500">
        <ele>2170.0</ele>
        <time>2022-08-20T15:48:03Z</time>
      </trkpt>
      <trkpt lat="25.5032490" lon="-100.7113890">
        <ele>2170.3</ele>
        <time>2022-08-20T15:48:04Z</time>
      </trkpt>
      <trkpt lat="25.5032410" lon="-100.7114330">
        <ele>2170.7</ele>
        <time>2022-08-20T15:48:05Z</time>
      </trkpt>
      <trkpt lat="25.5032360" lon="-100.7114710">
        <ele>2171.1</ele>
        <time>2022-08-20T15:48:06Z</time>
      </trkpt>
      <trkpt lat="25.5032280" lon="-100.7115190">
        <ele>2171.5</ele>
        <time>2022-08-20T15:48:07Z</time>
      </trkpt>
      <trkpt lat="25.5032220" lon="-100.7115670">
        <ele>2172.0</ele>
        <time>2022-08-20T15:48:08Z</time>
      </trkpt>
      <trkpt lat="25.5032130" lon="-100.7116200">
        <ele>2172.6</ele>
        <time>2022-08-20T15:48:10Z</time>
      </trkpt>
      <trkpt lat="25.5032100" lon="-100.7116390">
        <ele>2172.8</ele>
        <time>2022-08-20T15:48:11Z</time>
      </trkpt>
      <trkpt lat="25.5032080" lon="-100.7116590">
        <ele>2173.0</ele>
        <time>2022-08-20T15:48:12Z</time>
      </trkpt>
      <trkpt lat="25.5032030" lon="-100.7116990">
        <ele>2173.4</ele>
        <time>2022-08-20T15:48:13Z</time>
      </trkpt>
      <trkpt lat="25.5032010" lon="-100.7117110">
        <ele>2173.5</ele>
        <time>2022-08-20T15:48:14Z</time>
      </trkpt>
      <trkpt lat="25.5031980" lon="-100.7117440">
        <ele>2173.9</ele>
        <time>2022-08-20T15:48:16Z</time>
      </trkpt>
      <trkpt lat="25.5031970" lon="-100.7117540">
        <ele>2174.0</ele>
        <time>2022-08-20T15:48:17Z</time>
      </trkpt>
      <trkpt lat="25.5031980" lon="-100.7117960">
        <ele>2174.4</ele>
        <time>2022-08-20T15:48:18Z</time>
      </trkpt>
      <trkpt lat="25.5032000" lon="-100.7118150">
        <ele>2174.6</ele>
        <time>2022-08-20T15:48:19Z</time>
      </trkpt>
      <trkpt lat="25.5032130" lon="-100.7118530">
        <ele>2175.0</ele>
        <time>2022-08-20T15:48:20Z</time>
      </trkpt>
      <trkpt lat="25.5032190" lon="-100.7118650">
        <ele>2175.2</ele>
        <time>2022-08-20T15:48:21Z</time>
      </trkpt>
      <trkpt lat="25.5032400" lon="-100.7119070">
        <ele>2175.6</ele>
        <time>2022-08-20T15:48:23Z</time>
      </trkpt>
      <trkpt lat="25.5032480" lon="-100.7119260">
        <ele>2175.8</ele>
        <time>2022-08-20T15:48:24Z</time>
      </trkpt>
      <trkpt lat="25.5032570" lon="-100.7119680">
        <ele>2176.2</ele>
        <time>2022-08-20T15:48:25Z</time>
      </trkpt>
      <trkpt lat="25.5032600" lon="-100.7119930">
        <ele>2176.4</ele>
        <time>2022-08-20T15:48:26Z</time>
      </trkpt>
      <trkpt lat="25.5032650" lon="-100.7120200">
        <ele>2176.6</ele>
        <time>2022-08-20T15:48:28Z</time>
      </trkpt>
      <trkpt lat="25.5032760" lon="-100.7120660">
        <ele>2177.0</ele>
        <time>2022-08-20T15:48:29Z</time>
      </trkpt>
      <trkpt lat="25.5032810" lon="-100.7120850">
        <ele>2177.1</ele>
        <time>2022-08-20T15:48:30Z</time>
      </trkpt>
      <trkpt lat="25.5032930" lon="-100.7121270">
        <ele>2177.4</ele>
        <time>2022-08-20T15:48:31Z</time>
      </trkpt>
      <trkpt lat="25.5033020" lon="-100.7121540">
        <ele>2177.6</ele>
        <time>2022-08-20T15:48:32Z</time>
      </trkpt>
      <trkpt lat="25.5033060" lon="-100.7121830">
        <ele>2177.9</ele>
        <time>2022-08-20T15:48:34Z</time>
      </trkpt>
      <trkpt lat="25.5033060" lon="-100.7122330">
        <ele>2178.2</ele>
        <time>2022-08-20T15:48:35Z</time>
      </trkpt>
      <trkpt lat="25.5033130" lon="-100.7122850">
        <ele>2178.6</ele>
        <time>2022-08-20T15:48:37Z</time>
      </trkpt>
      <trkpt lat="25.5033160" lon="-100.7123030">
        <ele>2178.7</ele>
        <time>2022-08-20T15:48:38Z</time>
      </trkpt>
      <trkpt lat="25.5033200" lon="-100.7123210">
        <ele>2178.9</ele>
        <time>2022-08-20T15:48:39Z</time>
      </trkpt>
      <trkpt lat="25.5033290" lon="-100.7123610">
        <ele>2179.2</ele>
        <time>2022-08-20T15:48:40Z</time>
      </trkpt>
      <trkpt lat="25.5033310" lon="-100.7123750">
        <ele>2179.3</ele>
        <time>2022-08-20T15:48:41Z</time>
      </trkpt>
      <trkpt lat="25.5033380" lon="-100.7124150">
        <ele>2179.6</ele>
        <time>2022-08-20T15:48:42Z</time>
      </trkpt>
      <trkpt lat="25.5033400" lon="-100.7124290">
        <ele>2179.7</ele>
        <time>2022-08-20T15:48:43Z</time>
      </trkpt>
      <trkpt lat="25.5033520" lon="-100.7124570">
        <ele>2179.9</ele>
        <time>2022-08-20T15:48:44Z</time>
      </trkpt>
      <trkpt lat="25.5033620" lon="-100.7125070">
        <ele>2180.3</ele>
        <time>2022-08-20T15:48:46Z</time>
      </trkpt>
      <trkpt lat="25.5033640" lon="-100.7125270">
        <ele>2180.5</ele>
        <time>2022-08-20T15:48:47Z</time>
      </trkpt>
      <trkpt lat="25.5033670" lon="-100.7125470">
        <ele>2180.6</ele>
        <time>2022-08-20T15:48:48Z</time>
      </trkpt>
      <trkpt lat="25.5033740" lon="-100.7125930">
        <ele>2181.0</ele>
        <time>2022-08-20T15:48:49Z</time>
      </trkpt>
      <trkpt lat="25.5033780" lon="-100.7126290">
        <ele>2181.2</ele>
        <time>2022-08-20T15:48:50Z</time>
      </trkpt>
      <trkpt lat="25.5033820" lon="-100.7126660">
        <ele>2181.5</ele>
        <time>2022-08-20T15:48:51Z</time>
      </trkpt>
      <trkpt lat="25.5033870" lon="-100.7127110">
        <ele>2181.7</ele>
        <time>2022-08-20T15:48:52Z</time>
      </trkpt>
      <trkpt lat="25.5033950" lon="-100.7127490">
        <ele>2182.0</ele>
        <time>2022-08-20T15:48:53Z</time>
      </trkpt>
      <trkpt lat="25.5034050" lon="-100.7127830">
        <ele>2182.2</ele>
        <time>2022-08-20T15:48:55Z</time>
      </trkpt>
      <trkpt lat="25.5034100" lon="-100.7128130">
        <ele>2182.3</ele>
        <time>2022-08-20T15:48:56Z</time>
      </trkpt>
      <trkpt lat="25.5034150" lon="-100.7128740">
        <ele>2182.7</ele>
        <time>2022-08-20T15:48:57Z</time>
      </trkpt>
      <trkpt lat="25.5034160" lon="-100.7129140">
        <ele>2182.8</ele>
        <time>2022-08-20T15:48:58Z</time>
      </trkpt>
      <trkpt lat="25.5034170" lon="-100.7129610">
        <ele>2183.1</ele>
        <time>2022-08-20T15:48:59Z</time>
      </trkpt>
      <trkpt lat="25.5034180" lon="-100.7129940">
        <ele>2183.2</ele>
        <time>2022-08-20T15:49:00Z</time>
      </trkpt>
      <trkpt lat="25.5034190" lon="-100.7130370">
        <ele>2183.4</ele>
        <time>2022-08-20T15:49:01Z</time>
      </trkpt>
      <trkpt lat="25.5034210" lon="-100.7130690">
        <ele>2183.5</ele>
        <time>2022-08-20T15:49:02Z</time>
      </trkpt>
      <trkpt lat="25.5034260" lon="-100.7131220">
        <ele>2183.6</ele>
        <time>2022-08-20T15:49:04Z</time>
      </trkpt>
      <trkpt lat="25.5034280" lon="-100.7131770">
        <ele>2183.8</ele>
        <time>2022-08-20T15:49:05Z</time>
      </trkpt>
      <trkpt lat="25.5034290" lon="-100.7132230">
        <ele>2183.9</ele>
        <time>2022-08-20T15:49:06Z</time>
      </trkpt>
      <trkpt lat="25.5034320" lon="-100.7133060">
        <ele>2184.1</ele>
        <time>2022-08-20T15:49:08Z</time>
      </trkpt>
      <trkpt lat="25.5034330" lon="-100.7134160">
        <ele>2184.2</ele>
        <time>2022-08-20T15:49:09Z</time>
      </trkpt>
      <trkpt lat="25.5034390" lon="-100.7134880">
        <ele>2184.2</ele>
        <time>2022-08-20T15:49:11Z</time>
      </trkpt>
      <trkpt lat="25.5034560" lon="-100.7135990">
        <ele>2184.1</ele>
        <time>2022-08-20T15:49:12Z</time>
      </trkpt>
      <trkpt lat="25.5034720" lon="-100.7136680">
        <ele>2183.9</ele>
        <time>2022-08-20T15:49:13Z</time>
      </trkpt>
      <trkpt lat="25.5034880" lon="-100.7137290">
        <ele>2183.6</ele>
        <time>2022-08-20T15:49:14Z</time>
      </trkpt>
      <trkpt lat="25.5035090" lon="-100.7137960">
        <ele>2183.3</ele>
        <time>2022-08-20T15:49:15Z</time>
      </trkpt>
      <trkpt lat="25.5035370" lon="-100.7138650">
        <ele>2182.9</ele>
        <time>2022-08-20T15:49:16Z</time>
      </trkpt>
      <trkpt lat="25.5035700" lon="-100.7139360">
        <ele>2182.4</ele>
        <time>2022-08-20T15:49:17Z</time>
      </trkpt>
      <trkpt lat="25.5036070" lon="-100.7140050">
        <ele>2181.8</ele>
        <time>2022-08-20T15:49:18Z</time>
      </trkpt>
      <trkpt lat="25.5036490" lon="-100.7140700">
        <ele>2181.2</ele>
        <time>2022-08-20T15:49:19Z</time>
      </trkpt>
      <trkpt lat="25.5037000" lon="-100.7141330">
        <ele>2180.6</ele>
        <time>2022-08-20T15:49:20Z</time>
      </trkpt>
      <trkpt lat="25.5037580" lon="-100.7141980">
        <ele>2179.9</ele>
        <time>2022-08-20T15:49:21Z</time>
      </trkpt>
      <trkpt lat="25.5038210" lon="-100.7142660">
        <ele>2179.3</ele>
        <time>2022-08-20T15:49:22Z</time>
      </trkpt>
      <trkpt lat="25.5038860" lon="-100.7143410">
        <ele>2178.6</ele>
        <time>2022-08-20T15:49:23Z</time>
      </trkpt>
      <trkpt lat="25.5039500" lon="-100.7144170">
        <ele>2177.9</ele>
        <time>2022-08-20T15:49:24Z</time>
      </trkpt>
      <trkpt lat="25.5040140" lon="-100.7144940">
        <ele>2177.3</ele>
        <time>2022-08-20T15:49:25Z</time>
      </trkpt>
      <trkpt lat="25.5040800" lon="-100.7145680">
        <ele>2176.6</ele>
        <time>2022-08-20T15:49:26Z</time>
      </trkpt>
      <trkpt lat="25.5041470" lon="-100.7146350">
        <ele>2175.9</ele>
        <time>2022-08-20T15:49:27Z</time>
      </trkpt>
      <trkpt lat="25.5042130" lon="-100.7146940">
        <ele>2175.0</ele>
        <time>2022-08-20T15:49:28Z</time>
      </trkpt>
      <trkpt lat="25.5042740" lon="-100.7147460">
        <ele>2174.1</ele>
        <time>2022-08-20T15:49:29Z</time>
      </trkpt>
      <trkpt lat="25.5043360" lon="-100.7147920">
        <ele>2173.2</ele>
        <time>2022-08-20T15:49:30Z</time>
      </trkpt>
      <trkpt lat="25.5044030" lon="-100.7148290">
        <ele>2172.3</ele>
        <time>2022-08-20T15:49:31Z</time>
      </trkpt>
      <trkpt lat="25.5044750" lon="-100.7148560">
        <ele>2171.5</ele>
        <time>2022-08-20T15:49:32Z</time>
      </trkpt>
      <trkpt lat="25.5045430" lon="-100.7148900">
        <ele>2170.8</ele>
        <time>2022-08-20T15:49:33Z</time>
      </trkpt>
      <trkpt lat="25.5046060" lon="-100.7149280">
        <ele>2170.4</ele>
        <time>2022-08-20T15:49:34Z</time>
      </trkpt>
      <trkpt lat="25.5046620" lon="-100.7149730">
        <ele>2170.1</ele>
        <time>2022-08-20T15:49:35Z</time>
      </trkpt>
      <trkpt lat="25.5047080" lon="-100.7150270">
        <ele>2169.9</ele>
        <time>2022-08-20T15:49:36Z</time>
      </trkpt>
      <trkpt lat="25.5047410" lon="-100.7150890">
        <ele>2169.8</ele>
        <time>2022-08-20T15:49:37Z</time>
      </trkpt>
      <trkpt lat="25.5047640" lon="-100.7151540">
        <ele>2169.9</ele>
        <time>2022-08-20T15:49:38Z</time>
      </trkpt>
      <trkpt lat="25.5047550" lon="-100.7152150">
        <ele>2170.0</ele>
        <time>2022-08-20T15:49:39Z</time>
      </trkpt>
      <trkpt lat="25.5047200" lon="-100.7152580">
        <ele>2170.2</ele>
        <time>2022-08-20T15:49:40Z</time>
      </trkpt>
      <trkpt lat="25.5046690" lon="-100.7152740">
        <ele>2170.4</ele>
        <time>2022-08-20T15:49:41Z</time>
      </trkpt>
      <trkpt lat="25.5046150" lon="-100.7152710">
        <ele>2170.5</ele>
        <time>2022-08-20T15:49:42Z</time>
      </trkpt>
      <trkpt lat="25.5045690" lon="-100.7152590">
        <ele>2170.6</ele>
        <time>2022-08-20T15:49:43Z</time>
      </trkpt>
      <trkpt lat="25.5045310" lon="-100.7152440">
        <ele>2170.7</ele>
        <time>2022-08-20T15:49:44Z</time>
      </trkpt>
      <trkpt lat="25.5045000" lon="-100.7152340">
        <ele>2170.8</ele>
        <time>2022-08-20T15:49:45Z</time>
      </trkpt>
      <trkpt lat="25.5044830" lon="-100.7152340">
        <ele>2170.9</ele>
        <time>2022-08-20T15:49:46Z</time>
      </trkpt>
      <trkpt lat="25.5044720" lon="-100.7152420">
        <ele>2170.9</ele>
        <time>2022-08-20T15:49:47Z</time>
      </trkpt>
      <trkpt lat="25.5044410" lon="-100.7152510">
        <ele>2171.1</ele>
        <time>2022-08-20T15:49:48Z</time>
      </trkpt>
      <trkpt lat="25.5044280" lon="-100.7152520">
        <ele>2171.1</ele>
        <time>2022-08-20T15:49:49Z</time>
      </trkpt>
      <trkpt lat="25.5044010" lon="-100.7152580">
        <ele>2171.3</ele>
        <time>2022-08-20T15:49:50Z</time>
      </trkpt>
      <trkpt lat="25.5043870" lon="-100.7152940">
        <ele>2171.5</ele>
        <time>2022-08-20T15:49:51Z</time>
      </trkpt>
      <trkpt lat="25.5043670" lon="-100.7153040">
        <ele>2171.6</ele>
        <time>2022-08-20T15:49:52Z</time>
      </trkpt>
      <trkpt lat="25.5043210" lon="-100.7153200">
        <ele>2172.0</ele>
        <time>2022-08-20T15:49:54Z</time>
      </trkpt>
      <trkpt lat="25.5042910" lon="-100.7153260">
        <ele>2172.2</ele>
        <time>2022-08-20T15:49:55Z</time>
      </trkpt>
      <trkpt lat="25.5042650" lon="-100.7153360">
        <ele>2172.4</ele>
        <time>2022-08-20T15:49:56Z</time>
      </trkpt>
      <trkpt lat="25.5042360" lon="-100.7153510">
        <ele>2172.6</ele>
        <time>2022-08-20T15:49:57Z</time>
      </trkpt>
      <trkpt lat="25.5042000" lon="-100.7153660">
        <ele>2172.8</ele>
        <time>2022-08-20T15:49:58Z</time>
      </trkpt>
      <trkpt lat="25.5041620" lon="-100.7153790">
        <ele>2173.1</ele>
        <time>2022-08-20T15:49:59Z</time>
      </trkpt>
      <trkpt lat="25.5041160" lon="-100.7154000">
        <ele>2173.5</ele>
        <time>2022-08-20T15:50:00Z</time>
      </trkpt>
      <trkpt lat="25.5040770" lon="-100.7154220">
        <ele>2173.8</ele>
        <time>2022-08-20T15:50:01Z</time>
      </trkpt>
      <trkpt lat="25.5040380" lon="-100.7154390">
        <ele>2174.1</ele>
        <time>2022-08-20T15:50:02Z</time>
      </trkpt>
      <trkpt lat="25.5039930" lon="-100.7154640">
        <ele>2174.4</ele>
        <time>2022-08-20T15:50:04Z</time>
      </trkpt>
      <trkpt lat="25.5039620" lon="-100.7154830">
        <ele>2174.7</ele>
        <time>2022-08-20T15:50:05Z</time>
      </trkpt>
      <trkpt lat="25.5039120" lon="-100.7155120">
        <ele>2175.1</ele>
        <time>2022-08-20T15:50:06Z</time>
      </trkpt>
      <trkpt lat="25.5038680" lon="-100.7155330">
        <ele>2175.5</ele>
        <time>2022-08-20T15:50:08Z</time>
      </trkpt>
      <trkpt lat="25.5038350" lon="-100.7155520">
        <ele>2175.8</ele>
        <time>2022-08-20T15:50:09Z</time>
      </trkpt>
      <trkpt lat="25.5037850" lon="-100.7155830">
        <ele>2176.3</ele>
        <time>2022-08-20T15:50:10Z</time>
      </trkpt>
      <trkpt lat="25.5037250" lon="-100.7156240">
        <ele>2176.8</ele>
        <time>2022-08-20T15:50:12Z</time>
      </trkpt>
      <trkpt lat="25.5036950" lon="-100.7156380">
        <ele>2177.1</ele>
        <time>2022-08-20T15:50:14Z</time>
      </trkpt>
      <trkpt lat="25.5036880" lon="-100.7156460">
        <ele>2177.2</ele>
        <time>2022-08-20T15:50:15Z</time>
      </trkpt>
      <trkpt lat="25.5036810" lon="-100.7156530">
        <ele>2177.3</ele>
        <time>2022-08-20T15:50:16Z</time>
      </trkpt>
      <trkpt lat="25.5036750" lon="-100.7156610">
        <ele>2177.3</ele>
        <time>2022-08-20T15:50:17Z</time>
      </trkpt>
      <trkpt lat="25.5036470" lon="-100.7156930">
        <ele>2177.6</ele>
        <time>2022-08-20T15:50:18Z</time>
      </trkpt>
      <trkpt lat="25.5036100" lon="-100.7157310">
        <ele>2178.0</ele>
        <time>2022-08-20T15:50:19Z</time>
      </trkpt>
      <trkpt lat="25.5035850" lon="-100.7157630">
        <ele>2178.3</ele>
        <time>2022-08-20T15:50:20Z</time>
      </trkpt>
      <trkpt lat="25.5035620" lon="-100.7157970">
        <ele>2178.6</ele>
        <time>2022-08-20T15:50:22Z</time>
      </trkpt>
      <trkpt lat="25.5035410" lon="-100.7158200">
        <ele>2178.7</ele>
        <time>2022-08-20T15:50:23Z</time>
      </trkpt>
      <trkpt lat="25.5035090" lon="-100.7158630">
        <ele>2179.0</ele>
        <time>2022-08-20T15:50:24Z</time>
      </trkpt>
      <trkpt lat="25.5034790" lon="-100.7159070">
        <ele>2179.3</ele>
        <time>2022-08-20T15:50:26Z</time>
      </trkpt>
      <trkpt lat="25.5034600" lon="-100.7159400">
        <ele>2179.5</ele>
        <time>2022-08-20T15:50:27Z</time>
      </trkpt>
      <trkpt lat="25.5034310" lon="-100.7159900">
        <ele>2179.8</ele>
        <time>2022-08-20T15:50:28Z</time>
      </trkpt>
      <trkpt lat="25.5034140" lon="-100.7160330">
        <ele>2180.0</ele>
        <time>2022-08-20T15:50:29Z</time>
      </trkpt>
      <trkpt lat="25.5033920" lon="-100.7160820">
        <ele>2180.3</ele>
        <time>2022-08-20T15:50:31Z</time>
      </trkpt>
      <trkpt lat="25.5033850" lon="-100.7161000">
        <ele>2180.4</ele>
        <time>2022-08-20T15:50:32Z</time>
      </trkpt>
      <trkpt lat="25.5033770" lon="-100.7161190">
        <ele>2180.6</ele>
        <time>2022-08-20T15:50:33Z</time>
      </trkpt>
      <trkpt lat="25.5033600" lon="-100.7161450">
        <ele>2180.8</ele>
        <time>2022-08-20T15:50:34Z</time>
      </trkpt>
      <trkpt lat="25.5033340" lon="-100.7161720">
        <ele>2181.2</ele>
        <time>2022-08-20T15:50:35Z</time>
      </trkpt>
      <trkpt lat="25.5033080" lon="-100.7162030">
        <ele>2181.6</ele>
        <time>2022-08-20T15:50:36Z</time>
      </trkpt>
      <trkpt lat="25.5032860" lon="-100.7162310">
        <ele>2182.0</ele>
        <time>2022-08-20T15:50:37Z</time>
      </trkpt>
      <trkpt lat="25.5032610" lon="-100.7162690">
        <ele>2182.6</ele>
        <time>2022-08-20T15:50:38Z</time>
      </trkpt>
      <trkpt lat="25.5032360" lon="-100.7163070">
        <ele>2183.2</ele>
        <time>2022-08-20T15:50:40Z</time>
      </trkpt>
      <trkpt lat="25.5032130" lon="-100.7163360">
        <ele>2183.8</ele>
        <time>2022-08-20T15:50:42Z</time>
      </trkpt>
      <trkpt lat="25.5032010" lon="-100.7163580">
        <ele>2184.1</ele>
        <time>2022-08-20T15:50:43Z</time>
      </trkpt>
      <trkpt lat="25.5031850" lon="-100.7163920">
        <ele>2184.7</ele>
        <time>2022-08-20T15:50:45Z</time>
      </trkpt>
      <trkpt lat="25.5031860" lon="-100.7164130">
        <ele>2185.0</ele>
        <time>2022-08-20T15:50:46Z</time>
      </trkpt>
      <trkpt lat="25.5031880" lon="-100.7164240">
        <ele>2185.1</ele>
        <time>2022-08-20T15:50:47Z</time>
      </trkpt>
      <trkpt lat="25.5031890" lon="-100.7164350">
        <ele>2185.3</ele>
        <time>2022-08-20T15:50:48Z</time>
      </trkpt>
      <trkpt lat="25.5031920" lon="-100.7164680">
        <ele>2185.7</ele>
        <time>2022-08-20T15:50:49Z</time>
      </trkpt>
      <trkpt lat="25.5031930" lon="-100.7164820">
        <ele>2185.9</ele>
        <time>2022-08-20T15:50:51Z</time>
      </trkpt>
      <trkpt lat="25.5031940" lon="-100.7164960">
        <ele>2186.0</ele>
        <time>2022-08-20T15:50:52Z</time>
      </trkpt>
      <trkpt lat="25.5031940" lon="-100.7165090">
        <ele>2186.2</ele>
        <time>2022-08-20T15:50:53Z</time>
      </trkpt>
      <trkpt lat="25.5032040" lon="-100.7165470">
        <ele>2186.6</ele>
        <time>2022-08-20T15:50:54Z</time>
      </trkpt>
      <trkpt lat="25.5032150" lon="-100.7165660">
        <ele>2186.9</ele>
        <time>2022-08-20T15:50:55Z</time>
      </trkpt>
      <trkpt lat="25.5032290" lon="-100.7165850">
        <ele>2187.1</ele>
        <time>2022-08-20T15:50:57Z</time>
      </trkpt>
      <trkpt lat="25.5032560" lon="-100.7166180">
        <ele>2187.4</ele>
        <time>2022-08-20T15:50:58Z</time>
      </trkpt>
      <trkpt lat="25.5032680" lon="-100.7166330">
        <ele>2187.6</ele>
        <time>2022-08-20T15:50:59Z</time>
      </trkpt>
      <trkpt lat="25.5032950" lon="-100.7166570">
        <ele>2187.8</ele>
        <time>2022-08-20T15:51:00Z</time>
      </trkpt>
      <trkpt lat="25.5033050" lon="-100.7166640">
        <ele>2187.9</ele>
        <time>2022-08-20T15:51:01Z</time>
      </trkpt>
      <trkpt lat="25.5033360" lon="-100.7166810">
        <ele>2188.1</ele>
        <time>2022-08-20T15:51:02Z</time>
      </trkpt>
      <trkpt lat="25.5033460" lon="-100.7166880">
        <ele>2188.2</ele>
        <time>2022-08-20T15:51:03Z</time>
      </trkpt>
      <trkpt lat="25.5033790" lon="-100.7167070">
        <ele>2188.4</ele>
        <time>2022-08-20T15:51:05Z</time>
      </trkpt>
      <trkpt lat="25.5033900" lon="-100.7167150">
        <ele>2188.5</ele>
        <time>2022-08-20T15:51:07Z</time>
      </trkpt>
      <trkpt lat="25.5034000" lon="-100.7167270">
        <ele>2188.6</ele>
        <time>2022-08-20T15:51:08Z</time>
      </trkpt>
      <trkpt lat="25.5034070" lon="-100.7167430">
        <ele>2188.7</ele>
        <time>2022-08-20T15:51:09Z</time>
      </trkpt>
      <trkpt lat="25.5034130" lon="-100.7167630">
        <ele>2188.8</ele>
        <time>2022-08-20T15:51:10Z</time>
      </trkpt>
      <trkpt lat="25.5034270" lon="-100.7167890">
        <ele>2188.9</ele>
        <time>2022-08-20T15:51:11Z</time>
      </trkpt>
      <trkpt lat="25.5034340" lon="-100.7167980">
        <ele>2189.0</ele>
        <time>2022-08-20T15:51:12Z</time>
      </trkpt>
      <trkpt lat="25.5034530" lon="-100.7168270">
        <ele>2189.1</ele>
        <time>2022-08-20T15:51:13Z</time>
      </trkpt>
      <trkpt lat="25.5034610" lon="-100.7168400">
        <ele>2189.2</ele>
        <time>2022-08-20T15:51:14Z</time>
      </trkpt>
      <trkpt lat="25.5034800" lon="-100.7168700">
        <ele>2189.4</ele>
        <time>2022-08-20T15:51:16Z</time>
      </trkpt>
      <trkpt lat="25.5034850" lon="-100.7168770">
        <ele>2189.4</ele>
        <time>2022-08-20T15:51:17Z</time>
      </trkpt>
      <trkpt lat="25.5035110" lon="-100.7169030">
        <ele>2189.6</ele>
        <time>2022-08-20T15:51:18Z</time>
      </trkpt>
      <trkpt lat="25.5035210" lon="-100.7169150">
        <ele>2189.7</ele>
        <time>2022-08-20T15:51:19Z</time>
      </trkpt>
      <trkpt lat="25.5035300" lon="-100.7169380">
        <ele>2189.8</ele>
        <time>2022-08-20T15:51:20Z</time>
      </trkpt>
      <trkpt lat="25.5035430" lon="-100.7169570">
        <ele>2190.0</ele>
        <time>2022-08-20T15:51:22Z</time>
      </trkpt>
      <trkpt lat="25.5035550" lon="-100.7169680">
        <ele>2190.0</ele>
        <time>2022-08-20T15:51:23Z</time>
      </trkpt>
      <trkpt lat="25.5035660" lon="-100.7169820">
        <ele>2190.1</ele>
        <time>2022-08-20T15:51:24Z</time>
      </trkpt>
      <trkpt lat="25.5035840" lon="-100.7170000">
        <ele>2190.3</ele>
        <time>2022-08-20T15:51:26Z</time>
      </trkpt>
      <trkpt lat="25.5035890" lon="-100.7170090">
        <ele>2190.3</ele>
        <time>2022-08-20T15:51:27Z</time>
      </trkpt>
      <trkpt lat="25.5035980" lon="-100.7170290">
        <ele>2190.4</ele>
        <time>2022-08-20T15:51:28Z</time>
      </trkpt>
      <trkpt lat="25.5036050" lon="-100.7170450">
        <ele>2190.5</ele>
        <time>2022-08-20T15:51:29Z</time>
      </trkpt>
      <trkpt lat="25.5036150" lon="-100.7170590">
        <ele>2190.6</ele>
        <time>2022-08-20T15:51:30Z</time>
      </trkpt>
      <trkpt lat="25.5036260" lon="-100.7170770">
        <ele>2190.7</ele>
        <time>2022-08-20T15:51:31Z</time>
      </trkpt>
      <trkpt lat="25.5036370" lon="-100.7170940">
        <ele>2190.8</ele>
        <time>2022-08-20T15:51:32Z</time>
      </trkpt>
      <trkpt lat="25.5036560" lon="-100.7171300">
        <ele>2191.0</ele>
        <time>2022-08-20T15:51:34Z</time>
      </trkpt>
      <trkpt lat="25.5036620" lon="-100.7171480">
        <ele>2191.1</ele>
        <time>2022-08-20T15:51:36Z</time>
      </trkpt>
      <trkpt lat="25.5036730" lon="-100.7171710">
        <ele>2191.2</ele>
        <time>2022-08-20T15:51:38Z</time>
      </trkpt>
      <trkpt lat="25.5036780" lon="-100.7171820">
        <ele>2191.3</ele>
        <time>2022-08-20T15:51:39Z</time>
      </trkpt>
      <trkpt lat="25.5036980" lon="-100.7172080">
        <ele>2191.4</ele>
        <time>2022-08-20T15:51:40Z</time>
      </trkpt>
      <trkpt lat="25.5037030" lon="-100.7172180">
        <ele>2191.5</ele>
        <time>2022-08-20T15:51:41Z</time>
      </trkpt>
      <trkpt lat="25.5037250" lon="-100.7172600">
        <ele>2191.7</ele>
        <time>2022-08-20T15:51:43Z</time>
      </trkpt>
      <trkpt lat="25.5037320" lon="-100.7172730">
        <ele>2191.8</ele>
        <time>2022-08-20T15:51:45Z</time>
      </trkpt>
      <trkpt lat="25.5037400" lon="-100.7172870">
        <ele>2191.8</ele>
        <time>2022-08-20T15:51:46Z</time>
      </trkpt>
      <trkpt lat="25.5037600" lon="-100.7173190">
        <ele>2192.0</ele>
        <time>2022-08-20T15:51:47Z</time>
      </trkpt>
      <trkpt lat="25.5037820" lon="-100.7173400">
        <ele>2192.2</ele>
        <time>2022-08-20T15:51:48Z</time>
      </trkpt>
      <trkpt lat="25.5038050" lon="-100.7173670">
        <ele>2192.3</ele>
        <time>2022-08-20T15:51:50Z</time>
      </trkpt>
      <trkpt lat="25.5038130" lon="-100.7173740">
        <ele>2192.4</ele>
        <time>2022-08-20T15:51:51Z</time>
      </trkpt>
      <trkpt lat="25.5038240" lon="-100.7173880">
        <ele>2192.5</ele>
        <time>2022-08-20T15:51:52Z</time>
      </trkpt>
      <trkpt lat="25.5038320" lon="-100.7174000">
        <ele>2192.5</ele>
        <time>2022-08-20T15:51:53Z</time>
      </trkpt>
      <trkpt lat="25.5038440" lon="-100.7174150">
        <ele>2192.6</ele>
        <time>2022-08-20T15:51:54Z</time>
      </trkpt>
      <trkpt lat="25.5038510" lon="-100.7174280">
        <ele>2192.7</ele>
        <time>2022-08-20T15:51:56Z</time>
      </trkpt>
      <trkpt lat="25.5038590" lon="-100.7174390">
        <ele>2192.7</ele>
        <time>2022-08-20T15:51:57Z</time>
      </trkpt>
      <trkpt lat="25.5038670" lon="-100.7174530">
        <ele>2192.8</ele>
        <time>2022-08-20T15:51:58Z</time>
      </trkpt>
      <trkpt lat="25.5038840" lon="-100.7174770">
        <ele>2192.9</ele>
        <time>2022-08-20T15:51:59Z</time>
      </trkpt>
      <trkpt lat="25.5038920" lon="-100.7174880">
        <ele>2193.0</ele>
        <time>2022-08-20T15:52:00Z</time>
      </trkpt>
      <trkpt lat="25.5039110" lon="-100.7175120">
        <ele>2193.1</ele>
        <time>2022-08-20T15:52:01Z</time>
      </trkpt>
      <trkpt lat="25.5039330" lon="-100.7175330">
        <ele>2193.3</ele>
        <time>2022-08-20T15:52:02Z</time>
      </trkpt>
      <trkpt lat="25.5039680" lon="-100.7175730">
        <ele>2193.5</ele>
        <time>2022-08-20T15:52:03Z</time>
      </trkpt>
      <trkpt lat="25.5039890" lon="-100.7175960">
        <ele>2193.6</ele>
        <time>2022-08-20T15:52:05Z</time>
      </trkpt>
      <trkpt lat="25.5040140" lon="-100.7176170">
        <ele>2193.8</ele>
        <time>2022-08-20T15:52:06Z</time>
      </trkpt>
      <trkpt lat="25.5040380" lon="-100.7176410">
        <ele>2194.0</ele>
        <time>2022-08-20T15:52:07Z</time>
      </trkpt>
      <trkpt lat="25.5040610" lon="-100.7176680">
        <ele>2194.1</ele>
        <time>2022-08-20T15:52:08Z</time>
      </trkpt>
      <trkpt lat="25.5040780" lon="-100.7176950">
        <ele>2194.3</ele>
        <time>2022-08-20T15:52:09Z</time>
      </trkpt>
      <trkpt lat="25.5040940" lon="-100.7177220">
        <ele>2194.5</ele>
        <time>2022-08-20T15:52:10Z</time>
      </trkpt>
      <trkpt lat="25.5041130" lon="-100.7177480">
        <ele>2194.6</ele>
        <time>2022-08-20T15:52:11Z</time>
      </trkpt>
      <trkpt lat="25.5041330" lon="-100.7177710">
        <ele>2194.8</ele>
        <time>2022-08-20T15:52:12Z</time>
      </trkpt>
      <trkpt lat="25.5041660" lon="-100.7177950">
        <ele>2195.0</ele>
        <time>2022-08-20T15:52:13Z</time>
      </trkpt>
      <trkpt lat="25.5041770" lon="-100.7178030">
        <ele>2195.1</ele>
        <time>2022-08-20T15:52:14Z</time>
      </trkpt>
      <trkpt lat="25.5041900" lon="-100.7178150">
        <ele>2195.2</ele>
        <time>2022-08-20T15:52:15Z</time>
      </trkpt>
      <trkpt lat="25.5042010" lon="-100.7178270">
        <ele>2195.3</ele>
        <time>2022-08-20T15:52:16Z</time>
      </trkpt>
      <trkpt lat="25.5042260" lon="-100.7178500">
        <ele>2195.5</ele>
        <time>2022-08-20T15:52:18Z</time>
      </trkpt>
      <trkpt lat="25.5042340" lon="-100.7178600">
        <ele>2195.5</ele>
        <time>2022-08-20T15:52:19Z</time>
      </trkpt>
      <trkpt lat="25.5042530" lon="-100.7178820">
        <ele>2195.7</ele>
        <time>2022-08-20T15:52:20Z</time>
      </trkpt>
      <trkpt lat="25.5042750" lon="-100.7179050">
        <ele>2195.8</ele>
        <time>2022-08-20T15:52:21Z</time>
      </trkpt>
      <trkpt lat="25.5043000" lon="-100.7179310">
        <ele>2196.0</ele>
        <time>2022-08-20T15:52:22Z</time>
      </trkpt>
      <trkpt lat="25.5043250" lon="-100.7179570">
        <ele>2196.3</ele>
        <time>2022-08-20T15:52:23Z</time>
      </trkpt>
      <trkpt lat="25.5043540" lon="-100.7179820">
        <ele>2196.5</ele>
        <time>2022-08-20T15:52:25Z</time>
      </trkpt>
      <trkpt lat="25.5043810" lon="-100.7180060">
        <ele>2196.7</ele>
        <time>2022-08-20T15:52:26Z</time>
      </trkpt>
      <trkpt lat="25.5044090" lon="-100.7180290">
        <ele>2196.9</ele>
        <time>2022-08-20T15:52:27Z</time>
      </trkpt>
      <trkpt lat="25.5044300" lon="-100.7180410">
        <ele>2197.1</ele>
        <time>2022-08-20T15:52:28Z</time>
      </trkpt>
      <trkpt lat="25.5044570" lon="-100.7180550">
        <ele>2197.3</ele>
        <time>2022-08-20T15:52:30Z</time>
      </trkpt>
      <trkpt lat="25.5044840" lon="-100.7180670">
        <ele>2197.5</ele>
        <time>2022-08-20T15:52:31Z</time>
      </trkpt>
      <trkpt lat="25.5045100" lon="-100.7180850">
        <ele>2197.7</ele>
        <time>2022-08-20T15:52:32Z</time>
      </trkpt>
      <trkpt lat="25.5045320" lon="-100.7181050">
        <ele>2197.8</ele>
        <time>2022-08-20T15:52:33Z</time>
      </trkpt>
      <trkpt lat="25.5045670" lon="-100.7181400">
        <ele>2198.2</ele>
        <time>2022-08-20T15:52:34Z</time>
      </trkpt>
      <trkpt lat="25.5045840" lon="-100.7181660">
        <ele>2198.4</ele>
        <time>2022-08-20T15:52:35Z</time>
      </trkpt>
      <trkpt lat="25.5046120" lon="-100.7182020">
        <ele>2198.6</ele>
        <time>2022-08-20T15:52:37Z</time>
      </trkpt>
      <trkpt lat="25.5046390" lon="-100.7182300">
        <ele>2198.9</ele>
        <time>2022-08-20T15:52:38Z</time>
      </trkpt>
      <trkpt lat="25.5046620" lon="-100.7182570">
        <ele>2199.1</ele>
        <time>2022-08-20T15:52:39Z</time>
      </trkpt>
      <trkpt lat="25.5046680" lon="-100.7182650">
        <ele>2199.2</ele>
        <time>2022-08-20T15:52:40Z</time>
      </trkpt>
      <trkpt lat="25.5046860" lon="-100.7182960">
        <ele>2199.4</ele>
        <time>2022-08-20T15:52:42Z</time>
      </trkpt>
      <trkpt lat="25.5046910" lon="-100.7183060">
        <ele>2199.5</ele>
        <time>2022-08-20T15:52:43Z</time>
      </trkpt>
      <trkpt lat="25.5047030" lon="-100.7183370">
        <ele>2199.7</ele>
        <time>2022-08-20T15:52:44Z</time>
      </trkpt>
      <trkpt lat="25.5047190" lon="-100.7183730">
        <ele>2200.0</ele>
        <time>2022-08-20T15:52:45Z</time>
      </trkpt>
      <trkpt lat="25.5047250" lon="-100.7183850">
        <ele>2200.1</ele>
        <time>2022-08-20T15:52:46Z</time>
      </trkpt>
      <trkpt lat="25.5047450" lon="-100.7184190">
        <ele>2200.3</ele>
        <time>2022-08-20T15:52:47Z</time>
      </trkpt>
      <trkpt lat="25.5047520" lon="-100.7184310">
        <ele>2200.4</ele>
        <time>2022-08-20T15:52:48Z</time>
      </trkpt>
      <trkpt lat="25.5047670" lon="-100.7184580">
        <ele>2200.6</ele>
        <time>2022-08-20T15:52:50Z</time>
      </trkpt>
      <trkpt lat="25.5047840" lon="-100.7184920">
        <ele>2200.9</ele>
        <time>2022-08-20T15:52:51Z</time>
      </trkpt>
      <trkpt lat="25.5047990" lon="-100.7185210">
        <ele>2201.1</ele>
        <time>2022-08-20T15:52:52Z</time>
      </trkpt>
      <trkpt lat="25.5048160" lon="-100.7185480">
        <ele>2201.3</ele>
        <time>2022-08-20T15:52:53Z</time>
      </trkpt>
      <trkpt lat="25.5048380" lon="-100.7185850">
        <ele>2201.6</ele>
        <time>2022-08-20T15:52:54Z</time>
      </trkpt>
      <trkpt lat="25.5048450" lon="-100.7185980">
        <ele>2201.8</ele>
        <time>2022-08-20T15:52:55Z</time>
      </trkpt>
      <trkpt lat="25.5048660" lon="-100.7186280">
        <ele>2202.0</ele>
        <time>2022-08-20T15:52:56Z</time>
      </trkpt>
      <trkpt lat="25.5048880" lon="-100.7186630">
        <ele>2202.3</ele>
        <time>2022-08-20T15:52:57Z</time>
      </trkpt>
      <trkpt lat="25.5049100" lon="-100.7187000">
        <ele>2202.6</ele>
        <time>2022-08-20T15:52:59Z</time>
      </trkpt>
      <trkpt lat="25.5049260" lon="-100.7187330">
        <ele>2202.9</ele>
        <time>2022-08-20T15:53:00Z</time>
      </trkpt>
      <trkpt lat="25.5049390" lon="-100.7187640">
        <ele>2203.2</ele>
        <time>2022-08-20T15:53:01Z</time>
      </trkpt>
      <trkpt lat="25.5049600" lon="-100.7188020">
        <ele>2203.5</ele>
        <time>2022-08-20T15:53:02Z</time>
      </trkpt>
      <trkpt lat="25.5049840" lon="-100.7188310">
        <ele>2203.9</ele>
        <time>2022-08-20T15:53:03Z</time>
      </trkpt>
      <trkpt lat="25.5050130" lon="-100.7188690">
        <ele>2204.3</ele>
        <time>2022-08-20T15:53:05Z</time>
      </trkpt>
      <trkpt lat="25.5050370" lon="-100.7188950">
        <ele>2204.6</ele>
        <time>2022-08-20T15:53:06Z</time>
      </trkpt>
      <trkpt lat="25.5050580" lon="-100.7189250">
        <ele>2204.9</ele>
        <time>2022-08-20T15:53:07Z</time>
      </trkpt>
      <trkpt lat="25.5050640" lon="-100.7189350">
        <ele>2205.0</ele>
        <time>2022-08-20T15:53:08Z</time>
      </trkpt>
      <trkpt lat="25.5050800" lon="-100.7189650">
        <ele>2205.3</ele>
        <time>2022-08-20T15:53:10Z</time>
      </trkpt>
      <trkpt lat="25.5050840" lon="-100.7189750">
        <ele>2205.3</ele>
        <time>2022-08-20T15:53:11Z</time>
      </trkpt>
      <trkpt lat="25.5050930" lon="-100.7190190">
        <ele>2205.7</ele>
        <time>2022-08-20T15:53:12Z</time>
      </trkpt>
      <trkpt lat="25.5050970" lon="-100.7190360">
        <ele>2205.8</ele>
        <time>2022-08-20T15:53:13Z</time>
      </trkpt>
      <trkpt lat="25.5051060" lon="-100.7190570">
        <ele>2206.0</ele>
        <time>2022-08-20T15:53:14Z</time>
      </trkpt>
      <trkpt lat="25.5051300" lon="-100.7190890">
        <ele>2206.4</ele>
        <time>2022-08-20T15:53:16Z</time>
      </trkpt>
      <trkpt lat="25.5051550" lon="-100.7191200">
        <ele>2206.7</ele>
        <time>2022-08-20T15:53:17Z</time>
      </trkpt>
      <trkpt lat="25.5051610" lon="-100.7191310">
        <ele>2206.8</ele>
        <time>2022-08-20T15:53:18Z</time>
      </trkpt>
      <trkpt lat="25.5051730" lon="-100.7191610">
        <ele>2207.0</ele>
        <time>2022-08-20T15:53:19Z</time>
      </trkpt>
      <trkpt lat="25.5051760" lon="-100.7191700">
        <ele>2207.1</ele>
        <time>2022-08-20T15:53:20Z</time>
      </trkpt>
      <trkpt lat="25.5051830" lon="-100.7192110">
        <ele>2207.4</ele>
        <time>2022-08-20T15:53:22Z</time>
      </trkpt>
      <trkpt lat="25.5051850" lon="-100.7192280">
        <ele>2207.5</ele>
        <time>2022-08-20T15:53:23Z</time>
      </trkpt>
      <trkpt lat="25.5051940" lon="-100.7192710">
        <ele>2207.8</ele>
        <time>2022-08-20T15:53:24Z</time>
      </trkpt>
      <trkpt lat="25.5051990" lon="-100.7192860">
        <ele>2207.9</ele>
        <time>2022-08-20T15:53:25Z</time>
      </trkpt>
      <trkpt lat="25.5052080" lon="-100.7193220">
        <ele>2208.1</ele>
        <time>2022-08-20T15:53:27Z</time>
      </trkpt>
      <trkpt lat="25.5052140" lon="-100.7193590">
        <ele>2208.3</ele>
        <time>2022-08-20T15:53:28Z</time>
      </trkpt>
      <trkpt lat="25.5052220" lon="-100.7193970">
        <ele>2208.6</ele>
        <time>2022-08-20T15:53:29Z</time>
      </trkpt>
      <trkpt lat="25.5052260" lon="-100.7194100">
        <ele>2208.6</ele>
        <time>2022-08-20T15:53:30Z</time>
      </trkpt>
      <trkpt lat="25.5052310" lon="-100.7194510">
        <ele>2208.9</ele>
        <time>2022-08-20T15:53:31Z</time>
      </trkpt>
      <trkpt lat="25.5052320" lon="-100.7194650">
        <ele>2208.9</ele>
        <time>2022-08-20T15:53:32Z</time>
      </trkpt>
      <trkpt lat="25.5052350" lon="-100.7194960">
        <ele>2209.1</ele>
        <time>2022-08-20T15:53:34Z</time>
      </trkpt>
      <trkpt lat="25.5052420" lon="-100.7195270">
        <ele>2209.3</ele>
        <time>2022-08-20T15:53:35Z</time>
      </trkpt>
      <trkpt lat="25.5052500" lon="-100.7195750">
        <ele>2209.5</ele>
        <time>2022-08-20T15:53:36Z</time>
      </trkpt>
      <trkpt lat="25.5052530" lon="-100.7195970">
        <ele>2209.6</ele>
        <time>2022-08-20T15:53:37Z</time>
      </trkpt>
      <trkpt lat="25.5052570" lon="-100.7196330">
        <ele>2209.8</ele>
        <time>2022-08-20T15:53:38Z</time>
      </trkpt>
      <trkpt lat="25.5052720" lon="-100.7196620">
        <ele>2210.0</ele>
        <time>2022-08-20T15:53:40Z</time>
      </trkpt>
      <trkpt lat="25.5052840" lon="-100.7196940">
        <ele>2210.2</ele>
        <time>2022-08-20T15:53:41Z</time>
      </trkpt>
      <trkpt lat="25.5053020" lon="-100.7197300">
        <ele>2210.4</ele>
        <time>2022-08-20T15:53:43Z</time>
      </trkpt>
      <trkpt lat="25.5053230" lon="-100.7197650">
        <ele>2210.6</ele>
        <time>2022-08-20T15:53:44Z</time>
      </trkpt>
      <trkpt lat="25.5053290" lon="-100.7197750">
        <ele>2210.6</ele>
        <time>2022-08-20T15:53:45Z</time>
      </trkpt>
      <trkpt lat="25.5053570" lon="-100.7198170">
        <ele>2210.9</ele>
        <time>2022-08-20T15:53:46Z</time>
      </trkpt>
      <trkpt lat="25.5053800" lon="-100.7198590">
        <ele>2211.2</ele>
        <time>2022-08-20T15:53:47Z</time>
      </trkpt>
      <trkpt lat="25.5054050" lon="-100.7198950">
        <ele>2211.4</ele>
        <time>2022-08-20T15:53:49Z</time>
      </trkpt>
      <trkpt lat="25.5054240" lon="-100.7199180">
        <ele>2211.6</ele>
        <time>2022-08-20T15:53:50Z</time>
      </trkpt>
      <trkpt lat="25.5054550" lon="-100.7199560">
        <ele>2211.9</ele>
        <time>2022-08-20T15:53:51Z</time>
      </trkpt>
      <trkpt lat="25.5054740" lon="-100.7199810">
        <ele>2212.0</ele>
        <time>2022-08-20T15:53:53Z</time>
      </trkpt>
      <trkpt lat="25.5055010" lon="-100.7200090">
        <ele>2212.1</ele>
        <time>2022-08-20T15:53:54Z</time>
      </trkpt>
      <trkpt lat="25.5055300" lon="-100.7200370">
        <ele>2212.3</ele>
        <time>2022-08-20T15:53:55Z</time>
      </trkpt>
      <trkpt lat="25.5055390" lon="-100.7200460">
        <ele>2212.3</ele>
        <time>2022-08-20T15:53:56Z</time>
      </trkpt>
      <trkpt lat="25.5055670" lon="-100.7200670">
        <ele>2212.4</ele>
        <time>2022-08-20T15:53:57Z</time>
      </trkpt>
      <trkpt lat="25.5055950" lon="-100.7200900">
        <ele>2212.6</ele>
        <time>2022-08-20T15:53:58Z</time>
      </trkpt>
      <trkpt lat="25.5056050" lon="-100.7200990">
        <ele>2212.6</ele>
        <time>2022-08-20T15:53:59Z</time>
      </trkpt>
      <trkpt lat="25.5056330" lon="-100.7201260">
        <ele>2212.8</ele>
        <time>2022-08-20T15:54:01Z</time>
      </trkpt>
      <trkpt lat="25.5056620" lon="-100.7201540">
        <ele>2212.9</ele>
        <time>2022-08-20T15:54:02Z</time>
      </trkpt>
      <trkpt lat="25.5056720" lon="-100.7201640">
        <ele>2212.9</ele>
        <time>2022-08-20T15:54:03Z</time>
      </trkpt>
      <trkpt lat="25.5056940" lon="-100.7201930">
        <ele>2213.1</ele>
        <time>2022-08-20T15:54:04Z</time>
      </trkpt>
      <trkpt lat="25.5057010" lon="-100.7202010">
        <ele>2213.1</ele>
        <time>2022-08-20T15:54:05Z</time>
      </trkpt>
      <trkpt lat="25.5057250" lon="-100.7202290">
        <ele>2213.2</ele>
        <time>2022-08-20T15:54:06Z</time>
      </trkpt>
      <trkpt lat="25.5057330" lon="-100.7202380">
        <ele>2213.3</ele>
        <time>2022-08-20T15:54:07Z</time>
      </trkpt>
      <trkpt lat="25.5057590" lon="-100.7202660">
        <ele>2213.4</ele>
        <time>2022-08-20T15:54:08Z</time>
      </trkpt>
      <trkpt lat="25.5057670" lon="-100.7202780">
        <ele>2213.5</ele>
        <time>2022-08-20T15:54:09Z</time>
      </trkpt>
      <trkpt lat="25.5057950" lon="-100.7203120">
        <ele>2213.6</ele>
        <time>2022-08-20T15:54:10Z</time>
      </trkpt>
      <trkpt lat="25.5058090" lon="-100.7203240">
        <ele>2213.7</ele>
        <time>2022-08-20T15:54:11Z</time>
      </trkpt>
      <trkpt lat="25.5058230" lon="-100.7203400">
        <ele>2213.8</ele>
        <time>2022-08-20T15:54:12Z</time>
      </trkpt>
      <trkpt lat="25.5058420" lon="-100.7203630">
        <ele>2213.9</ele>
        <time>2022-08-20T15:54:14Z</time>
      </trkpt>
      <trkpt lat="25.5058610" lon="-100.7203870">
        <ele>2213.9</ele>
        <time>2022-08-20T15:54:15Z</time>
      </trkpt>
      <trkpt lat="25.5058840" lon="-100.7204160">
        <ele>2214.0</ele>
        <time>2022-08-20T15:54:16Z</time>
      </trkpt>
      <trkpt lat="25.5059190" lon="-100.7204500">
        <ele>2214.2</ele>
        <time>2022-08-20T15:54:17Z</time>
      </trkpt>
      <trkpt lat="25.5059410" lon="-100.7204770">
        <ele>2214.2</ele>
        <time>2022-08-20T15:54:18Z</time>
      </trkpt>
      <trkpt lat="25.5059650" lon="-100.7205060">
        <ele>2214.3</ele>
        <time>2022-08-20T15:54:19Z</time>
      </trkpt>
      <trkpt lat="25.5059920" lon="-100.7205360">
        <ele>2214.3</ele>
        <time>2022-08-20T15:54:20Z</time>
      </trkpt>
      <trkpt lat="25.5060120" lon="-100.7205590">
        <ele>2214.4</ele>
        <time>2022-08-20T15:54:21Z</time>
      </trkpt>
      <trkpt lat="25.5060330" lon="-100.7205840">
        <ele>2214.4</ele>
        <time>2022-08-20T15:54:22Z</time>
      </trkpt>
      <trkpt lat="25.5060600" lon="-100.7206130">
        <ele>2214.4</ele>
        <time>2022-08-20T15:54:24Z</time>
      </trkpt>
      <trkpt lat="25.5060830" lon="-100.7206370">
        <ele>2214.4</ele>
        <time>2022-08-20T15:54:25Z</time>
      </trkpt>
      <trkpt lat="25.5061080" lon="-100.7206630">
        <ele>2214.4</ele>
        <time>2022-08-20T15:54:26Z</time>
      </trkpt>
      <trkpt lat="25.5061300" lon="-100.7206850">
        <ele>2214.4</ele>
        <time>2022-08-20T15:54:27Z</time>
      </trkpt>
      <trkpt lat="25.5061750" lon="-100.7207290">
        <ele>2214.3</ele>
        <time>2022-08-20T15:54:28Z</time>
      </trkpt>
      <trkpt lat="25.5062250" lon="-100.7207690">
        <ele>2214.3</ele>
        <time>2022-08-20T15:54:29Z</time>
      </trkpt>
      <trkpt lat="25.5062840" lon="-100.7208270">
        <ele>2214.1</ele>
        <time>2022-08-20T15:54:30Z</time>
      </trkpt>
      <trkpt lat="25.5063140" lon="-100.7208740">
        <ele>2214.0</ele>
        <time>2022-08-20T15:54:32Z</time>
      </trkpt>
      <trkpt lat="25.5063430" lon="-100.7209140">
        <ele>2213.9</ele>
        <time>2022-08-20T15:54:33Z</time>
      </trkpt>
      <trkpt lat="25.5063850" lon="-100.7209570">
        <ele>2213.8</ele>
        <time>2022-08-20T15:54:34Z</time>
      </trkpt>
      <trkpt lat="25.5064410" lon="-100.7210190">
        <ele>2213.6</ele>
        <time>2022-08-20T15:54:36Z</time>
      </trkpt>
      <trkpt lat="25.5064850" lon="-100.7210670">
        <ele>2213.5</ele>
        <time>2022-08-20T15:54:37Z</time>
      </trkpt>
      <trkpt lat="25.5065240" lon="-100.7211080">
        <ele>2213.5</ele>
        <time>2022-08-20T15:54:38Z</time>
      </trkpt>
      <trkpt lat="25.5065700" lon="-100.7211690">
        <ele>2213.4</ele>
        <time>2022-08-20T15:54:39Z</time>
      </trkpt>
      <trkpt lat="25.5066060" lon="-100.7212090">
        <ele>2213.4</ele>
        <time>2022-08-20T15:54:41Z</time>
      </trkpt>
      <trkpt lat="25.5066380" lon="-100.7212460">
        <ele>2213.4</ele>
        <time>2022-08-20T15:54:42Z</time>
      </trkpt>
      <trkpt lat="25.5066820" lon="-100.7213030">
        <ele>2213.4</ele>
        <time>2022-08-20T15:54:44Z</time>
      </trkpt>
      <trkpt lat="25.5067070" lon="-100.7213320">
        <ele>2213.4</ele>
        <time>2022-08-20T15:54:45Z</time>
      </trkpt>
      <trkpt lat="25.5067270" lon="-100.7213590">
        <ele>2213.4</ele>
        <time>2022-08-20T15:54:46Z</time>
      </trkpt>
      <trkpt lat="25.5067600" lon="-100.7214190">
        <ele>2213.5</ele>
        <time>2022-08-20T15:54:47Z</time>
      </trkpt>
      <trkpt lat="25.5067920" lon="-100.7214730">
        <ele>2213.6</ele>
        <time>2022-08-20T15:54:49Z</time>
      </trkpt>
      <trkpt lat="25.5068030" lon="-100.7215010">
        <ele>2213.6</ele>
        <time>2022-08-20T15:54:50Z</time>
      </trkpt>
      <trkpt lat="25.5068170" lon="-100.7215160">
        <ele>2213.6</ele>
        <time>2022-08-20T15:54:51Z</time>
      </trkpt>
      <trkpt lat="25.5068260" lon="-100.7215300">
        <ele>2213.7</ele>
        <time>2022-08-20T15:54:52Z</time>
      </trkpt>
      <trkpt lat="25.5068290" lon="-100.7215370">
        <ele>2213.7</ele>
        <time>2022-08-20T15:54:53Z</time>
      </trkpt>
      <trkpt lat="25.5068450" lon="-100.7215730">
        <ele>2213.8</ele>
        <time>2022-08-20T15:54:55Z</time>
      </trkpt>
      <trkpt lat="25.5068650" lon="-100.7216170">
        <ele>2213.9</ele>
        <time>2022-08-20T15:54:56Z</time>
      </trkpt>
      <trkpt lat="25.5069280" lon="-100.7217280">
        <ele>2214.2</ele>
        <time>2022-08-20T15:54:57Z</time>
      </trkpt>
      <trkpt lat="25.5069640" lon="-100.7218010">
        <ele>2214.4</ele>
        <time>2022-08-20T15:54:59Z</time>
      </trkpt>
      <trkpt lat="25.5069950" lon="-100.7218630">
        <ele>2214.6</ele>
        <time>2022-08-20T15:55:00Z</time>
      </trkpt>
      <trkpt lat="25.5070160" lon="-100.7219090">
        <ele>2214.8</ele>
        <time>2022-08-20T15:55:01Z</time>
      </trkpt>
      <trkpt lat="25.5070370" lon="-100.7219510">
        <ele>2215.0</ele>
        <time>2022-08-20T15:55:02Z</time>
      </trkpt>
      <trkpt lat="25.5070580" lon="-100.7219950">
        <ele>2215.1</ele>
        <time>2022-08-20T15:55:03Z</time>
      </trkpt>
      <trkpt lat="25.5070790" lon="-100.7220380">
        <ele>2215.3</ele>
        <time>2022-08-20T15:55:04Z</time>
      </trkpt>
      <trkpt lat="25.5071020" lon="-100.7220780">
        <ele>2215.5</ele>
        <time>2022-08-20T15:55:05Z</time>
      </trkpt>
      <trkpt lat="25.5071260" lon="-100.7221190">
        <ele>2215.6</ele>
        <time>2022-08-20T15:55:06Z</time>
      </trkpt>
      <trkpt lat="25.5071520" lon="-100.7221600">
        <ele>2215.8</ele>
        <time>2022-08-20T15:55:07Z</time>
      </trkpt>
      <trkpt lat="25.5071730" lon="-100.7221970">
        <ele>2215.9</ele>
        <time>2022-08-20T15:55:08Z</time>
      </trkpt>
      <trkpt lat="25.5071970" lon="-100.7222370">
        <ele>2216.1</ele>
        <time>2022-08-20T15:55:09Z</time>
      </trkpt>
      <trkpt lat="25.5072180" lon="-100.7222710">
        <ele>2216.2</ele>
        <time>2022-08-20T15:55:10Z</time>
      </trkpt>
      <trkpt lat="25.5072410" lon="-100.7223190">
        <ele>2216.4</ele>
        <time>2022-08-20T15:55:11Z</time>
      </trkpt>
      <trkpt lat="25.5072710" lon="-100.7223760">
        <ele>2216.6</ele>
        <time>2022-08-20T15:55:13Z</time>
      </trkpt>
      <trkpt lat="25.5072880" lon="-100.7224100">
        <ele>2216.7</ele>
        <time>2022-08-20T15:55:14Z</time>
      </trkpt>
      <trkpt lat="25.5073060" lon="-100.7224440">
        <ele>2216.9</ele>
        <time>2022-08-20T15:55:15Z</time>
      </trkpt>
      <trkpt lat="25.5073130" lon="-100.7224650">
        <ele>2217.0</ele>
        <time>2022-08-20T15:55:16Z</time>
      </trkpt>
      <trkpt lat="25.5073160" lon="-100.7224720">
        <ele>2217.0</ele>
        <time>2022-08-20T15:55:17Z</time>
      </trkpt>
      <trkpt lat="25.5073210" lon="-100.7224820">
        <ele>2217.0</ele>
        <time>2022-08-20T15:55:18Z</time>
      </trkpt>
      <trkpt lat="25.5073270" lon="-100.7225020">
        <ele>2217.1</ele>
        <time>2022-08-20T15:55:19Z</time>
      </trkpt>
      <trkpt lat="25.5073440" lon="-100.7225480">
        <ele>2217.4</ele>
        <time>2022-08-20T15:55:21Z</time>
      </trkpt>
      <trkpt lat="25.5073610" lon="-100.7226010">
        <ele>2217.6</ele>
        <time>2022-08-20T15:55:22Z</time>
      </trkpt>
      <trkpt lat="25.5073690" lon="-100.7226270">
        <ele>2217.7</ele>
        <time>2022-08-20T15:55:23Z</time>
      </trkpt>
      <trkpt lat="25.5073790" lon="-100.7226560">
        <ele>2217.9</ele>
        <time>2022-08-20T15:55:24Z</time>
      </trkpt>
      <trkpt lat="25.5073940" lon="-100.7226850">
        <ele>2218.1</ele>
        <time>2022-08-20T15:55:25Z</time>
      </trkpt>
      <trkpt lat="25.5074120" lon="-100.7227190">
        <ele>2218.3</ele>
        <time>2022-08-20T15:55:27Z</time>
      </trkpt>
      <trkpt lat="25.5074270" lon="-100.7227350">
        <ele>2218.4</ele>
        <time>2022-08-20T15:55:28Z</time>
      </trkpt>
      <trkpt lat="25.5074320" lon="-100.7227380">
        <ele>2218.4</ele>
        <time>2022-08-20T15:55:29Z</time>
      </trkpt>
      <trkpt lat="25.5074360" lon="-100.7227410">
        <ele>2218.5</ele>
        <time>2022-08-20T15:55:30Z</time>
      </trkpt>
      <trkpt lat="25.5074390" lon="-100.7227460">
        <ele>2218.5</ele>
        <time>2022-08-20T15:55:31Z</time>
      </trkpt>
      <trkpt lat="25.5074370" lon="-100.7227500">
        <ele>2218.5</ele>
        <time>2022-08-20T15:55:32Z</time>
      </trkpt>
      <trkpt lat="25.5074200" lon="-100.7227360">
        <ele>2218.6</ele>
        <time>2022-08-20T15:55:33Z</time>
      </trkpt>
      <trkpt lat="25.5074160" lon="-100.7227320">
        <ele>2218.7</ele>
        <time>2022-08-20T15:55:34Z</time>
      </trkpt>
      <trkpt lat="25.5074130" lon="-100.7227280">
        <ele>2218.7</ele>
        <time>2022-08-20T15:55:35Z</time>
      </trkpt>
      <trkpt lat="25.5074110" lon="-100.7227250">
        <ele>2218.7</ele>
        <time>2022-08-20T15:55:36Z</time>
      </trkpt>
      <trkpt lat="25.5074100" lon="-100.7227250">
        <ele>2218.7</ele>
        <time>2022-08-20T15:55:37Z</time>
      </trkpt>
      <trkpt lat="25.5074100" lon="-100.7227250">
        <ele>2218.7</ele>
        <time>2022-08-20T15:55:38Z</time>
      </trkpt>
      <trkpt lat="25.5074090" lon="-100.7227260">
        <ele>2218.7</ele>
        <time>2022-08-20T15:55:39Z</time>
      </trkpt>
      <trkpt lat="25.5074090" lon="-100.7227270">
        <ele>2218.7</ele>
        <time>2022-08-20T15:55:40Z</time>
      </trkpt>
      <trkpt lat="25.5074080" lon="-100.7227270">
        <ele>2218.7</ele>
        <time>2022-08-20T15:55:41Z</time>
      </trkpt>
      <trkpt lat="25.5074080" lon="-100.7227280">
        <ele>2218.7</ele>
        <time>2022-08-20T15:55:42Z</time>
      </trkpt>
      <trkpt lat="25.5074070" lon="-100.7227290">
        <ele>2218.8</ele>
        <time>2022-08-20T15:55:43Z</time>
      </trkpt>
      <trkpt lat="25.5074070" lon="-100.7227290">
        <ele>2218.8</ele>
        <time>2022-08-20T15:55:44Z</time>
      </trkpt>
      <trkpt lat="25.5074060" lon="-100.7227300">
        <ele>2218.8</ele>
        <time>2022-08-20T15:55:45Z</time>
      </trkpt>
      <trkpt lat="25.5074060" lon="-100.7227300">
        <ele>2218.8</ele>
        <time>2022-08-20T15:55:46Z</time>
      </trkpt>
      <trkpt lat="25.5074050" lon="-100.7227310">
        <ele>2218.8</ele>
        <time>2022-08-20T15:55:47Z</time>
      </trkpt>
      <trkpt lat="25.5074050" lon="-100.7227320">
        <ele>2218.8</ele>
        <time>2022-08-20T15:55:48Z</time>
      </trkpt>
      <trkpt lat="25.5074050" lon="-100.7227320">
        <ele>2218.8</ele>
        <time>2022-08-20T15:55:49Z</time>
      </trkpt>
      <trkpt lat="25.5074040" lon="-100.7227330">
        <ele>2218.8</ele>
        <time>2022-08-20T15:55:50Z</time>
      </trkpt>
      <trkpt lat="25.5074040" lon="-100.7227340">
        <ele>2218.8</ele>
        <time>2022-08-20T15:55:51Z</time>
      </trkpt>
      <trkpt lat="25.5074030" lon="-100.7227340">
        <ele>2218.8</ele>
        <time>2022-08-20T15:55:52Z</time>
      </trkpt>
      <trkpt lat="25.5074030" lon="-100.7227350">
        <ele>2218.8</ele>
        <time>2022-08-20T15:55:53Z</time>
      </trkpt>
      <trkpt lat="25.5074020" lon="-100.7227350">
        <ele>2218.8</ele>
        <time>2022-08-20T15:55:54Z</time>
      </trkpt>
      <trkpt lat="25.5074020" lon="-100.7227360">
        <ele>2218.8</ele>
        <time>2022-08-20T15:55:55Z</time>
      </trkpt>
      <trkpt lat="25.5074010" lon="-100.7227370">
        <ele>2218.8</ele>
        <time>2022-08-20T15:55:56Z</time>
      </trkpt>
      <trkpt lat="25.5074010" lon="-100.7227370">
        <ele>2218.8</ele>
        <time>2022-08-20T15:55:57Z</time>
      </trkpt>
      <trkpt lat="25.5074000" lon="-100.7227380">
        <ele>2218.8</ele>
        <time>2022-08-20T15:55:58Z</time>
      </trkpt>
      <trkpt lat="25.5074000" lon="-100.7227380">
        <ele>2218.8</ele>
        <time>2022-08-20T15:55:59Z</time>
      </trkpt>
      <trkpt lat="25.5073990" lon="-100.7227390">
        <ele>2218.8</ele>
        <time>2022-08-20T15:56:00Z</time>
      </trkpt>
      <trkpt lat="25.5073990" lon="-100.7227400">
        <ele>2218.8</ele>
        <time>2022-08-20T15:56:01Z</time>
      </trkpt>
      <trkpt lat="25.5073980" lon="-100.7227400">
        <ele>2218.8</ele>
        <time>2022-08-20T15:56:02Z</time>
      </trkpt>
      <trkpt lat="25.5073980" lon="-100.7227410">
        <ele>2218.9</ele>
        <time>2022-08-20T15:56:03Z</time>
      </trkpt>
      <trkpt lat="25.5073970" lon="-100.7227420">
        <ele>2218.9</ele>
        <time>2022-08-20T15:56:04Z</time>
      </trkpt>
      <trkpt lat="25.5073970" lon="-100.7227420">
        <ele>2218.9</ele>
        <time>2022-08-20T15:56:05Z</time>
      </trkpt>
      <trkpt lat="25.5073960" lon="-100.7227430">
        <ele>2218.9</ele>
        <time>2022-08-20T15:56:06Z</time>
      </trkpt>
      <trkpt lat="25.5073960" lon="-100.7227430">
        <ele>2218.9</ele>
        <time>2022-08-20T15:56:07Z</time>
      </trkpt>
      <trkpt lat="25.5073950" lon="-100.7227440">
        <ele>2218.9</ele>
        <time>2022-08-20T15:56:08Z</time>
      </trkpt>
      <trkpt lat="25.5073950" lon="-100.7227450">
        <ele>2218.9</ele>
        <time>2022-08-20T15:56:09Z</time>
      </trkpt>
      <trkpt lat="25.5073950" lon="-100.7227450">
        <ele>2218.9</ele>
        <time>2022-08-20T15:56:10Z</time>
      </trkpt>
      <trkpt lat="25.5073940" lon="-100.7227460">
        <ele>2218.9</ele>
        <time>2022-08-20T15:56:11Z</time>
      </trkpt>
      <trkpt lat="25.5073940" lon="-100.7227460">
        <ele>2218.9</ele>
        <time>2022-08-20T15:56:12Z</time>
      </trkpt>
      <trkpt lat="25.5073930" lon="-100.7227470">
        <ele>2218.9</ele>
        <time>2022-08-20T15:56:13Z</time>
      </trkpt>
      <trkpt lat="25.5073930" lon="-100.7227480">
        <ele>2218.9</ele>
        <time>2022-08-20T15:56:14Z</time>
      </trkpt>
      <trkpt lat="25.5073920" lon="-100.7227480">
        <ele>2218.9</ele>
        <time>2022-08-20T15:56:15Z</time>
      </trkpt>
      <trkpt lat="25.5073920" lon="-100.7227490">
        <ele>2218.9</ele>
        <time>2022-08-20T15:56:16Z</time>
      </trkpt>
      <trkpt lat="25.5073910" lon="-100.7227500">
        <ele>2218.9</ele>
        <time>2022-08-20T15:56:17Z</time>
      </trkpt>
      <trkpt lat="25.5073910" lon="-100.7227500">
        <ele>2218.9</ele>
        <time>2022-08-20T15:56:18Z</time>
      </trkpt>
      <trkpt lat="25.5073900" lon="-100.7227510">
        <ele>2218.9</ele>
        <time>2022-08-20T15:56:19Z</time>
      </trkpt>
      <trkpt lat="25.5073900" lon="-100.7227510">
        <ele>2218.9</ele>
        <time>2022-08-20T15:56:20Z</time>
      </trkpt>
      <trkpt lat="25.5073890" lon="-100.7227520">
        <ele>2218.9</ele>
        <time>2022-08-20T15:56:21Z</time>
      </trkpt>
      <trkpt lat="25.5073890" lon="-100.7227530">
        <ele>2218.9</ele>
        <time>2022-08-20T15:56:22Z</time>
      </trkpt>
      <trkpt lat="25.5073880" lon="-100.7227530">
        <ele>2219.0</ele>
        <time>2022-08-20T15:56:23Z</time>
      </trkpt>
      <trkpt lat="25.5073880" lon="-100.7227540">
        <ele>2219.0</ele>
        <time>2022-08-20T15:56:24Z</time>
      </trkpt>
      <trkpt lat="25.5073870" lon="-100.7227550">
        <ele>2219.0</ele>
        <time>2022-08-20T15:56:25Z</time>
      </trkpt>
      <trkpt lat="25.5073870" lon="-100.7227550">
        <ele>2219.0</ele>
        <time>2022-08-20T15:56:26Z</time>
      </trkpt>
      <trkpt lat="25.5073860" lon="-100.7227560">
        <ele>2219.0</ele>
        <time>2022-08-20T15:56:27Z</time>
      </trkpt>
      <trkpt lat="25.5073860" lon="-100.7227560">
        <ele>2219.0</ele>
        <time>2022-08-20T15:56:28Z</time>
      </trkpt>
      <trkpt lat="25.5073860" lon="-100.7227570">
        <ele>2219.0</ele>
        <time>2022-08-20T15:56:29Z</time>
      </trkpt>
      <trkpt lat="25.5073850" lon="-100.7227580">
        <ele>2219.0</ele>
        <time>2022-08-20T15:56:30Z</time>
      </trkpt>
      <trkpt lat="25.5073850" lon="-100.7227580">
        <ele>2219.0</ele>
        <time>2022-08-20T15:56:31Z</time>
      </trkpt>
      <trkpt lat="25.5073840" lon="-100.7227590">
        <ele>2219.0</ele>
        <time>2022-08-20T15:56:32Z</time>
      </trkpt>
      <trkpt lat="25.5073840" lon="-100.7227590">
        <ele>2219.0</ele>
        <time>2022-08-20T15:56:33Z</time>
      </trkpt>
      <trkpt lat="25.5073830" lon="-100.7227600">
        <ele>2219.0</ele>
        <time>2022-08-20T15:56:34Z</time>
      </trkpt>
      <trkpt lat="25.5073830" lon="-100.7227610">
        <ele>2219.0</ele>
        <time>2022-08-20T15:56:35Z</time>
      </trkpt>
      <trkpt lat="25.5073820" lon="-100.7227610">
        <ele>2219.0</ele>
        <time>2022-08-20T15:56:36Z</time>
      </trkpt>
      <trkpt lat="25.5073820" lon="-100.7227620">
        <ele>2219.0</ele>
        <time>2022-08-20T15:56:37Z</time>
      </trkpt>
      <trkpt lat="25.5073810" lon="-100.7227630">
        <ele>2219.0</ele>
        <time>2022-08-20T15:56:38Z</time>
      </trkpt>
      <trkpt lat="25.5073810" lon="-100.7227630">
        <ele>2219.0</ele>
        <time>2022-08-20T15:56:39Z</time>
      </trkpt>
      <trkpt lat="25.5073800" lon="-100.7227640">
        <ele>2219.0</ele>
        <time>2022-08-20T15:56:40Z</time>
      </trkpt>
      <trkpt lat="25.5073800" lon="-100.7227640">
        <ele>2219.0</ele>
        <time>2022-08-20T15:56:41Z</time>
      </trkpt>
      <trkpt lat="25.5073790" lon="-100.7227650">
        <ele>2219.0</ele>
        <time>2022-08-20T15:56:42Z</time>
      </trkpt>
      <trkpt lat="25.5073790" lon="-100.7227660">
        <ele>2219.0</ele>
        <time>2022-08-20T15:56:43Z</time>
      </trkpt>
      <trkpt lat="25.5073780" lon="-100.7227660">
        <ele>2219.1</ele>
        <time>2022-08-20T15:56:44Z</time>
      </trkpt>
      <trkpt lat="25.5073780" lon="-100.7227670">
        <ele>2219.1</ele>
        <time>2022-08-20T15:56:45Z</time>
      </trkpt>
      <trkpt lat="25.5073770" lon="-100.7227680">
        <ele>2219.1</ele>
        <time>2022-08-20T15:56:46Z</time>
      </trkpt>
      <trkpt lat="25.5073770" lon="-100.7227680">
        <ele>2219.1</ele>
        <time>2022-08-20T15:56:47Z</time>
      </trkpt>
      <trkpt lat="25.5073760" lon="-100.7227690">
        <ele>2219.1</ele>
        <time>2022-08-20T15:56:48Z</time>
      </trkpt>
      <trkpt lat="25.5073760" lon="-100.7227690">
        <ele>2219.1</ele>
        <time>2022-08-20T15:56:49Z</time>
      </trkpt>
      <trkpt lat="25.5073760" lon="-100.7227700">
        <ele>2219.1</ele>
        <time>2022-08-20T15:56:50Z</time>
      </trkpt>
      <trkpt lat="25.5073750" lon="-100.7227710">
        <ele>2219.1</ele>
        <time>2022-08-20T15:56:51Z</time>
      </trkpt>
      <trkpt lat="25.5073750" lon="-100.7227710">
        <ele>2219.1</ele>
        <time>2022-08-20T15:56:52Z</time>
      </trkpt>
      <trkpt lat="25.5073740" lon="-100.7227720">
        <ele>2219.1</ele>
        <time>2022-08-20T15:56:53Z</time>
      </trkpt>
      <trkpt lat="25.5073740" lon="-100.7227720">
        <ele>2219.1</ele>
        <time>2022-08-20T15:56:54Z</time>
      </trkpt>
      <trkpt lat="25.5073730" lon="-100.7227730">
        <ele>2219.1</ele>
        <time>2022-08-20T15:56:55Z</time>
      </trkpt>
      <trkpt lat="25.5073730" lon="-100.7227740">
        <ele>2219.1</ele>
        <time>2022-08-20T15:56:56Z</time>
      </trkpt>
      <trkpt lat="25.5073720" lon="-100.7227740">
        <ele>2219.1</ele>
        <time>2022-08-20T15:56:57Z</time>
      </trkpt>
      <trkpt lat="25.5073720" lon="-100.7227750">
        <ele>2219.1</ele>
        <time>2022-08-20T15:56:58Z</time>
      </trkpt>
      <trkpt lat="25.5073710" lon="-100.7227760">
        <ele>2219.1</ele>
        <time>2022-08-20T15:56:59Z</time>
      </trkpt>
      <trkpt lat="25.5073710" lon="-100.7227760">
        <ele>2219.1</ele>
        <time>2022-08-20T15:57:00Z</time>
      </trkpt>
      <trkpt lat="25.5073690" lon="-100.7227790">
        <ele>2219.1</ele>
        <time>2022-08-20T15:57:01Z</time>
      </trkpt>
      <trkpt lat="25.5073700" lon="-100.7227770">
        <ele>2219.2</ele>
        <time>2022-08-20T15:57:02Z</time>
      </trkpt>
      <trkpt lat="25.5073700" lon="-100.7227760">
        <ele>2219.2</ele>
        <time>2022-08-20T15:57:03Z</time>
      </trkpt>
      <trkpt lat="25.5073750" lon="-100.7227670">
        <ele>2219.2</ele>
        <time>2022-08-20T15:57:04Z</time>
      </trkpt>
      <trkpt lat="25.5073690" lon="-100.7227630">
        <ele>2219.2</ele>
        <time>2022-08-20T15:57:06Z</time>
      </trkpt>
      <trkpt lat="25.5073680" lon="-100.7227600">
        <ele>2219.3</ele>
        <time>2022-08-20T15:57:07Z</time>
      </trkpt>
      <trkpt lat="25.5073680" lon="-100.7227580">
        <ele>2219.3</ele>
        <time>2022-08-20T15:57:08Z</time>
      </trkpt>
      <trkpt lat="25.5073690" lon="-100.7227570">
        <ele>2219.3</ele>
        <time>2022-08-20T15:57:09Z</time>
      </trkpt>
      <trkpt lat="25.5073710" lon="-100.7227560">
        <ele>2219.3</ele>
        <time>2022-08-20T15:57:10Z</time>
      </trkpt>
      <trkpt lat="25.5073750" lon="-100.7227530">
        <ele>2219.3</ele>
        <time>2022-08-20T15:57:12Z</time>
      </trkpt>
      <trkpt lat="25.5073760" lon="-100.7227520">
        <ele>2219.3</ele>
        <time>2022-08-20T15:57:13Z</time>
      </trkpt>
      <trkpt lat="25.5073780" lon="-100.7227510">
        <ele>2219.3</ele>
        <time>2022-08-20T15:57:14Z</time>
      </trkpt>
      <trkpt lat="25.5073800" lon="-100.7227500">
        <ele>2219.3</ele>
        <time>2022-08-20T15:57:15Z</time>
      </trkpt>
      <trkpt lat="25.5073810" lon="-100.7227480">
        <ele>2219.4</ele>
        <time>2022-08-20T15:57:16Z</time>
      </trkpt>
      <trkpt lat="25.5073830" lon="-100.7227470">
        <ele>2219.4</ele>
        <time>2022-08-20T15:57:17Z</time>
      </trkpt>
      <trkpt lat="25.5073840" lon="-100.7227440">
        <ele>2219.4</ele>
        <time>2022-08-20T15:57:19Z</time>
      </trkpt>
      <trkpt lat="25.5073840" lon="-100.7227420">
        <ele>2219.4</ele>
        <time>2022-08-20T15:57:20Z</time>
      </trkpt>
      <trkpt lat="25.5073850" lon="-100.7227400">
        <ele>2219.4</ele>
        <time>2022-08-20T15:57:21Z</time>
      </trkpt>
      <trkpt lat="25.5073860" lon="-100.7227390">
        <ele>2219.4</ele>
        <time>2022-08-20T15:57:22Z</time>
      </trkpt>
      <trkpt lat="25.5073880" lon="-100.7227390">
        <ele>2219.4</ele>
        <time>2022-08-20T15:57:23Z</time>
      </trkpt>
      <trkpt lat="25.5073900" lon="-100.7227400">
        <ele>2219.4</ele>
        <time>2022-08-20T15:57:24Z</time>
      </trkpt>
      <trkpt lat="25.5073910" lon="-100.7227410">
        <ele>2219.4</ele>
        <time>2022-08-20T15:57:25Z</time>
      </trkpt>
      <trkpt lat="25.5073910" lon="-100.7227420">
        <ele>2219.4</ele>
        <time>2022-08-20T15:57:26Z</time>
      </trkpt>
      <trkpt lat="25.5073940" lon="-100.7227450">
        <ele>2219.5</ele>
        <time>2022-08-20T15:57:27Z</time>
      </trkpt>
      <trkpt lat="25.5073950" lon="-100.7227460">
        <ele>2219.5</ele>
        <time>2022-08-20T15:57:28Z</time>
      </trkpt>
      <trkpt lat="25.5073960" lon="-100.7227470">
        <ele>2219.5</ele>
        <time>2022-08-20T15:57:29Z</time>
      </trkpt>
      <trkpt lat="25.5073960" lon="-100.7227470">
        <ele>2219.5</ele>
        <time>2022-08-20T15:57:30Z</time>
      </trkpt>
      <trkpt lat="25.5073970" lon="-100.7227480">
        <ele>2219.5</ele>
        <time>2022-08-20T15:57:31Z</time>
      </trkpt>
      <trkpt lat="25.5073970" lon="-100.7227480">
        <ele>2219.5</ele>
        <time>2022-08-20T15:57:32Z</time>
      </trkpt>
      <trkpt lat="25.5073970" lon="-100.7227480">
        <ele>2219.5</ele>
        <time>2022-08-20T15:57:33Z</time>
      </trkpt>
      <trkpt lat="25.5073970" lon="-100.7227480">
        <ele>2219.5</ele>
        <time>2022-08-20T15:57:34Z</time>
      </trkpt>
      <trkpt lat="25.5073970" lon="-100.7227480">
        <ele>2219.5</ele>
        <time>2022-08-20T15:57:35Z</time>
      </trkpt>
      <trkpt lat="25.5073970" lon="-100.7227480">
        <ele>2219.5</ele>
        <time>2022-08-20T15:57:36Z</time>
      </trkpt>
      <trkpt lat="25.5073970" lon="-100.7227480">
        <ele>2219.5</ele>
        <time>2022-08-20T15:57:37Z</time>
      </trkpt>
      <trkpt lat="25.5073970" lon="-100.7227480">
        <ele>2219.5</ele>
        <time>2022-08-20T15:57:38Z</time>
      </trkpt>
      <trkpt lat="25.5073970" lon="-100.7227480">
        <ele>2219.5</ele>
        <time>2022-08-20T15:57:39Z</time>
      </trkpt>
      <trkpt lat="25.5073970" lon="-100.7227480">
        <ele>2219.5</ele>
        <time>2022-08-20T15:57:40Z</time>
      </trkpt>
      <trkpt lat="25.5073970" lon="-100.7227480">
        <ele>2219.5</ele>
        <time>2022-08-20T15:57:41Z</time>
      </trkpt>
      <trkpt lat="25.5073970" lon="-100.7227480">
        <ele>2219.5</ele>
        <time>2022-08-20T15:57:42Z</time>
      </trkpt>
      <trkpt lat="25.5073970" lon="-100.7227480">
        <ele>2219.5</ele>
        <time>2022-08-20T15:57:43Z</time>
      </trkpt>
      <trkpt lat="25.5073970" lon="-100.7227480">
        <ele>2219.5</ele>
        <time>2022-08-20T15:57:44Z</time>
      </trkpt>
      <trkpt lat="25.5073980" lon="-100.7227480">
        <ele>2219.5</ele>
        <time>2022-08-20T15:57:45Z</time>
      </trkpt>
      <trkpt lat="25.5074000" lon="-100.7227490">
        <ele>2219.5</ele>
        <time>2022-08-20T15:57:46Z</time>
      </trkpt>
      <trkpt lat="25.5074010" lon="-100.7227490">
        <ele>2219.5</ele>
        <time>2022-08-20T15:57:47Z</time>
      </trkpt>
      <trkpt lat="25.5074020" lon="-100.7227500">
        <ele>2219.5</ele>
        <time>2022-08-20T15:57:48Z</time>
      </trkpt>
      <trkpt lat="25.5074010" lon="-100.7227490">
        <ele>2219.5</ele>
        <time>2022-08-20T15:57:49Z</time>
      </trkpt>
      <trkpt lat="25.5074000" lon="-100.7227490">
        <ele>2219.5</ele>
        <time>2022-08-20T15:57:50Z</time>
      </trkpt>
      <trkpt lat="25.5074060" lon="-100.7227410">
        <ele>2219.6</ele>
        <time>2022-08-20T15:57:52Z</time>
      </trkpt>
      <trkpt lat="25.5074080" lon="-100.7227400">
        <ele>2219.6</ele>
        <time>2022-08-20T15:57:53Z</time>
      </trkpt>
      <trkpt lat="25.5074100" lon="-100.7227400">
        <ele>2219.6</ele>
        <time>2022-08-20T15:57:54Z</time>
      </trkpt>
      <trkpt lat="25.5074100" lon="-100.7227390">
        <ele>2219.6</ele>
        <time>2022-08-20T15:57:55Z</time>
      </trkpt>
      <trkpt lat="25.5074120" lon="-100.7227380">
        <ele>2219.6</ele>
        <time>2022-08-20T15:57:56Z</time>
      </trkpt>
      <trkpt lat="25.5074120" lon="-100.7227380">
        <ele>2219.6</ele>
        <time>2022-08-20T15:57:57Z</time>
      </trkpt>
      <trkpt lat="25.5074120" lon="-100.7227390">
        <ele>2219.6</ele>
        <time>2022-08-20T15:57:58Z</time>
      </trkpt>
      <trkpt lat="25.5074120" lon="-100.7227400">
        <ele>2219.6</ele>
        <time>2022-08-20T15:57:59Z</time>
      </trkpt>
      <trkpt lat="25.5074120" lon="-100.7227420">
        <ele>2219.6</ele>
        <time>2022-08-20T15:58:00Z</time>
      </trkpt>
      <trkpt lat="25.5074110" lon="-100.7227430">
        <ele>2219.6</ele>
        <time>2022-08-20T15:58:01Z</time>
      </trkpt>
      <trkpt lat="25.5074100" lon="-100.7227440">
        <ele>2219.6</ele>
        <time>2022-08-20T15:58:02Z</time>
      </trkpt>
      <trkpt lat="25.5074090" lon="-100.7227450">
        <ele>2219.6</ele>
        <time>2022-08-20T15:58:03Z</time>
      </trkpt>
      <trkpt lat="25.5074080" lon="-100.7227450">
        <ele>2219.6</ele>
        <time>2022-08-20T15:58:04Z</time>
      </trkpt>
      <trkpt lat="25.5074080" lon="-100.7227450">
        <ele>2219.6</ele>
        <time>2022-08-20T15:58:05Z</time>
      </trkpt>
      <trkpt lat="25.5074070" lon="-100.7227450">
        <ele>2219.6</ele>
        <time>2022-08-20T15:58:06Z</time>
      </trkpt>
      <trkpt lat="25.5074060" lon="-100.7227450">
        <ele>2219.6</ele>
        <time>2022-08-20T15:58:07Z</time>
      </trkpt>
      <trkpt lat="25.5074090" lon="-100.7227440">
        <ele>2219.7</ele>
        <time>2022-08-20T15:58:09Z</time>
      </trkpt>
      <trkpt lat="25.5074110" lon="-100.7227420">
        <ele>2219.7</ele>
        <time>2022-08-20T15:58:10Z</time>
      </trkpt>
      <trkpt lat="25.5074110" lon="-100.7227410">
        <ele>2219.7</ele>
        <time>2022-08-20T15:58:11Z</time>
      </trkpt>
      <trkpt lat="25.5074120" lon="-100.7227400">
        <ele>2219.7</ele>
        <time>2022-08-20T15:58:12Z</time>
      </trkpt>
      <trkpt lat="25.5074130" lon="-100.7227400">
        <ele>2219.7</ele>
        <time>2022-08-20T15:58:13Z</time>
      </trkpt>
      <trkpt lat="25.5074120" lon="-100.7227410">
        <ele>2219.7</ele>
        <time>2022-08-20T15:58:14Z</time>
      </trkpt>
      <trkpt lat="25.5074110" lon="-100.7227420">
        <ele>2219.7</ele>
        <time>2022-08-20T15:58:15Z</time>
      </trkpt>
      <trkpt lat="25.5074090" lon="-100.7227430">
        <ele>2219.7</ele>
        <time>2022-08-20T15:58:16Z</time>
      </trkpt>
      <trkpt lat="25.5074060" lon="-100.7227450">
        <ele>2219.7</ele>
        <time>2022-08-20T15:58:18Z</time>
      </trkpt>
      <trkpt lat="25.5074050" lon="-100.7227450">
        <ele>2219.7</ele>
        <time>2022-08-20T15:58:19Z</time>
      </trkpt>
      <trkpt lat="25.5074050" lon="-100.7227450">
        <ele>2219.7</ele>
        <time>2022-08-20T15:58:20Z</time>
      </trkpt>
      <trkpt lat="25.5074040" lon="-100.7227450">
        <ele>2219.7</ele>
        <time>2022-08-20T15:58:21Z</time>
      </trkpt>
      <trkpt lat="25.5074030" lon="-100.7227460">
        <ele>2219.7</ele>
        <time>2022-08-20T15:58:22Z</time>
      </trkpt>
      <trkpt lat="25.5074030" lon="-100.7227460">
        <ele>2219.7</ele>
        <time>2022-08-20T15:58:23Z</time>
      </trkpt>
      <trkpt lat="25.5074020" lon="-100.7227460">
        <ele>2219.7</ele>
        <time>2022-08-20T15:58:24Z</time>
      </trkpt>
      <trkpt lat="25.5074020" lon="-100.7227460">
        <ele>2219.7</ele>
        <time>2022-08-20T15:58:25Z</time>
      </trkpt>
      <trkpt lat="25.5074020" lon="-100.7227460">
        <ele>2219.7</ele>
        <time>2022-08-20T15:58:26Z</time>
      </trkpt>
      <trkpt lat="25.5074020" lon="-100.7227460">
        <ele>2219.7</ele>
        <time>2022-08-20T15:58:27Z</time>
      </trkpt>
      <trkpt lat="25.5074020" lon="-100.7227460">
        <ele>2219.7</ele>
        <time>2022-08-20T15:58:28Z</time>
      </trkpt>
      <trkpt lat="25.5074000" lon="-100.7227480">
        <ele>2219.7</ele>
        <time>2022-08-20T15:58:29Z</time>
      </trkpt>
      <trkpt lat="25.5073990" lon="-100.7227480">
        <ele>2219.8</ele>
        <time>2022-08-20T15:58:30Z</time>
      </trkpt>
      <trkpt lat="25.5073990" lon="-100.7227480">
        <ele>2219.8</ele>
        <time>2022-08-20T15:58:31Z</time>
      </trkpt>
      <trkpt lat="25.5073990" lon="-100.7227490">
        <ele>2219.8</ele>
        <time>2022-08-20T15:58:32Z</time>
      </trkpt>
      <trkpt lat="25.5073990" lon="-100.7227490">
        <ele>2219.8</ele>
        <time>2022-08-20T15:58:33Z</time>
      </trkpt>
      <trkpt lat="25.5073990" lon="-100.7227490">
        <ele>2219.8</ele>
        <time>2022-08-20T15:58:34Z</time>
      </trkpt>
      <trkpt lat="25.5073990" lon="-100.7227490">
        <ele>2219.8</ele>
        <time>2022-08-20T15:58:35Z</time>
      </trkpt>
      <trkpt lat="25.5073990" lon="-100.7227490">
        <ele>2219.8</ele>
        <time>2022-08-20T15:58:36Z</time>
      </trkpt>
      <trkpt lat="25.5073990" lon="-100.7227490">
        <ele>2219.8</ele>
        <time>2022-08-20T15:58:37Z</time>
      </trkpt>
      <trkpt lat="25.5073990" lon="-100.7227490">
        <ele>2219.8</ele>
        <time>2022-08-20T15:58:38Z</time>
      </trkpt>
      <trkpt lat="25.5073990" lon="-100.7227490">
        <ele>2219.8</ele>
        <time>2022-08-20T15:58:39Z</time>
      </trkpt>
      <trkpt lat="25.5073990" lon="-100.7227490">
        <ele>2219.8</ele>
        <time>2022-08-20T15:58:40Z</time>
      </trkpt>
      <trkpt lat="25.5073990" lon="-100.7227490">
        <ele>2219.8</ele>
        <time>2022-08-20T15:58:41Z</time>
      </trkpt>
      <trkpt lat="25.5073990" lon="-100.7227490">
        <ele>2219.8</ele>
        <time>2022-08-20T15:58:42Z</time>
      </trkpt>
      <trkpt lat="25.5073990" lon="-100.7227490">
        <ele>2219.8</ele>
        <time>2022-08-20T15:58:43Z</time>
      </trkpt>
      <trkpt lat="25.5073990" lon="-100.7227490">
        <ele>2219.8</ele>
        <time>2022-08-20T15:58:44Z</time>
      </trkpt>
      <trkpt lat="25.5073990" lon="-100.7227490">
        <ele>2219.8</ele>
        <time>2022-08-20T15:58:45Z</time>
      </trkpt>
      <trkpt lat="25.5073990" lon="-100.7227490">
        <ele>2219.8</ele>
        <time>2022-08-20T15:58:46Z</time>
      </trkpt>
      <trkpt lat="25.5073990" lon="-100.7227480">
        <ele>2219.8</ele>
        <time>2022-08-20T15:58:47Z</time>
      </trkpt>
      <trkpt lat="25.5074000" lon="-100.7227490">
        <ele>2219.8</ele>
        <time>2022-08-20T15:58:48Z</time>
      </trkpt>
      <trkpt lat="25.5074010" lon="-100.7227490">
        <ele>2219.8</ele>
        <time>2022-08-20T15:58:49Z</time>
      </trkpt>
      <trkpt lat="25.5074010" lon="-100.7227490">
        <ele>2219.8</ele>
        <time>2022-08-20T15:58:50Z</time>
      </trkpt>
      <trkpt lat="25.5074000" lon="-100.7227490">
        <ele>2219.8</ele>
        <time>2022-08-20T15:58:51Z</time>
      </trkpt>
      <trkpt lat="25.5074000" lon="-100.7227490">
        <ele>2219.8</ele>
        <time>2022-08-20T15:58:52Z</time>
      </trkpt>
      <trkpt lat="25.5073990" lon="-100.7227480">
        <ele>2219.8</ele>
        <time>2022-08-20T15:58:53Z</time>
      </trkpt>
      <trkpt lat="25.5073990" lon="-100.7227480">
        <ele>2219.8</ele>
        <time>2022-08-20T15:58:54Z</time>
      </trkpt>
      <trkpt lat="25.5073990" lon="-100.7227480">
        <ele>2219.8</ele>
        <time>2022-08-20T15:58:55Z</time>
      </trkpt>
      <trkpt lat="25.5073990" lon="-100.7227480">
        <ele>2219.8</ele>
        <time>2022-08-20T15:58:56Z</time>
      </trkpt>
      <trkpt lat="25.5073990" lon="-100.7227480">
        <ele>2219.8</ele>
        <time>2022-08-20T15:58:57Z</time>
      </trkpt>
      <trkpt lat="25.5073990" lon="-100.7227480">
        <ele>2219.8</ele>
        <time>2022-08-20T15:58:58Z</time>
      </trkpt>
      <trkpt lat="25.5073990" lon="-100.7227480">
        <ele>2219.8</ele>
        <time>2022-08-20T15:58:59Z</time>
      </trkpt>
      <trkpt lat="25.5073990" lon="-100.7227480">
        <ele>2219.8</ele>
        <time>2022-08-20T15:59:00Z</time>
      </trkpt>
      <trkpt lat="25.5073990" lon="-100.7227480">
        <ele>2219.8</ele>
        <time>2022-08-20T15:59:01Z</time>
      </trkpt>
      <trkpt lat="25.5073990" lon="-100.7227480">
        <ele>2219.8</ele>
        <time>2022-08-20T15:59:02Z</time>
      </trkpt>
      <trkpt lat="25.5073990" lon="-100.7227480">
        <ele>2219.8</ele>
        <time>2022-08-20T15:59:03Z</time>
      </trkpt>
      <trkpt lat="25.5073990" lon="-100.7227470">
        <ele>2219.8</ele>
        <time>2022-08-20T15:59:04Z</time>
      </trkpt>
      <trkpt lat="25.5074000" lon="-100.7227470">
        <ele>2219.8</ele>
        <time>2022-08-20T15:59:05Z</time>
      </trkpt>
      <trkpt lat="25.5074010" lon="-100.7227470">
        <ele>2219.8</ele>
        <time>2022-08-20T15:59:06Z</time>
      </trkpt>
      <trkpt lat="25.5074010" lon="-100.7227460">
        <ele>2219.8</ele>
        <time>2022-08-20T15:59:07Z</time>
      </trkpt>
      <trkpt lat="25.5074010" lon="-100.7227450">
        <ele>2219.8</ele>
        <time>2022-08-20T15:59:08Z</time>
      </trkpt>
      <trkpt lat="25.5074000" lon="-100.7227450">
        <ele>2219.8</ele>
        <time>2022-08-20T15:59:09Z</time>
      </trkpt>
      <trkpt lat="25.5074000" lon="-100.7227440">
        <ele>2219.8</ele>
        <time>2022-08-20T15:59:10Z</time>
      </trkpt>
      <trkpt lat="25.5074000" lon="-100.7227440">
        <ele>2219.8</ele>
        <time>2022-08-20T15:59:11Z</time>
      </trkpt>
      <trkpt lat="25.5074000" lon="-100.7227440">
        <ele>2219.8</ele>
        <time>2022-08-20T15:59:12Z</time>
      </trkpt>
      <trkpt lat="25.5074000" lon="-100.7227440">
        <ele>2219.8</ele>
        <time>2022-08-20T15:59:13Z</time>
      </trkpt>
      <trkpt lat="25.5074000" lon="-100.7227440">
        <ele>2219.8</ele>
        <time>2022-08-20T15:59:14Z</time>
      </trkpt>
      <trkpt lat="25.5074000" lon="-100.7227440">
        <ele>2219.8</ele>
        <time>2022-08-20T15:59:15Z</time>
      </trkpt>
      <trkpt lat="25.5074000" lon="-100.7227430">
        <ele>2219.8</ele>
        <time>2022-08-20T15:59:16Z</time>
      </trkpt>
      <trkpt lat="25.5074020" lon="-100.7227430">
        <ele>2219.8</ele>
        <time>2022-08-20T15:59:17Z</time>
      </trkpt>
      <trkpt lat="25.5074020" lon="-100.7227430">
        <ele>2219.8</ele>
        <time>2022-08-20T15:59:18Z</time>
      </trkpt>
      <trkpt lat="25.5074020" lon="-100.7227430">
        <ele>2219.8</ele>
        <time>2022-08-20T15:59:19Z</time>
      </trkpt>
      <trkpt lat="25.5074030" lon="-100.7227440">
        <ele>2219.8</ele>
        <time>2022-08-20T15:59:20Z</time>
      </trkpt>
      <trkpt lat="25.5074030" lon="-100.7227440">
        <ele>2219.8</ele>
        <time>2022-08-20T15:59:21Z</time>
      </trkpt>
      <trkpt lat="25.5074030" lon="-100.7227430">
        <ele>2219.8</ele>
        <time>2022-08-20T15:59:22Z</time>
      </trkpt>
      <trkpt lat="25.5074040" lon="-100.7227440">
        <ele>2219.8</ele>
        <time>2022-08-20T15:59:23Z</time>
      </trkpt>
      <trkpt lat="25.5074040" lon="-100.7227450">
        <ele>2219.8</ele>
        <time>2022-08-20T15:59:24Z</time>
      </trkpt>
      <trkpt lat="25.5074050" lon="-100.7227450">
        <ele>2219.8</ele>
        <time>2022-08-20T15:59:25Z</time>
      </trkpt>
      <trkpt lat="25.5074050" lon="-100.7227460">
        <ele>2219.8</ele>
        <time>2022-08-20T15:59:26Z</time>
      </trkpt>
      <trkpt lat="25.5074040" lon="-100.7227450">
        <ele>2219.8</ele>
        <time>2022-08-20T15:59:27Z</time>
      </trkpt>
      <trkpt lat="25.5074040" lon="-100.7227440">
        <ele>2219.8</ele>
        <time>2022-08-20T15:59:28Z</time>
      </trkpt>
      <trkpt lat="25.5074040" lon="-100.7227440">
        <ele>2219.8</ele>
        <time>2022-08-20T15:59:29Z</time>
      </trkpt>
      <trkpt lat="25.5074040" lon="-100.7227440">
        <ele>2219.8</ele>
        <time>2022-08-20T15:59:30Z</time>
      </trkpt>
      <trkpt lat="25.5074030" lon="-100.7227440">
        <ele>2219.8</ele>
        <time>2022-08-20T15:59:31Z</time>
      </trkpt>
      <trkpt lat="25.5074030" lon="-100.7227440">
        <ele>2219.8</ele>
        <time>2022-08-20T15:59:32Z</time>
      </trkpt>
      <trkpt lat="25.5074030" lon="-100.7227440">
        <ele>2219.8</ele>
        <time>2022-08-20T15:59:33Z</time>
      </trkpt>
      <trkpt lat="25.5074030" lon="-100.7227440">
        <ele>2219.8</ele>
        <time>2022-08-20T15:59:34Z</time>
      </trkpt>
      <trkpt lat="25.5074030" lon="-100.7227440">
        <ele>2219.8</ele>
        <time>2022-08-20T15:59:35Z</time>
      </trkpt>
      <trkpt lat="25.5074040" lon="-100.7227440">
        <ele>2219.8</ele>
        <time>2022-08-20T15:59:36Z</time>
      </trkpt>
      <trkpt lat="25.5074040" lon="-100.7227440">
        <ele>2219.8</ele>
        <time>2022-08-20T15:59:37Z</time>
      </trkpt>
      <trkpt lat="25.5074030" lon="-100.7227430">
        <ele>2219.8</ele>
        <time>2022-08-20T15:59:38Z</time>
      </trkpt>
      <trkpt lat="25.5074030" lon="-100.7227430">
        <ele>2219.8</ele>
        <time>2022-08-20T15:59:39Z</time>
      </trkpt>
      <trkpt lat="25.5074020" lon="-100.7227420">
        <ele>2219.8</ele>
        <time>2022-08-20T15:59:40Z</time>
      </trkpt>
      <trkpt lat="25.5074020" lon="-100.7227410">
        <ele>2219.9</ele>
        <time>2022-08-20T15:59:41Z</time>
      </trkpt>
      <trkpt lat="25.5074020" lon="-100.7227410">
        <ele>2219.9</ele>
        <time>2022-08-20T15:59:42Z</time>
      </trkpt>
      <trkpt lat="25.5074020" lon="-100.7227420">
        <ele>2219.9</ele>
        <time>2022-08-20T15:59:43Z</time>
      </trkpt>
      <trkpt lat="25.5074030" lon="-100.7227430">
        <ele>2219.9</ele>
        <time>2022-08-20T15:59:44Z</time>
      </trkpt>
      <trkpt lat="25.5074030" lon="-100.7227430">
        <ele>2219.9</ele>
        <time>2022-08-20T15:59:45Z</time>
      </trkpt>
      <trkpt lat="25.5074030" lon="-100.7227430">
        <ele>2219.9</ele>
        <time>2022-08-20T15:59:46Z</time>
      </trkpt>
      <trkpt lat="25.5074040" lon="-100.7227430">
        <ele>2219.9</ele>
        <time>2022-08-20T15:59:47Z</time>
      </trkpt>
      <trkpt lat="25.5074040" lon="-100.7227430">
        <ele>2219.9</ele>
        <time>2022-08-20T15:59:48Z</time>
      </trkpt>
      <trkpt lat="25.5074030" lon="-100.7227430">
        <ele>2219.9</ele>
        <time>2022-08-20T15:59:49Z</time>
      </trkpt>
      <trkpt lat="25.5074030" lon="-100.7227430">
        <ele>2219.9</ele>
        <time>2022-08-20T15:59:50Z</time>
      </trkpt>
      <trkpt lat="25.5074030" lon="-100.7227420">
        <ele>2219.9</ele>
        <time>2022-08-20T15:59:51Z</time>
      </trkpt>
      <trkpt lat="25.5074030" lon="-100.7227420">
        <ele>2219.9</ele>
        <time>2022-08-20T15:59:52Z</time>
      </trkpt>
      <trkpt lat="25.5074030" lon="-100.7227420">
        <ele>2219.9</ele>
        <time>2022-08-20T15:59:53Z</time>
      </trkpt>
      <trkpt lat="25.5074030" lon="-100.7227420">
        <ele>2219.9</ele>
        <time>2022-08-20T15:59:54Z</time>
      </trkpt>
      <trkpt lat="25.5074030" lon="-100.7227430">
        <ele>2219.9</ele>
        <time>2022-08-20T15:59:55Z</time>
      </trkpt>
      <trkpt lat="25.5074030" lon="-100.7227420">
        <ele>2219.9</ele>
        <time>2022-08-20T15:59:57Z</time>
      </trkpt>
      <trkpt lat="25.5074020" lon="-100.7227420">
        <ele>2219.9</ele>
        <time>2022-08-20T15:59:58Z</time>
      </trkpt>
      <trkpt lat="25.5074020" lon="-100.7227420">
        <ele>2219.9</ele>
        <time>2022-08-20T15:59:59Z</time>
      </trkpt>
      <trkpt lat="25.5074020" lon="-100.7227420">
        <ele>2219.9</ele>
        <time>2022-08-20T16:00:00Z</time>
      </trkpt>
      <trkpt lat="25.5074020" lon="-100.7227420">
        <ele>2219.9</ele>
        <time>2022-08-20T16:00:01Z</time>
      </trkpt>
      <trkpt lat="25.5074020" lon="-100.7227420">
        <ele>2219.9</ele>
        <time>2022-08-20T16:00:02Z</time>
      </trkpt>
      <trkpt lat="25.5074020" lon="-100.7227420">
        <ele>2219.9</ele>
        <time>2022-08-20T16:00:03Z</time>
      </trkpt>
      <trkpt lat="25.5074020" lon="-100.7227420">
        <ele>2219.9</ele>
        <time>2022-08-20T16:00:04Z</time>
      </trkpt>
      <trkpt lat="25.5074020" lon="-100.7227420">
        <ele>2219.9</ele>
        <time>2022-08-20T16:00:05Z</time>
      </trkpt>
      <trkpt lat="25.5074030" lon="-100.7227430">
        <ele>2219.9</ele>
        <time>2022-08-20T16:00:06Z</time>
      </trkpt>
      <trkpt lat="25.5074020" lon="-100.7227420">
        <ele>2219.9</ele>
        <time>2022-08-20T16:00:07Z</time>
      </trkpt>
      <trkpt lat="25.5074020" lon="-100.7227420">
        <ele>2219.9</ele>
        <time>2022-08-20T16:00:08Z</time>
      </trkpt>
      <trkpt lat="25.5074030" lon="-100.7227430">
        <ele>2219.9</ele>
        <time>2022-08-20T16:00:09Z</time>
      </trkpt>
      <trkpt lat="25.5074040" lon="-100.7227440">
        <ele>2219.9</ele>
        <time>2022-08-20T16:00:10Z</time>
      </trkpt>
      <trkpt lat="25.5074030" lon="-100.7227430">
        <ele>2219.9</ele>
        <time>2022-08-20T16:00:11Z</time>
      </trkpt>
      <trkpt lat="25.5074030" lon="-100.7227430">
        <ele>2219.9</ele>
        <time>2022-08-20T16:00:12Z</time>
      </trkpt>
      <trkpt lat="25.5074010" lon="-100.7227420">
        <ele>2219.9</ele>
        <time>2022-08-20T16:00:13Z</time>
      </trkpt>
      <trkpt lat="25.5074010" lon="-100.7227410">
        <ele>2219.9</ele>
        <time>2022-08-20T16:00:14Z</time>
      </trkpt>
      <trkpt lat="25.5074010" lon="-100.7227410">
        <ele>2219.9</ele>
        <time>2022-08-20T16:00:15Z</time>
      </trkpt>
      <trkpt lat="25.5074010" lon="-100.7227410">
        <ele>2219.9</ele>
        <time>2022-08-20T16:00:16Z</time>
      </trkpt>
      <trkpt lat="25.5074010" lon="-100.7227410">
        <ele>2219.9</ele>
        <time>2022-08-20T16:00:17Z</time>
      </trkpt>
      <trkpt lat="25.5074010" lon="-100.7227410">
        <ele>2219.9</ele>
        <time>2022-08-20T16:00:18Z</time>
      </trkpt>
      <trkpt lat="25.5074010" lon="-100.7227410">
        <ele>2219.9</ele>
        <time>2022-08-20T16:00:19Z</time>
      </trkpt>
      <trkpt lat="25.5074010" lon="-100.7227410">
        <ele>2219.9</ele>
        <time>2022-08-20T16:00:20Z</time>
      </trkpt>
      <trkpt lat="25.5074010" lon="-100.7227410">
        <ele>2219.9</ele>
        <time>2022-08-20T16:00:21Z</time>
      </trkpt>
      <trkpt lat="25.5074010" lon="-100.7227410">
        <ele>2219.9</ele>
        <time>2022-08-20T16:00:22Z</time>
      </trkpt>
      <trkpt lat="25.5074010" lon="-100.7227410">
        <ele>2219.9</ele>
        <time>2022-08-20T16:00:23Z</time>
      </trkpt>
      <trkpt lat="25.5074010" lon="-100.7227410">
        <ele>2219.9</ele>
        <time>2022-08-20T16:00:24Z</time>
      </trkpt>
      <trkpt lat="25.5074010" lon="-100.7227410">
        <ele>2219.9</ele>
        <time>2022-08-20T16:00:25Z</time>
      </trkpt>
      <trkpt lat="25.5074010" lon="-100.7227410">
        <ele>2219.9</ele>
        <time>2022-08-20T16:00:26Z</time>
      </trkpt>
      <trkpt lat="25.5074010" lon="-100.7227410">
        <ele>2219.9</ele>
        <time>2022-08-20T16:00:27Z</time>
      </trkpt>
      <trkpt lat="25.5074010" lon="-100.7227410">
        <ele>2219.9</ele>
        <time>2022-08-20T16:00:28Z</time>
      </trkpt>
      <trkpt lat="25.5074010" lon="-100.7227410">
        <ele>2219.9</ele>
        <time>2022-08-20T16:00:29Z</time>
      </trkpt>
      <trkpt lat="25.5074010" lon="-100.7227410">
        <ele>2219.9</ele>
        <time>2022-08-20T16:00:30Z</time>
      </trkpt>
      <trkpt lat="25.5074010" lon="-100.7227410">
        <ele>2219.9</ele>
        <time>2022-08-20T16:00:31Z</time>
      </trkpt>
      <trkpt lat="25.5074010" lon="-100.7227410">
        <ele>2219.9</ele>
        <time>2022-08-20T16:00:32Z</time>
      </trkpt>
      <trkpt lat="25.5074010" lon="-100.7227410">
        <ele>2219.9</ele>
        <time>2022-08-20T16:00:33Z</time>
      </trkpt>
      <trkpt lat="25.5074010" lon="-100.7227410">
        <ele>2219.9</ele>
        <time>2022-08-20T16:00:34Z</time>
      </trkpt>
      <trkpt lat="25.5074010" lon="-100.7227410">
        <ele>2219.9</ele>
        <time>2022-08-20T16:00:35Z</time>
      </trkpt>
      <trkpt lat="25.5074010" lon="-100.7227410">
        <ele>2219.9</ele>
        <time>2022-08-20T16:00:36Z</time>
      </trkpt>
      <trkpt lat="25.5074010" lon="-100.7227410">
        <ele>2219.9</ele>
        <time>2022-08-20T16:00:37Z</time>
      </trkpt>
      <trkpt lat="25.5074010" lon="-100.7227410">
        <ele>2219.9</ele>
        <time>2022-08-20T16:00:38Z</time>
      </trkpt>
      <trkpt lat="25.5074010" lon="-100.7227410">
        <ele>2219.9</ele>
        <time>2022-08-20T16:00:39Z</time>
      </trkpt>
      <trkpt lat="25.5074010" lon="-100.7227410">
        <ele>2219.9</ele>
        <time>2022-08-20T16:00:40Z</time>
      </trkpt>
      <trkpt lat="25.5074010" lon="-100.7227410">
        <ele>2219.9</ele>
        <time>2022-08-20T16:00:41Z</time>
      </trkpt>
      <trkpt lat="25.5074010" lon="-100.7227410">
        <ele>2219.9</ele>
        <time>2022-08-20T16:00:42Z</time>
      </trkpt>
      <trkpt lat="25.5074010" lon="-100.7227410">
        <ele>2219.9</ele>
        <time>2022-08-20T16:00:43Z</time>
      </trkpt>
      <trkpt lat="25.5074010" lon="-100.7227410">
        <ele>2219.9</ele>
        <time>2022-08-20T16:00:44Z</time>
      </trkpt>
      <trkpt lat="25.5074010" lon="-100.7227410">
        <ele>2219.9</ele>
        <time>2022-08-20T16:00:45Z</time>
      </trkpt>
      <trkpt lat="25.5074010" lon="-100.7227410">
        <ele>2219.9</ele>
        <time>2022-08-20T16:00:46Z</time>
      </trkpt>
      <trkpt lat="25.5074010" lon="-100.7227410">
        <ele>2219.9</ele>
        <time>2022-08-20T16:00:47Z</time>
      </trkpt>
      <trkpt lat="25.5074010" lon="-100.7227410">
        <ele>2219.9</ele>
        <time>2022-08-20T16:00:48Z</time>
      </trkpt>
      <trkpt lat="25.5074010" lon="-100.7227410">
        <ele>2219.9</ele>
        <time>2022-08-20T16:00:49Z</time>
      </trkpt>
      <trkpt lat="25.5074010" lon="-100.7227410">
        <ele>2219.9</ele>
        <time>2022-08-20T16:00:50Z</time>
      </trkpt>
      <trkpt lat="25.5074010" lon="-100.7227410">
        <ele>2219.9</ele>
        <time>2022-08-20T16:00:51Z</time>
      </trkpt>
      <trkpt lat="25.5074010" lon="-100.7227410">
        <ele>2219.9</ele>
        <time>2022-08-20T16:00:52Z</time>
      </trkpt>
      <trkpt lat="25.5074010" lon="-100.7227410">
        <ele>2219.9</ele>
        <time>2022-08-20T16:00:53Z</time>
      </trkpt>
      <trkpt lat="25.5074010" lon="-100.7227410">
        <ele>2219.9</ele>
        <time>2022-08-20T16:00:54Z</time>
      </trkpt>
      <trkpt lat="25.5074010" lon="-100.7227410">
        <ele>2219.9</ele>
        <time>2022-08-20T16:00:55Z</time>
      </trkpt>
      <trkpt lat="25.5074020" lon="-100.7227400">
        <ele>2219.9</ele>
        <time>2022-08-20T16:00:56Z</time>
      </trkpt>
      <trkpt lat="25.5074000" lon="-100.7227400">
        <ele>2219.9</ele>
        <time>2022-08-20T16:00:58Z</time>
      </trkpt>
      <trkpt lat="25.5073990" lon="-100.7227410">
        <ele>2219.9</ele>
        <time>2022-08-20T16:00:59Z</time>
      </trkpt>
      <trkpt lat="25.5073980" lon="-100.7227410">
        <ele>2219.9</ele>
        <time>2022-08-20T16:01:00Z</time>
      </trkpt>
      <trkpt lat="25.5073990" lon="-100.7227410">
        <ele>2219.9</ele>
        <time>2022-08-20T16:01:01Z</time>
      </trkpt>
      <trkpt lat="25.5073990" lon="-100.7227410">
        <ele>2219.9</ele>
        <time>2022-08-20T16:01:02Z</time>
      </trkpt>
      <trkpt lat="25.5074000" lon="-100.7227410">
        <ele>2219.9</ele>
        <time>2022-08-20T16:01:03Z</time>
      </trkpt>
      <trkpt lat="25.5074000" lon="-100.7227410">
        <ele>2219.9</ele>
        <time>2022-08-20T16:01:04Z</time>
      </trkpt>
      <trkpt lat="25.5074010" lon="-100.7227410">
        <ele>2219.9</ele>
        <time>2022-08-20T16:01:05Z</time>
      </trkpt>
      <trkpt lat="25.5074010" lon="-100.7227410">
        <ele>2219.9</ele>
        <time>2022-08-20T16:01:06Z</time>
      </trkpt>
      <trkpt lat="25.5074010" lon="-100.7227410">
        <ele>2219.9</ele>
        <time>2022-08-20T16:01:07Z</time>
      </trkpt>
      <trkpt lat="25.5074010" lon="-100.7227420">
        <ele>2219.9</ele>
        <time>2022-08-20T16:01:08Z</time>
      </trkpt>
      <trkpt lat="25.5074020" lon="-100.7227420">
        <ele>2219.9</ele>
        <time>2022-08-20T16:01:09Z</time>
      </trkpt>
      <trkpt lat="25.5074020" lon="-100.7227430">
        <ele>2219.9</ele>
        <time>2022-08-20T16:01:10Z</time>
      </trkpt>
      <trkpt lat="25.5074020" lon="-100.7227430">
        <ele>2219.9</ele>
        <time>2022-08-20T16:01:11Z</time>
      </trkpt>
      <trkpt lat="25.5074020" lon="-100.7227440">
        <ele>2219.9</ele>
        <time>2022-08-20T16:01:12Z</time>
      </trkpt>
      <trkpt lat="25.5074020" lon="-100.7227440">
        <ele>2219.9</ele>
        <time>2022-08-20T16:01:13Z</time>
      </trkpt>
      <trkpt lat="25.5074020" lon="-100.7227440">
        <ele>2219.9</ele>
        <time>2022-08-20T16:01:14Z</time>
      </trkpt>
      <trkpt lat="25.5074020" lon="-100.7227430">
        <ele>2219.9</ele>
        <time>2022-08-20T16:01:15Z</time>
      </trkpt>
      <trkpt lat="25.5074020" lon="-100.7227430">
        <ele>2219.9</ele>
        <time>2022-08-20T16:01:16Z</time>
      </trkpt>
      <trkpt lat="25.5074020" lon="-100.7227420">
        <ele>2219.9</ele>
        <time>2022-08-20T16:01:17Z</time>
      </trkpt>
      <trkpt lat="25.5074020" lon="-100.7227410">
        <ele>2219.9</ele>
        <time>2022-08-20T16:01:18Z</time>
      </trkpt>
      <trkpt lat="25.5074020" lon="-100.7227410">
        <ele>2219.9</ele>
        <time>2022-08-20T16:01:19Z</time>
      </trkpt>
      <trkpt lat="25.5074010" lon="-100.7227400">
        <ele>2219.9</ele>
        <time>2022-08-20T16:01:20Z</time>
      </trkpt>
      <trkpt lat="25.5074030" lon="-100.7227400">
        <ele>2220.0</ele>
        <time>2022-08-20T16:01:21Z</time>
      </trkpt>
      <trkpt lat="25.5074040" lon="-100.7227370">
        <ele>2220.0</ele>
        <time>2022-08-20T16:01:23Z</time>
      </trkpt>
      <trkpt lat="25.5074010" lon="-100.7227340">
        <ele>2220.0</ele>
        <time>2022-08-20T16:01:25Z</time>
      </trkpt>
      <trkpt lat="25.5073980" lon="-100.7227320">
        <ele>2220.0</ele>
        <time>2022-08-20T16:01:26Z</time>
      </trkpt>
      <trkpt lat="25.5073970" lon="-100.7227310">
        <ele>2220.0</ele>
        <time>2022-08-20T16:01:27Z</time>
      </trkpt>
      <trkpt lat="25.5073970" lon="-100.7227310">
        <ele>2220.0</ele>
        <time>2022-08-20T16:01:28Z</time>
      </trkpt>
      <trkpt lat="25.5073980" lon="-100.7227330">
        <ele>2220.0</ele>
        <time>2022-08-20T16:01:29Z</time>
      </trkpt>
      <trkpt lat="25.5073980" lon="-100.7227350">
        <ele>2220.0</ele>
        <time>2022-08-20T16:01:30Z</time>
      </trkpt>
      <trkpt lat="25.5073990" lon="-100.7227360">
        <ele>2220.0</ele>
        <time>2022-08-20T16:01:31Z</time>
      </trkpt>
      <trkpt lat="25.5074000" lon="-100.7227380">
        <ele>2220.0</ele>
        <time>2022-08-20T16:01:32Z</time>
      </trkpt>
      <trkpt lat="25.5074000" lon="-100.7227380">
        <ele>2220.0</ele>
        <time>2022-08-20T16:01:33Z</time>
      </trkpt>
      <trkpt lat="25.5074000" lon="-100.7227390">
        <ele>2220.0</ele>
        <time>2022-08-20T16:01:34Z</time>
      </trkpt>
      <trkpt lat="25.5074000" lon="-100.7227390">
        <ele>2220.0</ele>
        <time>2022-08-20T16:01:35Z</time>
      </trkpt>
      <trkpt lat="25.5074010" lon="-100.7227390">
        <ele>2220.0</ele>
        <time>2022-08-20T16:01:36Z</time>
      </trkpt>
      <trkpt lat="25.5074010" lon="-100.7227400">
        <ele>2220.0</ele>
        <time>2022-08-20T16:01:37Z</time>
      </trkpt>
      <trkpt lat="25.5074010" lon="-100.7227400">
        <ele>2220.0</ele>
        <time>2022-08-20T16:01:38Z</time>
      </trkpt>
      <trkpt lat="25.5074010" lon="-100.7227400">
        <ele>2220.0</ele>
        <time>2022-08-20T16:01:39Z</time>
      </trkpt>
      <trkpt lat="25.5074020" lon="-100.7227400">
        <ele>2220.0</ele>
        <time>2022-08-20T16:01:40Z</time>
      </trkpt>
      <trkpt lat="25.5074020" lon="-100.7227400">
        <ele>2220.0</ele>
        <time>2022-08-20T16:01:41Z</time>
      </trkpt>
      <trkpt lat="25.5074020" lon="-100.7227410">
        <ele>2220.0</ele>
        <time>2022-08-20T16:01:42Z</time>
      </trkpt>
      <trkpt lat="25.5074020" lon="-100.7227420">
        <ele>2220.0</ele>
        <time>2022-08-20T16:01:43Z</time>
      </trkpt>
      <trkpt lat="25.5074030" lon="-100.7227430">
        <ele>2220.0</ele>
        <time>2022-08-20T16:01:44Z</time>
      </trkpt>
      <trkpt lat="25.5074030" lon="-100.7227440">
        <ele>2220.0</ele>
        <time>2022-08-20T16:01:45Z</time>
      </trkpt>
      <trkpt lat="25.5074030" lon="-100.7227440">
        <ele>2219.9</ele>
        <time>2022-08-20T16:01:46Z</time>
      </trkpt>
      <trkpt lat="25.5074030" lon="-100.7227440">
        <ele>2219.9</ele>
        <time>2022-08-20T16:01:47Z</time>
      </trkpt>
      <trkpt lat="25.5074030" lon="-100.7227440">
        <ele>2219.9</ele>
        <time>2022-08-20T16:01:48Z</time>
      </trkpt>
      <trkpt lat="25.5074030" lon="-100.7227440">
        <ele>2219.9</ele>
        <time>2022-08-20T16:01:49Z</time>
      </trkpt>
      <trkpt lat="25.5074030" lon="-100.7227440">
        <ele>2219.9</ele>
        <time>2022-08-20T16:01:50Z</time>
      </trkpt>
      <trkpt lat="25.5074030" lon="-100.7227440">
        <ele>2219.9</ele>
        <time>2022-08-20T16:01:51Z</time>
      </trkpt>
      <trkpt lat="25.5074030" lon="-100.7227440">
        <ele>2219.9</ele>
        <time>2022-08-20T16:01:52Z</time>
      </trkpt>
      <trkpt lat="25.5074030" lon="-100.7227440">
        <ele>2219.9</ele>
        <time>2022-08-20T16:01:53Z</time>
      </trkpt>
      <trkpt lat="25.5074030" lon="-100.7227440">
        <ele>2219.9</ele>
        <time>2022-08-20T16:01:54Z</time>
      </trkpt>
      <trkpt lat="25.5074030" lon="-100.7227440">
        <ele>2219.9</ele>
        <time>2022-08-20T16:01:55Z</time>
      </trkpt>
      <trkpt lat="25.5074030" lon="-100.7227440">
        <ele>2219.9</ele>
        <time>2022-08-20T16:01:56Z</time>
      </trkpt>
      <trkpt lat="25.5074030" lon="-100.7227440">
        <ele>2219.9</ele>
        <time>2022-08-20T16:01:57Z</time>
      </trkpt>
      <trkpt lat="25.5074030" lon="-100.7227440">
        <ele>2219.9</ele>
        <time>2022-08-20T16:01:58Z</time>
      </trkpt>
      <trkpt lat="25.5074030" lon="-100.7227440">
        <ele>2219.9</ele>
        <time>2022-08-20T16:01:59Z</time>
      </trkpt>
      <trkpt lat="25.5074030" lon="-100.7227440">
        <ele>2219.9</ele>
        <time>2022-08-20T16:02:00Z</time>
      </trkpt>
      <trkpt lat="25.5074030" lon="-100.7227440">
        <ele>2219.9</ele>
        <time>2022-08-20T16:02:01Z</time>
      </trkpt>
      <trkpt lat="25.5074030" lon="-100.7227440">
        <ele>2219.9</ele>
        <time>2022-08-20T16:02:02Z</time>
      </trkpt>
      <trkpt lat="25.5074030" lon="-100.7227440">
        <ele>2219.9</ele>
        <time>2022-08-20T16:02:03Z</time>
      </trkpt>
      <trkpt lat="25.5074030" lon="-100.7227440">
        <ele>2219.9</ele>
        <time>2022-08-20T16:02:04Z</time>
      </trkpt>
      <trkpt lat="25.5074030" lon="-100.7227440">
        <ele>2219.9</ele>
        <time>2022-08-20T16:02:05Z</time>
      </trkpt>
      <trkpt lat="25.5074030" lon="-100.7227440">
        <ele>2219.9</ele>
        <time>2022-08-20T16:02:06Z</time>
      </trkpt>
      <trkpt lat="25.5074030" lon="-100.7227440">
        <ele>2219.9</ele>
        <time>2022-08-20T16:02:07Z</time>
      </trkpt>
      <trkpt lat="25.5074030" lon="-100.7227440">
        <ele>2219.9</ele>
        <time>2022-08-20T16:02:08Z</time>
      </trkpt>
      <trkpt lat="25.5074030" lon="-100.7227440">
        <ele>2219.9</ele>
        <time>2022-08-20T16:02:09Z</time>
      </trkpt>
      <trkpt lat="25.5074030" lon="-100.7227440">
        <ele>2219.9</ele>
        <time>2022-08-20T16:02:10Z</time>
      </trkpt>
      <trkpt lat="25.5074030" lon="-100.7227440">
        <ele>2219.9</ele>
        <time>2022-08-20T16:02:11Z</time>
      </trkpt>
      <trkpt lat="25.5074030" lon="-100.7227440">
        <ele>2219.9</ele>
        <time>2022-08-20T16:02:12Z</time>
      </trkpt>
      <trkpt lat="25.5074030" lon="-100.7227440">
        <ele>2219.9</ele>
        <time>2022-08-20T16:02:13Z</time>
      </trkpt>
      <trkpt lat="25.5074030" lon="-100.7227440">
        <ele>2219.9</ele>
        <time>2022-08-20T16:02:14Z</time>
      </trkpt>
      <trkpt lat="25.5074030" lon="-100.7227440">
        <ele>2219.9</ele>
        <time>2022-08-20T16:02:15Z</time>
      </trkpt>
      <trkpt lat="25.5074030" lon="-100.7227440">
        <ele>2219.9</ele>
        <time>2022-08-20T16:02:16Z</time>
      </trkpt>
      <trkpt lat="25.5074030" lon="-100.7227440">
        <ele>2219.9</ele>
        <time>2022-08-20T16:02:17Z</time>
      </trkpt>
      <trkpt lat="25.5074030" lon="-100.7227440">
        <ele>2219.9</ele>
        <time>2022-08-20T16:02:18Z</time>
      </trkpt>
      <trkpt lat="25.5074030" lon="-100.7227440">
        <ele>2219.9</ele>
        <time>2022-08-20T16:02:19Z</time>
      </trkpt>
      <trkpt lat="25.5074030" lon="-100.7227440">
        <ele>2219.9</ele>
        <time>2022-08-20T16:02:20Z</time>
      </trkpt>
      <trkpt lat="25.5074030" lon="-100.7227440">
        <ele>2219.9</ele>
        <time>2022-08-20T16:02:21Z</time>
      </trkpt>
      <trkpt lat="25.5074030" lon="-100.7227440">
        <ele>2219.9</ele>
        <time>2022-08-20T16:02:22Z</time>
      </trkpt>
      <trkpt lat="25.5074030" lon="-100.7227440">
        <ele>2219.9</ele>
        <time>2022-08-20T16:02:23Z</time>
      </trkpt>
      <trkpt lat="25.5074030" lon="-100.7227440">
        <ele>2219.9</ele>
        <time>2022-08-20T16:02:24Z</time>
      </trkpt>
      <trkpt lat="25.5074030" lon="-100.7227440">
        <ele>2219.9</ele>
        <time>2022-08-20T16:02:25Z</time>
      </trkpt>
      <trkpt lat="25.5074030" lon="-100.7227440">
        <ele>2219.9</ele>
        <time>2022-08-20T16:02:26Z</time>
      </trkpt>
      <trkpt lat="25.5074030" lon="-100.7227440">
        <ele>2219.9</ele>
        <time>2022-08-20T16:02:27Z</time>
      </trkpt>
      <trkpt lat="25.5074030" lon="-100.7227440">
        <ele>2219.9</ele>
        <time>2022-08-20T16:02:28Z</time>
      </trkpt>
      <trkpt lat="25.5074030" lon="-100.7227440">
        <ele>2219.9</ele>
        <time>2022-08-20T16:02:29Z</time>
      </trkpt>
      <trkpt lat="25.5074030" lon="-100.7227440">
        <ele>2219.9</ele>
        <time>2022-08-20T16:02:30Z</time>
      </trkpt>
      <trkpt lat="25.5074030" lon="-100.7227440">
        <ele>2219.9</ele>
        <time>2022-08-20T16:02:31Z</time>
      </trkpt>
      <trkpt lat="25.5074030" lon="-100.7227440">
        <ele>2219.9</ele>
        <time>2022-08-20T16:02:32Z</time>
      </trkpt>
      <trkpt lat="25.5074030" lon="-100.7227440">
        <ele>2219.9</ele>
        <time>2022-08-20T16:02:33Z</time>
      </trkpt>
      <trkpt lat="25.5074030" lon="-100.7227440">
        <ele>2219.9</ele>
        <time>2022-08-20T16:02:34Z</time>
      </trkpt>
      <trkpt lat="25.5074030" lon="-100.7227440">
        <ele>2219.9</ele>
        <time>2022-08-20T16:02:35Z</time>
      </trkpt>
      <trkpt lat="25.5074030" lon="-100.7227440">
        <ele>2219.8</ele>
        <time>2022-08-20T16:02:36Z</time>
      </trkpt>
      <trkpt lat="25.5074030" lon="-100.7227440">
        <ele>2219.8</ele>
        <time>2022-08-20T16:02:37Z</time>
      </trkpt>
      <trkpt lat="25.5074030" lon="-100.7227440">
        <ele>2219.8</ele>
        <time>2022-08-20T16:02:38Z</time>
      </trkpt>
      <trkpt lat="25.5074030" lon="-100.7227440">
        <ele>2219.8</ele>
        <time>2022-08-20T16:02:39Z</time>
      </trkpt>
      <trkpt lat="25.5074030" lon="-100.7227440">
        <ele>2219.8</ele>
        <time>2022-08-20T16:02:40Z</time>
      </trkpt>
      <trkpt lat="25.5074030" lon="-100.7227440">
        <ele>2219.8</ele>
        <time>2022-08-20T16:02:41Z</time>
      </trkpt>
      <trkpt lat="25.5074030" lon="-100.7227440">
        <ele>2219.8</ele>
        <time>2022-08-20T16:02:42Z</time>
      </trkpt>
      <trkpt lat="25.5074030" lon="-100.7227440">
        <ele>2219.8</ele>
        <time>2022-08-20T16:02:43Z</time>
      </trkpt>
      <trkpt lat="25.5074030" lon="-100.7227440">
        <ele>2219.8</ele>
        <time>2022-08-20T16:02:44Z</time>
      </trkpt>
      <trkpt lat="25.5074030" lon="-100.7227440">
        <ele>2219.8</ele>
        <time>2022-08-20T16:02:45Z</time>
      </trkpt>
      <trkpt lat="25.5074030" lon="-100.7227440">
        <ele>2219.8</ele>
        <time>2022-08-20T16:02:46Z</time>
      </trkpt>
      <trkpt lat="25.5074030" lon="-100.7227440">
        <ele>2219.8</ele>
        <time>2022-08-20T16:02:47Z</time>
      </trkpt>
      <trkpt lat="25.5074030" lon="-100.7227440">
        <ele>2219.8</ele>
        <time>2022-08-20T16:02:48Z</time>
      </trkpt>
      <trkpt lat="25.5074030" lon="-100.7227440">
        <ele>2219.8</ele>
        <time>2022-08-20T16:02:49Z</time>
      </trkpt>
      <trkpt lat="25.5074030" lon="-100.7227440">
        <ele>2219.8</ele>
        <time>2022-08-20T16:02:50Z</time>
      </trkpt>
      <trkpt lat="25.5074030" lon="-100.7227440">
        <ele>2219.8</ele>
        <time>2022-08-20T16:02:51Z</time>
      </trkpt>
      <trkpt lat="25.5074030" lon="-100.7227440">
        <ele>2219.8</ele>
        <time>2022-08-20T16:02:52Z</time>
      </trkpt>
      <trkpt lat="25.5074030" lon="-100.7227440">
        <ele>2219.8</ele>
        <time>2022-08-20T16:02:53Z</time>
      </trkpt>
      <trkpt lat="25.5074030" lon="-100.7227440">
        <ele>2219.8</ele>
        <time>2022-08-20T16:02:54Z</time>
      </trkpt>
      <trkpt lat="25.5074030" lon="-100.7227440">
        <ele>2219.8</ele>
        <time>2022-08-20T16:02:55Z</time>
      </trkpt>
      <trkpt lat="25.5074030" lon="-100.7227440">
        <ele>2219.8</ele>
        <time>2022-08-20T16:02:56Z</time>
      </trkpt>
      <trkpt lat="25.5074030" lon="-100.7227440">
        <ele>2219.8</ele>
        <time>2022-08-20T16:02:57Z</time>
      </trkpt>
      <trkpt lat="25.5074030" lon="-100.7227440">
        <ele>2219.8</ele>
        <time>2022-08-20T16:02:58Z</time>
      </trkpt>
      <trkpt lat="25.5074030" lon="-100.7227440">
        <ele>2219.8</ele>
        <time>2022-08-20T16:02:59Z</time>
      </trkpt>
      <trkpt lat="25.5074030" lon="-100.7227440">
        <ele>2219.8</ele>
        <time>2022-08-20T16:03:00Z</time>
      </trkpt>
      <trkpt lat="25.5074030" lon="-100.7227440">
        <ele>2219.8</ele>
        <time>2022-08-20T16:03:01Z</time>
      </trkpt>
      <trkpt lat="25.5074030" lon="-100.7227440">
        <ele>2219.8</ele>
        <time>2022-08-20T16:03:02Z</time>
      </trkpt>
      <trkpt lat="25.5074020" lon="-100.7227430">
        <ele>2219.8</ele>
        <time>2022-08-20T16:03:03Z</time>
      </trkpt>
      <trkpt lat="25.5074020" lon="-100.7227410">
        <ele>2219.8</ele>
        <time>2022-08-20T16:03:04Z</time>
      </trkpt>
      <trkpt lat="25.5074030" lon="-100.7227400">
        <ele>2219.8</ele>
        <time>2022-08-20T16:03:05Z</time>
      </trkpt>
      <trkpt lat="25.5074040" lon="-100.7227410">
        <ele>2219.8</ele>
        <time>2022-08-20T16:03:06Z</time>
      </trkpt>
      <trkpt lat="25.5074040" lon="-100.7227420">
        <ele>2219.8</ele>
        <time>2022-08-20T16:03:07Z</time>
      </trkpt>
      <trkpt lat="25.5074040" lon="-100.7227430">
        <ele>2219.8</ele>
        <time>2022-08-20T16:03:08Z</time>
      </trkpt>
      <trkpt lat="25.5074030" lon="-100.7227430">
        <ele>2219.8</ele>
        <time>2022-08-20T16:03:09Z</time>
      </trkpt>
      <trkpt lat="25.5074030" lon="-100.7227430">
        <ele>2219.8</ele>
        <time>2022-08-20T16:03:10Z</time>
      </trkpt>
      <trkpt lat="25.5074030" lon="-100.7227440">
        <ele>2219.8</ele>
        <time>2022-08-20T16:03:11Z</time>
      </trkpt>
      <trkpt lat="25.5074030" lon="-100.7227440">
        <ele>2219.8</ele>
        <time>2022-08-20T16:03:12Z</time>
      </trkpt>
      <trkpt lat="25.5074030" lon="-100.7227440">
        <ele>2219.8</ele>
        <time>2022-08-20T16:03:13Z</time>
      </trkpt>
      <trkpt lat="25.5074030" lon="-100.7227440">
        <ele>2219.8</ele>
        <time>2022-08-20T16:03:14Z</time>
      </trkpt>
      <trkpt lat="25.5074030" lon="-100.7227430">
        <ele>2219.8</ele>
        <time>2022-08-20T16:03:15Z</time>
      </trkpt>
      <trkpt lat="25.5074040" lon="-100.7227440">
        <ele>2219.8</ele>
        <time>2022-08-20T16:03:16Z</time>
      </trkpt>
      <trkpt lat="25.5074040" lon="-100.7227440">
        <ele>2219.8</ele>
        <time>2022-08-20T16:03:17Z</time>
      </trkpt>
      <trkpt lat="25.5074050" lon="-100.7227440">
        <ele>2219.7</ele>
        <time>2022-08-20T16:03:18Z</time>
      </trkpt>
      <trkpt lat="25.5074060" lon="-100.7227450">
        <ele>2219.7</ele>
        <time>2022-08-20T16:03:20Z</time>
      </trkpt>
      <trkpt lat="25.5074070" lon="-100.7227430">
        <ele>2219.7</ele>
        <time>2022-08-20T16:03:21Z</time>
      </trkpt>
      <trkpt lat="25.5074080" lon="-100.7227420">
        <ele>2219.7</ele>
        <time>2022-08-20T16:03:22Z</time>
      </trkpt>
      <trkpt lat="25.5074080" lon="-100.7227400">
        <ele>2219.7</ele>
        <time>2022-08-20T16:03:23Z</time>
      </trkpt>
      <trkpt lat="25.5074070" lon="-100.7227400">
        <ele>2219.7</ele>
        <time>2022-08-20T16:03:24Z</time>
      </trkpt>
      <trkpt lat="25.5074050" lon="-100.7227400">
        <ele>2219.7</ele>
        <time>2022-08-20T16:03:25Z</time>
      </trkpt>
      <trkpt lat="25.5074040" lon="-100.7227400">
        <ele>2219.7</ele>
        <time>2022-08-20T16:03:26Z</time>
      </trkpt>
      <trkpt lat="25.5074040" lon="-100.7227400">
        <ele>2219.7</ele>
        <time>2022-08-20T16:03:27Z</time>
      </trkpt>
      <trkpt lat="25.5074030" lon="-100.7227410">
        <ele>2219.7</ele>
        <time>2022-08-20T16:03:28Z</time>
      </trkpt>
      <trkpt lat="25.5074030" lon="-100.7227400">
        <ele>2219.7</ele>
        <time>2022-08-20T16:03:29Z</time>
      </trkpt>
      <trkpt lat="25.5074030" lon="-100.7227400">
        <ele>2219.7</ele>
        <time>2022-08-20T16:03:30Z</time>
      </trkpt>
      <trkpt lat="25.5074020" lon="-100.7227400">
        <ele>2219.7</ele>
        <time>2022-08-20T16:03:31Z</time>
      </trkpt>
      <trkpt lat="25.5074020" lon="-100.7227390">
        <ele>2219.7</ele>
        <time>2022-08-20T16:03:32Z</time>
      </trkpt>
      <trkpt lat="25.5074010" lon="-100.7227390">
        <ele>2219.7</ele>
        <time>2022-08-20T16:03:33Z</time>
      </trkpt>
      <trkpt lat="25.5074010" lon="-100.7227390">
        <ele>2219.7</ele>
        <time>2022-08-20T16:03:34Z</time>
      </trkpt>
      <trkpt lat="25.5074000" lon="-100.7227390">
        <ele>2219.7</ele>
        <time>2022-08-20T16:03:35Z</time>
      </trkpt>
      <trkpt lat="25.5074000" lon="-100.7227380">
        <ele>2219.7</ele>
        <time>2022-08-20T16:03:36Z</time>
      </trkpt>
      <trkpt lat="25.5074010" lon="-100.7227400">
        <ele>2219.7</ele>
        <time>2022-08-20T16:03:37Z</time>
      </trkpt>
      <trkpt lat="25.5074010" lon="-100.7227410">
        <ele>2219.7</ele>
        <time>2022-08-20T16:03:38Z</time>
      </trkpt>
      <trkpt lat="25.5074010" lon="-100.7227410">
        <ele>2219.7</ele>
        <time>2022-08-20T16:03:39Z</time>
      </trkpt>
      <trkpt lat="25.5074010" lon="-100.7227420">
        <ele>2219.7</ele>
        <time>2022-08-20T16:03:40Z</time>
      </trkpt>
      <trkpt lat="25.5074010" lon="-100.7227420">
        <ele>2219.7</ele>
        <time>2022-08-20T16:03:41Z</time>
      </trkpt>
      <trkpt lat="25.5074010" lon="-100.7227420">
        <ele>2219.7</ele>
        <time>2022-08-20T16:03:42Z</time>
      </trkpt>
      <trkpt lat="25.5074010" lon="-100.7227420">
        <ele>2219.7</ele>
        <time>2022-08-20T16:03:43Z</time>
      </trkpt>
      <trkpt lat="25.5074010" lon="-100.7227420">
        <ele>2219.7</ele>
        <time>2022-08-20T16:03:44Z</time>
      </trkpt>
      <trkpt lat="25.5074010" lon="-100.7227420">
        <ele>2219.7</ele>
        <time>2022-08-20T16:03:45Z</time>
      </trkpt>
      <trkpt lat="25.5074010" lon="-100.7227420">
        <ele>2219.7</ele>
        <time>2022-08-20T16:03:46Z</time>
      </trkpt>
      <trkpt lat="25.5074010" lon="-100.7227420">
        <ele>2219.7</ele>
        <time>2022-08-20T16:03:47Z</time>
      </trkpt>
      <trkpt lat="25.5074010" lon="-100.7227420">
        <ele>2219.7</ele>
        <time>2022-08-20T16:03:48Z</time>
      </trkpt>
      <trkpt lat="25.5074010" lon="-100.7227420">
        <ele>2219.7</ele>
        <time>2022-08-20T16:03:49Z</time>
      </trkpt>
      <trkpt lat="25.5074010" lon="-100.7227420">
        <ele>2219.7</ele>
        <time>2022-08-20T16:03:50Z</time>
      </trkpt>
      <trkpt lat="25.5074010" lon="-100.7227420">
        <ele>2219.7</ele>
        <time>2022-08-20T16:03:51Z</time>
      </trkpt>
      <trkpt lat="25.5074010" lon="-100.7227420">
        <ele>2219.7</ele>
        <time>2022-08-20T16:03:52Z</time>
      </trkpt>
      <trkpt lat="25.5074010" lon="-100.7227420">
        <ele>2219.7</ele>
        <time>2022-08-20T16:03:53Z</time>
      </trkpt>
      <trkpt lat="25.5074010" lon="-100.7227420">
        <ele>2219.7</ele>
        <time>2022-08-20T16:03:54Z</time>
      </trkpt>
      <trkpt lat="25.5074010" lon="-100.7227420">
        <ele>2219.7</ele>
        <time>2022-08-20T16:03:55Z</time>
      </trkpt>
      <trkpt lat="25.5074010" lon="-100.7227420">
        <ele>2219.7</ele>
        <time>2022-08-20T16:03:56Z</time>
      </trkpt>
      <trkpt lat="25.5074010" lon="-100.7227420">
        <ele>2219.7</ele>
        <time>2022-08-20T16:03:57Z</time>
      </trkpt>
      <trkpt lat="25.5074010" lon="-100.7227420">
        <ele>2219.7</ele>
        <time>2022-08-20T16:03:58Z</time>
      </trkpt>
      <trkpt lat="25.5074010" lon="-100.7227420">
        <ele>2219.7</ele>
        <time>2022-08-20T16:03:59Z</time>
      </trkpt>
      <trkpt lat="25.5074010" lon="-100.7227420">
        <ele>2219.7</ele>
        <time>2022-08-20T16:04:00Z</time>
      </trkpt>
      <trkpt lat="25.5074010" lon="-100.7227420">
        <ele>2219.7</ele>
        <time>2022-08-20T16:04:01Z</time>
      </trkpt>
      <trkpt lat="25.5074010" lon="-100.7227420">
        <ele>2219.7</ele>
        <time>2022-08-20T16:04:02Z</time>
      </trkpt>
      <trkpt lat="25.5074010" lon="-100.7227420">
        <ele>2219.7</ele>
        <time>2022-08-20T16:04:03Z</time>
      </trkpt>
      <trkpt lat="25.5074010" lon="-100.7227420">
        <ele>2219.7</ele>
        <time>2022-08-20T16:04:04Z</time>
      </trkpt>
      <trkpt lat="25.5074010" lon="-100.7227420">
        <ele>2219.7</ele>
        <time>2022-08-20T16:04:05Z</time>
      </trkpt>
      <trkpt lat="25.5074010" lon="-100.7227420">
        <ele>2219.7</ele>
        <time>2022-08-20T16:04:06Z</time>
      </trkpt>
      <trkpt lat="25.5074010" lon="-100.7227420">
        <ele>2219.7</ele>
        <time>2022-08-20T16:04:07Z</time>
      </trkpt>
      <trkpt lat="25.5074010" lon="-100.7227420">
        <ele>2219.7</ele>
        <time>2022-08-20T16:04:08Z</time>
      </trkpt>
      <trkpt lat="25.5074010" lon="-100.7227420">
        <ele>2219.7</ele>
        <time>2022-08-20T16:04:09Z</time>
      </trkpt>
      <trkpt lat="25.5074010" lon="-100.7227420">
        <ele>2219.7</ele>
        <time>2022-08-20T16:04:10Z</time>
      </trkpt>
      <trkpt lat="25.5074010" lon="-100.7227420">
        <ele>2219.7</ele>
        <time>2022-08-20T16:04:11Z</time>
      </trkpt>
      <trkpt lat="25.5074010" lon="-100.7227420">
        <ele>2219.7</ele>
        <time>2022-08-20T16:04:12Z</time>
      </trkpt>
      <trkpt lat="25.5074010" lon="-100.7227420">
        <ele>2219.7</ele>
        <time>2022-08-20T16:04:13Z</time>
      </trkpt>
      <trkpt lat="25.5074010" lon="-100.7227420">
        <ele>2219.7</ele>
        <time>2022-08-20T16:04:14Z</time>
      </trkpt>
      <trkpt lat="25.5074010" lon="-100.7227420">
        <ele>2219.7</ele>
        <time>2022-08-20T16:04:15Z</time>
      </trkpt>
      <trkpt lat="25.5074010" lon="-100.7227420">
        <ele>2219.7</ele>
        <time>2022-08-20T16:04:16Z</time>
      </trkpt>
      <trkpt lat="25.5074010" lon="-100.7227420">
        <ele>2219.7</ele>
        <time>2022-08-20T16:04:17Z</time>
      </trkpt>
      <trkpt lat="25.5074010" lon="-100.7227420">
        <ele>2219.7</ele>
        <time>2022-08-20T16:04:18Z</time>
      </trkpt>
      <trkpt lat="25.5074010" lon="-100.7227420">
        <ele>2219.7</ele>
        <time>2022-08-20T16:04:19Z</time>
      </trkpt>
      <trkpt lat="25.5074010" lon="-100.7227420">
        <ele>2219.7</ele>
        <time>2022-08-20T16:04:20Z</time>
      </trkpt>
      <trkpt lat="25.5074010" lon="-100.7227420">
        <ele>2219.7</ele>
        <time>2022-08-20T16:04:21Z</time>
      </trkpt>
      <trkpt lat="25.5074010" lon="-100.7227420">
        <ele>2219.7</ele>
        <time>2022-08-20T16:04:22Z</time>
      </trkpt>
      <trkpt lat="25.5074010" lon="-100.7227420">
        <ele>2219.7</ele>
        <time>2022-08-20T16:04:23Z</time>
      </trkpt>
      <trkpt lat="25.5074010" lon="-100.7227420">
        <ele>2219.7</ele>
        <time>2022-08-20T16:04:24Z</time>
      </trkpt>
      <trkpt lat="25.5074010" lon="-100.7227420">
        <ele>2219.7</ele>
        <time>2022-08-20T16:04:25Z</time>
      </trkpt>
      <trkpt lat="25.5074010" lon="-100.7227420">
        <ele>2219.7</ele>
        <time>2022-08-20T16:04:26Z</time>
      </trkpt>
      <trkpt lat="25.5074010" lon="-100.7227420">
        <ele>2219.7</ele>
        <time>2022-08-20T16:04:27Z</time>
      </trkpt>
      <trkpt lat="25.5074010" lon="-100.7227420">
        <ele>2219.7</ele>
        <time>2022-08-20T16:04:28Z</time>
      </trkpt>
      <trkpt lat="25.5074010" lon="-100.7227420">
        <ele>2219.7</ele>
        <time>2022-08-20T16:04:29Z</time>
      </trkpt>
      <trkpt lat="25.5074010" lon="-100.7227420">
        <ele>2219.7</ele>
        <time>2022-08-20T16:04:30Z</time>
      </trkpt>
      <trkpt lat="25.5074010" lon="-100.7227420">
        <ele>2219.7</ele>
        <time>2022-08-20T16:04:31Z</time>
      </trkpt>
      <trkpt lat="25.5074010" lon="-100.7227420">
        <ele>2219.7</ele>
        <time>2022-08-20T16:04:32Z</time>
      </trkpt>
      <trkpt lat="25.5074010" lon="-100.7227420">
        <ele>2219.7</ele>
        <time>2022-08-20T16:04:33Z</time>
      </trkpt>
      <trkpt lat="25.5074010" lon="-100.7227420">
        <ele>2219.7</ele>
        <time>2022-08-20T16:04:34Z</time>
      </trkpt>
      <trkpt lat="25.5074010" lon="-100.7227420">
        <ele>2219.7</ele>
        <time>2022-08-20T16:04:35Z</time>
      </trkpt>
      <trkpt lat="25.5074010" lon="-100.7227420">
        <ele>2219.7</ele>
        <time>2022-08-20T16:04:36Z</time>
      </trkpt>
      <trkpt lat="25.5074010" lon="-100.7227420">
        <ele>2219.7</ele>
        <time>2022-08-20T16:04:37Z</time>
      </trkpt>
      <trkpt lat="25.5074010" lon="-100.7227420">
        <ele>2219.7</ele>
        <time>2022-08-20T16:04:38Z</time>
      </trkpt>
      <trkpt lat="25.5074010" lon="-100.7227420">
        <ele>2219.7</ele>
        <time>2022-08-20T16:04:39Z</time>
      </trkpt>
      <trkpt lat="25.5074010" lon="-100.7227420">
        <ele>2219.7</ele>
        <time>2022-08-20T16:04:40Z</time>
      </trkpt>
      <trkpt lat="25.5074010" lon="-100.7227420">
        <ele>2219.7</ele>
        <time>2022-08-20T16:04:41Z</time>
      </trkpt>
      <trkpt lat="25.5074010" lon="-100.7227420">
        <ele>2219.7</ele>
        <time>2022-08-20T16:04:42Z</time>
      </trkpt>
      <trkpt lat="25.5074010" lon="-100.7227420">
        <ele>2219.7</ele>
        <time>2022-08-20T16:04:43Z</time>
      </trkpt>
      <trkpt lat="25.5074010" lon="-100.7227420">
        <ele>2219.7</ele>
        <time>2022-08-20T16:04:44Z</time>
      </trkpt>
      <trkpt lat="25.5074010" lon="-100.7227420">
        <ele>2219.7</ele>
        <time>2022-08-20T16:04:45Z</time>
      </trkpt>
      <trkpt lat="25.5074010" lon="-100.7227420">
        <ele>2219.7</ele>
        <time>2022-08-20T16:04:46Z</time>
      </trkpt>
      <trkpt lat="25.5074010" lon="-100.7227420">
        <ele>2219.7</ele>
        <time>2022-08-20T16:04:47Z</time>
      </trkpt>
      <trkpt lat="25.5074010" lon="-100.7227420">
        <ele>2219.7</ele>
        <time>2022-08-20T16:04:48Z</time>
      </trkpt>
      <trkpt lat="25.5074010" lon="-100.7227420">
        <ele>2219.7</ele>
        <time>2022-08-20T16:04:49Z</time>
      </trkpt>
      <trkpt lat="25.5074010" lon="-100.7227420">
        <ele>2219.7</ele>
        <time>2022-08-20T16:04:50Z</time>
      </trkpt>
      <trkpt lat="25.5074010" lon="-100.7227420">
        <ele>2219.7</ele>
        <time>2022-08-20T16:04:51Z</time>
      </trkpt>
      <trkpt lat="25.5074010" lon="-100.7227420">
        <ele>2219.7</ele>
        <time>2022-08-20T16:04:52Z</time>
      </trkpt>
      <trkpt lat="25.5074010" lon="-100.7227420">
        <ele>2219.7</ele>
        <time>2022-08-20T16:04:53Z</time>
      </trkpt>
      <trkpt lat="25.5074010" lon="-100.7227420">
        <ele>2219.7</ele>
        <time>2022-08-20T16:04:54Z</time>
      </trkpt>
      <trkpt lat="25.5074010" lon="-100.7227420">
        <ele>2219.7</ele>
        <time>2022-08-20T16:04:55Z</time>
      </trkpt>
      <trkpt lat="25.5074010" lon="-100.7227420">
        <ele>2219.7</ele>
        <time>2022-08-20T16:04:56Z</time>
      </trkpt>
      <trkpt lat="25.5074010" lon="-100.7227420">
        <ele>2219.7</ele>
        <time>2022-08-20T16:04:57Z</time>
      </trkpt>
      <trkpt lat="25.5074010" lon="-100.7227420">
        <ele>2219.7</ele>
        <time>2022-08-20T16:04:58Z</time>
      </trkpt>
      <trkpt lat="25.5074010" lon="-100.7227420">
        <ele>2219.7</ele>
        <time>2022-08-20T16:04:59Z</time>
      </trkpt>
      <trkpt lat="25.5074010" lon="-100.7227420">
        <ele>2219.7</ele>
        <time>2022-08-20T16:05:00Z</time>
      </trkpt>
      <trkpt lat="25.5074010" lon="-100.7227420">
        <ele>2219.7</ele>
        <time>2022-08-20T16:05:01Z</time>
      </trkpt>
      <trkpt lat="25.5074010" lon="-100.7227420">
        <ele>2219.7</ele>
        <time>2022-08-20T16:05:02Z</time>
      </trkpt>
      <trkpt lat="25.5074010" lon="-100.7227420">
        <ele>2219.7</ele>
        <time>2022-08-20T16:05:03Z</time>
      </trkpt>
      <trkpt lat="25.5074010" lon="-100.7227420">
        <ele>2219.7</ele>
        <time>2022-08-20T16:05:04Z</time>
      </trkpt>
      <trkpt lat="25.5074010" lon="-100.7227420">
        <ele>2219.7</ele>
        <time>2022-08-20T16:05:05Z</time>
      </trkpt>
      <trkpt lat="25.5074010" lon="-100.7227420">
        <ele>2219.7</ele>
        <time>2022-08-20T16:05:06Z</time>
      </trkpt>
      <trkpt lat="25.5074010" lon="-100.7227420">
        <ele>2219.7</ele>
        <time>2022-08-20T16:05:07Z</time>
      </trkpt>
      <trkpt lat="25.5074010" lon="-100.7227420">
        <ele>2219.7</ele>
        <time>2022-08-20T16:05:08Z</time>
      </trkpt>
      <trkpt lat="25.5074010" lon="-100.7227420">
        <ele>2219.7</ele>
        <time>2022-08-20T16:05:09Z</time>
      </trkpt>
      <trkpt lat="25.5074010" lon="-100.7227420">
        <ele>2219.7</ele>
        <time>2022-08-20T16:05:10Z</time>
      </trkpt>
      <trkpt lat="25.5074010" lon="-100.7227420">
        <ele>2219.7</ele>
        <time>2022-08-20T16:05:11Z</time>
      </trkpt>
      <trkpt lat="25.5074010" lon="-100.7227420">
        <ele>2219.7</ele>
        <time>2022-08-20T16:05:12Z</time>
      </trkpt>
      <trkpt lat="25.5074010" lon="-100.7227420">
        <ele>2219.7</ele>
        <time>2022-08-20T16:05:13Z</time>
      </trkpt>
      <trkpt lat="25.5074010" lon="-100.7227420">
        <ele>2219.7</ele>
        <time>2022-08-20T16:05:14Z</time>
      </trkpt>
      <trkpt lat="25.5074100" lon="-100.7227410">
        <ele>2219.6</ele>
        <time>2022-08-20T16:05:15Z</time>
      </trkpt>
      <trkpt lat="25.5074180" lon="-100.7227430">
        <ele>2219.6</ele>
        <time>2022-08-20T16:05:16Z</time>
      </trkpt>
      <trkpt lat="25.5074170" lon="-100.7227430">
        <ele>2219.5</ele>
        <time>2022-08-20T16:05:18Z</time>
      </trkpt>
      <trkpt lat="25.5074180" lon="-100.7227440">
        <ele>2219.5</ele>
        <time>2022-08-20T16:05:19Z</time>
      </trkpt>
      <trkpt lat="25.5074200" lon="-100.7227470">
        <ele>2219.5</ele>
        <time>2022-08-20T16:05:20Z</time>
      </trkpt>
      <trkpt lat="25.5074210" lon="-100.7227490">
        <ele>2219.5</ele>
        <time>2022-08-20T16:05:21Z</time>
      </trkpt>
      <trkpt lat="25.5074230" lon="-100.7227480">
        <ele>2219.5</ele>
        <time>2022-08-20T16:05:22Z</time>
      </trkpt>
      <trkpt lat="25.5074240" lon="-100.7227440">
        <ele>2219.5</ele>
        <time>2022-08-20T16:05:23Z</time>
      </trkpt>
      <trkpt lat="25.5074280" lon="-100.7227430">
        <ele>2219.5</ele>
        <time>2022-08-20T16:05:24Z</time>
      </trkpt>
      <trkpt lat="25.5074330" lon="-100.7227410">
        <ele>2219.4</ele>
        <time>2022-08-20T16:05:25Z</time>
      </trkpt>
      <trkpt lat="25.5074360" lon="-100.7227390">
        <ele>2219.4</ele>
        <time>2022-08-20T16:05:27Z</time>
      </trkpt>
      <trkpt lat="25.5074370" lon="-100.7227360">
        <ele>2219.4</ele>
        <time>2022-08-20T16:05:28Z</time>
      </trkpt>
      <trkpt lat="25.5074380" lon="-100.7227330">
        <ele>2219.4</ele>
        <time>2022-08-20T16:05:29Z</time>
      </trkpt>
      <trkpt lat="25.5074390" lon="-100.7227320">
        <ele>2219.4</ele>
        <time>2022-08-20T16:05:30Z</time>
      </trkpt>
      <trkpt lat="25.5074400" lon="-100.7227320">
        <ele>2219.4</ele>
        <time>2022-08-20T16:05:31Z</time>
      </trkpt>
      <trkpt lat="25.5074400" lon="-100.7227320">
        <ele>2219.4</ele>
        <time>2022-08-20T16:05:32Z</time>
      </trkpt>
      <trkpt lat="25.5074380" lon="-100.7227350">
        <ele>2219.3</ele>
        <time>2022-08-20T16:05:33Z</time>
      </trkpt>
      <trkpt lat="25.5074360" lon="-100.7227370">
        <ele>2219.3</ele>
        <time>2022-08-20T16:05:34Z</time>
      </trkpt>
      <trkpt lat="25.5074350" lon="-100.7227400">
        <ele>2219.3</ele>
        <time>2022-08-20T16:05:35Z</time>
      </trkpt>
      <trkpt lat="25.5074340" lon="-100.7227410">
        <ele>2219.3</ele>
        <time>2022-08-20T16:05:36Z</time>
      </trkpt>
      <trkpt lat="25.5074330" lon="-100.7227430">
        <ele>2219.3</ele>
        <time>2022-08-20T16:05:37Z</time>
      </trkpt>
      <trkpt lat="25.5074340" lon="-100.7227440">
        <ele>2219.3</ele>
        <time>2022-08-20T16:05:38Z</time>
      </trkpt>
      <trkpt lat="25.5074340" lon="-100.7227460">
        <ele>2219.2</ele>
        <time>2022-08-20T16:05:39Z</time>
      </trkpt>
      <trkpt lat="25.5074340" lon="-100.7227470">
        <ele>2219.2</ele>
        <time>2022-08-20T16:05:40Z</time>
      </trkpt>
      <trkpt lat="25.5074340" lon="-100.7227480">
        <ele>2219.2</ele>
        <time>2022-08-20T16:05:41Z</time>
      </trkpt>
      <trkpt lat="25.5074350" lon="-100.7227490">
        <ele>2219.2</ele>
        <time>2022-08-20T16:05:42Z</time>
      </trkpt>
      <trkpt lat="25.5074340" lon="-100.7227490">
        <ele>2219.2</ele>
        <time>2022-08-20T16:05:43Z</time>
      </trkpt>
      <trkpt lat="25.5074340" lon="-100.7227490">
        <ele>2219.2</ele>
        <time>2022-08-20T16:05:44Z</time>
      </trkpt>
      <trkpt lat="25.5074320" lon="-100.7227480">
        <ele>2219.2</ele>
        <time>2022-08-20T16:05:45Z</time>
      </trkpt>
      <trkpt lat="25.5074310" lon="-100.7227470">
        <ele>2219.2</ele>
        <time>2022-08-20T16:05:46Z</time>
      </trkpt>
      <trkpt lat="25.5074300" lon="-100.7227470">
        <ele>2219.2</ele>
        <time>2022-08-20T16:05:47Z</time>
      </trkpt>
      <trkpt lat="25.5074300" lon="-100.7227470">
        <ele>2219.2</ele>
        <time>2022-08-20T16:05:48Z</time>
      </trkpt>
      <trkpt lat="25.5074300" lon="-100.7227470">
        <ele>2219.2</ele>
        <time>2022-08-20T16:05:49Z</time>
      </trkpt>
      <trkpt lat="25.5074300" lon="-100.7227470">
        <ele>2219.2</ele>
        <time>2022-08-20T16:05:50Z</time>
      </trkpt>
      <trkpt lat="25.5074300" lon="-100.7227470">
        <ele>2219.2</ele>
        <time>2022-08-20T16:05:51Z</time>
      </trkpt>
      <trkpt lat="25.5074300" lon="-100.7227470">
        <ele>2219.2</ele>
        <time>2022-08-20T16:05:52Z</time>
      </trkpt>
      <trkpt lat="25.5074300" lon="-100.7227470">
        <ele>2219.2</ele>
        <time>2022-08-20T16:05:53Z</time>
      </trkpt>
      <trkpt lat="25.5074300" lon="-100.7227470">
        <ele>2219.2</ele>
        <time>2022-08-20T16:05:54Z</time>
      </trkpt>
      <trkpt lat="25.5074300" lon="-100.7227470">
        <ele>2219.2</ele>
        <time>2022-08-20T16:05:55Z</time>
      </trkpt>
      <trkpt lat="25.5074300" lon="-100.7227470">
        <ele>2219.2</ele>
        <time>2022-08-20T16:05:56Z</time>
      </trkpt>
      <trkpt lat="25.5074300" lon="-100.7227470">
        <ele>2219.2</ele>
        <time>2022-08-20T16:05:57Z</time>
      </trkpt>
      <trkpt lat="25.5074300" lon="-100.7227470">
        <ele>2219.2</ele>
        <time>2022-08-20T16:05:58Z</time>
      </trkpt>
      <trkpt lat="25.5074330" lon="-100.7227460">
        <ele>2219.2</ele>
        <time>2022-08-20T16:05:59Z</time>
      </trkpt>
      <trkpt lat="25.5074350" lon="-100.7227440">
        <ele>2219.1</ele>
        <time>2022-08-20T16:06:00Z</time>
      </trkpt>
      <trkpt lat="25.5074360" lon="-100.7227430">
        <ele>2219.1</ele>
        <time>2022-08-20T16:06:01Z</time>
      </trkpt>
      <trkpt lat="25.5074360" lon="-100.7227420">
        <ele>2219.1</ele>
        <time>2022-08-20T16:06:02Z</time>
      </trkpt>
      <trkpt lat="25.5074370" lon="-100.7227410">
        <ele>2219.1</ele>
        <time>2022-08-20T16:06:03Z</time>
      </trkpt>
      <trkpt lat="25.5074370" lon="-100.7227440">
        <ele>2219.1</ele>
        <time>2022-08-20T16:06:04Z</time>
      </trkpt>
      <trkpt lat="25.5074400" lon="-100.7227440">
        <ele>2219.1</ele>
        <time>2022-08-20T16:06:06Z</time>
      </trkpt>
      <trkpt lat="25.5074410" lon="-100.7227430">
        <ele>2219.1</ele>
        <time>2022-08-20T16:06:07Z</time>
      </trkpt>
      <trkpt lat="25.5074420" lon="-100.7227430">
        <ele>2219.1</ele>
        <time>2022-08-20T16:06:08Z</time>
      </trkpt>
      <trkpt lat="25.5074420" lon="-100.7227430">
        <ele>2219.1</ele>
        <time>2022-08-20T16:06:09Z</time>
      </trkpt>
      <trkpt lat="25.5074410" lon="-100.7227440">
        <ele>2219.1</ele>
        <time>2022-08-20T16:06:10Z</time>
      </trkpt>
      <trkpt lat="25.5074400" lon="-100.7227440">
        <ele>2219.1</ele>
        <time>2022-08-20T16:06:11Z</time>
      </trkpt>
      <trkpt lat="25.5074400" lon="-100.7227460">
        <ele>2219.0</ele>
        <time>2022-08-20T16:06:12Z</time>
      </trkpt>
      <trkpt lat="25.5074390" lon="-100.7227470">
        <ele>2219.0</ele>
        <time>2022-08-20T16:06:13Z</time>
      </trkpt>
      <trkpt lat="25.5074390" lon="-100.7227470">
        <ele>2219.0</ele>
        <time>2022-08-20T16:06:14Z</time>
      </trkpt>
      <trkpt lat="25.5074380" lon="-100.7227470">
        <ele>2219.0</ele>
        <time>2022-08-20T16:06:15Z</time>
      </trkpt>
      <trkpt lat="25.5074370" lon="-100.7227470">
        <ele>2219.0</ele>
        <time>2022-08-20T16:06:17Z</time>
      </trkpt>
      <trkpt lat="25.5074370" lon="-100.7227470">
        <ele>2219.0</ele>
        <time>2022-08-20T16:06:18Z</time>
      </trkpt>
      <trkpt lat="25.5074370" lon="-100.7227470">
        <ele>2219.0</ele>
        <time>2022-08-20T16:06:19Z</time>
      </trkpt>
      <trkpt lat="25.5074370" lon="-100.7227470">
        <ele>2219.0</ele>
        <time>2022-08-20T16:06:20Z</time>
      </trkpt>
      <trkpt lat="25.5074360" lon="-100.7227470">
        <ele>2219.0</ele>
        <time>2022-08-20T16:06:21Z</time>
      </trkpt>
      <trkpt lat="25.5074360" lon="-100.7227460">
        <ele>2219.0</ele>
        <time>2022-08-20T16:06:22Z</time>
      </trkpt>
      <trkpt lat="25.5074350" lon="-100.7227460">
        <ele>2219.0</ele>
        <time>2022-08-20T16:06:23Z</time>
      </trkpt>
      <trkpt lat="25.5074350" lon="-100.7227460">
        <ele>2219.0</ele>
        <time>2022-08-20T16:06:24Z</time>
      </trkpt>
      <trkpt lat="25.5074350" lon="-100.7227460">
        <ele>2219.0</ele>
        <time>2022-08-20T16:06:25Z</time>
      </trkpt>
      <trkpt lat="25.5074350" lon="-100.7227450">
        <ele>2219.0</ele>
        <time>2022-08-20T16:06:26Z</time>
      </trkpt>
      <trkpt lat="25.5074350" lon="-100.7227460">
        <ele>2219.0</ele>
        <time>2022-08-20T16:06:27Z</time>
      </trkpt>
      <trkpt lat="25.5074360" lon="-100.7227470">
        <ele>2219.0</ele>
        <time>2022-08-20T16:06:28Z</time>
      </trkpt>
      <trkpt lat="25.5074360" lon="-100.7227470">
        <ele>2219.0</ele>
        <time>2022-08-20T16:06:29Z</time>
      </trkpt>
      <trkpt lat="25.5074360" lon="-100.7227480">
        <ele>2219.0</ele>
        <time>2022-08-20T16:06:30Z</time>
      </trkpt>
      <trkpt lat="25.5074360" lon="-100.7227480">
        <ele>2219.0</ele>
        <time>2022-08-20T16:06:31Z</time>
      </trkpt>
      <trkpt lat="25.5074360" lon="-100.7227480">
        <ele>2219.0</ele>
        <time>2022-08-20T16:06:32Z</time>
      </trkpt>
      <trkpt lat="25.5074360" lon="-100.7227490">
        <ele>2219.0</ele>
        <time>2022-08-20T16:06:33Z</time>
      </trkpt>
      <trkpt lat="25.5074340" lon="-100.7227510">
        <ele>2218.9</ele>
        <time>2022-08-20T16:06:34Z</time>
      </trkpt>
      <trkpt lat="25.5074340" lon="-100.7227520">
        <ele>2218.9</ele>
        <time>2022-08-20T16:06:35Z</time>
      </trkpt>
      <trkpt lat="25.5074350" lon="-100.7227520">
        <ele>2218.9</ele>
        <time>2022-08-20T16:06:36Z</time>
      </trkpt>
      <trkpt lat="25.5074360" lon="-100.7227480">
        <ele>2218.9</ele>
        <time>2022-08-20T16:06:37Z</time>
      </trkpt>
      <trkpt lat="25.5074350" lon="-100.7227470">
        <ele>2218.9</ele>
        <time>2022-08-20T16:06:38Z</time>
      </trkpt>
      <trkpt lat="25.5074340" lon="-100.7227440">
        <ele>2218.9</ele>
        <time>2022-08-20T16:06:39Z</time>
      </trkpt>
      <trkpt lat="25.5074320" lon="-100.7227410">
        <ele>2218.9</ele>
        <time>2022-08-20T16:06:40Z</time>
      </trkpt>
      <trkpt lat="25.5074320" lon="-100.7227390">
        <ele>2218.8</ele>
        <time>2022-08-20T16:06:42Z</time>
      </trkpt>
      <trkpt lat="25.5074300" lon="-100.7227400">
        <ele>2218.8</ele>
        <time>2022-08-20T16:06:44Z</time>
      </trkpt>
      <trkpt lat="25.5074280" lon="-100.7227430">
        <ele>2218.8</ele>
        <time>2022-08-20T16:06:45Z</time>
      </trkpt>
      <trkpt lat="25.5074310" lon="-100.7227470">
        <ele>2218.8</ele>
        <time>2022-08-20T16:06:46Z</time>
      </trkpt>
      <trkpt lat="25.5074340" lon="-100.7227470">
        <ele>2218.7</ele>
        <time>2022-08-20T16:06:48Z</time>
      </trkpt>
      <trkpt lat="25.5074360" lon="-100.7227470">
        <ele>2218.7</ele>
        <time>2022-08-20T16:06:49Z</time>
      </trkpt>
      <trkpt lat="25.5074380" lon="-100.7227470">
        <ele>2218.7</ele>
        <time>2022-08-20T16:06:50Z</time>
      </trkpt>
      <trkpt lat="25.5074380" lon="-100.7227470">
        <ele>2218.7</ele>
        <time>2022-08-20T16:06:51Z</time>
      </trkpt>
      <trkpt lat="25.5074390" lon="-100.7227470">
        <ele>2218.7</ele>
        <time>2022-08-20T16:06:52Z</time>
      </trkpt>
      <trkpt lat="25.5074410" lon="-100.7227470">
        <ele>2218.7</ele>
        <time>2022-08-20T16:06:53Z</time>
      </trkpt>
      <trkpt lat="25.5074420" lon="-100.7227470">
        <ele>2218.7</ele>
        <time>2022-08-20T16:06:54Z</time>
      </trkpt>
      <trkpt lat="25.5074430" lon="-100.7227470">
        <ele>2218.7</ele>
        <time>2022-08-20T16:06:55Z</time>
      </trkpt>
      <trkpt lat="25.5074450" lon="-100.7227460">
        <ele>2218.7</ele>
        <time>2022-08-20T16:06:56Z</time>
      </trkpt>
      <trkpt lat="25.5074450" lon="-100.7227460">
        <ele>2218.7</ele>
        <time>2022-08-20T16:06:57Z</time>
      </trkpt>
      <trkpt lat="25.5074460" lon="-100.7227470">
        <ele>2218.7</ele>
        <time>2022-08-20T16:06:58Z</time>
      </trkpt>
      <trkpt lat="25.5074470" lon="-100.7227490">
        <ele>2218.6</ele>
        <time>2022-08-20T16:06:59Z</time>
      </trkpt>
      <trkpt lat="25.5074470" lon="-100.7227520">
        <ele>2218.6</ele>
        <time>2022-08-20T16:07:00Z</time>
      </trkpt>
      <trkpt lat="25.5074450" lon="-100.7227540">
        <ele>2218.6</ele>
        <time>2022-08-20T16:07:01Z</time>
      </trkpt>
      <trkpt lat="25.5074430" lon="-100.7227560">
        <ele>2218.6</ele>
        <time>2022-08-20T16:07:02Z</time>
      </trkpt>
      <trkpt lat="25.5074410" lon="-100.7227570">
        <ele>2218.6</ele>
        <time>2022-08-20T16:07:03Z</time>
      </trkpt>
      <trkpt lat="25.5074410" lon="-100.7227570">
        <ele>2218.6</ele>
        <time>2022-08-20T16:07:04Z</time>
      </trkpt>
      <trkpt lat="25.5074410" lon="-100.7227570">
        <ele>2218.6</ele>
        <time>2022-08-20T16:07:05Z</time>
      </trkpt>
      <trkpt lat="25.5074410" lon="-100.7227570">
        <ele>2218.6</ele>
        <time>2022-08-20T16:07:06Z</time>
      </trkpt>
      <trkpt lat="25.5074420" lon="-100.7227570">
        <ele>2218.5</ele>
        <time>2022-08-20T16:07:07Z</time>
      </trkpt>
      <trkpt lat="25.5074420" lon="-100.7227580">
        <ele>2218.5</ele>
        <time>2022-08-20T16:07:08Z</time>
      </trkpt>
      <trkpt lat="25.5074410" lon="-100.7227540">
        <ele>2218.5</ele>
        <time>2022-08-20T16:07:09Z</time>
      </trkpt>
      <trkpt lat="25.5074400" lon="-100.7227510">
        <ele>2218.5</ele>
        <time>2022-08-20T16:07:10Z</time>
      </trkpt>
      <trkpt lat="25.5074390" lon="-100.7227490">
        <ele>2218.5</ele>
        <time>2022-08-20T16:07:11Z</time>
      </trkpt>
      <trkpt lat="25.5074390" lon="-100.7227490">
        <ele>2218.5</ele>
        <time>2022-08-20T16:07:12Z</time>
      </trkpt>
      <trkpt lat="25.5074380" lon="-100.7227480">
        <ele>2218.5</ele>
        <time>2022-08-20T16:07:13Z</time>
      </trkpt>
      <trkpt lat="25.5074370" lon="-100.7227480">
        <ele>2218.4</ele>
        <time>2022-08-20T16:07:14Z</time>
      </trkpt>
      <trkpt lat="25.5074370" lon="-100.7227480">
        <ele>2218.4</ele>
        <time>2022-08-20T16:07:15Z</time>
      </trkpt>
      <trkpt lat="25.5074370" lon="-100.7227480">
        <ele>2218.4</ele>
        <time>2022-08-20T16:07:16Z</time>
      </trkpt>
      <trkpt lat="25.5074370" lon="-100.7227490">
        <ele>2218.4</ele>
        <time>2022-08-20T16:07:17Z</time>
      </trkpt>
      <trkpt lat="25.5074380" lon="-100.7227490">
        <ele>2218.4</ele>
        <time>2022-08-20T16:07:18Z</time>
      </trkpt>
      <trkpt lat="25.5074390" lon="-100.7227500">
        <ele>2218.4</ele>
        <time>2022-08-20T16:07:19Z</time>
      </trkpt>
      <trkpt lat="25.5074400" lon="-100.7227500">
        <ele>2218.4</ele>
        <time>2022-08-20T16:07:20Z</time>
      </trkpt>
      <trkpt lat="25.5074400" lon="-100.7227510">
        <ele>2218.4</ele>
        <time>2022-08-20T16:07:21Z</time>
      </trkpt>
      <trkpt lat="25.5074390" lon="-100.7227540">
        <ele>2218.4</ele>
        <time>2022-08-20T16:07:22Z</time>
      </trkpt>
      <trkpt lat="25.5074400" lon="-100.7227580">
        <ele>2218.4</ele>
        <time>2022-08-20T16:07:23Z</time>
      </trkpt>
      <trkpt lat="25.5074390" lon="-100.7227670">
        <ele>2218.3</ele>
        <time>2022-08-20T16:07:24Z</time>
      </trkpt>
      <trkpt lat="25.5074390" lon="-100.7227730">
        <ele>2218.2</ele>
        <time>2022-08-20T16:07:25Z</time>
      </trkpt>
      <trkpt lat="25.5074400" lon="-100.7227780">
        <ele>2218.2</ele>
        <time>2022-08-20T16:07:26Z</time>
      </trkpt>
      <trkpt lat="25.5074410" lon="-100.7227790">
        <ele>2218.2</ele>
        <time>2022-08-20T16:07:27Z</time>
      </trkpt>
      <trkpt lat="25.5074420" lon="-100.7227800">
        <ele>2218.2</ele>
        <time>2022-08-20T16:07:28Z</time>
      </trkpt>
      <trkpt lat="25.5074440" lon="-100.7227810">
        <ele>2218.2</ele>
        <time>2022-08-20T16:07:29Z</time>
      </trkpt>
      <trkpt lat="25.5074450" lon="-100.7227820">
        <ele>2218.2</ele>
        <time>2022-08-20T16:07:30Z</time>
      </trkpt>
      <trkpt lat="25.5074460" lon="-100.7227830">
        <ele>2218.1</ele>
        <time>2022-08-20T16:07:31Z</time>
      </trkpt>
      <trkpt lat="25.5074470" lon="-100.7227840">
        <ele>2218.1</ele>
        <time>2022-08-20T16:07:32Z</time>
      </trkpt>
      <trkpt lat="25.5074480" lon="-100.7227850">
        <ele>2218.1</ele>
        <time>2022-08-20T16:07:33Z</time>
      </trkpt>
      <trkpt lat="25.5074490" lon="-100.7227860">
        <ele>2218.1</ele>
        <time>2022-08-20T16:07:34Z</time>
      </trkpt>
      <trkpt lat="25.5074500" lon="-100.7227860">
        <ele>2218.1</ele>
        <time>2022-08-20T16:07:35Z</time>
      </trkpt>
      <trkpt lat="25.5074510" lon="-100.7227870">
        <ele>2218.1</ele>
        <time>2022-08-20T16:07:36Z</time>
      </trkpt>
      <trkpt lat="25.5074520" lon="-100.7227880">
        <ele>2218.1</ele>
        <time>2022-08-20T16:07:37Z</time>
      </trkpt>
      <trkpt lat="25.5074530" lon="-100.7227890">
        <ele>2218.1</ele>
        <time>2022-08-20T16:07:38Z</time>
      </trkpt>
      <trkpt lat="25.5074540" lon="-100.7227900">
        <ele>2218.1</ele>
        <time>2022-08-20T16:07:39Z</time>
      </trkpt>
      <trkpt lat="25.5074550" lon="-100.7227910">
        <ele>2218.1</ele>
        <time>2022-08-20T16:07:40Z</time>
      </trkpt>
      <trkpt lat="25.5074560" lon="-100.7227920">
        <ele>2218.0</ele>
        <time>2022-08-20T16:07:41Z</time>
      </trkpt>
      <trkpt lat="25.5074580" lon="-100.7227930">
        <ele>2218.0</ele>
        <time>2022-08-20T16:07:42Z</time>
      </trkpt>
      <trkpt lat="25.5074590" lon="-100.7227940">
        <ele>2218.0</ele>
        <time>2022-08-20T16:07:43Z</time>
      </trkpt>
      <trkpt lat="25.5074600" lon="-100.7227950">
        <ele>2218.0</ele>
        <time>2022-08-20T16:07:44Z</time>
      </trkpt>
      <trkpt lat="25.5074610" lon="-100.7227960">
        <ele>2218.0</ele>
        <time>2022-08-20T16:07:45Z</time>
      </trkpt>
      <trkpt lat="25.5074620" lon="-100.7227970">
        <ele>2218.0</ele>
        <time>2022-08-20T16:07:46Z</time>
      </trkpt>
      <trkpt lat="25.5074630" lon="-100.7227980">
        <ele>2218.0</ele>
        <time>2022-08-20T16:07:47Z</time>
      </trkpt>
      <trkpt lat="25.5074640" lon="-100.7227990">
        <ele>2218.0</ele>
        <time>2022-08-20T16:07:48Z</time>
      </trkpt>
      <trkpt lat="25.5074650" lon="-100.7228000">
        <ele>2217.9</ele>
        <time>2022-08-20T16:07:49Z</time>
      </trkpt>
      <trkpt lat="25.5074660" lon="-100.7228000">
        <ele>2217.9</ele>
        <time>2022-08-20T16:07:50Z</time>
      </trkpt>
      <trkpt lat="25.5074670" lon="-100.7228010">
        <ele>2217.9</ele>
        <time>2022-08-20T16:07:51Z</time>
      </trkpt>
      <trkpt lat="25.5074680" lon="-100.7228020">
        <ele>2217.9</ele>
        <time>2022-08-20T16:07:52Z</time>
      </trkpt>
      <trkpt lat="25.5074690" lon="-100.7228030">
        <ele>2217.9</ele>
        <time>2022-08-20T16:07:53Z</time>
      </trkpt>
      <trkpt lat="25.5074710" lon="-100.7228040">
        <ele>2217.9</ele>
        <time>2022-08-20T16:07:54Z</time>
      </trkpt>
      <trkpt lat="25.5074720" lon="-100.7228050">
        <ele>2217.9</ele>
        <time>2022-08-20T16:07:55Z</time>
      </trkpt>
      <trkpt lat="25.5074730" lon="-100.7228060">
        <ele>2217.9</ele>
        <time>2022-08-20T16:07:56Z</time>
      </trkpt>
      <trkpt lat="25.5074740" lon="-100.7228070">
        <ele>2217.9</ele>
        <time>2022-08-20T16:07:57Z</time>
      </trkpt>
      <trkpt lat="25.5074750" lon="-100.7228080">
        <ele>2217.8</ele>
        <time>2022-08-20T16:07:58Z</time>
      </trkpt>
      <trkpt lat="25.5074760" lon="-100.7228090">
        <ele>2217.8</ele>
        <time>2022-08-20T16:07:59Z</time>
      </trkpt>
      <trkpt lat="25.5074770" lon="-100.7228100">
        <ele>2217.8</ele>
        <time>2022-08-20T16:08:00Z</time>
      </trkpt>
      <trkpt lat="25.5074780" lon="-100.7228110">
        <ele>2217.8</ele>
        <time>2022-08-20T16:08:01Z</time>
      </trkpt>
      <trkpt lat="25.5074790" lon="-100.7228120">
        <ele>2217.8</ele>
        <time>2022-08-20T16:08:02Z</time>
      </trkpt>
      <trkpt lat="25.5074800" lon="-100.7228130">
        <ele>2217.8</ele>
        <time>2022-08-20T16:08:03Z</time>
      </trkpt>
      <trkpt lat="25.5074810" lon="-100.7228140">
        <ele>2217.8</ele>
        <time>2022-08-20T16:08:04Z</time>
      </trkpt>
      <trkpt lat="25.5074820" lon="-100.7228150">
        <ele>2217.8</ele>
        <time>2022-08-20T16:08:06Z</time>
      </trkpt>
      <trkpt lat="25.5074840" lon="-100.7228150">
        <ele>2217.7</ele>
        <time>2022-08-20T16:08:07Z</time>
      </trkpt>
      <trkpt lat="25.5074850" lon="-100.7228160">
        <ele>2217.7</ele>
        <time>2022-08-20T16:08:08Z</time>
      </trkpt>
      <trkpt lat="25.5074860" lon="-100.7228170">
        <ele>2217.7</ele>
        <time>2022-08-20T16:08:09Z</time>
      </trkpt>
      <trkpt lat="25.5074870" lon="-100.7228180">
        <ele>2217.7</ele>
        <time>2022-08-20T16:08:10Z</time>
      </trkpt>
      <trkpt lat="25.5074880" lon="-100.7228190">
        <ele>2217.7</ele>
        <time>2022-08-20T16:08:11Z</time>
      </trkpt>
      <trkpt lat="25.5074890" lon="-100.7228200">
        <ele>2217.7</ele>
        <time>2022-08-20T16:08:12Z</time>
      </trkpt>
      <trkpt lat="25.5074900" lon="-100.7228210">
        <ele>2217.7</ele>
        <time>2022-08-20T16:08:13Z</time>
      </trkpt>
      <trkpt lat="25.5074910" lon="-100.7228220">
        <ele>2217.7</ele>
        <time>2022-08-20T16:08:14Z</time>
      </trkpt>
      <trkpt lat="25.5074920" lon="-100.7228230">
        <ele>2217.7</ele>
        <time>2022-08-20T16:08:16Z</time>
      </trkpt>
      <trkpt lat="25.5074930" lon="-100.7228240">
        <ele>2217.6</ele>
        <time>2022-08-20T16:08:17Z</time>
      </trkpt>
      <trkpt lat="25.5074940" lon="-100.7228250">
        <ele>2217.6</ele>
        <time>2022-08-20T16:08:18Z</time>
      </trkpt>
      <trkpt lat="25.5074950" lon="-100.7228260">
        <ele>2217.6</ele>
        <time>2022-08-20T16:08:19Z</time>
      </trkpt>
      <trkpt lat="25.5075070" lon="-100.7228580">
        <ele>2217.3</ele>
        <time>2022-08-20T16:08:20Z</time>
      </trkpt>
      <trkpt lat="25.5075090" lon="-100.7228720">
        <ele>2217.2</ele>
        <time>2022-08-20T16:08:21Z</time>
      </trkpt>
      <trkpt lat="25.5075210" lon="-100.7229090">
        <ele>2216.9</ele>
        <time>2022-08-20T16:08:22Z</time>
      </trkpt>
      <trkpt lat="25.5075350" lon="-100.7229410">
        <ele>2216.6</ele>
        <time>2022-08-20T16:08:23Z</time>
      </trkpt>
      <trkpt lat="25.5076400" lon="-100.7231480">
        <ele>2214.2</ele>
        <time>2022-08-20T16:08:25Z</time>
      </trkpt>
      <trkpt lat="25.5076610" lon="-100.7231780">
        <ele>2213.8</ele>
        <time>2022-08-20T16:08:26Z</time>
      </trkpt>
      <trkpt lat="25.5077040" lon="-100.7232350">
        <ele>2212.9</ele>
        <time>2022-08-20T16:08:27Z</time>
      </trkpt>
      <trkpt lat="25.5077480" lon="-100.7232920">
        <ele>2212.1</ele>
        <time>2022-08-20T16:08:28Z</time>
      </trkpt>
      <trkpt lat="25.5077910" lon="-100.7233510">
        <ele>2211.2</ele>
        <time>2022-08-20T16:08:29Z</time>
      </trkpt>
      <trkpt lat="25.5078330" lon="-100.7234160">
        <ele>2210.3</ele>
        <time>2022-08-20T16:08:30Z</time>
      </trkpt>
      <trkpt lat="25.5078780" lon="-100.7234860">
        <ele>2209.4</ele>
        <time>2022-08-20T16:08:31Z</time>
      </trkpt>
      <trkpt lat="25.5079240" lon="-100.7235560">
        <ele>2208.5</ele>
        <time>2022-08-20T16:08:32Z</time>
      </trkpt>
      <trkpt lat="25.5079710" lon="-100.7236260">
        <ele>2207.5</ele>
        <time>2022-08-20T16:08:33Z</time>
      </trkpt>
      <trkpt lat="25.5080180" lon="-100.7236930">
        <ele>2206.5</ele>
        <time>2022-08-20T16:08:34Z</time>
      </trkpt>
      <trkpt lat="25.5080600" lon="-100.7237520">
        <ele>2205.6</ele>
        <time>2022-08-20T16:08:35Z</time>
      </trkpt>
      <trkpt lat="25.5080950" lon="-100.7238000">
        <ele>2204.9</ele>
        <time>2022-08-20T16:08:36Z</time>
      </trkpt>
      <trkpt lat="25.5081140" lon="-100.7238240">
        <ele>2204.5</ele>
        <time>2022-08-20T16:08:37Z</time>
      </trkpt>
      <trkpt lat="25.5081320" lon="-100.7238520">
        <ele>2204.1</ele>
        <time>2022-08-20T16:08:38Z</time>
      </trkpt>
      <trkpt lat="25.5081370" lon="-100.7238590">
        <ele>2204.0</ele>
        <time>2022-08-20T16:08:39Z</time>
      </trkpt>
      <trkpt lat="25.5081510" lon="-100.7238880">
        <ele>2203.6</ele>
        <time>2022-08-20T16:08:40Z</time>
      </trkpt>
      <trkpt lat="25.5081560" lon="-100.7239000">
        <ele>2203.5</ele>
        <time>2022-08-20T16:08:41Z</time>
      </trkpt>
      <trkpt lat="25.5081600" lon="-100.7239390">
        <ele>2203.0</ele>
        <time>2022-08-20T16:08:42Z</time>
      </trkpt>
      <trkpt lat="25.5081540" lon="-100.7239540">
        <ele>2202.8</ele>
        <time>2022-08-20T16:08:43Z</time>
      </trkpt>
      <trkpt lat="25.5081670" lon="-100.7240060">
        <ele>2202.1</ele>
        <time>2022-08-20T16:08:44Z</time>
      </trkpt>
      <trkpt lat="25.5081780" lon="-100.7240610">
        <ele>2201.5</ele>
        <time>2022-08-20T16:08:45Z</time>
      </trkpt>
      <trkpt lat="25.5081870" lon="-100.7241020">
        <ele>2201.0</ele>
        <time>2022-08-20T16:08:46Z</time>
      </trkpt>
      <trkpt lat="25.5081950" lon="-100.7241500">
        <ele>2200.4</ele>
        <time>2022-08-20T16:08:48Z</time>
      </trkpt>
      <trkpt lat="25.5082000" lon="-100.7241840">
        <ele>2200.1</ele>
        <time>2022-08-20T16:08:49Z</time>
      </trkpt>
      <trkpt lat="25.5082110" lon="-100.7242280">
        <ele>2199.6</ele>
        <time>2022-08-20T16:08:50Z</time>
      </trkpt>
      <trkpt lat="25.5082120" lon="-100.7242800">
        <ele>2199.1</ele>
        <time>2022-08-20T16:08:52Z</time>
      </trkpt>
      <trkpt lat="25.5082130" lon="-100.7243130">
        <ele>2198.8</ele>
        <time>2022-08-20T16:08:53Z</time>
      </trkpt>
      <trkpt lat="25.5082130" lon="-100.7243450">
        <ele>2198.4</ele>
        <time>2022-08-20T16:08:54Z</time>
      </trkpt>
      <trkpt lat="25.5082140" lon="-100.7243530">
        <ele>2198.4</ele>
        <time>2022-08-20T16:08:55Z</time>
      </trkpt>
      <trkpt lat="25.5082190" lon="-100.7243580">
        <ele>2198.3</ele>
        <time>2022-08-20T16:08:56Z</time>
      </trkpt>
      <trkpt lat="25.5082210" lon="-100.7243600">
        <ele>2198.3</ele>
        <time>2022-08-20T16:08:57Z</time>
      </trkpt>
      <trkpt lat="25.5082230" lon="-100.7243620">
        <ele>2198.2</ele>
        <time>2022-08-20T16:08:59Z</time>
      </trkpt>
      <trkpt lat="25.5082240" lon="-100.7243640">
        <ele>2198.2</ele>
        <time>2022-08-20T16:09:00Z</time>
      </trkpt>
      <trkpt lat="25.5082260" lon="-100.7243650">
        <ele>2198.2</ele>
        <time>2022-08-20T16:09:02Z</time>
      </trkpt>
      <trkpt lat="25.5082270" lon="-100.7243670">
        <ele>2198.1</ele>
        <time>2022-08-20T16:09:03Z</time>
      </trkpt>
      <trkpt lat="25.5082290" lon="-100.7243690">
        <ele>2198.1</ele>
        <time>2022-08-20T16:09:04Z</time>
      </trkpt>
      <trkpt lat="25.5082310" lon="-100.7243700">
        <ele>2198.1</ele>
        <time>2022-08-20T16:09:05Z</time>
      </trkpt>
      <trkpt lat="25.5082320" lon="-100.7243720">
        <ele>2198.1</ele>
        <time>2022-08-20T16:09:06Z</time>
      </trkpt>
      <trkpt lat="25.5082340" lon="-100.7243740">
        <ele>2198.0</ele>
        <time>2022-08-20T16:09:07Z</time>
      </trkpt>
      <trkpt lat="25.5082350" lon="-100.7243760">
        <ele>2198.0</ele>
        <time>2022-08-20T16:09:08Z</time>
      </trkpt>
      <trkpt lat="25.5082370" lon="-100.7243770">
        <ele>2198.0</ele>
        <time>2022-08-20T16:09:09Z</time>
      </trkpt>
      <trkpt lat="25.5082380" lon="-100.7243790">
        <ele>2198.0</ele>
        <time>2022-08-20T16:09:11Z</time>
      </trkpt>
      <trkpt lat="25.5082400" lon="-100.7243810">
        <ele>2197.9</ele>
        <time>2022-08-20T16:09:12Z</time>
      </trkpt>
      <trkpt lat="25.5082420" lon="-100.7243820">
        <ele>2197.9</ele>
        <time>2022-08-20T16:09:13Z</time>
      </trkpt>
      <trkpt lat="25.5082430" lon="-100.7243840">
        <ele>2197.9</ele>
        <time>2022-08-20T16:09:14Z</time>
      </trkpt>
      <trkpt lat="25.5082450" lon="-100.7243860">
        <ele>2197.9</ele>
        <time>2022-08-20T16:09:16Z</time>
      </trkpt>
      <trkpt lat="25.5082460" lon="-100.7243870">
        <ele>2197.8</ele>
        <time>2022-08-20T16:09:17Z</time>
      </trkpt>
      <trkpt lat="25.5082480" lon="-100.7243890">
        <ele>2197.8</ele>
        <time>2022-08-20T16:09:18Z</time>
      </trkpt>
      <trkpt lat="25.5082500" lon="-100.7243910">
        <ele>2197.8</ele>
        <time>2022-08-20T16:09:19Z</time>
      </trkpt>
      <trkpt lat="25.5082510" lon="-100.7243930">
        <ele>2197.8</ele>
        <time>2022-08-20T16:09:20Z</time>
      </trkpt>
      <trkpt lat="25.5082530" lon="-100.7243940">
        <ele>2197.7</ele>
        <time>2022-08-20T16:09:21Z</time>
      </trkpt>
      <trkpt lat="25.5082540" lon="-100.7243960">
        <ele>2197.7</ele>
        <time>2022-08-20T16:09:22Z</time>
      </trkpt>
      <trkpt lat="25.5082560" lon="-100.7243980">
        <ele>2197.7</ele>
        <time>2022-08-20T16:09:23Z</time>
      </trkpt>
      <trkpt lat="25.5082580" lon="-100.7243990">
        <ele>2197.7</ele>
        <time>2022-08-20T16:09:24Z</time>
      </trkpt>
      <trkpt lat="25.5082590" lon="-100.7244010">
        <ele>2197.6</ele>
        <time>2022-08-20T16:09:25Z</time>
      </trkpt>
      <trkpt lat="25.5082610" lon="-100.7244030">
        <ele>2197.6</ele>
        <time>2022-08-20T16:09:26Z</time>
      </trkpt>
      <trkpt lat="25.5082620" lon="-100.7244040">
        <ele>2197.6</ele>
        <time>2022-08-20T16:09:27Z</time>
      </trkpt>
      <trkpt lat="25.5082640" lon="-100.7244060">
        <ele>2197.6</ele>
        <time>2022-08-20T16:09:28Z</time>
      </trkpt>
      <trkpt lat="25.5082660" lon="-100.7244080">
        <ele>2197.5</ele>
        <time>2022-08-20T16:09:30Z</time>
      </trkpt>
      <trkpt lat="25.5082670" lon="-100.7244100">
        <ele>2197.5</ele>
        <time>2022-08-20T16:09:31Z</time>
      </trkpt>
      <trkpt lat="25.5082690" lon="-100.7244110">
        <ele>2197.5</ele>
        <time>2022-08-20T16:09:32Z</time>
      </trkpt>
      <trkpt lat="25.5082700" lon="-100.7244130">
        <ele>2197.4</ele>
        <time>2022-08-20T16:09:33Z</time>
      </trkpt>
      <trkpt lat="25.5082720" lon="-100.7244150">
        <ele>2197.4</ele>
        <time>2022-08-20T16:09:34Z</time>
      </trkpt>
      <trkpt lat="25.5082740" lon="-100.7244160">
        <ele>2197.4</ele>
        <time>2022-08-20T16:09:35Z</time>
      </trkpt>
      <trkpt lat="25.5082750" lon="-100.7244180">
        <ele>2197.4</ele>
        <time>2022-08-20T16:09:36Z</time>
      </trkpt>
      <trkpt lat="25.5082770" lon="-100.7244200">
        <ele>2197.3</ele>
        <time>2022-08-20T16:09:37Z</time>
      </trkpt>
      <trkpt lat="25.5082780" lon="-100.7244220">
        <ele>2197.3</ele>
        <time>2022-08-20T16:09:38Z</time>
      </trkpt>
      <trkpt lat="25.5082800" lon="-100.7244230">
        <ele>2197.3</ele>
        <time>2022-08-20T16:09:39Z</time>
      </trkpt>
      <trkpt lat="25.5082810" lon="-100.7244250">
        <ele>2197.3</ele>
        <time>2022-08-20T16:09:40Z</time>
      </trkpt>
      <trkpt lat="25.5082830" lon="-100.7244270">
        <ele>2197.2</ele>
        <time>2022-08-20T16:09:41Z</time>
      </trkpt>
      <trkpt lat="25.5082850" lon="-100.7244280">
        <ele>2197.2</ele>
        <time>2022-08-20T16:09:42Z</time>
      </trkpt>
      <trkpt lat="25.5082860" lon="-100.7244300">
        <ele>2197.2</ele>
        <time>2022-08-20T16:09:43Z</time>
      </trkpt>
      <trkpt lat="25.5082880" lon="-100.7244320">
        <ele>2197.2</ele>
        <time>2022-08-20T16:09:44Z</time>
      </trkpt>
      <trkpt lat="25.5082890" lon="-100.7244330">
        <ele>2197.1</ele>
        <time>2022-08-20T16:09:45Z</time>
      </trkpt>
      <trkpt lat="25.5082910" lon="-100.7244350">
        <ele>2197.1</ele>
        <time>2022-08-20T16:09:46Z</time>
      </trkpt>
      <trkpt lat="25.5082930" lon="-100.7244370">
        <ele>2197.1</ele>
        <time>2022-08-20T16:09:47Z</time>
      </trkpt>
      <trkpt lat="25.5082940" lon="-100.7244390">
        <ele>2197.1</ele>
        <time>2022-08-20T16:09:48Z</time>
      </trkpt>
      <trkpt lat="25.5082960" lon="-100.7244400">
        <ele>2197.0</ele>
        <time>2022-08-20T16:09:49Z</time>
      </trkpt>
      <trkpt lat="25.5082970" lon="-100.7244420">
        <ele>2197.0</ele>
        <time>2022-08-20T16:09:50Z</time>
      </trkpt>
      <trkpt lat="25.5082990" lon="-100.7244440">
        <ele>2197.0</ele>
        <time>2022-08-20T16:09:51Z</time>
      </trkpt>
      <trkpt lat="25.5083010" lon="-100.7244450">
        <ele>2197.0</ele>
        <time>2022-08-20T16:09:52Z</time>
      </trkpt>
      <trkpt lat="25.5083020" lon="-100.7244470">
        <ele>2196.9</ele>
        <time>2022-08-20T16:09:53Z</time>
      </trkpt>
      <trkpt lat="25.5083040" lon="-100.7244490">
        <ele>2196.9</ele>
        <time>2022-08-20T16:09:54Z</time>
      </trkpt>
      <trkpt lat="25.5083050" lon="-100.7244500">
        <ele>2196.9</ele>
        <time>2022-08-20T16:09:55Z</time>
      </trkpt>
      <trkpt lat="25.5083070" lon="-100.7244520">
        <ele>2196.9</ele>
        <time>2022-08-20T16:09:56Z</time>
      </trkpt>
      <trkpt lat="25.5083090" lon="-100.7244540">
        <ele>2196.8</ele>
        <time>2022-08-20T16:09:57Z</time>
      </trkpt>
      <trkpt lat="25.5083100" lon="-100.7244560">
        <ele>2196.8</ele>
        <time>2022-08-20T16:09:58Z</time>
      </trkpt>
      <trkpt lat="25.5083120" lon="-100.7244570">
        <ele>2196.8</ele>
        <time>2022-08-20T16:09:59Z</time>
      </trkpt>
      <trkpt lat="25.5083130" lon="-100.7244590">
        <ele>2196.8</ele>
        <time>2022-08-20T16:10:00Z</time>
      </trkpt>
      <trkpt lat="25.5083150" lon="-100.7244610">
        <ele>2196.7</ele>
        <time>2022-08-20T16:10:01Z</time>
      </trkpt>
      <trkpt lat="25.5083170" lon="-100.7244620">
        <ele>2196.7</ele>
        <time>2022-08-20T16:10:03Z</time>
      </trkpt>
      <trkpt lat="25.5083180" lon="-100.7244640">
        <ele>2196.7</ele>
        <time>2022-08-20T16:10:04Z</time>
      </trkpt>
      <trkpt lat="25.5083200" lon="-100.7244660">
        <ele>2196.7</ele>
        <time>2022-08-20T16:10:05Z</time>
      </trkpt>
      <trkpt lat="25.5083210" lon="-100.7244680">
        <ele>2196.6</ele>
        <time>2022-08-20T16:10:07Z</time>
      </trkpt>
      <trkpt lat="25.5083230" lon="-100.7244690">
        <ele>2196.6</ele>
        <time>2022-08-20T16:10:08Z</time>
      </trkpt>
      <trkpt lat="25.5083240" lon="-100.7244710">
        <ele>2196.6</ele>
        <time>2022-08-20T16:10:09Z</time>
      </trkpt>
      <trkpt lat="25.5083260" lon="-100.7244730">
        <ele>2196.6</ele>
        <time>2022-08-20T16:10:10Z</time>
      </trkpt>
      <trkpt lat="25.5083280" lon="-100.7244740">
        <ele>2196.5</ele>
        <time>2022-08-20T16:10:11Z</time>
      </trkpt>
      <trkpt lat="25.5083290" lon="-100.7244760">
        <ele>2196.5</ele>
        <time>2022-08-20T16:10:13Z</time>
      </trkpt>
      <trkpt lat="25.5083310" lon="-100.7244780">
        <ele>2196.5</ele>
        <time>2022-08-20T16:10:15Z</time>
      </trkpt>
      <trkpt lat="25.5083800" lon="-100.7245840">
        <ele>2195.4</ele>
        <time>2022-08-20T16:10:16Z</time>
      </trkpt>
      <trkpt lat="25.5084070" lon="-100.7246710">
        <ele>2194.5</ele>
        <time>2022-08-20T16:10:17Z</time>
      </trkpt>
      <trkpt lat="25.5084260" lon="-100.7247500">
        <ele>2193.6</ele>
        <time>2022-08-20T16:10:18Z</time>
      </trkpt>
      <trkpt lat="25.5084440" lon="-100.7248180">
        <ele>2192.8</ele>
        <time>2022-08-20T16:10:19Z</time>
      </trkpt>
      <trkpt lat="25.5084600" lon="-100.7248740">
        <ele>2192.1</ele>
        <time>2022-08-20T16:10:20Z</time>
      </trkpt>
      <trkpt lat="25.5084740" lon="-100.7249230">
        <ele>2191.5</ele>
        <time>2022-08-20T16:10:21Z</time>
      </trkpt>
      <trkpt lat="25.5084860" lon="-100.7249760">
        <ele>2190.9</ele>
        <time>2022-08-20T16:10:22Z</time>
      </trkpt>
      <trkpt lat="25.5085000" lon="-100.7250320">
        <ele>2190.2</ele>
        <time>2022-08-20T16:10:23Z</time>
      </trkpt>
      <trkpt lat="25.5085180" lon="-100.7250930">
        <ele>2189.4</ele>
        <time>2022-08-20T16:10:24Z</time>
      </trkpt>
      <trkpt lat="25.5085400" lon="-100.7251600">
        <ele>2188.6</ele>
        <time>2022-08-20T16:10:25Z</time>
      </trkpt>
      <trkpt lat="25.5085660" lon="-100.7252350">
        <ele>2187.8</ele>
        <time>2022-08-20T16:10:26Z</time>
      </trkpt>
      <trkpt lat="25.5085950" lon="-100.7253100">
        <ele>2187.1</ele>
        <time>2022-08-20T16:10:27Z</time>
      </trkpt>
      <trkpt lat="25.5086270" lon="-100.7253850">
        <ele>2186.4</ele>
        <time>2022-08-20T16:10:28Z</time>
      </trkpt>
      <trkpt lat="25.5086660" lon="-100.7254620">
        <ele>2185.7</ele>
        <time>2022-08-20T16:10:29Z</time>
      </trkpt>
      <trkpt lat="25.5087060" lon="-100.7255360">
        <ele>2184.9</ele>
        <time>2022-08-20T16:10:30Z</time>
      </trkpt>
      <trkpt lat="25.5087450" lon="-100.7256090">
        <ele>2184.0</ele>
        <time>2022-08-20T16:10:31Z</time>
      </trkpt>
      <trkpt lat="25.5087820" lon="-100.7256740">
        <ele>2183.0</ele>
        <time>2022-08-20T16:10:32Z</time>
      </trkpt>
      <trkpt lat="25.5088200" lon="-100.7257280">
        <ele>2182.1</ele>
        <time>2022-08-20T16:10:33Z</time>
      </trkpt>
      <trkpt lat="25.5088650" lon="-100.7257700">
        <ele>2181.3</ele>
        <time>2022-08-20T16:10:34Z</time>
      </trkpt>
      <trkpt lat="25.5089190" lon="-100.7257950">
        <ele>2180.4</ele>
        <time>2022-08-20T16:10:35Z</time>
      </trkpt>
      <trkpt lat="25.5089810" lon="-100.7258090">
        <ele>2179.5</ele>
        <time>2022-08-20T16:10:36Z</time>
      </trkpt>
      <trkpt lat="25.5090430" lon="-100.7258260">
        <ele>2178.6</ele>
        <time>2022-08-20T16:10:37Z</time>
      </trkpt>
      <trkpt lat="25.5090980" lon="-100.7258550">
        <ele>2177.7</ele>
        <time>2022-08-20T16:10:38Z</time>
      </trkpt>
      <trkpt lat="25.5091480" lon="-100.7259030">
        <ele>2176.8</ele>
        <time>2022-08-20T16:10:39Z</time>
      </trkpt>
      <trkpt lat="25.5091900" lon="-100.7259710">
        <ele>2175.9</ele>
        <time>2022-08-20T16:10:40Z</time>
      </trkpt>
      <trkpt lat="25.5092250" lon="-100.7260580">
        <ele>2174.8</ele>
        <time>2022-08-20T16:10:41Z</time>
      </trkpt>
      <trkpt lat="25.5092510" lon="-100.7261530">
        <ele>2173.7</ele>
        <time>2022-08-20T16:10:42Z</time>
      </trkpt>
      <trkpt lat="25.5092640" lon="-100.7262460">
        <ele>2172.7</ele>
        <time>2022-08-20T16:10:43Z</time>
      </trkpt>
      <trkpt lat="25.5092670" lon="-100.7263340">
        <ele>2171.7</ele>
        <time>2022-08-20T16:10:44Z</time>
      </trkpt>
      <trkpt lat="25.5092690" lon="-100.7264070">
        <ele>2170.9</ele>
        <time>2022-08-20T16:10:45Z</time>
      </trkpt>
      <trkpt lat="25.5092700" lon="-100.7264620">
        <ele>2170.2</ele>
        <time>2022-08-20T16:10:46Z</time>
      </trkpt>
      <trkpt lat="25.5092710" lon="-100.7265120">
        <ele>2169.6</ele>
        <time>2022-08-20T16:10:47Z</time>
      </trkpt>
      <trkpt lat="25.5092810" lon="-100.7265640">
        <ele>2168.9</ele>
        <time>2022-08-20T16:10:48Z</time>
      </trkpt>
      <trkpt lat="25.5093060" lon="-100.7266130">
        <ele>2168.1</ele>
        <time>2022-08-20T16:10:49Z</time>
      </trkpt>
      <trkpt lat="25.5093470" lon="-100.7266490">
        <ele>2167.4</ele>
        <time>2022-08-20T16:10:50Z</time>
      </trkpt>
      <trkpt lat="25.5093990" lon="-100.7266760">
        <ele>2166.7</ele>
        <time>2022-08-20T16:10:51Z</time>
      </trkpt>
      <trkpt lat="25.5094550" lon="-100.7266980">
        <ele>2166.1</ele>
        <time>2022-08-20T16:10:52Z</time>
      </trkpt>
      <trkpt lat="25.5095060" lon="-100.7267230">
        <ele>2165.7</ele>
        <time>2022-08-20T16:10:53Z</time>
      </trkpt>
      <trkpt lat="25.5095440" lon="-100.7267640">
        <ele>2165.6</ele>
        <time>2022-08-20T16:10:54Z</time>
      </trkpt>
      <trkpt lat="25.5095610" lon="-100.7268170">
        <ele>2165.5</ele>
        <time>2022-08-20T16:10:55Z</time>
      </trkpt>
      <trkpt lat="25.5095550" lon="-100.7268740">
        <ele>2165.6</ele>
        <time>2022-08-20T16:10:56Z</time>
      </trkpt>
      <trkpt lat="25.5095320" lon="-100.7269280">
        <ele>2165.8</ele>
        <time>2022-08-20T16:10:57Z</time>
      </trkpt>
      <trkpt lat="25.5095040" lon="-100.7269690">
        <ele>2166.0</ele>
        <time>2022-08-20T16:10:58Z</time>
      </trkpt>
      <trkpt lat="25.5094850" lon="-100.7269970">
        <ele>2166.1</ele>
        <time>2022-08-20T16:10:59Z</time>
      </trkpt>
      <trkpt lat="25.5094720" lon="-100.7270380">
        <ele>2166.3</ele>
        <time>2022-08-20T16:11:00Z</time>
      </trkpt>
      <trkpt lat="25.5094710" lon="-100.7270830">
        <ele>2166.5</ele>
        <time>2022-08-20T16:11:01Z</time>
      </trkpt>
      <trkpt lat="25.5094800" lon="-100.7271310">
        <ele>2166.6</ele>
        <time>2022-08-20T16:11:02Z</time>
      </trkpt>
      <trkpt lat="25.5094850" lon="-100.7271540">
        <ele>2166.7</ele>
        <time>2022-08-20T16:11:03Z</time>
      </trkpt>
      <trkpt lat="25.5094950" lon="-100.7271920">
        <ele>2166.7</ele>
        <time>2022-08-20T16:11:04Z</time>
      </trkpt>
      <trkpt lat="25.5095050" lon="-100.7272230">
        <ele>2166.7</ele>
        <time>2022-08-20T16:11:05Z</time>
      </trkpt>
      <trkpt lat="25.5095290" lon="-100.7272630">
        <ele>2166.7</ele>
        <time>2022-08-20T16:11:06Z</time>
      </trkpt>
      <trkpt lat="25.5095320" lon="-100.7272890">
        <ele>2166.7</ele>
        <time>2022-08-20T16:11:07Z</time>
      </trkpt>
      <trkpt lat="25.5095570" lon="-100.7274200">
        <ele>2166.4</ele>
        <time>2022-08-20T16:11:09Z</time>
      </trkpt>
      <trkpt lat="25.5095660" lon="-100.7274820">
        <ele>2166.2</ele>
        <time>2022-08-20T16:11:10Z</time>
      </trkpt>
      <trkpt lat="25.5095740" lon="-100.7275400">
        <ele>2165.9</ele>
        <time>2022-08-20T16:11:11Z</time>
      </trkpt>
      <trkpt lat="25.5095840" lon="-100.7275980">
        <ele>2165.6</ele>
        <time>2022-08-20T16:11:12Z</time>
      </trkpt>
      <trkpt lat="25.5095980" lon="-100.7276600">
        <ele>2165.2</ele>
        <time>2022-08-20T16:11:13Z</time>
      </trkpt>
      <trkpt lat="25.5096150" lon="-100.7277270">
        <ele>2164.8</ele>
        <time>2022-08-20T16:11:14Z</time>
      </trkpt>
      <trkpt lat="25.5096360" lon="-100.7277930">
        <ele>2164.3</ele>
        <time>2022-08-20T16:11:15Z</time>
      </trkpt>
      <trkpt lat="25.5096610" lon="-100.7278630">
        <ele>2163.8</ele>
        <time>2022-08-20T16:11:16Z</time>
      </trkpt>
      <trkpt lat="25.5096860" lon="-100.7279390">
        <ele>2163.4</ele>
        <time>2022-08-20T16:11:17Z</time>
      </trkpt>
      <trkpt lat="25.5097040" lon="-100.7280180">
        <ele>2163.0</ele>
        <time>2022-08-20T16:11:18Z</time>
      </trkpt>
      <trkpt lat="25.5097140" lon="-100.7280960">
        <ele>2162.5</ele>
        <time>2022-08-20T16:11:19Z</time>
      </trkpt>
      <trkpt lat="25.5097150" lon="-100.7281780">
        <ele>2161.9</ele>
        <time>2022-08-20T16:11:20Z</time>
      </trkpt>
      <trkpt lat="25.5097140" lon="-100.7282640">
        <ele>2161.1</ele>
        <time>2022-08-20T16:11:21Z</time>
      </trkpt>
      <trkpt lat="25.5097170" lon="-100.7283530">
        <ele>2160.2</ele>
        <time>2022-08-20T16:11:22Z</time>
      </trkpt>
      <trkpt lat="25.5097250" lon="-100.7284410">
        <ele>2159.1</ele>
        <time>2022-08-20T16:11:23Z</time>
      </trkpt>
      <trkpt lat="25.5097310" lon="-100.7285290">
        <ele>2158.0</ele>
        <time>2022-08-20T16:11:24Z</time>
      </trkpt>
      <trkpt lat="25.5097290" lon="-100.7286150">
        <ele>2157.0</ele>
        <time>2022-08-20T16:11:25Z</time>
      </trkpt>
      <trkpt lat="25.5097140" lon="-100.7287000">
        <ele>2155.9</ele>
        <time>2022-08-20T16:11:26Z</time>
      </trkpt>
      <trkpt lat="25.5096880" lon="-100.7287810">
        <ele>2154.8</ele>
        <time>2022-08-20T16:11:27Z</time>
      </trkpt>
      <trkpt lat="25.5096530" lon="-100.7288570">
        <ele>2153.8</ele>
        <time>2022-08-20T16:11:28Z</time>
      </trkpt>
      <trkpt lat="25.5096140" lon="-100.7289300">
        <ele>2152.7</ele>
        <time>2022-08-20T16:11:29Z</time>
      </trkpt>
      <trkpt lat="25.5095750" lon="-100.7290020">
        <ele>2151.6</ele>
        <time>2022-08-20T16:11:30Z</time>
      </trkpt>
      <trkpt lat="25.5095420" lon="-100.7290750">
        <ele>2150.5</ele>
        <time>2022-08-20T16:11:31Z</time>
      </trkpt>
      <trkpt lat="25.5095160" lon="-100.7291500">
        <ele>2149.4</ele>
        <time>2022-08-20T16:11:32Z</time>
      </trkpt>
      <trkpt lat="25.5094950" lon="-100.7292250">
        <ele>2148.4</ele>
        <time>2022-08-20T16:11:33Z</time>
      </trkpt>
      <trkpt lat="25.5094770" lon="-100.7293080">
        <ele>2147.3</ele>
        <time>2022-08-20T16:11:34Z</time>
      </trkpt>
      <trkpt lat="25.5094670" lon="-100.7293950">
        <ele>2146.4</ele>
        <time>2022-08-20T16:11:35Z</time>
      </trkpt>
      <trkpt lat="25.5094630" lon="-100.7294780">
        <ele>2145.5</ele>
        <time>2022-08-20T16:11:36Z</time>
      </trkpt>
      <trkpt lat="25.5094600" lon="-100.7295600">
        <ele>2144.6</ele>
        <time>2022-08-20T16:11:37Z</time>
      </trkpt>
      <trkpt lat="25.5094580" lon="-100.7296420">
        <ele>2143.7</ele>
        <time>2022-08-20T16:11:38Z</time>
      </trkpt>
      <trkpt lat="25.5094560" lon="-100.7297200">
        <ele>2142.7</ele>
        <time>2022-08-20T16:11:39Z</time>
      </trkpt>
      <trkpt lat="25.5094500" lon="-100.7297930">
        <ele>2141.7</ele>
        <time>2022-08-20T16:11:40Z</time>
      </trkpt>
      <trkpt lat="25.5094460" lon="-100.7298670">
        <ele>2140.7</ele>
        <time>2022-08-20T16:11:41Z</time>
      </trkpt>
      <trkpt lat="25.5094430" lon="-100.7299440">
        <ele>2139.6</ele>
        <time>2022-08-20T16:11:42Z</time>
      </trkpt>
      <trkpt lat="25.5094380" lon="-100.7300210">
        <ele>2138.6</ele>
        <time>2022-08-20T16:11:43Z</time>
      </trkpt>
      <trkpt lat="25.5094320" lon="-100.7301000">
        <ele>2137.7</ele>
        <time>2022-08-20T16:11:44Z</time>
      </trkpt>
      <trkpt lat="25.5094280" lon="-100.7301780">
        <ele>2137.0</ele>
        <time>2022-08-20T16:11:45Z</time>
      </trkpt>
      <trkpt lat="25.5094260" lon="-100.7302510">
        <ele>2136.5</ele>
        <time>2022-08-20T16:11:46Z</time>
      </trkpt>
      <trkpt lat="25.5094280" lon="-100.7303170">
        <ele>2136.2</ele>
        <time>2022-08-20T16:11:47Z</time>
      </trkpt>
      <trkpt lat="25.5094360" lon="-100.7303790">
        <ele>2136.0</ele>
        <time>2022-08-20T16:11:48Z</time>
      </trkpt>
      <trkpt lat="25.5094490" lon="-100.7304430">
        <ele>2136.0</ele>
        <time>2022-08-20T16:11:49Z</time>
      </trkpt>
      <trkpt lat="25.5094610" lon="-100.7305070">
        <ele>2136.0</ele>
        <time>2022-08-20T16:11:50Z</time>
      </trkpt>
      <trkpt lat="25.5094640" lon="-100.7305680">
        <ele>2136.2</ele>
        <time>2022-08-20T16:11:51Z</time>
      </trkpt>
      <trkpt lat="25.5094580" lon="-100.7306270">
        <ele>2136.5</ele>
        <time>2022-08-20T16:11:52Z</time>
      </trkpt>
      <trkpt lat="25.5094470" lon="-100.7306760">
        <ele>2136.7</ele>
        <time>2022-08-20T16:11:53Z</time>
      </trkpt>
      <trkpt lat="25.5094390" lon="-100.7307100">
        <ele>2136.8</ele>
        <time>2022-08-20T16:11:54Z</time>
      </trkpt>
      <trkpt lat="25.5094350" lon="-100.7307500">
        <ele>2136.9</ele>
        <time>2022-08-20T16:11:55Z</time>
      </trkpt>
      <trkpt lat="25.5094360" lon="-100.7307870">
        <ele>2137.0</ele>
        <time>2022-08-20T16:11:56Z</time>
      </trkpt>
      <trkpt lat="25.5094390" lon="-100.7308270">
        <ele>2137.1</ele>
        <time>2022-08-20T16:11:57Z</time>
      </trkpt>
      <trkpt lat="25.5094420" lon="-100.7308610">
        <ele>2137.1</ele>
        <time>2022-08-20T16:11:58Z</time>
      </trkpt>
      <trkpt lat="25.5094460" lon="-100.7309120">
        <ele>2137.0</ele>
        <time>2022-08-20T16:11:59Z</time>
      </trkpt>
      <trkpt lat="25.5094500" lon="-100.7309720">
        <ele>2136.8</ele>
        <time>2022-08-20T16:12:00Z</time>
      </trkpt>
      <trkpt lat="25.5094540" lon="-100.7310330">
        <ele>2136.5</ele>
        <time>2022-08-20T16:12:01Z</time>
      </trkpt>
      <trkpt lat="25.5094590" lon="-100.7310960">
        <ele>2136.2</ele>
        <time>2022-08-20T16:12:02Z</time>
      </trkpt>
      <trkpt lat="25.5094650" lon="-100.7311600">
        <ele>2135.7</ele>
        <time>2022-08-20T16:12:03Z</time>
      </trkpt>
      <trkpt lat="25.5094690" lon="-100.7312250">
        <ele>2135.2</ele>
        <time>2022-08-20T16:12:04Z</time>
      </trkpt>
      <trkpt lat="25.5094710" lon="-100.7312990">
        <ele>2134.7</ele>
        <time>2022-08-20T16:12:05Z</time>
      </trkpt>
      <trkpt lat="25.5094670" lon="-100.7313780">
        <ele>2134.2</ele>
        <time>2022-08-20T16:12:06Z</time>
      </trkpt>
      <trkpt lat="25.5094540" lon="-100.7314610">
        <ele>2133.7</ele>
        <time>2022-08-20T16:12:07Z</time>
      </trkpt>
      <trkpt lat="25.5094300" lon="-100.7315460">
        <ele>2133.2</ele>
        <time>2022-08-20T16:12:08Z</time>
      </trkpt>
      <trkpt lat="25.5093970" lon="-100.7316330">
        <ele>2132.7</ele>
        <time>2022-08-20T16:12:09Z</time>
      </trkpt>
      <trkpt lat="25.5093630" lon="-100.7317210">
        <ele>2132.2</ele>
        <time>2022-08-20T16:12:10Z</time>
      </trkpt>
      <trkpt lat="25.5093340" lon="-100.7318080">
        <ele>2131.5</ele>
        <time>2022-08-20T16:12:11Z</time>
      </trkpt>
      <trkpt lat="25.5093130" lon="-100.7318950">
        <ele>2130.8</ele>
        <time>2022-08-20T16:12:12Z</time>
      </trkpt>
      <trkpt lat="25.5092990" lon="-100.7319860">
        <ele>2130.0</ele>
        <time>2022-08-20T16:12:13Z</time>
      </trkpt>
      <trkpt lat="25.5092960" lon="-100.7320680">
        <ele>2129.2</ele>
        <time>2022-08-20T16:12:14Z</time>
      </trkpt>
      <trkpt lat="25.5093020" lon="-100.7321480">
        <ele>2128.5</ele>
        <time>2022-08-20T16:12:15Z</time>
      </trkpt>
      <trkpt lat="25.5093140" lon="-100.7322250">
        <ele>2127.8</ele>
        <time>2022-08-20T16:12:16Z</time>
      </trkpt>
      <trkpt lat="25.5093250" lon="-100.7323010">
        <ele>2127.1</ele>
        <time>2022-08-20T16:12:17Z</time>
      </trkpt>
      <trkpt lat="25.5093310" lon="-100.7323760">
        <ele>2126.4</ele>
        <time>2022-08-20T16:12:18Z</time>
      </trkpt>
      <trkpt lat="25.5093310" lon="-100.7324510">
        <ele>2125.8</ele>
        <time>2022-08-20T16:12:19Z</time>
      </trkpt>
      <trkpt lat="25.5093220" lon="-100.7325250">
        <ele>2125.1</ele>
        <time>2022-08-20T16:12:20Z</time>
      </trkpt>
      <trkpt lat="25.5093080" lon="-100.7325960">
        <ele>2124.5</ele>
        <time>2022-08-20T16:12:21Z</time>
      </trkpt>
      <trkpt lat="25.5092960" lon="-100.7326650">
        <ele>2123.8</ele>
        <time>2022-08-20T16:12:22Z</time>
      </trkpt>
      <trkpt lat="25.5092900" lon="-100.7327270">
        <ele>2123.2</ele>
        <time>2022-08-20T16:12:23Z</time>
      </trkpt>
      <trkpt lat="25.5092910" lon="-100.7327750">
        <ele>2122.7</ele>
        <time>2022-08-20T16:12:24Z</time>
      </trkpt>
      <trkpt lat="25.5093010" lon="-100.7328170">
        <ele>2122.1</ele>
        <time>2022-08-20T16:12:25Z</time>
      </trkpt>
      <trkpt lat="25.5093050" lon="-100.7328350">
        <ele>2121.8</ele>
        <time>2022-08-20T16:12:26Z</time>
      </trkpt>
      <trkpt lat="25.5093130" lon="-100.7328880">
        <ele>2121.1</ele>
        <time>2022-08-20T16:12:27Z</time>
      </trkpt>
      <trkpt lat="25.5093190" lon="-100.7329530">
        <ele>2120.0</ele>
        <time>2022-08-20T16:12:28Z</time>
      </trkpt>
      <trkpt lat="25.5093200" lon="-100.7330280">
        <ele>2118.8</ele>
        <time>2022-08-20T16:12:29Z</time>
      </trkpt>
      <trkpt lat="25.5093140" lon="-100.7331020">
        <ele>2117.7</ele>
        <time>2022-08-20T16:12:30Z</time>
      </trkpt>
      <trkpt lat="25.5093020" lon="-100.7331790">
        <ele>2116.8</ele>
        <time>2022-08-20T16:12:31Z</time>
      </trkpt>
      <trkpt lat="25.5092840" lon="-100.7332530">
        <ele>2116.0</ele>
        <time>2022-08-20T16:12:32Z</time>
      </trkpt>
      <trkpt lat="25.5092640" lon="-100.7333290">
        <ele>2115.3</ele>
        <time>2022-08-20T16:12:33Z</time>
      </trkpt>
      <trkpt lat="25.5092440" lon="-100.7333960">
        <ele>2114.7</ele>
        <time>2022-08-20T16:12:34Z</time>
      </trkpt>
      <trkpt lat="25.5092250" lon="-100.7334600">
        <ele>2114.0</ele>
        <time>2022-08-20T16:12:35Z</time>
      </trkpt>
      <trkpt lat="25.5092080" lon="-100.7335210">
        <ele>2113.3</ele>
        <time>2022-08-20T16:12:36Z</time>
      </trkpt>
      <trkpt lat="25.5091880" lon="-100.7335820">
        <ele>2112.6</ele>
        <time>2022-08-20T16:12:37Z</time>
      </trkpt>
      <trkpt lat="25.5091650" lon="-100.7336400">
        <ele>2111.9</ele>
        <time>2022-08-20T16:12:38Z</time>
      </trkpt>
      <trkpt lat="25.5091410" lon="-100.7336930">
        <ele>2111.3</ele>
        <time>2022-08-20T16:12:39Z</time>
      </trkpt>
      <trkpt lat="25.5091150" lon="-100.7337460">
        <ele>2110.6</ele>
        <time>2022-08-20T16:12:40Z</time>
      </trkpt>
      <trkpt lat="25.5090900" lon="-100.7337990">
        <ele>2110.0</ele>
        <time>2022-08-20T16:12:41Z</time>
      </trkpt>
      <trkpt lat="25.5090640" lon="-100.7338510">
        <ele>2109.4</ele>
        <time>2022-08-20T16:12:42Z</time>
      </trkpt>
      <trkpt lat="25.5090350" lon="-100.7339060">
        <ele>2108.7</ele>
        <time>2022-08-20T16:12:43Z</time>
      </trkpt>
      <trkpt lat="25.5090060" lon="-100.7339690">
        <ele>2107.9</ele>
        <time>2022-08-20T16:12:44Z</time>
      </trkpt>
      <trkpt lat="25.5089810" lon="-100.7340360">
        <ele>2107.2</ele>
        <time>2022-08-20T16:12:45Z</time>
      </trkpt>
      <trkpt lat="25.5089640" lon="-100.7341050">
        <ele>2106.5</ele>
        <time>2022-08-20T16:12:46Z</time>
      </trkpt>
      <trkpt lat="25.5089540" lon="-100.7341760">
        <ele>2106.0</ele>
        <time>2022-08-20T16:12:47Z</time>
      </trkpt>
      <trkpt lat="25.5089460" lon="-100.7342480">
        <ele>2105.5</ele>
        <time>2022-08-20T16:12:48Z</time>
      </trkpt>
      <trkpt lat="25.5089310" lon="-100.7343180">
        <ele>2105.2</ele>
        <time>2022-08-20T16:12:49Z</time>
      </trkpt>
      <trkpt lat="25.5089090" lon="-100.7343900">
        <ele>2104.8</ele>
        <time>2022-08-20T16:12:50Z</time>
      </trkpt>
      <trkpt lat="25.5088840" lon="-100.7344620">
        <ele>2104.5</ele>
        <time>2022-08-20T16:12:51Z</time>
      </trkpt>
      <trkpt lat="25.5088570" lon="-100.7345330">
        <ele>2104.1</ele>
        <time>2022-08-20T16:12:52Z</time>
      </trkpt>
      <trkpt lat="25.5088330" lon="-100.7346050">
        <ele>2103.8</ele>
        <time>2022-08-20T16:12:53Z</time>
      </trkpt>
      <trkpt lat="25.5088150" lon="-100.7346790">
        <ele>2103.3</ele>
        <time>2022-08-20T16:12:54Z</time>
      </trkpt>
      <trkpt lat="25.5088010" lon="-100.7347570">
        <ele>2102.8</ele>
        <time>2022-08-20T16:12:55Z</time>
      </trkpt>
      <trkpt lat="25.5087890" lon="-100.7348370">
        <ele>2102.2</ele>
        <time>2022-08-20T16:12:56Z</time>
      </trkpt>
      <trkpt lat="25.5087770" lon="-100.7349230">
        <ele>2101.5</ele>
        <time>2022-08-20T16:12:57Z</time>
      </trkpt>
      <trkpt lat="25.5087620" lon="-100.7350100">
        <ele>2100.8</ele>
        <time>2022-08-20T16:12:58Z</time>
      </trkpt>
      <trkpt lat="25.5087420" lon="-100.7350990">
        <ele>2100.1</ele>
        <time>2022-08-20T16:12:59Z</time>
      </trkpt>
      <trkpt lat="25.5087130" lon="-100.7351840">
        <ele>2099.3</ele>
        <time>2022-08-20T16:13:00Z</time>
      </trkpt>
      <trkpt lat="25.5086710" lon="-100.7352650">
        <ele>2098.5</ele>
        <time>2022-08-20T16:13:01Z</time>
      </trkpt>
      <trkpt lat="25.5086220" lon="-100.7353360">
        <ele>2097.6</ele>
        <time>2022-08-20T16:13:02Z</time>
      </trkpt>
      <trkpt lat="25.5085650" lon="-100.7353990">
        <ele>2096.6</ele>
        <time>2022-08-20T16:13:03Z</time>
      </trkpt>
      <trkpt lat="25.5085050" lon="-100.7354500">
        <ele>2095.7</ele>
        <time>2022-08-20T16:13:04Z</time>
      </trkpt>
      <trkpt lat="25.5084400" lon="-100.7354930">
        <ele>2094.8</ele>
        <time>2022-08-20T16:13:05Z</time>
      </trkpt>
      <trkpt lat="25.5083690" lon="-100.7355240">
        <ele>2094.2</ele>
        <time>2022-08-20T16:13:06Z</time>
      </trkpt>
      <trkpt lat="25.5082910" lon="-100.7355450">
        <ele>2093.7</ele>
        <time>2022-08-20T16:13:07Z</time>
      </trkpt>
      <trkpt lat="25.5082100" lon="-100.7355600">
        <ele>2093.3</ele>
        <time>2022-08-20T16:13:08Z</time>
      </trkpt>
      <trkpt lat="25.5081300" lon="-100.7355720">
        <ele>2092.8</ele>
        <time>2022-08-20T16:13:09Z</time>
      </trkpt>
      <trkpt lat="25.5080460" lon="-100.7355790">
        <ele>2092.4</ele>
        <time>2022-08-20T16:13:10Z</time>
      </trkpt>
      <trkpt lat="25.5079610" lon="-100.7355830">
        <ele>2092.1</ele>
        <time>2022-08-20T16:13:11Z</time>
      </trkpt>
      <trkpt lat="25.5078770" lon="-100.7355920">
        <ele>2091.8</ele>
        <time>2022-08-20T16:13:12Z</time>
      </trkpt>
      <trkpt lat="25.5077990" lon="-100.7356070">
        <ele>2091.7</ele>
        <time>2022-08-20T16:13:13Z</time>
      </trkpt>
      <trkpt lat="25.5077300" lon="-100.7356250">
        <ele>2091.6</ele>
        <time>2022-08-20T16:13:14Z</time>
      </trkpt>
      <trkpt lat="25.5076780" lon="-100.7356460">
        <ele>2091.7</ele>
        <time>2022-08-20T16:13:15Z</time>
      </trkpt>
      <trkpt lat="25.5076560" lon="-100.7356710">
        <ele>2091.7</ele>
        <time>2022-08-20T16:13:16Z</time>
      </trkpt>
      <trkpt lat="25.5076350" lon="-100.7357070">
        <ele>2091.7</ele>
        <time>2022-08-20T16:13:17Z</time>
      </trkpt>
      <trkpt lat="25.5076370" lon="-100.7357440">
        <ele>2091.8</ele>
        <time>2022-08-20T16:13:18Z</time>
      </trkpt>
      <trkpt lat="25.5076370" lon="-100.7357860">
        <ele>2091.9</ele>
        <time>2022-08-20T16:13:19Z</time>
      </trkpt>
      <trkpt lat="25.5076460" lon="-100.7358220">
        <ele>2091.9</ele>
        <time>2022-08-20T16:13:20Z</time>
      </trkpt>
      <trkpt lat="25.5076510" lon="-100.7358680">
        <ele>2091.8</ele>
        <time>2022-08-20T16:13:21Z</time>
      </trkpt>
      <trkpt lat="25.5076510" lon="-100.7359230">
        <ele>2091.7</ele>
        <time>2022-08-20T16:13:22Z</time>
      </trkpt>
      <trkpt lat="25.5076450" lon="-100.7359860">
        <ele>2091.3</ele>
        <time>2022-08-20T16:13:23Z</time>
      </trkpt>
      <trkpt lat="25.5076340" lon="-100.7360570">
        <ele>2090.7</ele>
        <time>2022-08-20T16:13:24Z</time>
      </trkpt>
      <trkpt lat="25.5076190" lon="-100.7361290">
        <ele>2089.9</ele>
        <time>2022-08-20T16:13:25Z</time>
      </trkpt>
      <trkpt lat="25.5075980" lon="-100.7361950">
        <ele>2089.2</ele>
        <time>2022-08-20T16:13:26Z</time>
      </trkpt>
      <trkpt lat="25.5075740" lon="-100.7362580">
        <ele>2088.4</ele>
        <time>2022-08-20T16:13:27Z</time>
      </trkpt>
      <trkpt lat="25.5075490" lon="-100.7363220">
        <ele>2087.7</ele>
        <time>2022-08-20T16:13:28Z</time>
      </trkpt>
      <trkpt lat="25.5075260" lon="-100.7363870">
        <ele>2086.8</ele>
        <time>2022-08-20T16:13:29Z</time>
      </trkpt>
      <trkpt lat="25.5075090" lon="-100.7364540">
        <ele>2085.8</ele>
        <time>2022-08-20T16:13:30Z</time>
      </trkpt>
      <trkpt lat="25.5074980" lon="-100.7365240">
        <ele>2084.6</ele>
        <time>2022-08-20T16:13:31Z</time>
      </trkpt>
      <trkpt lat="25.5074910" lon="-100.7365950">
        <ele>2083.4</ele>
        <time>2022-08-20T16:13:32Z</time>
      </trkpt>
      <trkpt lat="25.5074870" lon="-100.7366680">
        <ele>2082.3</ele>
        <time>2022-08-20T16:13:33Z</time>
      </trkpt>
      <trkpt lat="25.5074860" lon="-100.7367390">
        <ele>2081.2</ele>
        <time>2022-08-20T16:13:34Z</time>
      </trkpt>
      <trkpt lat="25.5074940" lon="-100.7368130">
        <ele>2080.2</ele>
        <time>2022-08-20T16:13:35Z</time>
      </trkpt>
      <trkpt lat="25.5075080" lon="-100.7368870">
        <ele>2079.3</ele>
        <time>2022-08-20T16:13:36Z</time>
      </trkpt>
      <trkpt lat="25.5075250" lon="-100.7369620">
        <ele>2078.4</ele>
        <time>2022-08-20T16:13:37Z</time>
      </trkpt>
      <trkpt lat="25.5075390" lon="-100.7370360">
        <ele>2077.6</ele>
        <time>2022-08-20T16:13:38Z</time>
      </trkpt>
      <trkpt lat="25.5075410" lon="-100.7371100">
        <ele>2076.9</ele>
        <time>2022-08-20T16:13:39Z</time>
      </trkpt>
      <trkpt lat="25.5075240" lon="-100.7371790">
        <ele>2076.2</ele>
        <time>2022-08-20T16:13:40Z</time>
      </trkpt>
      <trkpt lat="25.5074870" lon="-100.7372410">
        <ele>2075.5</ele>
        <time>2022-08-20T16:13:41Z</time>
      </trkpt>
      <trkpt lat="25.5074330" lon="-100.7373010">
        <ele>2074.9</ele>
        <time>2022-08-20T16:13:42Z</time>
      </trkpt>
      <trkpt lat="25.5073630" lon="-100.7373560">
        <ele>2074.5</ele>
        <time>2022-08-20T16:13:43Z</time>
      </trkpt>
      <trkpt lat="25.5072820" lon="-100.7374070">
        <ele>2074.3</ele>
        <time>2022-08-20T16:13:44Z</time>
      </trkpt>
      <trkpt lat="25.5071970" lon="-100.7374480">
        <ele>2074.0</ele>
        <time>2022-08-20T16:13:45Z</time>
      </trkpt>
      <trkpt lat="25.5071160" lon="-100.7374810">
        <ele>2073.6</ele>
        <time>2022-08-20T16:13:46Z</time>
      </trkpt>
      <trkpt lat="25.5070430" lon="-100.7375150">
        <ele>2073.1</ele>
        <time>2022-08-20T16:13:47Z</time>
      </trkpt>
      <trkpt lat="25.5069820" lon="-100.7375560">
        <ele>2072.5</ele>
        <time>2022-08-20T16:13:48Z</time>
      </trkpt>
      <trkpt lat="25.5069350" lon="-100.7376120">
        <ele>2071.9</ele>
        <time>2022-08-20T16:13:49Z</time>
      </trkpt>
      <trkpt lat="25.5069020" lon="-100.7376890">
        <ele>2071.3</ele>
        <time>2022-08-20T16:13:50Z</time>
      </trkpt>
      <trkpt lat="25.5068860" lon="-100.7377780">
        <ele>2070.6</ele>
        <time>2022-08-20T16:13:51Z</time>
      </trkpt>
      <trkpt lat="25.5068830" lon="-100.7378720">
        <ele>2069.9</ele>
        <time>2022-08-20T16:13:52Z</time>
      </trkpt>
      <trkpt lat="25.5068840" lon="-100.7379590">
        <ele>2069.2</ele>
        <time>2022-08-20T16:13:53Z</time>
      </trkpt>
      <trkpt lat="25.5068820" lon="-100.7380420">
        <ele>2068.4</ele>
        <time>2022-08-20T16:13:54Z</time>
      </trkpt>
      <trkpt lat="25.5068730" lon="-100.7381210">
        <ele>2067.6</ele>
        <time>2022-08-20T16:13:55Z</time>
      </trkpt>
      <trkpt lat="25.5068610" lon="-100.7382020">
        <ele>2066.5</ele>
        <time>2022-08-20T16:13:56Z</time>
      </trkpt>
      <trkpt lat="25.5068460" lon="-100.7382840">
        <ele>2065.4</ele>
        <time>2022-08-20T16:13:57Z</time>
      </trkpt>
      <trkpt lat="25.5068310" lon="-100.7383640">
        <ele>2064.3</ele>
        <time>2022-08-20T16:13:58Z</time>
      </trkpt>
      <trkpt lat="25.5068180" lon="-100.7384410">
        <ele>2063.1</ele>
        <time>2022-08-20T16:13:59Z</time>
      </trkpt>
      <trkpt lat="25.5068100" lon="-100.7385150">
        <ele>2062.1</ele>
        <time>2022-08-20T16:14:00Z</time>
      </trkpt>
      <trkpt lat="25.5068010" lon="-100.7385840">
        <ele>2061.1</ele>
        <time>2022-08-20T16:14:01Z</time>
      </trkpt>
      <trkpt lat="25.5067870" lon="-100.7386540">
        <ele>2060.2</ele>
        <time>2022-08-20T16:14:02Z</time>
      </trkpt>
      <trkpt lat="25.5067650" lon="-100.7387280">
        <ele>2059.5</ele>
        <time>2022-08-20T16:14:03Z</time>
      </trkpt>
      <trkpt lat="25.5067360" lon="-100.7388100">
        <ele>2059.1</ele>
        <time>2022-08-20T16:14:04Z</time>
      </trkpt>
      <trkpt lat="25.5067010" lon="-100.7388940">
        <ele>2059.0</ele>
        <time>2022-08-20T16:14:05Z</time>
      </trkpt>
      <trkpt lat="25.5066580" lon="-100.7389760">
        <ele>2059.2</ele>
        <time>2022-08-20T16:14:06Z</time>
      </trkpt>
      <trkpt lat="25.5066200" lon="-100.7390500">
        <ele>2059.4</ele>
        <time>2022-08-20T16:14:07Z</time>
      </trkpt>
      <trkpt lat="25.5065900" lon="-100.7391120">
        <ele>2059.5</ele>
        <time>2022-08-20T16:14:08Z</time>
      </trkpt>
      <trkpt lat="25.5065680" lon="-100.7391610">
        <ele>2059.5</ele>
        <time>2022-08-20T16:14:09Z</time>
      </trkpt>
      <trkpt lat="25.5065420" lon="-100.7392020">
        <ele>2059.5</ele>
        <time>2022-08-20T16:14:10Z</time>
      </trkpt>
      <trkpt lat="25.5065300" lon="-100.7392180">
        <ele>2059.5</ele>
        <time>2022-08-20T16:14:11Z</time>
      </trkpt>
      <trkpt lat="25.5064960" lon="-100.7392620">
        <ele>2059.4</ele>
        <time>2022-08-20T16:14:12Z</time>
      </trkpt>
      <trkpt lat="25.5064630" lon="-100.7393110">
        <ele>2059.4</ele>
        <time>2022-08-20T16:14:13Z</time>
      </trkpt>
      <trkpt lat="25.5064370" lon="-100.7393640">
        <ele>2059.3</ele>
        <time>2022-08-20T16:14:14Z</time>
      </trkpt>
      <trkpt lat="25.5064190" lon="-100.7394190">
        <ele>2059.2</ele>
        <time>2022-08-20T16:14:15Z</time>
      </trkpt>
      <trkpt lat="25.5064050" lon="-100.7394760">
        <ele>2059.1</ele>
        <time>2022-08-20T16:14:16Z</time>
      </trkpt>
      <trkpt lat="25.5063860" lon="-100.7395380">
        <ele>2059.0</ele>
        <time>2022-08-20T16:14:17Z</time>
      </trkpt>
      <trkpt lat="25.5063610" lon="-100.7395980">
        <ele>2058.8</ele>
        <time>2022-08-20T16:14:18Z</time>
      </trkpt>
      <trkpt lat="25.5063280" lon="-100.7396580">
        <ele>2058.6</ele>
        <time>2022-08-20T16:14:19Z</time>
      </trkpt>
      <trkpt lat="25.5062850" lon="-100.7397150">
        <ele>2058.4</ele>
        <time>2022-08-20T16:14:20Z</time>
      </trkpt>
      <trkpt lat="25.5062350" lon="-100.7397680">
        <ele>2058.2</ele>
        <time>2022-08-20T16:14:21Z</time>
      </trkpt>
      <trkpt lat="25.5061850" lon="-100.7398190">
        <ele>2057.9</ele>
        <time>2022-08-20T16:14:22Z</time>
      </trkpt>
      <trkpt lat="25.5061360" lon="-100.7398710">
        <ele>2057.5</ele>
        <time>2022-08-20T16:14:23Z</time>
      </trkpt>
      <trkpt lat="25.5060900" lon="-100.7399250">
        <ele>2057.1</ele>
        <time>2022-08-20T16:14:24Z</time>
      </trkpt>
      <trkpt lat="25.5060440" lon="-100.7399790">
        <ele>2056.5</ele>
        <time>2022-08-20T16:14:25Z</time>
      </trkpt>
      <trkpt lat="25.5059960" lon="-100.7400350">
        <ele>2056.0</ele>
        <time>2022-08-20T16:14:26Z</time>
      </trkpt>
      <trkpt lat="25.5059440" lon="-100.7400910">
        <ele>2055.3</ele>
        <time>2022-08-20T16:14:27Z</time>
      </trkpt>
      <trkpt lat="25.5058880" lon="-100.7401480">
        <ele>2054.6</ele>
        <time>2022-08-20T16:14:28Z</time>
      </trkpt>
      <trkpt lat="25.5058240" lon="-100.7402040">
        <ele>2053.9</ele>
        <time>2022-08-20T16:14:29Z</time>
      </trkpt>
      <trkpt lat="25.5057580" lon="-100.7402540">
        <ele>2053.1</ele>
        <time>2022-08-20T16:14:30Z</time>
      </trkpt>
      <trkpt lat="25.5056890" lon="-100.7402960">
        <ele>2052.4</ele>
        <time>2022-08-20T16:14:31Z</time>
      </trkpt>
      <trkpt lat="25.5056180" lon="-100.7403270">
        <ele>2051.8</ele>
        <time>2022-08-20T16:14:32Z</time>
      </trkpt>
      <trkpt lat="25.5055440" lon="-100.7403460">
        <ele>2051.2</ele>
        <time>2022-08-20T16:14:33Z</time>
      </trkpt>
      <trkpt lat="25.5054670" lon="-100.7403600">
        <ele>2050.6</ele>
        <time>2022-08-20T16:14:34Z</time>
      </trkpt>
      <trkpt lat="25.5053920" lon="-100.7403840">
        <ele>2050.2</ele>
        <time>2022-08-20T16:14:35Z</time>
      </trkpt>
      <trkpt lat="25.5053280" lon="-100.7404270">
        <ele>2049.8</ele>
        <time>2022-08-20T16:14:36Z</time>
      </trkpt>
      <trkpt lat="25.5052770" lon="-100.7404870">
        <ele>2049.4</ele>
        <time>2022-08-20T16:14:37Z</time>
      </trkpt>
      <trkpt lat="25.5052320" lon="-100.7405580">
        <ele>2048.9</ele>
        <time>2022-08-20T16:14:38Z</time>
      </trkpt>
      <trkpt lat="25.5051880" lon="-100.7406280">
        <ele>2048.4</ele>
        <time>2022-08-20T16:14:39Z</time>
      </trkpt>
      <trkpt lat="25.5051380" lon="-100.7406990">
        <ele>2047.9</ele>
        <time>2022-08-20T16:14:40Z</time>
      </trkpt>
      <trkpt lat="25.5050770" lon="-100.7407660">
        <ele>2047.4</ele>
        <time>2022-08-20T16:14:41Z</time>
      </trkpt>
      <trkpt lat="25.5050070" lon="-100.7408280">
        <ele>2047.0</ele>
        <time>2022-08-20T16:14:42Z</time>
      </trkpt>
      <trkpt lat="25.5049320" lon="-100.7408860">
        <ele>2046.5</ele>
        <time>2022-08-20T16:14:43Z</time>
      </trkpt>
      <trkpt lat="25.5048530" lon="-100.7409400">
        <ele>2046.2</ele>
        <time>2022-08-20T16:14:44Z</time>
      </trkpt>
      <trkpt lat="25.5047720" lon="-100.7409920">
        <ele>2045.9</ele>
        <time>2022-08-20T16:14:45Z</time>
      </trkpt>
      <trkpt lat="25.5046920" lon="-100.7410430">
        <ele>2045.6</ele>
        <time>2022-08-20T16:14:46Z</time>
      </trkpt>
      <trkpt lat="25.5046140" lon="-100.7410920">
        <ele>2045.2</ele>
        <time>2022-08-20T16:14:47Z</time>
      </trkpt>
      <trkpt lat="25.5045380" lon="-100.7411360">
        <ele>2044.8</ele>
        <time>2022-08-20T16:14:48Z</time>
      </trkpt>
      <trkpt lat="25.5044640" lon="-100.7411780">
        <ele>2044.1</ele>
        <time>2022-08-20T16:14:49Z</time>
      </trkpt>
      <trkpt lat="25.5043890" lon="-100.7412150">
        <ele>2043.5</ele>
        <time>2022-08-20T16:14:50Z</time>
      </trkpt>
      <trkpt lat="25.5043090" lon="-100.7412470">
        <ele>2042.8</ele>
        <time>2022-08-20T16:14:51Z</time>
      </trkpt>
      <trkpt lat="25.5042260" lon="-100.7412770">
        <ele>2042.2</ele>
        <time>2022-08-20T16:14:52Z</time>
      </trkpt>
      <trkpt lat="25.5041430" lon="-100.7413070">
        <ele>2041.7</ele>
        <time>2022-08-20T16:14:53Z</time>
      </trkpt>
      <trkpt lat="25.5040570" lon="-100.7413340">
        <ele>2041.3</ele>
        <time>2022-08-20T16:14:54Z</time>
      </trkpt>
      <trkpt lat="25.5039690" lon="-100.7413680">
        <ele>2041.1</ele>
        <time>2022-08-20T16:14:55Z</time>
      </trkpt>
      <trkpt lat="25.5038900" lon="-100.7414130">
        <ele>2040.9</ele>
        <time>2022-08-20T16:14:56Z</time>
      </trkpt>
      <trkpt lat="25.5038160" lon="-100.7414690">
        <ele>2040.8</ele>
        <time>2022-08-20T16:14:57Z</time>
      </trkpt>
      <trkpt lat="25.5037460" lon="-100.7415300">
        <ele>2040.7</ele>
        <time>2022-08-20T16:14:58Z</time>
      </trkpt>
      <trkpt lat="25.5036830" lon="-100.7415920">
        <ele>2040.5</ele>
        <time>2022-08-20T16:14:59Z</time>
      </trkpt>
      <trkpt lat="25.5036300" lon="-100.7416550">
        <ele>2040.3</ele>
        <time>2022-08-20T16:15:00Z</time>
      </trkpt>
      <trkpt lat="25.5035940" lon="-100.7417160">
        <ele>2039.9</ele>
        <time>2022-08-20T16:15:01Z</time>
      </trkpt>
      <trkpt lat="25.5035770" lon="-100.7417860">
        <ele>2039.3</ele>
        <time>2022-08-20T16:15:02Z</time>
      </trkpt>
      <trkpt lat="25.5035830" lon="-100.7418640">
        <ele>2038.5</ele>
        <time>2022-08-20T16:15:03Z</time>
      </trkpt>
      <trkpt lat="25.5035980" lon="-100.7419510">
        <ele>2037.5</ele>
        <time>2022-08-20T16:15:04Z</time>
      </trkpt>
      <trkpt lat="25.5036100" lon="-100.7420470">
        <ele>2036.6</ele>
        <time>2022-08-20T16:15:05Z</time>
      </trkpt>
      <trkpt lat="25.5036090" lon="-100.7421460">
        <ele>2035.8</ele>
        <time>2022-08-20T16:15:06Z</time>
      </trkpt>
      <trkpt lat="25.5035880" lon="-100.7422390">
        <ele>2035.1</ele>
        <time>2022-08-20T16:15:07Z</time>
      </trkpt>
      <trkpt lat="25.5035470" lon="-100.7423240">
        <ele>2034.3</ele>
        <time>2022-08-20T16:15:08Z</time>
      </trkpt>
      <trkpt lat="25.5034890" lon="-100.7424030">
        <ele>2033.5</ele>
        <time>2022-08-20T16:15:09Z</time>
      </trkpt>
      <trkpt lat="25.5034190" lon="-100.7424770">
        <ele>2032.6</ele>
        <time>2022-08-20T16:15:10Z</time>
      </trkpt>
      <trkpt lat="25.5033470" lon="-100.7425480">
        <ele>2031.8</ele>
        <time>2022-08-20T16:15:11Z</time>
      </trkpt>
      <trkpt lat="25.5032760" lon="-100.7426200">
        <ele>2030.9</ele>
        <time>2022-08-20T16:15:12Z</time>
      </trkpt>
      <trkpt lat="25.5032120" lon="-100.7426910">
        <ele>2030.0</ele>
        <time>2022-08-20T16:15:13Z</time>
      </trkpt>
      <trkpt lat="25.5031570" lon="-100.7427610">
        <ele>2029.1</ele>
        <time>2022-08-20T16:15:14Z</time>
      </trkpt>
      <trkpt lat="25.5031130" lon="-100.7428330">
        <ele>2028.2</ele>
        <time>2022-08-20T16:15:15Z</time>
      </trkpt>
      <trkpt lat="25.5030790" lon="-100.7429130">
        <ele>2027.4</ele>
        <time>2022-08-20T16:15:16Z</time>
      </trkpt>
      <trkpt lat="25.5030510" lon="-100.7430000">
        <ele>2026.8</ele>
        <time>2022-08-20T16:15:17Z</time>
      </trkpt>
      <trkpt lat="25.5030270" lon="-100.7430890">
        <ele>2026.3</ele>
        <time>2022-08-20T16:15:18Z</time>
      </trkpt>
      <trkpt lat="25.5030010" lon="-100.7431690">
        <ele>2026.0</ele>
        <time>2022-08-20T16:15:19Z</time>
      </trkpt>
      <trkpt lat="25.5029680" lon="-100.7432350">
        <ele>2025.9</ele>
        <time>2022-08-20T16:15:20Z</time>
      </trkpt>
      <trkpt lat="25.5029270" lon="-100.7432800">
        <ele>2025.9</ele>
        <time>2022-08-20T16:15:21Z</time>
      </trkpt>
      <trkpt lat="25.5028790" lon="-100.7433110">
        <ele>2025.9</ele>
        <time>2022-08-20T16:15:22Z</time>
      </trkpt>
      <trkpt lat="25.5028260" lon="-100.7433290">
        <ele>2025.9</ele>
        <time>2022-08-20T16:15:23Z</time>
      </trkpt>
      <trkpt lat="25.5027750" lon="-100.7433350">
        <ele>2026.0</ele>
        <time>2022-08-20T16:15:24Z</time>
      </trkpt>
      <trkpt lat="25.5027260" lon="-100.7433350">
        <ele>2026.0</ele>
        <time>2022-08-20T16:15:25Z</time>
      </trkpt>
      <trkpt lat="25.5026780" lon="-100.7433330">
        <ele>2026.0</ele>
        <time>2022-08-20T16:15:26Z</time>
      </trkpt>
      <trkpt lat="25.5026320" lon="-100.7433360">
        <ele>2026.0</ele>
        <time>2022-08-20T16:15:27Z</time>
      </trkpt>
      <trkpt lat="25.5025870" lon="-100.7433480">
        <ele>2025.9</ele>
        <time>2022-08-20T16:15:28Z</time>
      </trkpt>
      <trkpt lat="25.5025390" lon="-100.7433690">
        <ele>2025.9</ele>
        <time>2022-08-20T16:15:29Z</time>
      </trkpt>
      <trkpt lat="25.5024890" lon="-100.7434020">
        <ele>2025.8</ele>
        <time>2022-08-20T16:15:30Z</time>
      </trkpt>
      <trkpt lat="25.5024330" lon="-100.7434440">
        <ele>2025.7</ele>
        <time>2022-08-20T16:15:31Z</time>
      </trkpt>
      <trkpt lat="25.5023760" lon="-100.7434880">
        <ele>2025.6</ele>
        <time>2022-08-20T16:15:32Z</time>
      </trkpt>
      <trkpt lat="25.5023190" lon="-100.7435330">
        <ele>2025.5</ele>
        <time>2022-08-20T16:15:33Z</time>
      </trkpt>
      <trkpt lat="25.5022600" lon="-100.7435790">
        <ele>2025.3</ele>
        <time>2022-08-20T16:15:34Z</time>
      </trkpt>
      <trkpt lat="25.5022040" lon="-100.7436260">
        <ele>2025.2</ele>
        <time>2022-08-20T16:15:35Z</time>
      </trkpt>
      <trkpt lat="25.5021480" lon="-100.7436720">
        <ele>2025.0</ele>
        <time>2022-08-20T16:15:36Z</time>
      </trkpt>
      <trkpt lat="25.5020870" lon="-100.7437180">
        <ele>2024.8</ele>
        <time>2022-08-20T16:15:37Z</time>
      </trkpt>
      <trkpt lat="25.5020250" lon="-100.7437660">
        <ele>2024.7</ele>
        <time>2022-08-20T16:15:38Z</time>
      </trkpt>
      <trkpt lat="25.5019620" lon="-100.7438150">
        <ele>2024.6</ele>
        <time>2022-08-20T16:15:39Z</time>
      </trkpt>
      <trkpt lat="25.5018970" lon="-100.7438680">
        <ele>2024.5</ele>
        <time>2022-08-20T16:15:40Z</time>
      </trkpt>
      <trkpt lat="25.5018330" lon="-100.7439200">
        <ele>2024.4</ele>
        <time>2022-08-20T16:15:41Z</time>
      </trkpt>
      <trkpt lat="25.5017650" lon="-100.7439690">
        <ele>2024.5</ele>
        <time>2022-08-20T16:15:42Z</time>
      </trkpt>
      <trkpt lat="25.5016940" lon="-100.7440130">
        <ele>2024.5</ele>
        <time>2022-08-20T16:15:43Z</time>
      </trkpt>
      <trkpt lat="25.5016240" lon="-100.7440520">
        <ele>2024.6</ele>
        <time>2022-08-20T16:15:44Z</time>
      </trkpt>
      <trkpt lat="25.5015570" lon="-100.7440890">
        <ele>2024.7</ele>
        <time>2022-08-20T16:15:45Z</time>
      </trkpt>
      <trkpt lat="25.5014920" lon="-100.7441250">
        <ele>2024.8</ele>
        <time>2022-08-20T16:15:46Z</time>
      </trkpt>
      <trkpt lat="25.5014220" lon="-100.7441520">
        <ele>2025.0</ele>
        <time>2022-08-20T16:15:47Z</time>
      </trkpt>
      <trkpt lat="25.5013530" lon="-100.7441740">
        <ele>2025.2</ele>
        <time>2022-08-20T16:15:48Z</time>
      </trkpt>
      <trkpt lat="25.5012800" lon="-100.7441880">
        <ele>2025.4</ele>
        <time>2022-08-20T16:15:49Z</time>
      </trkpt>
      <trkpt lat="25.5012070" lon="-100.7441970">
        <ele>2025.7</ele>
        <time>2022-08-20T16:15:50Z</time>
      </trkpt>
      <trkpt lat="25.5011370" lon="-100.7442020">
        <ele>2025.9</ele>
        <time>2022-08-20T16:15:51Z</time>
      </trkpt>
      <trkpt lat="25.5010710" lon="-100.7442050">
        <ele>2025.9</ele>
        <time>2022-08-20T16:15:52Z</time>
      </trkpt>
      <trkpt lat="25.5010080" lon="-100.7442050">
        <ele>2025.9</ele>
        <time>2022-08-20T16:15:53Z</time>
      </trkpt>
      <trkpt lat="25.5009460" lon="-100.7442050">
        <ele>2025.8</ele>
        <time>2022-08-20T16:15:54Z</time>
      </trkpt>
      <trkpt lat="25.5008820" lon="-100.7442040">
        <ele>2025.5</ele>
        <time>2022-08-20T16:15:55Z</time>
      </trkpt>
      <trkpt lat="25.5008160" lon="-100.7441960">
        <ele>2025.1</ele>
        <time>2022-08-20T16:15:56Z</time>
      </trkpt>
      <trkpt lat="25.5007460" lon="-100.7441840">
        <ele>2024.5</ele>
        <time>2022-08-20T16:15:57Z</time>
      </trkpt>
      <trkpt lat="25.5006700" lon="-100.7441700">
        <ele>2023.8</ele>
        <time>2022-08-20T16:15:58Z</time>
      </trkpt>
      <trkpt lat="25.5005870" lon="-100.7441600">
        <ele>2022.9</ele>
        <time>2022-08-20T16:15:59Z</time>
      </trkpt>
      <trkpt lat="25.5004960" lon="-100.7441530">
        <ele>2022.0</ele>
        <time>2022-08-20T16:16:00Z</time>
      </trkpt>
      <trkpt lat="25.5004000" lon="-100.7441460">
        <ele>2021.1</ele>
        <time>2022-08-20T16:16:01Z</time>
      </trkpt>
      <trkpt lat="25.5002980" lon="-100.7441380">
        <ele>2020.5</ele>
        <time>2022-08-20T16:16:02Z</time>
      </trkpt>
      <trkpt lat="25.5001930" lon="-100.7441350">
        <ele>2020.1</ele>
        <time>2022-08-20T16:16:03Z</time>
      </trkpt>
      <trkpt lat="25.5000880" lon="-100.7441320">
        <ele>2019.8</ele>
        <time>2022-08-20T16:16:04Z</time>
      </trkpt>
      <trkpt lat="25.4999910" lon="-100.7441250">
        <ele>2019.6</ele>
        <time>2022-08-20T16:16:05Z</time>
      </trkpt>
      <trkpt lat="25.4998950" lon="-100.7441150">
        <ele>2019.5</ele>
        <time>2022-08-20T16:16:06Z</time>
      </trkpt>
      <trkpt lat="25.4998030" lon="-100.7440990">
        <ele>2019.4</ele>
        <time>2022-08-20T16:16:07Z</time>
      </trkpt>
      <trkpt lat="25.4997160" lon="-100.7440830">
        <ele>2019.3</ele>
        <time>2022-08-20T16:16:08Z</time>
      </trkpt>
      <trkpt lat="25.4996360" lon="-100.7440690">
        <ele>2019.1</ele>
        <time>2022-08-20T16:16:09Z</time>
      </trkpt>
      <trkpt lat="25.4995580" lon="-100.7440620">
        <ele>2018.7</ele>
        <time>2022-08-20T16:16:10Z</time>
      </trkpt>
      <trkpt lat="25.4994830" lon="-100.7440680">
        <ele>2018.3</ele>
        <time>2022-08-20T16:16:11Z</time>
      </trkpt>
      <trkpt lat="25.4994090" lon="-100.7440920">
        <ele>2017.7</ele>
        <time>2022-08-20T16:16:12Z</time>
      </trkpt>
      <trkpt lat="25.4993290" lon="-100.7441320">
        <ele>2017.1</ele>
        <time>2022-08-20T16:16:13Z</time>
      </trkpt>
      <trkpt lat="25.4992460" lon="-100.7441790">
        <ele>2016.6</ele>
        <time>2022-08-20T16:16:14Z</time>
      </trkpt>
      <trkpt lat="25.4991560" lon="-100.7442300">
        <ele>2016.2</ele>
        <time>2022-08-20T16:16:15Z</time>
      </trkpt>
      <trkpt lat="25.4990670" lon="-100.7442790">
        <ele>2015.9</ele>
        <time>2022-08-20T16:16:16Z</time>
      </trkpt>
      <trkpt lat="25.4989810" lon="-100.7443310">
        <ele>2015.6</ele>
        <time>2022-08-20T16:16:17Z</time>
      </trkpt>
      <trkpt lat="25.4989050" lon="-100.7443890">
        <ele>2015.3</ele>
        <time>2022-08-20T16:16:18Z</time>
      </trkpt>
      <trkpt lat="25.4988370" lon="-100.7444540">
        <ele>2015.1</ele>
        <time>2022-08-20T16:16:19Z</time>
      </trkpt>
      <trkpt lat="25.4987710" lon="-100.7445230">
        <ele>2014.9</ele>
        <time>2022-08-20T16:16:20Z</time>
      </trkpt>
      <trkpt lat="25.4987080" lon="-100.7445910">
        <ele>2014.8</ele>
        <time>2022-08-20T16:16:21Z</time>
      </trkpt>
      <trkpt lat="25.4986470" lon="-100.7446580">
        <ele>2014.7</ele>
        <time>2022-08-20T16:16:22Z</time>
      </trkpt>
      <trkpt lat="25.4985890" lon="-100.7447240">
        <ele>2014.7</ele>
        <time>2022-08-20T16:16:23Z</time>
      </trkpt>
      <trkpt lat="25.4985370" lon="-100.7447910">
        <ele>2014.6</ele>
        <time>2022-08-20T16:16:24Z</time>
      </trkpt>
      <trkpt lat="25.4984950" lon="-100.7448620">
        <ele>2014.5</ele>
        <time>2022-08-20T16:16:25Z</time>
      </trkpt>
      <trkpt lat="25.4984670" lon="-100.7449380">
        <ele>2014.4</ele>
        <time>2022-08-20T16:16:26Z</time>
      </trkpt>
      <trkpt lat="25.4984540" lon="-100.7450170">
        <ele>2014.1</ele>
        <time>2022-08-20T16:16:27Z</time>
      </trkpt>
      <trkpt lat="25.4984560" lon="-100.7450980">
        <ele>2013.6</ele>
        <time>2022-08-20T16:16:28Z</time>
      </trkpt>
      <trkpt lat="25.4984670" lon="-100.7451800">
        <ele>2013.0</ele>
        <time>2022-08-20T16:16:29Z</time>
      </trkpt>
      <trkpt lat="25.4984930" lon="-100.7452620">
        <ele>2012.2</ele>
        <time>2022-08-20T16:16:30Z</time>
      </trkpt>
      <trkpt lat="25.4985220" lon="-100.7453460">
        <ele>2011.3</ele>
        <time>2022-08-20T16:16:31Z</time>
      </trkpt>
      <trkpt lat="25.4985550" lon="-100.7454310">
        <ele>2010.3</ele>
        <time>2022-08-20T16:16:32Z</time>
      </trkpt>
      <trkpt lat="25.4985780" lon="-100.7455100">
        <ele>2009.4</ele>
        <time>2022-08-20T16:16:33Z</time>
      </trkpt>
      <trkpt lat="25.4985990" lon="-100.7455870">
        <ele>2008.7</ele>
        <time>2022-08-20T16:16:34Z</time>
      </trkpt>
      <trkpt lat="25.4986100" lon="-100.7456720">
        <ele>2008.0</ele>
        <time>2022-08-20T16:16:35Z</time>
      </trkpt>
      <trkpt lat="25.4986050" lon="-100.7457600">
        <ele>2007.5</ele>
        <time>2022-08-20T16:16:36Z</time>
      </trkpt>
      <trkpt lat="25.4985790" lon="-100.7458430">
        <ele>2007.2</ele>
        <time>2022-08-20T16:16:37Z</time>
      </trkpt>
      <trkpt lat="25.4985350" lon="-100.7459220">
        <ele>2006.9</ele>
        <time>2022-08-20T16:16:38Z</time>
      </trkpt>
      <trkpt lat="25.4984840" lon="-100.7459920">
        <ele>2006.8</ele>
        <time>2022-08-20T16:16:39Z</time>
      </trkpt>
      <trkpt lat="25.4984300" lon="-100.7460590">
        <ele>2006.8</ele>
        <time>2022-08-20T16:16:40Z</time>
      </trkpt>
      <trkpt lat="25.4983750" lon="-100.7461190">
        <ele>2006.8</ele>
        <time>2022-08-20T16:16:41Z</time>
      </trkpt>
      <trkpt lat="25.4983140" lon="-100.7461690">
        <ele>2006.8</ele>
        <time>2022-08-20T16:16:42Z</time>
      </trkpt>
      <trkpt lat="25.4982510" lon="-100.7462030">
        <ele>2006.7</ele>
        <time>2022-08-20T16:16:43Z</time>
      </trkpt>
      <trkpt lat="25.4981870" lon="-100.7462140">
        <ele>2006.6</ele>
        <time>2022-08-20T16:16:44Z</time>
      </trkpt>
      <trkpt lat="25.4981180" lon="-100.7462040">
        <ele>2006.4</ele>
        <time>2022-08-20T16:16:45Z</time>
      </trkpt>
      <trkpt lat="25.4980500" lon="-100.7461740">
        <ele>2006.1</ele>
        <time>2022-08-20T16:16:46Z</time>
      </trkpt>
      <trkpt lat="25.4979810" lon="-100.7461270">
        <ele>2005.8</ele>
        <time>2022-08-20T16:16:47Z</time>
      </trkpt>
      <trkpt lat="25.4979160" lon="-100.7460670">
        <ele>2005.4</ele>
        <time>2022-08-20T16:16:48Z</time>
      </trkpt>
      <trkpt lat="25.4978550" lon="-100.7460090">
        <ele>2005.0</ele>
        <time>2022-08-20T16:16:49Z</time>
      </trkpt>
      <trkpt lat="25.4977870" lon="-100.7459700">
        <ele>2004.5</ele>
        <time>2022-08-20T16:16:50Z</time>
      </trkpt>
      <trkpt lat="25.4977130" lon="-100.7459630">
        <ele>2004.0</ele>
        <time>2022-08-20T16:16:51Z</time>
      </trkpt>
      <trkpt lat="25.4976320" lon="-100.7459840">
        <ele>2003.5</ele>
        <time>2022-08-20T16:16:52Z</time>
      </trkpt>
      <trkpt lat="25.4975460" lon="-100.7460130">
        <ele>2003.0</ele>
        <time>2022-08-20T16:16:53Z</time>
      </trkpt>
      <trkpt lat="25.4974580" lon="-100.7460440">
        <ele>2002.6</ele>
        <time>2022-08-20T16:16:54Z</time>
      </trkpt>
      <trkpt lat="25.4973780" lon="-100.7460860">
        <ele>2002.3</ele>
        <time>2022-08-20T16:16:55Z</time>
      </trkpt>
      <trkpt lat="25.4973100" lon="-100.7461430">
        <ele>2002.0</ele>
        <time>2022-08-20T16:16:56Z</time>
      </trkpt>
      <trkpt lat="25.4972550" lon="-100.7462040">
        <ele>2001.7</ele>
        <time>2022-08-20T16:16:57Z</time>
      </trkpt>
      <trkpt lat="25.4971990" lon="-100.7462630">
        <ele>2001.4</ele>
        <time>2022-08-20T16:16:58Z</time>
      </trkpt>
      <trkpt lat="25.4971330" lon="-100.7463120">
        <ele>2001.2</ele>
        <time>2022-08-20T16:16:59Z</time>
      </trkpt>
      <trkpt lat="25.4970650" lon="-100.7463560">
        <ele>2001.2</ele>
        <time>2022-08-20T16:17:00Z</time>
      </trkpt>
      <trkpt lat="25.4969960" lon="-100.7463940">
        <ele>2001.4</ele>
        <time>2022-08-20T16:17:01Z</time>
      </trkpt>
      <trkpt lat="25.4969270" lon="-100.7464270">
        <ele>2001.6</ele>
        <time>2022-08-20T16:17:02Z</time>
      </trkpt>
      <trkpt lat="25.4968610" lon="-100.7464590">
        <ele>2001.9</ele>
        <time>2022-08-20T16:17:03Z</time>
      </trkpt>
      <trkpt lat="25.4968000" lon="-100.7464910">
        <ele>2002.1</ele>
        <time>2022-08-20T16:17:04Z</time>
      </trkpt>
      <trkpt lat="25.4967460" lon="-100.7465280">
        <ele>2002.4</ele>
        <time>2022-08-20T16:17:05Z</time>
      </trkpt>
      <trkpt lat="25.4966940" lon="-100.7465670">
        <ele>2002.6</ele>
        <time>2022-08-20T16:17:06Z</time>
      </trkpt>
      <trkpt lat="25.4966440" lon="-100.7466040">
        <ele>2002.8</ele>
        <time>2022-08-20T16:17:07Z</time>
      </trkpt>
      <trkpt lat="25.4965950" lon="-100.7466410">
        <ele>2003.0</ele>
        <time>2022-08-20T16:17:08Z</time>
      </trkpt>
      <trkpt lat="25.4965490" lon="-100.7466750">
        <ele>2003.1</ele>
        <time>2022-08-20T16:17:09Z</time>
      </trkpt>
      <trkpt lat="25.4965050" lon="-100.7467080">
        <ele>2003.1</ele>
        <time>2022-08-20T16:17:10Z</time>
      </trkpt>
      <trkpt lat="25.4964600" lon="-100.7467350">
        <ele>2003.1</ele>
        <time>2022-08-20T16:17:11Z</time>
      </trkpt>
      <trkpt lat="25.4964070" lon="-100.7467520">
        <ele>2003.1</ele>
        <time>2022-08-20T16:17:12Z</time>
      </trkpt>
      <trkpt lat="25.4963480" lon="-100.7467570">
        <ele>2002.9</ele>
        <time>2022-08-20T16:17:13Z</time>
      </trkpt>
      <trkpt lat="25.4962880" lon="-100.7467520">
        <ele>2002.6</ele>
        <time>2022-08-20T16:17:14Z</time>
      </trkpt>
      <trkpt lat="25.4962290" lon="-100.7467390">
        <ele>2002.2</ele>
        <time>2022-08-20T16:17:15Z</time>
      </trkpt>
      <trkpt lat="25.4961690" lon="-100.7467150">
        <ele>2001.8</ele>
        <time>2022-08-20T16:17:16Z</time>
      </trkpt>
      <trkpt lat="25.4961100" lon="-100.7466790">
        <ele>2001.3</ele>
        <time>2022-08-20T16:17:17Z</time>
      </trkpt>
      <trkpt lat="25.4960520" lon="-100.7466340">
        <ele>2000.9</ele>
        <time>2022-08-20T16:17:18Z</time>
      </trkpt>
      <trkpt lat="25.4959930" lon="-100.7465800">
        <ele>2000.4</ele>
        <time>2022-08-20T16:17:19Z</time>
      </trkpt>
      <trkpt lat="25.4959340" lon="-100.7465210">
        <ele>2000.1</ele>
        <time>2022-08-20T16:17:20Z</time>
      </trkpt>
      <trkpt lat="25.4958690" lon="-100.7464660">
        <ele>1999.9</ele>
        <time>2022-08-20T16:17:21Z</time>
      </trkpt>
      <trkpt lat="25.4957980" lon="-100.7464220">
        <ele>1999.8</ele>
        <time>2022-08-20T16:17:22Z</time>
      </trkpt>
      <trkpt lat="25.4957220" lon="-100.7463960">
        <ele>1999.7</ele>
        <time>2022-08-20T16:17:23Z</time>
      </trkpt>
      <trkpt lat="25.4956450" lon="-100.7463890">
        <ele>1999.5</ele>
        <time>2022-08-20T16:17:24Z</time>
      </trkpt>
      <trkpt lat="25.4955720" lon="-100.7464080">
        <ele>1999.1</ele>
        <time>2022-08-20T16:17:25Z</time>
      </trkpt>
      <trkpt lat="25.4955100" lon="-100.7464540">
        <ele>1998.6</ele>
        <time>2022-08-20T16:17:26Z</time>
      </trkpt>
      <trkpt lat="25.4954610" lon="-100.7465160">
        <ele>1997.9</ele>
        <time>2022-08-20T16:17:27Z</time>
      </trkpt>
      <trkpt lat="25.4954170" lon="-100.7465850">
        <ele>1997.2</ele>
        <time>2022-08-20T16:17:28Z</time>
      </trkpt>
      <trkpt lat="25.4953700" lon="-100.7466500">
        <ele>1996.4</ele>
        <time>2022-08-20T16:17:29Z</time>
      </trkpt>
      <trkpt lat="25.4953220" lon="-100.7467110">
        <ele>1995.6</ele>
        <time>2022-08-20T16:17:30Z</time>
      </trkpt>
      <trkpt lat="25.4952710" lon="-100.7467750">
        <ele>1994.7</ele>
        <time>2022-08-20T16:17:31Z</time>
      </trkpt>
      <trkpt lat="25.4952160" lon="-100.7468430">
        <ele>1993.6</ele>
        <time>2022-08-20T16:17:32Z</time>
      </trkpt>
      <trkpt lat="25.4951560" lon="-100.7469120">
        <ele>1992.4</ele>
        <time>2022-08-20T16:17:33Z</time>
      </trkpt>
      <trkpt lat="25.4950860" lon="-100.7469770">
        <ele>1991.1</ele>
        <time>2022-08-20T16:17:34Z</time>
      </trkpt>
      <trkpt lat="25.4950090" lon="-100.7470350">
        <ele>1989.8</ele>
        <time>2022-08-20T16:17:35Z</time>
      </trkpt>
      <trkpt lat="25.4949300" lon="-100.7470850">
        <ele>1988.6</ele>
        <time>2022-08-20T16:17:36Z</time>
      </trkpt>
      <trkpt lat="25.4948500" lon="-100.7471250">
        <ele>1987.4</ele>
        <time>2022-08-20T16:17:37Z</time>
      </trkpt>
      <trkpt lat="25.4947680" lon="-100.7471470">
        <ele>1986.5</ele>
        <time>2022-08-20T16:17:38Z</time>
      </trkpt>
      <trkpt lat="25.4946850" lon="-100.7471480">
        <ele>1985.7</ele>
        <time>2022-08-20T16:17:39Z</time>
      </trkpt>
      <trkpt lat="25.4945980" lon="-100.7471300">
        <ele>1984.8</ele>
        <time>2022-08-20T16:17:40Z</time>
      </trkpt>
      <trkpt lat="25.4945060" lon="-100.7471020">
        <ele>1983.9</ele>
        <time>2022-08-20T16:17:41Z</time>
      </trkpt>
      <trkpt lat="25.4944130" lon="-100.7470720">
        <ele>1983.0</ele>
        <time>2022-08-20T16:17:42Z</time>
      </trkpt>
      <trkpt lat="25.4943250" lon="-100.7470430">
        <ele>1982.1</ele>
        <time>2022-08-20T16:17:43Z</time>
      </trkpt>
      <trkpt lat="25.4942450" lon="-100.7470160">
        <ele>1981.3</ele>
        <time>2022-08-20T16:17:44Z</time>
      </trkpt>
      <trkpt lat="25.4941720" lon="-100.7469950">
        <ele>1980.5</ele>
        <time>2022-08-20T16:17:45Z</time>
      </trkpt>
      <trkpt lat="25.4941000" lon="-100.7469920">
        <ele>1979.8</ele>
        <time>2022-08-20T16:17:46Z</time>
      </trkpt>
      <trkpt lat="25.4940250" lon="-100.7470130">
        <ele>1978.9</ele>
        <time>2022-08-20T16:17:47Z</time>
      </trkpt>
      <trkpt lat="25.4939530" lon="-100.7470570">
        <ele>1978.0</ele>
        <time>2022-08-20T16:17:48Z</time>
      </trkpt>
      <trkpt lat="25.4938890" lon="-100.7471140">
        <ele>1977.2</ele>
        <time>2022-08-20T16:17:49Z</time>
      </trkpt>
      <trkpt lat="25.4938270" lon="-100.7471640">
        <ele>1976.6</ele>
        <time>2022-08-20T16:17:50Z</time>
      </trkpt>
      <trkpt lat="25.4937590" lon="-100.7471950">
        <ele>1976.1</ele>
        <time>2022-08-20T16:17:51Z</time>
      </trkpt>
      <trkpt lat="25.4936790" lon="-100.7472080">
        <ele>1975.8</ele>
        <time>2022-08-20T16:17:52Z</time>
      </trkpt>
      <trkpt lat="25.4935920" lon="-100.7472040">
        <ele>1975.4</ele>
        <time>2022-08-20T16:17:53Z</time>
      </trkpt>
      <trkpt lat="25.4935070" lon="-100.7471920">
        <ele>1975.1</ele>
        <time>2022-08-20T16:17:54Z</time>
      </trkpt>
      <trkpt lat="25.4934220" lon="-100.7471800">
        <ele>1974.8</ele>
        <time>2022-08-20T16:17:55Z</time>
      </trkpt>
      <trkpt lat="25.4933350" lon="-100.7471720">
        <ele>1974.4</ele>
        <time>2022-08-20T16:17:56Z</time>
      </trkpt>
      <trkpt lat="25.4932480" lon="-100.7471630">
        <ele>1974.0</ele>
        <time>2022-08-20T16:17:57Z</time>
      </trkpt>
      <trkpt lat="25.4931620" lon="-100.7471590">
        <ele>1973.5</ele>
        <time>2022-08-20T16:17:58Z</time>
      </trkpt>
      <trkpt lat="25.4930750" lon="-100.7471580">
        <ele>1973.1</ele>
        <time>2022-08-20T16:17:59Z</time>
      </trkpt>
      <trkpt lat="25.4929840" lon="-100.7471590">
        <ele>1972.7</ele>
        <time>2022-08-20T16:18:00Z</time>
      </trkpt>
      <trkpt lat="25.4928900" lon="-100.7471550">
        <ele>1972.3</ele>
        <time>2022-08-20T16:18:01Z</time>
      </trkpt>
      <trkpt lat="25.4927970" lon="-100.7471460">
        <ele>1971.9</ele>
        <time>2022-08-20T16:18:02Z</time>
      </trkpt>
      <trkpt lat="25.4927110" lon="-100.7471360">
        <ele>1971.6</ele>
        <time>2022-08-20T16:18:03Z</time>
      </trkpt>
      <trkpt lat="25.4926360" lon="-100.7471370">
        <ele>1971.2</ele>
        <time>2022-08-20T16:18:04Z</time>
      </trkpt>
      <trkpt lat="25.4925700" lon="-100.7471530">
        <ele>1970.7</ele>
        <time>2022-08-20T16:18:05Z</time>
      </trkpt>
      <trkpt lat="25.4925050" lon="-100.7471810">
        <ele>1970.2</ele>
        <time>2022-08-20T16:18:06Z</time>
      </trkpt>
      <trkpt lat="25.4924330" lon="-100.7472100">
        <ele>1969.6</ele>
        <time>2022-08-20T16:18:07Z</time>
      </trkpt>
      <trkpt lat="25.4923540" lon="-100.7472350">
        <ele>1969.0</ele>
        <time>2022-08-20T16:18:08Z</time>
      </trkpt>
      <trkpt lat="25.4922680" lon="-100.7472560">
        <ele>1968.2</ele>
        <time>2022-08-20T16:18:09Z</time>
      </trkpt>
      <trkpt lat="25.4921810" lon="-100.7472810">
        <ele>1967.4</ele>
        <time>2022-08-20T16:18:10Z</time>
      </trkpt>
      <trkpt lat="25.4920930" lon="-100.7473160">
        <ele>1966.3</ele>
        <time>2022-08-20T16:18:11Z</time>
      </trkpt>
      <trkpt lat="25.4920100" lon="-100.7473630">
        <ele>1965.2</ele>
        <time>2022-08-20T16:18:12Z</time>
      </trkpt>
      <trkpt lat="25.4919310" lon="-100.7474140">
        <ele>1963.9</ele>
        <time>2022-08-20T16:18:13Z</time>
      </trkpt>
      <trkpt lat="25.4918540" lon="-100.7474620">
        <ele>1962.5</ele>
        <time>2022-08-20T16:18:14Z</time>
      </trkpt>
      <trkpt lat="25.4917780" lon="-100.7475110">
        <ele>1961.2</ele>
        <time>2022-08-20T16:18:15Z</time>
      </trkpt>
      <trkpt lat="25.4917020" lon="-100.7475600">
        <ele>1959.9</ele>
        <time>2022-08-20T16:18:16Z</time>
      </trkpt>
      <trkpt lat="25.4916300" lon="-100.7476060">
        <ele>1958.8</ele>
        <time>2022-08-20T16:18:17Z</time>
      </trkpt>
      <trkpt lat="25.4915610" lon="-100.7476430">
        <ele>1957.7</ele>
        <time>2022-08-20T16:18:18Z</time>
      </trkpt>
      <trkpt lat="25.4914900" lon="-100.7476670">
        <ele>1956.7</ele>
        <time>2022-08-20T16:18:19Z</time>
      </trkpt>
      <trkpt lat="25.4914140" lon="-100.7476760">
        <ele>1955.6</ele>
        <time>2022-08-20T16:18:20Z</time>
      </trkpt>
      <trkpt lat="25.4913320" lon="-100.7476790">
        <ele>1954.5</ele>
        <time>2022-08-20T16:18:21Z</time>
      </trkpt>
      <trkpt lat="25.4912440" lon="-100.7476800">
        <ele>1953.3</ele>
        <time>2022-08-20T16:18:22Z</time>
      </trkpt>
      <trkpt lat="25.4911590" lon="-100.7476800">
        <ele>1952.3</ele>
        <time>2022-08-20T16:18:23Z</time>
      </trkpt>
      <trkpt lat="25.4910740" lon="-100.7476810">
        <ele>1951.5</ele>
        <time>2022-08-20T16:18:24Z</time>
      </trkpt>
      <trkpt lat="25.4909870" lon="-100.7476830">
        <ele>1950.9</ele>
        <time>2022-08-20T16:18:25Z</time>
      </trkpt>
      <trkpt lat="25.4908950" lon="-100.7476860">
        <ele>1950.4</ele>
        <time>2022-08-20T16:18:26Z</time>
      </trkpt>
      <trkpt lat="25.4908040" lon="-100.7476870">
        <ele>1950.1</ele>
        <time>2022-08-20T16:18:27Z</time>
      </trkpt>
      <trkpt lat="25.4907180" lon="-100.7476900">
        <ele>1949.9</ele>
        <time>2022-08-20T16:18:28Z</time>
      </trkpt>
      <trkpt lat="25.4906390" lon="-100.7476950">
        <ele>1949.7</ele>
        <time>2022-08-20T16:18:29Z</time>
      </trkpt>
      <trkpt lat="25.4905710" lon="-100.7477030">
        <ele>1949.4</ele>
        <time>2022-08-20T16:18:30Z</time>
      </trkpt>
      <trkpt lat="25.4905090" lon="-100.7477130">
        <ele>1948.9</ele>
        <time>2022-08-20T16:18:31Z</time>
      </trkpt>
      <trkpt lat="25.4904480" lon="-100.7477220">
        <ele>1948.3</ele>
        <time>2022-08-20T16:18:32Z</time>
      </trkpt>
      <trkpt lat="25.4903860" lon="-100.7477230">
        <ele>1947.6</ele>
        <time>2022-08-20T16:18:33Z</time>
      </trkpt>
      <trkpt lat="25.4903210" lon="-100.7477130">
        <ele>1946.8</ele>
        <time>2022-08-20T16:18:34Z</time>
      </trkpt>
      <trkpt lat="25.4902550" lon="-100.7476920">
        <ele>1946.0</ele>
        <time>2022-08-20T16:18:35Z</time>
      </trkpt>
      <trkpt lat="25.4901870" lon="-100.7476660">
        <ele>1945.1</ele>
        <time>2022-08-20T16:18:36Z</time>
      </trkpt>
      <trkpt lat="25.4901190" lon="-100.7476410">
        <ele>1944.3</ele>
        <time>2022-08-20T16:18:37Z</time>
      </trkpt>
      <trkpt lat="25.4900470" lon="-100.7476200">
        <ele>1943.4</ele>
        <time>2022-08-20T16:18:38Z</time>
      </trkpt>
      <trkpt lat="25.4899730" lon="-100.7476040">
        <ele>1942.5</ele>
        <time>2022-08-20T16:18:39Z</time>
      </trkpt>
      <trkpt lat="25.4898970" lon="-100.7475960">
        <ele>1941.6</ele>
        <time>2022-08-20T16:18:40Z</time>
      </trkpt>
      <trkpt lat="25.4898190" lon="-100.7475960">
        <ele>1940.6</ele>
        <time>2022-08-20T16:18:41Z</time>
      </trkpt>
      <trkpt lat="25.4897380" lon="-100.7476000">
        <ele>1939.6</ele>
        <time>2022-08-20T16:18:42Z</time>
      </trkpt>
      <trkpt lat="25.4896560" lon="-100.7476050">
        <ele>1938.5</ele>
        <time>2022-08-20T16:18:43Z</time>
      </trkpt>
      <trkpt lat="25.4895700" lon="-100.7476060">
        <ele>1937.4</ele>
        <time>2022-08-20T16:18:44Z</time>
      </trkpt>
      <trkpt lat="25.4894820" lon="-100.7476060">
        <ele>1936.2</ele>
        <time>2022-08-20T16:18:45Z</time>
      </trkpt>
      <trkpt lat="25.4893910" lon="-100.7476060">
        <ele>1935.1</ele>
        <time>2022-08-20T16:18:46Z</time>
      </trkpt>
      <trkpt lat="25.4893000" lon="-100.7476060">
        <ele>1934.1</ele>
        <time>2022-08-20T16:18:47Z</time>
      </trkpt>
      <trkpt lat="25.4892090" lon="-100.7476080">
        <ele>1933.2</ele>
        <time>2022-08-20T16:18:48Z</time>
      </trkpt>
      <trkpt lat="25.4891200" lon="-100.7476110">
        <ele>1932.2</ele>
        <time>2022-08-20T16:18:49Z</time>
      </trkpt>
      <trkpt lat="25.4890330" lon="-100.7476140">
        <ele>1931.3</ele>
        <time>2022-08-20T16:18:50Z</time>
      </trkpt>
      <trkpt lat="25.4889480" lon="-100.7476150">
        <ele>1930.5</ele>
        <time>2022-08-20T16:18:51Z</time>
      </trkpt>
      <trkpt lat="25.4888660" lon="-100.7476140">
        <ele>1929.6</ele>
        <time>2022-08-20T16:18:52Z</time>
      </trkpt>
      <trkpt lat="25.4887860" lon="-100.7476130">
        <ele>1928.7</ele>
        <time>2022-08-20T16:18:53Z</time>
      </trkpt>
      <trkpt lat="25.4887070" lon="-100.7476120">
        <ele>1927.9</ele>
        <time>2022-08-20T16:18:54Z</time>
      </trkpt>
      <trkpt lat="25.4886300" lon="-100.7476110">
        <ele>1927.1</ele>
        <time>2022-08-20T16:18:55Z</time>
      </trkpt>
      <trkpt lat="25.4885540" lon="-100.7476120">
        <ele>1926.2</ele>
        <time>2022-08-20T16:18:56Z</time>
      </trkpt>
      <trkpt lat="25.4884810" lon="-100.7476140">
        <ele>1925.4</ele>
        <time>2022-08-20T16:18:57Z</time>
      </trkpt>
      <trkpt lat="25.4884110" lon="-100.7476170">
        <ele>1924.7</ele>
        <time>2022-08-20T16:18:58Z</time>
      </trkpt>
      <trkpt lat="25.4883430" lon="-100.7476250">
        <ele>1923.9</ele>
        <time>2022-08-20T16:18:59Z</time>
      </trkpt>
      <trkpt lat="25.4882780" lon="-100.7476390">
        <ele>1923.2</ele>
        <time>2022-08-20T16:19:00Z</time>
      </trkpt>
      <trkpt lat="25.4882160" lon="-100.7476550">
        <ele>1922.5</ele>
        <time>2022-08-20T16:19:01Z</time>
      </trkpt>
      <trkpt lat="25.4881570" lon="-100.7476720">
        <ele>1921.8</ele>
        <time>2022-08-20T16:19:02Z</time>
      </trkpt>
      <trkpt lat="25.4880970" lon="-100.7476820">
        <ele>1921.1</ele>
        <time>2022-08-20T16:19:03Z</time>
      </trkpt>
      <trkpt lat="25.4880330" lon="-100.7476820">
        <ele>1920.5</ele>
        <time>2022-08-20T16:19:04Z</time>
      </trkpt>
      <trkpt lat="25.4879660" lon="-100.7476700">
        <ele>1919.9</ele>
        <time>2022-08-20T16:19:05Z</time>
      </trkpt>
      <trkpt lat="25.4879050" lon="-100.7476450">
        <ele>1919.5</ele>
        <time>2022-08-20T16:19:06Z</time>
      </trkpt>
      <trkpt lat="25.4878530" lon="-100.7476120">
        <ele>1919.2</ele>
        <time>2022-08-20T16:19:07Z</time>
      </trkpt>
      <trkpt lat="25.4878080" lon="-100.7475840">
        <ele>1919.1</ele>
        <time>2022-08-20T16:19:08Z</time>
      </trkpt>
      <trkpt lat="25.4877670" lon="-100.7475700">
        <ele>1919.0</ele>
        <time>2022-08-20T16:19:09Z</time>
      </trkpt>
      <trkpt lat="25.4877290" lon="-100.7475890">
        <ele>1918.9</ele>
        <time>2022-08-20T16:19:10Z</time>
      </trkpt>
      <trkpt lat="25.4877130" lon="-100.7476020">
        <ele>1918.9</ele>
        <time>2022-08-20T16:19:11Z</time>
      </trkpt>
      <trkpt lat="25.4876920" lon="-100.7476460">
        <ele>1918.9</ele>
        <time>2022-08-20T16:19:12Z</time>
      </trkpt>
      <trkpt lat="25.4876760" lon="-100.7476900">
        <ele>1918.9</ele>
        <time>2022-08-20T16:19:13Z</time>
      </trkpt>
      <trkpt lat="25.4876640" lon="-100.7477310">
        <ele>1918.8</ele>
        <time>2022-08-20T16:19:14Z</time>
      </trkpt>
      <trkpt lat="25.4876470" lon="-100.7477700">
        <ele>1918.8</ele>
        <time>2022-08-20T16:19:15Z</time>
      </trkpt>
      <trkpt lat="25.4876110" lon="-100.7478460">
        <ele>1918.7</ele>
        <time>2022-08-20T16:19:16Z</time>
      </trkpt>
      <trkpt lat="25.4875830" lon="-100.7479020">
        <ele>1918.6</ele>
        <time>2022-08-20T16:19:18Z</time>
      </trkpt>
      <trkpt lat="25.4875560" lon="-100.7479490">
        <ele>1918.6</ele>
        <time>2022-08-20T16:19:19Z</time>
      </trkpt>
      <trkpt lat="25.4875260" lon="-100.7479960">
        <ele>1918.5</ele>
        <time>2022-08-20T16:19:20Z</time>
      </trkpt>
      <trkpt lat="25.4874930" lon="-100.7480410">
        <ele>1918.5</ele>
        <time>2022-08-20T16:19:21Z</time>
      </trkpt>
      <trkpt lat="25.4874600" lon="-100.7480850">
        <ele>1918.5</ele>
        <time>2022-08-20T16:19:22Z</time>
      </trkpt>
      <trkpt lat="25.4874270" lon="-100.7481290">
        <ele>1918.5</ele>
        <time>2022-08-20T16:19:23Z</time>
      </trkpt>
      <trkpt lat="25.4873940" lon="-100.7481750">
        <ele>1918.5</ele>
        <time>2022-08-20T16:19:24Z</time>
      </trkpt>
      <trkpt lat="25.4873630" lon="-100.7482220">
        <ele>1918.4</ele>
        <time>2022-08-20T16:19:25Z</time>
      </trkpt>
      <trkpt lat="25.4873330" lon="-100.7482720">
        <ele>1918.4</ele>
        <time>2022-08-20T16:19:26Z</time>
      </trkpt>
      <trkpt lat="25.4873060" lon="-100.7483250">
        <ele>1918.4</ele>
        <time>2022-08-20T16:19:27Z</time>
      </trkpt>
      <trkpt lat="25.4872790" lon="-100.7483800">
        <ele>1918.4</ele>
        <time>2022-08-20T16:19:28Z</time>
      </trkpt>
      <trkpt lat="25.4872480" lon="-100.7484330">
        <ele>1918.4</ele>
        <time>2022-08-20T16:19:29Z</time>
      </trkpt>
      <trkpt lat="25.4872170" lon="-100.7484860">
        <ele>1918.4</ele>
        <time>2022-08-20T16:19:30Z</time>
      </trkpt>
      <trkpt lat="25.4871810" lon="-100.7485380">
        <ele>1918.4</ele>
        <time>2022-08-20T16:19:31Z</time>
      </trkpt>
      <trkpt lat="25.4871420" lon="-100.7485870">
        <ele>1918.3</ele>
        <time>2022-08-20T16:19:32Z</time>
      </trkpt>
      <trkpt lat="25.4871010" lon="-100.7486370">
        <ele>1918.2</ele>
        <time>2022-08-20T16:19:33Z</time>
      </trkpt>
      <trkpt lat="25.4870590" lon="-100.7486840">
        <ele>1918.0</ele>
        <time>2022-08-20T16:19:34Z</time>
      </trkpt>
      <trkpt lat="25.4870170" lon="-100.7487270">
        <ele>1917.8</ele>
        <time>2022-08-20T16:19:35Z</time>
      </trkpt>
      <trkpt lat="25.4869750" lon="-100.7487650">
        <ele>1917.5</ele>
        <time>2022-08-20T16:19:36Z</time>
      </trkpt>
      <trkpt lat="25.4869280" lon="-100.7487960">
        <ele>1917.2</ele>
        <time>2022-08-20T16:19:37Z</time>
      </trkpt>
      <trkpt lat="25.4868790" lon="-100.7488250">
        <ele>1916.9</ele>
        <time>2022-08-20T16:19:38Z</time>
      </trkpt>
      <trkpt lat="25.4868240" lon="-100.7488560">
        <ele>1916.4</ele>
        <time>2022-08-20T16:19:39Z</time>
      </trkpt>
      <trkpt lat="25.4867680" lon="-100.7488870">
        <ele>1915.9</ele>
        <time>2022-08-20T16:19:40Z</time>
      </trkpt>
      <trkpt lat="25.4867110" lon="-100.7489180">
        <ele>1915.3</ele>
        <time>2022-08-20T16:19:41Z</time>
      </trkpt>
      <trkpt lat="25.4866530" lon="-100.7489500">
        <ele>1914.8</ele>
        <time>2022-08-20T16:19:42Z</time>
      </trkpt>
      <trkpt lat="25.4866000" lon="-100.7489890">
        <ele>1914.4</ele>
        <time>2022-08-20T16:19:43Z</time>
      </trkpt>
      <trkpt lat="25.4865490" lon="-100.7490380">
        <ele>1914.2</ele>
        <time>2022-08-20T16:19:44Z</time>
      </trkpt>
      <trkpt lat="25.4865030" lon="-100.7490900">
        <ele>1914.1</ele>
        <time>2022-08-20T16:19:45Z</time>
      </trkpt>
      <trkpt lat="25.4864600" lon="-100.7491350">
        <ele>1914.2</ele>
        <time>2022-08-20T16:19:46Z</time>
      </trkpt>
      <trkpt lat="25.4864180" lon="-100.7491670">
        <ele>1914.2</ele>
        <time>2022-08-20T16:19:47Z</time>
      </trkpt>
      <trkpt lat="25.4863790" lon="-100.7491910">
        <ele>1914.4</ele>
        <time>2022-08-20T16:19:48Z</time>
      </trkpt>
      <trkpt lat="25.4863530" lon="-100.7492050">
        <ele>1914.5</ele>
        <time>2022-08-20T16:19:49Z</time>
      </trkpt>
      <trkpt lat="25.4863120" lon="-100.7492310">
        <ele>1914.6</ele>
        <time>2022-08-20T16:19:50Z</time>
      </trkpt>
      <trkpt lat="25.4862740" lon="-100.7492550">
        <ele>1914.8</ele>
        <time>2022-08-20T16:19:51Z</time>
      </trkpt>
      <trkpt lat="25.4862260" lon="-100.7492860">
        <ele>1915.1</ele>
        <time>2022-08-20T16:19:52Z</time>
      </trkpt>
      <trkpt lat="25.4861840" lon="-100.7493140">
        <ele>1915.3</ele>
        <time>2022-08-20T16:19:53Z</time>
      </trkpt>
      <trkpt lat="25.4861580" lon="-100.7493310">
        <ele>1915.4</ele>
        <time>2022-08-20T16:19:54Z</time>
      </trkpt>
      <trkpt lat="25.4861380" lon="-100.7493460">
        <ele>1915.5</ele>
        <time>2022-08-20T16:19:55Z</time>
      </trkpt>
      <trkpt lat="25.4861640" lon="-100.7493540">
        <ele>1915.6</ele>
        <time>2022-08-20T16:19:56Z</time>
      </trkpt>
      <trkpt lat="25.4860770" lon="-100.7494170">
        <ele>1916.0</ele>
        <time>2022-08-20T16:19:58Z</time>
      </trkpt>
      <trkpt lat="25.4860430" lon="-100.7494500">
        <ele>1916.1</ele>
        <time>2022-08-20T16:19:59Z</time>
      </trkpt>
      <trkpt lat="25.4859870" lon="-100.7495140">
        <ele>1916.2</ele>
        <time>2022-08-20T16:20:00Z</time>
      </trkpt>
      <trkpt lat="25.4859610" lon="-100.7495510">
        <ele>1916.2</ele>
        <time>2022-08-20T16:20:01Z</time>
      </trkpt>
      <trkpt lat="25.4859340" lon="-100.7495940">
        <ele>1916.1</ele>
        <time>2022-08-20T16:20:02Z</time>
      </trkpt>
      <trkpt lat="25.4859120" lon="-100.7496440">
        <ele>1915.9</ele>
        <time>2022-08-20T16:20:04Z</time>
      </trkpt>
      <trkpt lat="25.4858920" lon="-100.7497100">
        <ele>1915.6</ele>
        <time>2022-08-20T16:20:05Z</time>
      </trkpt>
      <trkpt lat="25.4858630" lon="-100.7497820">
        <ele>1915.1</ele>
        <time>2022-08-20T16:20:07Z</time>
      </trkpt>
      <trkpt lat="25.4858460" lon="-100.7498380">
        <ele>1914.6</ele>
        <time>2022-08-20T16:20:08Z</time>
      </trkpt>
      <trkpt lat="25.4858330" lon="-100.7498980">
        <ele>1914.0</ele>
        <time>2022-08-20T16:20:09Z</time>
      </trkpt>
      <trkpt lat="25.4858280" lon="-100.7499650">
        <ele>1913.4</ele>
        <time>2022-08-20T16:20:10Z</time>
      </trkpt>
      <trkpt lat="25.4858360" lon="-100.7500360">
        <ele>1912.6</ele>
        <time>2022-08-20T16:20:11Z</time>
      </trkpt>
      <trkpt lat="25.4858560" lon="-100.7501100">
        <ele>1911.9</ele>
        <time>2022-08-20T16:20:12Z</time>
      </trkpt>
      <trkpt lat="25.4858870" lon="-100.7501870">
        <ele>1911.2</ele>
        <time>2022-08-20T16:20:13Z</time>
      </trkpt>
      <trkpt lat="25.4859270" lon="-100.7502690">
        <ele>1910.5</ele>
        <time>2022-08-20T16:20:14Z</time>
      </trkpt>
      <trkpt lat="25.4859710" lon="-100.7503560">
        <ele>1910.0</ele>
        <time>2022-08-20T16:20:15Z</time>
      </trkpt>
      <trkpt lat="25.4860160" lon="-100.7504430">
        <ele>1909.7</ele>
        <time>2022-08-20T16:20:16Z</time>
      </trkpt>
      <trkpt lat="25.4860600" lon="-100.7505300">
        <ele>1909.5</ele>
        <time>2022-08-20T16:20:17Z</time>
      </trkpt>
      <trkpt lat="25.4861020" lon="-100.7506150">
        <ele>1909.4</ele>
        <time>2022-08-20T16:20:18Z</time>
      </trkpt>
      <trkpt lat="25.4861400" lon="-100.7506990">
        <ele>1909.4</ele>
        <time>2022-08-20T16:20:19Z</time>
      </trkpt>
      <trkpt lat="25.4861750" lon="-100.7507770">
        <ele>1909.4</ele>
        <time>2022-08-20T16:20:20Z</time>
      </trkpt>
      <trkpt lat="25.4862100" lon="-100.7508490">
        <ele>1909.4</ele>
        <time>2022-08-20T16:20:21Z</time>
      </trkpt>
      <trkpt lat="25.4862470" lon="-100.7509130">
        <ele>1909.4</ele>
        <time>2022-08-20T16:20:22Z</time>
      </trkpt>
      <trkpt lat="25.4862830" lon="-100.7509740">
        <ele>1909.3</ele>
        <time>2022-08-20T16:20:23Z</time>
      </trkpt>
      <trkpt lat="25.4863150" lon="-100.7510340">
        <ele>1909.2</ele>
        <time>2022-08-20T16:20:24Z</time>
      </trkpt>
      <trkpt lat="25.4863450" lon="-100.7510950">
        <ele>1909.0</ele>
        <time>2022-08-20T16:20:25Z</time>
      </trkpt>
      <trkpt lat="25.4863700" lon="-100.7511590">
        <ele>1908.8</ele>
        <time>2022-08-20T16:20:26Z</time>
      </trkpt>
      <trkpt lat="25.4863920" lon="-100.7512250">
        <ele>1908.5</ele>
        <time>2022-08-20T16:20:27Z</time>
      </trkpt>
      <trkpt lat="25.4864110" lon="-100.7512960">
        <ele>1908.0</ele>
        <time>2022-08-20T16:20:28Z</time>
      </trkpt>
      <trkpt lat="25.4864270" lon="-100.7513730">
        <ele>1907.5</ele>
        <time>2022-08-20T16:20:29Z</time>
      </trkpt>
      <trkpt lat="25.4864350" lon="-100.7514530">
        <ele>1907.0</ele>
        <time>2022-08-20T16:20:30Z</time>
      </trkpt>
      <trkpt lat="25.4864340" lon="-100.7515370">
        <ele>1906.5</ele>
        <time>2022-08-20T16:20:31Z</time>
      </trkpt>
      <trkpt lat="25.4864290" lon="-100.7516270">
        <ele>1906.1</ele>
        <time>2022-08-20T16:20:32Z</time>
      </trkpt>
      <trkpt lat="25.4864210" lon="-100.7517200">
        <ele>1905.8</ele>
        <time>2022-08-20T16:20:33Z</time>
      </trkpt>
      <trkpt lat="25.4864110" lon="-100.7518150">
        <ele>1905.7</ele>
        <time>2022-08-20T16:20:34Z</time>
      </trkpt>
      <trkpt lat="25.4864010" lon="-100.7519060">
        <ele>1905.7</ele>
        <time>2022-08-20T16:20:35Z</time>
      </trkpt>
      <trkpt lat="25.4863920" lon="-100.7519960">
        <ele>1905.7</ele>
        <time>2022-08-20T16:20:36Z</time>
      </trkpt>
      <trkpt lat="25.4863850" lon="-100.7520810">
        <ele>1905.8</ele>
        <time>2022-08-20T16:20:37Z</time>
      </trkpt>
      <trkpt lat="25.4863800" lon="-100.7521580">
        <ele>1905.8</ele>
        <time>2022-08-20T16:20:38Z</time>
      </trkpt>
      <trkpt lat="25.4863770" lon="-100.7522270">
        <ele>1905.8</ele>
        <time>2022-08-20T16:20:39Z</time>
      </trkpt>
      <trkpt lat="25.4863780" lon="-100.7522920">
        <ele>1905.8</ele>
        <time>2022-08-20T16:20:40Z</time>
      </trkpt>
      <trkpt lat="25.4863820" lon="-100.7523550">
        <ele>1905.8</ele>
        <time>2022-08-20T16:20:41Z</time>
      </trkpt>
      <trkpt lat="25.4863900" lon="-100.7524190">
        <ele>1905.8</ele>
        <time>2022-08-20T16:20:42Z</time>
      </trkpt>
      <trkpt lat="25.4863980" lon="-100.7524840">
        <ele>1905.8</ele>
        <time>2022-08-20T16:20:43Z</time>
      </trkpt>
      <trkpt lat="25.4864010" lon="-100.7525510">
        <ele>1905.8</ele>
        <time>2022-08-20T16:20:44Z</time>
      </trkpt>
      <trkpt lat="25.4864070" lon="-100.7526210">
        <ele>1905.9</ele>
        <time>2022-08-20T16:20:45Z</time>
      </trkpt>
      <trkpt lat="25.4864180" lon="-100.7526920">
        <ele>1906.0</ele>
        <time>2022-08-20T16:20:46Z</time>
      </trkpt>
      <trkpt lat="25.4864320" lon="-100.7527640">
        <ele>1906.2</ele>
        <time>2022-08-20T16:20:47Z</time>
      </trkpt>
      <trkpt lat="25.4864490" lon="-100.7528340">
        <ele>1906.4</ele>
        <time>2022-08-20T16:20:48Z</time>
      </trkpt>
      <trkpt lat="25.4864690" lon="-100.7529050">
        <ele>1906.7</ele>
        <time>2022-08-20T16:20:49Z</time>
      </trkpt>
      <trkpt lat="25.4864910" lon="-100.7529740">
        <ele>1907.0</ele>
        <time>2022-08-20T16:20:50Z</time>
      </trkpt>
      <trkpt lat="25.4865150" lon="-100.7530420">
        <ele>1907.4</ele>
        <time>2022-08-20T16:20:51Z</time>
      </trkpt>
      <trkpt lat="25.4865420" lon="-100.7531040">
        <ele>1907.8</ele>
        <time>2022-08-20T16:20:52Z</time>
      </trkpt>
      <trkpt lat="25.4865690" lon="-100.7531590">
        <ele>1908.2</ele>
        <time>2022-08-20T16:20:53Z</time>
      </trkpt>
      <trkpt lat="25.4865950" lon="-100.7532050">
        <ele>1908.6</ele>
        <time>2022-08-20T16:20:54Z</time>
      </trkpt>
      <trkpt lat="25.4866210" lon="-100.7532450">
        <ele>1908.9</ele>
        <time>2022-08-20T16:20:55Z</time>
      </trkpt>
      <trkpt lat="25.4866470" lon="-100.7532810">
        <ele>1909.2</ele>
        <time>2022-08-20T16:20:56Z</time>
      </trkpt>
      <trkpt lat="25.4866590" lon="-100.7532980">
        <ele>1909.3</ele>
        <time>2022-08-20T16:20:57Z</time>
      </trkpt>
      <trkpt lat="25.4866780" lon="-100.7533270">
        <ele>1909.6</ele>
        <time>2022-08-20T16:20:58Z</time>
      </trkpt>
      <trkpt lat="25.4866990" lon="-100.7533620">
        <ele>1909.8</ele>
        <time>2022-08-20T16:20:59Z</time>
      </trkpt>
      <trkpt lat="25.4867240" lon="-100.7533970">
        <ele>1910.1</ele>
        <time>2022-08-20T16:21:00Z</time>
      </trkpt>
      <trkpt lat="25.4867350" lon="-100.7534110">
        <ele>1910.2</ele>
        <time>2022-08-20T16:21:01Z</time>
      </trkpt>
      <trkpt lat="25.4867530" lon="-100.7534340">
        <ele>1910.4</ele>
        <time>2022-08-20T16:21:02Z</time>
      </trkpt>
      <trkpt lat="25.4867950" lon="-100.7534420">
        <ele>1910.6</ele>
        <time>2022-08-20T16:21:03Z</time>
      </trkpt>
      <trkpt lat="25.4868070" lon="-100.7534840">
        <ele>1910.9</ele>
        <time>2022-08-20T16:21:04Z</time>
      </trkpt>
      <trkpt lat="25.4868180" lon="-100.7535280">
        <ele>1911.1</ele>
        <time>2022-08-20T16:21:06Z</time>
      </trkpt>
      <trkpt lat="25.4868300" lon="-100.7535670">
        <ele>1911.3</ele>
        <time>2022-08-20T16:21:07Z</time>
      </trkpt>
      <trkpt lat="25.4868550" lon="-100.7536120">
        <ele>1911.6</ele>
        <time>2022-08-20T16:21:08Z</time>
      </trkpt>
      <trkpt lat="25.4868710" lon="-100.7536460">
        <ele>1911.7</ele>
        <time>2022-08-20T16:21:09Z</time>
      </trkpt>
      <trkpt lat="25.4868890" lon="-100.7536880">
        <ele>1912.0</ele>
        <time>2022-08-20T16:21:11Z</time>
      </trkpt>
      <trkpt lat="25.4869080" lon="-100.7537220">
        <ele>1912.2</ele>
        <time>2022-08-20T16:21:12Z</time>
      </trkpt>
      <trkpt lat="25.4869250" lon="-100.7537510">
        <ele>1912.4</ele>
        <time>2022-08-20T16:21:13Z</time>
      </trkpt>
      <trkpt lat="25.4869490" lon="-100.7537900">
        <ele>1912.6</ele>
        <time>2022-08-20T16:21:14Z</time>
      </trkpt>
      <trkpt lat="25.4869690" lon="-100.7538150">
        <ele>1912.8</ele>
        <time>2022-08-20T16:21:15Z</time>
      </trkpt>
      <trkpt lat="25.4869980" lon="-100.7538510">
        <ele>1913.1</ele>
        <time>2022-08-20T16:21:16Z</time>
      </trkpt>
      <trkpt lat="25.4870180" lon="-100.7538750">
        <ele>1913.2</ele>
        <time>2022-08-20T16:21:17Z</time>
      </trkpt>
      <trkpt lat="25.4870450" lon="-100.7539000">
        <ele>1913.4</ele>
        <time>2022-08-20T16:21:19Z</time>
      </trkpt>
      <trkpt lat="25.4870660" lon="-100.7539220">
        <ele>1913.6</ele>
        <time>2022-08-20T16:21:20Z</time>
      </trkpt>
      <trkpt lat="25.4870900" lon="-100.7539440">
        <ele>1913.7</ele>
        <time>2022-08-20T16:21:21Z</time>
      </trkpt>
      <trkpt lat="25.4871240" lon="-100.7539780">
        <ele>1913.9</ele>
        <time>2022-08-20T16:21:22Z</time>
      </trkpt>
      <trkpt lat="25.4871400" lon="-100.7539910">
        <ele>1914.0</ele>
        <time>2022-08-20T16:21:23Z</time>
      </trkpt>
      <trkpt lat="25.4871640" lon="-100.7540060">
        <ele>1914.1</ele>
        <time>2022-08-20T16:21:24Z</time>
      </trkpt>
      <trkpt lat="25.4871790" lon="-100.7540120">
        <ele>1914.2</ele>
        <time>2022-08-20T16:21:26Z</time>
      </trkpt>
      <trkpt lat="25.4871930" lon="-100.7540190">
        <ele>1914.3</ele>
        <time>2022-08-20T16:21:27Z</time>
      </trkpt>
      <trkpt lat="25.4872080" lon="-100.7540260">
        <ele>1914.4</ele>
        <time>2022-08-20T16:21:28Z</time>
      </trkpt>
      <trkpt lat="25.4872740" lon="-100.7540530">
        <ele>1914.7</ele>
        <time>2022-08-20T16:21:29Z</time>
      </trkpt>
      <trkpt lat="25.4873390" lon="-100.7540860">
        <ele>1915.0</ele>
        <time>2022-08-20T16:21:31Z</time>
      </trkpt>
      <trkpt lat="25.4873810" lon="-100.7541090">
        <ele>1915.3</ele>
        <time>2022-08-20T16:21:32Z</time>
      </trkpt>
      <trkpt lat="25.4874460" lon="-100.7541420">
        <ele>1915.7</ele>
        <time>2022-08-20T16:21:33Z</time>
      </trkpt>
      <trkpt lat="25.4874910" lon="-100.7541700">
        <ele>1916.0</ele>
        <time>2022-08-20T16:21:34Z</time>
      </trkpt>
      <trkpt lat="25.4875340" lon="-100.7542050">
        <ele>1916.3</ele>
        <time>2022-08-20T16:21:36Z</time>
      </trkpt>
      <trkpt lat="25.4875610" lon="-100.7542290">
        <ele>1916.6</ele>
        <time>2022-08-20T16:21:37Z</time>
      </trkpt>
      <trkpt lat="25.4875930" lon="-100.7542630">
        <ele>1916.9</ele>
        <time>2022-08-20T16:21:38Z</time>
      </trkpt>
      <trkpt lat="25.4876230" lon="-100.7542930">
        <ele>1917.1</ele>
        <time>2022-08-20T16:21:39Z</time>
      </trkpt>
      <trkpt lat="25.4876440" lon="-100.7543120">
        <ele>1917.3</ele>
        <time>2022-08-20T16:21:40Z</time>
      </trkpt>
      <trkpt lat="25.4876660" lon="-100.7543410">
        <ele>1917.5</ele>
        <time>2022-08-20T16:21:41Z</time>
      </trkpt>
      <trkpt lat="25.4876850" lon="-100.7543610">
        <ele>1917.7</ele>
        <time>2022-08-20T16:21:42Z</time>
      </trkpt>
      <trkpt lat="25.4877080" lon="-100.7543860">
        <ele>1917.9</ele>
        <time>2022-08-20T16:21:44Z</time>
      </trkpt>
      <trkpt lat="25.4877270" lon="-100.7544070">
        <ele>1918.1</ele>
        <time>2022-08-20T16:21:45Z</time>
      </trkpt>
      <trkpt lat="25.4877490" lon="-100.7544280">
        <ele>1918.3</ele>
        <time>2022-08-20T16:21:46Z</time>
      </trkpt>
      <trkpt lat="25.4877800" lon="-100.7544580">
        <ele>1918.5</ele>
        <time>2022-08-20T16:21:47Z</time>
      </trkpt>
      <trkpt lat="25.4878110" lon="-100.7544860">
        <ele>1918.7</ele>
        <time>2022-08-20T16:21:48Z</time>
      </trkpt>
      <trkpt lat="25.4878480" lon="-100.7545220">
        <ele>1919.0</ele>
        <time>2022-08-20T16:21:50Z</time>
      </trkpt>
      <trkpt lat="25.4878770" lon="-100.7545430">
        <ele>1919.2</ele>
        <time>2022-08-20T16:21:51Z</time>
      </trkpt>
      <trkpt lat="25.4878880" lon="-100.7545500">
        <ele>1919.2</ele>
        <time>2022-08-20T16:21:53Z</time>
      </trkpt>
      <trkpt lat="25.4878980" lon="-100.7545570">
        <ele>1919.3</ele>
        <time>2022-08-20T16:21:54Z</time>
      </trkpt>
      <trkpt lat="25.4879090" lon="-100.7545640">
        <ele>1919.3</ele>
        <time>2022-08-20T16:21:55Z</time>
      </trkpt>
      <trkpt lat="25.4879620" lon="-100.7546070">
        <ele>1919.6</ele>
        <time>2022-08-20T16:21:57Z</time>
      </trkpt>
      <trkpt lat="25.4880130" lon="-100.7546520">
        <ele>1919.9</ele>
        <time>2022-08-20T16:21:58Z</time>
      </trkpt>
      <trkpt lat="25.4880600" lon="-100.7546960">
        <ele>1920.1</ele>
        <time>2022-08-20T16:21:59Z</time>
      </trkpt>
      <trkpt lat="25.4881050" lon="-100.7547400">
        <ele>1920.2</ele>
        <time>2022-08-20T16:22:00Z</time>
      </trkpt>
      <trkpt lat="25.4881730" lon="-100.7548170">
        <ele>1920.2</ele>
        <time>2022-08-20T16:22:02Z</time>
      </trkpt>
      <trkpt lat="25.4882000" lon="-100.7548480">
        <ele>1920.1</ele>
        <time>2022-08-20T16:22:03Z</time>
      </trkpt>
      <trkpt lat="25.4882620" lon="-100.7549200">
        <ele>1919.9</ele>
        <time>2022-08-20T16:22:05Z</time>
      </trkpt>
      <trkpt lat="25.4882920" lon="-100.7549710">
        <ele>1919.7</ele>
        <time>2022-08-20T16:22:06Z</time>
      </trkpt>
      <trkpt lat="25.4883210" lon="-100.7550260">
        <ele>1919.5</ele>
        <time>2022-08-20T16:22:07Z</time>
      </trkpt>
      <trkpt lat="25.4883460" lon="-100.7550860">
        <ele>1919.3</ele>
        <time>2022-08-20T16:22:08Z</time>
      </trkpt>
      <trkpt lat="25.4883710" lon="-100.7551450">
        <ele>1919.0</ele>
        <time>2022-08-20T16:22:09Z</time>
      </trkpt>
      <trkpt lat="25.4883950" lon="-100.7552040">
        <ele>1918.8</ele>
        <time>2022-08-20T16:22:10Z</time>
      </trkpt>
      <trkpt lat="25.4884180" lon="-100.7552710">
        <ele>1918.5</ele>
        <time>2022-08-20T16:22:11Z</time>
      </trkpt>
      <trkpt lat="25.4884370" lon="-100.7553410">
        <ele>1918.2</ele>
        <time>2022-08-20T16:22:12Z</time>
      </trkpt>
      <trkpt lat="25.4884530" lon="-100.7554100">
        <ele>1917.9</ele>
        <time>2022-08-20T16:22:13Z</time>
      </trkpt>
      <trkpt lat="25.4884660" lon="-100.7554870">
        <ele>1917.5</ele>
        <time>2022-08-20T16:22:14Z</time>
      </trkpt>
      <trkpt lat="25.4884790" lon="-100.7555680">
        <ele>1917.3</ele>
        <time>2022-08-20T16:22:15Z</time>
      </trkpt>
      <trkpt lat="25.4884910" lon="-100.7556530">
        <ele>1917.0</ele>
        <time>2022-08-20T16:22:16Z</time>
      </trkpt>
      <trkpt lat="25.4885030" lon="-100.7557380">
        <ele>1916.7</ele>
        <time>2022-08-20T16:22:17Z</time>
      </trkpt>
      <trkpt lat="25.4885170" lon="-100.7558250">
        <ele>1916.4</ele>
        <time>2022-08-20T16:22:18Z</time>
      </trkpt>
      <trkpt lat="25.4885330" lon="-100.7559120">
        <ele>1916.1</ele>
        <time>2022-08-20T16:22:19Z</time>
      </trkpt>
      <trkpt lat="25.4885480" lon="-100.7559980">
        <ele>1915.8</ele>
        <time>2022-08-20T16:22:20Z</time>
      </trkpt>
      <trkpt lat="25.4885630" lon="-100.7560870">
        <ele>1915.5</ele>
        <time>2022-08-20T16:22:21Z</time>
      </trkpt>
      <trkpt lat="25.4885760" lon="-100.7561760">
        <ele>1915.1</ele>
        <time>2022-08-20T16:22:22Z</time>
      </trkpt>
      <trkpt lat="25.4885890" lon="-100.7562670">
        <ele>1914.8</ele>
        <time>2022-08-20T16:22:23Z</time>
      </trkpt>
      <trkpt lat="25.4886010" lon="-100.7563550">
        <ele>1914.5</ele>
        <time>2022-08-20T16:22:24Z</time>
      </trkpt>
      <trkpt lat="25.4886130" lon="-100.7564460">
        <ele>1914.1</ele>
        <time>2022-08-20T16:22:25Z</time>
      </trkpt>
      <trkpt lat="25.4886240" lon="-100.7565370">
        <ele>1913.8</ele>
        <time>2022-08-20T16:22:26Z</time>
      </trkpt>
      <trkpt lat="25.4886330" lon="-100.7566310">
        <ele>1913.5</ele>
        <time>2022-08-20T16:22:27Z</time>
      </trkpt>
      <trkpt lat="25.4886430" lon="-100.7567280">
        <ele>1913.3</ele>
        <time>2022-08-20T16:22:28Z</time>
      </trkpt>
      <trkpt lat="25.4886540" lon="-100.7568290">
        <ele>1913.1</ele>
        <time>2022-08-20T16:22:29Z</time>
      </trkpt>
      <trkpt lat="25.4886670" lon="-100.7569240">
        <ele>1913.0</ele>
        <time>2022-08-20T16:22:30Z</time>
      </trkpt>
      <trkpt lat="25.4886820" lon="-100.7570160">
        <ele>1913.0</ele>
        <time>2022-08-20T16:22:31Z</time>
      </trkpt>
      <trkpt lat="25.4886990" lon="-100.7571030">
        <ele>1913.1</ele>
        <time>2022-08-20T16:22:32Z</time>
      </trkpt>
      <trkpt lat="25.4887220" lon="-100.7571870">
        <ele>1913.1</ele>
        <time>2022-08-20T16:22:33Z</time>
      </trkpt>
      <trkpt lat="25.4887580" lon="-100.7572640">
        <ele>1913.1</ele>
        <time>2022-08-20T16:22:34Z</time>
      </trkpt>
      <trkpt lat="25.4888100" lon="-100.7573280">
        <ele>1912.9</ele>
        <time>2022-08-20T16:22:35Z</time>
      </trkpt>
      <trkpt lat="25.4888670" lon="-100.7573840">
        <ele>1912.7</ele>
        <time>2022-08-20T16:22:36Z</time>
      </trkpt>
      <trkpt lat="25.4889210" lon="-100.7574490">
        <ele>1912.6</ele>
        <time>2022-08-20T16:22:37Z</time>
      </trkpt>
      <trkpt lat="25.4889680" lon="-100.7575280">
        <ele>1912.5</ele>
        <time>2022-08-20T16:22:38Z</time>
      </trkpt>
      <trkpt lat="25.4890030" lon="-100.7576170">
        <ele>1912.7</ele>
        <time>2022-08-20T16:22:39Z</time>
      </trkpt>
      <trkpt lat="25.4890310" lon="-100.7577080">
        <ele>1912.8</ele>
        <time>2022-08-20T16:22:40Z</time>
      </trkpt>
      <trkpt lat="25.4890520" lon="-100.7577940">
        <ele>1912.9</ele>
        <time>2022-08-20T16:22:41Z</time>
      </trkpt>
      <trkpt lat="25.4890760" lon="-100.7578730">
        <ele>1912.9</ele>
        <time>2022-08-20T16:22:42Z</time>
      </trkpt>
      <trkpt lat="25.4891060" lon="-100.7579460">
        <ele>1912.7</ele>
        <time>2022-08-20T16:22:43Z</time>
      </trkpt>
      <trkpt lat="25.4891440" lon="-100.7580210">
        <ele>1912.5</ele>
        <time>2022-08-20T16:22:44Z</time>
      </trkpt>
      <trkpt lat="25.4891830" lon="-100.7580990">
        <ele>1912.3</ele>
        <time>2022-08-20T16:22:45Z</time>
      </trkpt>
      <trkpt lat="25.4892210" lon="-100.7581830">
        <ele>1911.9</ele>
        <time>2022-08-20T16:22:46Z</time>
      </trkpt>
      <trkpt lat="25.4892570" lon="-100.7582720">
        <ele>1911.4</ele>
        <time>2022-08-20T16:22:47Z</time>
      </trkpt>
      <trkpt lat="25.4892910" lon="-100.7583670">
        <ele>1910.8</ele>
        <time>2022-08-20T16:22:48Z</time>
      </trkpt>
      <trkpt lat="25.4893230" lon="-100.7584650">
        <ele>1910.2</ele>
        <time>2022-08-20T16:22:49Z</time>
      </trkpt>
      <trkpt lat="25.4893560" lon="-100.7585670">
        <ele>1909.6</ele>
        <time>2022-08-20T16:22:50Z</time>
      </trkpt>
      <trkpt lat="25.4893920" lon="-100.7586710">
        <ele>1909.0</ele>
        <time>2022-08-20T16:22:51Z</time>
      </trkpt>
      <trkpt lat="25.4894300" lon="-100.7587740">
        <ele>1908.4</ele>
        <time>2022-08-20T16:22:52Z</time>
      </trkpt>
      <trkpt lat="25.4894690" lon="-100.7588730">
        <ele>1907.9</ele>
        <time>2022-08-20T16:22:53Z</time>
      </trkpt>
      <trkpt lat="25.4895120" lon="-100.7589710">
        <ele>1907.4</ele>
        <time>2022-08-20T16:22:54Z</time>
      </trkpt>
      <trkpt lat="25.4895530" lon="-100.7590660">
        <ele>1907.0</ele>
        <time>2022-08-20T16:22:55Z</time>
      </trkpt>
      <trkpt lat="25.4895910" lon="-100.7591650">
        <ele>1906.6</ele>
        <time>2022-08-20T16:22:56Z</time>
      </trkpt>
      <trkpt lat="25.4896260" lon="-100.7592670">
        <ele>1906.1</ele>
        <time>2022-08-20T16:22:57Z</time>
      </trkpt>
      <trkpt lat="25.4896610" lon="-100.7593690">
        <ele>1905.8</ele>
        <time>2022-08-20T16:22:58Z</time>
      </trkpt>
      <trkpt lat="25.4896970" lon="-100.7594680">
        <ele>1905.4</ele>
        <time>2022-08-20T16:22:59Z</time>
      </trkpt>
      <trkpt lat="25.4897340" lon="-100.7595650">
        <ele>1905.0</ele>
        <time>2022-08-20T16:23:00Z</time>
      </trkpt>
      <trkpt lat="25.4897720" lon="-100.7596600">
        <ele>1904.6</ele>
        <time>2022-08-20T16:23:01Z</time>
      </trkpt>
      <trkpt lat="25.4898110" lon="-100.7597550">
        <ele>1904.2</ele>
        <time>2022-08-20T16:23:02Z</time>
      </trkpt>
      <trkpt lat="25.4898510" lon="-100.7598480">
        <ele>1903.9</ele>
        <time>2022-08-20T16:23:03Z</time>
      </trkpt>
      <trkpt lat="25.4898930" lon="-100.7599360">
        <ele>1903.6</ele>
        <time>2022-08-20T16:23:04Z</time>
      </trkpt>
      <trkpt lat="25.4899380" lon="-100.7600220">
        <ele>1903.3</ele>
        <time>2022-08-20T16:23:05Z</time>
      </trkpt>
      <trkpt lat="25.4899870" lon="-100.7601070">
        <ele>1903.0</ele>
        <time>2022-08-20T16:23:06Z</time>
      </trkpt>
      <trkpt lat="25.4900410" lon="-100.7601920">
        <ele>1902.7</ele>
        <time>2022-08-20T16:23:07Z</time>
      </trkpt>
      <trkpt lat="25.4901000" lon="-100.7602720">
        <ele>1902.5</ele>
        <time>2022-08-20T16:23:08Z</time>
      </trkpt>
      <trkpt lat="25.4901570" lon="-100.7603520">
        <ele>1902.3</ele>
        <time>2022-08-20T16:23:09Z</time>
      </trkpt>
      <trkpt lat="25.4902120" lon="-100.7604350">
        <ele>1902.2</ele>
        <time>2022-08-20T16:23:10Z</time>
      </trkpt>
      <trkpt lat="25.4902610" lon="-100.7605240">
        <ele>1902.1</ele>
        <time>2022-08-20T16:23:11Z</time>
      </trkpt>
      <trkpt lat="25.4903030" lon="-100.7606170">
        <ele>1902.0</ele>
        <time>2022-08-20T16:23:12Z</time>
      </trkpt>
      <trkpt lat="25.4903420" lon="-100.7607090">
        <ele>1902.0</ele>
        <time>2022-08-20T16:23:13Z</time>
      </trkpt>
      <trkpt lat="25.4903800" lon="-100.7607980">
        <ele>1902.0</ele>
        <time>2022-08-20T16:23:14Z</time>
      </trkpt>
      <trkpt lat="25.4904140" lon="-100.7608840">
        <ele>1902.0</ele>
        <time>2022-08-20T16:23:15Z</time>
      </trkpt>
      <trkpt lat="25.4904470" lon="-100.7609690">
        <ele>1902.1</ele>
        <time>2022-08-20T16:23:16Z</time>
      </trkpt>
      <trkpt lat="25.4904770" lon="-100.7610510">
        <ele>1902.3</ele>
        <time>2022-08-20T16:23:17Z</time>
      </trkpt>
      <trkpt lat="25.4905060" lon="-100.7611370">
        <ele>1902.4</ele>
        <time>2022-08-20T16:23:18Z</time>
      </trkpt>
      <trkpt lat="25.4905320" lon="-100.7612220">
        <ele>1902.6</ele>
        <time>2022-08-20T16:23:19Z</time>
      </trkpt>
      <trkpt lat="25.4905550" lon="-100.7613040">
        <ele>1902.7</ele>
        <time>2022-08-20T16:23:20Z</time>
      </trkpt>
      <trkpt lat="25.4905740" lon="-100.7613820">
        <ele>1902.8</ele>
        <time>2022-08-20T16:23:21Z</time>
      </trkpt>
      <trkpt lat="25.4905870" lon="-100.7614590">
        <ele>1902.8</ele>
        <time>2022-08-20T16:23:22Z</time>
      </trkpt>
      <trkpt lat="25.4905940" lon="-100.7615340">
        <ele>1902.8</ele>
        <time>2022-08-20T16:23:23Z</time>
      </trkpt>
      <trkpt lat="25.4905990" lon="-100.7616080">
        <ele>1902.7</ele>
        <time>2022-08-20T16:23:24Z</time>
      </trkpt>
      <trkpt lat="25.4906030" lon="-100.7616820">
        <ele>1902.6</ele>
        <time>2022-08-20T16:23:25Z</time>
      </trkpt>
      <trkpt lat="25.4906060" lon="-100.7617580">
        <ele>1902.4</ele>
        <time>2022-08-20T16:23:26Z</time>
      </trkpt>
      <trkpt lat="25.4906070" lon="-100.7618340">
        <ele>1902.0</ele>
        <time>2022-08-20T16:23:27Z</time>
      </trkpt>
      <trkpt lat="25.4906010" lon="-100.7619090">
        <ele>1901.6</ele>
        <time>2022-08-20T16:23:28Z</time>
      </trkpt>
      <trkpt lat="25.4905890" lon="-100.7619880">
        <ele>1901.1</ele>
        <time>2022-08-20T16:23:29Z</time>
      </trkpt>
      <trkpt lat="25.4905740" lon="-100.7620710">
        <ele>1900.4</ele>
        <time>2022-08-20T16:23:30Z</time>
      </trkpt>
      <trkpt lat="25.4905540" lon="-100.7621550">
        <ele>1899.7</ele>
        <time>2022-08-20T16:23:31Z</time>
      </trkpt>
      <trkpt lat="25.4905300" lon="-100.7622440">
        <ele>1898.8</ele>
        <time>2022-08-20T16:23:32Z</time>
      </trkpt>
      <trkpt lat="25.4904990" lon="-100.7623370">
        <ele>1897.9</ele>
        <time>2022-08-20T16:23:33Z</time>
      </trkpt>
      <trkpt lat="25.4904610" lon="-100.7624290">
        <ele>1897.1</ele>
        <time>2022-08-20T16:23:34Z</time>
      </trkpt>
      <trkpt lat="25.4904160" lon="-100.7625180">
        <ele>1896.3</ele>
        <time>2022-08-20T16:23:35Z</time>
      </trkpt>
      <trkpt lat="25.4903650" lon="-100.7626040">
        <ele>1895.5</ele>
        <time>2022-08-20T16:23:36Z</time>
      </trkpt>
      <trkpt lat="25.4903060" lon="-100.7626860">
        <ele>1894.5</ele>
        <time>2022-08-20T16:23:37Z</time>
      </trkpt>
      <trkpt lat="25.4902420" lon="-100.7627670">
        <ele>1893.5</ele>
        <time>2022-08-20T16:23:38Z</time>
      </trkpt>
      <trkpt lat="25.4901780" lon="-100.7628460">
        <ele>1892.6</ele>
        <time>2022-08-20T16:23:39Z</time>
      </trkpt>
      <trkpt lat="25.4901140" lon="-100.7629250">
        <ele>1891.7</ele>
        <time>2022-08-20T16:23:40Z</time>
      </trkpt>
      <trkpt lat="25.4900530" lon="-100.7629990">
        <ele>1890.9</ele>
        <time>2022-08-20T16:23:41Z</time>
      </trkpt>
      <trkpt lat="25.4899930" lon="-100.7630640">
        <ele>1890.1</ele>
        <time>2022-08-20T16:23:42Z</time>
      </trkpt>
      <trkpt lat="25.4899290" lon="-100.7631120">
        <ele>1889.3</ele>
        <time>2022-08-20T16:23:43Z</time>
      </trkpt>
      <trkpt lat="25.4898550" lon="-100.7631390">
        <ele>1888.4</ele>
        <time>2022-08-20T16:23:44Z</time>
      </trkpt>
      <trkpt lat="25.4897710" lon="-100.7631380">
        <ele>1887.5</ele>
        <time>2022-08-20T16:23:45Z</time>
      </trkpt>
      <trkpt lat="25.4896850" lon="-100.7631050">
        <ele>1886.5</ele>
        <time>2022-08-20T16:23:46Z</time>
      </trkpt>
      <trkpt lat="25.4896060" lon="-100.7630490">
        <ele>1885.4</ele>
        <time>2022-08-20T16:23:47Z</time>
      </trkpt>
      <trkpt lat="25.4895390" lon="-100.7629890">
        <ele>1884.4</ele>
        <time>2022-08-20T16:23:48Z</time>
      </trkpt>
      <trkpt lat="25.4894780" lon="-100.7629460">
        <ele>1883.6</ele>
        <time>2022-08-20T16:23:49Z</time>
      </trkpt>
      <trkpt lat="25.4894210" lon="-100.7629220">
        <ele>1882.9</ele>
        <time>2022-08-20T16:23:50Z</time>
      </trkpt>
      <trkpt lat="25.4893710" lon="-100.7629230">
        <ele>1882.3</ele>
        <time>2022-08-20T16:23:51Z</time>
      </trkpt>
      <trkpt lat="25.4893280" lon="-100.7629500">
        <ele>1881.8</ele>
        <time>2022-08-20T16:23:52Z</time>
      </trkpt>
      <trkpt lat="25.4892990" lon="-100.7629970">
        <ele>1881.3</ele>
        <time>2022-08-20T16:23:53Z</time>
      </trkpt>
      <trkpt lat="25.4892880" lon="-100.7630570">
        <ele>1880.9</ele>
        <time>2022-08-20T16:23:54Z</time>
      </trkpt>
      <trkpt lat="25.4892900" lon="-100.7631250">
        <ele>1880.6</ele>
        <time>2022-08-20T16:23:55Z</time>
      </trkpt>
      <trkpt lat="25.4892970" lon="-100.7631960">
        <ele>1880.4</ele>
        <time>2022-08-20T16:23:56Z</time>
      </trkpt>
      <trkpt lat="25.4893080" lon="-100.7632690">
        <ele>1880.2</ele>
        <time>2022-08-20T16:23:57Z</time>
      </trkpt>
      <trkpt lat="25.4893210" lon="-100.7633410">
        <ele>1880.2</ele>
        <time>2022-08-20T16:23:58Z</time>
      </trkpt>
      <trkpt lat="25.4893320" lon="-100.7634110">
        <ele>1880.3</ele>
        <time>2022-08-20T16:23:59Z</time>
      </trkpt>
      <trkpt lat="25.4893370" lon="-100.7634820">
        <ele>1880.4</ele>
        <time>2022-08-20T16:24:00Z</time>
      </trkpt>
      <trkpt lat="25.4893360" lon="-100.7635530">
        <ele>1880.6</ele>
        <time>2022-08-20T16:24:01Z</time>
      </trkpt>
      <trkpt lat="25.4893350" lon="-100.7636210">
        <ele>1880.8</ele>
        <time>2022-08-20T16:24:02Z</time>
      </trkpt>
      <trkpt lat="25.4893340" lon="-100.7636710">
        <ele>1881.0</ele>
        <time>2022-08-20T16:24:03Z</time>
      </trkpt>
      <trkpt lat="25.4893370" lon="-100.7637070">
        <ele>1881.2</ele>
        <time>2022-08-20T16:24:04Z</time>
      </trkpt>
      <trkpt lat="25.4893380" lon="-100.7637170">
        <ele>1881.3</ele>
        <time>2022-08-20T16:24:05Z</time>
      </trkpt>
      <trkpt lat="25.4893410" lon="-100.7637480">
        <ele>1881.3</ele>
        <time>2022-08-20T16:24:06Z</time>
      </trkpt>
      <trkpt lat="25.4893470" lon="-100.7637610">
        <ele>1881.4</ele>
        <time>2022-08-20T16:24:07Z</time>
      </trkpt>
      <trkpt lat="25.4893580" lon="-100.7637720">
        <ele>1881.4</ele>
        <time>2022-08-20T16:24:08Z</time>
      </trkpt>
      <trkpt lat="25.4893620" lon="-100.7637790">
        <ele>1881.5</ele>
        <time>2022-08-20T16:24:09Z</time>
      </trkpt>
      <trkpt lat="25.4893630" lon="-100.7637800">
        <ele>1881.5</ele>
        <time>2022-08-20T16:24:10Z</time>
      </trkpt>
      <trkpt lat="25.4893670" lon="-100.7637780">
        <ele>1881.5</ele>
        <time>2022-08-20T16:24:11Z</time>
      </trkpt>
      <trkpt lat="25.4893660" lon="-100.7637770">
        <ele>1881.5</ele>
        <time>2022-08-20T16:24:12Z</time>
      </trkpt>
      <trkpt lat="25.4893590" lon="-100.7637800">
        <ele>1881.5</ele>
        <time>2022-08-20T16:24:13Z</time>
      </trkpt>
      <trkpt lat="25.4893570" lon="-100.7637810">
        <ele>1881.5</ele>
        <time>2022-08-20T16:24:14Z</time>
      </trkpt>
      <trkpt lat="25.4893560" lon="-100.7637840">
        <ele>1881.5</ele>
        <time>2022-08-20T16:24:15Z</time>
      </trkpt>
      <trkpt lat="25.4893560" lon="-100.7637850">
        <ele>1881.5</ele>
        <time>2022-08-20T16:24:16Z</time>
      </trkpt>
      <trkpt lat="25.4893570" lon="-100.7637840">
        <ele>1881.5</ele>
        <time>2022-08-20T16:24:17Z</time>
      </trkpt>
      <trkpt lat="25.4893570" lon="-100.7637860">
        <ele>1881.5</ele>
        <time>2022-08-20T16:24:18Z</time>
      </trkpt>
      <trkpt lat="25.4893570" lon="-100.7637870">
        <ele>1881.5</ele>
        <time>2022-08-20T16:24:19Z</time>
      </trkpt>
      <trkpt lat="25.4893580" lon="-100.7637870">
        <ele>1881.5</ele>
        <time>2022-08-20T16:24:20Z</time>
      </trkpt>
      <trkpt lat="25.4893580" lon="-100.7637880">
        <ele>1881.5</ele>
        <time>2022-08-20T16:24:21Z</time>
      </trkpt>
      <trkpt lat="25.4893590" lon="-100.7637890">
        <ele>1881.5</ele>
        <time>2022-08-20T16:24:22Z</time>
      </trkpt>
      <trkpt lat="25.4893590" lon="-100.7637890">
        <ele>1881.5</ele>
        <time>2022-08-20T16:24:23Z</time>
      </trkpt>
      <trkpt lat="25.4893590" lon="-100.7637890">
        <ele>1881.5</ele>
        <time>2022-08-20T16:24:24Z</time>
      </trkpt>
      <trkpt lat="25.4893580" lon="-100.7637890">
        <ele>1881.6</ele>
        <time>2022-08-20T16:24:25Z</time>
      </trkpt>
      <trkpt lat="25.4893600" lon="-100.7637810">
        <ele>1881.6</ele>
        <time>2022-08-20T16:24:26Z</time>
      </trkpt>
      <trkpt lat="25.4893600" lon="-100.7637790">
        <ele>1881.6</ele>
        <time>2022-08-20T16:24:27Z</time>
      </trkpt>
      <trkpt lat="25.4893600" lon="-100.7637780">
        <ele>1881.6</ele>
        <time>2022-08-20T16:24:28Z</time>
      </trkpt>
      <trkpt lat="25.4893600" lon="-100.7637780">
        <ele>1881.6</ele>
        <time>2022-08-20T16:24:29Z</time>
      </trkpt>
      <trkpt lat="25.4893600" lon="-100.7637780">
        <ele>1881.6</ele>
        <time>2022-08-20T16:24:30Z</time>
      </trkpt>
      <trkpt lat="25.4893600" lon="-100.7637780">
        <ele>1881.6</ele>
        <time>2022-08-20T16:24:31Z</time>
      </trkpt>
      <trkpt lat="25.4893600" lon="-100.7637780">
        <ele>1881.6</ele>
        <time>2022-08-20T16:24:32Z</time>
      </trkpt>
      <trkpt lat="25.4893600" lon="-100.7637780">
        <ele>1881.6</ele>
        <time>2022-08-20T16:24:33Z</time>
      </trkpt>
      <trkpt lat="25.4893600" lon="-100.7637780">
        <ele>1881.6</ele>
        <time>2022-08-20T16:24:34Z</time>
      </trkpt>
      <trkpt lat="25.4893600" lon="-100.7637780">
        <ele>1881.6</ele>
        <time>2022-08-20T16:24:35Z</time>
      </trkpt>
      <trkpt lat="25.4893600" lon="-100.7637780">
        <ele>1881.6</ele>
        <time>2022-08-20T16:24:36Z</time>
      </trkpt>
      <trkpt lat="25.4893600" lon="-100.7637780">
        <ele>1881.6</ele>
        <time>2022-08-20T16:24:37Z</time>
      </trkpt>
      <trkpt lat="25.4893600" lon="-100.7637780">
        <ele>1881.6</ele>
        <time>2022-08-20T16:24:38Z</time>
      </trkpt>
      <trkpt lat="25.4893600" lon="-100.7637780">
        <ele>1881.6</ele>
        <time>2022-08-20T16:24:39Z</time>
      </trkpt>
      <trkpt lat="25.4893600" lon="-100.7637780">
        <ele>1881.6</ele>
        <time>2022-08-20T16:24:40Z</time>
      </trkpt>
      <trkpt lat="25.4893600" lon="-100.7637780">
        <ele>1881.6</ele>
        <time>2022-08-20T16:24:41Z</time>
      </trkpt>
      <trkpt lat="25.4893600" lon="-100.7637780">
        <ele>1881.6</ele>
        <time>2022-08-20T16:24:42Z</time>
      </trkpt>
      <trkpt lat="25.4893600" lon="-100.7637780">
        <ele>1881.6</ele>
        <time>2022-08-20T16:24:43Z</time>
      </trkpt>
      <trkpt lat="25.4893600" lon="-100.7637780">
        <ele>1881.6</ele>
        <time>2022-08-20T16:24:44Z</time>
      </trkpt>
      <trkpt lat="25.4893600" lon="-100.7637780">
        <ele>1881.6</ele>
        <time>2022-08-20T16:24:45Z</time>
      </trkpt>
      <trkpt lat="25.4893600" lon="-100.7637780">
        <ele>1881.6</ele>
        <time>2022-08-20T16:24:46Z</time>
      </trkpt>
      <trkpt lat="25.4893600" lon="-100.7637780">
        <ele>1881.6</ele>
        <time>2022-08-20T16:24:47Z</time>
      </trkpt>
      <trkpt lat="25.4893600" lon="-100.7637780">
        <ele>1881.6</ele>
        <time>2022-08-20T16:24:48Z</time>
      </trkpt>
      <trkpt lat="25.4893600" lon="-100.7637780">
        <ele>1881.6</ele>
        <time>2022-08-20T16:24:49Z</time>
      </trkpt>
      <trkpt lat="25.4893600" lon="-100.7637780">
        <ele>1881.6</ele>
        <time>2022-08-20T16:24:50Z</time>
      </trkpt>
      <trkpt lat="25.4893600" lon="-100.7637780">
        <ele>1881.6</ele>
        <time>2022-08-20T16:24:51Z</time>
      </trkpt>
      <trkpt lat="25.4893600" lon="-100.7637780">
        <ele>1881.6</ele>
        <time>2022-08-20T16:24:52Z</time>
      </trkpt>
      <trkpt lat="25.4893600" lon="-100.7637780">
        <ele>1881.6</ele>
        <time>2022-08-20T16:24:53Z</time>
      </trkpt>
      <trkpt lat="25.4893600" lon="-100.7637780">
        <ele>1881.6</ele>
        <time>2022-08-20T16:24:54Z</time>
      </trkpt>
      <trkpt lat="25.4893600" lon="-100.7637780">
        <ele>1881.6</ele>
        <time>2022-08-20T16:24:55Z</time>
      </trkpt>
      <trkpt lat="25.4893600" lon="-100.7637780">
        <ele>1881.6</ele>
        <time>2022-08-20T16:24:56Z</time>
      </trkpt>
      <trkpt lat="25.4893600" lon="-100.7637780">
        <ele>1881.6</ele>
        <time>2022-08-20T16:24:57Z</time>
      </trkpt>
      <trkpt lat="25.4893600" lon="-100.7637780">
        <ele>1881.6</ele>
        <time>2022-08-20T16:24:58Z</time>
      </trkpt>
      <trkpt lat="25.4893600" lon="-100.7637780">
        <ele>1881.6</ele>
        <time>2022-08-20T16:24:59Z</time>
      </trkpt>
      <trkpt lat="25.4893600" lon="-100.7637780">
        <ele>1881.6</ele>
        <time>2022-08-20T16:25:00Z</time>
      </trkpt>
      <trkpt lat="25.4893600" lon="-100.7637780">
        <ele>1881.6</ele>
        <time>2022-08-20T16:25:01Z</time>
      </trkpt>
      <trkpt lat="25.4893600" lon="-100.7637780">
        <ele>1881.6</ele>
        <time>2022-08-20T16:25:02Z</time>
      </trkpt>
      <trkpt lat="25.4893600" lon="-100.7637780">
        <ele>1881.6</ele>
        <time>2022-08-20T16:25:03Z</time>
      </trkpt>
      <trkpt lat="25.4893600" lon="-100.7637780">
        <ele>1881.6</ele>
        <time>2022-08-20T16:25:04Z</time>
      </trkpt>
      <trkpt lat="25.4893600" lon="-100.7637780">
        <ele>1881.6</ele>
        <time>2022-08-20T16:25:05Z</time>
      </trkpt>
      <trkpt lat="25.4893600" lon="-100.7637780">
        <ele>1881.6</ele>
        <time>2022-08-20T16:25:06Z</time>
      </trkpt>
      <trkpt lat="25.4893600" lon="-100.7637780">
        <ele>1881.6</ele>
        <time>2022-08-20T16:25:07Z</time>
      </trkpt>
      <trkpt lat="25.4893580" lon="-100.7637790">
        <ele>1881.6</ele>
        <time>2022-08-20T16:25:08Z</time>
      </trkpt>
      <trkpt lat="25.4893490" lon="-100.7637830">
        <ele>1881.6</ele>
        <time>2022-08-20T16:25:09Z</time>
      </trkpt>
      <trkpt lat="25.4893470" lon="-100.7637840">
        <ele>1881.6</ele>
        <time>2022-08-20T16:25:10Z</time>
      </trkpt>
      <trkpt lat="25.4893430" lon="-100.7637840">
        <ele>1881.6</ele>
        <time>2022-08-20T16:25:11Z</time>
      </trkpt>
      <trkpt lat="25.4893430" lon="-100.7637840">
        <ele>1881.6</ele>
        <time>2022-08-20T16:25:12Z</time>
      </trkpt>
      <trkpt lat="25.4893430" lon="-100.7637840">
        <ele>1881.6</ele>
        <time>2022-08-20T16:25:13Z</time>
      </trkpt>
      <trkpt lat="25.4893430" lon="-100.7637830">
        <ele>1881.6</ele>
        <time>2022-08-20T16:25:14Z</time>
      </trkpt>
      <trkpt lat="25.4893430" lon="-100.7637830">
        <ele>1881.6</ele>
        <time>2022-08-20T16:25:15Z</time>
      </trkpt>
      <trkpt lat="25.4893430" lon="-100.7637830">
        <ele>1881.6</ele>
        <time>2022-08-20T16:25:16Z</time>
      </trkpt>
      <trkpt lat="25.4893430" lon="-100.7637830">
        <ele>1881.6</ele>
        <time>2022-08-20T16:25:17Z</time>
      </trkpt>
      <trkpt lat="25.4893430" lon="-100.7637830">
        <ele>1881.6</ele>
        <time>2022-08-20T16:25:18Z</time>
      </trkpt>
      <trkpt lat="25.4893430" lon="-100.7637830">
        <ele>1881.6</ele>
        <time>2022-08-20T16:25:19Z</time>
      </trkpt>
      <trkpt lat="25.4893430" lon="-100.7637830">
        <ele>1881.6</ele>
        <time>2022-08-20T16:25:20Z</time>
      </trkpt>
      <trkpt lat="25.4893430" lon="-100.7637830">
        <ele>1881.6</ele>
        <time>2022-08-20T16:25:21Z</time>
      </trkpt>
      <trkpt lat="25.4893430" lon="-100.7637830">
        <ele>1881.6</ele>
        <time>2022-08-20T16:25:22Z</time>
      </trkpt>
      <trkpt lat="25.4893430" lon="-100.7637830">
        <ele>1881.6</ele>
        <time>2022-08-20T16:25:23Z</time>
      </trkpt>
      <trkpt lat="25.4893430" lon="-100.7637830">
        <ele>1881.6</ele>
        <time>2022-08-20T16:25:24Z</time>
      </trkpt>
      <trkpt lat="25.4893430" lon="-100.7637830">
        <ele>1881.6</ele>
        <time>2022-08-20T16:25:25Z</time>
      </trkpt>
      <trkpt lat="25.4893430" lon="-100.7637830">
        <ele>1881.6</ele>
        <time>2022-08-20T16:25:26Z</time>
      </trkpt>
      <trkpt lat="25.4893430" lon="-100.7637830">
        <ele>1881.6</ele>
        <time>2022-08-20T16:25:27Z</time>
      </trkpt>
      <trkpt lat="25.4893430" lon="-100.7637830">
        <ele>1881.6</ele>
        <time>2022-08-20T16:25:28Z</time>
      </trkpt>
      <trkpt lat="25.4893430" lon="-100.7637830">
        <ele>1881.6</ele>
        <time>2022-08-20T16:25:29Z</time>
      </trkpt>
      <trkpt lat="25.4893430" lon="-100.7637830">
        <ele>1881.6</ele>
        <time>2022-08-20T16:25:30Z</time>
      </trkpt>
      <trkpt lat="25.4893430" lon="-100.7637830">
        <ele>1881.6</ele>
        <time>2022-08-20T16:25:31Z</time>
      </trkpt>
      <trkpt lat="25.4893430" lon="-100.7637830">
        <ele>1881.6</ele>
        <time>2022-08-20T16:25:32Z</time>
      </trkpt>
      <trkpt lat="25.4893430" lon="-100.7637830">
        <ele>1881.6</ele>
        <time>2022-08-20T16:25:33Z</time>
      </trkpt>
      <trkpt lat="25.4893430" lon="-100.7637830">
        <ele>1881.6</ele>
        <time>2022-08-20T16:25:34Z</time>
      </trkpt>
      <trkpt lat="25.4893430" lon="-100.7637830">
        <ele>1881.6</ele>
        <time>2022-08-20T16:25:35Z</time>
      </trkpt>
      <trkpt lat="25.4893430" lon="-100.7637830">
        <ele>1881.6</ele>
        <time>2022-08-20T16:25:36Z</time>
      </trkpt>
      <trkpt lat="25.4893430" lon="-100.7637830">
        <ele>1881.6</ele>
        <time>2022-08-20T16:25:37Z</time>
      </trkpt>
      <trkpt lat="25.4893430" lon="-100.7637830">
        <ele>1881.6</ele>
        <time>2022-08-20T16:25:38Z</time>
      </trkpt>
      <trkpt lat="25.4893430" lon="-100.7637830">
        <ele>1881.6</ele>
        <time>2022-08-20T16:25:39Z</time>
      </trkpt>
      <trkpt lat="25.4893430" lon="-100.7637830">
        <ele>1881.6</ele>
        <time>2022-08-20T16:25:40Z</time>
      </trkpt>
      <trkpt lat="25.4893430" lon="-100.7637830">
        <ele>1881.6</ele>
        <time>2022-08-20T16:25:41Z</time>
      </trkpt>
      <trkpt lat="25.4893430" lon="-100.7637830">
        <ele>1881.6</ele>
        <time>2022-08-20T16:25:42Z</time>
      </trkpt>
      <trkpt lat="25.4893430" lon="-100.7637830">
        <ele>1881.6</ele>
        <time>2022-08-20T16:25:43Z</time>
      </trkpt>
      <trkpt lat="25.4893430" lon="-100.7637830">
        <ele>1881.6</ele>
        <time>2022-08-20T16:25:44Z</time>
      </trkpt>
      <trkpt lat="25.4893430" lon="-100.7637830">
        <ele>1881.6</ele>
        <time>2022-08-20T16:25:45Z</time>
      </trkpt>
      <trkpt lat="25.4893430" lon="-100.7637830">
        <ele>1881.6</ele>
        <time>2022-08-20T16:25:46Z</time>
      </trkpt>
      <trkpt lat="25.4893430" lon="-100.7637830">
        <ele>1881.6</ele>
        <time>2022-08-20T16:25:47Z</time>
      </trkpt>
      <trkpt lat="25.4893430" lon="-100.7637830">
        <ele>1881.6</ele>
        <time>2022-08-20T16:25:48Z</time>
      </trkpt>
      <trkpt lat="25.4893430" lon="-100.7637830">
        <ele>1881.6</ele>
        <time>2022-08-20T16:25:49Z</time>
      </trkpt>
      <trkpt lat="25.4893430" lon="-100.7637830">
        <ele>1881.6</ele>
        <time>2022-08-20T16:25:50Z</time>
      </trkpt>
      <trkpt lat="25.4893430" lon="-100.7637830">
        <ele>1881.6</ele>
        <time>2022-08-20T16:25:51Z</time>
      </trkpt>
      <trkpt lat="25.4893430" lon="-100.7637830">
        <ele>1881.6</ele>
        <time>2022-08-20T16:25:52Z</time>
      </trkpt>
      <trkpt lat="25.4893430" lon="-100.7637830">
        <ele>1881.6</ele>
        <time>2022-08-20T16:25:53Z</time>
      </trkpt>
      <trkpt lat="25.4893430" lon="-100.7637830">
        <ele>1881.6</ele>
        <time>2022-08-20T16:25:54Z</time>
      </trkpt>
      <trkpt lat="25.4893430" lon="-100.7637830">
        <ele>1881.6</ele>
        <time>2022-08-20T16:25:55Z</time>
      </trkpt>
      <trkpt lat="25.4893430" lon="-100.7637830">
        <ele>1881.6</ele>
        <time>2022-08-20T16:25:56Z</time>
      </trkpt>
      <trkpt lat="25.4893430" lon="-100.7637830">
        <ele>1881.6</ele>
        <time>2022-08-20T16:25:57Z</time>
      </trkpt>
      <trkpt lat="25.4893430" lon="-100.7637830">
        <ele>1881.6</ele>
        <time>2022-08-20T16:25:58Z</time>
      </trkpt>
      <trkpt lat="25.4893430" lon="-100.7637830">
        <ele>1881.6</ele>
        <time>2022-08-20T16:25:59Z</time>
      </trkpt>
      <trkpt lat="25.4893430" lon="-100.7637830">
        <ele>1881.6</ele>
        <time>2022-08-20T16:26:00Z</time>
      </trkpt>
      <trkpt lat="25.4893430" lon="-100.7637830">
        <ele>1881.6</ele>
        <time>2022-08-20T16:26:01Z</time>
      </trkpt>
      <trkpt lat="25.4893430" lon="-100.7637830">
        <ele>1881.6</ele>
        <time>2022-08-20T16:26:02Z</time>
      </trkpt>
      <trkpt lat="25.4893430" lon="-100.7637830">
        <ele>1881.6</ele>
        <time>2022-08-20T16:26:03Z</time>
      </trkpt>
      <trkpt lat="25.4893430" lon="-100.7637830">
        <ele>1881.6</ele>
        <time>2022-08-20T16:26:04Z</time>
      </trkpt>
      <trkpt lat="25.4893430" lon="-100.7637830">
        <ele>1881.6</ele>
        <time>2022-08-20T16:26:05Z</time>
      </trkpt>
      <trkpt lat="25.4893430" lon="-100.7637830">
        <ele>1881.6</ele>
        <time>2022-08-20T16:26:06Z</time>
      </trkpt>
      <trkpt lat="25.4893430" lon="-100.7637830">
        <ele>1881.6</ele>
        <time>2022-08-20T16:26:07Z</time>
      </trkpt>
      <trkpt lat="25.4893430" lon="-100.7637830">
        <ele>1881.6</ele>
        <time>2022-08-20T16:26:08Z</time>
      </trkpt>
      <trkpt lat="25.4893430" lon="-100.7637830">
        <ele>1881.6</ele>
        <time>2022-08-20T16:26:09Z</time>
      </trkpt>
      <trkpt lat="25.4893430" lon="-100.7637830">
        <ele>1881.6</ele>
        <time>2022-08-20T16:26:10Z</time>
      </trkpt>
      <trkpt lat="25.4893430" lon="-100.7637830">
        <ele>1881.6</ele>
        <time>2022-08-20T16:26:11Z</time>
      </trkpt>
      <trkpt lat="25.4893430" lon="-100.7637830">
        <ele>1881.6</ele>
        <time>2022-08-20T16:26:12Z</time>
      </trkpt>
      <trkpt lat="25.4893430" lon="-100.7637830">
        <ele>1881.6</ele>
        <time>2022-08-20T16:26:13Z</time>
      </trkpt>
      <trkpt lat="25.4893430" lon="-100.7637830">
        <ele>1881.6</ele>
        <time>2022-08-20T16:26:14Z</time>
      </trkpt>
      <trkpt lat="25.4893430" lon="-100.7637830">
        <ele>1881.6</ele>
        <time>2022-08-20T16:26:15Z</time>
      </trkpt>
      <trkpt lat="25.4893430" lon="-100.7637830">
        <ele>1881.6</ele>
        <time>2022-08-20T16:26:16Z</time>
      </trkpt>
      <trkpt lat="25.4893430" lon="-100.7637830">
        <ele>1881.6</ele>
        <time>2022-08-20T16:26:17Z</time>
      </trkpt>
      <trkpt lat="25.4893430" lon="-100.7637830">
        <ele>1881.6</ele>
        <time>2022-08-20T16:26:18Z</time>
      </trkpt>
      <trkpt lat="25.4893430" lon="-100.7637830">
        <ele>1881.6</ele>
        <time>2022-08-20T16:26:19Z</time>
      </trkpt>
      <trkpt lat="25.4893430" lon="-100.7637830">
        <ele>1881.6</ele>
        <time>2022-08-20T16:26:20Z</time>
      </trkpt>
      <trkpt lat="25.4893430" lon="-100.7637830">
        <ele>1881.6</ele>
        <time>2022-08-20T16:26:21Z</time>
      </trkpt>
      <trkpt lat="25.4893430" lon="-100.7637830">
        <ele>1881.6</ele>
        <time>2022-08-20T16:26:22Z</time>
      </trkpt>
      <trkpt lat="25.4893430" lon="-100.7637830">
        <ele>1881.6</ele>
        <time>2022-08-20T16:26:23Z</time>
      </trkpt>
      <trkpt lat="25.4893430" lon="-100.7637830">
        <ele>1881.6</ele>
        <time>2022-08-20T16:26:24Z</time>
      </trkpt>
      <trkpt lat="25.4893430" lon="-100.7637830">
        <ele>1881.6</ele>
        <time>2022-08-20T16:26:25Z</time>
      </trkpt>
      <trkpt lat="25.4893430" lon="-100.7637830">
        <ele>1881.6</ele>
        <time>2022-08-20T16:26:26Z</time>
      </trkpt>
      <trkpt lat="25.4893430" lon="-100.7637830">
        <ele>1881.6</ele>
        <time>2022-08-20T16:26:27Z</time>
      </trkpt>
      <trkpt lat="25.4893430" lon="-100.7637830">
        <ele>1881.6</ele>
        <time>2022-08-20T16:26:28Z</time>
      </trkpt>
      <trkpt lat="25.4893430" lon="-100.7637830">
        <ele>1881.6</ele>
        <time>2022-08-20T16:26:29Z</time>
      </trkpt>
      <trkpt lat="25.4893430" lon="-100.7637830">
        <ele>1881.6</ele>
        <time>2022-08-20T16:26:30Z</time>
      </trkpt>
      <trkpt lat="25.4893430" lon="-100.7637830">
        <ele>1881.6</ele>
        <time>2022-08-20T16:26:31Z</time>
      </trkpt>
      <trkpt lat="25.4893430" lon="-100.7637830">
        <ele>1881.6</ele>
        <time>2022-08-20T16:26:32Z</time>
      </trkpt>
      <trkpt lat="25.4893430" lon="-100.7637830">
        <ele>1881.6</ele>
        <time>2022-08-20T16:26:33Z</time>
      </trkpt>
      <trkpt lat="25.4893410" lon="-100.7637840">
        <ele>1881.6</ele>
        <time>2022-08-20T16:26:34Z</time>
      </trkpt>
      <trkpt lat="25.4893410" lon="-100.7637870">
        <ele>1881.7</ele>
        <time>2022-08-20T16:26:35Z</time>
      </trkpt>
      <trkpt lat="25.4893410" lon="-100.7637890">
        <ele>1881.7</ele>
        <time>2022-08-20T16:26:36Z</time>
      </trkpt>
      <trkpt lat="25.4893390" lon="-100.7638020">
        <ele>1881.7</ele>
        <time>2022-08-20T16:26:37Z</time>
      </trkpt>
      <trkpt lat="25.4893360" lon="-100.7638280">
        <ele>1881.8</ele>
        <time>2022-08-20T16:26:38Z</time>
      </trkpt>
      <trkpt lat="25.4893340" lon="-100.7638400">
        <ele>1881.8</ele>
        <time>2022-08-20T16:26:39Z</time>
      </trkpt>
      <trkpt lat="25.4893330" lon="-100.7638510">
        <ele>1881.8</ele>
        <time>2022-08-20T16:26:40Z</time>
      </trkpt>
      <trkpt lat="25.4893260" lon="-100.7638910">
        <ele>1882.0</ele>
        <time>2022-08-20T16:26:41Z</time>
      </trkpt>
      <trkpt lat="25.4893240" lon="-100.7639070">
        <ele>1882.0</ele>
        <time>2022-08-20T16:26:42Z</time>
      </trkpt>
      <trkpt lat="25.4893250" lon="-100.7639240">
        <ele>1882.1</ele>
        <time>2022-08-20T16:26:43Z</time>
      </trkpt>
      <trkpt lat="25.4893260" lon="-100.7639460">
        <ele>1882.2</ele>
        <time>2022-08-20T16:26:44Z</time>
      </trkpt>
      <trkpt lat="25.4893270" lon="-100.7639850">
        <ele>1882.3</ele>
        <time>2022-08-20T16:26:45Z</time>
      </trkpt>
      <trkpt lat="25.4893270" lon="-100.7640000">
        <ele>1882.3</ele>
        <time>2022-08-20T16:26:46Z</time>
      </trkpt>
      <trkpt lat="25.4893290" lon="-100.7640300">
        <ele>1882.4</ele>
        <time>2022-08-20T16:26:47Z</time>
      </trkpt>
      <trkpt lat="25.4893290" lon="-100.7640610">
        <ele>1882.5</ele>
        <time>2022-08-20T16:26:48Z</time>
      </trkpt>
      <trkpt lat="25.4893270" lon="-100.7641180">
        <ele>1882.7</ele>
        <time>2022-08-20T16:26:49Z</time>
      </trkpt>
      <trkpt lat="25.4893270" lon="-100.7641560">
        <ele>1882.8</ele>
        <time>2022-08-20T16:26:50Z</time>
      </trkpt>
      <trkpt lat="25.4893240" lon="-100.7642040">
        <ele>1883.0</ele>
        <time>2022-08-20T16:26:52Z</time>
      </trkpt>
      <trkpt lat="25.4893150" lon="-100.7642400">
        <ele>1883.1</ele>
        <time>2022-08-20T16:26:53Z</time>
      </trkpt>
      <trkpt lat="25.4893030" lon="-100.7642730">
        <ele>1883.2</ele>
        <time>2022-08-20T16:26:54Z</time>
      </trkpt>
      <trkpt lat="25.4892870" lon="-100.7643080">
        <ele>1883.4</ele>
        <time>2022-08-20T16:26:55Z</time>
      </trkpt>
      <trkpt lat="25.4892700" lon="-100.7643390">
        <ele>1883.4</ele>
        <time>2022-08-20T16:26:56Z</time>
      </trkpt>
      <trkpt lat="25.4892530" lon="-100.7643700">
        <ele>1883.5</ele>
        <time>2022-08-20T16:26:57Z</time>
      </trkpt>
      <trkpt lat="25.4892320" lon="-100.7644030">
        <ele>1883.6</ele>
        <time>2022-08-20T16:26:58Z</time>
      </trkpt>
      <trkpt lat="25.4892040" lon="-100.7644550">
        <ele>1883.7</ele>
        <time>2022-08-20T16:26:59Z</time>
      </trkpt>
      <trkpt lat="25.4891720" lon="-100.7645100">
        <ele>1883.8</ele>
        <time>2022-08-20T16:27:01Z</time>
      </trkpt>
      <trkpt lat="25.4891360" lon="-100.7645570">
        <ele>1883.8</ele>
        <time>2022-08-20T16:27:02Z</time>
      </trkpt>
      <trkpt lat="25.4890960" lon="-100.7646100">
        <ele>1883.8</ele>
        <time>2022-08-20T16:27:03Z</time>
      </trkpt>
      <trkpt lat="25.4890630" lon="-100.7646530">
        <ele>1883.8</ele>
        <time>2022-08-20T16:27:05Z</time>
      </trkpt>
      <trkpt lat="25.4890300" lon="-100.7646930">
        <ele>1883.8</ele>
        <time>2022-08-20T16:27:06Z</time>
      </trkpt>
      <trkpt lat="25.4890010" lon="-100.7647340">
        <ele>1883.8</ele>
        <time>2022-08-20T16:27:07Z</time>
      </trkpt>
      <trkpt lat="25.4889750" lon="-100.7647790">
        <ele>1883.7</ele>
        <time>2022-08-20T16:27:08Z</time>
      </trkpt>
      <trkpt lat="25.4889470" lon="-100.7648280">
        <ele>1883.7</ele>
        <time>2022-08-20T16:27:09Z</time>
      </trkpt>
      <trkpt lat="25.4889170" lon="-100.7648770">
        <ele>1883.6</ele>
        <time>2022-08-20T16:27:10Z</time>
      </trkpt>
      <trkpt lat="25.4888870" lon="-100.7649240">
        <ele>1883.5</ele>
        <time>2022-08-20T16:27:11Z</time>
      </trkpt>
      <trkpt lat="25.4888590" lon="-100.7649700">
        <ele>1883.4</ele>
        <time>2022-08-20T16:27:12Z</time>
      </trkpt>
      <trkpt lat="25.4888330" lon="-100.7650180">
        <ele>1883.3</ele>
        <time>2022-08-20T16:27:13Z</time>
      </trkpt>
      <trkpt lat="25.4888070" lon="-100.7650700">
        <ele>1883.2</ele>
        <time>2022-08-20T16:27:14Z</time>
      </trkpt>
      <trkpt lat="25.4887800" lon="-100.7651250">
        <ele>1883.1</ele>
        <time>2022-08-20T16:27:15Z</time>
      </trkpt>
      <trkpt lat="25.4887500" lon="-100.7651830">
        <ele>1883.0</ele>
        <time>2022-08-20T16:27:16Z</time>
      </trkpt>
      <trkpt lat="25.4887230" lon="-100.7652410">
        <ele>1882.8</ele>
        <time>2022-08-20T16:27:17Z</time>
      </trkpt>
      <trkpt lat="25.4886950" lon="-100.7653020">
        <ele>1882.7</ele>
        <time>2022-08-20T16:27:18Z</time>
      </trkpt>
      <trkpt lat="25.4886640" lon="-100.7653630">
        <ele>1882.6</ele>
        <time>2022-08-20T16:27:19Z</time>
      </trkpt>
      <trkpt lat="25.4886310" lon="-100.7654250">
        <ele>1882.5</ele>
        <time>2022-08-20T16:27:20Z</time>
      </trkpt>
      <trkpt lat="25.4885980" lon="-100.7654860">
        <ele>1882.3</ele>
        <time>2022-08-20T16:27:21Z</time>
      </trkpt>
      <trkpt lat="25.4885630" lon="-100.7655470">
        <ele>1882.2</ele>
        <time>2022-08-20T16:27:22Z</time>
      </trkpt>
      <trkpt lat="25.4885240" lon="-100.7656050">
        <ele>1882.1</ele>
        <time>2022-08-20T16:27:23Z</time>
      </trkpt>
      <trkpt lat="25.4884820" lon="-100.7656620">
        <ele>1882.0</ele>
        <time>2022-08-20T16:27:24Z</time>
      </trkpt>
      <trkpt lat="25.4884360" lon="-100.7657160">
        <ele>1881.8</ele>
        <time>2022-08-20T16:27:25Z</time>
      </trkpt>
      <trkpt lat="25.4883880" lon="-100.7657680">
        <ele>1881.7</ele>
        <time>2022-08-20T16:27:26Z</time>
      </trkpt>
      <trkpt lat="25.4883390" lon="-100.7658170">
        <ele>1881.5</ele>
        <time>2022-08-20T16:27:27Z</time>
      </trkpt>
      <trkpt lat="25.4882880" lon="-100.7658640">
        <ele>1881.3</ele>
        <time>2022-08-20T16:27:28Z</time>
      </trkpt>
      <trkpt lat="25.4882350" lon="-100.7659120">
        <ele>1881.1</ele>
        <time>2022-08-20T16:27:29Z</time>
      </trkpt>
      <trkpt lat="25.4881810" lon="-100.7659600">
        <ele>1880.8</ele>
        <time>2022-08-20T16:27:30Z</time>
      </trkpt>
      <trkpt lat="25.4881260" lon="-100.7660080">
        <ele>1880.5</ele>
        <time>2022-08-20T16:27:31Z</time>
      </trkpt>
      <trkpt lat="25.4880690" lon="-100.7660580">
        <ele>1880.3</ele>
        <time>2022-08-20T16:27:32Z</time>
      </trkpt>
      <trkpt lat="25.4880110" lon="-100.7661080">
        <ele>1880.0</ele>
        <time>2022-08-20T16:27:33Z</time>
      </trkpt>
      <trkpt lat="25.4879490" lon="-100.7661610">
        <ele>1879.6</ele>
        <time>2022-08-20T16:27:34Z</time>
      </trkpt>
      <trkpt lat="25.4878880" lon="-100.7662130">
        <ele>1879.3</ele>
        <time>2022-08-20T16:27:35Z</time>
      </trkpt>
      <trkpt lat="25.4878260" lon="-100.7662660">
        <ele>1879.0</ele>
        <time>2022-08-20T16:27:36Z</time>
      </trkpt>
      <trkpt lat="25.4877640" lon="-100.7663200">
        <ele>1878.7</ele>
        <time>2022-08-20T16:27:37Z</time>
      </trkpt>
      <trkpt lat="25.4877020" lon="-100.7663740">
        <ele>1878.5</ele>
        <time>2022-08-20T16:27:38Z</time>
      </trkpt>
      <trkpt lat="25.4876400" lon="-100.7664300">
        <ele>1878.2</ele>
        <time>2022-08-20T16:27:39Z</time>
      </trkpt>
      <trkpt lat="25.4875780" lon="-100.7664850">
        <ele>1878.0</ele>
        <time>2022-08-20T16:27:40Z</time>
      </trkpt>
      <trkpt lat="25.4875150" lon="-100.7665400">
        <ele>1877.8</ele>
        <time>2022-08-20T16:27:41Z</time>
      </trkpt>
      <trkpt lat="25.4874530" lon="-100.7665950">
        <ele>1877.7</ele>
        <time>2022-08-20T16:27:42Z</time>
      </trkpt>
      <trkpt lat="25.4873900" lon="-100.7666500">
        <ele>1877.5</ele>
        <time>2022-08-20T16:27:43Z</time>
      </trkpt>
      <trkpt lat="25.4873300" lon="-100.7667050">
        <ele>1877.3</ele>
        <time>2022-08-20T16:27:44Z</time>
      </trkpt>
      <trkpt lat="25.4872700" lon="-100.7667600">
        <ele>1877.1</ele>
        <time>2022-08-20T16:27:45Z</time>
      </trkpt>
      <trkpt lat="25.4872100" lon="-100.7668150">
        <ele>1876.9</ele>
        <time>2022-08-20T16:27:46Z</time>
      </trkpt>
      <trkpt lat="25.4871480" lon="-100.7668720">
        <ele>1876.7</ele>
        <time>2022-08-20T16:27:47Z</time>
      </trkpt>
      <trkpt lat="25.4870850" lon="-100.7669310">
        <ele>1876.4</ele>
        <time>2022-08-20T16:27:48Z</time>
      </trkpt>
      <trkpt lat="25.4870210" lon="-100.7669880">
        <ele>1876.2</ele>
        <time>2022-08-20T16:27:49Z</time>
      </trkpt>
      <trkpt lat="25.4869600" lon="-100.7670440">
        <ele>1875.9</ele>
        <time>2022-08-20T16:27:50Z</time>
      </trkpt>
      <trkpt lat="25.4869010" lon="-100.7671000">
        <ele>1875.7</ele>
        <time>2022-08-20T16:27:51Z</time>
      </trkpt>
      <trkpt lat="25.4868400" lon="-100.7671560">
        <ele>1875.5</ele>
        <time>2022-08-20T16:27:52Z</time>
      </trkpt>
      <trkpt lat="25.4867770" lon="-100.7672140">
        <ele>1875.3</ele>
        <time>2022-08-20T16:27:53Z</time>
      </trkpt>
      <trkpt lat="25.4867150" lon="-100.7672710">
        <ele>1875.1</ele>
        <time>2022-08-20T16:27:54Z</time>
      </trkpt>
      <trkpt lat="25.4866530" lon="-100.7673290">
        <ele>1874.9</ele>
        <time>2022-08-20T16:27:55Z</time>
      </trkpt>
      <trkpt lat="25.4865940" lon="-100.7673890">
        <ele>1874.7</ele>
        <time>2022-08-20T16:27:56Z</time>
      </trkpt>
      <trkpt lat="25.4865340" lon="-100.7674510">
        <ele>1874.5</ele>
        <time>2022-08-20T16:27:57Z</time>
      </trkpt>
      <trkpt lat="25.4864730" lon="-100.7675080">
        <ele>1874.2</ele>
        <time>2022-08-20T16:27:58Z</time>
      </trkpt>
      <trkpt lat="25.4864120" lon="-100.7675610">
        <ele>1874.0</ele>
        <time>2022-08-20T16:27:59Z</time>
      </trkpt>
      <trkpt lat="25.4863470" lon="-100.7676130">
        <ele>1873.8</ele>
        <time>2022-08-20T16:28:00Z</time>
      </trkpt>
      <trkpt lat="25.4862850" lon="-100.7676630">
        <ele>1873.6</ele>
        <time>2022-08-20T16:28:01Z</time>
      </trkpt>
      <trkpt lat="25.4862200" lon="-100.7677120">
        <ele>1873.4</ele>
        <time>2022-08-20T16:28:02Z</time>
      </trkpt>
      <trkpt lat="25.4861530" lon="-100.7677610">
        <ele>1873.1</ele>
        <time>2022-08-20T16:28:03Z</time>
      </trkpt>
      <trkpt lat="25.4860860" lon="-100.7678040">
        <ele>1872.9</ele>
        <time>2022-08-20T16:28:04Z</time>
      </trkpt>
      <trkpt lat="25.4860170" lon="-100.7678480">
        <ele>1872.7</ele>
        <time>2022-08-20T16:28:05Z</time>
      </trkpt>
      <trkpt lat="25.4859490" lon="-100.7678970">
        <ele>1872.4</ele>
        <time>2022-08-20T16:28:06Z</time>
      </trkpt>
      <trkpt lat="25.4858780" lon="-100.7679490">
        <ele>1872.2</ele>
        <time>2022-08-20T16:28:07Z</time>
      </trkpt>
      <trkpt lat="25.4858060" lon="-100.7679970">
        <ele>1872.0</ele>
        <time>2022-08-20T16:28:08Z</time>
      </trkpt>
      <trkpt lat="25.4857360" lon="-100.7680420">
        <ele>1871.8</ele>
        <time>2022-08-20T16:28:09Z</time>
      </trkpt>
      <trkpt lat="25.4856660" lon="-100.7680870">
        <ele>1871.5</ele>
        <time>2022-08-20T16:28:10Z</time>
      </trkpt>
      <trkpt lat="25.4855970" lon="-100.7681340">
        <ele>1871.3</ele>
        <time>2022-08-20T16:28:11Z</time>
      </trkpt>
      <trkpt lat="25.4855310" lon="-100.7681840">
        <ele>1871.1</ele>
        <time>2022-08-20T16:28:12Z</time>
      </trkpt>
      <trkpt lat="25.4854660" lon="-100.7682380">
        <ele>1870.9</ele>
        <time>2022-08-20T16:28:13Z</time>
      </trkpt>
      <trkpt lat="25.4854040" lon="-100.7682990">
        <ele>1870.6</ele>
        <time>2022-08-20T16:28:14Z</time>
      </trkpt>
      <trkpt lat="25.4853470" lon="-100.7683690">
        <ele>1870.3</ele>
        <time>2022-08-20T16:28:15Z</time>
      </trkpt>
      <trkpt lat="25.4852940" lon="-100.7684450">
        <ele>1870.0</ele>
        <time>2022-08-20T16:28:16Z</time>
      </trkpt>
      <trkpt lat="25.4852440" lon="-100.7685280">
        <ele>1869.7</ele>
        <time>2022-08-20T16:28:17Z</time>
      </trkpt>
      <trkpt lat="25.4851980" lon="-100.7686140">
        <ele>1869.3</ele>
        <time>2022-08-20T16:28:18Z</time>
      </trkpt>
      <trkpt lat="25.4851550" lon="-100.7687020">
        <ele>1868.8</ele>
        <time>2022-08-20T16:28:19Z</time>
      </trkpt>
      <trkpt lat="25.4851120" lon="-100.7687900">
        <ele>1868.4</ele>
        <time>2022-08-20T16:28:20Z</time>
      </trkpt>
      <trkpt lat="25.4850660" lon="-100.7688830">
        <ele>1867.8</ele>
        <time>2022-08-20T16:28:21Z</time>
      </trkpt>
      <trkpt lat="25.4850170" lon="-100.7689770">
        <ele>1867.2</ele>
        <time>2022-08-20T16:28:22Z</time>
      </trkpt>
      <trkpt lat="25.4849670" lon="-100.7690670">
        <ele>1866.7</ele>
        <time>2022-08-20T16:28:23Z</time>
      </trkpt>
      <trkpt lat="25.4849170" lon="-100.7691580">
        <ele>1866.1</ele>
        <time>2022-08-20T16:28:24Z</time>
      </trkpt>
      <trkpt lat="25.4848630" lon="-100.7692530">
        <ele>1865.5</ele>
        <time>2022-08-20T16:28:25Z</time>
      </trkpt>
      <trkpt lat="25.4848080" lon="-100.7693480">
        <ele>1864.9</ele>
        <time>2022-08-20T16:28:26Z</time>
      </trkpt>
      <trkpt lat="25.4847530" lon="-100.7694440">
        <ele>1864.3</ele>
        <time>2022-08-20T16:28:27Z</time>
      </trkpt>
      <trkpt lat="25.4847000" lon="-100.7695380">
        <ele>1863.8</ele>
        <time>2022-08-20T16:28:28Z</time>
      </trkpt>
      <trkpt lat="25.4846480" lon="-100.7696270">
        <ele>1863.4</ele>
        <time>2022-08-20T16:28:29Z</time>
      </trkpt>
      <trkpt lat="25.4845930" lon="-100.7697120">
        <ele>1863.1</ele>
        <time>2022-08-20T16:28:30Z</time>
      </trkpt>
      <trkpt lat="25.4845340" lon="-100.7697930">
        <ele>1862.8</ele>
        <time>2022-08-20T16:28:31Z</time>
      </trkpt>
      <trkpt lat="25.4844710" lon="-100.7698700">
        <ele>1862.6</ele>
        <time>2022-08-20T16:28:32Z</time>
      </trkpt>
      <trkpt lat="25.4844030" lon="-100.7699420">
        <ele>1862.3</ele>
        <time>2022-08-20T16:28:33Z</time>
      </trkpt>
      <trkpt lat="25.4843330" lon="-100.7700090">
        <ele>1862.1</ele>
        <time>2022-08-20T16:28:34Z</time>
      </trkpt>
      <trkpt lat="25.4842610" lon="-100.7700740">
        <ele>1862.0</ele>
        <time>2022-08-20T16:28:35Z</time>
      </trkpt>
      <trkpt lat="25.4841890" lon="-100.7701380">
        <ele>1861.8</ele>
        <time>2022-08-20T16:28:36Z</time>
      </trkpt>
      <trkpt lat="25.4841150" lon="-100.7702030">
        <ele>1861.6</ele>
        <time>2022-08-20T16:28:37Z</time>
      </trkpt>
      <trkpt lat="25.4840420" lon="-100.7702690">
        <ele>1861.3</ele>
        <time>2022-08-20T16:28:38Z</time>
      </trkpt>
      <trkpt lat="25.4839690" lon="-100.7703350">
        <ele>1861.1</ele>
        <time>2022-08-20T16:28:39Z</time>
      </trkpt>
      <trkpt lat="25.4838960" lon="-100.7703990">
        <ele>1860.9</ele>
        <time>2022-08-20T16:28:40Z</time>
      </trkpt>
      <trkpt lat="25.4838240" lon="-100.7704630">
        <ele>1860.7</ele>
        <time>2022-08-20T16:28:41Z</time>
      </trkpt>
      <trkpt lat="25.4837520" lon="-100.7705270">
        <ele>1860.5</ele>
        <time>2022-08-20T16:28:42Z</time>
      </trkpt>
      <trkpt lat="25.4836790" lon="-100.7705920">
        <ele>1860.2</ele>
        <time>2022-08-20T16:28:43Z</time>
      </trkpt>
      <trkpt lat="25.4836060" lon="-100.7706560">
        <ele>1860.0</ele>
        <time>2022-08-20T16:28:44Z</time>
      </trkpt>
      <trkpt lat="25.4835330" lon="-100.7707180">
        <ele>1859.8</ele>
        <time>2022-08-20T16:28:45Z</time>
      </trkpt>
      <trkpt lat="25.4834600" lon="-100.7707800">
        <ele>1859.5</ele>
        <time>2022-08-20T16:28:46Z</time>
      </trkpt>
      <trkpt lat="25.4833850" lon="-100.7708390">
        <ele>1859.3</ele>
        <time>2022-08-20T16:28:47Z</time>
      </trkpt>
      <trkpt lat="25.4833110" lon="-100.7708980">
        <ele>1859.1</ele>
        <time>2022-08-20T16:28:48Z</time>
      </trkpt>
      <trkpt lat="25.4832350" lon="-100.7709570">
        <ele>1858.9</ele>
        <time>2022-08-20T16:28:49Z</time>
      </trkpt>
      <trkpt lat="25.4831620" lon="-100.7710170">
        <ele>1858.8</ele>
        <time>2022-08-20T16:28:50Z</time>
      </trkpt>
      <trkpt lat="25.4830900" lon="-100.7710780">
        <ele>1858.6</ele>
        <time>2022-08-20T16:28:51Z</time>
      </trkpt>
      <trkpt lat="25.4830180" lon="-100.7711430">
        <ele>1858.4</ele>
        <time>2022-08-20T16:28:52Z</time>
      </trkpt>
      <trkpt lat="25.4829480" lon="-100.7712080">
        <ele>1858.3</ele>
        <time>2022-08-20T16:28:53Z</time>
      </trkpt>
      <trkpt lat="25.4828770" lon="-100.7712800">
        <ele>1858.2</ele>
        <time>2022-08-20T16:28:54Z</time>
      </trkpt>
      <trkpt lat="25.4828110" lon="-100.7713580">
        <ele>1858.2</ele>
        <time>2022-08-20T16:28:55Z</time>
      </trkpt>
      <trkpt lat="25.4827530" lon="-100.7714360">
        <ele>1858.1</ele>
        <time>2022-08-20T16:28:56Z</time>
      </trkpt>
      <trkpt lat="25.4826990" lon="-100.7715130">
        <ele>1858.1</ele>
        <time>2022-08-20T16:28:57Z</time>
      </trkpt>
      <trkpt lat="25.4826460" lon="-100.7715870">
        <ele>1858.1</ele>
        <time>2022-08-20T16:28:58Z</time>
      </trkpt>
      <trkpt lat="25.4825920" lon="-100.7716600">
        <ele>1858.1</ele>
        <time>2022-08-20T16:28:59Z</time>
      </trkpt>
      <trkpt lat="25.4825440" lon="-100.7717320">
        <ele>1858.2</ele>
        <time>2022-08-20T16:29:00Z</time>
      </trkpt>
      <trkpt lat="25.4825080" lon="-100.7718130">
        <ele>1858.2</ele>
        <time>2022-08-20T16:29:01Z</time>
      </trkpt>
      <trkpt lat="25.4824860" lon="-100.7719030">
        <ele>1858.2</ele>
        <time>2022-08-20T16:29:02Z</time>
      </trkpt>
      <trkpt lat="25.4824670" lon="-100.7719950">
        <ele>1858.2</ele>
        <time>2022-08-20T16:29:03Z</time>
      </trkpt>
      <trkpt lat="25.4824500" lon="-100.7720900">
        <ele>1858.3</ele>
        <time>2022-08-20T16:29:04Z</time>
      </trkpt>
      <trkpt lat="25.4824300" lon="-100.7721840">
        <ele>1858.4</ele>
        <time>2022-08-20T16:29:05Z</time>
      </trkpt>
      <trkpt lat="25.4824080" lon="-100.7722750">
        <ele>1858.5</ele>
        <time>2022-08-20T16:29:06Z</time>
      </trkpt>
      <trkpt lat="25.4823840" lon="-100.7723590">
        <ele>1858.7</ele>
        <time>2022-08-20T16:29:07Z</time>
      </trkpt>
      <trkpt lat="25.4823600" lon="-100.7724440">
        <ele>1858.8</ele>
        <time>2022-08-20T16:29:08Z</time>
      </trkpt>
      <trkpt lat="25.4823460" lon="-100.7725310">
        <ele>1859.1</ele>
        <time>2022-08-20T16:29:09Z</time>
      </trkpt>
      <trkpt lat="25.4823390" lon="-100.7726220">
        <ele>1859.3</ele>
        <time>2022-08-20T16:29:10Z</time>
      </trkpt>
      <trkpt lat="25.4823430" lon="-100.7727160">
        <ele>1859.5</ele>
        <time>2022-08-20T16:29:11Z</time>
      </trkpt>
      <trkpt lat="25.4823560" lon="-100.7728070">
        <ele>1859.5</ele>
        <time>2022-08-20T16:29:12Z</time>
      </trkpt>
      <trkpt lat="25.4823690" lon="-100.7728900">
        <ele>1859.3</ele>
        <time>2022-08-20T16:29:13Z</time>
      </trkpt>
      <trkpt lat="25.4823830" lon="-100.7729720">
        <ele>1858.8</ele>
        <time>2022-08-20T16:29:14Z</time>
      </trkpt>
      <trkpt lat="25.4824010" lon="-100.7730550">
        <ele>1858.1</ele>
        <time>2022-08-20T16:29:15Z</time>
      </trkpt>
      <trkpt lat="25.4824220" lon="-100.7731380">
        <ele>1857.2</ele>
        <time>2022-08-20T16:29:16Z</time>
      </trkpt>
      <trkpt lat="25.4824430" lon="-100.7732270">
        <ele>1856.3</ele>
        <time>2022-08-20T16:29:17Z</time>
      </trkpt>
      <trkpt lat="25.4824580" lon="-100.7733230">
        <ele>1855.3</ele>
        <time>2022-08-20T16:29:18Z</time>
      </trkpt>
      <trkpt lat="25.4824690" lon="-100.7734270">
        <ele>1854.3</ele>
        <time>2022-08-20T16:29:19Z</time>
      </trkpt>
      <trkpt lat="25.4824750" lon="-100.7735360">
        <ele>1853.4</ele>
        <time>2022-08-20T16:29:20Z</time>
      </trkpt>
      <trkpt lat="25.4824760" lon="-100.7736570">
        <ele>1852.9</ele>
        <time>2022-08-20T16:29:21Z</time>
      </trkpt>
      <trkpt lat="25.4824730" lon="-100.7737830">
        <ele>1852.5</ele>
        <time>2022-08-20T16:29:22Z</time>
      </trkpt>
      <trkpt lat="25.4824690" lon="-100.7739070">
        <ele>1852.3</ele>
        <time>2022-08-20T16:29:23Z</time>
      </trkpt>
      <trkpt lat="25.4824630" lon="-100.7740260">
        <ele>1852.1</ele>
        <time>2022-08-20T16:29:24Z</time>
      </trkpt>
      <trkpt lat="25.4824540" lon="-100.7741430">
        <ele>1852.0</ele>
        <time>2022-08-20T16:29:25Z</time>
      </trkpt>
      <trkpt lat="25.4824420" lon="-100.7742540">
        <ele>1851.7</ele>
        <time>2022-08-20T16:29:26Z</time>
      </trkpt>
      <trkpt lat="25.4824230" lon="-100.7743600">
        <ele>1851.4</ele>
        <time>2022-08-20T16:29:27Z</time>
      </trkpt>
      <trkpt lat="25.4823930" lon="-100.7744600">
        <ele>1850.9</ele>
        <time>2022-08-20T16:29:28Z</time>
      </trkpt>
      <trkpt lat="25.4823530" lon="-100.7745500">
        <ele>1850.3</ele>
        <time>2022-08-20T16:29:29Z</time>
      </trkpt>
      <trkpt lat="25.4823040" lon="-100.7746380">
        <ele>1849.7</ele>
        <time>2022-08-20T16:29:30Z</time>
      </trkpt>
      <trkpt lat="25.4822550" lon="-100.7747240">
        <ele>1849.2</ele>
        <time>2022-08-20T16:29:31Z</time>
      </trkpt>
      <trkpt lat="25.4822050" lon="-100.7748180">
        <ele>1848.8</ele>
        <time>2022-08-20T16:29:32Z</time>
      </trkpt>
      <trkpt lat="25.4821550" lon="-100.7749180">
        <ele>1848.4</ele>
        <time>2022-08-20T16:29:33Z</time>
      </trkpt>
      <trkpt lat="25.4821110" lon="-100.7750210">
        <ele>1848.2</ele>
        <time>2022-08-20T16:29:34Z</time>
      </trkpt>
      <trkpt lat="25.4820710" lon="-100.7751300">
        <ele>1848.0</ele>
        <time>2022-08-20T16:29:35Z</time>
      </trkpt>
      <trkpt lat="25.4820350" lon="-100.7752390">
        <ele>1847.8</ele>
        <time>2022-08-20T16:29:36Z</time>
      </trkpt>
      <trkpt lat="25.4820030" lon="-100.7753470">
        <ele>1847.7</ele>
        <time>2022-08-20T16:29:37Z</time>
      </trkpt>
      <trkpt lat="25.4819780" lon="-100.7754540">
        <ele>1847.6</ele>
        <time>2022-08-20T16:29:38Z</time>
      </trkpt>
      <trkpt lat="25.4819520" lon="-100.7755590">
        <ele>1847.4</ele>
        <time>2022-08-20T16:29:39Z</time>
      </trkpt>
      <trkpt lat="25.4819230" lon="-100.7756610">
        <ele>1847.3</ele>
        <time>2022-08-20T16:29:40Z</time>
      </trkpt>
      <trkpt lat="25.4818920" lon="-100.7757610">
        <ele>1847.1</ele>
        <time>2022-08-20T16:29:41Z</time>
      </trkpt>
      <trkpt lat="25.4818570" lon="-100.7758600">
        <ele>1847.0</ele>
        <time>2022-08-20T16:29:42Z</time>
      </trkpt>
      <trkpt lat="25.4818200" lon="-100.7759550">
        <ele>1846.8</ele>
        <time>2022-08-20T16:29:43Z</time>
      </trkpt>
      <trkpt lat="25.4817820" lon="-100.7760480">
        <ele>1846.6</ele>
        <time>2022-08-20T16:29:44Z</time>
      </trkpt>
      <trkpt lat="25.4817430" lon="-100.7761400">
        <ele>1846.5</ele>
        <time>2022-08-20T16:29:45Z</time>
      </trkpt>
      <trkpt lat="25.4817050" lon="-100.7762290">
        <ele>1846.3</ele>
        <time>2022-08-20T16:29:46Z</time>
      </trkpt>
      <trkpt lat="25.4816690" lon="-100.7763170">
        <ele>1846.1</ele>
        <time>2022-08-20T16:29:47Z</time>
      </trkpt>
      <trkpt lat="25.4816300" lon="-100.7764050">
        <ele>1845.9</ele>
        <time>2022-08-20T16:29:48Z</time>
      </trkpt>
      <trkpt lat="25.4815860" lon="-100.7764900">
        <ele>1845.7</ele>
        <time>2022-08-20T16:29:49Z</time>
      </trkpt>
      <trkpt lat="25.4815440" lon="-100.7765740">
        <ele>1845.5</ele>
        <time>2022-08-20T16:29:50Z</time>
      </trkpt>
      <trkpt lat="25.4815000" lon="-100.7766630">
        <ele>1845.4</ele>
        <time>2022-08-20T16:29:51Z</time>
      </trkpt>
      <trkpt lat="25.4814520" lon="-100.7767430">
        <ele>1845.2</ele>
        <time>2022-08-20T16:29:52Z</time>
      </trkpt>
      <trkpt lat="25.4814060" lon="-100.7768240">
        <ele>1845.1</ele>
        <time>2022-08-20T16:29:53Z</time>
      </trkpt>
      <trkpt lat="25.4813600" lon="-100.7769080">
        <ele>1845.1</ele>
        <time>2022-08-20T16:29:54Z</time>
      </trkpt>
      <trkpt lat="25.4813180" lon="-100.7769960">
        <ele>1845.2</ele>
        <time>2022-08-20T16:29:55Z</time>
      </trkpt>
      <trkpt lat="25.4812790" lon="-100.7770840">
        <ele>1845.2</ele>
        <time>2022-08-20T16:29:56Z</time>
      </trkpt>
      <trkpt lat="25.4812390" lon="-100.7771750">
        <ele>1845.2</ele>
        <time>2022-08-20T16:29:57Z</time>
      </trkpt>
      <trkpt lat="25.4811980" lon="-100.7772630">
        <ele>1845.2</ele>
        <time>2022-08-20T16:29:58Z</time>
      </trkpt>
      <trkpt lat="25.4811550" lon="-100.7773520">
        <ele>1845.2</ele>
        <time>2022-08-20T16:29:59Z</time>
      </trkpt>
      <trkpt lat="25.4811140" lon="-100.7774420">
        <ele>1845.4</ele>
        <time>2022-08-20T16:30:00Z</time>
      </trkpt>
      <trkpt lat="25.4810730" lon="-100.7775340">
        <ele>1845.7</ele>
        <time>2022-08-20T16:30:01Z</time>
      </trkpt>
      <trkpt lat="25.4810340" lon="-100.7776270">
        <ele>1846.1</ele>
        <time>2022-08-20T16:30:02Z</time>
      </trkpt>
      <trkpt lat="25.4809960" lon="-100.7777180">
        <ele>1846.4</ele>
        <time>2022-08-20T16:30:03Z</time>
      </trkpt>
      <trkpt lat="25.4809610" lon="-100.7778010">
        <ele>1846.6</ele>
        <time>2022-08-20T16:30:04Z</time>
      </trkpt>
      <trkpt lat="25.4809290" lon="-100.7778750">
        <ele>1846.7</ele>
        <time>2022-08-20T16:30:05Z</time>
      </trkpt>
      <trkpt lat="25.4808970" lon="-100.7779470">
        <ele>1846.7</ele>
        <time>2022-08-20T16:30:06Z</time>
      </trkpt>
      <trkpt lat="25.4808640" lon="-100.7780200">
        <ele>1846.7</ele>
        <time>2022-08-20T16:30:07Z</time>
      </trkpt>
      <trkpt lat="25.4808280" lon="-100.7780940">
        <ele>1846.6</ele>
        <time>2022-08-20T16:30:08Z</time>
      </trkpt>
      <trkpt lat="25.4807880" lon="-100.7781700">
        <ele>1846.5</ele>
        <time>2022-08-20T16:30:09Z</time>
      </trkpt>
      <trkpt lat="25.4807440" lon="-100.7782460">
        <ele>1846.4</ele>
        <time>2022-08-20T16:30:10Z</time>
      </trkpt>
      <trkpt lat="25.4806990" lon="-100.7783210">
        <ele>1846.3</ele>
        <time>2022-08-20T16:30:11Z</time>
      </trkpt>
      <trkpt lat="25.4806520" lon="-100.7783960">
        <ele>1846.0</ele>
        <time>2022-08-20T16:30:12Z</time>
      </trkpt>
      <trkpt lat="25.4806030" lon="-100.7784710">
        <ele>1845.5</ele>
        <time>2022-08-20T16:30:13Z</time>
      </trkpt>
      <trkpt lat="25.4805530" lon="-100.7785470">
        <ele>1845.0</ele>
        <time>2022-08-20T16:30:14Z</time>
      </trkpt>
      <trkpt lat="25.4805020" lon="-100.7786250">
        <ele>1844.3</ele>
        <time>2022-08-20T16:30:15Z</time>
      </trkpt>
      <trkpt lat="25.4804500" lon="-100.7787050">
        <ele>1843.7</ele>
        <time>2022-08-20T16:30:16Z</time>
      </trkpt>
      <trkpt lat="25.4803970" lon="-100.7787880">
        <ele>1843.1</ele>
        <time>2022-08-20T16:30:17Z</time>
      </trkpt>
      <trkpt lat="25.4803410" lon="-100.7788740">
        <ele>1842.6</ele>
        <time>2022-08-20T16:30:18Z</time>
      </trkpt>
      <trkpt lat="25.4802850" lon="-100.7789640">
        <ele>1842.0</ele>
        <time>2022-08-20T16:30:19Z</time>
      </trkpt>
      <trkpt lat="25.4802330" lon="-100.7790570">
        <ele>1841.5</ele>
        <time>2022-08-20T16:30:20Z</time>
      </trkpt>
      <trkpt lat="25.4801840" lon="-100.7791550">
        <ele>1841.0</ele>
        <time>2022-08-20T16:30:21Z</time>
      </trkpt>
      <trkpt lat="25.4801410" lon="-100.7792550">
        <ele>1840.6</ele>
        <time>2022-08-20T16:30:22Z</time>
      </trkpt>
      <trkpt lat="25.4801040" lon="-100.7793550">
        <ele>1840.2</ele>
        <time>2022-08-20T16:30:23Z</time>
      </trkpt>
      <trkpt lat="25.4800690" lon="-100.7794610">
        <ele>1839.9</ele>
        <time>2022-08-20T16:30:24Z</time>
      </trkpt>
      <trkpt lat="25.4800350" lon="-100.7795670">
        <ele>1839.6</ele>
        <time>2022-08-20T16:30:25Z</time>
      </trkpt>
      <trkpt lat="25.4799990" lon="-100.7796740">
        <ele>1839.4</ele>
        <time>2022-08-20T16:30:26Z</time>
      </trkpt>
      <trkpt lat="25.4799660" lon="-100.7797790">
        <ele>1839.1</ele>
        <time>2022-08-20T16:30:27Z</time>
      </trkpt>
      <trkpt lat="25.4799330" lon="-100.7798800">
        <ele>1838.8</ele>
        <time>2022-08-20T16:30:28Z</time>
      </trkpt>
      <trkpt lat="25.4799000" lon="-100.7799760">
        <ele>1838.3</ele>
        <time>2022-08-20T16:30:29Z</time>
      </trkpt>
      <trkpt lat="25.4798660" lon="-100.7800730">
        <ele>1837.8</ele>
        <time>2022-08-20T16:30:30Z</time>
      </trkpt>
      <trkpt lat="25.4798330" lon="-100.7801740">
        <ele>1837.3</ele>
        <time>2022-08-20T16:30:31Z</time>
      </trkpt>
      <trkpt lat="25.4797880" lon="-100.7803340">
        <ele>1836.7</ele>
        <time>2022-08-20T16:30:32Z</time>
      </trkpt>
      <trkpt lat="25.4797730" lon="-100.7803890">
        <ele>1836.6</ele>
        <time>2022-08-20T16:30:33Z</time>
      </trkpt>
      <trkpt lat="25.4797420" lon="-100.7804980">
        <ele>1836.5</ele>
        <time>2022-08-20T16:30:34Z</time>
      </trkpt>
      <trkpt lat="25.4797110" lon="-100.7806070">
        <ele>1836.6</ele>
        <time>2022-08-20T16:30:35Z</time>
      </trkpt>
      <trkpt lat="25.4796860" lon="-100.7807170">
        <ele>1836.7</ele>
        <time>2022-08-20T16:30:36Z</time>
      </trkpt>
      <trkpt lat="25.4796670" lon="-100.7808210">
        <ele>1836.8</ele>
        <time>2022-08-20T16:30:37Z</time>
      </trkpt>
      <trkpt lat="25.4796540" lon="-100.7809230">
        <ele>1836.5</ele>
        <time>2022-08-20T16:30:38Z</time>
      </trkpt>
      <trkpt lat="25.4796480" lon="-100.7810200">
        <ele>1836.1</ele>
        <time>2022-08-20T16:30:39Z</time>
      </trkpt>
      <trkpt lat="25.4796460" lon="-100.7811200">
        <ele>1835.6</ele>
        <time>2022-08-20T16:30:40Z</time>
      </trkpt>
      <trkpt lat="25.4796460" lon="-100.7812200">
        <ele>1835.1</ele>
        <time>2022-08-20T16:30:41Z</time>
      </trkpt>
      <trkpt lat="25.4796460" lon="-100.7813300">
        <ele>1834.7</ele>
        <time>2022-08-20T16:30:42Z</time>
      </trkpt>
      <trkpt lat="25.4796450" lon="-100.7814430">
        <ele>1834.3</ele>
        <time>2022-08-20T16:30:43Z</time>
      </trkpt>
      <trkpt lat="25.4796410" lon="-100.7815590">
        <ele>1834.0</ele>
        <time>2022-08-20T16:30:44Z</time>
      </trkpt>
      <trkpt lat="25.4796340" lon="-100.7816750">
        <ele>1833.7</ele>
        <time>2022-08-20T16:30:45Z</time>
      </trkpt>
      <trkpt lat="25.4796250" lon="-100.7817890">
        <ele>1833.4</ele>
        <time>2022-08-20T16:30:46Z</time>
      </trkpt>
      <trkpt lat="25.4796140" lon="-100.7818990">
        <ele>1833.1</ele>
        <time>2022-08-20T16:30:47Z</time>
      </trkpt>
      <trkpt lat="25.4796000" lon="-100.7820100">
        <ele>1832.8</ele>
        <time>2022-08-20T16:30:48Z</time>
      </trkpt>
      <trkpt lat="25.4795800" lon="-100.7821210">
        <ele>1832.5</ele>
        <time>2022-08-20T16:30:49Z</time>
      </trkpt>
      <trkpt lat="25.4795560" lon="-100.7822300">
        <ele>1832.3</ele>
        <time>2022-08-20T16:30:50Z</time>
      </trkpt>
      <trkpt lat="25.4795260" lon="-100.7823390">
        <ele>1832.0</ele>
        <time>2022-08-20T16:30:51Z</time>
      </trkpt>
      <trkpt lat="25.4794940" lon="-100.7824490">
        <ele>1831.8</ele>
        <time>2022-08-20T16:30:52Z</time>
      </trkpt>
      <trkpt lat="25.4794620" lon="-100.7825540">
        <ele>1831.7</ele>
        <time>2022-08-20T16:30:53Z</time>
      </trkpt>
      <trkpt lat="25.4794310" lon="-100.7826610">
        <ele>1831.5</ele>
        <time>2022-08-20T16:30:54Z</time>
      </trkpt>
      <trkpt lat="25.4794020" lon="-100.7827680">
        <ele>1831.5</ele>
        <time>2022-08-20T16:30:55Z</time>
      </trkpt>
      <trkpt lat="25.4793770" lon="-100.7828740">
        <ele>1831.5</ele>
        <time>2022-08-20T16:30:56Z</time>
      </trkpt>
      <trkpt lat="25.4793520" lon="-100.7829800">
        <ele>1831.4</ele>
        <time>2022-08-20T16:30:57Z</time>
      </trkpt>
      <trkpt lat="25.4793250" lon="-100.7830800">
        <ele>1831.2</ele>
        <time>2022-08-20T16:30:58Z</time>
      </trkpt>
      <trkpt lat="25.4792960" lon="-100.7831780">
        <ele>1830.9</ele>
        <time>2022-08-20T16:30:59Z</time>
      </trkpt>
      <trkpt lat="25.4792660" lon="-100.7832730">
        <ele>1830.4</ele>
        <time>2022-08-20T16:31:00Z</time>
      </trkpt>
      <trkpt lat="25.4792350" lon="-100.7833690">
        <ele>1829.9</ele>
        <time>2022-08-20T16:31:01Z</time>
      </trkpt>
      <trkpt lat="25.4792030" lon="-100.7834720">
        <ele>1829.6</ele>
        <time>2022-08-20T16:31:02Z</time>
      </trkpt>
      <trkpt lat="25.4791750" lon="-100.7835810">
        <ele>1829.6</ele>
        <time>2022-08-20T16:31:03Z</time>
      </trkpt>
      <trkpt lat="25.4791480" lon="-100.7836930">
        <ele>1829.5</ele>
        <time>2022-08-20T16:31:04Z</time>
      </trkpt>
      <trkpt lat="25.4791190" lon="-100.7837990">
        <ele>1829.3</ele>
        <time>2022-08-20T16:31:05Z</time>
      </trkpt>
      <trkpt lat="25.4790870" lon="-100.7839020">
        <ele>1829.0</ele>
        <time>2022-08-20T16:31:06Z</time>
      </trkpt>
      <trkpt lat="25.4790570" lon="-100.7840050">
        <ele>1828.6</ele>
        <time>2022-08-20T16:31:07Z</time>
      </trkpt>
      <trkpt lat="25.4790330" lon="-100.7841140">
        <ele>1828.4</ele>
        <time>2022-08-20T16:31:08Z</time>
      </trkpt>
      <trkpt lat="25.4790220" lon="-100.7842290">
        <ele>1828.3</ele>
        <time>2022-08-20T16:31:09Z</time>
      </trkpt>
      <trkpt lat="25.4790290" lon="-100.7843470">
        <ele>1828.4</ele>
        <time>2022-08-20T16:31:10Z</time>
      </trkpt>
      <trkpt lat="25.4790490" lon="-100.7844560">
        <ele>1828.3</ele>
        <time>2022-08-20T16:31:11Z</time>
      </trkpt>
      <trkpt lat="25.4790730" lon="-100.7845560">
        <ele>1828.0</ele>
        <time>2022-08-20T16:31:12Z</time>
      </trkpt>
      <trkpt lat="25.4790940" lon="-100.7846560">
        <ele>1827.4</ele>
        <time>2022-08-20T16:31:13Z</time>
      </trkpt>
      <trkpt lat="25.4791070" lon="-100.7847550">
        <ele>1826.7</ele>
        <time>2022-08-20T16:31:14Z</time>
      </trkpt>
      <trkpt lat="25.4791140" lon="-100.7848610">
        <ele>1826.0</ele>
        <time>2022-08-20T16:31:15Z</time>
      </trkpt>
      <trkpt lat="25.4791140" lon="-100.7849720">
        <ele>1825.2</ele>
        <time>2022-08-20T16:31:16Z</time>
      </trkpt>
      <trkpt lat="25.4791110" lon="-100.7850900">
        <ele>1824.6</ele>
        <time>2022-08-20T16:31:17Z</time>
      </trkpt>
      <trkpt lat="25.4791050" lon="-100.7852150">
        <ele>1824.1</ele>
        <time>2022-08-20T16:31:18Z</time>
      </trkpt>
      <trkpt lat="25.4790960" lon="-100.7853390">
        <ele>1823.7</ele>
        <time>2022-08-20T16:31:19Z</time>
      </trkpt>
      <trkpt lat="25.4790820" lon="-100.7854600">
        <ele>1823.4</ele>
        <time>2022-08-20T16:31:20Z</time>
      </trkpt>
      <trkpt lat="25.4790670" lon="-100.7855800">
        <ele>1823.2</ele>
        <time>2022-08-20T16:31:21Z</time>
      </trkpt>
      <trkpt lat="25.4790490" lon="-100.7856960">
        <ele>1823.1</ele>
        <time>2022-08-20T16:31:22Z</time>
      </trkpt>
      <trkpt lat="25.4790290" lon="-100.7858130">
        <ele>1823.1</ele>
        <time>2022-08-20T16:31:23Z</time>
      </trkpt>
      <trkpt lat="25.4790100" lon="-100.7859290">
        <ele>1823.2</ele>
        <time>2022-08-20T16:31:24Z</time>
      </trkpt>
      <trkpt lat="25.4789950" lon="-100.7860440">
        <ele>1823.4</ele>
        <time>2022-08-20T16:31:25Z</time>
      </trkpt>
      <trkpt lat="25.4789820" lon="-100.7861530">
        <ele>1823.5</ele>
        <time>2022-08-20T16:31:26Z</time>
      </trkpt>
      <trkpt lat="25.4789730" lon="-100.7862570">
        <ele>1823.2</ele>
        <time>2022-08-20T16:31:27Z</time>
      </trkpt>
      <trkpt lat="25.4789680" lon="-100.7863560">
        <ele>1822.7</ele>
        <time>2022-08-20T16:31:28Z</time>
      </trkpt>
      <trkpt lat="25.4789660" lon="-100.7864560">
        <ele>1821.9</ele>
        <time>2022-08-20T16:31:29Z</time>
      </trkpt>
      <trkpt lat="25.4789630" lon="-100.7865590">
        <ele>1820.9</ele>
        <time>2022-08-20T16:31:30Z</time>
      </trkpt>
      <trkpt lat="25.4789550" lon="-100.7866700">
        <ele>1819.9</ele>
        <time>2022-08-20T16:31:31Z</time>
      </trkpt>
      <trkpt lat="25.4789270" lon="-100.7869140">
        <ele>1818.3</ele>
        <time>2022-08-20T16:31:33Z</time>
      </trkpt>
      <trkpt lat="25.4789020" lon="-100.7871090">
        <ele>1817.7</ele>
        <time>2022-08-20T16:31:34Z</time>
      </trkpt>
      <trkpt lat="25.4788930" lon="-100.7871720">
        <ele>1817.5</ele>
        <time>2022-08-20T16:31:35Z</time>
      </trkpt>
      <trkpt lat="25.4788730" lon="-100.7872990">
        <ele>1817.3</ele>
        <time>2022-08-20T16:31:36Z</time>
      </trkpt>
      <trkpt lat="25.4788500" lon="-100.7874230">
        <ele>1817.2</ele>
        <time>2022-08-20T16:31:37Z</time>
      </trkpt>
      <trkpt lat="25.4788270" lon="-100.7875420">
        <ele>1817.0</ele>
        <time>2022-08-20T16:31:38Z</time>
      </trkpt>
      <trkpt lat="25.4788070" lon="-100.7876620">
        <ele>1816.7</ele>
        <time>2022-08-20T16:31:39Z</time>
      </trkpt>
      <trkpt lat="25.4787870" lon="-100.7877770">
        <ele>1816.2</ele>
        <time>2022-08-20T16:31:40Z</time>
      </trkpt>
      <trkpt lat="25.4787670" lon="-100.7878930">
        <ele>1815.5</ele>
        <time>2022-08-20T16:31:41Z</time>
      </trkpt>
      <trkpt lat="25.4787520" lon="-100.7880130">
        <ele>1814.9</ele>
        <time>2022-08-20T16:31:42Z</time>
      </trkpt>
      <trkpt lat="25.4787410" lon="-100.7881370">
        <ele>1814.4</ele>
        <time>2022-08-20T16:31:43Z</time>
      </trkpt>
      <trkpt lat="25.4787310" lon="-100.7882640">
        <ele>1814.0</ele>
        <time>2022-08-20T16:31:44Z</time>
      </trkpt>
      <trkpt lat="25.4787160" lon="-100.7883880">
        <ele>1813.6</ele>
        <time>2022-08-20T16:31:45Z</time>
      </trkpt>
      <trkpt lat="25.4786980" lon="-100.7885130">
        <ele>1813.2</ele>
        <time>2022-08-20T16:31:46Z</time>
      </trkpt>
      <trkpt lat="25.4786810" lon="-100.7886370">
        <ele>1812.9</ele>
        <time>2022-08-20T16:31:47Z</time>
      </trkpt>
      <trkpt lat="25.4786660" lon="-100.7887620">
        <ele>1812.6</ele>
        <time>2022-08-20T16:31:48Z</time>
      </trkpt>
      <trkpt lat="25.4786500" lon="-100.7888860">
        <ele>1812.3</ele>
        <time>2022-08-20T16:31:49Z</time>
      </trkpt>
      <trkpt lat="25.4786330" lon="-100.7890110">
        <ele>1812.0</ele>
        <time>2022-08-20T16:31:50Z</time>
      </trkpt>
      <trkpt lat="25.4786160" lon="-100.7891330">
        <ele>1811.7</ele>
        <time>2022-08-20T16:31:51Z</time>
      </trkpt>
      <trkpt lat="25.4786000" lon="-100.7892530">
        <ele>1811.3</ele>
        <time>2022-08-20T16:31:52Z</time>
      </trkpt>
      <trkpt lat="25.4785830" lon="-100.7893710">
        <ele>1811.0</ele>
        <time>2022-08-20T16:31:53Z</time>
      </trkpt>
      <trkpt lat="25.4785670" lon="-100.7894900">
        <ele>1810.6</ele>
        <time>2022-08-20T16:31:54Z</time>
      </trkpt>
      <trkpt lat="25.4785480" lon="-100.7896080">
        <ele>1810.2</ele>
        <time>2022-08-20T16:31:55Z</time>
      </trkpt>
      <trkpt lat="25.4785270" lon="-100.7897260">
        <ele>1809.8</ele>
        <time>2022-08-20T16:31:56Z</time>
      </trkpt>
      <trkpt lat="25.4785070" lon="-100.7898430">
        <ele>1809.4</ele>
        <time>2022-08-20T16:31:57Z</time>
      </trkpt>
      <trkpt lat="25.4784890" lon="-100.7899600">
        <ele>1809.1</ele>
        <time>2022-08-20T16:31:58Z</time>
      </trkpt>
      <trkpt lat="25.4784730" lon="-100.7900780">
        <ele>1808.8</ele>
        <time>2022-08-20T16:31:59Z</time>
      </trkpt>
      <trkpt lat="25.4784600" lon="-100.7901970">
        <ele>1808.5</ele>
        <time>2022-08-20T16:32:00Z</time>
      </trkpt>
      <trkpt lat="25.4784460" lon="-100.7903150">
        <ele>1808.3</ele>
        <time>2022-08-20T16:32:01Z</time>
      </trkpt>
      <trkpt lat="25.4784340" lon="-100.7904320">
        <ele>1808.2</ele>
        <time>2022-08-20T16:32:02Z</time>
      </trkpt>
      <trkpt lat="25.4784210" lon="-100.7905480">
        <ele>1808.0</ele>
        <time>2022-08-20T16:32:03Z</time>
      </trkpt>
      <trkpt lat="25.4784100" lon="-100.7906630">
        <ele>1807.8</ele>
        <time>2022-08-20T16:32:04Z</time>
      </trkpt>
      <trkpt lat="25.4784010" lon="-100.7907760">
        <ele>1807.6</ele>
        <time>2022-08-20T16:32:05Z</time>
      </trkpt>
      <trkpt lat="25.4783940" lon="-100.7908890">
        <ele>1807.3</ele>
        <time>2022-08-20T16:32:06Z</time>
      </trkpt>
      <trkpt lat="25.4783890" lon="-100.7910010">
        <ele>1807.1</ele>
        <time>2022-08-20T16:32:07Z</time>
      </trkpt>
      <trkpt lat="25.4783900" lon="-100.7911100">
        <ele>1807.0</ele>
        <time>2022-08-20T16:32:08Z</time>
      </trkpt>
      <trkpt lat="25.4783920" lon="-100.7912170">
        <ele>1806.6</ele>
        <time>2022-08-20T16:32:09Z</time>
      </trkpt>
      <trkpt lat="25.4783930" lon="-100.7913230">
        <ele>1805.9</ele>
        <time>2022-08-20T16:32:10Z</time>
      </trkpt>
      <trkpt lat="25.4783930" lon="-100.7914290">
        <ele>1805.3</ele>
        <time>2022-08-20T16:32:11Z</time>
      </trkpt>
      <trkpt lat="25.4783920" lon="-100.7915360">
        <ele>1804.8</ele>
        <time>2022-08-20T16:32:12Z</time>
      </trkpt>
      <trkpt lat="25.4783900" lon="-100.7916460">
        <ele>1804.3</ele>
        <time>2022-08-20T16:32:13Z</time>
      </trkpt>
      <trkpt lat="25.4783860" lon="-100.7917570">
        <ele>1803.9</ele>
        <time>2022-08-20T16:32:14Z</time>
      </trkpt>
      <trkpt lat="25.4783790" lon="-100.7918660">
        <ele>1803.6</ele>
        <time>2022-08-20T16:32:15Z</time>
      </trkpt>
      <trkpt lat="25.4783700" lon="-100.7919740">
        <ele>1803.2</ele>
        <time>2022-08-20T16:32:16Z</time>
      </trkpt>
      <trkpt lat="25.4783620" lon="-100.7920840">
        <ele>1802.8</ele>
        <time>2022-08-20T16:32:17Z</time>
      </trkpt>
      <trkpt lat="25.4783540" lon="-100.7921950">
        <ele>1802.4</ele>
        <time>2022-08-20T16:32:18Z</time>
      </trkpt>
      <trkpt lat="25.4783450" lon="-100.7923070">
        <ele>1802.1</ele>
        <time>2022-08-20T16:32:19Z</time>
      </trkpt>
      <trkpt lat="25.4783380" lon="-100.7924180">
        <ele>1801.8</ele>
        <time>2022-08-20T16:32:20Z</time>
      </trkpt>
      <trkpt lat="25.4783340" lon="-100.7925290">
        <ele>1801.6</ele>
        <time>2022-08-20T16:32:21Z</time>
      </trkpt>
      <trkpt lat="25.4783300" lon="-100.7926410">
        <ele>1801.4</ele>
        <time>2022-08-20T16:32:22Z</time>
      </trkpt>
      <trkpt lat="25.4783290" lon="-100.7927530">
        <ele>1801.3</ele>
        <time>2022-08-20T16:32:23Z</time>
      </trkpt>
      <trkpt lat="25.4783260" lon="-100.7928660">
        <ele>1801.3</ele>
        <time>2022-08-20T16:32:24Z</time>
      </trkpt>
      <trkpt lat="25.4783220" lon="-100.7929800">
        <ele>1801.4</ele>
        <time>2022-08-20T16:32:25Z</time>
      </trkpt>
      <trkpt lat="25.4783160" lon="-100.7930970">
        <ele>1801.7</ele>
        <time>2022-08-20T16:32:26Z</time>
      </trkpt>
      <trkpt lat="25.4783090" lon="-100.7932100">
        <ele>1802.1</ele>
        <time>2022-08-20T16:32:27Z</time>
      </trkpt>
      <trkpt lat="25.4783020" lon="-100.7933260">
        <ele>1802.8</ele>
        <time>2022-08-20T16:32:28Z</time>
      </trkpt>
      <trkpt lat="25.4782930" lon="-100.7934370">
        <ele>1803.5</ele>
        <time>2022-08-20T16:32:29Z</time>
      </trkpt>
      <trkpt lat="25.4782810" lon="-100.7935430">
        <ele>1804.3</ele>
        <time>2022-08-20T16:32:30Z</time>
      </trkpt>
      <trkpt lat="25.4782670" lon="-100.7936410">
        <ele>1805.1</ele>
        <time>2022-08-20T16:32:31Z</time>
      </trkpt>
      <trkpt lat="25.4782510" lon="-100.7937310">
        <ele>1805.7</ele>
        <time>2022-08-20T16:32:32Z</time>
      </trkpt>
      <trkpt lat="25.4782330" lon="-100.7938140">
        <ele>1806.3</ele>
        <time>2022-08-20T16:32:33Z</time>
      </trkpt>
      <trkpt lat="25.4782130" lon="-100.7938900">
        <ele>1806.7</ele>
        <time>2022-08-20T16:32:34Z</time>
      </trkpt>
      <trkpt lat="25.4781950" lon="-100.7939630">
        <ele>1807.1</ele>
        <time>2022-08-20T16:32:35Z</time>
      </trkpt>
      <trkpt lat="25.4781790" lon="-100.7940370">
        <ele>1807.3</ele>
        <time>2022-08-20T16:32:36Z</time>
      </trkpt>
      <trkpt lat="25.4781620" lon="-100.7941130">
        <ele>1807.4</ele>
        <time>2022-08-20T16:32:37Z</time>
      </trkpt>
      <trkpt lat="25.4781470" lon="-100.7941890">
        <ele>1807.3</ele>
        <time>2022-08-20T16:32:38Z</time>
      </trkpt>
      <trkpt lat="25.4781320" lon="-100.7942660">
        <ele>1807.0</ele>
        <time>2022-08-20T16:32:39Z</time>
      </trkpt>
      <trkpt lat="25.4781170" lon="-100.7943440">
        <ele>1806.7</ele>
        <time>2022-08-20T16:32:40Z</time>
      </trkpt>
      <trkpt lat="25.4781030" lon="-100.7944210">
        <ele>1806.4</ele>
        <time>2022-08-20T16:32:41Z</time>
      </trkpt>
      <trkpt lat="25.4780900" lon="-100.7944990">
        <ele>1806.0</ele>
        <time>2022-08-20T16:32:42Z</time>
      </trkpt>
      <trkpt lat="25.4780800" lon="-100.7945780">
        <ele>1805.7</ele>
        <time>2022-08-20T16:32:43Z</time>
      </trkpt>
      <trkpt lat="25.4780730" lon="-100.7946580">
        <ele>1805.3</ele>
        <time>2022-08-20T16:32:44Z</time>
      </trkpt>
      <trkpt lat="25.4780660" lon="-100.7947400">
        <ele>1805.0</ele>
        <time>2022-08-20T16:32:45Z</time>
      </trkpt>
      <trkpt lat="25.4780610" lon="-100.7948240">
        <ele>1804.7</ele>
        <time>2022-08-20T16:32:46Z</time>
      </trkpt>
      <trkpt lat="25.4780550" lon="-100.7949070">
        <ele>1804.3</ele>
        <time>2022-08-20T16:32:47Z</time>
      </trkpt>
      <trkpt lat="25.4780480" lon="-100.7949910">
        <ele>1804.0</ele>
        <time>2022-08-20T16:32:48Z</time>
      </trkpt>
      <trkpt lat="25.4780370" lon="-100.7950730">
        <ele>1803.7</ele>
        <time>2022-08-20T16:32:49Z</time>
      </trkpt>
      <trkpt lat="25.4780240" lon="-100.7951540">
        <ele>1803.3</ele>
        <time>2022-08-20T16:32:50Z</time>
      </trkpt>
      <trkpt lat="25.4780110" lon="-100.7952360">
        <ele>1802.8</ele>
        <time>2022-08-20T16:32:51Z</time>
      </trkpt>
      <trkpt lat="25.4779980" lon="-100.7953170">
        <ele>1802.3</ele>
        <time>2022-08-20T16:32:52Z</time>
      </trkpt>
      <trkpt lat="25.4779860" lon="-100.7953980">
        <ele>1801.8</ele>
        <time>2022-08-20T16:32:53Z</time>
      </trkpt>
      <trkpt lat="25.4779750" lon="-100.7954810">
        <ele>1801.1</ele>
        <time>2022-08-20T16:32:54Z</time>
      </trkpt>
      <trkpt lat="25.4779630" lon="-100.7955660">
        <ele>1800.4</ele>
        <time>2022-08-20T16:32:55Z</time>
      </trkpt>
      <trkpt lat="25.4779500" lon="-100.7956570">
        <ele>1799.5</ele>
        <time>2022-08-20T16:32:56Z</time>
      </trkpt>
      <trkpt lat="25.4779360" lon="-100.7957540">
        <ele>1798.6</ele>
        <time>2022-08-20T16:32:57Z</time>
      </trkpt>
      <trkpt lat="25.4779210" lon="-100.7958560">
        <ele>1797.6</ele>
        <time>2022-08-20T16:32:58Z</time>
      </trkpt>
      <trkpt lat="25.4779040" lon="-100.7959640">
        <ele>1796.5</ele>
        <time>2022-08-20T16:32:59Z</time>
      </trkpt>
      <trkpt lat="25.4778820" lon="-100.7960790">
        <ele>1795.5</ele>
        <time>2022-08-20T16:33:00Z</time>
      </trkpt>
      <trkpt lat="25.4778510" lon="-100.7961970">
        <ele>1794.5</ele>
        <time>2022-08-20T16:33:01Z</time>
      </trkpt>
      <trkpt lat="25.4778100" lon="-100.7963150">
        <ele>1793.6</ele>
        <time>2022-08-20T16:33:02Z</time>
      </trkpt>
      <trkpt lat="25.4777590" lon="-100.7964300">
        <ele>1792.8</ele>
        <time>2022-08-20T16:33:03Z</time>
      </trkpt>
      <trkpt lat="25.4776960" lon="-100.7965420">
        <ele>1792.2</ele>
        <time>2022-08-20T16:33:04Z</time>
      </trkpt>
      <trkpt lat="25.4776270" lon="-100.7966500">
        <ele>1791.8</ele>
        <time>2022-08-20T16:33:05Z</time>
      </trkpt>
      <trkpt lat="25.4775570" lon="-100.7967560">
        <ele>1791.7</ele>
        <time>2022-08-20T16:33:06Z</time>
      </trkpt>
      <trkpt lat="25.4774900" lon="-100.7968600">
        <ele>1791.6</ele>
        <time>2022-08-20T16:33:07Z</time>
      </trkpt>
      <trkpt lat="25.4774290" lon="-100.7969620">
        <ele>1791.6</ele>
        <time>2022-08-20T16:33:08Z</time>
      </trkpt>
      <trkpt lat="25.4773730" lon="-100.7970630">
        <ele>1791.5</ele>
        <time>2022-08-20T16:33:09Z</time>
      </trkpt>
      <trkpt lat="25.4773230" lon="-100.7971620">
        <ele>1791.3</ele>
        <time>2022-08-20T16:33:10Z</time>
      </trkpt>
      <trkpt lat="25.4772800" lon="-100.7972580">
        <ele>1790.9</ele>
        <time>2022-08-20T16:33:11Z</time>
      </trkpt>
      <trkpt lat="25.4772400" lon="-100.7973540">
        <ele>1790.3</ele>
        <time>2022-08-20T16:33:12Z</time>
      </trkpt>
      <trkpt lat="25.4772020" lon="-100.7974460">
        <ele>1789.6</ele>
        <time>2022-08-20T16:33:13Z</time>
      </trkpt>
      <trkpt lat="25.4771650" lon="-100.7975410">
        <ele>1788.9</ele>
        <time>2022-08-20T16:33:14Z</time>
      </trkpt>
      <trkpt lat="25.4771300" lon="-100.7976360">
        <ele>1788.2</ele>
        <time>2022-08-20T16:33:15Z</time>
      </trkpt>
      <trkpt lat="25.4770950" lon="-100.7977350">
        <ele>1787.6</ele>
        <time>2022-08-20T16:33:16Z</time>
      </trkpt>
      <trkpt lat="25.4770600" lon="-100.7978380">
        <ele>1787.0</ele>
        <time>2022-08-20T16:33:17Z</time>
      </trkpt>
      <trkpt lat="25.4770280" lon="-100.7979430">
        <ele>1786.5</ele>
        <time>2022-08-20T16:33:18Z</time>
      </trkpt>
      <trkpt lat="25.4769980" lon="-100.7980510">
        <ele>1786.2</ele>
        <time>2022-08-20T16:33:19Z</time>
      </trkpt>
      <trkpt lat="25.4769690" lon="-100.7981630">
        <ele>1785.9</ele>
        <time>2022-08-20T16:33:20Z</time>
      </trkpt>
      <trkpt lat="25.4769380" lon="-100.7982720">
        <ele>1785.7</ele>
        <time>2022-08-20T16:33:21Z</time>
      </trkpt>
      <trkpt lat="25.4769000" lon="-100.7983780">
        <ele>1785.5</ele>
        <time>2022-08-20T16:33:22Z</time>
      </trkpt>
      <trkpt lat="25.4768530" lon="-100.7984790">
        <ele>1785.3</ele>
        <time>2022-08-20T16:33:23Z</time>
      </trkpt>
      <trkpt lat="25.4767990" lon="-100.7985730">
        <ele>1785.1</ele>
        <time>2022-08-20T16:33:24Z</time>
      </trkpt>
      <trkpt lat="25.4767410" lon="-100.7986650">
        <ele>1784.9</ele>
        <time>2022-08-20T16:33:25Z</time>
      </trkpt>
      <trkpt lat="25.4766860" lon="-100.7987570">
        <ele>1784.7</ele>
        <time>2022-08-20T16:33:26Z</time>
      </trkpt>
      <trkpt lat="25.4766390" lon="-100.7988520">
        <ele>1784.5</ele>
        <time>2022-08-20T16:33:27Z</time>
      </trkpt>
      <trkpt lat="25.4766010" lon="-100.7989520">
        <ele>1784.3</ele>
        <time>2022-08-20T16:33:28Z</time>
      </trkpt>
      <trkpt lat="25.4765730" lon="-100.7990560">
        <ele>1784.0</ele>
        <time>2022-08-20T16:33:29Z</time>
      </trkpt>
      <trkpt lat="25.4765530" lon="-100.7991630">
        <ele>1783.8</ele>
        <time>2022-08-20T16:33:30Z</time>
      </trkpt>
      <trkpt lat="25.4765370" lon="-100.7992700">
        <ele>1783.5</ele>
        <time>2022-08-20T16:33:31Z</time>
      </trkpt>
      <trkpt lat="25.4765210" lon="-100.7993770">
        <ele>1783.3</ele>
        <time>2022-08-20T16:33:32Z</time>
      </trkpt>
      <trkpt lat="25.4765020" lon="-100.7994790">
        <ele>1783.0</ele>
        <time>2022-08-20T16:33:33Z</time>
      </trkpt>
      <trkpt lat="25.4764780" lon="-100.7995780">
        <ele>1782.8</ele>
        <time>2022-08-20T16:33:34Z</time>
      </trkpt>
      <trkpt lat="25.4764520" lon="-100.7996740">
        <ele>1782.5</ele>
        <time>2022-08-20T16:33:35Z</time>
      </trkpt>
      <trkpt lat="25.4764250" lon="-100.7997700">
        <ele>1782.3</ele>
        <time>2022-08-20T16:33:36Z</time>
      </trkpt>
      <trkpt lat="25.4764000" lon="-100.7998600">
        <ele>1782.0</ele>
        <time>2022-08-20T16:33:37Z</time>
      </trkpt>
      <trkpt lat="25.4763730" lon="-100.7999500">
        <ele>1781.7</ele>
        <time>2022-08-20T16:33:38Z</time>
      </trkpt>
      <trkpt lat="25.4763440" lon="-100.8000360">
        <ele>1781.3</ele>
        <time>2022-08-20T16:33:39Z</time>
      </trkpt>
      <trkpt lat="25.4763100" lon="-100.8001200">
        <ele>1781.0</ele>
        <time>2022-08-20T16:33:40Z</time>
      </trkpt>
      <trkpt lat="25.4762690" lon="-100.8002010">
        <ele>1780.6</ele>
        <time>2022-08-20T16:33:41Z</time>
      </trkpt>
      <trkpt lat="25.4762190" lon="-100.8002790">
        <ele>1780.2</ele>
        <time>2022-08-20T16:33:42Z</time>
      </trkpt>
      <trkpt lat="25.4761630" lon="-100.8003560">
        <ele>1779.8</ele>
        <time>2022-08-20T16:33:43Z</time>
      </trkpt>
      <trkpt lat="25.4761000" lon="-100.8004330">
        <ele>1779.4</ele>
        <time>2022-08-20T16:33:44Z</time>
      </trkpt>
      <trkpt lat="25.4760350" lon="-100.8005110">
        <ele>1779.1</ele>
        <time>2022-08-20T16:33:45Z</time>
      </trkpt>
      <trkpt lat="25.4759700" lon="-100.8005910">
        <ele>1778.8</ele>
        <time>2022-08-20T16:33:46Z</time>
      </trkpt>
      <trkpt lat="25.4759080" lon="-100.8006760">
        <ele>1778.6</ele>
        <time>2022-08-20T16:33:47Z</time>
      </trkpt>
      <trkpt lat="25.4758530" lon="-100.8007630">
        <ele>1778.3</ele>
        <time>2022-08-20T16:33:48Z</time>
      </trkpt>
      <trkpt lat="25.4758020" lon="-100.8008520">
        <ele>1778.0</ele>
        <time>2022-08-20T16:33:49Z</time>
      </trkpt>
      <trkpt lat="25.4757540" lon="-100.8009430">
        <ele>1777.6</ele>
        <time>2022-08-20T16:33:50Z</time>
      </trkpt>
      <trkpt lat="25.4757080" lon="-100.8010320">
        <ele>1777.2</ele>
        <time>2022-08-20T16:33:51Z</time>
      </trkpt>
      <trkpt lat="25.4756620" lon="-100.8011220">
        <ele>1776.7</ele>
        <time>2022-08-20T16:33:52Z</time>
      </trkpt>
      <trkpt lat="25.4756160" lon="-100.8012140">
        <ele>1776.2</ele>
        <time>2022-08-20T16:33:53Z</time>
      </trkpt>
      <trkpt lat="25.4755700" lon="-100.8013050">
        <ele>1775.8</ele>
        <time>2022-08-20T16:33:54Z</time>
      </trkpt>
      <trkpt lat="25.4755210" lon="-100.8013960">
        <ele>1775.4</ele>
        <time>2022-08-20T16:33:55Z</time>
      </trkpt>
      <trkpt lat="25.4754710" lon="-100.8014860">
        <ele>1775.1</ele>
        <time>2022-08-20T16:33:56Z</time>
      </trkpt>
      <trkpt lat="25.4754200" lon="-100.8015750">
        <ele>1774.8</ele>
        <time>2022-08-20T16:33:57Z</time>
      </trkpt>
      <trkpt lat="25.4753690" lon="-100.8016640">
        <ele>1774.6</ele>
        <time>2022-08-20T16:33:58Z</time>
      </trkpt>
      <trkpt lat="25.4753190" lon="-100.8017550">
        <ele>1774.4</ele>
        <time>2022-08-20T16:33:59Z</time>
      </trkpt>
      <trkpt lat="25.4752720" lon="-100.8018480">
        <ele>1774.1</ele>
        <time>2022-08-20T16:34:00Z</time>
      </trkpt>
      <trkpt lat="25.4752260" lon="-100.8019430">
        <ele>1773.9</ele>
        <time>2022-08-20T16:34:01Z</time>
      </trkpt>
      <trkpt lat="25.4751800" lon="-100.8020370">
        <ele>1773.7</ele>
        <time>2022-08-20T16:34:02Z</time>
      </trkpt>
      <trkpt lat="25.4751360" lon="-100.8021290">
        <ele>1773.6</ele>
        <time>2022-08-20T16:34:03Z</time>
      </trkpt>
      <trkpt lat="25.4750930" lon="-100.8022210">
        <ele>1773.4</ele>
        <time>2022-08-20T16:34:04Z</time>
      </trkpt>
      <trkpt lat="25.4750510" lon="-100.8023110">
        <ele>1773.2</ele>
        <time>2022-08-20T16:34:05Z</time>
      </trkpt>
      <trkpt lat="25.4750080" lon="-100.8023970">
        <ele>1773.0</ele>
        <time>2022-08-20T16:34:06Z</time>
      </trkpt>
      <trkpt lat="25.4749640" lon="-100.8024820">
        <ele>1772.8</ele>
        <time>2022-08-20T16:34:07Z</time>
      </trkpt>
      <trkpt lat="25.4749200" lon="-100.8025670">
        <ele>1772.6</ele>
        <time>2022-08-20T16:34:08Z</time>
      </trkpt>
      <trkpt lat="25.4748740" lon="-100.8026510">
        <ele>1772.4</ele>
        <time>2022-08-20T16:34:09Z</time>
      </trkpt>
      <trkpt lat="25.4748270" lon="-100.8027380">
        <ele>1772.1</ele>
        <time>2022-08-20T16:34:10Z</time>
      </trkpt>
      <trkpt lat="25.4747790" lon="-100.8028260">
        <ele>1771.7</ele>
        <time>2022-08-20T16:34:11Z</time>
      </trkpt>
      <trkpt lat="25.4747300" lon="-100.8029150">
        <ele>1771.3</ele>
        <time>2022-08-20T16:34:12Z</time>
      </trkpt>
      <trkpt lat="25.4746810" lon="-100.8030060">
        <ele>1770.9</ele>
        <time>2022-08-20T16:34:13Z</time>
      </trkpt>
      <trkpt lat="25.4746310" lon="-100.8030980">
        <ele>1770.6</ele>
        <time>2022-08-20T16:34:14Z</time>
      </trkpt>
      <trkpt lat="25.4745810" lon="-100.8031890">
        <ele>1770.3</ele>
        <time>2022-08-20T16:34:15Z</time>
      </trkpt>
      <trkpt lat="25.4745320" lon="-100.8032800">
        <ele>1770.1</ele>
        <time>2022-08-20T16:34:16Z</time>
      </trkpt>
      <trkpt lat="25.4744840" lon="-100.8033730">
        <ele>1769.8</ele>
        <time>2022-08-20T16:34:17Z</time>
      </trkpt>
      <trkpt lat="25.4744350" lon="-100.8034640">
        <ele>1769.4</ele>
        <time>2022-08-20T16:34:18Z</time>
      </trkpt>
      <trkpt lat="25.4743860" lon="-100.8035570">
        <ele>1769.1</ele>
        <time>2022-08-20T16:34:19Z</time>
      </trkpt>
      <trkpt lat="25.4743350" lon="-100.8036510">
        <ele>1768.6</ele>
        <time>2022-08-20T16:34:20Z</time>
      </trkpt>
      <trkpt lat="25.4742820" lon="-100.8037450">
        <ele>1768.3</ele>
        <time>2022-08-20T16:34:21Z</time>
      </trkpt>
      <trkpt lat="25.4742250" lon="-100.8038380">
        <ele>1767.9</ele>
        <time>2022-08-20T16:34:22Z</time>
      </trkpt>
      <trkpt lat="25.4741660" lon="-100.8039280">
        <ele>1767.6</ele>
        <time>2022-08-20T16:34:23Z</time>
      </trkpt>
      <trkpt lat="25.4741020" lon="-100.8040160">
        <ele>1767.3</ele>
        <time>2022-08-20T16:34:24Z</time>
      </trkpt>
      <trkpt lat="25.4740350" lon="-100.8041000">
        <ele>1767.0</ele>
        <time>2022-08-20T16:34:25Z</time>
      </trkpt>
      <trkpt lat="25.4739660" lon="-100.8041830">
        <ele>1766.8</ele>
        <time>2022-08-20T16:34:26Z</time>
      </trkpt>
      <trkpt lat="25.4738970" lon="-100.8042660">
        <ele>1766.5</ele>
        <time>2022-08-20T16:34:27Z</time>
      </trkpt>
      <trkpt lat="25.4738280" lon="-100.8043500">
        <ele>1766.3</ele>
        <time>2022-08-20T16:34:28Z</time>
      </trkpt>
      <trkpt lat="25.4737600" lon="-100.8044330">
        <ele>1766.2</ele>
        <time>2022-08-20T16:34:29Z</time>
      </trkpt>
      <trkpt lat="25.4736930" lon="-100.8045170">
        <ele>1766.1</ele>
        <time>2022-08-20T16:34:30Z</time>
      </trkpt>
      <trkpt lat="25.4736290" lon="-100.8046030">
        <ele>1766.1</ele>
        <time>2022-08-20T16:34:31Z</time>
      </trkpt>
      <trkpt lat="25.4735660" lon="-100.8046890">
        <ele>1766.3</ele>
        <time>2022-08-20T16:34:32Z</time>
      </trkpt>
      <trkpt lat="25.4735060" lon="-100.8047740">
        <ele>1766.4</ele>
        <time>2022-08-20T16:34:33Z</time>
      </trkpt>
      <trkpt lat="25.4734480" lon="-100.8048570">
        <ele>1766.4</ele>
        <time>2022-08-20T16:34:34Z</time>
      </trkpt>
      <trkpt lat="25.4733910" lon="-100.8049380">
        <ele>1766.2</ele>
        <time>2022-08-20T16:34:35Z</time>
      </trkpt>
      <trkpt lat="25.4733380" lon="-100.8050200">
        <ele>1766.0</ele>
        <time>2022-08-20T16:34:36Z</time>
      </trkpt>
      <trkpt lat="25.4732900" lon="-100.8051090">
        <ele>1765.7</ele>
        <time>2022-08-20T16:34:37Z</time>
      </trkpt>
      <trkpt lat="25.4732500" lon="-100.8052020">
        <ele>1765.4</ele>
        <time>2022-08-20T16:34:38Z</time>
      </trkpt>
      <trkpt lat="25.4732150" lon="-100.8053010">
        <ele>1765.0</ele>
        <time>2022-08-20T16:34:39Z</time>
      </trkpt>
      <trkpt lat="25.4731800" lon="-100.8054020">
        <ele>1764.6</ele>
        <time>2022-08-20T16:34:40Z</time>
      </trkpt>
      <trkpt lat="25.4731450" lon="-100.8055060">
        <ele>1764.0</ele>
        <time>2022-08-20T16:34:41Z</time>
      </trkpt>
      <trkpt lat="25.4731110" lon="-100.8056120">
        <ele>1763.5</ele>
        <time>2022-08-20T16:34:42Z</time>
      </trkpt>
      <trkpt lat="25.4730780" lon="-100.8057210">
        <ele>1762.9</ele>
        <time>2022-08-20T16:34:43Z</time>
      </trkpt>
      <trkpt lat="25.4730450" lon="-100.8058310">
        <ele>1762.4</ele>
        <time>2022-08-20T16:34:44Z</time>
      </trkpt>
      <trkpt lat="25.4730110" lon="-100.8059400">
        <ele>1761.8</ele>
        <time>2022-08-20T16:34:45Z</time>
      </trkpt>
      <trkpt lat="25.4729740" lon="-100.8060480">
        <ele>1761.3</ele>
        <time>2022-08-20T16:34:46Z</time>
      </trkpt>
      <trkpt lat="25.4729370" lon="-100.8061560">
        <ele>1760.8</ele>
        <time>2022-08-20T16:34:47Z</time>
      </trkpt>
      <trkpt lat="25.4729000" lon="-100.8062650">
        <ele>1760.2</ele>
        <time>2022-08-20T16:34:48Z</time>
      </trkpt>
      <trkpt lat="25.4728630" lon="-100.8063760">
        <ele>1759.7</ele>
        <time>2022-08-20T16:34:49Z</time>
      </trkpt>
      <trkpt lat="25.4728270" lon="-100.8064890">
        <ele>1759.2</ele>
        <time>2022-08-20T16:34:50Z</time>
      </trkpt>
      <trkpt lat="25.4727920" lon="-100.8066030">
        <ele>1758.7</ele>
        <time>2022-08-20T16:34:51Z</time>
      </trkpt>
      <trkpt lat="25.4727570" lon="-100.8067180">
        <ele>1758.3</ele>
        <time>2022-08-20T16:34:52Z</time>
      </trkpt>
      <trkpt lat="25.4727210" lon="-100.8068330">
        <ele>1757.9</ele>
        <time>2022-08-20T16:34:53Z</time>
      </trkpt>
      <trkpt lat="25.4726840" lon="-100.8069490">
        <ele>1757.7</ele>
        <time>2022-08-20T16:34:54Z</time>
      </trkpt>
      <trkpt lat="25.4726470" lon="-100.8070620">
        <ele>1757.4</ele>
        <time>2022-08-20T16:34:55Z</time>
      </trkpt>
      <trkpt lat="25.4726110" lon="-100.8071740">
        <ele>1757.1</ele>
        <time>2022-08-20T16:34:56Z</time>
      </trkpt>
      <trkpt lat="25.4725770" lon="-100.8072820">
        <ele>1756.9</ele>
        <time>2022-08-20T16:34:57Z</time>
      </trkpt>
      <trkpt lat="25.4725410" lon="-100.8073920">
        <ele>1756.5</ele>
        <time>2022-08-20T16:34:58Z</time>
      </trkpt>
      <trkpt lat="25.4725050" lon="-100.8075010">
        <ele>1756.2</ele>
        <time>2022-08-20T16:34:59Z</time>
      </trkpt>
      <trkpt lat="25.4724700" lon="-100.8076100">
        <ele>1755.9</ele>
        <time>2022-08-20T16:35:00Z</time>
      </trkpt>
      <trkpt lat="25.4724360" lon="-100.8077170">
        <ele>1755.6</ele>
        <time>2022-08-20T16:35:01Z</time>
      </trkpt>
      <trkpt lat="25.4724010" lon="-100.8078240">
        <ele>1755.3</ele>
        <time>2022-08-20T16:35:02Z</time>
      </trkpt>
      <trkpt lat="25.4723670" lon="-100.8079300">
        <ele>1755.0</ele>
        <time>2022-08-20T16:35:03Z</time>
      </trkpt>
      <trkpt lat="25.4723320" lon="-100.8080370">
        <ele>1754.7</ele>
        <time>2022-08-20T16:35:04Z</time>
      </trkpt>
      <trkpt lat="25.4722970" lon="-100.8081440">
        <ele>1754.5</ele>
        <time>2022-08-20T16:35:05Z</time>
      </trkpt>
      <trkpt lat="25.4722620" lon="-100.8082510">
        <ele>1754.2</ele>
        <time>2022-08-20T16:35:06Z</time>
      </trkpt>
      <trkpt lat="25.4722290" lon="-100.8083570">
        <ele>1753.8</ele>
        <time>2022-08-20T16:35:07Z</time>
      </trkpt>
      <trkpt lat="25.4721990" lon="-100.8084650">
        <ele>1753.5</ele>
        <time>2022-08-20T16:35:08Z</time>
      </trkpt>
      <trkpt lat="25.4721670" lon="-100.8085740">
        <ele>1753.2</ele>
        <time>2022-08-20T16:35:09Z</time>
      </trkpt>
      <trkpt lat="25.4721370" lon="-100.8086810">
        <ele>1753.0</ele>
        <time>2022-08-20T16:35:10Z</time>
      </trkpt>
      <trkpt lat="25.4721070" lon="-100.8087900">
        <ele>1752.7</ele>
        <time>2022-08-20T16:35:11Z</time>
      </trkpt>
      <trkpt lat="25.4720790" lon="-100.8089000">
        <ele>1752.4</ele>
        <time>2022-08-20T16:35:12Z</time>
      </trkpt>
      <trkpt lat="25.4720530" lon="-100.8090100">
        <ele>1752.1</ele>
        <time>2022-08-20T16:35:13Z</time>
      </trkpt>
      <trkpt lat="25.4720260" lon="-100.8091230">
        <ele>1752.0</ele>
        <time>2022-08-20T16:35:14Z</time>
      </trkpt>
      <trkpt lat="25.4719990" lon="-100.8092340">
        <ele>1752.0</ele>
        <time>2022-08-20T16:35:15Z</time>
      </trkpt>
      <trkpt lat="25.4719710" lon="-100.8093430">
        <ele>1752.0</ele>
        <time>2022-08-20T16:35:16Z</time>
      </trkpt>
      <trkpt lat="25.4719410" lon="-100.8094490">
        <ele>1752.0</ele>
        <time>2022-08-20T16:35:17Z</time>
      </trkpt>
      <trkpt lat="25.4719060" lon="-100.8095510">
        <ele>1752.1</ele>
        <time>2022-08-20T16:35:18Z</time>
      </trkpt>
      <trkpt lat="25.4718680" lon="-100.8096510">
        <ele>1752.0</ele>
        <time>2022-08-20T16:35:19Z</time>
      </trkpt>
      <trkpt lat="25.4718330" lon="-100.8097510">
        <ele>1752.0</ele>
        <time>2022-08-20T16:35:20Z</time>
      </trkpt>
      <trkpt lat="25.4718050" lon="-100.8098500">
        <ele>1751.9</ele>
        <time>2022-08-20T16:35:21Z</time>
      </trkpt>
      <trkpt lat="25.4717850" lon="-100.8099500">
        <ele>1751.7</ele>
        <time>2022-08-20T16:35:22Z</time>
      </trkpt>
      <trkpt lat="25.4717710" lon="-100.8100520">
        <ele>1751.6</ele>
        <time>2022-08-20T16:35:23Z</time>
      </trkpt>
      <trkpt lat="25.4717630" lon="-100.8101570">
        <ele>1751.5</ele>
        <time>2022-08-20T16:35:24Z</time>
      </trkpt>
      <trkpt lat="25.4717580" lon="-100.8102610">
        <ele>1751.4</ele>
        <time>2022-08-20T16:35:25Z</time>
      </trkpt>
      <trkpt lat="25.4717510" lon="-100.8103660">
        <ele>1751.3</ele>
        <time>2022-08-20T16:35:26Z</time>
      </trkpt>
      <trkpt lat="25.4717360" lon="-100.8104680">
        <ele>1751.3</ele>
        <time>2022-08-20T16:35:27Z</time>
      </trkpt>
      <trkpt lat="25.4717130" lon="-100.8105670">
        <ele>1751.2</ele>
        <time>2022-08-20T16:35:28Z</time>
      </trkpt>
      <trkpt lat="25.4716770" lon="-100.8106630">
        <ele>1751.2</ele>
        <time>2022-08-20T16:35:29Z</time>
      </trkpt>
      <trkpt lat="25.4716320" lon="-100.8107540">
        <ele>1751.1</ele>
        <time>2022-08-20T16:35:30Z</time>
      </trkpt>
      <trkpt lat="25.4715820" lon="-100.8108420">
        <ele>1751.0</ele>
        <time>2022-08-20T16:35:31Z</time>
      </trkpt>
      <trkpt lat="25.4715300" lon="-100.8109280">
        <ele>1750.9</ele>
        <time>2022-08-20T16:35:32Z</time>
      </trkpt>
      <trkpt lat="25.4714780" lon="-100.8110140">
        <ele>1750.8</ele>
        <time>2022-08-20T16:35:33Z</time>
      </trkpt>
      <trkpt lat="25.4714280" lon="-100.8111000">
        <ele>1750.8</ele>
        <time>2022-08-20T16:35:34Z</time>
      </trkpt>
      <trkpt lat="25.4713790" lon="-100.8111870">
        <ele>1750.8</ele>
        <time>2022-08-20T16:35:35Z</time>
      </trkpt>
      <trkpt lat="25.4713300" lon="-100.8112730">
        <ele>1750.8</ele>
        <time>2022-08-20T16:35:36Z</time>
      </trkpt>
      <trkpt lat="25.4712830" lon="-100.8113600">
        <ele>1750.9</ele>
        <time>2022-08-20T16:35:37Z</time>
      </trkpt>
      <trkpt lat="25.4712360" lon="-100.8114460">
        <ele>1750.9</ele>
        <time>2022-08-20T16:35:38Z</time>
      </trkpt>
      <trkpt lat="25.4711900" lon="-100.8115320">
        <ele>1750.8</ele>
        <time>2022-08-20T16:35:39Z</time>
      </trkpt>
      <trkpt lat="25.4711450" lon="-100.8116160">
        <ele>1750.8</ele>
        <time>2022-08-20T16:35:40Z</time>
      </trkpt>
      <trkpt lat="25.4711000" lon="-100.8117000">
        <ele>1750.7</ele>
        <time>2022-08-20T16:35:41Z</time>
      </trkpt>
      <trkpt lat="25.4710560" lon="-100.8117840">
        <ele>1750.6</ele>
        <time>2022-08-20T16:35:42Z</time>
      </trkpt>
      <trkpt lat="25.4710110" lon="-100.8118670">
        <ele>1750.5</ele>
        <time>2022-08-20T16:35:43Z</time>
      </trkpt>
      <trkpt lat="25.4709650" lon="-100.8119510">
        <ele>1750.5</ele>
        <time>2022-08-20T16:35:44Z</time>
      </trkpt>
      <trkpt lat="25.4709190" lon="-100.8120360">
        <ele>1750.5</ele>
        <time>2022-08-20T16:35:45Z</time>
      </trkpt>
      <trkpt lat="25.4708740" lon="-100.8121200">
        <ele>1750.5</ele>
        <time>2022-08-20T16:35:46Z</time>
      </trkpt>
      <trkpt lat="25.4708300" lon="-100.8122040">
        <ele>1750.7</ele>
        <time>2022-08-20T16:35:47Z</time>
      </trkpt>
      <trkpt lat="25.4707860" lon="-100.8122860">
        <ele>1750.8</ele>
        <time>2022-08-20T16:35:48Z</time>
      </trkpt>
      <trkpt lat="25.4707420" lon="-100.8123670">
        <ele>1751.1</ele>
        <time>2022-08-20T16:35:49Z</time>
      </trkpt>
      <trkpt lat="25.4706970" lon="-100.8124450">
        <ele>1751.3</ele>
        <time>2022-08-20T16:35:50Z</time>
      </trkpt>
      <trkpt lat="25.4706530" lon="-100.8125210">
        <ele>1751.6</ele>
        <time>2022-08-20T16:35:51Z</time>
      </trkpt>
      <trkpt lat="25.4706110" lon="-100.8125940">
        <ele>1751.8</ele>
        <time>2022-08-20T16:35:52Z</time>
      </trkpt>
      <trkpt lat="25.4705700" lon="-100.8126670">
        <ele>1752.1</ele>
        <time>2022-08-20T16:35:53Z</time>
      </trkpt>
      <trkpt lat="25.4705300" lon="-100.8127390">
        <ele>1752.4</ele>
        <time>2022-08-20T16:35:54Z</time>
      </trkpt>
      <trkpt lat="25.4704910" lon="-100.8128080">
        <ele>1752.7</ele>
        <time>2022-08-20T16:35:55Z</time>
      </trkpt>
      <trkpt lat="25.4704550" lon="-100.8128780">
        <ele>1753.0</ele>
        <time>2022-08-20T16:35:56Z</time>
      </trkpt>
      <trkpt lat="25.4704200" lon="-100.8129480">
        <ele>1753.3</ele>
        <time>2022-08-20T16:35:57Z</time>
      </trkpt>
      <trkpt lat="25.4703880" lon="-100.8130160">
        <ele>1753.6</ele>
        <time>2022-08-20T16:35:58Z</time>
      </trkpt>
      <trkpt lat="25.4703540" lon="-100.8130850">
        <ele>1753.9</ele>
        <time>2022-08-20T16:35:59Z</time>
      </trkpt>
      <trkpt lat="25.4703200" lon="-100.8131530">
        <ele>1754.1</ele>
        <time>2022-08-20T16:36:00Z</time>
      </trkpt>
      <trkpt lat="25.4702850" lon="-100.8132200">
        <ele>1754.4</ele>
        <time>2022-08-20T16:36:01Z</time>
      </trkpt>
      <trkpt lat="25.4702500" lon="-100.8132850">
        <ele>1754.6</ele>
        <time>2022-08-20T16:36:02Z</time>
      </trkpt>
      <trkpt lat="25.4702150" lon="-100.8133500">
        <ele>1754.9</ele>
        <time>2022-08-20T16:36:03Z</time>
      </trkpt>
      <trkpt lat="25.4701830" lon="-100.8134160">
        <ele>1755.1</ele>
        <time>2022-08-20T16:36:04Z</time>
      </trkpt>
      <trkpt lat="25.4701530" lon="-100.8134820">
        <ele>1755.3</ele>
        <time>2022-08-20T16:36:05Z</time>
      </trkpt>
      <trkpt lat="25.4701230" lon="-100.8135460">
        <ele>1755.4</ele>
        <time>2022-08-20T16:36:06Z</time>
      </trkpt>
      <trkpt lat="25.4700920" lon="-100.8136090">
        <ele>1755.6</ele>
        <time>2022-08-20T16:36:07Z</time>
      </trkpt>
      <trkpt lat="25.4700620" lon="-100.8136730">
        <ele>1755.7</ele>
        <time>2022-08-20T16:36:08Z</time>
      </trkpt>
      <trkpt lat="25.4700310" lon="-100.8137390">
        <ele>1755.7</ele>
        <time>2022-08-20T16:36:09Z</time>
      </trkpt>
      <trkpt lat="25.4699990" lon="-100.8138050">
        <ele>1755.8</ele>
        <time>2022-08-20T16:36:10Z</time>
      </trkpt>
      <trkpt lat="25.4699660" lon="-100.8138730">
        <ele>1755.7</ele>
        <time>2022-08-20T16:36:11Z</time>
      </trkpt>
      <trkpt lat="25.4699320" lon="-100.8139390">
        <ele>1755.6</ele>
        <time>2022-08-20T16:36:12Z</time>
      </trkpt>
      <trkpt lat="25.4698990" lon="-100.8140050">
        <ele>1755.5</ele>
        <time>2022-08-20T16:36:13Z</time>
      </trkpt>
      <trkpt lat="25.4698640" lon="-100.8140720">
        <ele>1755.3</ele>
        <time>2022-08-20T16:36:14Z</time>
      </trkpt>
      <trkpt lat="25.4698260" lon="-100.8141400">
        <ele>1755.0</ele>
        <time>2022-08-20T16:36:15Z</time>
      </trkpt>
      <trkpt lat="25.4697860" lon="-100.8142080">
        <ele>1754.8</ele>
        <time>2022-08-20T16:36:16Z</time>
      </trkpt>
      <trkpt lat="25.4697460" lon="-100.8142750">
        <ele>1754.5</ele>
        <time>2022-08-20T16:36:17Z</time>
      </trkpt>
      <trkpt lat="25.4697040" lon="-100.8143410">
        <ele>1754.1</ele>
        <time>2022-08-20T16:36:18Z</time>
      </trkpt>
      <trkpt lat="25.4696610" lon="-100.8144090">
        <ele>1753.8</ele>
        <time>2022-08-20T16:36:19Z</time>
      </trkpt>
      <trkpt lat="25.4696170" lon="-100.8144780">
        <ele>1753.6</ele>
        <time>2022-08-20T16:36:20Z</time>
      </trkpt>
      <trkpt lat="25.4695720" lon="-100.8145510">
        <ele>1753.5</ele>
        <time>2022-08-20T16:36:21Z</time>
      </trkpt>
      <trkpt lat="25.4695280" lon="-100.8146270">
        <ele>1753.6</ele>
        <time>2022-08-20T16:36:22Z</time>
      </trkpt>
      <trkpt lat="25.4694870" lon="-100.8147070">
        <ele>1753.8</ele>
        <time>2022-08-20T16:36:23Z</time>
      </trkpt>
      <trkpt lat="25.4694500" lon="-100.8147870">
        <ele>1754.1</ele>
        <time>2022-08-20T16:36:24Z</time>
      </trkpt>
      <trkpt lat="25.4694150" lon="-100.8148620">
        <ele>1754.3</ele>
        <time>2022-08-20T16:36:25Z</time>
      </trkpt>
      <trkpt lat="25.4693800" lon="-100.8149310">
        <ele>1754.5</ele>
        <time>2022-08-20T16:36:26Z</time>
      </trkpt>
      <trkpt lat="25.4693450" lon="-100.8149960">
        <ele>1754.5</ele>
        <time>2022-08-20T16:36:27Z</time>
      </trkpt>
      <trkpt lat="25.4693110" lon="-100.8150600">
        <ele>1754.5</ele>
        <time>2022-08-20T16:36:28Z</time>
      </trkpt>
      <trkpt lat="25.4692790" lon="-100.8151230">
        <ele>1754.4</ele>
        <time>2022-08-20T16:36:29Z</time>
      </trkpt>
      <trkpt lat="25.4692470" lon="-100.8151870">
        <ele>1754.3</ele>
        <time>2022-08-20T16:36:30Z</time>
      </trkpt>
      <trkpt lat="25.4692140" lon="-100.8152520">
        <ele>1754.1</ele>
        <time>2022-08-20T16:36:31Z</time>
      </trkpt>
      <trkpt lat="25.4691780" lon="-100.8153180">
        <ele>1753.9</ele>
        <time>2022-08-20T16:36:32Z</time>
      </trkpt>
      <trkpt lat="25.4691400" lon="-100.8153850">
        <ele>1753.6</ele>
        <time>2022-08-20T16:36:33Z</time>
      </trkpt>
      <trkpt lat="25.4690990" lon="-100.8154550">
        <ele>1753.4</ele>
        <time>2022-08-20T16:36:34Z</time>
      </trkpt>
      <trkpt lat="25.4690580" lon="-100.8155290">
        <ele>1753.1</ele>
        <time>2022-08-20T16:36:35Z</time>
      </trkpt>
      <trkpt lat="25.4690160" lon="-100.8156050">
        <ele>1752.9</ele>
        <time>2022-08-20T16:36:36Z</time>
      </trkpt>
      <trkpt lat="25.4689740" lon="-100.8156840">
        <ele>1752.6</ele>
        <time>2022-08-20T16:36:37Z</time>
      </trkpt>
      <trkpt lat="25.4689320" lon="-100.8157660">
        <ele>1752.4</ele>
        <time>2022-08-20T16:36:38Z</time>
      </trkpt>
      <trkpt lat="25.4688890" lon="-100.8158500">
        <ele>1752.0</ele>
        <time>2022-08-20T16:36:39Z</time>
      </trkpt>
      <trkpt lat="25.4688440" lon="-100.8159350">
        <ele>1751.7</ele>
        <time>2022-08-20T16:36:40Z</time>
      </trkpt>
      <trkpt lat="25.4687980" lon="-100.8160210">
        <ele>1751.3</ele>
        <time>2022-08-20T16:36:41Z</time>
      </trkpt>
      <trkpt lat="25.4687520" lon="-100.8161060">
        <ele>1750.9</ele>
        <time>2022-08-20T16:36:42Z</time>
      </trkpt>
      <trkpt lat="25.4687070" lon="-100.8161920">
        <ele>1750.4</ele>
        <time>2022-08-20T16:36:43Z</time>
      </trkpt>
      <trkpt lat="25.4686610" lon="-100.8162800">
        <ele>1749.9</ele>
        <time>2022-08-20T16:36:44Z</time>
      </trkpt>
      <trkpt lat="25.4686150" lon="-100.8163680">
        <ele>1749.4</ele>
        <time>2022-08-20T16:36:45Z</time>
      </trkpt>
      <trkpt lat="25.4685660" lon="-100.8164590">
        <ele>1748.9</ele>
        <time>2022-08-20T16:36:46Z</time>
      </trkpt>
      <trkpt lat="25.4685170" lon="-100.8165500">
        <ele>1748.3</ele>
        <time>2022-08-20T16:36:47Z</time>
      </trkpt>
      <trkpt lat="25.4684670" lon="-100.8166400">
        <ele>1747.7</ele>
        <time>2022-08-20T16:36:48Z</time>
      </trkpt>
      <trkpt lat="25.4684160" lon="-100.8167340">
        <ele>1747.1</ele>
        <time>2022-08-20T16:36:49Z</time>
      </trkpt>
      <trkpt lat="25.4683640" lon="-100.8168300">
        <ele>1746.5</ele>
        <time>2022-08-20T16:36:50Z</time>
      </trkpt>
      <trkpt lat="25.4683110" lon="-100.8169270">
        <ele>1745.8</ele>
        <time>2022-08-20T16:36:51Z</time>
      </trkpt>
      <trkpt lat="25.4682570" lon="-100.8170260">
        <ele>1745.0</ele>
        <time>2022-08-20T16:36:52Z</time>
      </trkpt>
      <trkpt lat="25.4682020" lon="-100.8171240">
        <ele>1744.2</ele>
        <time>2022-08-20T16:36:53Z</time>
      </trkpt>
      <trkpt lat="25.4681490" lon="-100.8172220">
        <ele>1743.5</ele>
        <time>2022-08-20T16:36:54Z</time>
      </trkpt>
      <trkpt lat="25.4680950" lon="-100.8173240">
        <ele>1742.6</ele>
        <time>2022-08-20T16:36:55Z</time>
      </trkpt>
      <trkpt lat="25.4680410" lon="-100.8174270">
        <ele>1741.8</ele>
        <time>2022-08-20T16:36:56Z</time>
      </trkpt>
      <trkpt lat="25.4679860" lon="-100.8175300">
        <ele>1740.9</ele>
        <time>2022-08-20T16:36:57Z</time>
      </trkpt>
      <trkpt lat="25.4679310" lon="-100.8176360">
        <ele>1740.0</ele>
        <time>2022-08-20T16:36:58Z</time>
      </trkpt>
      <trkpt lat="25.4678740" lon="-100.8177440">
        <ele>1739.2</ele>
        <time>2022-08-20T16:36:59Z</time>
      </trkpt>
      <trkpt lat="25.4678150" lon="-100.8178530">
        <ele>1738.5</ele>
        <time>2022-08-20T16:37:00Z</time>
      </trkpt>
      <trkpt lat="25.4677560" lon="-100.8179620">
        <ele>1737.8</ele>
        <time>2022-08-20T16:37:01Z</time>
      </trkpt>
      <trkpt lat="25.4676970" lon="-100.8180720">
        <ele>1737.1</ele>
        <time>2022-08-20T16:37:02Z</time>
      </trkpt>
      <trkpt lat="25.4676390" lon="-100.8181830">
        <ele>1736.3</ele>
        <time>2022-08-20T16:37:03Z</time>
      </trkpt>
      <trkpt lat="25.4675810" lon="-100.8182950">
        <ele>1735.5</ele>
        <time>2022-08-20T16:37:04Z</time>
      </trkpt>
      <trkpt lat="25.4675230" lon="-100.8184090">
        <ele>1734.7</ele>
        <time>2022-08-20T16:37:05Z</time>
      </trkpt>
      <trkpt lat="25.4674650" lon="-100.8185230">
        <ele>1733.9</ele>
        <time>2022-08-20T16:37:06Z</time>
      </trkpt>
      <trkpt lat="25.4674070" lon="-100.8186360">
        <ele>1733.2</ele>
        <time>2022-08-20T16:37:07Z</time>
      </trkpt>
      <trkpt lat="25.4673490" lon="-100.8187490">
        <ele>1732.4</ele>
        <time>2022-08-20T16:37:08Z</time>
      </trkpt>
      <trkpt lat="25.4672910" lon="-100.8188580">
        <ele>1731.6</ele>
        <time>2022-08-20T16:37:09Z</time>
      </trkpt>
      <trkpt lat="25.4672320" lon="-100.8189690">
        <ele>1730.9</ele>
        <time>2022-08-20T16:37:10Z</time>
      </trkpt>
      <trkpt lat="25.4671740" lon="-100.8190800">
        <ele>1730.2</ele>
        <time>2022-08-20T16:37:11Z</time>
      </trkpt>
      <trkpt lat="25.4671140" lon="-100.8191900">
        <ele>1729.5</ele>
        <time>2022-08-20T16:37:12Z</time>
      </trkpt>
      <trkpt lat="25.4670550" lon="-100.8192990">
        <ele>1728.9</ele>
        <time>2022-08-20T16:37:13Z</time>
      </trkpt>
      <trkpt lat="25.4669960" lon="-100.8194080">
        <ele>1728.5</ele>
        <time>2022-08-20T16:37:14Z</time>
      </trkpt>
      <trkpt lat="25.4669370" lon="-100.8195160">
        <ele>1728.1</ele>
        <time>2022-08-20T16:37:15Z</time>
      </trkpt>
      <trkpt lat="25.4668790" lon="-100.8196250">
        <ele>1727.7</ele>
        <time>2022-08-20T16:37:16Z</time>
      </trkpt>
      <trkpt lat="25.4668250" lon="-100.8197310">
        <ele>1727.5</ele>
        <time>2022-08-20T16:37:17Z</time>
      </trkpt>
      <trkpt lat="25.4667730" lon="-100.8198350">
        <ele>1727.2</ele>
        <time>2022-08-20T16:37:18Z</time>
      </trkpt>
      <trkpt lat="25.4667220" lon="-100.8199370">
        <ele>1727.1</ele>
        <time>2022-08-20T16:37:19Z</time>
      </trkpt>
      <trkpt lat="25.4666730" lon="-100.8200370">
        <ele>1726.9</ele>
        <time>2022-08-20T16:37:20Z</time>
      </trkpt>
      <trkpt lat="25.4666230" lon="-100.8201340">
        <ele>1726.7</ele>
        <time>2022-08-20T16:37:21Z</time>
      </trkpt>
      <trkpt lat="25.4665730" lon="-100.8202290">
        <ele>1726.6</ele>
        <time>2022-08-20T16:37:22Z</time>
      </trkpt>
      <trkpt lat="25.4665230" lon="-100.8203220">
        <ele>1726.4</ele>
        <time>2022-08-20T16:37:23Z</time>
      </trkpt>
      <trkpt lat="25.4664730" lon="-100.8204150">
        <ele>1726.2</ele>
        <time>2022-08-20T16:37:24Z</time>
      </trkpt>
      <trkpt lat="25.4664220" lon="-100.8205090">
        <ele>1726.1</ele>
        <time>2022-08-20T16:37:25Z</time>
      </trkpt>
      <trkpt lat="25.4663730" lon="-100.8206030">
        <ele>1725.9</ele>
        <time>2022-08-20T16:37:26Z</time>
      </trkpt>
      <trkpt lat="25.4663240" lon="-100.8206970">
        <ele>1725.8</ele>
        <time>2022-08-20T16:37:27Z</time>
      </trkpt>
      <trkpt lat="25.4662750" lon="-100.8207910">
        <ele>1725.7</ele>
        <time>2022-08-20T16:37:28Z</time>
      </trkpt>
      <trkpt lat="25.4662270" lon="-100.8208860">
        <ele>1725.5</ele>
        <time>2022-08-20T16:37:29Z</time>
      </trkpt>
      <trkpt lat="25.4661780" lon="-100.8209800">
        <ele>1725.4</ele>
        <time>2022-08-20T16:37:30Z</time>
      </trkpt>
      <trkpt lat="25.4661300" lon="-100.8210750">
        <ele>1725.2</ele>
        <time>2022-08-20T16:37:31Z</time>
      </trkpt>
      <trkpt lat="25.4660810" lon="-100.8211700">
        <ele>1724.9</ele>
        <time>2022-08-20T16:37:32Z</time>
      </trkpt>
      <trkpt lat="25.4660300" lon="-100.8212640">
        <ele>1724.6</ele>
        <time>2022-08-20T16:37:33Z</time>
      </trkpt>
      <trkpt lat="25.4659770" lon="-100.8213590">
        <ele>1724.3</ele>
        <time>2022-08-20T16:37:34Z</time>
      </trkpt>
      <trkpt lat="25.4659220" lon="-100.8214550">
        <ele>1723.9</ele>
        <time>2022-08-20T16:37:35Z</time>
      </trkpt>
      <trkpt lat="25.4658670" lon="-100.8215510">
        <ele>1723.6</ele>
        <time>2022-08-20T16:37:36Z</time>
      </trkpt>
      <trkpt lat="25.4658130" lon="-100.8216470">
        <ele>1723.2</ele>
        <time>2022-08-20T16:37:37Z</time>
      </trkpt>
      <trkpt lat="25.4657580" lon="-100.8217430">
        <ele>1722.8</ele>
        <time>2022-08-20T16:37:38Z</time>
      </trkpt>
      <trkpt lat="25.4657010" lon="-100.8218380">
        <ele>1722.4</ele>
        <time>2022-08-20T16:37:39Z</time>
      </trkpt>
      <trkpt lat="25.4656420" lon="-100.8219330">
        <ele>1722.1</ele>
        <time>2022-08-20T16:37:40Z</time>
      </trkpt>
      <trkpt lat="25.4655810" lon="-100.8220270">
        <ele>1721.7</ele>
        <time>2022-08-20T16:37:41Z</time>
      </trkpt>
      <trkpt lat="25.4655170" lon="-100.8221190">
        <ele>1721.4</ele>
        <time>2022-08-20T16:37:42Z</time>
      </trkpt>
      <trkpt lat="25.4654510" lon="-100.8222070">
        <ele>1721.1</ele>
        <time>2022-08-20T16:37:43Z</time>
      </trkpt>
      <trkpt lat="25.4653830" lon="-100.8222910">
        <ele>1720.8</ele>
        <time>2022-08-20T16:37:44Z</time>
      </trkpt>
      <trkpt lat="25.4653120" lon="-100.8223710">
        <ele>1720.5</ele>
        <time>2022-08-20T16:37:45Z</time>
      </trkpt>
      <trkpt lat="25.4652390" lon="-100.8224490">
        <ele>1720.2</ele>
        <time>2022-08-20T16:37:46Z</time>
      </trkpt>
      <trkpt lat="25.4651650" lon="-100.8225270">
        <ele>1720.0</ele>
        <time>2022-08-20T16:37:47Z</time>
      </trkpt>
      <trkpt lat="25.4650910" lon="-100.8226050">
        <ele>1719.8</ele>
        <time>2022-08-20T16:37:48Z</time>
      </trkpt>
      <trkpt lat="25.4650190" lon="-100.8226830">
        <ele>1719.7</ele>
        <time>2022-08-20T16:37:49Z</time>
      </trkpt>
      <trkpt lat="25.4649490" lon="-100.8227610">
        <ele>1719.6</ele>
        <time>2022-08-20T16:37:50Z</time>
      </trkpt>
      <trkpt lat="25.4648820" lon="-100.8228390">
        <ele>1719.6</ele>
        <time>2022-08-20T16:37:51Z</time>
      </trkpt>
      <trkpt lat="25.4648180" lon="-100.8229160">
        <ele>1719.6</ele>
        <time>2022-08-20T16:37:52Z</time>
      </trkpt>
      <trkpt lat="25.4647540" lon="-100.8229900">
        <ele>1719.6</ele>
        <time>2022-08-20T16:37:53Z</time>
      </trkpt>
      <trkpt lat="25.4646900" lon="-100.8230630">
        <ele>1719.6</ele>
        <time>2022-08-20T16:37:54Z</time>
      </trkpt>
      <trkpt lat="25.4646260" lon="-100.8231330">
        <ele>1719.6</ele>
        <time>2022-08-20T16:37:55Z</time>
      </trkpt>
      <trkpt lat="25.4645630" lon="-100.8232030">
        <ele>1719.7</ele>
        <time>2022-08-20T16:37:56Z</time>
      </trkpt>
      <trkpt lat="25.4644990" lon="-100.8232730">
        <ele>1719.7</ele>
        <time>2022-08-20T16:37:57Z</time>
      </trkpt>
      <trkpt lat="25.4644380" lon="-100.8233410">
        <ele>1719.7</ele>
        <time>2022-08-20T16:37:58Z</time>
      </trkpt>
      <trkpt lat="25.4643750" lon="-100.8234110">
        <ele>1719.6</ele>
        <time>2022-08-20T16:37:59Z</time>
      </trkpt>
      <trkpt lat="25.4643140" lon="-100.8234790">
        <ele>1719.5</ele>
        <time>2022-08-20T16:38:00Z</time>
      </trkpt>
      <trkpt lat="25.4642490" lon="-100.8235500">
        <ele>1719.3</ele>
        <time>2022-08-20T16:38:01Z</time>
      </trkpt>
      <trkpt lat="25.4641830" lon="-100.8236210">
        <ele>1719.0</ele>
        <time>2022-08-20T16:38:02Z</time>
      </trkpt>
      <trkpt lat="25.4641160" lon="-100.8236920">
        <ele>1718.7</ele>
        <time>2022-08-20T16:38:03Z</time>
      </trkpt>
      <trkpt lat="25.4640490" lon="-100.8237650">
        <ele>1718.5</ele>
        <time>2022-08-20T16:38:04Z</time>
      </trkpt>
      <trkpt lat="25.4639840" lon="-100.8238370">
        <ele>1718.2</ele>
        <time>2022-08-20T16:38:05Z</time>
      </trkpt>
      <trkpt lat="25.4639190" lon="-100.8239100">
        <ele>1717.8</ele>
        <time>2022-08-20T16:38:06Z</time>
      </trkpt>
      <trkpt lat="25.4638520" lon="-100.8239820">
        <ele>1717.4</ele>
        <time>2022-08-20T16:38:07Z</time>
      </trkpt>
      <trkpt lat="25.4637860" lon="-100.8240550">
        <ele>1717.0</ele>
        <time>2022-08-20T16:38:08Z</time>
      </trkpt>
      <trkpt lat="25.4637190" lon="-100.8241280">
        <ele>1716.6</ele>
        <time>2022-08-20T16:38:09Z</time>
      </trkpt>
      <trkpt lat="25.4636530" lon="-100.8242010">
        <ele>1716.2</ele>
        <time>2022-08-20T16:38:10Z</time>
      </trkpt>
      <trkpt lat="25.4635850" lon="-100.8242750">
        <ele>1715.7</ele>
        <time>2022-08-20T16:38:11Z</time>
      </trkpt>
      <trkpt lat="25.4635160" lon="-100.8243480">
        <ele>1715.3</ele>
        <time>2022-08-20T16:38:12Z</time>
      </trkpt>
      <trkpt lat="25.4634450" lon="-100.8244230">
        <ele>1714.9</ele>
        <time>2022-08-20T16:38:13Z</time>
      </trkpt>
      <trkpt lat="25.4633750" lon="-100.8244980">
        <ele>1714.6</ele>
        <time>2022-08-20T16:38:14Z</time>
      </trkpt>
      <trkpt lat="25.4633030" lon="-100.8245740">
        <ele>1714.2</ele>
        <time>2022-08-20T16:38:15Z</time>
      </trkpt>
      <trkpt lat="25.4632330" lon="-100.8246500">
        <ele>1713.8</ele>
        <time>2022-08-20T16:38:16Z</time>
      </trkpt>
      <trkpt lat="25.4631620" lon="-100.8247280">
        <ele>1713.4</ele>
        <time>2022-08-20T16:38:17Z</time>
      </trkpt>
      <trkpt lat="25.4630920" lon="-100.8248060">
        <ele>1712.9</ele>
        <time>2022-08-20T16:38:18Z</time>
      </trkpt>
      <trkpt lat="25.4630210" lon="-100.8248840">
        <ele>1712.3</ele>
        <time>2022-08-20T16:38:19Z</time>
      </trkpt>
      <trkpt lat="25.4629490" lon="-100.8249620">
        <ele>1711.8</ele>
        <time>2022-08-20T16:38:20Z</time>
      </trkpt>
      <trkpt lat="25.4628760" lon="-100.8250380">
        <ele>1711.3</ele>
        <time>2022-08-20T16:38:21Z</time>
      </trkpt>
      <trkpt lat="25.4628020" lon="-100.8251150">
        <ele>1710.8</ele>
        <time>2022-08-20T16:38:22Z</time>
      </trkpt>
      <trkpt lat="25.4627270" lon="-100.8251920">
        <ele>1710.4</ele>
        <time>2022-08-20T16:38:23Z</time>
      </trkpt>
      <trkpt lat="25.4626520" lon="-100.8252690">
        <ele>1710.1</ele>
        <time>2022-08-20T16:38:24Z</time>
      </trkpt>
      <trkpt lat="25.4625790" lon="-100.8253470">
        <ele>1709.7</ele>
        <time>2022-08-20T16:38:25Z</time>
      </trkpt>
      <trkpt lat="25.4625050" lon="-100.8254270">
        <ele>1709.5</ele>
        <time>2022-08-20T16:38:26Z</time>
      </trkpt>
      <trkpt lat="25.4624330" lon="-100.8255060">
        <ele>1709.2</ele>
        <time>2022-08-20T16:38:27Z</time>
      </trkpt>
      <trkpt lat="25.4623590" lon="-100.8255850">
        <ele>1709.0</ele>
        <time>2022-08-20T16:38:28Z</time>
      </trkpt>
      <trkpt lat="25.4622850" lon="-100.8256620">
        <ele>1708.8</ele>
        <time>2022-08-20T16:38:29Z</time>
      </trkpt>
      <trkpt lat="25.4622140" lon="-100.8257360">
        <ele>1708.6</ele>
        <time>2022-08-20T16:38:30Z</time>
      </trkpt>
      <trkpt lat="25.4621450" lon="-100.8258120">
        <ele>1708.5</ele>
        <time>2022-08-20T16:38:31Z</time>
      </trkpt>
      <trkpt lat="25.4620740" lon="-100.8258880">
        <ele>1708.3</ele>
        <time>2022-08-20T16:38:32Z</time>
      </trkpt>
      <trkpt lat="25.4620040" lon="-100.8259630">
        <ele>1708.1</ele>
        <time>2022-08-20T16:38:33Z</time>
      </trkpt>
      <trkpt lat="25.4619340" lon="-100.8260380">
        <ele>1707.9</ele>
        <time>2022-08-20T16:38:34Z</time>
      </trkpt>
      <trkpt lat="25.4618640" lon="-100.8261140">
        <ele>1707.7</ele>
        <time>2022-08-20T16:38:35Z</time>
      </trkpt>
      <trkpt lat="25.4617930" lon="-100.8261900">
        <ele>1707.4</ele>
        <time>2022-08-20T16:38:36Z</time>
      </trkpt>
      <trkpt lat="25.4617230" lon="-100.8262660">
        <ele>1707.1</ele>
        <time>2022-08-20T16:38:37Z</time>
      </trkpt>
      <trkpt lat="25.4616520" lon="-100.8263420">
        <ele>1706.7</ele>
        <time>2022-08-20T16:38:38Z</time>
      </trkpt>
      <trkpt lat="25.4615800" lon="-100.8264180">
        <ele>1706.2</ele>
        <time>2022-08-20T16:38:39Z</time>
      </trkpt>
      <trkpt lat="25.4615070" lon="-100.8264940">
        <ele>1705.6</ele>
        <time>2022-08-20T16:38:40Z</time>
      </trkpt>
      <trkpt lat="25.4614330" lon="-100.8265710">
        <ele>1705.0</ele>
        <time>2022-08-20T16:38:41Z</time>
      </trkpt>
      <trkpt lat="25.4613580" lon="-100.8266500">
        <ele>1704.4</ele>
        <time>2022-08-20T16:38:42Z</time>
      </trkpt>
      <trkpt lat="25.4612830" lon="-100.8267300">
        <ele>1703.8</ele>
        <time>2022-08-20T16:38:43Z</time>
      </trkpt>
      <trkpt lat="25.4612080" lon="-100.8268120">
        <ele>1703.2</ele>
        <time>2022-08-20T16:38:44Z</time>
      </trkpt>
      <trkpt lat="25.4611350" lon="-100.8268930">
        <ele>1702.6</ele>
        <time>2022-08-20T16:38:45Z</time>
      </trkpt>
      <trkpt lat="25.4610600" lon="-100.8269730">
        <ele>1702.0</ele>
        <time>2022-08-20T16:38:46Z</time>
      </trkpt>
      <trkpt lat="25.4609840" lon="-100.8270530">
        <ele>1701.6</ele>
        <time>2022-08-20T16:38:47Z</time>
      </trkpt>
      <trkpt lat="25.4609060" lon="-100.8271320">
        <ele>1701.2</ele>
        <time>2022-08-20T16:38:48Z</time>
      </trkpt>
      <trkpt lat="25.4608290" lon="-100.8272130">
        <ele>1701.0</ele>
        <time>2022-08-20T16:38:49Z</time>
      </trkpt>
      <trkpt lat="25.4607500" lon="-100.8272960">
        <ele>1701.0</ele>
        <time>2022-08-20T16:38:50Z</time>
      </trkpt>
      <trkpt lat="25.4606740" lon="-100.8273790">
        <ele>1701.0</ele>
        <time>2022-08-20T16:38:51Z</time>
      </trkpt>
      <trkpt lat="25.4606030" lon="-100.8274630">
        <ele>1701.2</ele>
        <time>2022-08-20T16:38:52Z</time>
      </trkpt>
      <trkpt lat="25.4605350" lon="-100.8275470">
        <ele>1701.4</ele>
        <time>2022-08-20T16:38:53Z</time>
      </trkpt>
      <trkpt lat="25.4604680" lon="-100.8276270">
        <ele>1701.7</ele>
        <time>2022-08-20T16:38:54Z</time>
      </trkpt>
      <trkpt lat="25.4604010" lon="-100.8277010">
        <ele>1701.9</ele>
        <time>2022-08-20T16:38:55Z</time>
      </trkpt>
      <trkpt lat="25.4603350" lon="-100.8277720">
        <ele>1702.0</ele>
        <time>2022-08-20T16:38:56Z</time>
      </trkpt>
      <trkpt lat="25.4602700" lon="-100.8278400">
        <ele>1702.2</ele>
        <time>2022-08-20T16:38:57Z</time>
      </trkpt>
      <trkpt lat="25.4602080" lon="-100.8279060">
        <ele>1702.3</ele>
        <time>2022-08-20T16:38:58Z</time>
      </trkpt>
      <trkpt lat="25.4601470" lon="-100.8279710">
        <ele>1702.3</ele>
        <time>2022-08-20T16:38:59Z</time>
      </trkpt>
      <trkpt lat="25.4600850" lon="-100.8280360">
        <ele>1702.4</ele>
        <time>2022-08-20T16:39:00Z</time>
      </trkpt>
      <trkpt lat="25.4600260" lon="-100.8280990">
        <ele>1702.3</ele>
        <time>2022-08-20T16:39:01Z</time>
      </trkpt>
      <trkpt lat="25.4599660" lon="-100.8281610">
        <ele>1702.1</ele>
        <time>2022-08-20T16:39:02Z</time>
      </trkpt>
      <trkpt lat="25.4599060" lon="-100.8282240">
        <ele>1701.9</ele>
        <time>2022-08-20T16:39:03Z</time>
      </trkpt>
      <trkpt lat="25.4598440" lon="-100.8282910">
        <ele>1701.6</ele>
        <time>2022-08-20T16:39:04Z</time>
      </trkpt>
      <trkpt lat="25.4597820" lon="-100.8283620">
        <ele>1701.2</ele>
        <time>2022-08-20T16:39:05Z</time>
      </trkpt>
      <trkpt lat="25.4597180" lon="-100.8284350">
        <ele>1700.7</ele>
        <time>2022-08-20T16:39:06Z</time>
      </trkpt>
      <trkpt lat="25.4596540" lon="-100.8285070">
        <ele>1700.2</ele>
        <time>2022-08-20T16:39:07Z</time>
      </trkpt>
      <trkpt lat="25.4595910" lon="-100.8285780">
        <ele>1699.6</ele>
        <time>2022-08-20T16:39:08Z</time>
      </trkpt>
      <trkpt lat="25.4595260" lon="-100.8286490">
        <ele>1698.9</ele>
        <time>2022-08-20T16:39:09Z</time>
      </trkpt>
      <trkpt lat="25.4594620" lon="-100.8287210">
        <ele>1698.1</ele>
        <time>2022-08-20T16:39:10Z</time>
      </trkpt>
      <trkpt lat="25.4593970" lon="-100.8287940">
        <ele>1697.4</ele>
        <time>2022-08-20T16:39:11Z</time>
      </trkpt>
      <trkpt lat="25.4593280" lon="-100.8288680">
        <ele>1696.7</ele>
        <time>2022-08-20T16:39:12Z</time>
      </trkpt>
      <trkpt lat="25.4592570" lon="-100.8289450">
        <ele>1696.0</ele>
        <time>2022-08-20T16:39:13Z</time>
      </trkpt>
      <trkpt lat="25.4591860" lon="-100.8290230">
        <ele>1695.3</ele>
        <time>2022-08-20T16:39:14Z</time>
      </trkpt>
      <trkpt lat="25.4591150" lon="-100.8291040">
        <ele>1694.6</ele>
        <time>2022-08-20T16:39:15Z</time>
      </trkpt>
      <trkpt lat="25.4590420" lon="-100.8291880">
        <ele>1694.0</ele>
        <time>2022-08-20T16:39:16Z</time>
      </trkpt>
      <trkpt lat="25.4589640" lon="-100.8292740">
        <ele>1693.4</ele>
        <time>2022-08-20T16:39:17Z</time>
      </trkpt>
      <trkpt lat="25.4588820" lon="-100.8293620">
        <ele>1692.7</ele>
        <time>2022-08-20T16:39:18Z</time>
      </trkpt>
      <trkpt lat="25.4587980" lon="-100.8294500">
        <ele>1692.2</ele>
        <time>2022-08-20T16:39:19Z</time>
      </trkpt>
      <trkpt lat="25.4587160" lon="-100.8295390">
        <ele>1691.7</ele>
        <time>2022-08-20T16:39:20Z</time>
      </trkpt>
      <trkpt lat="25.4586350" lon="-100.8296270">
        <ele>1691.3</ele>
        <time>2022-08-20T16:39:21Z</time>
      </trkpt>
      <trkpt lat="25.4585530" lon="-100.8297150">
        <ele>1690.9</ele>
        <time>2022-08-20T16:39:22Z</time>
      </trkpt>
      <trkpt lat="25.4584710" lon="-100.8298020">
        <ele>1690.7</ele>
        <time>2022-08-20T16:39:23Z</time>
      </trkpt>
      <trkpt lat="25.4583910" lon="-100.8298870">
        <ele>1690.5</ele>
        <time>2022-08-20T16:39:24Z</time>
      </trkpt>
      <trkpt lat="25.4583110" lon="-100.8299700">
        <ele>1690.3</ele>
        <time>2022-08-20T16:39:25Z</time>
      </trkpt>
      <trkpt lat="25.4582330" lon="-100.8300520">
        <ele>1690.1</ele>
        <time>2022-08-20T16:39:26Z</time>
      </trkpt>
      <trkpt lat="25.4581570" lon="-100.8301330">
        <ele>1689.9</ele>
        <time>2022-08-20T16:39:27Z</time>
      </trkpt>
      <trkpt lat="25.4580840" lon="-100.8302140">
        <ele>1689.8</ele>
        <time>2022-08-20T16:39:28Z</time>
      </trkpt>
      <trkpt lat="25.4580130" lon="-100.8302920">
        <ele>1689.6</ele>
        <time>2022-08-20T16:39:29Z</time>
      </trkpt>
      <trkpt lat="25.4579440" lon="-100.8303700">
        <ele>1689.5</ele>
        <time>2022-08-20T16:39:30Z</time>
      </trkpt>
      <trkpt lat="25.4578770" lon="-100.8304470">
        <ele>1689.5</ele>
        <time>2022-08-20T16:39:31Z</time>
      </trkpt>
      <trkpt lat="25.4578130" lon="-100.8305240">
        <ele>1689.5</ele>
        <time>2022-08-20T16:39:32Z</time>
      </trkpt>
      <trkpt lat="25.4577560" lon="-100.8306050">
        <ele>1689.6</ele>
        <time>2022-08-20T16:39:33Z</time>
      </trkpt>
      <trkpt lat="25.4577060" lon="-100.8306890">
        <ele>1689.7</ele>
        <time>2022-08-20T16:39:34Z</time>
      </trkpt>
      <trkpt lat="25.4576610" lon="-100.8307740">
        <ele>1689.8</ele>
        <time>2022-08-20T16:39:35Z</time>
      </trkpt>
      <trkpt lat="25.4576170" lon="-100.8308590">
        <ele>1689.9</ele>
        <time>2022-08-20T16:39:36Z</time>
      </trkpt>
      <trkpt lat="25.4575700" lon="-100.8309390">
        <ele>1690.0</ele>
        <time>2022-08-20T16:39:37Z</time>
      </trkpt>
      <trkpt lat="25.4575160" lon="-100.8310110">
        <ele>1690.1</ele>
        <time>2022-08-20T16:39:38Z</time>
      </trkpt>
      <trkpt lat="25.4574540" lon="-100.8310750">
        <ele>1690.1</ele>
        <time>2022-08-20T16:39:39Z</time>
      </trkpt>
      <trkpt lat="25.4573880" lon="-100.8311320">
        <ele>1690.2</ele>
        <time>2022-08-20T16:39:40Z</time>
      </trkpt>
      <trkpt lat="25.4573220" lon="-100.8311860">
        <ele>1690.2</ele>
        <time>2022-08-20T16:39:41Z</time>
      </trkpt>
      <trkpt lat="25.4572560" lon="-100.8312390">
        <ele>1690.3</ele>
        <time>2022-08-20T16:39:42Z</time>
      </trkpt>
      <trkpt lat="25.4571920" lon="-100.8312930">
        <ele>1690.4</ele>
        <time>2022-08-20T16:39:43Z</time>
      </trkpt>
      <trkpt lat="25.4571310" lon="-100.8313490">
        <ele>1690.4</ele>
        <time>2022-08-20T16:39:44Z</time>
      </trkpt>
      <trkpt lat="25.4570730" lon="-100.8314030">
        <ele>1690.5</ele>
        <time>2022-08-20T16:39:45Z</time>
      </trkpt>
      <trkpt lat="25.4570140" lon="-100.8314560">
        <ele>1690.6</ele>
        <time>2022-08-20T16:39:46Z</time>
      </trkpt>
      <trkpt lat="25.4569540" lon="-100.8315050">
        <ele>1690.7</ele>
        <time>2022-08-20T16:39:47Z</time>
      </trkpt>
      <trkpt lat="25.4568930" lon="-100.8315550">
        <ele>1690.8</ele>
        <time>2022-08-20T16:39:48Z</time>
      </trkpt>
      <trkpt lat="25.4568340" lon="-100.8316050">
        <ele>1690.9</ele>
        <time>2022-08-20T16:39:49Z</time>
      </trkpt>
      <trkpt lat="25.4567750" lon="-100.8316560">
        <ele>1691.0</ele>
        <time>2022-08-20T16:39:50Z</time>
      </trkpt>
      <trkpt lat="25.4567190" lon="-100.8317100">
        <ele>1691.1</ele>
        <time>2022-08-20T16:39:51Z</time>
      </trkpt>
      <trkpt lat="25.4566670" lon="-100.8317670">
        <ele>1691.2</ele>
        <time>2022-08-20T16:39:52Z</time>
      </trkpt>
      <trkpt lat="25.4566150" lon="-100.8318260">
        <ele>1691.3</ele>
        <time>2022-08-20T16:39:53Z</time>
      </trkpt>
      <trkpt lat="25.4565620" lon="-100.8318840">
        <ele>1691.4</ele>
        <time>2022-08-20T16:39:54Z</time>
      </trkpt>
      <trkpt lat="25.4565030" lon="-100.8319230">
        <ele>1691.5</ele>
        <time>2022-08-20T16:39:55Z</time>
      </trkpt>
      <trkpt lat="25.4564430" lon="-100.8319620">
        <ele>1691.6</ele>
        <time>2022-08-20T16:39:56Z</time>
      </trkpt>
      <trkpt lat="25.4563940" lon="-100.8320090">
        <ele>1691.7</ele>
        <time>2022-08-20T16:39:57Z</time>
      </trkpt>
      <trkpt lat="25.4563600" lon="-100.8320770">
        <ele>1691.8</ele>
        <time>2022-08-20T16:39:58Z</time>
      </trkpt>
      <trkpt lat="25.4563180" lon="-100.8321400">
        <ele>1692.0</ele>
        <time>2022-08-20T16:39:59Z</time>
      </trkpt>
      <trkpt lat="25.4562710" lon="-100.8321970">
        <ele>1692.2</ele>
        <time>2022-08-20T16:40:00Z</time>
      </trkpt>
      <trkpt lat="25.4562180" lon="-100.8322450">
        <ele>1692.4</ele>
        <time>2022-08-20T16:40:01Z</time>
      </trkpt>
      <trkpt lat="25.4561620" lon="-100.8322880">
        <ele>1692.7</ele>
        <time>2022-08-20T16:40:02Z</time>
      </trkpt>
      <trkpt lat="25.4561060" lon="-100.8323330">
        <ele>1692.9</ele>
        <time>2022-08-20T16:40:03Z</time>
      </trkpt>
      <trkpt lat="25.4560500" lon="-100.8323760">
        <ele>1693.2</ele>
        <time>2022-08-20T16:40:04Z</time>
      </trkpt>
      <trkpt lat="25.4559950" lon="-100.8324180">
        <ele>1693.5</ele>
        <time>2022-08-20T16:40:05Z</time>
      </trkpt>
      <trkpt lat="25.4559410" lon="-100.8324550">
        <ele>1693.8</ele>
        <time>2022-08-20T16:40:06Z</time>
      </trkpt>
      <trkpt lat="25.4558880" lon="-100.8324900">
        <ele>1694.1</ele>
        <time>2022-08-20T16:40:07Z</time>
      </trkpt>
      <trkpt lat="25.4558380" lon="-100.8325230">
        <ele>1694.3</ele>
        <time>2022-08-20T16:40:08Z</time>
      </trkpt>
      <trkpt lat="25.4557910" lon="-100.8325560">
        <ele>1694.6</ele>
        <time>2022-08-20T16:40:09Z</time>
      </trkpt>
      <trkpt lat="25.4557450" lon="-100.8325900">
        <ele>1694.9</ele>
        <time>2022-08-20T16:40:10Z</time>
      </trkpt>
      <trkpt lat="25.4557000" lon="-100.8326240">
        <ele>1695.1</ele>
        <time>2022-08-20T16:40:11Z</time>
      </trkpt>
      <trkpt lat="25.4556570" lon="-100.8326590">
        <ele>1695.3</ele>
        <time>2022-08-20T16:40:12Z</time>
      </trkpt>
      <trkpt lat="25.4556140" lon="-100.8326950">
        <ele>1695.5</ele>
        <time>2022-08-20T16:40:13Z</time>
      </trkpt>
      <trkpt lat="25.4555710" lon="-100.8327330">
        <ele>1695.6</ele>
        <time>2022-08-20T16:40:14Z</time>
      </trkpt>
      <trkpt lat="25.4555280" lon="-100.8327720">
        <ele>1695.6</ele>
        <time>2022-08-20T16:40:15Z</time>
      </trkpt>
      <trkpt lat="25.4554850" lon="-100.8328110">
        <ele>1695.7</ele>
        <time>2022-08-20T16:40:16Z</time>
      </trkpt>
      <trkpt lat="25.4554430" lon="-100.8328500">
        <ele>1695.7</ele>
        <time>2022-08-20T16:40:17Z</time>
      </trkpt>
      <trkpt lat="25.4554000" lon="-100.8328880">
        <ele>1695.7</ele>
        <time>2022-08-20T16:40:18Z</time>
      </trkpt>
      <trkpt lat="25.4553580" lon="-100.8329270">
        <ele>1695.7</ele>
        <time>2022-08-20T16:40:19Z</time>
      </trkpt>
      <trkpt lat="25.4553180" lon="-100.8329660">
        <ele>1695.7</ele>
        <time>2022-08-20T16:40:20Z</time>
      </trkpt>
      <trkpt lat="25.4552770" lon="-100.8330040">
        <ele>1695.7</ele>
        <time>2022-08-20T16:40:21Z</time>
      </trkpt>
      <trkpt lat="25.4552360" lon="-100.8330420">
        <ele>1695.7</ele>
        <time>2022-08-20T16:40:22Z</time>
      </trkpt>
      <trkpt lat="25.4551960" lon="-100.8330790">
        <ele>1695.7</ele>
        <time>2022-08-20T16:40:23Z</time>
      </trkpt>
      <trkpt lat="25.4551560" lon="-100.8331160">
        <ele>1695.7</ele>
        <time>2022-08-20T16:40:24Z</time>
      </trkpt>
      <trkpt lat="25.4551160" lon="-100.8331530">
        <ele>1695.7</ele>
        <time>2022-08-20T16:40:25Z</time>
      </trkpt>
      <trkpt lat="25.4550770" lon="-100.8331900">
        <ele>1695.6</ele>
        <time>2022-08-20T16:40:26Z</time>
      </trkpt>
      <trkpt lat="25.4550380" lon="-100.8332240">
        <ele>1695.6</ele>
        <time>2022-08-20T16:40:27Z</time>
      </trkpt>
      <trkpt lat="25.4549970" lon="-100.8332570">
        <ele>1695.6</ele>
        <time>2022-08-20T16:40:28Z</time>
      </trkpt>
      <trkpt lat="25.4549550" lon="-100.8332900">
        <ele>1695.6</ele>
        <time>2022-08-20T16:40:29Z</time>
      </trkpt>
      <trkpt lat="25.4549120" lon="-100.8333210">
        <ele>1695.6</ele>
        <time>2022-08-20T16:40:30Z</time>
      </trkpt>
      <trkpt lat="25.4548690" lon="-100.8333500">
        <ele>1695.5</ele>
        <time>2022-08-20T16:40:31Z</time>
      </trkpt>
      <trkpt lat="25.4548260" lon="-100.8333770">
        <ele>1695.5</ele>
        <time>2022-08-20T16:40:32Z</time>
      </trkpt>
      <trkpt lat="25.4547850" lon="-100.8334050">
        <ele>1695.5</ele>
        <time>2022-08-20T16:40:33Z</time>
      </trkpt>
      <trkpt lat="25.4547470" lon="-100.8334340">
        <ele>1695.4</ele>
        <time>2022-08-20T16:40:34Z</time>
      </trkpt>
      <trkpt lat="25.4547100" lon="-100.8334630">
        <ele>1695.4</ele>
        <time>2022-08-20T16:40:35Z</time>
      </trkpt>
      <trkpt lat="25.4546870" lon="-100.8334810">
        <ele>1695.3</ele>
        <time>2022-08-20T16:40:36Z</time>
      </trkpt>
      <trkpt lat="25.4546410" lon="-100.8335160">
        <ele>1695.3</ele>
        <time>2022-08-20T16:40:37Z</time>
      </trkpt>
      <trkpt lat="25.4546070" lon="-100.8335410">
        <ele>1695.2</ele>
        <time>2022-08-20T16:40:38Z</time>
      </trkpt>
      <trkpt lat="25.4545790" lon="-100.8335600">
        <ele>1695.2</ele>
        <time>2022-08-20T16:40:39Z</time>
      </trkpt>
      <trkpt lat="25.4545470" lon="-100.8335830">
        <ele>1695.2</ele>
        <time>2022-08-20T16:40:40Z</time>
      </trkpt>
      <trkpt lat="25.4545210" lon="-100.8336020">
        <ele>1695.1</ele>
        <time>2022-08-20T16:40:41Z</time>
      </trkpt>
      <trkpt lat="25.4545010" lon="-100.8336210">
        <ele>1695.1</ele>
        <time>2022-08-20T16:40:42Z</time>
      </trkpt>
      <trkpt lat="25.4544800" lon="-100.8336420">
        <ele>1695.1</ele>
        <time>2022-08-20T16:40:43Z</time>
      </trkpt>
      <trkpt lat="25.4544560" lon="-100.8336670">
        <ele>1695.1</ele>
        <time>2022-08-20T16:40:44Z</time>
      </trkpt>
      <trkpt lat="25.4544470" lon="-100.8336760">
        <ele>1695.1</ele>
        <time>2022-08-20T16:40:45Z</time>
      </trkpt>
      <trkpt lat="25.4544380" lon="-100.8336840">
        <ele>1695.1</ele>
        <time>2022-08-20T16:40:46Z</time>
      </trkpt>
      <trkpt lat="25.4544400" lon="-100.8336820">
        <ele>1695.1</ele>
        <time>2022-08-20T16:40:47Z</time>
      </trkpt>
      <trkpt lat="25.4544420" lon="-100.8336800">
        <ele>1695.1</ele>
        <time>2022-08-20T16:40:48Z</time>
      </trkpt>
      <trkpt lat="25.4544440" lon="-100.8336780">
        <ele>1695.1</ele>
        <time>2022-08-20T16:40:49Z</time>
      </trkpt>
      <trkpt lat="25.4544460" lon="-100.8336760">
        <ele>1695.1</ele>
        <time>2022-08-20T16:40:50Z</time>
      </trkpt>
      <trkpt lat="25.4544480" lon="-100.8336740">
        <ele>1695.1</ele>
        <time>2022-08-20T16:40:51Z</time>
      </trkpt>
      <trkpt lat="25.4544500" lon="-100.8336720">
        <ele>1695.1</ele>
        <time>2022-08-20T16:40:52Z</time>
      </trkpt>
      <trkpt lat="25.4544520" lon="-100.8336700">
        <ele>1695.1</ele>
        <time>2022-08-20T16:40:53Z</time>
      </trkpt>
      <trkpt lat="25.4544550" lon="-100.8336680">
        <ele>1695.1</ele>
        <time>2022-08-20T16:40:54Z</time>
      </trkpt>
      <trkpt lat="25.4544570" lon="-100.8336660">
        <ele>1695.1</ele>
        <time>2022-08-20T16:40:55Z</time>
      </trkpt>
      <trkpt lat="25.4544590" lon="-100.8336640">
        <ele>1695.1</ele>
        <time>2022-08-20T16:40:56Z</time>
      </trkpt>
      <trkpt lat="25.4544610" lon="-100.8336620">
        <ele>1695.1</ele>
        <time>2022-08-20T16:40:57Z</time>
      </trkpt>
      <trkpt lat="25.4544630" lon="-100.8336600">
        <ele>1695.1</ele>
        <time>2022-08-20T16:40:58Z</time>
      </trkpt>
      <trkpt lat="25.4544650" lon="-100.8336580">
        <ele>1695.1</ele>
        <time>2022-08-20T16:40:59Z</time>
      </trkpt>
      <trkpt lat="25.4544670" lon="-100.8336570">
        <ele>1695.1</ele>
        <time>2022-08-20T16:41:00Z</time>
      </trkpt>
      <trkpt lat="25.4544690" lon="-100.8336550">
        <ele>1695.1</ele>
        <time>2022-08-20T16:41:01Z</time>
      </trkpt>
      <trkpt lat="25.4544710" lon="-100.8336530">
        <ele>1695.1</ele>
        <time>2022-08-20T16:41:02Z</time>
      </trkpt>
      <trkpt lat="25.4544730" lon="-100.8336510">
        <ele>1695.1</ele>
        <time>2022-08-20T16:41:03Z</time>
      </trkpt>
      <trkpt lat="25.4544750" lon="-100.8336490">
        <ele>1695.1</ele>
        <time>2022-08-20T16:41:04Z</time>
      </trkpt>
      <trkpt lat="25.4544770" lon="-100.8336470">
        <ele>1695.1</ele>
        <time>2022-08-20T16:41:05Z</time>
      </trkpt>
      <trkpt lat="25.4544790" lon="-100.8336450">
        <ele>1695.1</ele>
        <time>2022-08-20T16:41:06Z</time>
      </trkpt>
      <trkpt lat="25.4544810" lon="-100.8336430">
        <ele>1695.1</ele>
        <time>2022-08-20T16:41:07Z</time>
      </trkpt>
      <trkpt lat="25.4544830" lon="-100.8336410">
        <ele>1695.1</ele>
        <time>2022-08-20T16:41:08Z</time>
      </trkpt>
      <trkpt lat="25.4545120" lon="-100.8336170">
        <ele>1695.1</ele>
        <time>2022-08-20T16:41:09Z</time>
      </trkpt>
      <trkpt lat="25.4545210" lon="-100.8336120">
        <ele>1695.1</ele>
        <time>2022-08-20T16:41:10Z</time>
      </trkpt>
      <trkpt lat="25.4545360" lon="-100.8336010">
        <ele>1695.1</ele>
        <time>2022-08-20T16:41:11Z</time>
      </trkpt>
      <trkpt lat="25.4545510" lon="-100.8335900">
        <ele>1695.2</ele>
        <time>2022-08-20T16:41:12Z</time>
      </trkpt>
      <trkpt lat="25.4545640" lon="-100.8335780">
        <ele>1695.2</ele>
        <time>2022-08-20T16:41:13Z</time>
      </trkpt>
      <trkpt lat="25.4545770" lon="-100.8335660">
        <ele>1695.2</ele>
        <time>2022-08-20T16:41:14Z</time>
      </trkpt>
      <trkpt lat="25.4545890" lon="-100.8335560">
        <ele>1695.2</ele>
        <time>2022-08-20T16:41:15Z</time>
      </trkpt>
      <trkpt lat="25.4546000" lon="-100.8335450">
        <ele>1695.2</ele>
        <time>2022-08-20T16:41:16Z</time>
      </trkpt>
      <trkpt lat="25.4546160" lon="-100.8335290">
        <ele>1695.2</ele>
        <time>2022-08-20T16:41:17Z</time>
      </trkpt>
      <trkpt lat="25.4546210" lon="-100.8335240">
        <ele>1695.2</ele>
        <time>2022-08-20T16:41:18Z</time>
      </trkpt>
      <trkpt lat="25.4546270" lon="-100.8335190">
        <ele>1695.2</ele>
        <time>2022-08-20T16:41:19Z</time>
      </trkpt>
      <trkpt lat="25.4546400" lon="-100.8335150">
        <ele>1695.2</ele>
        <time>2022-08-20T16:41:20Z</time>
      </trkpt>
      <trkpt lat="25.4546530" lon="-100.8335200">
        <ele>1695.2</ele>
        <time>2022-08-20T16:41:21Z</time>
      </trkpt>
      <trkpt lat="25.4546600" lon="-100.8335470">
        <ele>1695.2</ele>
        <time>2022-08-20T16:41:22Z</time>
      </trkpt>
      <trkpt lat="25.4546550" lon="-100.8335610">
        <ele>1695.2</ele>
        <time>2022-08-20T16:41:24Z</time>
      </trkpt>
      <trkpt lat="25.4546370" lon="-100.8335760">
        <ele>1695.2</ele>
        <time>2022-08-20T16:41:26Z</time>
      </trkpt>
      <trkpt lat="25.4546320" lon="-100.8335710">
        <ele>1695.2</ele>
        <time>2022-08-20T16:41:27Z</time>
      </trkpt>
      <trkpt lat="25.4546310" lon="-100.8335700">
        <ele>1695.2</ele>
        <time>2022-08-20T16:41:28Z</time>
      </trkpt>
      <trkpt lat="25.4546300" lon="-100.8335690">
        <ele>1695.2</ele>
        <time>2022-08-20T16:41:29Z</time>
      </trkpt>
      <trkpt lat="25.4546290" lon="-100.8335680">
        <ele>1695.2</ele>
        <time>2022-08-20T16:41:30Z</time>
      </trkpt>
      <trkpt lat="25.4546280" lon="-100.8335660">
        <ele>1695.2</ele>
        <time>2022-08-20T16:41:31Z</time>
      </trkpt>
      <trkpt lat="25.4546270" lon="-100.8335650">
        <ele>1695.2</ele>
        <time>2022-08-20T16:41:32Z</time>
      </trkpt>
      <trkpt lat="25.4546260" lon="-100.8335640">
        <ele>1695.2</ele>
        <time>2022-08-20T16:41:33Z</time>
      </trkpt>
      <trkpt lat="25.4546250" lon="-100.8335620">
        <ele>1695.2</ele>
        <time>2022-08-20T16:41:34Z</time>
      </trkpt>
      <trkpt lat="25.4546240" lon="-100.8335610">
        <ele>1695.2</ele>
        <time>2022-08-20T16:41:35Z</time>
      </trkpt>
      <trkpt lat="25.4546230" lon="-100.8335600">
        <ele>1695.2</ele>
        <time>2022-08-20T16:41:37Z</time>
      </trkpt>
      <trkpt lat="25.4546220" lon="-100.8335590">
        <ele>1695.2</ele>
        <time>2022-08-20T16:41:38Z</time>
      </trkpt>
      <trkpt lat="25.4546210" lon="-100.8335570">
        <ele>1695.2</ele>
        <time>2022-08-20T16:41:39Z</time>
      </trkpt>
      <trkpt lat="25.4546200" lon="-100.8335560">
        <ele>1695.2</ele>
        <time>2022-08-20T16:41:40Z</time>
      </trkpt>
      <trkpt lat="25.4546190" lon="-100.8335550">
        <ele>1695.2</ele>
        <time>2022-08-20T16:41:41Z</time>
      </trkpt>
      <trkpt lat="25.4546180" lon="-100.8335540">
        <ele>1695.2</ele>
        <time>2022-08-20T16:41:42Z</time>
      </trkpt>
      <trkpt lat="25.4546170" lon="-100.8335520">
        <ele>1695.2</ele>
        <time>2022-08-20T16:41:43Z</time>
      </trkpt>
      <trkpt lat="25.4546160" lon="-100.8335510">
        <ele>1695.2</ele>
        <time>2022-08-20T16:41:44Z</time>
      </trkpt>
      <trkpt lat="25.4546150" lon="-100.8335500">
        <ele>1695.2</ele>
        <time>2022-08-20T16:41:45Z</time>
      </trkpt>
      <trkpt lat="25.4546140" lon="-100.8335480">
        <ele>1695.2</ele>
        <time>2022-08-20T16:41:46Z</time>
      </trkpt>
      <trkpt lat="25.4546130" lon="-100.8335470">
        <ele>1695.2</ele>
        <time>2022-08-20T16:41:47Z</time>
      </trkpt>
      <trkpt lat="25.4546120" lon="-100.8335460">
        <ele>1695.2</ele>
        <time>2022-08-20T16:41:48Z</time>
      </trkpt>
      <trkpt lat="25.4546110" lon="-100.8335450">
        <ele>1695.2</ele>
        <time>2022-08-20T16:41:49Z</time>
      </trkpt>
      <trkpt lat="25.4546100" lon="-100.8335430">
        <ele>1695.2</ele>
        <time>2022-08-20T16:41:50Z</time>
      </trkpt>
      <trkpt lat="25.4546090" lon="-100.8335420">
        <ele>1695.2</ele>
        <time>2022-08-20T16:41:51Z</time>
      </trkpt>
      <trkpt lat="25.4546080" lon="-100.8335410">
        <ele>1695.2</ele>
        <time>2022-08-20T16:41:52Z</time>
      </trkpt>
      <trkpt lat="25.4546070" lon="-100.8335400">
        <ele>1695.2</ele>
        <time>2022-08-20T16:41:53Z</time>
      </trkpt>
      <trkpt lat="25.4546060" lon="-100.8335380">
        <ele>1695.2</ele>
        <time>2022-08-20T16:41:54Z</time>
      </trkpt>
      <trkpt lat="25.4546050" lon="-100.8335370">
        <ele>1695.2</ele>
        <time>2022-08-20T16:41:55Z</time>
      </trkpt>
      <trkpt lat="25.4546040" lon="-100.8335360">
        <ele>1695.2</ele>
        <time>2022-08-20T16:41:56Z</time>
      </trkpt>
      <trkpt lat="25.4546030" lon="-100.8335340">
        <ele>1695.2</ele>
        <time>2022-08-20T16:41:57Z</time>
      </trkpt>
      <trkpt lat="25.4546020" lon="-100.8335330">
        <ele>1695.2</ele>
        <time>2022-08-20T16:41:58Z</time>
      </trkpt>
      <trkpt lat="25.4546010" lon="-100.8335320">
        <ele>1695.2</ele>
        <time>2022-08-20T16:41:59Z</time>
      </trkpt>
      <trkpt lat="25.4546000" lon="-100.8335310">
        <ele>1695.2</ele>
        <time>2022-08-20T16:42:00Z</time>
      </trkpt>
      <trkpt lat="25.4545990" lon="-100.8335290">
        <ele>1695.2</ele>
        <time>2022-08-20T16:42:01Z</time>
      </trkpt>
      <trkpt lat="25.4545980" lon="-100.8335280">
        <ele>1695.2</ele>
        <time>2022-08-20T16:42:02Z</time>
      </trkpt>
      <trkpt lat="25.4545930" lon="-100.8335080">
        <ele>1695.2</ele>
        <time>2022-08-20T16:42:03Z</time>
      </trkpt>
      <trkpt lat="25.4545930" lon="-100.8334970">
        <ele>1695.2</ele>
        <time>2022-08-20T16:42:04Z</time>
      </trkpt>
      <trkpt lat="25.4545920" lon="-100.8334820">
        <ele>1695.2</ele>
        <time>2022-08-20T16:42:05Z</time>
      </trkpt>
      <trkpt lat="25.4545900" lon="-100.8334640">
        <ele>1695.2</ele>
        <time>2022-08-20T16:42:07Z</time>
      </trkpt>
      <trkpt lat="25.4545930" lon="-100.8334660">
        <ele>1695.2</ele>
        <time>2022-08-20T16:42:08Z</time>
      </trkpt>
      <trkpt lat="25.4545960" lon="-100.8334660">
        <ele>1695.2</ele>
        <time>2022-08-20T16:42:09Z</time>
      </trkpt>
      <trkpt lat="25.4545970" lon="-100.8334680">
        <ele>1695.2</ele>
        <time>2022-08-20T16:42:10Z</time>
      </trkpt>
      <trkpt lat="25.4545960" lon="-100.8334690">
        <ele>1695.2</ele>
        <time>2022-08-20T16:42:11Z</time>
      </trkpt>
      <trkpt lat="25.4545960" lon="-100.8334690">
        <ele>1695.2</ele>
        <time>2022-08-20T16:42:12Z</time>
      </trkpt>
      <trkpt lat="25.4545960" lon="-100.8334690">
        <ele>1695.2</ele>
        <time>2022-08-20T16:42:13Z</time>
      </trkpt>
      <trkpt lat="25.4545960" lon="-100.8334680">
        <ele>1695.2</ele>
        <time>2022-08-20T16:42:14Z</time>
      </trkpt>
      <trkpt lat="25.4545940" lon="-100.8334670">
        <ele>1695.2</ele>
        <time>2022-08-20T16:42:15Z</time>
      </trkpt>
      <trkpt lat="25.4545880" lon="-100.8334610">
        <ele>1695.2</ele>
        <time>2022-08-20T16:42:16Z</time>
      </trkpt>
      <trkpt lat="25.4545820" lon="-100.8334530">
        <ele>1695.2</ele>
        <time>2022-08-20T16:42:17Z</time>
      </trkpt>
      <trkpt lat="25.4545800" lon="-100.8334500">
        <ele>1695.2</ele>
        <time>2022-08-20T16:42:18Z</time>
      </trkpt>
      <trkpt lat="25.4545780" lon="-100.8334470">
        <ele>1695.2</ele>
        <time>2022-08-20T16:42:19Z</time>
      </trkpt>
      <trkpt lat="25.4545770" lon="-100.8334450">
        <ele>1695.2</ele>
        <time>2022-08-20T16:42:20Z</time>
      </trkpt>
      <trkpt lat="25.4545760" lon="-100.8334420">
        <ele>1695.2</ele>
        <time>2022-08-20T16:42:21Z</time>
      </trkpt>
      <trkpt lat="25.4545740" lon="-100.8334390">
        <ele>1695.2</ele>
        <time>2022-08-20T16:42:22Z</time>
      </trkpt>
      <trkpt lat="25.4545740" lon="-100.8334390">
        <ele>1695.2</ele>
        <time>2022-08-20T16:42:23Z</time>
      </trkpt>
      <trkpt lat="25.4545740" lon="-100.8334390">
        <ele>1695.2</ele>
        <time>2022-08-20T16:42:24Z</time>
      </trkpt>
      <trkpt lat="25.4545740" lon="-100.8334390">
        <ele>1695.2</ele>
        <time>2022-08-20T16:42:25Z</time>
      </trkpt>
      <trkpt lat="25.4545740" lon="-100.8334400">
        <ele>1695.2</ele>
        <time>2022-08-20T16:42:26Z</time>
      </trkpt>
      <trkpt lat="25.4545740" lon="-100.8334400">
        <ele>1695.2</ele>
        <time>2022-08-20T16:42:27Z</time>
      </trkpt>
      <trkpt lat="25.4545730" lon="-100.8334400">
        <ele>1695.2</ele>
        <time>2022-08-20T16:42:28Z</time>
      </trkpt>
      <trkpt lat="25.4545730" lon="-100.8334400">
        <ele>1695.2</ele>
        <time>2022-08-20T16:42:29Z</time>
      </trkpt>
      <trkpt lat="25.4545730" lon="-100.8334400">
        <ele>1695.2</ele>
        <time>2022-08-20T16:42:30Z</time>
      </trkpt>
      <trkpt lat="25.4545730" lon="-100.8334410">
        <ele>1695.2</ele>
        <time>2022-08-20T16:42:31Z</time>
      </trkpt>
      <trkpt lat="25.4545730" lon="-100.8334410">
        <ele>1695.2</ele>
        <time>2022-08-20T16:42:32Z</time>
      </trkpt>
      <trkpt lat="25.4545730" lon="-100.8334410">
        <ele>1695.2</ele>
        <time>2022-08-20T16:42:33Z</time>
      </trkpt>
      <trkpt lat="25.4545730" lon="-100.8334410">
        <ele>1695.2</ele>
        <time>2022-08-20T16:42:34Z</time>
      </trkpt>
      <trkpt lat="25.4545730" lon="-100.8334410">
        <ele>1695.2</ele>
        <time>2022-08-20T16:42:35Z</time>
      </trkpt>
      <trkpt lat="25.4545730" lon="-100.8334410">
        <ele>1695.2</ele>
        <time>2022-08-20T16:42:36Z</time>
      </trkpt>
      <trkpt lat="25.4545730" lon="-100.8334420">
        <ele>1695.2</ele>
        <time>2022-08-20T16:42:37Z</time>
      </trkpt>
      <trkpt lat="25.4545720" lon="-100.8334420">
        <ele>1695.2</ele>
        <time>2022-08-20T16:42:38Z</time>
      </trkpt>
      <trkpt lat="25.4545720" lon="-100.8334420">
        <ele>1695.2</ele>
        <time>2022-08-20T16:42:39Z</time>
      </trkpt>
      <trkpt lat="25.4545720" lon="-100.8334420">
        <ele>1695.2</ele>
        <time>2022-08-20T16:42:40Z</time>
      </trkpt>
      <trkpt lat="25.4545720" lon="-100.8334420">
        <ele>1695.2</ele>
        <time>2022-08-20T16:42:41Z</time>
      </trkpt>
      <trkpt lat="25.4545720" lon="-100.8334420">
        <ele>1695.2</ele>
        <time>2022-08-20T16:42:42Z</time>
      </trkpt>
      <trkpt lat="25.4545720" lon="-100.8334430">
        <ele>1695.2</ele>
        <time>2022-08-20T16:42:43Z</time>
      </trkpt>
      <trkpt lat="25.4545720" lon="-100.8334430">
        <ele>1695.2</ele>
        <time>2022-08-20T16:42:44Z</time>
      </trkpt>
      <trkpt lat="25.4545720" lon="-100.8334430">
        <ele>1695.2</ele>
        <time>2022-08-20T16:42:45Z</time>
      </trkpt>
      <trkpt lat="25.4545720" lon="-100.8334430">
        <ele>1695.2</ele>
        <time>2022-08-20T16:42:46Z</time>
      </trkpt>
      <trkpt lat="25.4545710" lon="-100.8334430">
        <ele>1695.2</ele>
        <time>2022-08-20T16:42:47Z</time>
      </trkpt>
      <trkpt lat="25.4545710" lon="-100.8334440">
        <ele>1695.2</ele>
        <time>2022-08-20T16:42:48Z</time>
      </trkpt>
      <trkpt lat="25.4545710" lon="-100.8334440">
        <ele>1695.2</ele>
        <time>2022-08-20T16:42:49Z</time>
      </trkpt>
      <trkpt lat="25.4545710" lon="-100.8334440">
        <ele>1695.2</ele>
        <time>2022-08-20T16:42:50Z</time>
      </trkpt>
      <trkpt lat="25.4545710" lon="-100.8334440">
        <ele>1695.2</ele>
        <time>2022-08-20T16:42:51Z</time>
      </trkpt>
      <trkpt lat="25.4545710" lon="-100.8334440">
        <ele>1695.2</ele>
        <time>2022-08-20T16:42:52Z</time>
      </trkpt>
      <trkpt lat="25.4545710" lon="-100.8334440">
        <ele>1695.2</ele>
        <time>2022-08-20T16:42:53Z</time>
      </trkpt>
      <trkpt lat="25.4545710" lon="-100.8334450">
        <ele>1695.2</ele>
        <time>2022-08-20T16:42:54Z</time>
      </trkpt>
      <trkpt lat="25.4545710" lon="-100.8334450">
        <ele>1695.2</ele>
        <time>2022-08-20T16:42:55Z</time>
      </trkpt>
      <trkpt lat="25.4545710" lon="-100.8334450">
        <ele>1695.2</ele>
        <time>2022-08-20T16:42:56Z</time>
      </trkpt>
      <trkpt lat="25.4545700" lon="-100.8334450">
        <ele>1695.2</ele>
        <time>2022-08-20T16:42:57Z</time>
      </trkpt>
      <trkpt lat="25.4545700" lon="-100.8334450">
        <ele>1695.2</ele>
        <time>2022-08-20T16:42:58Z</time>
      </trkpt>
      <trkpt lat="25.4545700" lon="-100.8334450">
        <ele>1695.2</ele>
        <time>2022-08-20T16:42:59Z</time>
      </trkpt>
      <trkpt lat="25.4545700" lon="-100.8334460">
        <ele>1695.2</ele>
        <time>2022-08-20T16:43:00Z</time>
      </trkpt>
      <trkpt lat="25.4545700" lon="-100.8334460">
        <ele>1695.2</ele>
        <time>2022-08-20T16:43:01Z</time>
      </trkpt>
      <trkpt lat="25.4545700" lon="-100.8334460">
        <ele>1695.2</ele>
        <time>2022-08-20T16:43:02Z</time>
      </trkpt>
      <trkpt lat="25.4545700" lon="-100.8334460">
        <ele>1695.2</ele>
        <time>2022-08-20T16:43:03Z</time>
      </trkpt>
      <trkpt lat="25.4545700" lon="-100.8334460">
        <ele>1695.2</ele>
        <time>2022-08-20T16:43:04Z</time>
      </trkpt>
      <trkpt lat="25.4545700" lon="-100.8334460">
        <ele>1695.2</ele>
        <time>2022-08-20T16:43:05Z</time>
      </trkpt>
      <trkpt lat="25.4545690" lon="-100.8334470">
        <ele>1695.2</ele>
        <time>2022-08-20T16:43:06Z</time>
      </trkpt>
      <trkpt lat="25.4545690" lon="-100.8334470">
        <ele>1695.2</ele>
        <time>2022-08-20T16:43:07Z</time>
      </trkpt>
      <trkpt lat="25.4545690" lon="-100.8334470">
        <ele>1695.2</ele>
        <time>2022-08-20T16:43:08Z</time>
      </trkpt>
      <trkpt lat="25.4545690" lon="-100.8334470">
        <ele>1695.2</ele>
        <time>2022-08-20T16:43:09Z</time>
      </trkpt>
      <trkpt lat="25.4545690" lon="-100.8334470">
        <ele>1695.2</ele>
        <time>2022-08-20T16:43:10Z</time>
      </trkpt>
      <trkpt lat="25.4545690" lon="-100.8334480">
        <ele>1695.2</ele>
        <time>2022-08-20T16:43:11Z</time>
      </trkpt>
      <trkpt lat="25.4545690" lon="-100.8334480">
        <ele>1695.2</ele>
        <time>2022-08-20T16:43:12Z</time>
      </trkpt>
      <trkpt lat="25.4545690" lon="-100.8334480">
        <ele>1695.2</ele>
        <time>2022-08-20T16:43:13Z</time>
      </trkpt>
      <trkpt lat="25.4545690" lon="-100.8334480">
        <ele>1695.2</ele>
        <time>2022-08-20T16:43:14Z</time>
      </trkpt>
      <trkpt lat="25.4545690" lon="-100.8334480">
        <ele>1695.2</ele>
        <time>2022-08-20T16:43:15Z</time>
      </trkpt>
      <trkpt lat="25.4545680" lon="-100.8334480">
        <ele>1695.2</ele>
        <time>2022-08-20T16:43:16Z</time>
      </trkpt>
      <trkpt lat="25.4545680" lon="-100.8334490">
        <ele>1695.2</ele>
        <time>2022-08-20T16:43:17Z</time>
      </trkpt>
      <trkpt lat="25.4545680" lon="-100.8334490">
        <ele>1695.2</ele>
        <time>2022-08-20T16:43:18Z</time>
      </trkpt>
      <trkpt lat="25.4545680" lon="-100.8334490">
        <ele>1695.2</ele>
        <time>2022-08-20T16:43:19Z</time>
      </trkpt>
      <trkpt lat="25.4545680" lon="-100.8334490">
        <ele>1695.2</ele>
        <time>2022-08-20T16:43:20Z</time>
      </trkpt>
      <trkpt lat="25.4545680" lon="-100.8334490">
        <ele>1695.2</ele>
        <time>2022-08-20T16:43:21Z</time>
      </trkpt>
      <trkpt lat="25.4545680" lon="-100.8334490">
        <ele>1695.2</ele>
        <time>2022-08-20T16:43:22Z</time>
      </trkpt>
      <trkpt lat="25.4545680" lon="-100.8334500">
        <ele>1695.2</ele>
        <time>2022-08-20T16:43:23Z</time>
      </trkpt>
      <trkpt lat="25.4545680" lon="-100.8334500">
        <ele>1695.2</ele>
        <time>2022-08-20T16:43:24Z</time>
      </trkpt>
      <trkpt lat="25.4545670" lon="-100.8334500">
        <ele>1695.2</ele>
        <time>2022-08-20T16:43:25Z</time>
      </trkpt>
      <trkpt lat="25.4545670" lon="-100.8334500">
        <ele>1695.2</ele>
        <time>2022-08-20T16:43:26Z</time>
      </trkpt>
      <trkpt lat="25.4545670" lon="-100.8334500">
        <ele>1695.2</ele>
        <time>2022-08-20T16:43:27Z</time>
      </trkpt>
      <trkpt lat="25.4545670" lon="-100.8334510">
        <ele>1695.2</ele>
        <time>2022-08-20T16:43:28Z</time>
      </trkpt>
      <trkpt lat="25.4545670" lon="-100.8334510">
        <ele>1695.2</ele>
        <time>2022-08-20T16:43:29Z</time>
      </trkpt>
      <trkpt lat="25.4545670" lon="-100.8334510">
        <ele>1695.2</ele>
        <time>2022-08-20T16:43:30Z</time>
      </trkpt>
      <trkpt lat="25.4545670" lon="-100.8334510">
        <ele>1695.2</ele>
        <time>2022-08-20T16:43:31Z</time>
      </trkpt>
      <trkpt lat="25.4545670" lon="-100.8334510">
        <ele>1695.2</ele>
        <time>2022-08-20T16:43:32Z</time>
      </trkpt>
      <trkpt lat="25.4545670" lon="-100.8334510">
        <ele>1695.2</ele>
        <time>2022-08-20T16:43:33Z</time>
      </trkpt>
      <trkpt lat="25.4545670" lon="-100.8334520">
        <ele>1695.2</ele>
        <time>2022-08-20T16:43:34Z</time>
      </trkpt>
      <trkpt lat="25.4545660" lon="-100.8334520">
        <ele>1695.2</ele>
        <time>2022-08-20T16:43:35Z</time>
      </trkpt>
      <trkpt lat="25.4545660" lon="-100.8334520">
        <ele>1695.2</ele>
        <time>2022-08-20T16:43:36Z</time>
      </trkpt>
      <trkpt lat="25.4545660" lon="-100.8334520">
        <ele>1695.2</ele>
        <time>2022-08-20T16:43:37Z</time>
      </trkpt>
      <trkpt lat="25.4545660" lon="-100.8334520">
        <ele>1695.2</ele>
        <time>2022-08-20T16:43:38Z</time>
      </trkpt>
      <trkpt lat="25.4545660" lon="-100.8334520">
        <ele>1695.2</ele>
        <time>2022-08-20T16:43:39Z</time>
      </trkpt>
      <trkpt lat="25.4545660" lon="-100.8334530">
        <ele>1695.2</ele>
        <time>2022-08-20T16:43:40Z</time>
      </trkpt>
      <trkpt lat="25.4545660" lon="-100.8334530">
        <ele>1695.2</ele>
        <time>2022-08-20T16:43:41Z</time>
      </trkpt>
      <trkpt lat="25.4545660" lon="-100.8334530">
        <ele>1695.2</ele>
        <time>2022-08-20T16:43:42Z</time>
      </trkpt>
      <trkpt lat="25.4545660" lon="-100.8334530">
        <ele>1695.2</ele>
        <time>2022-08-20T16:43:43Z</time>
      </trkpt>
      <trkpt lat="25.4545660" lon="-100.8334530">
        <ele>1695.2</ele>
        <time>2022-08-20T16:43:44Z</time>
      </trkpt>
      <trkpt lat="25.4545650" lon="-100.8334530">
        <ele>1695.2</ele>
        <time>2022-08-20T16:43:45Z</time>
      </trkpt>
      <trkpt lat="25.4545650" lon="-100.8334540">
        <ele>1695.2</ele>
        <time>2022-08-20T16:43:46Z</time>
      </trkpt>
      <trkpt lat="25.4545650" lon="-100.8334540">
        <ele>1695.2</ele>
        <time>2022-08-20T16:43:47Z</time>
      </trkpt>
      <trkpt lat="25.4545650" lon="-100.8334540">
        <ele>1695.2</ele>
        <time>2022-08-20T16:43:48Z</time>
      </trkpt>
      <trkpt lat="25.4545650" lon="-100.8334540">
        <ele>1695.2</ele>
        <time>2022-08-20T16:43:49Z</time>
      </trkpt>
      <trkpt lat="25.4545650" lon="-100.8334540">
        <ele>1695.2</ele>
        <time>2022-08-20T16:43:50Z</time>
      </trkpt>
      <trkpt lat="25.4545650" lon="-100.8334550">
        <ele>1695.2</ele>
        <time>2022-08-20T16:43:51Z</time>
      </trkpt>
      <trkpt lat="25.4545650" lon="-100.8334550">
        <ele>1695.2</ele>
        <time>2022-08-20T16:43:52Z</time>
      </trkpt>
      <trkpt lat="25.4545650" lon="-100.8334550">
        <ele>1695.2</ele>
        <time>2022-08-20T16:43:53Z</time>
      </trkpt>
      <trkpt lat="25.4545640" lon="-100.8334550">
        <ele>1695.2</ele>
        <time>2022-08-20T16:43:54Z</time>
      </trkpt>
      <trkpt lat="25.4545640" lon="-100.8334550">
        <ele>1695.2</ele>
        <time>2022-08-20T16:43:55Z</time>
      </trkpt>
      <trkpt lat="25.4545640" lon="-100.8334550">
        <ele>1695.2</ele>
        <time>2022-08-20T16:43:56Z</time>
      </trkpt>
      <trkpt lat="25.4545640" lon="-100.8334560">
        <ele>1695.2</ele>
        <time>2022-08-20T16:43:57Z</time>
      </trkpt>
      <trkpt lat="25.4545640" lon="-100.8334560">
        <ele>1695.2</ele>
        <time>2022-08-20T16:43:58Z</time>
      </trkpt>
      <trkpt lat="25.4545640" lon="-100.8334560">
        <ele>1695.2</ele>
        <time>2022-08-20T16:43:59Z</time>
      </trkpt>
      <trkpt lat="25.4545640" lon="-100.8334560">
        <ele>1695.2</ele>
        <time>2022-08-20T16:44:00Z</time>
      </trkpt>
      <trkpt lat="25.4545640" lon="-100.8334560">
        <ele>1695.2</ele>
        <time>2022-08-20T16:44:01Z</time>
      </trkpt>
      <trkpt lat="25.4545640" lon="-100.8334560">
        <ele>1695.2</ele>
        <time>2022-08-20T16:44:02Z</time>
      </trkpt>
      <trkpt lat="25.4545640" lon="-100.8334570">
        <ele>1695.2</ele>
        <time>2022-08-20T16:44:03Z</time>
      </trkpt>
      <trkpt lat="25.4545630" lon="-100.8334570">
        <ele>1695.2</ele>
        <time>2022-08-20T16:44:04Z</time>
      </trkpt>
      <trkpt lat="25.4545630" lon="-100.8334570">
        <ele>1695.2</ele>
        <time>2022-08-20T16:44:05Z</time>
      </trkpt>
      <trkpt lat="25.4545630" lon="-100.8334570">
        <ele>1695.2</ele>
        <time>2022-08-20T16:44:06Z</time>
      </trkpt>
      <trkpt lat="25.4545630" lon="-100.8334570">
        <ele>1695.2</ele>
        <time>2022-08-20T16:44:07Z</time>
      </trkpt>
      <trkpt lat="25.4545630" lon="-100.8334580">
        <ele>1695.2</ele>
        <time>2022-08-20T16:44:08Z</time>
      </trkpt>
      <trkpt lat="25.4545630" lon="-100.8334580">
        <ele>1695.2</ele>
        <time>2022-08-20T16:44:09Z</time>
      </trkpt>
      <trkpt lat="25.4545630" lon="-100.8334580">
        <ele>1695.2</ele>
        <time>2022-08-20T16:44:10Z</time>
      </trkpt>
      <trkpt lat="25.4545630" lon="-100.8334580">
        <ele>1695.2</ele>
        <time>2022-08-20T16:44:11Z</time>
      </trkpt>
      <trkpt lat="25.4545630" lon="-100.8334580">
        <ele>1695.2</ele>
        <time>2022-08-20T16:44:12Z</time>
      </trkpt>
      <trkpt lat="25.4545620" lon="-100.8334580">
        <ele>1695.2</ele>
        <time>2022-08-20T16:44:13Z</time>
      </trkpt>
      <trkpt lat="25.4545620" lon="-100.8334590">
        <ele>1695.2</ele>
        <time>2022-08-20T16:44:14Z</time>
      </trkpt>
      <trkpt lat="25.4545620" lon="-100.8334590">
        <ele>1695.2</ele>
        <time>2022-08-20T16:44:15Z</time>
      </trkpt>
      <trkpt lat="25.4545620" lon="-100.8334590">
        <ele>1695.2</ele>
        <time>2022-08-20T16:44:16Z</time>
      </trkpt>
      <trkpt lat="25.4545620" lon="-100.8334590">
        <ele>1695.2</ele>
        <time>2022-08-20T16:44:17Z</time>
      </trkpt>
      <trkpt lat="25.4545620" lon="-100.8334590">
        <ele>1695.2</ele>
        <time>2022-08-20T16:44:18Z</time>
      </trkpt>
      <trkpt lat="25.4545620" lon="-100.8334590">
        <ele>1695.2</ele>
        <time>2022-08-20T16:44:19Z</time>
      </trkpt>
      <trkpt lat="25.4545620" lon="-100.8334600">
        <ele>1695.2</ele>
        <time>2022-08-20T16:44:20Z</time>
      </trkpt>
      <trkpt lat="25.4545620" lon="-100.8334600">
        <ele>1695.2</ele>
        <time>2022-08-20T16:44:21Z</time>
      </trkpt>
      <trkpt lat="25.4545620" lon="-100.8334600">
        <ele>1695.2</ele>
        <time>2022-08-20T16:44:22Z</time>
      </trkpt>
      <trkpt lat="25.4545610" lon="-100.8334600">
        <ele>1695.2</ele>
        <time>2022-08-20T16:44:23Z</time>
      </trkpt>
      <trkpt lat="25.4545610" lon="-100.8334600">
        <ele>1695.2</ele>
        <time>2022-08-20T16:44:24Z</time>
      </trkpt>
      <trkpt lat="25.4545610" lon="-100.8334610">
        <ele>1695.2</ele>
        <time>2022-08-20T16:44:25Z</time>
      </trkpt>
      <trkpt lat="25.4545610" lon="-100.8334610">
        <ele>1695.2</ele>
        <time>2022-08-20T16:44:26Z</time>
      </trkpt>
      <trkpt lat="25.4545610" lon="-100.8334610">
        <ele>1695.2</ele>
        <time>2022-08-20T16:44:27Z</time>
      </trkpt>
      <trkpt lat="25.4545610" lon="-100.8334610">
        <ele>1695.2</ele>
        <time>2022-08-20T16:44:28Z</time>
      </trkpt>
      <trkpt lat="25.4545610" lon="-100.8334610">
        <ele>1695.2</ele>
        <time>2022-08-20T16:44:29Z</time>
      </trkpt>
      <trkpt lat="25.4545610" lon="-100.8334610">
        <ele>1695.2</ele>
        <time>2022-08-20T16:44:30Z</time>
      </trkpt>
      <trkpt lat="25.4545610" lon="-100.8334620">
        <ele>1695.2</ele>
        <time>2022-08-20T16:44:31Z</time>
      </trkpt>
      <trkpt lat="25.4545600" lon="-100.8334620">
        <ele>1695.2</ele>
        <time>2022-08-20T16:44:32Z</time>
      </trkpt>
      <trkpt lat="25.4545600" lon="-100.8334620">
        <ele>1695.2</ele>
        <time>2022-08-20T16:44:33Z</time>
      </trkpt>
      <trkpt lat="25.4545600" lon="-100.8334620">
        <ele>1695.2</ele>
        <time>2022-08-20T16:44:34Z</time>
      </trkpt>
      <trkpt lat="25.4545600" lon="-100.8334620">
        <ele>1695.2</ele>
        <time>2022-08-20T16:44:35Z</time>
      </trkpt>
      <trkpt lat="25.4545600" lon="-100.8334620">
        <ele>1695.2</ele>
        <time>2022-08-20T16:44:36Z</time>
      </trkpt>
      <trkpt lat="25.4545600" lon="-100.8334630">
        <ele>1695.2</ele>
        <time>2022-08-20T16:44:37Z</time>
      </trkpt>
      <trkpt lat="25.4545600" lon="-100.8334630">
        <ele>1695.2</ele>
        <time>2022-08-20T16:44:38Z</time>
      </trkpt>
      <trkpt lat="25.4545600" lon="-100.8334630">
        <ele>1695.2</ele>
        <time>2022-08-20T16:44:39Z</time>
      </trkpt>
      <trkpt lat="25.4545600" lon="-100.8334630">
        <ele>1695.2</ele>
        <time>2022-08-20T16:44:40Z</time>
      </trkpt>
      <trkpt lat="25.4545600" lon="-100.8334630">
        <ele>1695.2</ele>
        <time>2022-08-20T16:44:41Z</time>
      </trkpt>
      <trkpt lat="25.4545590" lon="-100.8334630">
        <ele>1695.2</ele>
        <time>2022-08-20T16:44:42Z</time>
      </trkpt>
      <trkpt lat="25.4545590" lon="-100.8334640">
        <ele>1695.2</ele>
        <time>2022-08-20T16:44:43Z</time>
      </trkpt>
      <trkpt lat="25.4545590" lon="-100.8334640">
        <ele>1695.2</ele>
        <time>2022-08-20T16:44:44Z</time>
      </trkpt>
      <trkpt lat="25.4545590" lon="-100.8334640">
        <ele>1695.2</ele>
        <time>2022-08-20T16:44:45Z</time>
      </trkpt>
      <trkpt lat="25.4545590" lon="-100.8334640">
        <ele>1695.2</ele>
        <time>2022-08-20T16:44:46Z</time>
      </trkpt>
      <trkpt lat="25.4545590" lon="-100.8334640">
        <ele>1695.2</ele>
        <time>2022-08-20T16:44:47Z</time>
      </trkpt>
      <trkpt lat="25.4545590" lon="-100.8334650">
        <ele>1695.2</ele>
        <time>2022-08-20T16:44:48Z</time>
      </trkpt>
      <trkpt lat="25.4545590" lon="-100.8334650">
        <ele>1695.2</ele>
        <time>2022-08-20T16:44:49Z</time>
      </trkpt>
      <trkpt lat="25.4545590" lon="-100.8334650">
        <ele>1695.2</ele>
        <time>2022-08-20T16:44:50Z</time>
      </trkpt>
      <trkpt lat="25.4545580" lon="-100.8334650">
        <ele>1695.2</ele>
        <time>2022-08-20T16:44:51Z</time>
      </trkpt>
      <trkpt lat="25.4545580" lon="-100.8334650">
        <ele>1695.2</ele>
        <time>2022-08-20T16:44:52Z</time>
      </trkpt>
      <trkpt lat="25.4545580" lon="-100.8334650">
        <ele>1695.2</ele>
        <time>2022-08-20T16:44:53Z</time>
      </trkpt>
      <trkpt lat="25.4545580" lon="-100.8334660">
        <ele>1695.2</ele>
        <time>2022-08-20T16:44:54Z</time>
      </trkpt>
      <trkpt lat="25.4545580" lon="-100.8334660">
        <ele>1695.2</ele>
        <time>2022-08-20T16:44:55Z</time>
      </trkpt>
      <trkpt lat="25.4545580" lon="-100.8334660">
        <ele>1695.2</ele>
        <time>2022-08-20T16:44:56Z</time>
      </trkpt>
      <trkpt lat="25.4545580" lon="-100.8334660">
        <ele>1695.2</ele>
        <time>2022-08-20T16:44:57Z</time>
      </trkpt>
      <trkpt lat="25.4545580" lon="-100.8334660">
        <ele>1695.2</ele>
        <time>2022-08-20T16:44:58Z</time>
      </trkpt>
      <trkpt lat="25.4545580" lon="-100.8334660">
        <ele>1695.2</ele>
        <time>2022-08-20T16:44:59Z</time>
      </trkpt>
      <trkpt lat="25.4545580" lon="-100.8334670">
        <ele>1695.2</ele>
        <time>2022-08-20T16:45:00Z</time>
      </trkpt>
      <trkpt lat="25.4545570" lon="-100.8334670">
        <ele>1695.2</ele>
        <time>2022-08-20T16:45:01Z</time>
      </trkpt>
      <trkpt lat="25.4545570" lon="-100.8334670">
        <ele>1695.2</ele>
        <time>2022-08-20T16:45:02Z</time>
      </trkpt>
      <trkpt lat="25.4545570" lon="-100.8334670">
        <ele>1695.2</ele>
        <time>2022-08-20T16:45:03Z</time>
      </trkpt>
      <trkpt lat="25.4545570" lon="-100.8334670">
        <ele>1695.2</ele>
        <time>2022-08-20T16:45:04Z</time>
      </trkpt>
      <trkpt lat="25.4545570" lon="-100.8334680">
        <ele>1695.2</ele>
        <time>2022-08-20T16:45:05Z</time>
      </trkpt>
      <trkpt lat="25.4545570" lon="-100.8334680">
        <ele>1695.2</ele>
        <time>2022-08-20T16:45:06Z</time>
      </trkpt>
      <trkpt lat="25.4545570" lon="-100.8334680">
        <ele>1695.2</ele>
        <time>2022-08-20T16:45:07Z</time>
      </trkpt>
      <trkpt lat="25.4545570" lon="-100.8334680">
        <ele>1695.2</ele>
        <time>2022-08-20T16:45:08Z</time>
      </trkpt>
      <trkpt lat="25.4545570" lon="-100.8334680">
        <ele>1695.2</ele>
        <time>2022-08-20T16:45:09Z</time>
      </trkpt>
      <trkpt lat="25.4545560" lon="-100.8334680">
        <ele>1695.2</ele>
        <time>2022-08-20T16:45:10Z</time>
      </trkpt>
      <trkpt lat="25.4545560" lon="-100.8334690">
        <ele>1695.2</ele>
        <time>2022-08-20T16:45:11Z</time>
      </trkpt>
      <trkpt lat="25.4545560" lon="-100.8334690">
        <ele>1695.2</ele>
        <time>2022-08-20T16:45:12Z</time>
      </trkpt>
      <trkpt lat="25.4545560" lon="-100.8334690">
        <ele>1695.2</ele>
        <time>2022-08-20T16:45:13Z</time>
      </trkpt>
      <trkpt lat="25.4545560" lon="-100.8334690">
        <ele>1695.2</ele>
        <time>2022-08-20T16:45:14Z</time>
      </trkpt>
      <trkpt lat="25.4545560" lon="-100.8334690">
        <ele>1695.2</ele>
        <time>2022-08-20T16:45:15Z</time>
      </trkpt>
      <trkpt lat="25.4545560" lon="-100.8334690">
        <ele>1695.2</ele>
        <time>2022-08-20T16:45:16Z</time>
      </trkpt>
      <trkpt lat="25.4545560" lon="-100.8334700">
        <ele>1695.2</ele>
        <time>2022-08-20T16:45:17Z</time>
      </trkpt>
      <trkpt lat="25.4545560" lon="-100.8334700">
        <ele>1695.2</ele>
        <time>2022-08-20T16:45:18Z</time>
      </trkpt>
      <trkpt lat="25.4545560" lon="-100.8334700">
        <ele>1695.2</ele>
        <time>2022-08-20T16:45:19Z</time>
      </trkpt>
      <trkpt lat="25.4545550" lon="-100.8334700">
        <ele>1695.2</ele>
        <time>2022-08-20T16:45:20Z</time>
      </trkpt>
      <trkpt lat="25.4545550" lon="-100.8334700">
        <ele>1695.2</ele>
        <time>2022-08-20T16:45:21Z</time>
      </trkpt>
      <trkpt lat="25.4545550" lon="-100.8334710">
        <ele>1695.2</ele>
        <time>2022-08-20T16:45:22Z</time>
      </trkpt>
      <trkpt lat="25.4545550" lon="-100.8334710">
        <ele>1695.2</ele>
        <time>2022-08-20T16:45:23Z</time>
      </trkpt>
      <trkpt lat="25.4545550" lon="-100.8334710">
        <ele>1695.2</ele>
        <time>2022-08-20T16:45:24Z</time>
      </trkpt>
      <trkpt lat="25.4545550" lon="-100.8334710">
        <ele>1695.2</ele>
        <time>2022-08-20T16:45:25Z</time>
      </trkpt>
      <trkpt lat="25.4545550" lon="-100.8334710">
        <ele>1695.2</ele>
        <time>2022-08-20T16:45:26Z</time>
      </trkpt>
      <trkpt lat="25.4545550" lon="-100.8334710">
        <ele>1695.2</ele>
        <time>2022-08-20T16:45:27Z</time>
      </trkpt>
      <trkpt lat="25.4545550" lon="-100.8334720">
        <ele>1695.2</ele>
        <time>2022-08-20T16:45:28Z</time>
      </trkpt>
      <trkpt lat="25.4545550" lon="-100.8334720">
        <ele>1695.2</ele>
        <time>2022-08-20T16:45:29Z</time>
      </trkpt>
      <trkpt lat="25.4545540" lon="-100.8334720">
        <ele>1695.2</ele>
        <time>2022-08-20T16:45:30Z</time>
      </trkpt>
      <trkpt lat="25.4545540" lon="-100.8334720">
        <ele>1695.2</ele>
        <time>2022-08-20T16:45:31Z</time>
      </trkpt>
      <trkpt lat="25.4545540" lon="-100.8334720">
        <ele>1695.2</ele>
        <time>2022-08-20T16:45:32Z</time>
      </trkpt>
      <trkpt lat="25.4545540" lon="-100.8334720">
        <ele>1695.2</ele>
        <time>2022-08-20T16:45:33Z</time>
      </trkpt>
      <trkpt lat="25.4545540" lon="-100.8334730">
        <ele>1695.2</ele>
        <time>2022-08-20T16:45:34Z</time>
      </trkpt>
      <trkpt lat="25.4545540" lon="-100.8334730">
        <ele>1695.2</ele>
        <time>2022-08-20T16:45:35Z</time>
      </trkpt>
      <trkpt lat="25.4545540" lon="-100.8334730">
        <ele>1695.2</ele>
        <time>2022-08-20T16:45:36Z</time>
      </trkpt>
      <trkpt lat="25.4545540" lon="-100.8334730">
        <ele>1695.2</ele>
        <time>2022-08-20T16:45:37Z</time>
      </trkpt>
      <trkpt lat="25.4545540" lon="-100.8334730">
        <ele>1695.2</ele>
        <time>2022-08-20T16:45:38Z</time>
      </trkpt>
      <trkpt lat="25.4545530" lon="-100.8334730">
        <ele>1695.2</ele>
        <time>2022-08-20T16:45:39Z</time>
      </trkpt>
      <trkpt lat="25.4545530" lon="-100.8334740">
        <ele>1695.2</ele>
        <time>2022-08-20T16:45:40Z</time>
      </trkpt>
      <trkpt lat="25.4545530" lon="-100.8334740">
        <ele>1695.2</ele>
        <time>2022-08-20T16:45:41Z</time>
      </trkpt>
      <trkpt lat="25.4545530" lon="-100.8334740">
        <ele>1695.2</ele>
        <time>2022-08-20T16:45:42Z</time>
      </trkpt>
      <trkpt lat="25.4545530" lon="-100.8334740">
        <ele>1695.2</ele>
        <time>2022-08-20T16:45:43Z</time>
      </trkpt>
      <trkpt lat="25.4545530" lon="-100.8334740">
        <ele>1695.2</ele>
        <time>2022-08-20T16:45:44Z</time>
      </trkpt>
      <trkpt lat="25.4545530" lon="-100.8334750">
        <ele>1695.2</ele>
        <time>2022-08-20T16:45:45Z</time>
      </trkpt>
      <trkpt lat="25.4545530" lon="-100.8334750">
        <ele>1695.2</ele>
        <time>2022-08-20T16:45:46Z</time>
      </trkpt>
      <trkpt lat="25.4545530" lon="-100.8334750">
        <ele>1695.2</ele>
        <time>2022-08-20T16:45:47Z</time>
      </trkpt>
      <trkpt lat="25.4545530" lon="-100.8334750">
        <ele>1695.2</ele>
        <time>2022-08-20T16:45:48Z</time>
      </trkpt>
      <trkpt lat="25.4545520" lon="-100.8334750">
        <ele>1695.2</ele>
        <time>2022-08-20T16:45:49Z</time>
      </trkpt>
      <trkpt lat="25.4545520" lon="-100.8334750">
        <ele>1695.2</ele>
        <time>2022-08-20T16:45:50Z</time>
      </trkpt>
      <trkpt lat="25.4545520" lon="-100.8334760">
        <ele>1695.2</ele>
        <time>2022-08-20T16:45:51Z</time>
      </trkpt>
      <trkpt lat="25.4545520" lon="-100.8334760">
        <ele>1695.2</ele>
        <time>2022-08-20T16:45:52Z</time>
      </trkpt>
      <trkpt lat="25.4545520" lon="-100.8334760">
        <ele>1695.2</ele>
        <time>2022-08-20T16:45:53Z</time>
      </trkpt>
      <trkpt lat="25.4545520" lon="-100.8334760">
        <ele>1695.2</ele>
        <time>2022-08-20T16:45:54Z</time>
      </trkpt>
      <trkpt lat="25.4545520" lon="-100.8334760">
        <ele>1695.2</ele>
        <time>2022-08-20T16:45:55Z</time>
      </trkpt>
      <trkpt lat="25.4545520" lon="-100.8334760">
        <ele>1695.2</ele>
        <time>2022-08-20T16:45:56Z</time>
      </trkpt>
      <trkpt lat="25.4545520" lon="-100.8334770">
        <ele>1695.2</ele>
        <time>2022-08-20T16:45:57Z</time>
      </trkpt>
      <trkpt lat="25.4545510" lon="-100.8334770">
        <ele>1695.2</ele>
        <time>2022-08-20T16:45:58Z</time>
      </trkpt>
      <trkpt lat="25.4545510" lon="-100.8334770">
        <ele>1695.2</ele>
        <time>2022-08-20T16:45:59Z</time>
      </trkpt>
      <trkpt lat="25.4545510" lon="-100.8334770">
        <ele>1695.2</ele>
        <time>2022-08-20T16:46:00Z</time>
      </trkpt>
      <trkpt lat="25.4545510" lon="-100.8334770">
        <ele>1695.2</ele>
        <time>2022-08-20T16:46:01Z</time>
      </trkpt>
      <trkpt lat="25.4545510" lon="-100.8334780">
        <ele>1695.2</ele>
        <time>2022-08-20T16:46:02Z</time>
      </trkpt>
      <trkpt lat="25.4545510" lon="-100.8334780">
        <ele>1695.2</ele>
        <time>2022-08-20T16:46:03Z</time>
      </trkpt>
      <trkpt lat="25.4545510" lon="-100.8334780">
        <ele>1695.2</ele>
        <time>2022-08-20T16:46:04Z</time>
      </trkpt>
      <trkpt lat="25.4545510" lon="-100.8334780">
        <ele>1695.2</ele>
        <time>2022-08-20T16:46:05Z</time>
      </trkpt>
      <trkpt lat="25.4545510" lon="-100.8334780">
        <ele>1695.2</ele>
        <time>2022-08-20T16:46:06Z</time>
      </trkpt>
      <trkpt lat="25.4545510" lon="-100.8334780">
        <ele>1695.2</ele>
        <time>2022-08-20T16:46:07Z</time>
      </trkpt>
      <trkpt lat="25.4545500" lon="-100.8334790">
        <ele>1695.2</ele>
        <time>2022-08-20T16:46:08Z</time>
      </trkpt>
      <trkpt lat="25.4545500" lon="-100.8334790">
        <ele>1695.2</ele>
        <time>2022-08-20T16:46:09Z</time>
      </trkpt>
      <trkpt lat="25.4545500" lon="-100.8334790">
        <ele>1695.2</ele>
        <time>2022-08-20T16:46:10Z</time>
      </trkpt>
      <trkpt lat="25.4545500" lon="-100.8334790">
        <ele>1695.2</ele>
        <time>2022-08-20T16:46:11Z</time>
      </trkpt>
      <trkpt lat="25.4545500" lon="-100.8334790">
        <ele>1695.2</ele>
        <time>2022-08-20T16:46:12Z</time>
      </trkpt>
      <trkpt lat="25.4545500" lon="-100.8334790">
        <ele>1695.2</ele>
        <time>2022-08-20T16:46:13Z</time>
      </trkpt>
      <trkpt lat="25.4545500" lon="-100.8334800">
        <ele>1695.2</ele>
        <time>2022-08-20T16:46:14Z</time>
      </trkpt>
      <trkpt lat="25.4545500" lon="-100.8334800">
        <ele>1695.2</ele>
        <time>2022-08-20T16:46:15Z</time>
      </trkpt>
      <trkpt lat="25.4545500" lon="-100.8334800">
        <ele>1695.2</ele>
        <time>2022-08-20T16:46:16Z</time>
      </trkpt>
      <trkpt lat="25.4545490" lon="-100.8334800">
        <ele>1695.2</ele>
        <time>2022-08-20T16:46:17Z</time>
      </trkpt>
      <trkpt lat="25.4545490" lon="-100.8334800">
        <ele>1695.2</ele>
        <time>2022-08-20T16:46:18Z</time>
      </trkpt>
      <trkpt lat="25.4545490" lon="-100.8334800">
        <ele>1695.2</ele>
        <time>2022-08-20T16:46:20Z</time>
      </trkpt>
      <trkpt lat="25.4545490" lon="-100.8334810">
        <ele>1695.2</ele>
        <time>2022-08-20T16:46:21Z</time>
      </trkpt>
      <trkpt lat="25.4545490" lon="-100.8334810">
        <ele>1695.2</ele>
        <time>2022-08-20T16:46:22Z</time>
      </trkpt>
      <trkpt lat="25.4545490" lon="-100.8334810">
        <ele>1695.2</ele>
        <time>2022-08-20T16:46:23Z</time>
      </trkpt>
      <trkpt lat="25.4544990" lon="-100.8335310">
        <ele>1695.1</ele>
        <time>2022-08-20T16:46:25Z</time>
      </trkpt>
      <trkpt lat="25.4544380" lon="-100.8335920">
        <ele>1695.1</ele>
        <time>2022-08-20T16:46:26Z</time>
      </trkpt>
      <trkpt lat="25.4543930" lon="-100.8336290">
        <ele>1695.0</ele>
        <time>2022-08-20T16:46:28Z</time>
      </trkpt>
      <trkpt lat="25.4543560" lon="-100.8336570">
        <ele>1694.9</ele>
        <time>2022-08-20T16:46:29Z</time>
      </trkpt>
      <trkpt lat="25.4543140" lon="-100.8336800">
        <ele>1694.7</ele>
        <time>2022-08-20T16:46:30Z</time>
      </trkpt>
      <trkpt lat="25.4542770" lon="-100.8337040">
        <ele>1694.6</ele>
        <time>2022-08-20T16:46:31Z</time>
      </trkpt>
      <trkpt lat="25.4542220" lon="-100.8337420">
        <ele>1694.4</ele>
        <time>2022-08-20T16:46:32Z</time>
      </trkpt>
      <trkpt lat="25.4540180" lon="-100.8338780">
        <ele>1693.5</ele>
        <time>2022-08-20T16:46:33Z</time>
      </trkpt>
      <trkpt lat="25.4539860" lon="-100.8338980">
        <ele>1693.3</ele>
        <time>2022-08-20T16:46:34Z</time>
      </trkpt>
      <trkpt lat="25.4539350" lon="-100.8339300">
        <ele>1693.0</ele>
        <time>2022-08-20T16:46:35Z</time>
      </trkpt>
      <trkpt lat="25.4538850" lon="-100.8339600">
        <ele>1692.7</ele>
        <time>2022-08-20T16:46:36Z</time>
      </trkpt>
      <trkpt lat="25.4538350" lon="-100.8339910">
        <ele>1692.3</ele>
        <time>2022-08-20T16:46:37Z</time>
      </trkpt>
      <trkpt lat="25.4537830" lon="-100.8340240">
        <ele>1691.9</ele>
        <time>2022-08-20T16:46:38Z</time>
      </trkpt>
      <trkpt lat="25.4537290" lon="-100.8340580">
        <ele>1691.5</ele>
        <time>2022-08-20T16:46:39Z</time>
      </trkpt>
      <trkpt lat="25.4536740" lon="-100.8340910">
        <ele>1691.0</ele>
        <time>2022-08-20T16:46:40Z</time>
      </trkpt>
      <trkpt lat="25.4536160" lon="-100.8341260">
        <ele>1690.5</ele>
        <time>2022-08-20T16:46:41Z</time>
      </trkpt>
      <trkpt lat="25.4535560" lon="-100.8341620">
        <ele>1689.9</ele>
        <time>2022-08-20T16:46:42Z</time>
      </trkpt>
      <trkpt lat="25.4534910" lon="-100.8342020">
        <ele>1689.3</ele>
        <time>2022-08-20T16:46:43Z</time>
      </trkpt>
      <trkpt lat="25.4534240" lon="-100.8342460">
        <ele>1688.7</ele>
        <time>2022-08-20T16:46:44Z</time>
      </trkpt>
      <trkpt lat="25.4533550" lon="-100.8342920">
        <ele>1688.0</ele>
        <time>2022-08-20T16:46:45Z</time>
      </trkpt>
      <trkpt lat="25.4532840" lon="-100.8343400">
        <ele>1687.4</ele>
        <time>2022-08-20T16:46:46Z</time>
      </trkpt>
      <trkpt lat="25.4532110" lon="-100.8343890">
        <ele>1686.8</ele>
        <time>2022-08-20T16:46:47Z</time>
      </trkpt>
      <trkpt lat="25.4531330" lon="-100.8344400">
        <ele>1686.2</ele>
        <time>2022-08-20T16:46:48Z</time>
      </trkpt>
      <trkpt lat="25.4530530" lon="-100.8344900">
        <ele>1685.7</ele>
        <time>2022-08-20T16:46:49Z</time>
      </trkpt>
      <trkpt lat="25.4529730" lon="-100.8345400">
        <ele>1685.3</ele>
        <time>2022-08-20T16:46:50Z</time>
      </trkpt>
      <trkpt lat="25.4528940" lon="-100.8345910">
        <ele>1685.0</ele>
        <time>2022-08-20T16:46:51Z</time>
      </trkpt>
      <trkpt lat="25.4528150" lon="-100.8346420">
        <ele>1684.7</ele>
        <time>2022-08-20T16:46:52Z</time>
      </trkpt>
      <trkpt lat="25.4527360" lon="-100.8346930">
        <ele>1684.6</ele>
        <time>2022-08-20T16:46:53Z</time>
      </trkpt>
      <trkpt lat="25.4526600" lon="-100.8347440">
        <ele>1684.4</ele>
        <time>2022-08-20T16:46:54Z</time>
      </trkpt>
      <trkpt lat="25.4525850" lon="-100.8347930">
        <ele>1684.4</ele>
        <time>2022-08-20T16:46:55Z</time>
      </trkpt>
      <trkpt lat="25.4525130" lon="-100.8348410">
        <ele>1684.4</ele>
        <time>2022-08-20T16:46:56Z</time>
      </trkpt>
      <trkpt lat="25.4524440" lon="-100.8348880">
        <ele>1684.4</ele>
        <time>2022-08-20T16:46:57Z</time>
      </trkpt>
      <trkpt lat="25.4523770" lon="-100.8349310">
        <ele>1684.4</ele>
        <time>2022-08-20T16:46:58Z</time>
      </trkpt>
      <trkpt lat="25.4523130" lon="-100.8349730">
        <ele>1684.4</ele>
        <time>2022-08-20T16:46:59Z</time>
      </trkpt>
      <trkpt lat="25.4522510" lon="-100.8350140">
        <ele>1684.4</ele>
        <time>2022-08-20T16:47:00Z</time>
      </trkpt>
      <trkpt lat="25.4521910" lon="-100.8350530">
        <ele>1684.5</ele>
        <time>2022-08-20T16:47:01Z</time>
      </trkpt>
      <trkpt lat="25.4521320" lon="-100.8350910">
        <ele>1684.5</ele>
        <time>2022-08-20T16:47:02Z</time>
      </trkpt>
      <trkpt lat="25.4520750" lon="-100.8351270">
        <ele>1684.5</ele>
        <time>2022-08-20T16:47:03Z</time>
      </trkpt>
      <trkpt lat="25.4520150" lon="-100.8351640">
        <ele>1684.6</ele>
        <time>2022-08-20T16:47:04Z</time>
      </trkpt>
      <trkpt lat="25.4519550" lon="-100.8352030">
        <ele>1684.6</ele>
        <time>2022-08-20T16:47:05Z</time>
      </trkpt>
      <trkpt lat="25.4518960" lon="-100.8352430">
        <ele>1684.6</ele>
        <time>2022-08-20T16:47:06Z</time>
      </trkpt>
      <trkpt lat="25.4518390" lon="-100.8352840">
        <ele>1684.7</ele>
        <time>2022-08-20T16:47:07Z</time>
      </trkpt>
      <trkpt lat="25.4517810" lon="-100.8353220">
        <ele>1684.7</ele>
        <time>2022-08-20T16:47:08Z</time>
      </trkpt>
      <trkpt lat="25.4517240" lon="-100.8353580">
        <ele>1684.7</ele>
        <time>2022-08-20T16:47:09Z</time>
      </trkpt>
      <trkpt lat="25.4516660" lon="-100.8353940">
        <ele>1684.7</ele>
        <time>2022-08-20T16:47:10Z</time>
      </trkpt>
      <trkpt lat="25.4516090" lon="-100.8354320">
        <ele>1684.7</ele>
        <time>2022-08-20T16:47:11Z</time>
      </trkpt>
      <trkpt lat="25.4515550" lon="-100.8354680">
        <ele>1684.7</ele>
        <time>2022-08-20T16:47:12Z</time>
      </trkpt>
      <trkpt lat="25.4515000" lon="-100.8355050">
        <ele>1684.7</ele>
        <time>2022-08-20T16:47:13Z</time>
      </trkpt>
      <trkpt lat="25.4514450" lon="-100.8355410">
        <ele>1684.7</ele>
        <time>2022-08-20T16:47:14Z</time>
      </trkpt>
      <trkpt lat="25.4513890" lon="-100.8355760">
        <ele>1684.7</ele>
        <time>2022-08-20T16:47:15Z</time>
      </trkpt>
      <trkpt lat="25.4513320" lon="-100.8356120">
        <ele>1684.7</ele>
        <time>2022-08-20T16:47:16Z</time>
      </trkpt>
      <trkpt lat="25.4512750" lon="-100.8356470">
        <ele>1684.7</ele>
        <time>2022-08-20T16:47:17Z</time>
      </trkpt>
      <trkpt lat="25.4512180" lon="-100.8356840">
        <ele>1684.6</ele>
        <time>2022-08-20T16:47:18Z</time>
      </trkpt>
      <trkpt lat="25.4511600" lon="-100.8357210">
        <ele>1684.6</ele>
        <time>2022-08-20T16:47:19Z</time>
      </trkpt>
      <trkpt lat="25.4510990" lon="-100.8357590">
        <ele>1684.6</ele>
        <time>2022-08-20T16:47:20Z</time>
      </trkpt>
      <trkpt lat="25.4510390" lon="-100.8357960">
        <ele>1684.5</ele>
        <time>2022-08-20T16:47:21Z</time>
      </trkpt>
      <trkpt lat="25.4509790" lon="-100.8358360">
        <ele>1684.5</ele>
        <time>2022-08-20T16:47:22Z</time>
      </trkpt>
      <trkpt lat="25.4509210" lon="-100.8358780">
        <ele>1684.5</ele>
        <time>2022-08-20T16:47:23Z</time>
      </trkpt>
      <trkpt lat="25.4508660" lon="-100.8359200">
        <ele>1684.4</ele>
        <time>2022-08-20T16:47:24Z</time>
      </trkpt>
      <trkpt lat="25.4508110" lon="-100.8359610">
        <ele>1684.4</ele>
        <time>2022-08-20T16:47:25Z</time>
      </trkpt>
      <trkpt lat="25.4507560" lon="-100.8360000">
        <ele>1684.4</ele>
        <time>2022-08-20T16:47:26Z</time>
      </trkpt>
      <trkpt lat="25.4507000" lon="-100.8360380">
        <ele>1684.4</ele>
        <time>2022-08-20T16:47:27Z</time>
      </trkpt>
      <trkpt lat="25.4506430" lon="-100.8360730">
        <ele>1684.4</ele>
        <time>2022-08-20T16:47:28Z</time>
      </trkpt>
      <trkpt lat="25.4505870" lon="-100.8361060">
        <ele>1684.4</ele>
        <time>2022-08-20T16:47:29Z</time>
      </trkpt>
      <trkpt lat="25.4505310" lon="-100.8361420">
        <ele>1684.4</ele>
        <time>2022-08-20T16:47:30Z</time>
      </trkpt>
      <trkpt lat="25.4504750" lon="-100.8361790">
        <ele>1684.3</ele>
        <time>2022-08-20T16:47:31Z</time>
      </trkpt>
      <trkpt lat="25.4504220" lon="-100.8362200">
        <ele>1684.3</ele>
        <time>2022-08-20T16:47:32Z</time>
      </trkpt>
      <trkpt lat="25.4503730" lon="-100.8362670">
        <ele>1684.2</ele>
        <time>2022-08-20T16:47:33Z</time>
      </trkpt>
      <trkpt lat="25.4503290" lon="-100.8363200">
        <ele>1684.1</ele>
        <time>2022-08-20T16:47:34Z</time>
      </trkpt>
      <trkpt lat="25.4502910" lon="-100.8363800">
        <ele>1683.9</ele>
        <time>2022-08-20T16:47:35Z</time>
      </trkpt>
      <trkpt lat="25.4502570" lon="-100.8364440">
        <ele>1683.6</ele>
        <time>2022-08-20T16:47:36Z</time>
      </trkpt>
      <trkpt lat="25.4502270" lon="-100.8365100">
        <ele>1683.2</ele>
        <time>2022-08-20T16:47:37Z</time>
      </trkpt>
      <trkpt lat="25.4501970" lon="-100.8365760">
        <ele>1682.8</ele>
        <time>2022-08-20T16:47:38Z</time>
      </trkpt>
      <trkpt lat="25.4501650" lon="-100.8366440">
        <ele>1682.2</ele>
        <time>2022-08-20T16:47:39Z</time>
      </trkpt>
      <trkpt lat="25.4501300" lon="-100.8367160">
        <ele>1681.4</ele>
        <time>2022-08-20T16:47:40Z</time>
      </trkpt>
      <trkpt lat="25.4500890" lon="-100.8367960">
        <ele>1680.5</ele>
        <time>2022-08-20T16:47:41Z</time>
      </trkpt>
      <trkpt lat="25.4500430" lon="-100.8368820">
        <ele>1679.7</ele>
        <time>2022-08-20T16:47:42Z</time>
      </trkpt>
      <trkpt lat="25.4499930" lon="-100.8369730">
        <ele>1679.0</ele>
        <time>2022-08-20T16:47:43Z</time>
      </trkpt>
      <trkpt lat="25.4499400" lon="-100.8370670">
        <ele>1678.4</ele>
        <time>2022-08-20T16:47:44Z</time>
      </trkpt>
      <trkpt lat="25.4498840" lon="-100.8371650">
        <ele>1677.9</ele>
        <time>2022-08-20T16:47:45Z</time>
      </trkpt>
      <trkpt lat="25.4498260" lon="-100.8372620">
        <ele>1677.5</ele>
        <time>2022-08-20T16:47:46Z</time>
      </trkpt>
      <trkpt lat="25.4497680" lon="-100.8373570">
        <ele>1677.2</ele>
        <time>2022-08-20T16:47:47Z</time>
      </trkpt>
      <trkpt lat="25.4497120" lon="-100.8374510">
        <ele>1677.0</ele>
        <time>2022-08-20T16:47:48Z</time>
      </trkpt>
      <trkpt lat="25.4496580" lon="-100.8375410">
        <ele>1676.8</ele>
        <time>2022-08-20T16:47:49Z</time>
      </trkpt>
      <trkpt lat="25.4496060" lon="-100.8376260">
        <ele>1676.6</ele>
        <time>2022-08-20T16:47:50Z</time>
      </trkpt>
      <trkpt lat="25.4495550" lon="-100.8377090">
        <ele>1676.4</ele>
        <time>2022-08-20T16:47:51Z</time>
      </trkpt>
      <trkpt lat="25.4495080" lon="-100.8377900">
        <ele>1676.3</ele>
        <time>2022-08-20T16:47:52Z</time>
      </trkpt>
      <trkpt lat="25.4494630" lon="-100.8378700">
        <ele>1676.1</ele>
        <time>2022-08-20T16:47:53Z</time>
      </trkpt>
      <trkpt lat="25.4494200" lon="-100.8379490">
        <ele>1676.0</ele>
        <time>2022-08-20T16:47:54Z</time>
      </trkpt>
      <trkpt lat="25.4493780" lon="-100.8380270">
        <ele>1675.9</ele>
        <time>2022-08-20T16:47:55Z</time>
      </trkpt>
      <trkpt lat="25.4493360" lon="-100.8381020">
        <ele>1675.8</ele>
        <time>2022-08-20T16:47:56Z</time>
      </trkpt>
      <trkpt lat="25.4492940" lon="-100.8381770">
        <ele>1675.7</ele>
        <time>2022-08-20T16:47:57Z</time>
      </trkpt>
      <trkpt lat="25.4492510" lon="-100.8382510">
        <ele>1675.5</ele>
        <time>2022-08-20T16:47:58Z</time>
      </trkpt>
      <trkpt lat="25.4492050" lon="-100.8383260">
        <ele>1675.4</ele>
        <time>2022-08-20T16:47:59Z</time>
      </trkpt>
      <trkpt lat="25.4491590" lon="-100.8383990">
        <ele>1675.2</ele>
        <time>2022-08-20T16:48:00Z</time>
      </trkpt>
      <trkpt lat="25.4491140" lon="-100.8384740">
        <ele>1675.1</ele>
        <time>2022-08-20T16:48:01Z</time>
      </trkpt>
      <trkpt lat="25.4490720" lon="-100.8385480">
        <ele>1675.0</ele>
        <time>2022-08-20T16:48:02Z</time>
      </trkpt>
      <trkpt lat="25.4490330" lon="-100.8386230">
        <ele>1674.9</ele>
        <time>2022-08-20T16:48:03Z</time>
      </trkpt>
      <trkpt lat="25.4489930" lon="-100.8386960">
        <ele>1674.8</ele>
        <time>2022-08-20T16:48:04Z</time>
      </trkpt>
      <trkpt lat="25.4489520" lon="-100.8387680">
        <ele>1674.7</ele>
        <time>2022-08-20T16:48:05Z</time>
      </trkpt>
      <trkpt lat="25.4489090" lon="-100.8388380">
        <ele>1674.6</ele>
        <time>2022-08-20T16:48:06Z</time>
      </trkpt>
      <trkpt lat="25.4488630" lon="-100.8389060">
        <ele>1674.6</ele>
        <time>2022-08-20T16:48:07Z</time>
      </trkpt>
      <trkpt lat="25.4488180" lon="-100.8389720">
        <ele>1674.6</ele>
        <time>2022-08-20T16:48:08Z</time>
      </trkpt>
      <trkpt lat="25.4487740" lon="-100.8390360">
        <ele>1674.7</ele>
        <time>2022-08-20T16:48:09Z</time>
      </trkpt>
      <trkpt lat="25.4487320" lon="-100.8390950">
        <ele>1674.8</ele>
        <time>2022-08-20T16:48:10Z</time>
      </trkpt>
      <trkpt lat="25.4486920" lon="-100.8391520">
        <ele>1674.9</ele>
        <time>2022-08-20T16:48:11Z</time>
      </trkpt>
      <trkpt lat="25.4486530" lon="-100.8392080">
        <ele>1675.0</ele>
        <time>2022-08-20T16:48:12Z</time>
      </trkpt>
      <trkpt lat="25.4486190" lon="-100.8392670">
        <ele>1675.1</ele>
        <time>2022-08-20T16:48:13Z</time>
      </trkpt>
      <trkpt lat="25.4485900" lon="-100.8393290">
        <ele>1675.3</ele>
        <time>2022-08-20T16:48:14Z</time>
      </trkpt>
      <trkpt lat="25.4485630" lon="-100.8393950">
        <ele>1675.5</ele>
        <time>2022-08-20T16:48:15Z</time>
      </trkpt>
      <trkpt lat="25.4485400" lon="-100.8394590">
        <ele>1675.7</ele>
        <time>2022-08-20T16:48:16Z</time>
      </trkpt>
      <trkpt lat="25.4485180" lon="-100.8395200">
        <ele>1676.0</ele>
        <time>2022-08-20T16:48:17Z</time>
      </trkpt>
      <trkpt lat="25.4484970" lon="-100.8395760">
        <ele>1676.3</ele>
        <time>2022-08-20T16:48:18Z</time>
      </trkpt>
      <trkpt lat="25.4484800" lon="-100.8396250">
        <ele>1676.6</ele>
        <time>2022-08-20T16:48:19Z</time>
      </trkpt>
      <trkpt lat="25.4484650" lon="-100.8396670">
        <ele>1676.9</ele>
        <time>2022-08-20T16:48:20Z</time>
      </trkpt>
      <trkpt lat="25.4484570" lon="-100.8396970">
        <ele>1677.1</ele>
        <time>2022-08-20T16:48:21Z</time>
      </trkpt>
      <trkpt lat="25.4484490" lon="-100.8397330">
        <ele>1677.4</ele>
        <time>2022-08-20T16:48:22Z</time>
      </trkpt>
      <trkpt lat="25.4484420" lon="-100.8397750">
        <ele>1677.6</ele>
        <time>2022-08-20T16:48:23Z</time>
      </trkpt>
      <trkpt lat="25.4484390" lon="-100.8398100">
        <ele>1677.9</ele>
        <time>2022-08-20T16:48:24Z</time>
      </trkpt>
      <trkpt lat="25.4484370" lon="-100.8398530">
        <ele>1678.1</ele>
        <time>2022-08-20T16:48:25Z</time>
      </trkpt>
      <trkpt lat="25.4484380" lon="-100.8398870">
        <ele>1678.3</ele>
        <time>2022-08-20T16:48:26Z</time>
      </trkpt>
      <trkpt lat="25.4484420" lon="-100.8399290">
        <ele>1678.6</ele>
        <time>2022-08-20T16:48:27Z</time>
      </trkpt>
      <trkpt lat="25.4484490" lon="-100.8399840">
        <ele>1678.9</ele>
        <time>2022-08-20T16:48:28Z</time>
      </trkpt>
      <trkpt lat="25.4484480" lon="-100.8400430">
        <ele>1679.2</ele>
        <time>2022-08-20T16:48:29Z</time>
      </trkpt>
      <trkpt lat="25.4484480" lon="-100.8401010">
        <ele>1679.4</ele>
        <time>2022-08-20T16:48:30Z</time>
      </trkpt>
      <trkpt lat="25.4484520" lon="-100.8401560">
        <ele>1679.7</ele>
        <time>2022-08-20T16:48:31Z</time>
      </trkpt>
      <trkpt lat="25.4484570" lon="-100.8402080">
        <ele>1679.9</ele>
        <time>2022-08-20T16:48:32Z</time>
      </trkpt>
      <trkpt lat="25.4484620" lon="-100.8402580">
        <ele>1680.0</ele>
        <time>2022-08-20T16:48:33Z</time>
      </trkpt>
      <trkpt lat="25.4484650" lon="-100.8403090">
        <ele>1680.2</ele>
        <time>2022-08-20T16:48:34Z</time>
      </trkpt>
      <trkpt lat="25.4484860" lon="-100.8403380">
        <ele>1680.3</ele>
        <time>2022-08-20T16:48:35Z</time>
      </trkpt>
      <trkpt lat="25.4484870" lon="-100.8403980">
        <ele>1680.5</ele>
        <time>2022-08-20T16:48:36Z</time>
      </trkpt>
      <trkpt lat="25.4484750" lon="-100.8404600">
        <ele>1680.7</ele>
        <time>2022-08-20T16:48:37Z</time>
      </trkpt>
      <trkpt lat="25.4484480" lon="-100.8405260">
        <ele>1680.8</ele>
        <time>2022-08-20T16:48:39Z</time>
      </trkpt>
      <trkpt lat="25.4484270" lon="-100.8405660">
        <ele>1680.9</ele>
        <time>2022-08-20T16:48:40Z</time>
      </trkpt>
      <trkpt lat="25.4483870" lon="-100.8406380">
        <ele>1681.1</ele>
        <time>2022-08-20T16:48:41Z</time>
      </trkpt>
      <trkpt lat="25.4483680" lon="-100.8406810">
        <ele>1681.1</ele>
        <time>2022-08-20T16:48:43Z</time>
      </trkpt>
      <trkpt lat="25.4483540" lon="-100.8407370">
        <ele>1681.1</ele>
        <time>2022-08-20T16:48:44Z</time>
      </trkpt>
      <trkpt lat="25.4483410" lon="-100.8408350">
        <ele>1681.1</ele>
        <time>2022-08-20T16:48:46Z</time>
      </trkpt>
      <trkpt lat="25.4483350" lon="-100.8408920">
        <ele>1681.0</ele>
        <time>2022-08-20T16:48:47Z</time>
      </trkpt>
      <trkpt lat="25.4483300" lon="-100.8409490">
        <ele>1680.9</ele>
        <time>2022-08-20T16:48:48Z</time>
      </trkpt>
      <trkpt lat="25.4483280" lon="-100.8410070">
        <ele>1680.9</ele>
        <time>2022-08-20T16:48:49Z</time>
      </trkpt>
      <trkpt lat="25.4483270" lon="-100.8410630">
        <ele>1680.8</ele>
        <time>2022-08-20T16:48:50Z</time>
      </trkpt>
      <trkpt lat="25.4483280" lon="-100.8411160">
        <ele>1680.7</ele>
        <time>2022-08-20T16:48:51Z</time>
      </trkpt>
      <trkpt lat="25.4483300" lon="-100.8411750">
        <ele>1680.7</ele>
        <time>2022-08-20T16:48:52Z</time>
      </trkpt>
      <trkpt lat="25.4483340" lon="-100.8412410">
        <ele>1680.6</ele>
        <time>2022-08-20T16:48:53Z</time>
      </trkpt>
      <trkpt lat="25.4483350" lon="-100.8413070">
        <ele>1680.5</ele>
        <time>2022-08-20T16:48:54Z</time>
      </trkpt>
      <trkpt lat="25.4483380" lon="-100.8413700">
        <ele>1680.5</ele>
        <time>2022-08-20T16:48:55Z</time>
      </trkpt>
      <trkpt lat="25.4483410" lon="-100.8414300">
        <ele>1680.4</ele>
        <time>2022-08-20T16:48:56Z</time>
      </trkpt>
      <trkpt lat="25.4483450" lon="-100.8414890">
        <ele>1680.4</ele>
        <time>2022-08-20T16:48:57Z</time>
      </trkpt>
      <trkpt lat="25.4483490" lon="-100.8415480">
        <ele>1680.3</ele>
        <time>2022-08-20T16:48:58Z</time>
      </trkpt>
      <trkpt lat="25.4483530" lon="-100.8416090">
        <ele>1680.3</ele>
        <time>2022-08-20T16:48:59Z</time>
      </trkpt>
      <trkpt lat="25.4483560" lon="-100.8416700">
        <ele>1680.2</ele>
        <time>2022-08-20T16:49:00Z</time>
      </trkpt>
      <trkpt lat="25.4483600" lon="-100.8417280">
        <ele>1680.2</ele>
        <time>2022-08-20T16:49:01Z</time>
      </trkpt>
      <trkpt lat="25.4483650" lon="-100.8417850">
        <ele>1680.1</ele>
        <time>2022-08-20T16:49:02Z</time>
      </trkpt>
      <trkpt lat="25.4483720" lon="-100.8418420">
        <ele>1680.1</ele>
        <time>2022-08-20T16:49:03Z</time>
      </trkpt>
      <trkpt lat="25.4483780" lon="-100.8419030">
        <ele>1680.0</ele>
        <time>2022-08-20T16:49:04Z</time>
      </trkpt>
      <trkpt lat="25.4483840" lon="-100.8419680">
        <ele>1679.9</ele>
        <time>2022-08-20T16:49:05Z</time>
      </trkpt>
      <trkpt lat="25.4483890" lon="-100.8420330">
        <ele>1679.8</ele>
        <time>2022-08-20T16:49:06Z</time>
      </trkpt>
      <trkpt lat="25.4483980" lon="-100.8420980">
        <ele>1679.7</ele>
        <time>2022-08-20T16:49:07Z</time>
      </trkpt>
      <trkpt lat="25.4484080" lon="-100.8421600">
        <ele>1679.6</ele>
        <time>2022-08-20T16:49:08Z</time>
      </trkpt>
      <trkpt lat="25.4484180" lon="-100.8422230">
        <ele>1679.5</ele>
        <time>2022-08-20T16:49:09Z</time>
      </trkpt>
      <trkpt lat="25.4484300" lon="-100.8422850">
        <ele>1679.3</ele>
        <time>2022-08-20T16:49:10Z</time>
      </trkpt>
      <trkpt lat="25.4484420" lon="-100.8423490">
        <ele>1679.2</ele>
        <time>2022-08-20T16:49:11Z</time>
      </trkpt>
      <trkpt lat="25.4484560" lon="-100.8424120">
        <ele>1679.1</ele>
        <time>2022-08-20T16:49:12Z</time>
      </trkpt>
      <trkpt lat="25.4484700" lon="-100.8424810">
        <ele>1679.0</ele>
        <time>2022-08-20T16:49:13Z</time>
      </trkpt>
      <trkpt lat="25.4484830" lon="-100.8425520">
        <ele>1678.8</ele>
        <time>2022-08-20T16:49:14Z</time>
      </trkpt>
      <trkpt lat="25.4484970" lon="-100.8426200">
        <ele>1678.7</ele>
        <time>2022-08-20T16:49:15Z</time>
      </trkpt>
      <trkpt lat="25.4485140" lon="-100.8426860">
        <ele>1678.5</ele>
        <time>2022-08-20T16:49:16Z</time>
      </trkpt>
      <trkpt lat="25.4485320" lon="-100.8427500">
        <ele>1678.4</ele>
        <time>2022-08-20T16:49:17Z</time>
      </trkpt>
      <trkpt lat="25.4485470" lon="-100.8428140">
        <ele>1678.3</ele>
        <time>2022-08-20T16:49:18Z</time>
      </trkpt>
      <trkpt lat="25.4485610" lon="-100.8428770">
        <ele>1678.2</ele>
        <time>2022-08-20T16:49:19Z</time>
      </trkpt>
      <trkpt lat="25.4485760" lon="-100.8429390">
        <ele>1678.1</ele>
        <time>2022-08-20T16:49:20Z</time>
      </trkpt>
      <trkpt lat="25.4485910" lon="-100.8430010">
        <ele>1678.1</ele>
        <time>2022-08-20T16:49:21Z</time>
      </trkpt>
      <trkpt lat="25.4486060" lon="-100.8430620">
        <ele>1678.0</ele>
        <time>2022-08-20T16:49:22Z</time>
      </trkpt>
      <trkpt lat="25.4486200" lon="-100.8431290">
        <ele>1677.9</ele>
        <time>2022-08-20T16:49:23Z</time>
      </trkpt>
      <trkpt lat="25.4486330" lon="-100.8431970">
        <ele>1677.9</ele>
        <time>2022-08-20T16:49:24Z</time>
      </trkpt>
      <trkpt lat="25.4486450" lon="-100.8432670">
        <ele>1677.8</ele>
        <time>2022-08-20T16:49:25Z</time>
      </trkpt>
      <trkpt lat="25.4486590" lon="-100.8433380">
        <ele>1677.7</ele>
        <time>2022-08-20T16:49:26Z</time>
      </trkpt>
      <trkpt lat="25.4486700" lon="-100.8434060">
        <ele>1677.6</ele>
        <time>2022-08-20T16:49:27Z</time>
      </trkpt>
      <trkpt lat="25.4486800" lon="-100.8434740">
        <ele>1677.6</ele>
        <time>2022-08-20T16:49:28Z</time>
      </trkpt>
      <trkpt lat="25.4486910" lon="-100.8435400">
        <ele>1677.5</ele>
        <time>2022-08-20T16:49:29Z</time>
      </trkpt>
      <trkpt lat="25.4487000" lon="-100.8436080">
        <ele>1677.5</ele>
        <time>2022-08-20T16:49:30Z</time>
      </trkpt>
      <trkpt lat="25.4487120" lon="-100.8436840">
        <ele>1677.4</ele>
        <time>2022-08-20T16:49:31Z</time>
      </trkpt>
      <trkpt lat="25.4487270" lon="-100.8437650">
        <ele>1677.4</ele>
        <time>2022-08-20T16:49:32Z</time>
      </trkpt>
      <trkpt lat="25.4487420" lon="-100.8438490">
        <ele>1677.3</ele>
        <time>2022-08-20T16:49:33Z</time>
      </trkpt>
      <trkpt lat="25.4487560" lon="-100.8439320">
        <ele>1677.3</ele>
        <time>2022-08-20T16:49:34Z</time>
      </trkpt>
      <trkpt lat="25.4487700" lon="-100.8440120">
        <ele>1677.3</ele>
        <time>2022-08-20T16:49:35Z</time>
      </trkpt>
      <trkpt lat="25.4487840" lon="-100.8440880">
        <ele>1677.3</ele>
        <time>2022-08-20T16:49:36Z</time>
      </trkpt>
      <trkpt lat="25.4487950" lon="-100.8441630">
        <ele>1677.3</ele>
        <time>2022-08-20T16:49:37Z</time>
      </trkpt>
      <trkpt lat="25.4488040" lon="-100.8442380">
        <ele>1677.3</ele>
        <time>2022-08-20T16:49:38Z</time>
      </trkpt>
      <trkpt lat="25.4488110" lon="-100.8443070">
        <ele>1677.3</ele>
        <time>2022-08-20T16:49:39Z</time>
      </trkpt>
      <trkpt lat="25.4488160" lon="-100.8443730">
        <ele>1677.3</ele>
        <time>2022-08-20T16:49:40Z</time>
      </trkpt>
      <trkpt lat="25.4488230" lon="-100.8444390">
        <ele>1677.3</ele>
        <time>2022-08-20T16:49:41Z</time>
      </trkpt>
      <trkpt lat="25.4488290" lon="-100.8445020">
        <ele>1677.3</ele>
        <time>2022-08-20T16:49:42Z</time>
      </trkpt>
      <trkpt lat="25.4488350" lon="-100.8445630">
        <ele>1677.3</ele>
        <time>2022-08-20T16:49:43Z</time>
      </trkpt>
      <trkpt lat="25.4488390" lon="-100.8446270">
        <ele>1677.3</ele>
        <time>2022-08-20T16:49:44Z</time>
      </trkpt>
      <trkpt lat="25.4488410" lon="-100.8446900">
        <ele>1677.3</ele>
        <time>2022-08-20T16:49:45Z</time>
      </trkpt>
      <trkpt lat="25.4488470" lon="-100.8447540">
        <ele>1677.3</ele>
        <time>2022-08-20T16:49:46Z</time>
      </trkpt>
      <trkpt lat="25.4488530" lon="-100.8448190">
        <ele>1677.4</ele>
        <time>2022-08-20T16:49:47Z</time>
      </trkpt>
      <trkpt lat="25.4488590" lon="-100.8448890">
        <ele>1677.4</ele>
        <time>2022-08-20T16:49:48Z</time>
      </trkpt>
      <trkpt lat="25.4488680" lon="-100.8449560">
        <ele>1677.4</ele>
        <time>2022-08-20T16:49:49Z</time>
      </trkpt>
      <trkpt lat="25.4488800" lon="-100.8450230">
        <ele>1677.5</ele>
        <time>2022-08-20T16:49:50Z</time>
      </trkpt>
      <trkpt lat="25.4488920" lon="-100.8450860">
        <ele>1677.6</ele>
        <time>2022-08-20T16:49:51Z</time>
      </trkpt>
      <trkpt lat="25.4489050" lon="-100.8451490">
        <ele>1677.6</ele>
        <time>2022-08-20T16:49:52Z</time>
      </trkpt>
      <trkpt lat="25.4489200" lon="-100.8452130">
        <ele>1677.7</ele>
        <time>2022-08-20T16:49:53Z</time>
      </trkpt>
      <trkpt lat="25.4489360" lon="-100.8452730">
        <ele>1677.8</ele>
        <time>2022-08-20T16:49:54Z</time>
      </trkpt>
      <trkpt lat="25.4489500" lon="-100.8453280">
        <ele>1677.8</ele>
        <time>2022-08-20T16:49:55Z</time>
      </trkpt>
      <trkpt lat="25.4489640" lon="-100.8453770">
        <ele>1677.9</ele>
        <time>2022-08-20T16:49:56Z</time>
      </trkpt>
      <trkpt lat="25.4489810" lon="-100.8454270">
        <ele>1677.9</ele>
        <time>2022-08-20T16:49:57Z</time>
      </trkpt>
      <trkpt lat="25.4489970" lon="-100.8454800">
        <ele>1678.0</ele>
        <time>2022-08-20T16:49:58Z</time>
      </trkpt>
      <trkpt lat="25.4490150" lon="-100.8455360">
        <ele>1678.0</ele>
        <time>2022-08-20T16:49:59Z</time>
      </trkpt>
      <trkpt lat="25.4490330" lon="-100.8455920">
        <ele>1678.1</ele>
        <time>2022-08-20T16:50:00Z</time>
      </trkpt>
      <trkpt lat="25.4490510" lon="-100.8456450">
        <ele>1678.2</ele>
        <time>2022-08-20T16:50:01Z</time>
      </trkpt>
      <trkpt lat="25.4490690" lon="-100.8457010">
        <ele>1678.3</ele>
        <time>2022-08-20T16:50:02Z</time>
      </trkpt>
      <trkpt lat="25.4490890" lon="-100.8457560">
        <ele>1678.4</ele>
        <time>2022-08-20T16:50:03Z</time>
      </trkpt>
      <trkpt lat="25.4491080" lon="-100.8458100">
        <ele>1678.5</ele>
        <time>2022-08-20T16:50:04Z</time>
      </trkpt>
      <trkpt lat="25.4491260" lon="-100.8458620">
        <ele>1678.6</ele>
        <time>2022-08-20T16:50:05Z</time>
      </trkpt>
      <trkpt lat="25.4491440" lon="-100.8459140">
        <ele>1678.7</ele>
        <time>2022-08-20T16:50:06Z</time>
      </trkpt>
      <trkpt lat="25.4491580" lon="-100.8459740">
        <ele>1678.8</ele>
        <time>2022-08-20T16:50:07Z</time>
      </trkpt>
      <trkpt lat="25.4491720" lon="-100.8460300">
        <ele>1678.9</ele>
        <time>2022-08-20T16:50:08Z</time>
      </trkpt>
      <trkpt lat="25.4491850" lon="-100.8460870">
        <ele>1679.0</ele>
        <time>2022-08-20T16:50:09Z</time>
      </trkpt>
      <trkpt lat="25.4491980" lon="-100.8461460">
        <ele>1679.1</ele>
        <time>2022-08-20T16:50:10Z</time>
      </trkpt>
      <trkpt lat="25.4492130" lon="-100.8462020">
        <ele>1679.1</ele>
        <time>2022-08-20T16:50:11Z</time>
      </trkpt>
      <trkpt lat="25.4492330" lon="-100.8462570">
        <ele>1679.2</ele>
        <time>2022-08-20T16:50:12Z</time>
      </trkpt>
      <trkpt lat="25.4492560" lon="-100.8463130">
        <ele>1679.3</ele>
        <time>2022-08-20T16:50:13Z</time>
      </trkpt>
      <trkpt lat="25.4492770" lon="-100.8463680">
        <ele>1679.3</ele>
        <time>2022-08-20T16:50:14Z</time>
      </trkpt>
      <trkpt lat="25.4492940" lon="-100.8464230">
        <ele>1679.4</ele>
        <time>2022-08-20T16:50:15Z</time>
      </trkpt>
      <trkpt lat="25.4493070" lon="-100.8464810">
        <ele>1679.5</ele>
        <time>2022-08-20T16:50:16Z</time>
      </trkpt>
      <trkpt lat="25.4493160" lon="-100.8465410">
        <ele>1679.6</ele>
        <time>2022-08-20T16:50:17Z</time>
      </trkpt>
      <trkpt lat="25.4493280" lon="-100.8465970">
        <ele>1679.7</ele>
        <time>2022-08-20T16:50:18Z</time>
      </trkpt>
      <trkpt lat="25.4493420" lon="-100.8466500">
        <ele>1679.8</ele>
        <time>2022-08-20T16:50:19Z</time>
      </trkpt>
      <trkpt lat="25.4493600" lon="-100.8467010">
        <ele>1679.9</ele>
        <time>2022-08-20T16:50:20Z</time>
      </trkpt>
      <trkpt lat="25.4493760" lon="-100.8467470">
        <ele>1680.1</ele>
        <time>2022-08-20T16:50:21Z</time>
      </trkpt>
      <trkpt lat="25.4493880" lon="-100.8467800">
        <ele>1680.1</ele>
        <time>2022-08-20T16:50:22Z</time>
      </trkpt>
      <trkpt lat="25.4494050" lon="-100.8468260">
        <ele>1680.3</ele>
        <time>2022-08-20T16:50:23Z</time>
      </trkpt>
      <trkpt lat="25.4494200" lon="-100.8468670">
        <ele>1680.4</ele>
        <time>2022-08-20T16:50:24Z</time>
      </trkpt>
      <trkpt lat="25.4494400" lon="-100.8469190">
        <ele>1680.6</ele>
        <time>2022-08-20T16:50:25Z</time>
      </trkpt>
      <trkpt lat="25.4494580" lon="-100.8469660">
        <ele>1680.7</ele>
        <time>2022-08-20T16:50:26Z</time>
      </trkpt>
      <trkpt lat="25.4494700" lon="-100.8469980">
        <ele>1680.8</ele>
        <time>2022-08-20T16:50:27Z</time>
      </trkpt>
      <trkpt lat="25.4494850" lon="-100.8470530">
        <ele>1681.0</ele>
        <time>2022-08-20T16:50:28Z</time>
      </trkpt>
      <trkpt lat="25.4494970" lon="-100.8470900">
        <ele>1681.1</ele>
        <time>2022-08-20T16:50:29Z</time>
      </trkpt>
      <trkpt lat="25.4495110" lon="-100.8471330">
        <ele>1681.2</ele>
        <time>2022-08-20T16:50:30Z</time>
      </trkpt>
      <trkpt lat="25.4495270" lon="-100.8471780">
        <ele>1681.3</ele>
        <time>2022-08-20T16:50:31Z</time>
      </trkpt>
      <trkpt lat="25.4495450" lon="-100.8472250">
        <ele>1681.3</ele>
        <time>2022-08-20T16:50:32Z</time>
      </trkpt>
      <trkpt lat="25.4495580" lon="-100.8472630">
        <ele>1681.4</ele>
        <time>2022-08-20T16:50:33Z</time>
      </trkpt>
      <trkpt lat="25.4495430" lon="-100.8473000">
        <ele>1681.5</ele>
        <time>2022-08-20T16:50:34Z</time>
      </trkpt>
      <trkpt lat="25.4495260" lon="-100.8473090">
        <ele>1681.5</ele>
        <time>2022-08-20T16:50:35Z</time>
      </trkpt>
      <trkpt lat="25.4495370" lon="-100.8473610">
        <ele>1681.5</ele>
        <time>2022-08-20T16:50:36Z</time>
      </trkpt>
      <trkpt lat="25.4495680" lon="-100.8474150">
        <ele>1681.6</ele>
        <time>2022-08-20T16:50:37Z</time>
      </trkpt>
      <trkpt lat="25.4496290" lon="-100.8475070">
        <ele>1681.4</ele>
        <time>2022-08-20T16:50:38Z</time>
      </trkpt>
      <trkpt lat="25.4496650" lon="-100.8475620">
        <ele>1681.2</ele>
        <time>2022-08-20T16:50:40Z</time>
      </trkpt>
      <trkpt lat="25.4496820" lon="-100.8476030">
        <ele>1681.2</ele>
        <time>2022-08-20T16:50:41Z</time>
      </trkpt>
      <trkpt lat="25.4496950" lon="-100.8476340">
        <ele>1681.1</ele>
        <time>2022-08-20T16:50:42Z</time>
      </trkpt>
      <trkpt lat="25.4497040" lon="-100.8476660">
        <ele>1681.1</ele>
        <time>2022-08-20T16:50:43Z</time>
      </trkpt>
      <trkpt lat="25.4497100" lon="-100.8476940">
        <ele>1681.1</ele>
        <time>2022-08-20T16:50:44Z</time>
      </trkpt>
      <trkpt lat="25.4497340" lon="-100.8477610">
        <ele>1681.0</ele>
        <time>2022-08-20T16:50:46Z</time>
      </trkpt>
      <trkpt lat="25.4497450" lon="-100.8477820">
        <ele>1681.0</ele>
        <time>2022-08-20T16:50:48Z</time>
      </trkpt>
      <trkpt lat="25.4497570" lon="-100.8478190">
        <ele>1680.9</ele>
        <time>2022-08-20T16:50:49Z</time>
      </trkpt>
      <trkpt lat="25.4497590" lon="-100.8478300">
        <ele>1680.9</ele>
        <time>2022-08-20T16:50:50Z</time>
      </trkpt>
      <trkpt lat="25.4497720" lon="-100.8478580">
        <ele>1680.9</ele>
        <time>2022-08-20T16:50:51Z</time>
      </trkpt>
      <trkpt lat="25.4497780" lon="-100.8478680">
        <ele>1680.9</ele>
        <time>2022-08-20T16:50:52Z</time>
      </trkpt>
      <trkpt lat="25.4497900" lon="-100.8478830">
        <ele>1680.9</ele>
        <time>2022-08-20T16:50:53Z</time>
      </trkpt>
      <trkpt lat="25.4498010" lon="-100.8478930">
        <ele>1680.9</ele>
        <time>2022-08-20T16:50:54Z</time>
      </trkpt>
      <trkpt lat="25.4498240" lon="-100.8478880">
        <ele>1680.8</ele>
        <time>2022-08-20T16:50:55Z</time>
      </trkpt>
      <trkpt lat="25.4498380" lon="-100.8478860">
        <ele>1680.8</ele>
        <time>2022-08-20T16:50:57Z</time>
      </trkpt>
      <trkpt lat="25.4498350" lon="-100.8478760">
        <ele>1680.8</ele>
        <time>2022-08-20T16:50:59Z</time>
      </trkpt>
      <trkpt lat="25.4498350" lon="-100.8478790">
        <ele>1680.8</ele>
        <time>2022-08-20T16:51:00Z</time>
      </trkpt>
      <trkpt lat="25.4498350" lon="-100.8478800">
        <ele>1680.8</ele>
        <time>2022-08-20T16:51:01Z</time>
      </trkpt>
      <trkpt lat="25.4498350" lon="-100.8478810">
        <ele>1680.8</ele>
        <time>2022-08-20T16:51:02Z</time>
      </trkpt>
      <trkpt lat="25.4498350" lon="-100.8478820">
        <ele>1680.8</ele>
        <time>2022-08-20T16:51:03Z</time>
      </trkpt>
      <trkpt lat="25.4498350" lon="-100.8478810">
        <ele>1680.8</ele>
        <time>2022-08-20T16:51:04Z</time>
      </trkpt>
      <trkpt lat="25.4498360" lon="-100.8478800">
        <ele>1680.8</ele>
        <time>2022-08-20T16:51:05Z</time>
      </trkpt>
      <trkpt lat="25.4498380" lon="-100.8478800">
        <ele>1680.8</ele>
        <time>2022-08-20T16:51:06Z</time>
      </trkpt>
      <trkpt lat="25.4498400" lon="-100.8478790">
        <ele>1680.8</ele>
        <time>2022-08-20T16:51:07Z</time>
      </trkpt>
      <trkpt lat="25.4498410" lon="-100.8478770">
        <ele>1680.8</ele>
        <time>2022-08-20T16:51:08Z</time>
      </trkpt>
      <trkpt lat="25.4498410" lon="-100.8478750">
        <ele>1680.8</ele>
        <time>2022-08-20T16:51:10Z</time>
      </trkpt>
      <trkpt lat="25.4498420" lon="-100.8478740">
        <ele>1680.8</ele>
        <time>2022-08-20T16:51:11Z</time>
      </trkpt>
      <trkpt lat="25.4498430" lon="-100.8478730">
        <ele>1680.8</ele>
        <time>2022-08-20T16:51:12Z</time>
      </trkpt>
      <trkpt lat="25.4498410" lon="-100.8478700">
        <ele>1680.8</ele>
        <time>2022-08-20T16:51:14Z</time>
      </trkpt>
      <trkpt lat="25.4498400" lon="-100.8478700">
        <ele>1680.8</ele>
        <time>2022-08-20T16:51:15Z</time>
      </trkpt>
      <trkpt lat="25.4498380" lon="-100.8478690">
        <ele>1680.8</ele>
        <time>2022-08-20T16:51:16Z</time>
      </trkpt>
      <trkpt lat="25.4498360" lon="-100.8478690">
        <ele>1680.8</ele>
        <time>2022-08-20T16:51:17Z</time>
      </trkpt>
      <trkpt lat="25.4498330" lon="-100.8478710">
        <ele>1680.8</ele>
        <time>2022-08-20T16:51:18Z</time>
      </trkpt>
      <trkpt lat="25.4498330" lon="-100.8478720">
        <ele>1680.8</ele>
        <time>2022-08-20T16:51:19Z</time>
      </trkpt>
      <trkpt lat="25.4498320" lon="-100.8478710">
        <ele>1680.8</ele>
        <time>2022-08-20T16:51:20Z</time>
      </trkpt>
      <trkpt lat="25.4498310" lon="-100.8478710">
        <ele>1680.8</ele>
        <time>2022-08-20T16:51:21Z</time>
      </trkpt>
      <trkpt lat="25.4498300" lon="-100.8478710">
        <ele>1680.8</ele>
        <time>2022-08-20T16:51:22Z</time>
      </trkpt>
      <trkpt lat="25.4498310" lon="-100.8478700">
        <ele>1680.8</ele>
        <time>2022-08-20T16:51:23Z</time>
      </trkpt>
      <trkpt lat="25.4498320" lon="-100.8478700">
        <ele>1680.8</ele>
        <time>2022-08-20T16:51:24Z</time>
      </trkpt>
      <trkpt lat="25.4498330" lon="-100.8478680">
        <ele>1680.8</ele>
        <time>2022-08-20T16:51:25Z</time>
      </trkpt>
      <trkpt lat="25.4498320" lon="-100.8478660">
        <ele>1680.8</ele>
        <time>2022-08-20T16:51:26Z</time>
      </trkpt>
      <trkpt lat="25.4498290" lon="-100.8478670">
        <ele>1680.7</ele>
        <time>2022-08-20T16:51:27Z</time>
      </trkpt>
      <trkpt lat="25.4498290" lon="-100.8478710">
        <ele>1680.7</ele>
        <time>2022-08-20T16:51:28Z</time>
      </trkpt>
      <trkpt lat="25.4498290" lon="-100.8478740">
        <ele>1680.7</ele>
        <time>2022-08-20T16:51:29Z</time>
      </trkpt>
      <trkpt lat="25.4498280" lon="-100.8478830">
        <ele>1680.7</ele>
        <time>2022-08-20T16:51:31Z</time>
      </trkpt>
      <trkpt lat="25.4498270" lon="-100.8478880">
        <ele>1680.7</ele>
        <time>2022-08-20T16:51:32Z</time>
      </trkpt>
      <trkpt lat="25.4498320" lon="-100.8478880">
        <ele>1680.7</ele>
        <time>2022-08-20T16:51:33Z</time>
      </trkpt>
      <trkpt lat="25.4498360" lon="-100.8478860">
        <ele>1680.7</ele>
        <time>2022-08-20T16:51:34Z</time>
      </trkpt>
      <trkpt lat="25.4498380" lon="-100.8478820">
        <ele>1680.7</ele>
        <time>2022-08-20T16:51:35Z</time>
      </trkpt>
      <trkpt lat="25.4498440" lon="-100.8478810">
        <ele>1680.7</ele>
        <time>2022-08-20T16:51:37Z</time>
      </trkpt>
      <trkpt lat="25.4498410" lon="-100.8478860">
        <ele>1680.7</ele>
        <time>2022-08-20T16:51:38Z</time>
      </trkpt>
      <trkpt lat="25.4498320" lon="-100.8478900">
        <ele>1680.7</ele>
        <time>2022-08-20T16:51:39Z</time>
      </trkpt>
      <trkpt lat="25.4498300" lon="-100.8478850">
        <ele>1680.7</ele>
        <time>2022-08-20T16:51:40Z</time>
      </trkpt>
      <trkpt lat="25.4498350" lon="-100.8478750">
        <ele>1680.7</ele>
        <time>2022-08-20T16:51:41Z</time>
      </trkpt>
      <trkpt lat="25.4498390" lon="-100.8478700">
        <ele>1680.7</ele>
        <time>2022-08-20T16:51:43Z</time>
      </trkpt>
      <trkpt lat="25.4498360" lon="-100.8478590">
        <ele>1680.6</ele>
        <time>2022-08-20T16:51:44Z</time>
      </trkpt>
      <trkpt lat="25.4498330" lon="-100.8478590">
        <ele>1680.6</ele>
        <time>2022-08-20T16:51:45Z</time>
      </trkpt>
      <trkpt lat="25.4498290" lon="-100.8478580">
        <ele>1680.6</ele>
        <time>2022-08-20T16:51:46Z</time>
      </trkpt>
      <trkpt lat="25.4498260" lon="-100.8478570">
        <ele>1680.6</ele>
        <time>2022-08-20T16:51:47Z</time>
      </trkpt>
      <trkpt lat="25.4498230" lon="-100.8478580">
        <ele>1680.6</ele>
        <time>2022-08-20T16:51:48Z</time>
      </trkpt>
      <trkpt lat="25.4498230" lon="-100.8478650">
        <ele>1680.6</ele>
        <time>2022-08-20T16:51:49Z</time>
      </trkpt>
      <trkpt lat="25.4498220" lon="-100.8478660">
        <ele>1680.6</ele>
        <time>2022-08-20T16:51:50Z</time>
      </trkpt>
      <trkpt lat="25.4498200" lon="-100.8478660">
        <ele>1680.6</ele>
        <time>2022-08-20T16:51:51Z</time>
      </trkpt>
      <trkpt lat="25.4498200" lon="-100.8478650">
        <ele>1680.6</ele>
        <time>2022-08-20T16:51:52Z</time>
      </trkpt>
      <trkpt lat="25.4498190" lon="-100.8478650">
        <ele>1680.6</ele>
        <time>2022-08-20T16:51:53Z</time>
      </trkpt>
      <trkpt lat="25.4498180" lon="-100.8478640">
        <ele>1680.6</ele>
        <time>2022-08-20T16:51:54Z</time>
      </trkpt>
      <trkpt lat="25.4498150" lon="-100.8478680">
        <ele>1680.6</ele>
        <time>2022-08-20T16:51:55Z</time>
      </trkpt>
      <trkpt lat="25.4498130" lon="-100.8478750">
        <ele>1680.6</ele>
        <time>2022-08-20T16:51:57Z</time>
      </trkpt>
      <trkpt lat="25.4498140" lon="-100.8478800">
        <ele>1680.6</ele>
        <time>2022-08-20T16:51:58Z</time>
      </trkpt>
      <trkpt lat="25.4498150" lon="-100.8478840">
        <ele>1680.6</ele>
        <time>2022-08-20T16:51:59Z</time>
      </trkpt>
      <trkpt lat="25.4498170" lon="-100.8478880">
        <ele>1680.6</ele>
        <time>2022-08-20T16:52:00Z</time>
      </trkpt>
      <trkpt lat="25.4498230" lon="-100.8479000">
        <ele>1680.6</ele>
        <time>2022-08-20T16:52:01Z</time>
      </trkpt>
      <trkpt lat="25.4498280" lon="-100.8479070">
        <ele>1680.5</ele>
        <time>2022-08-20T16:52:02Z</time>
      </trkpt>
      <trkpt lat="25.4498330" lon="-100.8479150">
        <ele>1680.5</ele>
        <time>2022-08-20T16:52:03Z</time>
      </trkpt>
      <trkpt lat="25.4498410" lon="-100.8479260">
        <ele>1680.5</ele>
        <time>2022-08-20T16:52:04Z</time>
      </trkpt>
      <trkpt lat="25.4498430" lon="-100.8479280">
        <ele>1680.5</ele>
        <time>2022-08-20T16:52:05Z</time>
      </trkpt>
      <trkpt lat="25.4498450" lon="-100.8479310">
        <ele>1680.5</ele>
        <time>2022-08-20T16:52:06Z</time>
      </trkpt>
      <trkpt lat="25.4498460" lon="-100.8479330">
        <ele>1680.5</ele>
        <time>2022-08-20T16:52:07Z</time>
      </trkpt>
      <trkpt lat="25.4498480" lon="-100.8479360">
        <ele>1680.5</ele>
        <time>2022-08-20T16:52:08Z</time>
      </trkpt>
      <trkpt lat="25.4498500" lon="-100.8479380">
        <ele>1680.5</ele>
        <time>2022-08-20T16:52:09Z</time>
      </trkpt>
      <trkpt lat="25.4498520" lon="-100.8479410">
        <ele>1680.5</ele>
        <time>2022-08-20T16:52:10Z</time>
      </trkpt>
      <trkpt lat="25.4498530" lon="-100.8479430">
        <ele>1680.5</ele>
        <time>2022-08-20T16:52:11Z</time>
      </trkpt>
      <trkpt lat="25.4498550" lon="-100.8479460">
        <ele>1680.5</ele>
        <time>2022-08-20T16:52:12Z</time>
      </trkpt>
      <trkpt lat="25.4498570" lon="-100.8479480">
        <ele>1680.5</ele>
        <time>2022-08-20T16:52:13Z</time>
      </trkpt>
      <trkpt lat="25.4498580" lon="-100.8479510">
        <ele>1680.5</ele>
        <time>2022-08-20T16:52:14Z</time>
      </trkpt>
      <trkpt lat="25.4498600" lon="-100.8479530">
        <ele>1680.5</ele>
        <time>2022-08-20T16:52:15Z</time>
      </trkpt>
      <trkpt lat="25.4498620" lon="-100.8479560">
        <ele>1680.5</ele>
        <time>2022-08-20T16:52:16Z</time>
      </trkpt>
      <trkpt lat="25.4498640" lon="-100.8479580">
        <ele>1680.5</ele>
        <time>2022-08-20T16:52:17Z</time>
      </trkpt>
      <trkpt lat="25.4498670" lon="-100.8479650">
        <ele>1680.5</ele>
        <time>2022-08-20T16:52:18Z</time>
      </trkpt>
      <trkpt lat="25.4498690" lon="-100.8479680">
        <ele>1680.5</ele>
        <time>2022-08-20T16:52:19Z</time>
      </trkpt>
      <trkpt lat="25.4498830" lon="-100.8479800">
        <ele>1680.4</ele>
        <time>2022-08-20T16:52:20Z</time>
      </trkpt>
      <trkpt lat="25.4498880" lon="-100.8479860">
        <ele>1680.4</ele>
        <time>2022-08-20T16:52:21Z</time>
      </trkpt>
      <trkpt lat="25.4498880" lon="-100.8479860">
        <ele>1680.4</ele>
        <time>2022-08-20T16:52:22Z</time>
      </trkpt>
      <trkpt lat="25.4498880" lon="-100.8479850">
        <ele>1680.4</ele>
        <time>2022-08-20T16:52:23Z</time>
      </trkpt>
      <trkpt lat="25.4498870" lon="-100.8479850">
        <ele>1680.4</ele>
        <time>2022-08-20T16:52:24Z</time>
      </trkpt>
      <trkpt lat="25.4498870" lon="-100.8479850">
        <ele>1680.4</ele>
        <time>2022-08-20T16:52:25Z</time>
      </trkpt>
      <trkpt lat="25.4498870" lon="-100.8479850">
        <ele>1680.4</ele>
        <time>2022-08-20T16:52:26Z</time>
      </trkpt>
      <trkpt lat="25.4498860" lon="-100.8479840">
        <ele>1680.4</ele>
        <time>2022-08-20T16:52:27Z</time>
      </trkpt>
      <trkpt lat="25.4498860" lon="-100.8479840">
        <ele>1680.4</ele>
        <time>2022-08-20T16:52:28Z</time>
      </trkpt>
      <trkpt lat="25.4498860" lon="-100.8479840">
        <ele>1680.4</ele>
        <time>2022-08-20T16:52:29Z</time>
      </trkpt>
      <trkpt lat="25.4498850" lon="-100.8479840">
        <ele>1680.4</ele>
        <time>2022-08-20T16:52:30Z</time>
      </trkpt>
      <trkpt lat="25.4498850" lon="-100.8479830">
        <ele>1680.4</ele>
        <time>2022-08-20T16:52:31Z</time>
      </trkpt>
      <trkpt lat="25.4498850" lon="-100.8479830">
        <ele>1680.4</ele>
        <time>2022-08-20T16:52:32Z</time>
      </trkpt>
      <trkpt lat="25.4498840" lon="-100.8479830">
        <ele>1680.4</ele>
        <time>2022-08-20T16:52:33Z</time>
      </trkpt>
      <trkpt lat="25.4498840" lon="-100.8479830">
        <ele>1680.4</ele>
        <time>2022-08-20T16:52:34Z</time>
      </trkpt>
      <trkpt lat="25.4498840" lon="-100.8479830">
        <ele>1680.4</ele>
        <time>2022-08-20T16:52:35Z</time>
      </trkpt>
      <trkpt lat="25.4498840" lon="-100.8479820">
        <ele>1680.4</ele>
        <time>2022-08-20T16:52:36Z</time>
      </trkpt>
      <trkpt lat="25.4498830" lon="-100.8479820">
        <ele>1680.4</ele>
        <time>2022-08-20T16:52:37Z</time>
      </trkpt>
      <trkpt lat="25.4498830" lon="-100.8479820">
        <ele>1680.4</ele>
        <time>2022-08-20T16:52:38Z</time>
      </trkpt>
      <trkpt lat="25.4498830" lon="-100.8479820">
        <ele>1680.4</ele>
        <time>2022-08-20T16:52:39Z</time>
      </trkpt>
      <trkpt lat="25.4498820" lon="-100.8479810">
        <ele>1680.4</ele>
        <time>2022-08-20T16:52:40Z</time>
      </trkpt>
      <trkpt lat="25.4498820" lon="-100.8479810">
        <ele>1680.4</ele>
        <time>2022-08-20T16:52:41Z</time>
      </trkpt>
      <trkpt lat="25.4498820" lon="-100.8479810">
        <ele>1680.4</ele>
        <time>2022-08-20T16:52:43Z</time>
      </trkpt>
      <trkpt lat="25.4498810" lon="-100.8479810">
        <ele>1680.4</ele>
        <time>2022-08-20T16:52:44Z</time>
      </trkpt>
      <trkpt lat="25.4498810" lon="-100.8479810">
        <ele>1680.4</ele>
        <time>2022-08-20T16:52:45Z</time>
      </trkpt>
      <trkpt lat="25.4498810" lon="-100.8479800">
        <ele>1680.4</ele>
        <time>2022-08-20T16:52:46Z</time>
      </trkpt>
      <trkpt lat="25.4498810" lon="-100.8479800">
        <ele>1680.4</ele>
        <time>2022-08-20T16:52:47Z</time>
      </trkpt>
      <trkpt lat="25.4498800" lon="-100.8479800">
        <ele>1680.4</ele>
        <time>2022-08-20T16:52:48Z</time>
      </trkpt>
      <trkpt lat="25.4498800" lon="-100.8479800">
        <ele>1680.4</ele>
        <time>2022-08-20T16:52:49Z</time>
      </trkpt>
      <trkpt lat="25.4498800" lon="-100.8479790">
        <ele>1680.4</ele>
        <time>2022-08-20T16:52:50Z</time>
      </trkpt>
      <trkpt lat="25.4498790" lon="-100.8479790">
        <ele>1680.4</ele>
        <time>2022-08-20T16:52:51Z</time>
      </trkpt>
      <trkpt lat="25.4498790" lon="-100.8479790">
        <ele>1680.4</ele>
        <time>2022-08-20T16:52:52Z</time>
      </trkpt>
      <trkpt lat="25.4498790" lon="-100.8479790">
        <ele>1680.4</ele>
        <time>2022-08-20T16:52:53Z</time>
      </trkpt>
      <trkpt lat="25.4498780" lon="-100.8479780">
        <ele>1680.4</ele>
        <time>2022-08-20T16:52:55Z</time>
      </trkpt>
      <trkpt lat="25.4498780" lon="-100.8479780">
        <ele>1680.4</ele>
        <time>2022-08-20T16:52:56Z</time>
      </trkpt>
      <trkpt lat="25.4498780" lon="-100.8479780">
        <ele>1680.4</ele>
        <time>2022-08-20T16:52:57Z</time>
      </trkpt>
      <trkpt lat="25.4498780" lon="-100.8479780">
        <ele>1680.4</ele>
        <time>2022-08-20T16:52:58Z</time>
      </trkpt>
      <trkpt lat="25.4498770" lon="-100.8479780">
        <ele>1680.4</ele>
        <time>2022-08-20T16:52:59Z</time>
      </trkpt>
      <trkpt lat="25.4498770" lon="-100.8479770">
        <ele>1680.4</ele>
        <time>2022-08-20T16:53:00Z</time>
      </trkpt>
      <trkpt lat="25.4498770" lon="-100.8479770">
        <ele>1680.4</ele>
        <time>2022-08-20T16:53:02Z</time>
      </trkpt>
      <trkpt lat="25.4498760" lon="-100.8479770">
        <ele>1680.4</ele>
        <time>2022-08-20T16:53:03Z</time>
      </trkpt>
      <trkpt lat="25.4498760" lon="-100.8479770">
        <ele>1680.4</ele>
        <time>2022-08-20T16:53:04Z</time>
      </trkpt>
      <trkpt lat="25.4498760" lon="-100.8479760">
        <ele>1680.4</ele>
        <time>2022-08-20T16:53:05Z</time>
      </trkpt>
      <trkpt lat="25.4498750" lon="-100.8479760">
        <ele>1680.4</ele>
        <time>2022-08-20T16:53:06Z</time>
      </trkpt>
      <trkpt lat="25.4498750" lon="-100.8479760">
        <ele>1680.4</ele>
        <time>2022-08-20T16:53:07Z</time>
      </trkpt>
      <trkpt lat="25.4498750" lon="-100.8479760">
        <ele>1680.4</ele>
        <time>2022-08-20T16:53:08Z</time>
      </trkpt>
      <trkpt lat="25.4498740" lon="-100.8479750">
        <ele>1680.4</ele>
        <time>2022-08-20T16:53:09Z</time>
      </trkpt>
      <trkpt lat="25.4498740" lon="-100.8479750">
        <ele>1680.4</ele>
        <time>2022-08-20T16:53:10Z</time>
      </trkpt>
      <trkpt lat="25.4498740" lon="-100.8479750">
        <ele>1680.4</ele>
        <time>2022-08-20T16:53:11Z</time>
      </trkpt>
      <trkpt lat="25.4498740" lon="-100.8479750">
        <ele>1680.4</ele>
        <time>2022-08-20T16:53:12Z</time>
      </trkpt>
      <trkpt lat="25.4498730" lon="-100.8479750">
        <ele>1680.4</ele>
        <time>2022-08-20T16:53:13Z</time>
      </trkpt>
      <trkpt lat="25.4498730" lon="-100.8479740">
        <ele>1680.4</ele>
        <time>2022-08-20T16:53:15Z</time>
      </trkpt>
      <trkpt lat="25.4498730" lon="-100.8479740">
        <ele>1680.4</ele>
        <time>2022-08-20T16:53:16Z</time>
      </trkpt>
      <trkpt lat="25.4498720" lon="-100.8479740">
        <ele>1680.4</ele>
        <time>2022-08-20T16:53:17Z</time>
      </trkpt>
      <trkpt lat="25.4498720" lon="-100.8479740">
        <ele>1680.4</ele>
        <time>2022-08-20T16:53:18Z</time>
      </trkpt>
      <trkpt lat="25.4498720" lon="-100.8479730">
        <ele>1680.4</ele>
        <time>2022-08-20T16:53:19Z</time>
      </trkpt>
      <trkpt lat="25.4498710" lon="-100.8479730">
        <ele>1680.4</ele>
        <time>2022-08-20T16:53:20Z</time>
      </trkpt>
      <trkpt lat="25.4498710" lon="-100.8479730">
        <ele>1680.4</ele>
        <time>2022-08-20T16:53:21Z</time>
      </trkpt>
      <trkpt lat="25.4498710" lon="-100.8479730">
        <ele>1680.4</ele>
        <time>2022-08-20T16:53:22Z</time>
      </trkpt>
      <trkpt lat="25.4498710" lon="-100.8479730">
        <ele>1680.4</ele>
        <time>2022-08-20T16:53:23Z</time>
      </trkpt>
      <trkpt lat="25.4498700" lon="-100.8479720">
        <ele>1680.4</ele>
        <time>2022-08-20T16:53:24Z</time>
      </trkpt>
      <trkpt lat="25.4498700" lon="-100.8479720">
        <ele>1680.4</ele>
        <time>2022-08-20T16:53:25Z</time>
      </trkpt>
      <trkpt lat="25.4498700" lon="-100.8479720">
        <ele>1680.4</ele>
        <time>2022-08-20T16:53:26Z</time>
      </trkpt>
      <trkpt lat="25.4498690" lon="-100.8479720">
        <ele>1680.4</ele>
        <time>2022-08-20T16:53:27Z</time>
      </trkpt>
      <trkpt lat="25.4498690" lon="-100.8479710">
        <ele>1680.4</ele>
        <time>2022-08-20T16:53:28Z</time>
      </trkpt>
      <trkpt lat="25.4498690" lon="-100.8479710">
        <ele>1680.4</ele>
        <time>2022-08-20T16:53:29Z</time>
      </trkpt>
      <trkpt lat="25.4498680" lon="-100.8479710">
        <ele>1680.4</ele>
        <time>2022-08-20T16:53:30Z</time>
      </trkpt>
      <trkpt lat="25.4498680" lon="-100.8479710">
        <ele>1680.4</ele>
        <time>2022-08-20T16:53:31Z</time>
      </trkpt>
      <trkpt lat="25.4498680" lon="-100.8479700">
        <ele>1680.4</ele>
        <time>2022-08-20T16:53:32Z</time>
      </trkpt>
      <trkpt lat="25.4498670" lon="-100.8479700">
        <ele>1680.4</ele>
        <time>2022-08-20T16:53:33Z</time>
      </trkpt>
      <trkpt lat="25.4498670" lon="-100.8479700">
        <ele>1680.4</ele>
        <time>2022-08-20T16:53:34Z</time>
      </trkpt>
      <trkpt lat="25.4498670" lon="-100.8479700">
        <ele>1680.4</ele>
        <time>2022-08-20T16:53:35Z</time>
      </trkpt>
      <trkpt lat="25.4498670" lon="-100.8479700">
        <ele>1680.4</ele>
        <time>2022-08-20T16:53:36Z</time>
      </trkpt>
      <trkpt lat="25.4498660" lon="-100.8479690">
        <ele>1680.4</ele>
        <time>2022-08-20T16:53:37Z</time>
      </trkpt>
      <trkpt lat="25.4498660" lon="-100.8479690">
        <ele>1680.4</ele>
        <time>2022-08-20T16:53:38Z</time>
      </trkpt>
      <trkpt lat="25.4498660" lon="-100.8479690">
        <ele>1680.4</ele>
        <time>2022-08-20T16:53:39Z</time>
      </trkpt>
      <trkpt lat="25.4498650" lon="-100.8479690">
        <ele>1680.4</ele>
        <time>2022-08-20T16:53:40Z</time>
      </trkpt>
      <trkpt lat="25.4498650" lon="-100.8479680">
        <ele>1680.4</ele>
        <time>2022-08-20T16:53:41Z</time>
      </trkpt>
      <trkpt lat="25.4498650" lon="-100.8479680">
        <ele>1680.4</ele>
        <time>2022-08-20T16:53:42Z</time>
      </trkpt>
      <trkpt lat="25.4498640" lon="-100.8479680">
        <ele>1680.4</ele>
        <time>2022-08-20T16:53:43Z</time>
      </trkpt>
      <trkpt lat="25.4498640" lon="-100.8479680">
        <ele>1680.4</ele>
        <time>2022-08-20T16:53:44Z</time>
      </trkpt>
      <trkpt lat="25.4498640" lon="-100.8479670">
        <ele>1680.4</ele>
        <time>2022-08-20T16:53:45Z</time>
      </trkpt>
      <trkpt lat="25.4498640" lon="-100.8479670">
        <ele>1680.4</ele>
        <time>2022-08-20T16:53:46Z</time>
      </trkpt>
      <trkpt lat="25.4498630" lon="-100.8479670">
        <ele>1680.4</ele>
        <time>2022-08-20T16:53:47Z</time>
      </trkpt>
      <trkpt lat="25.4498630" lon="-100.8479670">
        <ele>1680.4</ele>
        <time>2022-08-20T16:53:48Z</time>
      </trkpt>
      <trkpt lat="25.4498630" lon="-100.8479670">
        <ele>1680.4</ele>
        <time>2022-08-20T16:53:49Z</time>
      </trkpt>
      <trkpt lat="25.4498620" lon="-100.8479660">
        <ele>1680.4</ele>
        <time>2022-08-20T16:53:50Z</time>
      </trkpt>
      <trkpt lat="25.4498620" lon="-100.8479660">
        <ele>1680.4</ele>
        <time>2022-08-20T16:53:51Z</time>
      </trkpt>
      <trkpt lat="25.4498620" lon="-100.8479660">
        <ele>1680.4</ele>
        <time>2022-08-20T16:53:52Z</time>
      </trkpt>
      <trkpt lat="25.4498610" lon="-100.8479660">
        <ele>1680.4</ele>
        <time>2022-08-20T16:53:53Z</time>
      </trkpt>
      <trkpt lat="25.4498610" lon="-100.8479650">
        <ele>1680.4</ele>
        <time>2022-08-20T16:53:54Z</time>
      </trkpt>
      <trkpt lat="25.4498610" lon="-100.8479650">
        <ele>1680.4</ele>
        <time>2022-08-20T16:53:55Z</time>
      </trkpt>
      <trkpt lat="25.4498600" lon="-100.8479650">
        <ele>1680.4</ele>
        <time>2022-08-20T16:53:56Z</time>
      </trkpt>
      <trkpt lat="25.4498600" lon="-100.8479650">
        <ele>1680.4</ele>
        <time>2022-08-20T16:53:57Z</time>
      </trkpt>
      <trkpt lat="25.4498600" lon="-100.8479650">
        <ele>1680.4</ele>
        <time>2022-08-20T16:53:58Z</time>
      </trkpt>
      <trkpt lat="25.4498600" lon="-100.8479640">
        <ele>1680.4</ele>
        <time>2022-08-20T16:53:59Z</time>
      </trkpt>
      <trkpt lat="25.4498590" lon="-100.8479640">
        <ele>1680.4</ele>
        <time>2022-08-20T16:54:00Z</time>
      </trkpt>
      <trkpt lat="25.4498590" lon="-100.8479640">
        <ele>1680.4</ele>
        <time>2022-08-20T16:54:01Z</time>
      </trkpt>
      <trkpt lat="25.4498590" lon="-100.8479640">
        <ele>1680.4</ele>
        <time>2022-08-20T16:54:02Z</time>
      </trkpt>
      <trkpt lat="25.4498580" lon="-100.8479630">
        <ele>1680.4</ele>
        <time>2022-08-20T16:54:03Z</time>
      </trkpt>
      <trkpt lat="25.4498580" lon="-100.8479630">
        <ele>1680.4</ele>
        <time>2022-08-20T16:54:04Z</time>
      </trkpt>
      <trkpt lat="25.4498580" lon="-100.8479630">
        <ele>1680.4</ele>
        <time>2022-08-20T16:54:05Z</time>
      </trkpt>
      <trkpt lat="25.4498570" lon="-100.8479630">
        <ele>1680.4</ele>
        <time>2022-08-20T16:54:06Z</time>
      </trkpt>
      <trkpt lat="25.4498570" lon="-100.8479620">
        <ele>1680.4</ele>
        <time>2022-08-20T16:54:07Z</time>
      </trkpt>
      <trkpt lat="25.4498570" lon="-100.8479620">
        <ele>1680.4</ele>
        <time>2022-08-20T16:54:08Z</time>
      </trkpt>
      <trkpt lat="25.4498570" lon="-100.8479620">
        <ele>1680.4</ele>
        <time>2022-08-20T16:54:09Z</time>
      </trkpt>
      <trkpt lat="25.4498560" lon="-100.8479620">
        <ele>1680.4</ele>
        <time>2022-08-20T16:54:10Z</time>
      </trkpt>
      <trkpt lat="25.4498560" lon="-100.8479620">
        <ele>1680.4</ele>
        <time>2022-08-20T16:54:11Z</time>
      </trkpt>
      <trkpt lat="25.4498560" lon="-100.8479610">
        <ele>1680.4</ele>
        <time>2022-08-20T16:54:12Z</time>
      </trkpt>
      <trkpt lat="25.4498550" lon="-100.8479610">
        <ele>1680.4</ele>
        <time>2022-08-20T16:54:13Z</time>
      </trkpt>
      <trkpt lat="25.4498550" lon="-100.8479610">
        <ele>1680.4</ele>
        <time>2022-08-20T16:54:14Z</time>
      </trkpt>
      <trkpt lat="25.4498550" lon="-100.8479610">
        <ele>1680.4</ele>
        <time>2022-08-20T16:54:15Z</time>
      </trkpt>
      <trkpt lat="25.4498540" lon="-100.8479600">
        <ele>1680.4</ele>
        <time>2022-08-20T16:54:16Z</time>
      </trkpt>
      <trkpt lat="25.4498540" lon="-100.8479600">
        <ele>1680.4</ele>
        <time>2022-08-20T16:54:17Z</time>
      </trkpt>
      <trkpt lat="25.4498540" lon="-100.8479600">
        <ele>1680.4</ele>
        <time>2022-08-20T16:54:18Z</time>
      </trkpt>
      <trkpt lat="25.4498530" lon="-100.8479600">
        <ele>1680.4</ele>
        <time>2022-08-20T16:54:19Z</time>
      </trkpt>
      <trkpt lat="25.4498530" lon="-100.8479590">
        <ele>1680.4</ele>
        <time>2022-08-20T16:54:20Z</time>
      </trkpt>
      <trkpt lat="25.4498530" lon="-100.8479590">
        <ele>1680.4</ele>
        <time>2022-08-20T16:54:21Z</time>
      </trkpt>
      <trkpt lat="25.4498530" lon="-100.8479590">
        <ele>1680.4</ele>
        <time>2022-08-20T16:54:22Z</time>
      </trkpt>
      <trkpt lat="25.4498520" lon="-100.8479590">
        <ele>1680.4</ele>
        <time>2022-08-20T16:54:23Z</time>
      </trkpt>
      <trkpt lat="25.4498520" lon="-100.8479590">
        <ele>1680.4</ele>
        <time>2022-08-20T16:54:24Z</time>
      </trkpt>
      <trkpt lat="25.4498520" lon="-100.8479580">
        <ele>1680.4</ele>
        <time>2022-08-20T16:54:25Z</time>
      </trkpt>
      <trkpt lat="25.4498510" lon="-100.8479580">
        <ele>1680.4</ele>
        <time>2022-08-20T16:54:26Z</time>
      </trkpt>
      <trkpt lat="25.4498510" lon="-100.8479580">
        <ele>1680.4</ele>
        <time>2022-08-20T16:54:27Z</time>
      </trkpt>
      <trkpt lat="25.4498510" lon="-100.8479580">
        <ele>1680.4</ele>
        <time>2022-08-20T16:54:28Z</time>
      </trkpt>
      <trkpt lat="25.4498500" lon="-100.8479570">
        <ele>1680.4</ele>
        <time>2022-08-20T16:54:29Z</time>
      </trkpt>
      <trkpt lat="25.4498500" lon="-100.8479570">
        <ele>1680.4</ele>
        <time>2022-08-20T16:54:30Z</time>
      </trkpt>
      <trkpt lat="25.4498500" lon="-100.8479570">
        <ele>1680.4</ele>
        <time>2022-08-20T16:54:31Z</time>
      </trkpt>
      <trkpt lat="25.4498500" lon="-100.8479570">
        <ele>1680.4</ele>
        <time>2022-08-20T16:54:32Z</time>
      </trkpt>
      <trkpt lat="25.4498490" lon="-100.8479570">
        <ele>1680.4</ele>
        <time>2022-08-20T16:54:33Z</time>
      </trkpt>
      <trkpt lat="25.4498490" lon="-100.8479560">
        <ele>1680.4</ele>
        <time>2022-08-20T16:54:34Z</time>
      </trkpt>
      <trkpt lat="25.4498490" lon="-100.8479560">
        <ele>1680.4</ele>
        <time>2022-08-20T16:54:35Z</time>
      </trkpt>
      <trkpt lat="25.4498480" lon="-100.8479560">
        <ele>1680.3</ele>
        <time>2022-08-20T16:54:36Z</time>
      </trkpt>
      <trkpt lat="25.4498480" lon="-100.8479560">
        <ele>1680.3</ele>
        <time>2022-08-20T16:54:37Z</time>
      </trkpt>
      <trkpt lat="25.4498480" lon="-100.8479550">
        <ele>1680.3</ele>
        <time>2022-08-20T16:54:38Z</time>
      </trkpt>
      <trkpt lat="25.4498470" lon="-100.8479550">
        <ele>1680.3</ele>
        <time>2022-08-20T16:54:39Z</time>
      </trkpt>
      <trkpt lat="25.4498470" lon="-100.8479550">
        <ele>1680.3</ele>
        <time>2022-08-20T16:54:40Z</time>
      </trkpt>
      <trkpt lat="25.4498470" lon="-100.8479550">
        <ele>1680.3</ele>
        <time>2022-08-20T16:54:41Z</time>
      </trkpt>
      <trkpt lat="25.4498470" lon="-100.8479540">
        <ele>1680.3</ele>
        <time>2022-08-20T16:54:42Z</time>
      </trkpt>
      <trkpt lat="25.4498460" lon="-100.8479540">
        <ele>1680.3</ele>
        <time>2022-08-20T16:54:43Z</time>
      </trkpt>
      <trkpt lat="25.4498460" lon="-100.8479540">
        <ele>1680.3</ele>
        <time>2022-08-20T16:54:44Z</time>
      </trkpt>
      <trkpt lat="25.4498460" lon="-100.8479540">
        <ele>1680.3</ele>
        <time>2022-08-20T16:54:45Z</time>
      </trkpt>
      <trkpt lat="25.4498450" lon="-100.8479540">
        <ele>1680.3</ele>
        <time>2022-08-20T16:54:46Z</time>
      </trkpt>
      <trkpt lat="25.4498450" lon="-100.8479530">
        <ele>1680.3</ele>
        <time>2022-08-20T16:54:47Z</time>
      </trkpt>
      <trkpt lat="25.4498450" lon="-100.8479530">
        <ele>1680.3</ele>
        <time>2022-08-20T16:54:48Z</time>
      </trkpt>
      <trkpt lat="25.4498440" lon="-100.8479530">
        <ele>1680.3</ele>
        <time>2022-08-20T16:54:49Z</time>
      </trkpt>
      <trkpt lat="25.4498440" lon="-100.8479530">
        <ele>1680.3</ele>
        <time>2022-08-20T16:54:50Z</time>
      </trkpt>
      <trkpt lat="25.4498440" lon="-100.8479520">
        <ele>1680.3</ele>
        <time>2022-08-20T16:54:51Z</time>
      </trkpt>
      <trkpt lat="25.4498430" lon="-100.8479520">
        <ele>1680.3</ele>
        <time>2022-08-20T16:54:52Z</time>
      </trkpt>
      <trkpt lat="25.4498430" lon="-100.8479520">
        <ele>1680.3</ele>
        <time>2022-08-20T16:54:53Z</time>
      </trkpt>
      <trkpt lat="25.4498430" lon="-100.8479520">
        <ele>1680.3</ele>
        <time>2022-08-20T16:54:54Z</time>
      </trkpt>
      <trkpt lat="25.4498430" lon="-100.8479510">
        <ele>1680.3</ele>
        <time>2022-08-20T16:54:55Z</time>
      </trkpt>
      <trkpt lat="25.4498420" lon="-100.8479510">
        <ele>1680.3</ele>
        <time>2022-08-20T16:54:56Z</time>
      </trkpt>
      <trkpt lat="25.4498420" lon="-100.8479510">
        <ele>1680.3</ele>
        <time>2022-08-20T16:54:57Z</time>
      </trkpt>
      <trkpt lat="25.4498420" lon="-100.8479510">
        <ele>1680.3</ele>
        <time>2022-08-20T16:54:58Z</time>
      </trkpt>
      <trkpt lat="25.4498410" lon="-100.8479510">
        <ele>1680.3</ele>
        <time>2022-08-20T16:54:59Z</time>
      </trkpt>
      <trkpt lat="25.4498410" lon="-100.8479500">
        <ele>1680.3</ele>
        <time>2022-08-20T16:55:00Z</time>
      </trkpt>
      <trkpt lat="25.4498410" lon="-100.8479500">
        <ele>1680.3</ele>
        <time>2022-08-20T16:55:01Z</time>
      </trkpt>
      <trkpt lat="25.4498400" lon="-100.8479500">
        <ele>1680.3</ele>
        <time>2022-08-20T16:55:02Z</time>
      </trkpt>
      <trkpt lat="25.4498400" lon="-100.8479500">
        <ele>1680.3</ele>
        <time>2022-08-20T16:55:03Z</time>
      </trkpt>
      <trkpt lat="25.4498400" lon="-100.8479490">
        <ele>1680.3</ele>
        <time>2022-08-20T16:55:04Z</time>
      </trkpt>
      <trkpt lat="25.4498400" lon="-100.8479490">
        <ele>1680.3</ele>
        <time>2022-08-20T16:55:05Z</time>
      </trkpt>
      <trkpt lat="25.4498390" lon="-100.8479490">
        <ele>1680.3</ele>
        <time>2022-08-20T16:55:06Z</time>
      </trkpt>
      <trkpt lat="25.4498390" lon="-100.8479490">
        <ele>1680.3</ele>
        <time>2022-08-20T16:55:07Z</time>
      </trkpt>
      <trkpt lat="25.4498390" lon="-100.8479490">
        <ele>1680.3</ele>
        <time>2022-08-20T16:55:08Z</time>
      </trkpt>
      <trkpt lat="25.4498380" lon="-100.8479480">
        <ele>1680.3</ele>
        <time>2022-08-20T16:55:09Z</time>
      </trkpt>
      <trkpt lat="25.4498380" lon="-100.8479480">
        <ele>1680.3</ele>
        <time>2022-08-20T16:55:10Z</time>
      </trkpt>
      <trkpt lat="25.4498380" lon="-100.8479480">
        <ele>1680.3</ele>
        <time>2022-08-20T16:55:11Z</time>
      </trkpt>
      <trkpt lat="25.4498370" lon="-100.8479480">
        <ele>1680.3</ele>
        <time>2022-08-20T16:55:12Z</time>
      </trkpt>
      <trkpt lat="25.4498370" lon="-100.8479470">
        <ele>1680.3</ele>
        <time>2022-08-20T16:55:13Z</time>
      </trkpt>
      <trkpt lat="25.4498370" lon="-100.8479470">
        <ele>1680.3</ele>
        <time>2022-08-20T16:55:14Z</time>
      </trkpt>
      <trkpt lat="25.4498360" lon="-100.8479470">
        <ele>1680.3</ele>
        <time>2022-08-20T16:55:15Z</time>
      </trkpt>
      <trkpt lat="25.4498360" lon="-100.8479470">
        <ele>1680.3</ele>
        <time>2022-08-20T16:55:16Z</time>
      </trkpt>
      <trkpt lat="25.4498360" lon="-100.8479460">
        <ele>1680.3</ele>
        <time>2022-08-20T16:55:17Z</time>
      </trkpt>
      <trkpt lat="25.4498360" lon="-100.8479460">
        <ele>1680.3</ele>
        <time>2022-08-20T16:55:18Z</time>
      </trkpt>
      <trkpt lat="25.4498350" lon="-100.8479460">
        <ele>1680.3</ele>
        <time>2022-08-20T16:55:19Z</time>
      </trkpt>
      <trkpt lat="25.4498350" lon="-100.8479460">
        <ele>1680.3</ele>
        <time>2022-08-20T16:55:20Z</time>
      </trkpt>
      <trkpt lat="25.4498350" lon="-100.8479460">
        <ele>1680.3</ele>
        <time>2022-08-20T16:55:21Z</time>
      </trkpt>
      <trkpt lat="25.4498340" lon="-100.8479450">
        <ele>1680.3</ele>
        <time>2022-08-20T16:55:22Z</time>
      </trkpt>
      <trkpt lat="25.4498340" lon="-100.8479450">
        <ele>1680.3</ele>
        <time>2022-08-20T16:55:23Z</time>
      </trkpt>
      <trkpt lat="25.4498160" lon="-100.8479400">
        <ele>1680.3</ele>
        <time>2022-08-20T16:55:24Z</time>
      </trkpt>
      <trkpt lat="25.4498040" lon="-100.8479360">
        <ele>1680.3</ele>
        <time>2022-08-20T16:55:25Z</time>
      </trkpt>
      <trkpt lat="25.4497920" lon="-100.8479330">
        <ele>1680.3</ele>
        <time>2022-08-20T16:55:26Z</time>
      </trkpt>
      <trkpt lat="25.4498000" lon="-100.8479370">
        <ele>1680.3</ele>
        <time>2022-08-20T16:55:27Z</time>
      </trkpt>
      <trkpt lat="25.4498000" lon="-100.8479420">
        <ele>1680.2</ele>
        <time>2022-08-20T16:55:28Z</time>
      </trkpt>
      <trkpt lat="25.4498000" lon="-100.8479490">
        <ele>1680.2</ele>
        <time>2022-08-20T16:55:29Z</time>
      </trkpt>
      <trkpt lat="25.4497950" lon="-100.8479520">
        <ele>1680.2</ele>
        <time>2022-08-20T16:55:30Z</time>
      </trkpt>
      <trkpt lat="25.4497880" lon="-100.8479630">
        <ele>1680.2</ele>
        <time>2022-08-20T16:55:31Z</time>
      </trkpt>
      <trkpt lat="25.4497890" lon="-100.8479630">
        <ele>1680.2</ele>
        <time>2022-08-20T16:55:32Z</time>
      </trkpt>
      <trkpt lat="25.4497900" lon="-100.8479630">
        <ele>1680.2</ele>
        <time>2022-08-20T16:55:33Z</time>
      </trkpt>
      <trkpt lat="25.4497900" lon="-100.8479630">
        <ele>1680.2</ele>
        <time>2022-08-20T16:55:34Z</time>
      </trkpt>
      <trkpt lat="25.4497910" lon="-100.8479630">
        <ele>1680.2</ele>
        <time>2022-08-20T16:55:35Z</time>
      </trkpt>
      <trkpt lat="25.4497910" lon="-100.8479630">
        <ele>1680.2</ele>
        <time>2022-08-20T16:55:36Z</time>
      </trkpt>
      <trkpt lat="25.4497920" lon="-100.8479630">
        <ele>1680.2</ele>
        <time>2022-08-20T16:55:37Z</time>
      </trkpt>
      <trkpt lat="25.4497930" lon="-100.8479630">
        <ele>1680.2</ele>
        <time>2022-08-20T16:55:38Z</time>
      </trkpt>
      <trkpt lat="25.4497930" lon="-100.8479630">
        <ele>1680.2</ele>
        <time>2022-08-20T16:55:39Z</time>
      </trkpt>
      <trkpt lat="25.4497940" lon="-100.8479630">
        <ele>1680.2</ele>
        <time>2022-08-20T16:55:40Z</time>
      </trkpt>
      <trkpt lat="25.4497940" lon="-100.8479630">
        <ele>1680.2</ele>
        <time>2022-08-20T16:55:41Z</time>
      </trkpt>
      <trkpt lat="25.4497950" lon="-100.8479630">
        <ele>1680.2</ele>
        <time>2022-08-20T16:55:42Z</time>
      </trkpt>
      <trkpt lat="25.4497950" lon="-100.8479640">
        <ele>1680.2</ele>
        <time>2022-08-20T16:55:43Z</time>
      </trkpt>
      <trkpt lat="25.4497960" lon="-100.8479640">
        <ele>1680.2</ele>
        <time>2022-08-20T16:55:44Z</time>
      </trkpt>
      <trkpt lat="25.4497960" lon="-100.8479640">
        <ele>1680.2</ele>
        <time>2022-08-20T16:55:45Z</time>
      </trkpt>
      <trkpt lat="25.4497970" lon="-100.8479640">
        <ele>1680.2</ele>
        <time>2022-08-20T16:55:46Z</time>
      </trkpt>
      <trkpt lat="25.4497970" lon="-100.8479640">
        <ele>1680.2</ele>
        <time>2022-08-20T16:55:47Z</time>
      </trkpt>
      <trkpt lat="25.4497980" lon="-100.8479640">
        <ele>1680.2</ele>
        <time>2022-08-20T16:55:48Z</time>
      </trkpt>
      <trkpt lat="25.4497980" lon="-100.8479640">
        <ele>1680.2</ele>
        <time>2022-08-20T16:55:49Z</time>
      </trkpt>
      <trkpt lat="25.4497990" lon="-100.8479640">
        <ele>1680.2</ele>
        <time>2022-08-20T16:55:50Z</time>
      </trkpt>
      <trkpt lat="25.4497990" lon="-100.8479640">
        <ele>1680.2</ele>
        <time>2022-08-20T16:55:51Z</time>
      </trkpt>
      <trkpt lat="25.4498000" lon="-100.8479640">
        <ele>1680.2</ele>
        <time>2022-08-20T16:55:52Z</time>
      </trkpt>
      <trkpt lat="25.4498000" lon="-100.8479640">
        <ele>1680.2</ele>
        <time>2022-08-20T16:55:53Z</time>
      </trkpt>
      <trkpt lat="25.4498010" lon="-100.8479640">
        <ele>1680.2</ele>
        <time>2022-08-20T16:55:54Z</time>
      </trkpt>
      <trkpt lat="25.4498010" lon="-100.8479640">
        <ele>1680.2</ele>
        <time>2022-08-20T16:55:55Z</time>
      </trkpt>
      <trkpt lat="25.4498020" lon="-100.8479640">
        <ele>1680.2</ele>
        <time>2022-08-20T16:55:56Z</time>
      </trkpt>
      <trkpt lat="25.4498020" lon="-100.8479640">
        <ele>1680.2</ele>
        <time>2022-08-20T16:55:57Z</time>
      </trkpt>
      <trkpt lat="25.4498030" lon="-100.8479640">
        <ele>1680.2</ele>
        <time>2022-08-20T16:55:58Z</time>
      </trkpt>
      <trkpt lat="25.4498040" lon="-100.8479650">
        <ele>1680.2</ele>
        <time>2022-08-20T16:55:59Z</time>
      </trkpt>
      <trkpt lat="25.4498040" lon="-100.8479650">
        <ele>1680.2</ele>
        <time>2022-08-20T16:56:00Z</time>
      </trkpt>
      <trkpt lat="25.4498050" lon="-100.8479650">
        <ele>1680.2</ele>
        <time>2022-08-20T16:56:01Z</time>
      </trkpt>
      <trkpt lat="25.4498050" lon="-100.8479650">
        <ele>1680.2</ele>
        <time>2022-08-20T16:56:02Z</time>
      </trkpt>
      <trkpt lat="25.4498060" lon="-100.8479650">
        <ele>1680.2</ele>
        <time>2022-08-20T16:56:03Z</time>
      </trkpt>
      <trkpt lat="25.4498060" lon="-100.8479650">
        <ele>1680.2</ele>
        <time>2022-08-20T16:56:04Z</time>
      </trkpt>
      <trkpt lat="25.4498070" lon="-100.8479650">
        <ele>1680.2</ele>
        <time>2022-08-20T16:56:05Z</time>
      </trkpt>
      <trkpt lat="25.4498070" lon="-100.8479650">
        <ele>1680.2</ele>
        <time>2022-08-20T16:56:06Z</time>
      </trkpt>
      <trkpt lat="25.4498080" lon="-100.8479650">
        <ele>1680.2</ele>
        <time>2022-08-20T16:56:07Z</time>
      </trkpt>
      <trkpt lat="25.4498080" lon="-100.8479650">
        <ele>1680.2</ele>
        <time>2022-08-20T16:56:08Z</time>
      </trkpt>
      <trkpt lat="25.4498090" lon="-100.8479650">
        <ele>1680.2</ele>
        <time>2022-08-20T16:56:09Z</time>
      </trkpt>
      <trkpt lat="25.4498090" lon="-100.8479650">
        <ele>1680.2</ele>
        <time>2022-08-20T16:56:10Z</time>
      </trkpt>
      <trkpt lat="25.4498100" lon="-100.8479650">
        <ele>1680.2</ele>
        <time>2022-08-20T16:56:11Z</time>
      </trkpt>
      <trkpt lat="25.4498100" lon="-100.8479650">
        <ele>1680.2</ele>
        <time>2022-08-20T16:56:12Z</time>
      </trkpt>
      <trkpt lat="25.4498110" lon="-100.8479650">
        <ele>1680.2</ele>
        <time>2022-08-20T16:56:13Z</time>
      </trkpt>
      <trkpt lat="25.4498110" lon="-100.8479650">
        <ele>1680.2</ele>
        <time>2022-08-20T16:56:14Z</time>
      </trkpt>
      <trkpt lat="25.4498120" lon="-100.8479660">
        <ele>1680.2</ele>
        <time>2022-08-20T16:56:15Z</time>
      </trkpt>
      <trkpt lat="25.4498120" lon="-100.8479660">
        <ele>1680.2</ele>
        <time>2022-08-20T16:56:16Z</time>
      </trkpt>
      <trkpt lat="25.4498130" lon="-100.8479660">
        <ele>1680.2</ele>
        <time>2022-08-20T16:56:17Z</time>
      </trkpt>
      <trkpt lat="25.4498130" lon="-100.8479660">
        <ele>1680.2</ele>
        <time>2022-08-20T16:56:18Z</time>
      </trkpt>
      <trkpt lat="25.4498140" lon="-100.8479660">
        <ele>1680.2</ele>
        <time>2022-08-20T16:56:19Z</time>
      </trkpt>
      <trkpt lat="25.4498140" lon="-100.8479660">
        <ele>1680.2</ele>
        <time>2022-08-20T16:56:20Z</time>
      </trkpt>
      <trkpt lat="25.4498150" lon="-100.8479660">
        <ele>1680.2</ele>
        <time>2022-08-20T16:56:21Z</time>
      </trkpt>
      <trkpt lat="25.4498160" lon="-100.8479660">
        <ele>1680.2</ele>
        <time>2022-08-20T16:56:22Z</time>
      </trkpt>
      <trkpt lat="25.4498160" lon="-100.8479660">
        <ele>1680.2</ele>
        <time>2022-08-20T16:56:23Z</time>
      </trkpt>
      <trkpt lat="25.4498170" lon="-100.8479660">
        <ele>1680.2</ele>
        <time>2022-08-20T16:56:24Z</time>
      </trkpt>
      <trkpt lat="25.4498170" lon="-100.8479660">
        <ele>1680.2</ele>
        <time>2022-08-20T16:56:25Z</time>
      </trkpt>
      <trkpt lat="25.4498180" lon="-100.8479660">
        <ele>1680.2</ele>
        <time>2022-08-20T16:56:26Z</time>
      </trkpt>
      <trkpt lat="25.4498180" lon="-100.8479660">
        <ele>1680.2</ele>
        <time>2022-08-20T16:56:27Z</time>
      </trkpt>
      <trkpt lat="25.4498190" lon="-100.8479660">
        <ele>1680.2</ele>
        <time>2022-08-20T16:56:28Z</time>
      </trkpt>
      <trkpt lat="25.4498190" lon="-100.8479660">
        <ele>1680.2</ele>
        <time>2022-08-20T16:56:29Z</time>
      </trkpt>
      <trkpt lat="25.4498200" lon="-100.8479660">
        <ele>1680.2</ele>
        <time>2022-08-20T16:56:30Z</time>
      </trkpt>
      <trkpt lat="25.4498200" lon="-100.8479670">
        <ele>1680.2</ele>
        <time>2022-08-20T16:56:31Z</time>
      </trkpt>
      <trkpt lat="25.4498210" lon="-100.8479670">
        <ele>1680.2</ele>
        <time>2022-08-20T16:56:32Z</time>
      </trkpt>
      <trkpt lat="25.4498210" lon="-100.8479670">
        <ele>1680.2</ele>
        <time>2022-08-20T16:56:33Z</time>
      </trkpt>
      <trkpt lat="25.4498220" lon="-100.8479670">
        <ele>1680.2</ele>
        <time>2022-08-20T16:56:34Z</time>
      </trkpt>
      <trkpt lat="25.4498220" lon="-100.8479670">
        <ele>1680.2</ele>
        <time>2022-08-20T16:56:35Z</time>
      </trkpt>
      <trkpt lat="25.4498230" lon="-100.8479670">
        <ele>1680.2</ele>
        <time>2022-08-20T16:56:36Z</time>
      </trkpt>
      <trkpt lat="25.4498230" lon="-100.8479670">
        <ele>1680.2</ele>
        <time>2022-08-20T16:56:37Z</time>
      </trkpt>
      <trkpt lat="25.4498240" lon="-100.8479670">
        <ele>1680.2</ele>
        <time>2022-08-20T16:56:38Z</time>
      </trkpt>
      <trkpt lat="25.4498240" lon="-100.8479670">
        <ele>1680.2</ele>
        <time>2022-08-20T16:56:39Z</time>
      </trkpt>
      <trkpt lat="25.4498250" lon="-100.8479670">
        <ele>1680.2</ele>
        <time>2022-08-20T16:56:40Z</time>
      </trkpt>
      <trkpt lat="25.4498250" lon="-100.8479670">
        <ele>1680.2</ele>
        <time>2022-08-20T16:56:41Z</time>
      </trkpt>
      <trkpt lat="25.4498260" lon="-100.8479670">
        <ele>1680.2</ele>
        <time>2022-08-20T16:56:42Z</time>
      </trkpt>
      <trkpt lat="25.4498270" lon="-100.8479670">
        <ele>1680.2</ele>
        <time>2022-08-20T16:56:43Z</time>
      </trkpt>
      <trkpt lat="25.4498270" lon="-100.8479670">
        <ele>1680.2</ele>
        <time>2022-08-20T16:56:44Z</time>
      </trkpt>
      <trkpt lat="25.4498280" lon="-100.8479670">
        <ele>1680.2</ele>
        <time>2022-08-20T16:56:45Z</time>
      </trkpt>
      <trkpt lat="25.4498280" lon="-100.8479670">
        <ele>1680.2</ele>
        <time>2022-08-20T16:56:46Z</time>
      </trkpt>
      <trkpt lat="25.4498290" lon="-100.8479680">
        <ele>1680.2</ele>
        <time>2022-08-20T16:56:47Z</time>
      </trkpt>
      <trkpt lat="25.4498290" lon="-100.8479680">
        <ele>1680.2</ele>
        <time>2022-08-20T16:56:48Z</time>
      </trkpt>
      <trkpt lat="25.4498300" lon="-100.8479680">
        <ele>1680.2</ele>
        <time>2022-08-20T16:56:49Z</time>
      </trkpt>
      <trkpt lat="25.4498300" lon="-100.8479680">
        <ele>1680.2</ele>
        <time>2022-08-20T16:56:50Z</time>
      </trkpt>
      <trkpt lat="25.4498310" lon="-100.8479680">
        <ele>1680.2</ele>
        <time>2022-08-20T16:56:51Z</time>
      </trkpt>
      <trkpt lat="25.4498310" lon="-100.8479680">
        <ele>1680.2</ele>
        <time>2022-08-20T16:56:52Z</time>
      </trkpt>
      <trkpt lat="25.4498320" lon="-100.8479680">
        <ele>1680.2</ele>
        <time>2022-08-20T16:56:53Z</time>
      </trkpt>
      <trkpt lat="25.4498320" lon="-100.8479680">
        <ele>1680.2</ele>
        <time>2022-08-20T16:56:54Z</time>
      </trkpt>
      <trkpt lat="25.4498330" lon="-100.8479680">
        <ele>1680.2</ele>
        <time>2022-08-20T16:56:55Z</time>
      </trkpt>
      <trkpt lat="25.4498330" lon="-100.8479680">
        <ele>1680.2</ele>
        <time>2022-08-20T16:56:56Z</time>
      </trkpt>
      <trkpt lat="25.4498340" lon="-100.8479680">
        <ele>1680.2</ele>
        <time>2022-08-20T16:56:57Z</time>
      </trkpt>
      <trkpt lat="25.4498340" lon="-100.8479680">
        <ele>1680.2</ele>
        <time>2022-08-20T16:56:58Z</time>
      </trkpt>
      <trkpt lat="25.4498350" lon="-100.8479680">
        <ele>1680.2</ele>
        <time>2022-08-20T16:56:59Z</time>
      </trkpt>
      <trkpt lat="25.4498350" lon="-100.8479680">
        <ele>1680.2</ele>
        <time>2022-08-20T16:57:00Z</time>
      </trkpt>
      <trkpt lat="25.4498360" lon="-100.8479680">
        <ele>1680.2</ele>
        <time>2022-08-20T16:57:01Z</time>
      </trkpt>
      <trkpt lat="25.4498360" lon="-100.8479680">
        <ele>1680.2</ele>
        <time>2022-08-20T16:57:02Z</time>
      </trkpt>
      <trkpt lat="25.4498370" lon="-100.8479690">
        <ele>1680.1</ele>
        <time>2022-08-20T16:57:03Z</time>
      </trkpt>
      <trkpt lat="25.4498370" lon="-100.8479690">
        <ele>1680.1</ele>
        <time>2022-08-20T16:57:04Z</time>
      </trkpt>
      <trkpt lat="25.4498380" lon="-100.8479690">
        <ele>1680.1</ele>
        <time>2022-08-20T16:57:05Z</time>
      </trkpt>
      <trkpt lat="25.4498390" lon="-100.8479690">
        <ele>1680.1</ele>
        <time>2022-08-20T16:57:06Z</time>
      </trkpt>
      <trkpt lat="25.4498390" lon="-100.8479690">
        <ele>1680.1</ele>
        <time>2022-08-20T16:57:07Z</time>
      </trkpt>
      <trkpt lat="25.4498400" lon="-100.8479690">
        <ele>1680.1</ele>
        <time>2022-08-20T16:57:08Z</time>
      </trkpt>
      <trkpt lat="25.4498400" lon="-100.8479690">
        <ele>1680.1</ele>
        <time>2022-08-20T16:57:09Z</time>
      </trkpt>
      <trkpt lat="25.4498410" lon="-100.8479690">
        <ele>1680.1</ele>
        <time>2022-08-20T16:57:10Z</time>
      </trkpt>
      <trkpt lat="25.4498410" lon="-100.8479690">
        <ele>1680.1</ele>
        <time>2022-08-20T16:57:11Z</time>
      </trkpt>
      <trkpt lat="25.4498420" lon="-100.8479690">
        <ele>1680.1</ele>
        <time>2022-08-20T16:57:12Z</time>
      </trkpt>
      <trkpt lat="25.4498420" lon="-100.8479690">
        <ele>1680.1</ele>
        <time>2022-08-20T16:57:13Z</time>
      </trkpt>
      <trkpt lat="25.4498430" lon="-100.8479690">
        <ele>1680.1</ele>
        <time>2022-08-20T16:57:14Z</time>
      </trkpt>
      <trkpt lat="25.4498430" lon="-100.8479690">
        <ele>1680.1</ele>
        <time>2022-08-20T16:57:15Z</time>
      </trkpt>
      <trkpt lat="25.4498440" lon="-100.8479690">
        <ele>1680.1</ele>
        <time>2022-08-20T16:57:16Z</time>
      </trkpt>
      <trkpt lat="25.4498440" lon="-100.8479690">
        <ele>1680.1</ele>
        <time>2022-08-20T16:57:17Z</time>
      </trkpt>
      <trkpt lat="25.4498450" lon="-100.8479690">
        <ele>1680.1</ele>
        <time>2022-08-20T16:57:18Z</time>
      </trkpt>
      <trkpt lat="25.4498450" lon="-100.8479700">
        <ele>1680.1</ele>
        <time>2022-08-20T16:57:19Z</time>
      </trkpt>
      <trkpt lat="25.4498460" lon="-100.8479700">
        <ele>1680.1</ele>
        <time>2022-08-20T16:57:20Z</time>
      </trkpt>
      <trkpt lat="25.4498460" lon="-100.8479700">
        <ele>1680.1</ele>
        <time>2022-08-20T16:57:21Z</time>
      </trkpt>
      <trkpt lat="25.4498470" lon="-100.8479700">
        <ele>1680.1</ele>
        <time>2022-08-20T16:57:22Z</time>
      </trkpt>
      <trkpt lat="25.4498470" lon="-100.8479700">
        <ele>1680.1</ele>
        <time>2022-08-20T16:57:23Z</time>
      </trkpt>
      <trkpt lat="25.4498480" lon="-100.8479700">
        <ele>1680.1</ele>
        <time>2022-08-20T16:57:24Z</time>
      </trkpt>
      <trkpt lat="25.4498480" lon="-100.8479700">
        <ele>1680.1</ele>
        <time>2022-08-20T16:57:25Z</time>
      </trkpt>
      <trkpt lat="25.4498490" lon="-100.8479700">
        <ele>1680.1</ele>
        <time>2022-08-20T16:57:26Z</time>
      </trkpt>
      <trkpt lat="25.4498500" lon="-100.8479700">
        <ele>1680.1</ele>
        <time>2022-08-20T16:57:27Z</time>
      </trkpt>
      <trkpt lat="25.4498500" lon="-100.8479700">
        <ele>1680.1</ele>
        <time>2022-08-20T16:57:28Z</time>
      </trkpt>
      <trkpt lat="25.4498510" lon="-100.8479700">
        <ele>1680.1</ele>
        <time>2022-08-20T16:57:29Z</time>
      </trkpt>
      <trkpt lat="25.4498510" lon="-100.8479700">
        <ele>1680.1</ele>
        <time>2022-08-20T16:57:30Z</time>
      </trkpt>
      <trkpt lat="25.4498520" lon="-100.8479700">
        <ele>1680.1</ele>
        <time>2022-08-20T16:57:31Z</time>
      </trkpt>
      <trkpt lat="25.4498520" lon="-100.8479700">
        <ele>1680.1</ele>
        <time>2022-08-20T16:57:32Z</time>
      </trkpt>
      <trkpt lat="25.4498530" lon="-100.8479700">
        <ele>1680.1</ele>
        <time>2022-08-20T16:57:33Z</time>
      </trkpt>
      <trkpt lat="25.4498530" lon="-100.8479700">
        <ele>1680.1</ele>
        <time>2022-08-20T16:57:34Z</time>
      </trkpt>
      <trkpt lat="25.4498540" lon="-100.8479710">
        <ele>1680.1</ele>
        <time>2022-08-20T16:57:35Z</time>
      </trkpt>
      <trkpt lat="25.4498540" lon="-100.8479710">
        <ele>1680.1</ele>
        <time>2022-08-20T16:57:36Z</time>
      </trkpt>
      <trkpt lat="25.4498550" lon="-100.8479710">
        <ele>1680.1</ele>
        <time>2022-08-20T16:57:37Z</time>
      </trkpt>
      <trkpt lat="25.4498550" lon="-100.8479710">
        <ele>1680.1</ele>
        <time>2022-08-20T16:57:38Z</time>
      </trkpt>
      <trkpt lat="25.4498560" lon="-100.8479710">
        <ele>1680.1</ele>
        <time>2022-08-20T16:57:39Z</time>
      </trkpt>
      <trkpt lat="25.4498560" lon="-100.8479710">
        <ele>1680.1</ele>
        <time>2022-08-20T16:57:40Z</time>
      </trkpt>
      <trkpt lat="25.4498570" lon="-100.8479710">
        <ele>1680.1</ele>
        <time>2022-08-20T16:57:41Z</time>
      </trkpt>
      <trkpt lat="25.4498570" lon="-100.8479710">
        <ele>1680.1</ele>
        <time>2022-08-20T16:57:42Z</time>
      </trkpt>
      <trkpt lat="25.4498580" lon="-100.8479710">
        <ele>1680.1</ele>
        <time>2022-08-20T16:57:43Z</time>
      </trkpt>
      <trkpt lat="25.4498580" lon="-100.8479710">
        <ele>1680.1</ele>
        <time>2022-08-20T16:57:44Z</time>
      </trkpt>
      <trkpt lat="25.4498590" lon="-100.8479710">
        <ele>1680.1</ele>
        <time>2022-08-20T16:57:45Z</time>
      </trkpt>
      <trkpt lat="25.4498590" lon="-100.8479710">
        <ele>1680.1</ele>
        <time>2022-08-20T16:57:46Z</time>
      </trkpt>
      <trkpt lat="25.4498600" lon="-100.8479710">
        <ele>1680.1</ele>
        <time>2022-08-20T16:57:47Z</time>
      </trkpt>
      <trkpt lat="25.4498600" lon="-100.8479710">
        <ele>1680.1</ele>
        <time>2022-08-20T16:57:48Z</time>
      </trkpt>
      <trkpt lat="25.4498610" lon="-100.8479710">
        <ele>1680.1</ele>
        <time>2022-08-20T16:57:49Z</time>
      </trkpt>
      <trkpt lat="25.4498620" lon="-100.8479710">
        <ele>1680.1</ele>
        <time>2022-08-20T16:57:50Z</time>
      </trkpt>
      <trkpt lat="25.4498620" lon="-100.8479720">
        <ele>1680.1</ele>
        <time>2022-08-20T16:57:51Z</time>
      </trkpt>
      <trkpt lat="25.4498630" lon="-100.8479720">
        <ele>1680.1</ele>
        <time>2022-08-20T16:57:52Z</time>
      </trkpt>
      <trkpt lat="25.4498630" lon="-100.8479720">
        <ele>1680.1</ele>
        <time>2022-08-20T16:57:53Z</time>
      </trkpt>
      <trkpt lat="25.4498640" lon="-100.8479720">
        <ele>1680.1</ele>
        <time>2022-08-20T16:57:54Z</time>
      </trkpt>
      <trkpt lat="25.4498640" lon="-100.8479720">
        <ele>1680.1</ele>
        <time>2022-08-20T16:57:55Z</time>
      </trkpt>
      <trkpt lat="25.4498650" lon="-100.8479720">
        <ele>1680.1</ele>
        <time>2022-08-20T16:57:56Z</time>
      </trkpt>
      <trkpt lat="25.4498650" lon="-100.8479720">
        <ele>1680.1</ele>
        <time>2022-08-20T16:57:57Z</time>
      </trkpt>
      <trkpt lat="25.4498660" lon="-100.8479720">
        <ele>1680.1</ele>
        <time>2022-08-20T16:57:58Z</time>
      </trkpt>
      <trkpt lat="25.4498660" lon="-100.8479720">
        <ele>1680.1</ele>
        <time>2022-08-20T16:57:59Z</time>
      </trkpt>
      <trkpt lat="25.4498670" lon="-100.8479720">
        <ele>1680.1</ele>
        <time>2022-08-20T16:58:00Z</time>
      </trkpt>
      <trkpt lat="25.4498670" lon="-100.8479720">
        <ele>1680.1</ele>
        <time>2022-08-20T16:58:01Z</time>
      </trkpt>
      <trkpt lat="25.4498680" lon="-100.8479720">
        <ele>1680.1</ele>
        <time>2022-08-20T16:58:02Z</time>
      </trkpt>
      <trkpt lat="25.4498680" lon="-100.8479720">
        <ele>1680.1</ele>
        <time>2022-08-20T16:58:03Z</time>
      </trkpt>
      <trkpt lat="25.4498690" lon="-100.8479720">
        <ele>1680.1</ele>
        <time>2022-08-20T16:58:04Z</time>
      </trkpt>
      <trkpt lat="25.4498690" lon="-100.8479720">
        <ele>1680.1</ele>
        <time>2022-08-20T16:58:05Z</time>
      </trkpt>
      <trkpt lat="25.4498700" lon="-100.8479720">
        <ele>1680.1</ele>
        <time>2022-08-20T16:58:06Z</time>
      </trkpt>
      <trkpt lat="25.4498700" lon="-100.8479720">
        <ele>1680.1</ele>
        <time>2022-08-20T16:58:07Z</time>
      </trkpt>
      <trkpt lat="25.4498710" lon="-100.8479730">
        <ele>1680.1</ele>
        <time>2022-08-20T16:58:08Z</time>
      </trkpt>
      <trkpt lat="25.4498710" lon="-100.8479730">
        <ele>1680.1</ele>
        <time>2022-08-20T16:58:09Z</time>
      </trkpt>
      <trkpt lat="25.4498720" lon="-100.8479730">
        <ele>1680.1</ele>
        <time>2022-08-20T16:58:10Z</time>
      </trkpt>
      <trkpt lat="25.4498730" lon="-100.8479730">
        <ele>1680.1</ele>
        <time>2022-08-20T16:58:11Z</time>
      </trkpt>
      <trkpt lat="25.4498730" lon="-100.8479730">
        <ele>1680.1</ele>
        <time>2022-08-20T16:58:12Z</time>
      </trkpt>
      <trkpt lat="25.4498740" lon="-100.8479730">
        <ele>1680.1</ele>
        <time>2022-08-20T16:58:13Z</time>
      </trkpt>
      <trkpt lat="25.4498740" lon="-100.8479730">
        <ele>1680.1</ele>
        <time>2022-08-20T16:58:14Z</time>
      </trkpt>
      <trkpt lat="25.4498750" lon="-100.8479730">
        <ele>1680.1</ele>
        <time>2022-08-20T16:58:15Z</time>
      </trkpt>
      <trkpt lat="25.4498750" lon="-100.8479730">
        <ele>1680.1</ele>
        <time>2022-08-20T16:58:16Z</time>
      </trkpt>
      <trkpt lat="25.4498760" lon="-100.8479730">
        <ele>1680.1</ele>
        <time>2022-08-20T16:58:17Z</time>
      </trkpt>
      <trkpt lat="25.4498760" lon="-100.8479730">
        <ele>1680.1</ele>
        <time>2022-08-20T16:58:18Z</time>
      </trkpt>
      <trkpt lat="25.4498770" lon="-100.8479730">
        <ele>1680.1</ele>
        <time>2022-08-20T16:58:19Z</time>
      </trkpt>
      <trkpt lat="25.4498770" lon="-100.8479730">
        <ele>1680.1</ele>
        <time>2022-08-20T16:58:20Z</time>
      </trkpt>
      <trkpt lat="25.4498780" lon="-100.8479730">
        <ele>1680.1</ele>
        <time>2022-08-20T16:58:21Z</time>
      </trkpt>
      <trkpt lat="25.4498780" lon="-100.8479730">
        <ele>1680.1</ele>
        <time>2022-08-20T16:58:22Z</time>
      </trkpt>
      <trkpt lat="25.4498790" lon="-100.8479730">
        <ele>1680.1</ele>
        <time>2022-08-20T16:58:23Z</time>
      </trkpt>
      <trkpt lat="25.4498790" lon="-100.8479740">
        <ele>1680.1</ele>
        <time>2022-08-20T16:58:24Z</time>
      </trkpt>
      <trkpt lat="25.4498800" lon="-100.8479740">
        <ele>1680.1</ele>
        <time>2022-08-20T16:58:25Z</time>
      </trkpt>
      <trkpt lat="25.4498800" lon="-100.8479740">
        <ele>1680.1</ele>
        <time>2022-08-20T16:58:26Z</time>
      </trkpt>
      <trkpt lat="25.4498810" lon="-100.8479740">
        <ele>1680.1</ele>
        <time>2022-08-20T16:58:27Z</time>
      </trkpt>
      <trkpt lat="25.4498810" lon="-100.8479740">
        <ele>1680.1</ele>
        <time>2022-08-20T16:58:28Z</time>
      </trkpt>
      <trkpt lat="25.4498820" lon="-100.8479740">
        <ele>1680.1</ele>
        <time>2022-08-20T16:58:29Z</time>
      </trkpt>
      <trkpt lat="25.4498820" lon="-100.8479740">
        <ele>1680.1</ele>
        <time>2022-08-20T16:58:30Z</time>
      </trkpt>
      <trkpt lat="25.4498830" lon="-100.8479740">
        <ele>1680.1</ele>
        <time>2022-08-20T16:58:31Z</time>
      </trkpt>
      <trkpt lat="25.4498830" lon="-100.8479740">
        <ele>1680.1</ele>
        <time>2022-08-20T16:58:32Z</time>
      </trkpt>
      <trkpt lat="25.4498840" lon="-100.8479740">
        <ele>1680.1</ele>
        <time>2022-08-20T16:58:33Z</time>
      </trkpt>
      <trkpt lat="25.4498850" lon="-100.8479740">
        <ele>1680.1</ele>
        <time>2022-08-20T16:58:34Z</time>
      </trkpt>
      <trkpt lat="25.4498850" lon="-100.8479740">
        <ele>1680.1</ele>
        <time>2022-08-20T16:58:35Z</time>
      </trkpt>
      <trkpt lat="25.4498860" lon="-100.8479740">
        <ele>1680.1</ele>
        <time>2022-08-20T16:58:36Z</time>
      </trkpt>
      <trkpt lat="25.4498860" lon="-100.8479740">
        <ele>1680.1</ele>
        <time>2022-08-20T16:58:37Z</time>
      </trkpt>
      <trkpt lat="25.4498870" lon="-100.8479740">
        <ele>1680.1</ele>
        <time>2022-08-20T16:58:38Z</time>
      </trkpt>
      <trkpt lat="25.4498870" lon="-100.8479740">
        <ele>1680.1</ele>
        <time>2022-08-20T16:58:39Z</time>
      </trkpt>
      <trkpt lat="25.4498880" lon="-100.8479750">
        <ele>1680.1</ele>
        <time>2022-08-20T16:58:40Z</time>
      </trkpt>
      <trkpt lat="25.4498880" lon="-100.8479750">
        <ele>1680.1</ele>
        <time>2022-08-20T16:58:41Z</time>
      </trkpt>
      <trkpt lat="25.4498890" lon="-100.8479750">
        <ele>1680.1</ele>
        <time>2022-08-20T16:58:42Z</time>
      </trkpt>
      <trkpt lat="25.4498890" lon="-100.8479750">
        <ele>1680.1</ele>
        <time>2022-08-20T16:58:43Z</time>
      </trkpt>
      <trkpt lat="25.4498900" lon="-100.8479750">
        <ele>1680.1</ele>
        <time>2022-08-20T16:58:44Z</time>
      </trkpt>
      <trkpt lat="25.4498900" lon="-100.8479750">
        <ele>1680.1</ele>
        <time>2022-08-20T16:58:45Z</time>
      </trkpt>
      <trkpt lat="25.4498910" lon="-100.8479750">
        <ele>1680.1</ele>
        <time>2022-08-20T16:58:46Z</time>
      </trkpt>
      <trkpt lat="25.4498910" lon="-100.8479750">
        <ele>1680.1</ele>
        <time>2022-08-20T16:58:47Z</time>
      </trkpt>
      <trkpt lat="25.4498920" lon="-100.8479750">
        <ele>1680.1</ele>
        <time>2022-08-20T16:58:48Z</time>
      </trkpt>
      <trkpt lat="25.4498920" lon="-100.8479750">
        <ele>1680.1</ele>
        <time>2022-08-20T16:58:49Z</time>
      </trkpt>
      <trkpt lat="25.4498930" lon="-100.8479750">
        <ele>1680.1</ele>
        <time>2022-08-20T16:58:50Z</time>
      </trkpt>
      <trkpt lat="25.4498930" lon="-100.8479750">
        <ele>1680.1</ele>
        <time>2022-08-20T16:58:51Z</time>
      </trkpt>
      <trkpt lat="25.4498940" lon="-100.8479750">
        <ele>1680.1</ele>
        <time>2022-08-20T16:58:52Z</time>
      </trkpt>
      <trkpt lat="25.4498940" lon="-100.8479750">
        <ele>1680.1</ele>
        <time>2022-08-20T16:58:53Z</time>
      </trkpt>
      <trkpt lat="25.4498950" lon="-100.8479750">
        <ele>1680.1</ele>
        <time>2022-08-20T16:58:54Z</time>
      </trkpt>
      <trkpt lat="25.4498960" lon="-100.8479750">
        <ele>1680.1</ele>
        <time>2022-08-20T16:58:55Z</time>
      </trkpt>
      <trkpt lat="25.4498960" lon="-100.8479760">
        <ele>1680.1</ele>
        <time>2022-08-20T16:58:56Z</time>
      </trkpt>
      <trkpt lat="25.4498970" lon="-100.8479760">
        <ele>1680.1</ele>
        <time>2022-08-20T16:58:57Z</time>
      </trkpt>
      <trkpt lat="25.4498970" lon="-100.8479760">
        <ele>1680.1</ele>
        <time>2022-08-20T16:58:58Z</time>
      </trkpt>
      <trkpt lat="25.4498980" lon="-100.8479760">
        <ele>1680.1</ele>
        <time>2022-08-20T16:58:59Z</time>
      </trkpt>
      <trkpt lat="25.4498980" lon="-100.8479760">
        <ele>1680.1</ele>
        <time>2022-08-20T16:59:00Z</time>
      </trkpt>
      <trkpt lat="25.4498990" lon="-100.8479760">
        <ele>1680.1</ele>
        <time>2022-08-20T16:59:01Z</time>
      </trkpt>
      <trkpt lat="25.4498990" lon="-100.8479760">
        <ele>1680.1</ele>
        <time>2022-08-20T16:59:02Z</time>
      </trkpt>
      <trkpt lat="25.4499000" lon="-100.8479760">
        <ele>1680.1</ele>
        <time>2022-08-20T16:59:03Z</time>
      </trkpt>
      <trkpt lat="25.4499000" lon="-100.8479760">
        <ele>1680.1</ele>
        <time>2022-08-20T16:59:04Z</time>
      </trkpt>
      <trkpt lat="25.4499010" lon="-100.8479760">
        <ele>1680.1</ele>
        <time>2022-08-20T16:59:05Z</time>
      </trkpt>
      <trkpt lat="25.4499010" lon="-100.8479760">
        <ele>1680.1</ele>
        <time>2022-08-20T16:59:06Z</time>
      </trkpt>
      <trkpt lat="25.4499020" lon="-100.8479760">
        <ele>1680.1</ele>
        <time>2022-08-20T16:59:07Z</time>
      </trkpt>
      <trkpt lat="25.4499020" lon="-100.8479760">
        <ele>1680.1</ele>
        <time>2022-08-20T16:59:08Z</time>
      </trkpt>
      <trkpt lat="25.4499030" lon="-100.8479760">
        <ele>1680.1</ele>
        <time>2022-08-20T16:59:09Z</time>
      </trkpt>
      <trkpt lat="25.4499030" lon="-100.8479760">
        <ele>1680.1</ele>
        <time>2022-08-20T16:59:10Z</time>
      </trkpt>
      <trkpt lat="25.4499040" lon="-100.8479760">
        <ele>1680.1</ele>
        <time>2022-08-20T16:59:11Z</time>
      </trkpt>
      <trkpt lat="25.4499040" lon="-100.8479770">
        <ele>1680.1</ele>
        <time>2022-08-20T16:59:12Z</time>
      </trkpt>
      <trkpt lat="25.4499050" lon="-100.8479770">
        <ele>1680.1</ele>
        <time>2022-08-20T16:59:13Z</time>
      </trkpt>
      <trkpt lat="25.4499050" lon="-100.8479770">
        <ele>1680.1</ele>
        <time>2022-08-20T16:59:14Z</time>
      </trkpt>
      <trkpt lat="25.4499060" lon="-100.8479770">
        <ele>1680.1</ele>
        <time>2022-08-20T16:59:15Z</time>
      </trkpt>
      <trkpt lat="25.4499060" lon="-100.8479770">
        <ele>1680.1</ele>
        <time>2022-08-20T16:59:16Z</time>
      </trkpt>
      <trkpt lat="25.4499070" lon="-100.8479770">
        <ele>1680.1</ele>
        <time>2022-08-20T16:59:17Z</time>
      </trkpt>
      <trkpt lat="25.4499080" lon="-100.8479770">
        <ele>1680.1</ele>
        <time>2022-08-20T16:59:18Z</time>
      </trkpt>
      <trkpt lat="25.4499080" lon="-100.8479770">
        <ele>1680.1</ele>
        <time>2022-08-20T16:59:19Z</time>
      </trkpt>
      <trkpt lat="25.4499090" lon="-100.8479770">
        <ele>1680.0</ele>
        <time>2022-08-20T16:59:20Z</time>
      </trkpt>
      <trkpt lat="25.4499090" lon="-100.8479770">
        <ele>1680.0</ele>
        <time>2022-08-20T16:59:21Z</time>
      </trkpt>
      <trkpt lat="25.4499100" lon="-100.8479770">
        <ele>1680.0</ele>
        <time>2022-08-20T16:59:22Z</time>
      </trkpt>
      <trkpt lat="25.4499100" lon="-100.8479770">
        <ele>1680.0</ele>
        <time>2022-08-20T16:59:23Z</time>
      </trkpt>
      <trkpt lat="25.4499110" lon="-100.8479770">
        <ele>1680.0</ele>
        <time>2022-08-20T16:59:24Z</time>
      </trkpt>
      <trkpt lat="25.4499110" lon="-100.8479770">
        <ele>1680.0</ele>
        <time>2022-08-20T16:59:25Z</time>
      </trkpt>
      <trkpt lat="25.4499120" lon="-100.8479770">
        <ele>1680.0</ele>
        <time>2022-08-20T16:59:26Z</time>
      </trkpt>
      <trkpt lat="25.4499120" lon="-100.8479770">
        <ele>1680.0</ele>
        <time>2022-08-20T16:59:27Z</time>
      </trkpt>
      <trkpt lat="25.4499130" lon="-100.8479780">
        <ele>1680.0</ele>
        <time>2022-08-20T16:59:28Z</time>
      </trkpt>
      <trkpt lat="25.4499130" lon="-100.8479780">
        <ele>1680.0</ele>
        <time>2022-08-20T16:59:29Z</time>
      </trkpt>
      <trkpt lat="25.4499140" lon="-100.8479780">
        <ele>1680.0</ele>
        <time>2022-08-20T16:59:30Z</time>
      </trkpt>
      <trkpt lat="25.4499140" lon="-100.8479780">
        <ele>1680.0</ele>
        <time>2022-08-20T16:59:31Z</time>
      </trkpt>
      <trkpt lat="25.4499150" lon="-100.8479780">
        <ele>1680.0</ele>
        <time>2022-08-20T16:59:32Z</time>
      </trkpt>
      <trkpt lat="25.4499150" lon="-100.8479780">
        <ele>1680.0</ele>
        <time>2022-08-20T16:59:33Z</time>
      </trkpt>
      <trkpt lat="25.4499160" lon="-100.8479780">
        <ele>1680.0</ele>
        <time>2022-08-20T16:59:34Z</time>
      </trkpt>
      <trkpt lat="25.4499160" lon="-100.8479780">
        <ele>1680.0</ele>
        <time>2022-08-20T16:59:35Z</time>
      </trkpt>
      <trkpt lat="25.4499170" lon="-100.8479780">
        <ele>1680.0</ele>
        <time>2022-08-20T16:59:36Z</time>
      </trkpt>
      <trkpt lat="25.4499170" lon="-100.8479780">
        <ele>1680.0</ele>
        <time>2022-08-20T16:59:37Z</time>
      </trkpt>
      <trkpt lat="25.4499180" lon="-100.8479780">
        <ele>1680.0</ele>
        <time>2022-08-20T16:59:38Z</time>
      </trkpt>
      <trkpt lat="25.4499190" lon="-100.8479780">
        <ele>1680.0</ele>
        <time>2022-08-20T16:59:39Z</time>
      </trkpt>
      <trkpt lat="25.4499190" lon="-100.8479780">
        <ele>1680.0</ele>
        <time>2022-08-20T16:59:40Z</time>
      </trkpt>
      <trkpt lat="25.4499200" lon="-100.8479780">
        <ele>1680.0</ele>
        <time>2022-08-20T16:59:41Z</time>
      </trkpt>
      <trkpt lat="25.4499200" lon="-100.8479780">
        <ele>1680.0</ele>
        <time>2022-08-20T16:59:42Z</time>
      </trkpt>
      <trkpt lat="25.4499210" lon="-100.8479780">
        <ele>1680.0</ele>
        <time>2022-08-20T16:59:43Z</time>
      </trkpt>
      <trkpt lat="25.4499210" lon="-100.8479790">
        <ele>1680.0</ele>
        <time>2022-08-20T16:59:44Z</time>
      </trkpt>
      <trkpt lat="25.4499220" lon="-100.8479790">
        <ele>1680.0</ele>
        <time>2022-08-20T16:59:45Z</time>
      </trkpt>
      <trkpt lat="25.4499220" lon="-100.8479790">
        <ele>1680.0</ele>
        <time>2022-08-20T16:59:46Z</time>
      </trkpt>
      <trkpt lat="25.4499230" lon="-100.8479790">
        <ele>1680.0</ele>
        <time>2022-08-20T16:59:47Z</time>
      </trkpt>
      <trkpt lat="25.4499230" lon="-100.8479790">
        <ele>1680.0</ele>
        <time>2022-08-20T16:59:48Z</time>
      </trkpt>
      <trkpt lat="25.4499240" lon="-100.8479790">
        <ele>1680.0</ele>
        <time>2022-08-20T16:59:49Z</time>
      </trkpt>
      <trkpt lat="25.4499260" lon="-100.8479820">
        <ele>1680.0</ele>
        <time>2022-08-20T16:59:50Z</time>
      </trkpt>
      <trkpt lat="25.4499270" lon="-100.8479840">
        <ele>1680.0</ele>
        <time>2022-08-20T16:59:51Z</time>
      </trkpt>
      <trkpt lat="25.4499250" lon="-100.8479890">
        <ele>1680.0</ele>
        <time>2022-08-20T16:59:52Z</time>
      </trkpt>
      <trkpt lat="25.4499150" lon="-100.8479840">
        <ele>1680.0</ele>
        <time>2022-08-20T16:59:53Z</time>
      </trkpt>
      <trkpt lat="25.4499110" lon="-100.8479840">
        <ele>1680.0</ele>
        <time>2022-08-20T16:59:54Z</time>
      </trkpt>
      <trkpt lat="25.4499100" lon="-100.8479830">
        <ele>1680.0</ele>
        <time>2022-08-20T16:59:55Z</time>
      </trkpt>
      <trkpt lat="25.4499110" lon="-100.8479820">
        <ele>1680.0</ele>
        <time>2022-08-20T16:59:56Z</time>
      </trkpt>
      <trkpt lat="25.4499110" lon="-100.8479820">
        <ele>1680.0</ele>
        <time>2022-08-20T16:59:57Z</time>
      </trkpt>
      <trkpt lat="25.4499110" lon="-100.8479820">
        <ele>1680.0</ele>
        <time>2022-08-20T16:59:58Z</time>
      </trkpt>
      <trkpt lat="25.4499110" lon="-100.8479820">
        <ele>1680.0</ele>
        <time>2022-08-20T16:59:59Z</time>
      </trkpt>
      <trkpt lat="25.4499110" lon="-100.8479820">
        <ele>1680.0</ele>
        <time>2022-08-20T17:00:00Z</time>
      </trkpt>
      <trkpt lat="25.4499110" lon="-100.8479820">
        <ele>1680.0</ele>
        <time>2022-08-20T17:00:01Z</time>
      </trkpt>
      <trkpt lat="25.4499110" lon="-100.8479820">
        <ele>1680.0</ele>
        <time>2022-08-20T17:00:02Z</time>
      </trkpt>
      <trkpt lat="25.4499110" lon="-100.8479820">
        <ele>1680.0</ele>
        <time>2022-08-20T17:00:03Z</time>
      </trkpt>
      <trkpt lat="25.4499110" lon="-100.8479820">
        <ele>1680.0</ele>
        <time>2022-08-20T17:00:04Z</time>
      </trkpt>
      <trkpt lat="25.4499110" lon="-100.8479820">
        <ele>1680.0</ele>
        <time>2022-08-20T17:00:05Z</time>
      </trkpt>
      <trkpt lat="25.4499110" lon="-100.8479820">
        <ele>1680.0</ele>
        <time>2022-08-20T17:00:06Z</time>
      </trkpt>
      <trkpt lat="25.4499110" lon="-100.8479820">
        <ele>1680.0</ele>
        <time>2022-08-20T17:00:07Z</time>
      </trkpt>
      <trkpt lat="25.4499110" lon="-100.8479820">
        <ele>1680.0</ele>
        <time>2022-08-20T17:00:08Z</time>
      </trkpt>
      <trkpt lat="25.4499110" lon="-100.8479820">
        <ele>1680.0</ele>
        <time>2022-08-20T17:00:09Z</time>
      </trkpt>
      <trkpt lat="25.4499110" lon="-100.8479820">
        <ele>1680.0</ele>
        <time>2022-08-20T17:00:10Z</time>
      </trkpt>
      <trkpt lat="25.4499110" lon="-100.8479820">
        <ele>1680.0</ele>
        <time>2022-08-20T17:00:11Z</time>
      </trkpt>
      <trkpt lat="25.4499110" lon="-100.8479820">
        <ele>1680.0</ele>
        <time>2022-08-20T17:00:12Z</time>
      </trkpt>
      <trkpt lat="25.4499110" lon="-100.8479820">
        <ele>1680.0</ele>
        <time>2022-08-20T17:00:13Z</time>
      </trkpt>
      <trkpt lat="25.4499110" lon="-100.8479820">
        <ele>1680.0</ele>
        <time>2022-08-20T17:00:14Z</time>
      </trkpt>
      <trkpt lat="25.4499110" lon="-100.8479820">
        <ele>1680.0</ele>
        <time>2022-08-20T17:00:15Z</time>
      </trkpt>
      <trkpt lat="25.4499110" lon="-100.8479820">
        <ele>1680.0</ele>
        <time>2022-08-20T17:00:16Z</time>
      </trkpt>
      <trkpt lat="25.4499110" lon="-100.8479820">
        <ele>1680.0</ele>
        <time>2022-08-20T17:00:17Z</time>
      </trkpt>
      <trkpt lat="25.4499110" lon="-100.8479820">
        <ele>1680.0</ele>
        <time>2022-08-20T17:00:18Z</time>
      </trkpt>
      <trkpt lat="25.4499110" lon="-100.8479820">
        <ele>1680.0</ele>
        <time>2022-08-20T17:00:19Z</time>
      </trkpt>
      <trkpt lat="25.4499110" lon="-100.8479820">
        <ele>1680.0</ele>
        <time>2022-08-20T17:00:20Z</time>
      </trkpt>
      <trkpt lat="25.4499110" lon="-100.8479820">
        <ele>1680.0</ele>
        <time>2022-08-20T17:00:21Z</time>
      </trkpt>
      <trkpt lat="25.4499110" lon="-100.8479820">
        <ele>1680.0</ele>
        <time>2022-08-20T17:00:22Z</time>
      </trkpt>
      <trkpt lat="25.4499110" lon="-100.8479820">
        <ele>1680.0</ele>
        <time>2022-08-20T17:00:23Z</time>
      </trkpt>
      <trkpt lat="25.4499110" lon="-100.8479820">
        <ele>1680.0</ele>
        <time>2022-08-20T17:00:24Z</time>
      </trkpt>
      <trkpt lat="25.4499110" lon="-100.8479820">
        <ele>1680.0</ele>
        <time>2022-08-20T17:00:25Z</time>
      </trkpt>
      <trkpt lat="25.4499110" lon="-100.8479820">
        <ele>1680.0</ele>
        <time>2022-08-20T17:00:26Z</time>
      </trkpt>
      <trkpt lat="25.4499110" lon="-100.8479820">
        <ele>1680.0</ele>
        <time>2022-08-20T17:00:27Z</time>
      </trkpt>
      <trkpt lat="25.4499110" lon="-100.8479820">
        <ele>1680.0</ele>
        <time>2022-08-20T17:00:28Z</time>
      </trkpt>
      <trkpt lat="25.4499110" lon="-100.8479820">
        <ele>1680.0</ele>
        <time>2022-08-20T17:00:29Z</time>
      </trkpt>
      <trkpt lat="25.4499110" lon="-100.8479820">
        <ele>1680.0</ele>
        <time>2022-08-20T17:00:30Z</time>
      </trkpt>
      <trkpt lat="25.4499110" lon="-100.8479820">
        <ele>1680.0</ele>
        <time>2022-08-20T17:00:31Z</time>
      </trkpt>
      <trkpt lat="25.4499110" lon="-100.8479820">
        <ele>1680.0</ele>
        <time>2022-08-20T17:00:32Z</time>
      </trkpt>
      <trkpt lat="25.4499110" lon="-100.8479820">
        <ele>1680.0</ele>
        <time>2022-08-20T17:00:33Z</time>
      </trkpt>
      <trkpt lat="25.4499110" lon="-100.8479820">
        <ele>1680.0</ele>
        <time>2022-08-20T17:00:34Z</time>
      </trkpt>
      <trkpt lat="25.4499110" lon="-100.8479820">
        <ele>1680.0</ele>
        <time>2022-08-20T17:00:35Z</time>
      </trkpt>
      <trkpt lat="25.4499110" lon="-100.8479820">
        <ele>1680.0</ele>
        <time>2022-08-20T17:00:36Z</time>
      </trkpt>
      <trkpt lat="25.4499110" lon="-100.8479820">
        <ele>1680.0</ele>
        <time>2022-08-20T17:00:37Z</time>
      </trkpt>
      <trkpt lat="25.4499110" lon="-100.8479820">
        <ele>1680.0</ele>
        <time>2022-08-20T17:00:38Z</time>
      </trkpt>
      <trkpt lat="25.4499110" lon="-100.8479820">
        <ele>1680.0</ele>
        <time>2022-08-20T17:00:39Z</time>
      </trkpt>
      <trkpt lat="25.4499110" lon="-100.8479820">
        <ele>1680.0</ele>
        <time>2022-08-20T17:00:40Z</time>
      </trkpt>
      <trkpt lat="25.4499110" lon="-100.8479820">
        <ele>1680.0</ele>
        <time>2022-08-20T17:00:41Z</time>
      </trkpt>
      <trkpt lat="25.4499110" lon="-100.8479820">
        <ele>1680.0</ele>
        <time>2022-08-20T17:00:42Z</time>
      </trkpt>
      <trkpt lat="25.4499110" lon="-100.8479820">
        <ele>1680.0</ele>
        <time>2022-08-20T17:00:43Z</time>
      </trkpt>
      <trkpt lat="25.4499110" lon="-100.8479820">
        <ele>1680.0</ele>
        <time>2022-08-20T17:00:44Z</time>
      </trkpt>
      <trkpt lat="25.4499110" lon="-100.8479820">
        <ele>1680.0</ele>
        <time>2022-08-20T17:00:45Z</time>
      </trkpt>
      <trkpt lat="25.4499110" lon="-100.8479820">
        <ele>1680.0</ele>
        <time>2022-08-20T17:00:46Z</time>
      </trkpt>
      <trkpt lat="25.4499240" lon="-100.8479800">
        <ele>1680.0</ele>
        <time>2022-08-20T17:00:47Z</time>
      </trkpt>
      <trkpt lat="25.4499290" lon="-100.8479790">
        <ele>1680.0</ele>
        <time>2022-08-20T17:00:48Z</time>
      </trkpt>
      <trkpt lat="25.4499220" lon="-100.8479800">
        <ele>1679.9</ele>
        <time>2022-08-20T17:00:49Z</time>
      </trkpt>
      <trkpt lat="25.4499190" lon="-100.8479780">
        <ele>1679.9</ele>
        <time>2022-08-20T17:00:50Z</time>
      </trkpt>
      <trkpt lat="25.4499160" lon="-100.8479740">
        <ele>1679.9</ele>
        <time>2022-08-20T17:00:51Z</time>
      </trkpt>
      <trkpt lat="25.4499150" lon="-100.8479660">
        <ele>1679.9</ele>
        <time>2022-08-20T17:00:52Z</time>
      </trkpt>
      <trkpt lat="25.4499120" lon="-100.8479620">
        <ele>1679.9</ele>
        <time>2022-08-20T17:00:53Z</time>
      </trkpt>
      <trkpt lat="25.4499070" lon="-100.8479570">
        <ele>1679.9</ele>
        <time>2022-08-20T17:00:54Z</time>
      </trkpt>
      <trkpt lat="25.4499050" lon="-100.8479550">
        <ele>1679.9</ele>
        <time>2022-08-20T17:00:55Z</time>
      </trkpt>
      <trkpt lat="25.4499040" lon="-100.8479540">
        <ele>1679.9</ele>
        <time>2022-08-20T17:00:56Z</time>
      </trkpt>
      <trkpt lat="25.4499010" lon="-100.8479550">
        <ele>1679.9</ele>
        <time>2022-08-20T17:00:57Z</time>
      </trkpt>
      <trkpt lat="25.4498990" lon="-100.8479550">
        <ele>1679.9</ele>
        <time>2022-08-20T17:00:58Z</time>
      </trkpt>
      <trkpt lat="25.4498870" lon="-100.8479500">
        <ele>1679.9</ele>
        <time>2022-08-20T17:00:59Z</time>
      </trkpt>
      <trkpt lat="25.4498880" lon="-100.8479470">
        <ele>1679.9</ele>
        <time>2022-08-20T17:01:00Z</time>
      </trkpt>
      <trkpt lat="25.4498900" lon="-100.8479450">
        <ele>1679.9</ele>
        <time>2022-08-20T17:01:01Z</time>
      </trkpt>
      <trkpt lat="25.4498890" lon="-100.8479400">
        <ele>1679.8</ele>
        <time>2022-08-20T17:01:02Z</time>
      </trkpt>
      <trkpt lat="25.4498830" lon="-100.8479370">
        <ele>1679.8</ele>
        <time>2022-08-20T17:01:03Z</time>
      </trkpt>
      <trkpt lat="25.4498780" lon="-100.8479430">
        <ele>1679.8</ele>
        <time>2022-08-20T17:01:05Z</time>
      </trkpt>
      <trkpt lat="25.4498760" lon="-100.8479460">
        <ele>1679.8</ele>
        <time>2022-08-20T17:01:06Z</time>
      </trkpt>
      <trkpt lat="25.4498740" lon="-100.8479500">
        <ele>1679.8</ele>
        <time>2022-08-20T17:01:07Z</time>
      </trkpt>
      <trkpt lat="25.4498720" lon="-100.8479520">
        <ele>1679.8</ele>
        <time>2022-08-20T17:01:08Z</time>
      </trkpt>
      <trkpt lat="25.4498620" lon="-100.8479430">
        <ele>1679.8</ele>
        <time>2022-08-20T17:01:09Z</time>
      </trkpt>
      <trkpt lat="25.4498620" lon="-100.8479370">
        <ele>1679.8</ele>
        <time>2022-08-20T17:01:10Z</time>
      </trkpt>
      <trkpt lat="25.4498630" lon="-100.8479350">
        <ele>1679.8</ele>
        <time>2022-08-20T17:01:11Z</time>
      </trkpt>
      <trkpt lat="25.4498650" lon="-100.8479330">
        <ele>1679.8</ele>
        <time>2022-08-20T17:01:12Z</time>
      </trkpt>
      <trkpt lat="25.4498660" lon="-100.8479330">
        <ele>1679.8</ele>
        <time>2022-08-20T17:01:13Z</time>
      </trkpt>
      <trkpt lat="25.4498660" lon="-100.8479340">
        <ele>1679.8</ele>
        <time>2022-08-20T17:01:14Z</time>
      </trkpt>
      <trkpt lat="25.4498660" lon="-100.8479330">
        <ele>1679.8</ele>
        <time>2022-08-20T17:01:15Z</time>
      </trkpt>
      <trkpt lat="25.4498660" lon="-100.8479330">
        <ele>1679.8</ele>
        <time>2022-08-20T17:01:16Z</time>
      </trkpt>
      <trkpt lat="25.4498670" lon="-100.8479330">
        <ele>1679.8</ele>
        <time>2022-08-20T17:01:17Z</time>
      </trkpt>
      <trkpt lat="25.4498680" lon="-100.8479340">
        <ele>1679.8</ele>
        <time>2022-08-20T17:01:18Z</time>
      </trkpt>
      <trkpt lat="25.4498680" lon="-100.8479400">
        <ele>1679.7</ele>
        <time>2022-08-20T17:01:19Z</time>
      </trkpt>
      <trkpt lat="25.4498680" lon="-100.8479400">
        <ele>1679.7</ele>
        <time>2022-08-20T17:01:20Z</time>
      </trkpt>
      <trkpt lat="25.4498680" lon="-100.8479400">
        <ele>1679.7</ele>
        <time>2022-08-20T17:01:21Z</time>
      </trkpt>
      <trkpt lat="25.4498680" lon="-100.8479400">
        <ele>1679.7</ele>
        <time>2022-08-20T17:01:22Z</time>
      </trkpt>
      <trkpt lat="25.4498670" lon="-100.8479400">
        <ele>1679.7</ele>
        <time>2022-08-20T17:01:23Z</time>
      </trkpt>
      <trkpt lat="25.4498650" lon="-100.8479420">
        <ele>1679.7</ele>
        <time>2022-08-20T17:01:24Z</time>
      </trkpt>
      <trkpt lat="25.4498530" lon="-100.8479500">
        <ele>1679.7</ele>
        <time>2022-08-20T17:01:25Z</time>
      </trkpt>
      <trkpt lat="25.4498500" lon="-100.8479520">
        <ele>1679.7</ele>
        <time>2022-08-20T17:01:26Z</time>
      </trkpt>
      <trkpt lat="25.4498490" lon="-100.8479530">
        <ele>1679.7</ele>
        <time>2022-08-20T17:01:27Z</time>
      </trkpt>
      <trkpt lat="25.4498480" lon="-100.8479530">
        <ele>1679.7</ele>
        <time>2022-08-20T17:01:28Z</time>
      </trkpt>
      <trkpt lat="25.4498480" lon="-100.8479530">
        <ele>1679.7</ele>
        <time>2022-08-20T17:01:29Z</time>
      </trkpt>
      <trkpt lat="25.4498480" lon="-100.8479530">
        <ele>1679.7</ele>
        <time>2022-08-20T17:01:30Z</time>
      </trkpt>
      <trkpt lat="25.4498480" lon="-100.8479530">
        <ele>1679.7</ele>
        <time>2022-08-20T17:01:31Z</time>
      </trkpt>
      <trkpt lat="25.4498480" lon="-100.8479530">
        <ele>1679.7</ele>
        <time>2022-08-20T17:01:32Z</time>
      </trkpt>
      <trkpt lat="25.4498480" lon="-100.8479530">
        <ele>1679.7</ele>
        <time>2022-08-20T17:01:33Z</time>
      </trkpt>
      <trkpt lat="25.4498480" lon="-100.8479530">
        <ele>1679.7</ele>
        <time>2022-08-20T17:01:34Z</time>
      </trkpt>
      <trkpt lat="25.4498480" lon="-100.8479530">
        <ele>1679.7</ele>
        <time>2022-08-20T17:01:35Z</time>
      </trkpt>
      <trkpt lat="25.4498480" lon="-100.8479530">
        <ele>1679.7</ele>
        <time>2022-08-20T17:01:36Z</time>
      </trkpt>
      <trkpt lat="25.4498480" lon="-100.8479530">
        <ele>1679.7</ele>
        <time>2022-08-20T17:01:37Z</time>
      </trkpt>
      <trkpt lat="25.4498480" lon="-100.8479530">
        <ele>1679.7</ele>
        <time>2022-08-20T17:01:38Z</time>
      </trkpt>
      <trkpt lat="25.4498480" lon="-100.8479530">
        <ele>1679.7</ele>
        <time>2022-08-20T17:01:39Z</time>
      </trkpt>
      <trkpt lat="25.4498480" lon="-100.8479530">
        <ele>1679.7</ele>
        <time>2022-08-20T17:01:40Z</time>
      </trkpt>
      <trkpt lat="25.4498480" lon="-100.8479530">
        <ele>1679.7</ele>
        <time>2022-08-20T17:01:41Z</time>
      </trkpt>
      <trkpt lat="25.4498480" lon="-100.8479530">
        <ele>1679.7</ele>
        <time>2022-08-20T17:01:42Z</time>
      </trkpt>
      <trkpt lat="25.4498480" lon="-100.8479530">
        <ele>1679.7</ele>
        <time>2022-08-20T17:01:43Z</time>
      </trkpt>
      <trkpt lat="25.4498480" lon="-100.8479530">
        <ele>1679.7</ele>
        <time>2022-08-20T17:01:44Z</time>
      </trkpt>
      <trkpt lat="25.4498480" lon="-100.8479530">
        <ele>1679.7</ele>
        <time>2022-08-20T17:01:45Z</time>
      </trkpt>
      <trkpt lat="25.4498480" lon="-100.8479530">
        <ele>1679.7</ele>
        <time>2022-08-20T17:01:46Z</time>
      </trkpt>
      <trkpt lat="25.4498480" lon="-100.8479530">
        <ele>1679.7</ele>
        <time>2022-08-20T17:01:47Z</time>
      </trkpt>
      <trkpt lat="25.4498480" lon="-100.8479530">
        <ele>1679.7</ele>
        <time>2022-08-20T17:01:48Z</time>
      </trkpt>
      <trkpt lat="25.4498480" lon="-100.8479530">
        <ele>1679.7</ele>
        <time>2022-08-20T17:01:49Z</time>
      </trkpt>
      <trkpt lat="25.4498480" lon="-100.8479530">
        <ele>1679.7</ele>
        <time>2022-08-20T17:01:50Z</time>
      </trkpt>
      <trkpt lat="25.4498480" lon="-100.8479530">
        <ele>1679.7</ele>
        <time>2022-08-20T17:01:51Z</time>
      </trkpt>
      <trkpt lat="25.4498480" lon="-100.8479530">
        <ele>1679.7</ele>
        <time>2022-08-20T17:01:52Z</time>
      </trkpt>
      <trkpt lat="25.4498480" lon="-100.8479530">
        <ele>1679.7</ele>
        <time>2022-08-20T17:01:53Z</time>
      </trkpt>
      <trkpt lat="25.4498480" lon="-100.8479530">
        <ele>1679.7</ele>
        <time>2022-08-20T17:01:54Z</time>
      </trkpt>
      <trkpt lat="25.4498480" lon="-100.8479530">
        <ele>1679.7</ele>
        <time>2022-08-20T17:01:55Z</time>
      </trkpt>
      <trkpt lat="25.4498480" lon="-100.8479530">
        <ele>1679.7</ele>
        <time>2022-08-20T17:01:56Z</time>
      </trkpt>
      <trkpt lat="25.4498480" lon="-100.8479530">
        <ele>1679.7</ele>
        <time>2022-08-20T17:01:57Z</time>
      </trkpt>
      <trkpt lat="25.4498480" lon="-100.8479530">
        <ele>1679.7</ele>
        <time>2022-08-20T17:01:58Z</time>
      </trkpt>
      <trkpt lat="25.4498480" lon="-100.8479530">
        <ele>1679.7</ele>
        <time>2022-08-20T17:01:59Z</time>
      </trkpt>
      <trkpt lat="25.4498480" lon="-100.8479530">
        <ele>1679.7</ele>
        <time>2022-08-20T17:02:00Z</time>
      </trkpt>
      <trkpt lat="25.4498480" lon="-100.8479530">
        <ele>1679.7</ele>
        <time>2022-08-20T17:02:01Z</time>
      </trkpt>
      <trkpt lat="25.4498480" lon="-100.8479530">
        <ele>1679.7</ele>
        <time>2022-08-20T17:02:02Z</time>
      </trkpt>
      <trkpt lat="25.4498480" lon="-100.8479530">
        <ele>1679.7</ele>
        <time>2022-08-20T17:02:03Z</time>
      </trkpt>
      <trkpt lat="25.4498480" lon="-100.8479530">
        <ele>1679.7</ele>
        <time>2022-08-20T17:02:04Z</time>
      </trkpt>
      <trkpt lat="25.4498480" lon="-100.8479530">
        <ele>1679.7</ele>
        <time>2022-08-20T17:02:05Z</time>
      </trkpt>
      <trkpt lat="25.4498480" lon="-100.8479530">
        <ele>1679.7</ele>
        <time>2022-08-20T17:02:06Z</time>
      </trkpt>
      <trkpt lat="25.4498480" lon="-100.8479530">
        <ele>1679.7</ele>
        <time>2022-08-20T17:02:07Z</time>
      </trkpt>
      <trkpt lat="25.4498480" lon="-100.8479530">
        <ele>1679.7</ele>
        <time>2022-08-20T17:02:08Z</time>
      </trkpt>
      <trkpt lat="25.4498480" lon="-100.8479530">
        <ele>1679.7</ele>
        <time>2022-08-20T17:02:09Z</time>
      </trkpt>
      <trkpt lat="25.4498480" lon="-100.8479530">
        <ele>1679.7</ele>
        <time>2022-08-20T17:02:10Z</time>
      </trkpt>
      <trkpt lat="25.4498480" lon="-100.8479530">
        <ele>1679.7</ele>
        <time>2022-08-20T17:02:11Z</time>
      </trkpt>
      <trkpt lat="25.4498480" lon="-100.8479530">
        <ele>1679.7</ele>
        <time>2022-08-20T17:02:12Z</time>
      </trkpt>
      <trkpt lat="25.4498480" lon="-100.8479530">
        <ele>1679.7</ele>
        <time>2022-08-20T17:02:13Z</time>
      </trkpt>
      <trkpt lat="25.4498480" lon="-100.8479530">
        <ele>1679.7</ele>
        <time>2022-08-20T17:02:14Z</time>
      </trkpt>
      <trkpt lat="25.4498480" lon="-100.8479530">
        <ele>1679.7</ele>
        <time>2022-08-20T17:02:15Z</time>
      </trkpt>
      <trkpt lat="25.4498480" lon="-100.8479530">
        <ele>1679.7</ele>
        <time>2022-08-20T17:02:16Z</time>
      </trkpt>
      <trkpt lat="25.4498480" lon="-100.8479530">
        <ele>1679.7</ele>
        <time>2022-08-20T17:02:17Z</time>
      </trkpt>
      <trkpt lat="25.4498480" lon="-100.8479530">
        <ele>1679.7</ele>
        <time>2022-08-20T17:02:18Z</time>
      </trkpt>
      <trkpt lat="25.4498480" lon="-100.8479530">
        <ele>1679.7</ele>
        <time>2022-08-20T17:02:19Z</time>
      </trkpt>
      <trkpt lat="25.4498480" lon="-100.8479530">
        <ele>1679.7</ele>
        <time>2022-08-20T17:02:20Z</time>
      </trkpt>
      <trkpt lat="25.4498480" lon="-100.8479530">
        <ele>1679.7</ele>
        <time>2022-08-20T17:02:21Z</time>
      </trkpt>
      <trkpt lat="25.4498480" lon="-100.8479530">
        <ele>1679.7</ele>
        <time>2022-08-20T17:02:22Z</time>
      </trkpt>
      <trkpt lat="25.4498480" lon="-100.8479530">
        <ele>1679.7</ele>
        <time>2022-08-20T17:02:23Z</time>
      </trkpt>
      <trkpt lat="25.4498480" lon="-100.8479530">
        <ele>1679.7</ele>
        <time>2022-08-20T17:02:24Z</time>
      </trkpt>
      <trkpt lat="25.4498480" lon="-100.8479530">
        <ele>1679.7</ele>
        <time>2022-08-20T17:02:25Z</time>
      </trkpt>
      <trkpt lat="25.4498480" lon="-100.8479530">
        <ele>1679.7</ele>
        <time>2022-08-20T17:02:26Z</time>
      </trkpt>
      <trkpt lat="25.4498480" lon="-100.8479530">
        <ele>1679.7</ele>
        <time>2022-08-20T17:02:27Z</time>
      </trkpt>
      <trkpt lat="25.4498480" lon="-100.8479530">
        <ele>1679.7</ele>
        <time>2022-08-20T17:02:28Z</time>
      </trkpt>
      <trkpt lat="25.4498480" lon="-100.8479530">
        <ele>1679.7</ele>
        <time>2022-08-20T17:02:29Z</time>
      </trkpt>
      <trkpt lat="25.4498480" lon="-100.8479530">
        <ele>1679.7</ele>
        <time>2022-08-20T17:02:30Z</time>
      </trkpt>
      <trkpt lat="25.4498480" lon="-100.8479530">
        <ele>1679.7</ele>
        <time>2022-08-20T17:02:31Z</time>
      </trkpt>
      <trkpt lat="25.4498450" lon="-100.8479530">
        <ele>1679.7</ele>
        <time>2022-08-20T17:02:32Z</time>
      </trkpt>
      <trkpt lat="25.4498430" lon="-100.8479520">
        <ele>1679.7</ele>
        <time>2022-08-20T17:02:33Z</time>
      </trkpt>
      <trkpt lat="25.4498420" lon="-100.8479520">
        <ele>1679.7</ele>
        <time>2022-08-20T17:02:34Z</time>
      </trkpt>
      <trkpt lat="25.4498400" lon="-100.8479510">
        <ele>1679.7</ele>
        <time>2022-08-20T17:02:35Z</time>
      </trkpt>
      <trkpt lat="25.4498360" lon="-100.8479520">
        <ele>1679.7</ele>
        <time>2022-08-20T17:02:36Z</time>
      </trkpt>
      <trkpt lat="25.4498330" lon="-100.8479540">
        <ele>1679.7</ele>
        <time>2022-08-20T17:02:37Z</time>
      </trkpt>
      <trkpt lat="25.4498350" lon="-100.8479710">
        <ele>1679.7</ele>
        <time>2022-08-20T17:02:40Z</time>
      </trkpt>
      <trkpt lat="25.4498360" lon="-100.8479730">
        <ele>1679.7</ele>
        <time>2022-08-20T17:02:41Z</time>
      </trkpt>
      <trkpt lat="25.4498350" lon="-100.8479770">
        <ele>1679.6</ele>
        <time>2022-08-20T17:02:42Z</time>
      </trkpt>
      <trkpt lat="25.4498310" lon="-100.8479860">
        <ele>1679.6</ele>
        <time>2022-08-20T17:02:43Z</time>
      </trkpt>
      <trkpt lat="25.4498160" lon="-100.8480060">
        <ele>1679.6</ele>
        <time>2022-08-20T17:02:44Z</time>
      </trkpt>
      <trkpt lat="25.4497740" lon="-100.8480230">
        <ele>1679.5</ele>
        <time>2022-08-20T17:02:45Z</time>
      </trkpt>
      <trkpt lat="25.4496340" lon="-100.8480810">
        <ele>1679.2</ele>
        <time>2022-08-20T17:02:47Z</time>
      </trkpt>
      <trkpt lat="25.4495610" lon="-100.8481120">
        <ele>1679.1</ele>
        <time>2022-08-20T17:02:49Z</time>
      </trkpt>
      <trkpt lat="25.4494950" lon="-100.8481330">
        <ele>1678.9</ele>
        <time>2022-08-20T17:02:50Z</time>
      </trkpt>
      <trkpt lat="25.4494550" lon="-100.8481480">
        <ele>1678.8</ele>
        <time>2022-08-20T17:02:51Z</time>
      </trkpt>
      <trkpt lat="25.4494210" lon="-100.8481690">
        <ele>1678.8</ele>
        <time>2022-08-20T17:02:52Z</time>
      </trkpt>
      <trkpt lat="25.4493860" lon="-100.8482170">
        <ele>1678.3</ele>
        <time>2022-08-20T17:02:54Z</time>
      </trkpt>
      <trkpt lat="25.4493810" lon="-100.8482500">
        <ele>1678.2</ele>
        <time>2022-08-20T17:02:55Z</time>
      </trkpt>
      <trkpt lat="25.4493810" lon="-100.8482920">
        <ele>1678.1</ele>
        <time>2022-08-20T17:02:56Z</time>
      </trkpt>
      <trkpt lat="25.4493850" lon="-100.8483490">
        <ele>1678.0</ele>
        <time>2022-08-20T17:02:57Z</time>
      </trkpt>
      <trkpt lat="25.4493870" lon="-100.8484120">
        <ele>1677.9</ele>
        <time>2022-08-20T17:02:59Z</time>
      </trkpt>
      <trkpt lat="25.4493870" lon="-100.8484550">
        <ele>1677.8</ele>
        <time>2022-08-20T17:03:00Z</time>
      </trkpt>
      <trkpt lat="25.4493890" lon="-100.8485110">
        <ele>1677.7</ele>
        <time>2022-08-20T17:03:01Z</time>
      </trkpt>
      <trkpt lat="25.4493910" lon="-100.8485630">
        <ele>1677.6</ele>
        <time>2022-08-20T17:03:02Z</time>
      </trkpt>
      <trkpt lat="25.4493870" lon="-100.8486770">
        <ele>1677.3</ele>
        <time>2022-08-20T17:03:04Z</time>
      </trkpt>
      <trkpt lat="25.4493860" lon="-100.8487360">
        <ele>1677.2</ele>
        <time>2022-08-20T17:03:05Z</time>
      </trkpt>
      <trkpt lat="25.4493860" lon="-100.8487950">
        <ele>1677.1</ele>
        <time>2022-08-20T17:03:06Z</time>
      </trkpt>
      <trkpt lat="25.4493850" lon="-100.8488530">
        <ele>1677.0</ele>
        <time>2022-08-20T17:03:07Z</time>
      </trkpt>
      <trkpt lat="25.4493830" lon="-100.8489110">
        <ele>1676.9</ele>
        <time>2022-08-20T17:03:08Z</time>
      </trkpt>
      <trkpt lat="25.4493820" lon="-100.8489710">
        <ele>1676.9</ele>
        <time>2022-08-20T17:03:09Z</time>
      </trkpt>
      <trkpt lat="25.4493790" lon="-100.8490320">
        <ele>1676.8</ele>
        <time>2022-08-20T17:03:10Z</time>
      </trkpt>
      <trkpt lat="25.4493770" lon="-100.8490920">
        <ele>1676.7</ele>
        <time>2022-08-20T17:03:11Z</time>
      </trkpt>
      <trkpt lat="25.4493740" lon="-100.8491510">
        <ele>1676.7</ele>
        <time>2022-08-20T17:03:12Z</time>
      </trkpt>
      <trkpt lat="25.4493710" lon="-100.8492080">
        <ele>1676.7</ele>
        <time>2022-08-20T17:03:13Z</time>
      </trkpt>
      <trkpt lat="25.4493690" lon="-100.8492650">
        <ele>1676.6</ele>
        <time>2022-08-20T17:03:14Z</time>
      </trkpt>
      <trkpt lat="25.4493700" lon="-100.8493210">
        <ele>1676.6</ele>
        <time>2022-08-20T17:03:15Z</time>
      </trkpt>
      <trkpt lat="25.4493740" lon="-100.8493730">
        <ele>1676.5</ele>
        <time>2022-08-20T17:03:16Z</time>
      </trkpt>
      <trkpt lat="25.4493740" lon="-100.8494240">
        <ele>1676.5</ele>
        <time>2022-08-20T17:03:17Z</time>
      </trkpt>
      <trkpt lat="25.4493740" lon="-100.8494770">
        <ele>1676.5</ele>
        <time>2022-08-20T17:03:18Z</time>
      </trkpt>
      <trkpt lat="25.4493760" lon="-100.8495340">
        <ele>1676.4</ele>
        <time>2022-08-20T17:03:19Z</time>
      </trkpt>
      <trkpt lat="25.4493770" lon="-100.8495920">
        <ele>1676.4</ele>
        <time>2022-08-20T17:03:20Z</time>
      </trkpt>
      <trkpt lat="25.4493780" lon="-100.8496520">
        <ele>1676.4</ele>
        <time>2022-08-20T17:03:21Z</time>
      </trkpt>
      <trkpt lat="25.4493790" lon="-100.8497110">
        <ele>1676.3</ele>
        <time>2022-08-20T17:03:22Z</time>
      </trkpt>
      <trkpt lat="25.4493800" lon="-100.8497730">
        <ele>1676.3</ele>
        <time>2022-08-20T17:03:23Z</time>
      </trkpt>
      <trkpt lat="25.4493810" lon="-100.8498370">
        <ele>1676.3</ele>
        <time>2022-08-20T17:03:24Z</time>
      </trkpt>
      <trkpt lat="25.4493830" lon="-100.8499010">
        <ele>1676.2</ele>
        <time>2022-08-20T17:03:25Z</time>
      </trkpt>
      <trkpt lat="25.4493830" lon="-100.8499640">
        <ele>1676.2</ele>
        <time>2022-08-20T17:03:26Z</time>
      </trkpt>
      <trkpt lat="25.4493870" lon="-100.8500250">
        <ele>1676.1</ele>
        <time>2022-08-20T17:03:27Z</time>
      </trkpt>
      <trkpt lat="25.4493950" lon="-100.8500850">
        <ele>1676.0</ele>
        <time>2022-08-20T17:03:28Z</time>
      </trkpt>
      <trkpt lat="25.4494100" lon="-100.8501440">
        <ele>1676.0</ele>
        <time>2022-08-20T17:03:29Z</time>
      </trkpt>
      <trkpt lat="25.4494310" lon="-100.8502030">
        <ele>1675.9</ele>
        <time>2022-08-20T17:03:30Z</time>
      </trkpt>
      <trkpt lat="25.4494580" lon="-100.8502610">
        <ele>1675.8</ele>
        <time>2022-08-20T17:03:31Z</time>
      </trkpt>
      <trkpt lat="25.4494880" lon="-100.8503180">
        <ele>1675.7</ele>
        <time>2022-08-20T17:03:32Z</time>
      </trkpt>
      <trkpt lat="25.4495160" lon="-100.8503750">
        <ele>1675.7</ele>
        <time>2022-08-20T17:03:33Z</time>
      </trkpt>
      <trkpt lat="25.4495450" lon="-100.8504320">
        <ele>1675.6</ele>
        <time>2022-08-20T17:03:34Z</time>
      </trkpt>
      <trkpt lat="25.4495740" lon="-100.8504890">
        <ele>1675.5</ele>
        <time>2022-08-20T17:03:35Z</time>
      </trkpt>
      <trkpt lat="25.4496050" lon="-100.8505460">
        <ele>1675.4</ele>
        <time>2022-08-20T17:03:36Z</time>
      </trkpt>
      <trkpt lat="25.4496390" lon="-100.8506010">
        <ele>1675.3</ele>
        <time>2022-08-20T17:03:37Z</time>
      </trkpt>
      <trkpt lat="25.4496750" lon="-100.8506500">
        <ele>1675.2</ele>
        <time>2022-08-20T17:03:38Z</time>
      </trkpt>
      <trkpt lat="25.4497130" lon="-100.8507000">
        <ele>1675.2</ele>
        <time>2022-08-20T17:03:39Z</time>
      </trkpt>
      <trkpt lat="25.4497510" lon="-100.8507510">
        <ele>1675.1</ele>
        <time>2022-08-20T17:03:40Z</time>
      </trkpt>
      <trkpt lat="25.4497880" lon="-100.8508040">
        <ele>1675.0</ele>
        <time>2022-08-20T17:03:41Z</time>
      </trkpt>
      <trkpt lat="25.4498250" lon="-100.8508540">
        <ele>1675.0</ele>
        <time>2022-08-20T17:03:42Z</time>
      </trkpt>
      <trkpt lat="25.4498620" lon="-100.8509050">
        <ele>1674.9</ele>
        <time>2022-08-20T17:03:43Z</time>
      </trkpt>
      <trkpt lat="25.4498980" lon="-100.8509550">
        <ele>1674.8</ele>
        <time>2022-08-20T17:03:44Z</time>
      </trkpt>
      <trkpt lat="25.4499310" lon="-100.8510050">
        <ele>1674.7</ele>
        <time>2022-08-20T17:03:45Z</time>
      </trkpt>
      <trkpt lat="25.4499650" lon="-100.8510550">
        <ele>1674.7</ele>
        <time>2022-08-20T17:03:46Z</time>
      </trkpt>
      <trkpt lat="25.4500010" lon="-100.8511050">
        <ele>1674.6</ele>
        <time>2022-08-20T17:03:47Z</time>
      </trkpt>
      <trkpt lat="25.4500420" lon="-100.8511550">
        <ele>1674.5</ele>
        <time>2022-08-20T17:03:48Z</time>
      </trkpt>
      <trkpt lat="25.4500820" lon="-100.8512050">
        <ele>1674.4</ele>
        <time>2022-08-20T17:03:49Z</time>
      </trkpt>
      <trkpt lat="25.4501190" lon="-100.8512550">
        <ele>1674.3</ele>
        <time>2022-08-20T17:03:50Z</time>
      </trkpt>
      <trkpt lat="25.4501560" lon="-100.8513080">
        <ele>1674.3</ele>
        <time>2022-08-20T17:03:51Z</time>
      </trkpt>
      <trkpt lat="25.4501920" lon="-100.8513590">
        <ele>1674.2</ele>
        <time>2022-08-20T17:03:52Z</time>
      </trkpt>
      <trkpt lat="25.4502260" lon="-100.8514110">
        <ele>1674.1</ele>
        <time>2022-08-20T17:03:53Z</time>
      </trkpt>
      <trkpt lat="25.4502600" lon="-100.8514600">
        <ele>1674.1</ele>
        <time>2022-08-20T17:03:54Z</time>
      </trkpt>
      <trkpt lat="25.4502930" lon="-100.8515090">
        <ele>1674.0</ele>
        <time>2022-08-20T17:03:55Z</time>
      </trkpt>
      <trkpt lat="25.4503260" lon="-100.8515590">
        <ele>1674.0</ele>
        <time>2022-08-20T17:03:56Z</time>
      </trkpt>
      <trkpt lat="25.4503580" lon="-100.8516100">
        <ele>1673.9</ele>
        <time>2022-08-20T17:03:57Z</time>
      </trkpt>
      <trkpt lat="25.4503890" lon="-100.8516580">
        <ele>1673.8</ele>
        <time>2022-08-20T17:03:58Z</time>
      </trkpt>
      <trkpt lat="25.4504230" lon="-100.8517040">
        <ele>1673.8</ele>
        <time>2022-08-20T17:03:59Z</time>
      </trkpt>
      <trkpt lat="25.4504560" lon="-100.8517470">
        <ele>1673.8</ele>
        <time>2022-08-20T17:04:00Z</time>
      </trkpt>
      <trkpt lat="25.4504870" lon="-100.8517910">
        <ele>1673.7</ele>
        <time>2022-08-20T17:04:01Z</time>
      </trkpt>
      <trkpt lat="25.4505150" lon="-100.8518350">
        <ele>1673.7</ele>
        <time>2022-08-20T17:04:02Z</time>
      </trkpt>
      <trkpt lat="25.4505410" lon="-100.8518780">
        <ele>1673.7</ele>
        <time>2022-08-20T17:04:03Z</time>
      </trkpt>
      <trkpt lat="25.4505670" lon="-100.8519190">
        <ele>1673.6</ele>
        <time>2022-08-20T17:04:04Z</time>
      </trkpt>
      <trkpt lat="25.4505920" lon="-100.8519540">
        <ele>1673.6</ele>
        <time>2022-08-20T17:04:05Z</time>
      </trkpt>
      <trkpt lat="25.4506170" lon="-100.8519860">
        <ele>1673.5</ele>
        <time>2022-08-20T17:04:06Z</time>
      </trkpt>
      <trkpt lat="25.4506510" lon="-100.8520280">
        <ele>1673.5</ele>
        <time>2022-08-20T17:04:07Z</time>
      </trkpt>
      <trkpt lat="25.4506790" lon="-100.8520750">
        <ele>1673.4</ele>
        <time>2022-08-20T17:04:08Z</time>
      </trkpt>
      <trkpt lat="25.4507030" lon="-100.8521250">
        <ele>1673.3</ele>
        <time>2022-08-20T17:04:09Z</time>
      </trkpt>
      <trkpt lat="25.4507220" lon="-100.8521740">
        <ele>1673.3</ele>
        <time>2022-08-20T17:04:10Z</time>
      </trkpt>
      <trkpt lat="25.4507360" lon="-100.8522270">
        <ele>1673.2</ele>
        <time>2022-08-20T17:04:11Z</time>
      </trkpt>
      <trkpt lat="25.4507460" lon="-100.8522840">
        <ele>1673.1</ele>
        <time>2022-08-20T17:04:12Z</time>
      </trkpt>
      <trkpt lat="25.4507510" lon="-100.8523420">
        <ele>1673.0</ele>
        <time>2022-08-20T17:04:13Z</time>
      </trkpt>
      <trkpt lat="25.4507560" lon="-100.8524000">
        <ele>1672.8</ele>
        <time>2022-08-20T17:04:14Z</time>
      </trkpt>
      <trkpt lat="25.4507660" lon="-100.8524580">
        <ele>1672.7</ele>
        <time>2022-08-20T17:04:15Z</time>
      </trkpt>
      <trkpt lat="25.4507760" lon="-100.8525150">
        <ele>1672.5</ele>
        <time>2022-08-20T17:04:16Z</time>
      </trkpt>
      <trkpt lat="25.4507810" lon="-100.8525700">
        <ele>1672.4</ele>
        <time>2022-08-20T17:04:17Z</time>
      </trkpt>
      <trkpt lat="25.4507850" lon="-100.8526260">
        <ele>1672.3</ele>
        <time>2022-08-20T17:04:18Z</time>
      </trkpt>
      <trkpt lat="25.4507880" lon="-100.8526820">
        <ele>1672.1</ele>
        <time>2022-08-20T17:04:19Z</time>
      </trkpt>
      <trkpt lat="25.4507910" lon="-100.8527380">
        <ele>1672.0</ele>
        <time>2022-08-20T17:04:20Z</time>
      </trkpt>
      <trkpt lat="25.4507950" lon="-100.8527980">
        <ele>1671.9</ele>
        <time>2022-08-20T17:04:21Z</time>
      </trkpt>
      <trkpt lat="25.4507990" lon="-100.8528640">
        <ele>1671.7</ele>
        <time>2022-08-20T17:04:22Z</time>
      </trkpt>
      <trkpt lat="25.4508040" lon="-100.8529330">
        <ele>1671.6</ele>
        <time>2022-08-20T17:04:23Z</time>
      </trkpt>
      <trkpt lat="25.4508110" lon="-100.8530020">
        <ele>1671.5</ele>
        <time>2022-08-20T17:04:24Z</time>
      </trkpt>
      <trkpt lat="25.4508190" lon="-100.8530680">
        <ele>1671.4</ele>
        <time>2022-08-20T17:04:25Z</time>
      </trkpt>
      <trkpt lat="25.4508270" lon="-100.8531370">
        <ele>1671.3</ele>
        <time>2022-08-20T17:04:26Z</time>
      </trkpt>
      <trkpt lat="25.4508350" lon="-100.8532060">
        <ele>1671.2</ele>
        <time>2022-08-20T17:04:27Z</time>
      </trkpt>
      <trkpt lat="25.4508460" lon="-100.8532740">
        <ele>1671.1</ele>
        <time>2022-08-20T17:04:28Z</time>
      </trkpt>
      <trkpt lat="25.4508570" lon="-100.8533420">
        <ele>1671.0</ele>
        <time>2022-08-20T17:04:29Z</time>
      </trkpt>
      <trkpt lat="25.4508630" lon="-100.8534120">
        <ele>1670.9</ele>
        <time>2022-08-20T17:04:30Z</time>
      </trkpt>
      <trkpt lat="25.4508660" lon="-100.8534840">
        <ele>1670.8</ele>
        <time>2022-08-20T17:04:31Z</time>
      </trkpt>
      <trkpt lat="25.4508700" lon="-100.8535530">
        <ele>1670.8</ele>
        <time>2022-08-20T17:04:32Z</time>
      </trkpt>
      <trkpt lat="25.4508730" lon="-100.8536210">
        <ele>1670.7</ele>
        <time>2022-08-20T17:04:33Z</time>
      </trkpt>
      <trkpt lat="25.4508750" lon="-100.8536850">
        <ele>1670.6</ele>
        <time>2022-08-20T17:04:34Z</time>
      </trkpt>
      <trkpt lat="25.4508800" lon="-100.8537480">
        <ele>1670.5</ele>
        <time>2022-08-20T17:04:35Z</time>
      </trkpt>
      <trkpt lat="25.4508860" lon="-100.8538080">
        <ele>1670.3</ele>
        <time>2022-08-20T17:04:36Z</time>
      </trkpt>
      <trkpt lat="25.4508910" lon="-100.8538670">
        <ele>1670.2</ele>
        <time>2022-08-20T17:04:37Z</time>
      </trkpt>
      <trkpt lat="25.4508930" lon="-100.8539260">
        <ele>1670.1</ele>
        <time>2022-08-20T17:04:38Z</time>
      </trkpt>
      <trkpt lat="25.4508960" lon="-100.8539870">
        <ele>1670.0</ele>
        <time>2022-08-20T17:04:39Z</time>
      </trkpt>
      <trkpt lat="25.4509010" lon="-100.8540470">
        <ele>1669.8</ele>
        <time>2022-08-20T17:04:40Z</time>
      </trkpt>
      <trkpt lat="25.4509090" lon="-100.8541080">
        <ele>1669.7</ele>
        <time>2022-08-20T17:04:41Z</time>
      </trkpt>
      <trkpt lat="25.4509180" lon="-100.8541740">
        <ele>1669.5</ele>
        <time>2022-08-20T17:04:42Z</time>
      </trkpt>
      <trkpt lat="25.4509270" lon="-100.8542440">
        <ele>1669.4</ele>
        <time>2022-08-20T17:04:43Z</time>
      </trkpt>
      <trkpt lat="25.4509350" lon="-100.8543130">
        <ele>1669.3</ele>
        <time>2022-08-20T17:04:44Z</time>
      </trkpt>
      <trkpt lat="25.4509430" lon="-100.8543840">
        <ele>1669.1</ele>
        <time>2022-08-20T17:04:45Z</time>
      </trkpt>
      <trkpt lat="25.4509520" lon="-100.8544570">
        <ele>1669.0</ele>
        <time>2022-08-20T17:04:46Z</time>
      </trkpt>
      <trkpt lat="25.4509620" lon="-100.8545330">
        <ele>1668.9</ele>
        <time>2022-08-20T17:04:47Z</time>
      </trkpt>
      <trkpt lat="25.4509690" lon="-100.8546120">
        <ele>1668.7</ele>
        <time>2022-08-20T17:04:48Z</time>
      </trkpt>
      <trkpt lat="25.4509740" lon="-100.8546930">
        <ele>1668.6</ele>
        <time>2022-08-20T17:04:49Z</time>
      </trkpt>
      <trkpt lat="25.4509800" lon="-100.8547730">
        <ele>1668.5</ele>
        <time>2022-08-20T17:04:50Z</time>
      </trkpt>
      <trkpt lat="25.4509850" lon="-100.8548530">
        <ele>1668.3</ele>
        <time>2022-08-20T17:04:51Z</time>
      </trkpt>
      <trkpt lat="25.4509900" lon="-100.8549290">
        <ele>1668.2</ele>
        <time>2022-08-20T17:04:52Z</time>
      </trkpt>
      <trkpt lat="25.4509930" lon="-100.8550060">
        <ele>1668.0</ele>
        <time>2022-08-20T17:04:53Z</time>
      </trkpt>
      <trkpt lat="25.4509980" lon="-100.8550850">
        <ele>1667.9</ele>
        <time>2022-08-20T17:04:54Z</time>
      </trkpt>
      <trkpt lat="25.4510010" lon="-100.8551620">
        <ele>1667.8</ele>
        <time>2022-08-20T17:04:55Z</time>
      </trkpt>
      <trkpt lat="25.4510050" lon="-100.8552390">
        <ele>1667.7</ele>
        <time>2022-08-20T17:04:56Z</time>
      </trkpt>
      <trkpt lat="25.4510060" lon="-100.8553160">
        <ele>1667.6</ele>
        <time>2022-08-20T17:04:57Z</time>
      </trkpt>
      <trkpt lat="25.4510070" lon="-100.8553930">
        <ele>1667.5</ele>
        <time>2022-08-20T17:04:58Z</time>
      </trkpt>
      <trkpt lat="25.4510070" lon="-100.8554720">
        <ele>1667.4</ele>
        <time>2022-08-20T17:04:59Z</time>
      </trkpt>
      <trkpt lat="25.4510050" lon="-100.8555530">
        <ele>1667.3</ele>
        <time>2022-08-20T17:05:00Z</time>
      </trkpt>
      <trkpt lat="25.4510020" lon="-100.8556330">
        <ele>1667.2</ele>
        <time>2022-08-20T17:05:01Z</time>
      </trkpt>
      <trkpt lat="25.4510000" lon="-100.8557130">
        <ele>1667.1</ele>
        <time>2022-08-20T17:05:02Z</time>
      </trkpt>
      <trkpt lat="25.4510020" lon="-100.8557900">
        <ele>1667.0</ele>
        <time>2022-08-20T17:05:03Z</time>
      </trkpt>
      <trkpt lat="25.4510050" lon="-100.8558630">
        <ele>1666.9</ele>
        <time>2022-08-20T17:05:04Z</time>
      </trkpt>
      <trkpt lat="25.4510020" lon="-100.8559370">
        <ele>1666.8</ele>
        <time>2022-08-20T17:05:05Z</time>
      </trkpt>
      <trkpt lat="25.4509980" lon="-100.8560050">
        <ele>1666.7</ele>
        <time>2022-08-20T17:05:06Z</time>
      </trkpt>
      <trkpt lat="25.4509950" lon="-100.8560690">
        <ele>1666.6</ele>
        <time>2022-08-20T17:05:07Z</time>
      </trkpt>
      <trkpt lat="25.4509930" lon="-100.8561240">
        <ele>1666.5</ele>
        <time>2022-08-20T17:05:08Z</time>
      </trkpt>
      <trkpt lat="25.4509910" lon="-100.8561740">
        <ele>1666.4</ele>
        <time>2022-08-20T17:05:09Z</time>
      </trkpt>
      <trkpt lat="25.4509890" lon="-100.8562140">
        <ele>1666.4</ele>
        <time>2022-08-20T17:05:10Z</time>
      </trkpt>
      <trkpt lat="25.4509870" lon="-100.8562550">
        <ele>1666.3</ele>
        <time>2022-08-20T17:05:11Z</time>
      </trkpt>
      <trkpt lat="25.4509830" lon="-100.8563080">
        <ele>1666.2</ele>
        <time>2022-08-20T17:05:12Z</time>
      </trkpt>
      <trkpt lat="25.4509800" lon="-100.8563440">
        <ele>1666.2</ele>
        <time>2022-08-20T17:05:13Z</time>
      </trkpt>
      <trkpt lat="25.4509750" lon="-100.8564060">
        <ele>1666.1</ele>
        <time>2022-08-20T17:05:14Z</time>
      </trkpt>
      <trkpt lat="25.4509720" lon="-100.8564630">
        <ele>1666.1</ele>
        <time>2022-08-20T17:05:15Z</time>
      </trkpt>
      <trkpt lat="25.4509700" lon="-100.8565200">
        <ele>1666.0</ele>
        <time>2022-08-20T17:05:16Z</time>
      </trkpt>
      <trkpt lat="25.4509700" lon="-100.8565810">
        <ele>1666.0</ele>
        <time>2022-08-20T17:05:17Z</time>
      </trkpt>
      <trkpt lat="25.4509680" lon="-100.8566440">
        <ele>1665.9</ele>
        <time>2022-08-20T17:05:18Z</time>
      </trkpt>
      <trkpt lat="25.4509690" lon="-100.8567080">
        <ele>1665.8</ele>
        <time>2022-08-20T17:05:19Z</time>
      </trkpt>
      <trkpt lat="25.4509730" lon="-100.8567720">
        <ele>1665.8</ele>
        <time>2022-08-20T17:05:20Z</time>
      </trkpt>
      <trkpt lat="25.4509810" lon="-100.8568360">
        <ele>1665.7</ele>
        <time>2022-08-20T17:05:21Z</time>
      </trkpt>
      <trkpt lat="25.4509900" lon="-100.8568960">
        <ele>1665.7</ele>
        <time>2022-08-20T17:05:22Z</time>
      </trkpt>
      <trkpt lat="25.4510030" lon="-100.8569580">
        <ele>1665.6</ele>
        <time>2022-08-20T17:05:23Z</time>
      </trkpt>
      <trkpt lat="25.4510190" lon="-100.8570210">
        <ele>1665.6</ele>
        <time>2022-08-20T17:05:24Z</time>
      </trkpt>
      <trkpt lat="25.4510340" lon="-100.8570830">
        <ele>1665.5</ele>
        <time>2022-08-20T17:05:25Z</time>
      </trkpt>
      <trkpt lat="25.4510460" lon="-100.8571470">
        <ele>1665.5</ele>
        <time>2022-08-20T17:05:26Z</time>
      </trkpt>
      <trkpt lat="25.4510610" lon="-100.8572110">
        <ele>1665.4</ele>
        <time>2022-08-20T17:05:27Z</time>
      </trkpt>
      <trkpt lat="25.4510770" lon="-100.8572720">
        <ele>1665.4</ele>
        <time>2022-08-20T17:05:28Z</time>
      </trkpt>
      <trkpt lat="25.4510940" lon="-100.8573310">
        <ele>1665.3</ele>
        <time>2022-08-20T17:05:29Z</time>
      </trkpt>
      <trkpt lat="25.4511100" lon="-100.8573890">
        <ele>1665.2</ele>
        <time>2022-08-20T17:05:30Z</time>
      </trkpt>
      <trkpt lat="25.4511240" lon="-100.8574430">
        <ele>1665.1</ele>
        <time>2022-08-20T17:05:31Z</time>
      </trkpt>
      <trkpt lat="25.4511370" lon="-100.8575000">
        <ele>1665.0</ele>
        <time>2022-08-20T17:05:32Z</time>
      </trkpt>
      <trkpt lat="25.4511520" lon="-100.8575630">
        <ele>1664.9</ele>
        <time>2022-08-20T17:05:33Z</time>
      </trkpt>
      <trkpt lat="25.4511690" lon="-100.8576310">
        <ele>1664.8</ele>
        <time>2022-08-20T17:05:34Z</time>
      </trkpt>
      <trkpt lat="25.4511870" lon="-100.8577030">
        <ele>1664.7</ele>
        <time>2022-08-20T17:05:35Z</time>
      </trkpt>
      <trkpt lat="25.4512040" lon="-100.8577740">
        <ele>1664.6</ele>
        <time>2022-08-20T17:05:36Z</time>
      </trkpt>
      <trkpt lat="25.4512200" lon="-100.8578440">
        <ele>1664.5</ele>
        <time>2022-08-20T17:05:37Z</time>
      </trkpt>
      <trkpt lat="25.4512370" lon="-100.8579110">
        <ele>1664.4</ele>
        <time>2022-08-20T17:05:38Z</time>
      </trkpt>
      <trkpt lat="25.4512540" lon="-100.8579770">
        <ele>1664.3</ele>
        <time>2022-08-20T17:05:39Z</time>
      </trkpt>
      <trkpt lat="25.4512720" lon="-100.8580450">
        <ele>1664.2</ele>
        <time>2022-08-20T17:05:40Z</time>
      </trkpt>
      <trkpt lat="25.4512890" lon="-100.8581140">
        <ele>1664.1</ele>
        <time>2022-08-20T17:05:41Z</time>
      </trkpt>
      <trkpt lat="25.4513070" lon="-100.8581860">
        <ele>1664.1</ele>
        <time>2022-08-20T17:05:42Z</time>
      </trkpt>
      <trkpt lat="25.4513240" lon="-100.8582570">
        <ele>1664.0</ele>
        <time>2022-08-20T17:05:43Z</time>
      </trkpt>
      <trkpt lat="25.4513410" lon="-100.8583310">
        <ele>1663.9</ele>
        <time>2022-08-20T17:05:44Z</time>
      </trkpt>
      <trkpt lat="25.4513570" lon="-100.8584110">
        <ele>1663.8</ele>
        <time>2022-08-20T17:05:45Z</time>
      </trkpt>
      <trkpt lat="25.4513730" lon="-100.8584890">
        <ele>1663.7</ele>
        <time>2022-08-20T17:05:46Z</time>
      </trkpt>
      <trkpt lat="25.4513900" lon="-100.8585640">
        <ele>1663.6</ele>
        <time>2022-08-20T17:05:47Z</time>
      </trkpt>
      <trkpt lat="25.4514070" lon="-100.8586380">
        <ele>1663.6</ele>
        <time>2022-08-20T17:05:48Z</time>
      </trkpt>
      <trkpt lat="25.4514240" lon="-100.8587140">
        <ele>1663.5</ele>
        <time>2022-08-20T17:05:49Z</time>
      </trkpt>
      <trkpt lat="25.4514420" lon="-100.8587880">
        <ele>1663.4</ele>
        <time>2022-08-20T17:05:50Z</time>
      </trkpt>
      <trkpt lat="25.4514610" lon="-100.8588620">
        <ele>1663.4</ele>
        <time>2022-08-20T17:05:51Z</time>
      </trkpt>
      <trkpt lat="25.4514790" lon="-100.8589400">
        <ele>1663.4</ele>
        <time>2022-08-20T17:05:52Z</time>
      </trkpt>
      <trkpt lat="25.4514960" lon="-100.8590190">
        <ele>1663.4</ele>
        <time>2022-08-20T17:05:53Z</time>
      </trkpt>
      <trkpt lat="25.4515090" lon="-100.8590960">
        <ele>1663.4</ele>
        <time>2022-08-20T17:05:54Z</time>
      </trkpt>
      <trkpt lat="25.4515100" lon="-100.8591710">
        <ele>1663.4</ele>
        <time>2022-08-20T17:05:55Z</time>
      </trkpt>
      <trkpt lat="25.4514890" lon="-100.8592360">
        <ele>1663.4</ele>
        <time>2022-08-20T17:05:56Z</time>
      </trkpt>
      <trkpt lat="25.4514440" lon="-100.8592870">
        <ele>1663.3</ele>
        <time>2022-08-20T17:05:57Z</time>
      </trkpt>
      <trkpt lat="25.4513850" lon="-100.8593240">
        <ele>1663.3</ele>
        <time>2022-08-20T17:05:58Z</time>
      </trkpt>
      <trkpt lat="25.4513170" lon="-100.8593480">
        <ele>1663.3</ele>
        <time>2022-08-20T17:05:59Z</time>
      </trkpt>
      <trkpt lat="25.4512460" lon="-100.8593670">
        <ele>1663.3</ele>
        <time>2022-08-20T17:06:00Z</time>
      </trkpt>
      <trkpt lat="25.4511770" lon="-100.8593840">
        <ele>1663.2</ele>
        <time>2022-08-20T17:06:01Z</time>
      </trkpt>
      <trkpt lat="25.4511060" lon="-100.8593970">
        <ele>1663.2</ele>
        <time>2022-08-20T17:06:02Z</time>
      </trkpt>
      <trkpt lat="25.4510380" lon="-100.8594080">
        <ele>1663.2</ele>
        <time>2022-08-20T17:06:03Z</time>
      </trkpt>
      <trkpt lat="25.4509690" lon="-100.8594200">
        <ele>1663.2</ele>
        <time>2022-08-20T17:06:04Z</time>
      </trkpt>
      <trkpt lat="25.4509010" lon="-100.8594310">
        <ele>1663.2</ele>
        <time>2022-08-20T17:06:05Z</time>
      </trkpt>
      <trkpt lat="25.4508330" lon="-100.8594440">
        <ele>1663.2</ele>
        <time>2022-08-20T17:06:06Z</time>
      </trkpt>
      <trkpt lat="25.4507640" lon="-100.8594590">
        <ele>1663.2</ele>
        <time>2022-08-20T17:06:07Z</time>
      </trkpt>
      <trkpt lat="25.4506950" lon="-100.8594740">
        <ele>1663.1</ele>
        <time>2022-08-20T17:06:08Z</time>
      </trkpt>
      <trkpt lat="25.4506260" lon="-100.8594860">
        <ele>1663.1</ele>
        <time>2022-08-20T17:06:09Z</time>
      </trkpt>
      <trkpt lat="25.4505570" lon="-100.8594980">
        <ele>1663.0</ele>
        <time>2022-08-20T17:06:10Z</time>
      </trkpt>
      <trkpt lat="25.4504890" lon="-100.8595110">
        <ele>1663.0</ele>
        <time>2022-08-20T17:06:11Z</time>
      </trkpt>
      <trkpt lat="25.4504210" lon="-100.8595260">
        <ele>1662.8</ele>
        <time>2022-08-20T17:06:12Z</time>
      </trkpt>
      <trkpt lat="25.4503550" lon="-100.8595400">
        <ele>1662.7</ele>
        <time>2022-08-20T17:06:13Z</time>
      </trkpt>
      <trkpt lat="25.4502880" lon="-100.8595520">
        <ele>1662.5</ele>
        <time>2022-08-20T17:06:14Z</time>
      </trkpt>
      <trkpt lat="25.4502210" lon="-100.8595640">
        <ele>1662.4</ele>
        <time>2022-08-20T17:06:15Z</time>
      </trkpt>
      <trkpt lat="25.4501540" lon="-100.8595740">
        <ele>1662.2</ele>
        <time>2022-08-20T17:06:16Z</time>
      </trkpt>
      <trkpt lat="25.4500880" lon="-100.8595830">
        <ele>1662.1</ele>
        <time>2022-08-20T17:06:17Z</time>
      </trkpt>
      <trkpt lat="25.4500220" lon="-100.8595910">
        <ele>1661.9</ele>
        <time>2022-08-20T17:06:18Z</time>
      </trkpt>
      <trkpt lat="25.4499570" lon="-100.8595980">
        <ele>1661.7</ele>
        <time>2022-08-20T17:06:19Z</time>
      </trkpt>
      <trkpt lat="25.4498900" lon="-100.8596050">
        <ele>1661.5</ele>
        <time>2022-08-20T17:06:20Z</time>
      </trkpt>
      <trkpt lat="25.4498210" lon="-100.8596120">
        <ele>1661.3</ele>
        <time>2022-08-20T17:06:21Z</time>
      </trkpt>
      <trkpt lat="25.4497520" lon="-100.8596220">
        <ele>1661.1</ele>
        <time>2022-08-20T17:06:22Z</time>
      </trkpt>
      <trkpt lat="25.4496880" lon="-100.8596370">
        <ele>1660.9</ele>
        <time>2022-08-20T17:06:23Z</time>
      </trkpt>
      <trkpt lat="25.4496300" lon="-100.8596650">
        <ele>1660.2</ele>
        <time>2022-08-20T17:06:24Z</time>
      </trkpt>
      <trkpt lat="25.4495900" lon="-100.8597170">
        <ele>1659.4</ele>
        <time>2022-08-20T17:06:25Z</time>
      </trkpt>
      <trkpt lat="25.4495750" lon="-100.8597910">
        <ele>1659.3</ele>
        <time>2022-08-20T17:06:26Z</time>
      </trkpt>
      <trkpt lat="25.4495760" lon="-100.8598760">
        <ele>1659.2</ele>
        <time>2022-08-20T17:06:27Z</time>
      </trkpt>
      <trkpt lat="25.4495770" lon="-100.8599590">
        <ele>1659.0</ele>
        <time>2022-08-20T17:06:28Z</time>
      </trkpt>
      <trkpt lat="25.4495720" lon="-100.8600440">
        <ele>1658.9</ele>
        <time>2022-08-20T17:06:29Z</time>
      </trkpt>
      <trkpt lat="25.4495620" lon="-100.8601270">
        <ele>1658.7</ele>
        <time>2022-08-20T17:06:30Z</time>
      </trkpt>
      <trkpt lat="25.4495530" lon="-100.8602100">
        <ele>1658.5</ele>
        <time>2022-08-20T17:06:31Z</time>
      </trkpt>
      <trkpt lat="25.4495460" lon="-100.8602950">
        <ele>1658.3</ele>
        <time>2022-08-20T17:06:32Z</time>
      </trkpt>
      <trkpt lat="25.4495400" lon="-100.8603820">
        <ele>1658.1</ele>
        <time>2022-08-20T17:06:33Z</time>
      </trkpt>
      <trkpt lat="25.4495340" lon="-100.8604660">
        <ele>1658.0</ele>
        <time>2022-08-20T17:06:34Z</time>
      </trkpt>
      <trkpt lat="25.4495250" lon="-100.8605510">
        <ele>1657.9</ele>
        <time>2022-08-20T17:06:35Z</time>
      </trkpt>
      <trkpt lat="25.4495130" lon="-100.8606370">
        <ele>1657.7</ele>
        <time>2022-08-20T17:06:36Z</time>
      </trkpt>
      <trkpt lat="25.4494960" lon="-100.8607200">
        <ele>1657.6</ele>
        <time>2022-08-20T17:06:37Z</time>
      </trkpt>
      <trkpt lat="25.4494820" lon="-100.8608020">
        <ele>1657.4</ele>
        <time>2022-08-20T17:06:38Z</time>
      </trkpt>
      <trkpt lat="25.4494720" lon="-100.8608850">
        <ele>1657.3</ele>
        <time>2022-08-20T17:06:39Z</time>
      </trkpt>
      <trkpt lat="25.4494630" lon="-100.8609730">
        <ele>1657.1</ele>
        <time>2022-08-20T17:06:40Z</time>
      </trkpt>
      <trkpt lat="25.4494550" lon="-100.8610620">
        <ele>1656.9</ele>
        <time>2022-08-20T17:06:41Z</time>
      </trkpt>
      <trkpt lat="25.4494510" lon="-100.8611540">
        <ele>1656.7</ele>
        <time>2022-08-20T17:06:42Z</time>
      </trkpt>
      <trkpt lat="25.4494480" lon="-100.8612450">
        <ele>1656.5</ele>
        <time>2022-08-20T17:06:43Z</time>
      </trkpt>
      <trkpt lat="25.4494480" lon="-100.8613360">
        <ele>1656.3</ele>
        <time>2022-08-20T17:06:44Z</time>
      </trkpt>
      <trkpt lat="25.4494470" lon="-100.8614270">
        <ele>1656.1</ele>
        <time>2022-08-20T17:06:45Z</time>
      </trkpt>
      <trkpt lat="25.4494470" lon="-100.8615180">
        <ele>1655.9</ele>
        <time>2022-08-20T17:06:46Z</time>
      </trkpt>
      <trkpt lat="25.4494450" lon="-100.8616100">
        <ele>1655.7</ele>
        <time>2022-08-20T17:06:47Z</time>
      </trkpt>
      <trkpt lat="25.4494420" lon="-100.8617030">
        <ele>1655.5</ele>
        <time>2022-08-20T17:06:48Z</time>
      </trkpt>
      <trkpt lat="25.4494390" lon="-100.8617960">
        <ele>1655.3</ele>
        <time>2022-08-20T17:06:49Z</time>
      </trkpt>
      <trkpt lat="25.4494370" lon="-100.8618880">
        <ele>1655.1</ele>
        <time>2022-08-20T17:06:50Z</time>
      </trkpt>
      <trkpt lat="25.4494340" lon="-100.8619810">
        <ele>1654.9</ele>
        <time>2022-08-20T17:06:51Z</time>
      </trkpt>
      <trkpt lat="25.4494290" lon="-100.8620760">
        <ele>1654.7</ele>
        <time>2022-08-20T17:06:52Z</time>
      </trkpt>
      <trkpt lat="25.4494220" lon="-100.8621730">
        <ele>1654.5</ele>
        <time>2022-08-20T17:06:53Z</time>
      </trkpt>
      <trkpt lat="25.4494170" lon="-100.8622700">
        <ele>1654.3</ele>
        <time>2022-08-20T17:06:54Z</time>
      </trkpt>
      <trkpt lat="25.4494130" lon="-100.8623670">
        <ele>1654.2</ele>
        <time>2022-08-20T17:06:55Z</time>
      </trkpt>
      <trkpt lat="25.4494090" lon="-100.8624650">
        <ele>1653.9</ele>
        <time>2022-08-20T17:06:56Z</time>
      </trkpt>
      <trkpt lat="25.4494050" lon="-100.8625650">
        <ele>1653.7</ele>
        <time>2022-08-20T17:06:57Z</time>
      </trkpt>
      <trkpt lat="25.4494020" lon="-100.8626650">
        <ele>1653.4</ele>
        <time>2022-08-20T17:06:58Z</time>
      </trkpt>
      <trkpt lat="25.4493990" lon="-100.8627650">
        <ele>1653.2</ele>
        <time>2022-08-20T17:06:59Z</time>
      </trkpt>
      <trkpt lat="25.4493950" lon="-100.8628660">
        <ele>1652.9</ele>
        <time>2022-08-20T17:07:00Z</time>
      </trkpt>
      <trkpt lat="25.4493890" lon="-100.8629620">
        <ele>1652.7</ele>
        <time>2022-08-20T17:07:01Z</time>
      </trkpt>
      <trkpt lat="25.4493830" lon="-100.8630610">
        <ele>1652.4</ele>
        <time>2022-08-20T17:07:02Z</time>
      </trkpt>
      <trkpt lat="25.4493780" lon="-100.8631590">
        <ele>1652.1</ele>
        <time>2022-08-20T17:07:03Z</time>
      </trkpt>
      <trkpt lat="25.4493740" lon="-100.8632600">
        <ele>1651.9</ele>
        <time>2022-08-20T17:07:04Z</time>
      </trkpt>
      <trkpt lat="25.4493710" lon="-100.8633610">
        <ele>1651.7</ele>
        <time>2022-08-20T17:07:05Z</time>
      </trkpt>
      <trkpt lat="25.4493700" lon="-100.8634640">
        <ele>1651.5</ele>
        <time>2022-08-20T17:07:06Z</time>
      </trkpt>
      <trkpt lat="25.4493690" lon="-100.8635660">
        <ele>1651.3</ele>
        <time>2022-08-20T17:07:07Z</time>
      </trkpt>
      <trkpt lat="25.4493660" lon="-100.8636700">
        <ele>1651.1</ele>
        <time>2022-08-20T17:07:08Z</time>
      </trkpt>
      <trkpt lat="25.4493620" lon="-100.8637770">
        <ele>1651.0</ele>
        <time>2022-08-20T17:07:09Z</time>
      </trkpt>
      <trkpt lat="25.4493590" lon="-100.8638840">
        <ele>1650.8</ele>
        <time>2022-08-20T17:07:10Z</time>
      </trkpt>
      <trkpt lat="25.4493560" lon="-100.8639930">
        <ele>1650.6</ele>
        <time>2022-08-20T17:07:11Z</time>
      </trkpt>
      <trkpt lat="25.4493530" lon="-100.8641000">
        <ele>1650.4</ele>
        <time>2022-08-20T17:07:12Z</time>
      </trkpt>
      <trkpt lat="25.4493510" lon="-100.8642050">
        <ele>1650.2</ele>
        <time>2022-08-20T17:07:13Z</time>
      </trkpt>
      <trkpt lat="25.4493510" lon="-100.8643090">
        <ele>1649.9</ele>
        <time>2022-08-20T17:07:14Z</time>
      </trkpt>
      <trkpt lat="25.4493520" lon="-100.8644110">
        <ele>1649.7</ele>
        <time>2022-08-20T17:07:15Z</time>
      </trkpt>
      <trkpt lat="25.4493510" lon="-100.8645110">
        <ele>1649.4</ele>
        <time>2022-08-20T17:07:16Z</time>
      </trkpt>
      <trkpt lat="25.4493480" lon="-100.8646120">
        <ele>1649.2</ele>
        <time>2022-08-20T17:07:17Z</time>
      </trkpt>
      <trkpt lat="25.4493440" lon="-100.8647140">
        <ele>1649.0</ele>
        <time>2022-08-20T17:07:18Z</time>
      </trkpt>
      <trkpt lat="25.4493390" lon="-100.8648160">
        <ele>1648.9</ele>
        <time>2022-08-20T17:07:19Z</time>
      </trkpt>
      <trkpt lat="25.4493360" lon="-100.8649190">
        <ele>1648.7</ele>
        <time>2022-08-20T17:07:20Z</time>
      </trkpt>
      <trkpt lat="25.4493350" lon="-100.8650210">
        <ele>1648.5</ele>
        <time>2022-08-20T17:07:21Z</time>
      </trkpt>
      <trkpt lat="25.4493360" lon="-100.8651240">
        <ele>1648.2</ele>
        <time>2022-08-20T17:07:22Z</time>
      </trkpt>
      <trkpt lat="25.4493360" lon="-100.8652300">
        <ele>1648.0</ele>
        <time>2022-08-20T17:07:23Z</time>
      </trkpt>
      <trkpt lat="25.4493340" lon="-100.8653370">
        <ele>1647.7</ele>
        <time>2022-08-20T17:07:24Z</time>
      </trkpt>
      <trkpt lat="25.4493300" lon="-100.8654450">
        <ele>1647.3</ele>
        <time>2022-08-20T17:07:25Z</time>
      </trkpt>
      <trkpt lat="25.4493240" lon="-100.8655550">
        <ele>1647.0</ele>
        <time>2022-08-20T17:07:26Z</time>
      </trkpt>
      <trkpt lat="25.4493170" lon="-100.8656670">
        <ele>1646.6</ele>
        <time>2022-08-20T17:07:27Z</time>
      </trkpt>
      <trkpt lat="25.4493120" lon="-100.8657800">
        <ele>1646.3</ele>
        <time>2022-08-20T17:07:28Z</time>
      </trkpt>
      <trkpt lat="25.4493060" lon="-100.8658950">
        <ele>1645.9</ele>
        <time>2022-08-20T17:07:29Z</time>
      </trkpt>
      <trkpt lat="25.4493020" lon="-100.8660080">
        <ele>1645.6</ele>
        <time>2022-08-20T17:07:30Z</time>
      </trkpt>
      <trkpt lat="25.4492980" lon="-100.8661200">
        <ele>1645.4</ele>
        <time>2022-08-20T17:07:31Z</time>
      </trkpt>
      <trkpt lat="25.4492970" lon="-100.8662340">
        <ele>1645.1</ele>
        <time>2022-08-20T17:07:32Z</time>
      </trkpt>
      <trkpt lat="25.4492930" lon="-100.8663480">
        <ele>1644.7</ele>
        <time>2022-08-20T17:07:33Z</time>
      </trkpt>
      <trkpt lat="25.4492890" lon="-100.8664620">
        <ele>1644.4</ele>
        <time>2022-08-20T17:07:34Z</time>
      </trkpt>
      <trkpt lat="25.4492830" lon="-100.8665760">
        <ele>1644.0</ele>
        <time>2022-08-20T17:07:35Z</time>
      </trkpt>
      <trkpt lat="25.4492780" lon="-100.8666900">
        <ele>1643.7</ele>
        <time>2022-08-20T17:07:36Z</time>
      </trkpt>
      <trkpt lat="25.4492700" lon="-100.8668050">
        <ele>1643.3</ele>
        <time>2022-08-20T17:07:37Z</time>
      </trkpt>
      <trkpt lat="25.4492610" lon="-100.8669170">
        <ele>1642.9</ele>
        <time>2022-08-20T17:07:38Z</time>
      </trkpt>
      <trkpt lat="25.4492510" lon="-100.8670300">
        <ele>1642.4</ele>
        <time>2022-08-20T17:07:39Z</time>
      </trkpt>
      <trkpt lat="25.4492390" lon="-100.8671440">
        <ele>1641.9</ele>
        <time>2022-08-20T17:07:40Z</time>
      </trkpt>
      <trkpt lat="25.4492280" lon="-100.8672580">
        <ele>1641.3</ele>
        <time>2022-08-20T17:07:41Z</time>
      </trkpt>
      <trkpt lat="25.4492140" lon="-100.8673740">
        <ele>1640.7</ele>
        <time>2022-08-20T17:07:42Z</time>
      </trkpt>
      <trkpt lat="25.4492000" lon="-100.8674910">
        <ele>1640.2</ele>
        <time>2022-08-20T17:07:43Z</time>
      </trkpt>
      <trkpt lat="25.4491860" lon="-100.8676090">
        <ele>1639.7</ele>
        <time>2022-08-20T17:07:44Z</time>
      </trkpt>
      <trkpt lat="25.4491690" lon="-100.8677270">
        <ele>1639.2</ele>
        <time>2022-08-20T17:07:45Z</time>
      </trkpt>
      <trkpt lat="25.4491510" lon="-100.8678440">
        <ele>1638.8</ele>
        <time>2022-08-20T17:07:46Z</time>
      </trkpt>
      <trkpt lat="25.4491330" lon="-100.8679610">
        <ele>1638.4</ele>
        <time>2022-08-20T17:07:47Z</time>
      </trkpt>
      <trkpt lat="25.4491150" lon="-100.8680780">
        <ele>1638.0</ele>
        <time>2022-08-20T17:07:48Z</time>
      </trkpt>
      <trkpt lat="25.4490970" lon="-100.8681950">
        <ele>1637.6</ele>
        <time>2022-08-20T17:07:49Z</time>
      </trkpt>
      <trkpt lat="25.4490800" lon="-100.8683130">
        <ele>1637.2</ele>
        <time>2022-08-20T17:07:50Z</time>
      </trkpt>
      <trkpt lat="25.4490620" lon="-100.8684300">
        <ele>1636.8</ele>
        <time>2022-08-20T17:07:51Z</time>
      </trkpt>
      <trkpt lat="25.4490430" lon="-100.8685460">
        <ele>1636.4</ele>
        <time>2022-08-20T17:07:52Z</time>
      </trkpt>
      <trkpt lat="25.4490250" lon="-100.8686600">
        <ele>1636.1</ele>
        <time>2022-08-20T17:07:53Z</time>
      </trkpt>
      <trkpt lat="25.4490070" lon="-100.8687710">
        <ele>1635.7</ele>
        <time>2022-08-20T17:07:54Z</time>
      </trkpt>
      <trkpt lat="25.4489900" lon="-100.8688810">
        <ele>1635.5</ele>
        <time>2022-08-20T17:07:55Z</time>
      </trkpt>
      <trkpt lat="25.4489730" lon="-100.8689900">
        <ele>1635.2</ele>
        <time>2022-08-20T17:07:56Z</time>
      </trkpt>
      <trkpt lat="25.4489540" lon="-100.8691010">
        <ele>1635.0</ele>
        <time>2022-08-20T17:07:57Z</time>
      </trkpt>
      <trkpt lat="25.4489380" lon="-100.8692100">
        <ele>1634.8</ele>
        <time>2022-08-20T17:07:58Z</time>
      </trkpt>
      <trkpt lat="25.4489210" lon="-100.8693180">
        <ele>1634.5</ele>
        <time>2022-08-20T17:07:59Z</time>
      </trkpt>
      <trkpt lat="25.4489040" lon="-100.8694260">
        <ele>1634.4</ele>
        <time>2022-08-20T17:08:00Z</time>
      </trkpt>
      <trkpt lat="25.4488880" lon="-100.8695340">
        <ele>1634.2</ele>
        <time>2022-08-20T17:08:01Z</time>
      </trkpt>
      <trkpt lat="25.4488730" lon="-100.8696430">
        <ele>1634.0</ele>
        <time>2022-08-20T17:08:02Z</time>
      </trkpt>
      <trkpt lat="25.4488580" lon="-100.8697520">
        <ele>1633.8</ele>
        <time>2022-08-20T17:08:03Z</time>
      </trkpt>
      <trkpt lat="25.4488430" lon="-100.8698600">
        <ele>1633.7</ele>
        <time>2022-08-20T17:08:04Z</time>
      </trkpt>
      <trkpt lat="25.4488290" lon="-100.8699660">
        <ele>1633.4</ele>
        <time>2022-08-20T17:08:05Z</time>
      </trkpt>
      <trkpt lat="25.4488130" lon="-100.8700720">
        <ele>1633.2</ele>
        <time>2022-08-20T17:08:06Z</time>
      </trkpt>
      <trkpt lat="25.4487950" lon="-100.8701800">
        <ele>1633.1</ele>
        <time>2022-08-20T17:08:07Z</time>
      </trkpt>
      <trkpt lat="25.4487770" lon="-100.8702880">
        <ele>1632.9</ele>
        <time>2022-08-20T17:08:08Z</time>
      </trkpt>
      <trkpt lat="25.4487600" lon="-100.8703980">
        <ele>1632.6</ele>
        <time>2022-08-20T17:08:09Z</time>
      </trkpt>
      <trkpt lat="25.4487430" lon="-100.8705060">
        <ele>1632.3</ele>
        <time>2022-08-20T17:08:10Z</time>
      </trkpt>
      <trkpt lat="25.4487280" lon="-100.8706140">
        <ele>1632.0</ele>
        <time>2022-08-20T17:08:11Z</time>
      </trkpt>
      <trkpt lat="25.4487120" lon="-100.8707220">
        <ele>1631.7</ele>
        <time>2022-08-20T17:08:12Z</time>
      </trkpt>
      <trkpt lat="25.4486950" lon="-100.8708320">
        <ele>1631.4</ele>
        <time>2022-08-20T17:08:13Z</time>
      </trkpt>
      <trkpt lat="25.4486790" lon="-100.8709420">
        <ele>1631.0</ele>
        <time>2022-08-20T17:08:14Z</time>
      </trkpt>
      <trkpt lat="25.4486610" lon="-100.8710530">
        <ele>1630.7</ele>
        <time>2022-08-20T17:08:15Z</time>
      </trkpt>
      <trkpt lat="25.4486430" lon="-100.8711630">
        <ele>1630.4</ele>
        <time>2022-08-20T17:08:16Z</time>
      </trkpt>
      <trkpt lat="25.4486250" lon="-100.8712740">
        <ele>1630.0</ele>
        <time>2022-08-20T17:08:17Z</time>
      </trkpt>
      <trkpt lat="25.4486070" lon="-100.8713840">
        <ele>1629.7</ele>
        <time>2022-08-20T17:08:18Z</time>
      </trkpt>
      <trkpt lat="25.4485910" lon="-100.8714940">
        <ele>1629.3</ele>
        <time>2022-08-20T17:08:19Z</time>
      </trkpt>
      <trkpt lat="25.4485740" lon="-100.8716050">
        <ele>1629.0</ele>
        <time>2022-08-20T17:08:20Z</time>
      </trkpt>
      <trkpt lat="25.4485570" lon="-100.8717150">
        <ele>1628.7</ele>
        <time>2022-08-20T17:08:21Z</time>
      </trkpt>
      <trkpt lat="25.4485400" lon="-100.8718280">
        <ele>1628.3</ele>
        <time>2022-08-20T17:08:22Z</time>
      </trkpt>
      <trkpt lat="25.4485220" lon="-100.8719410">
        <ele>1628.0</ele>
        <time>2022-08-20T17:08:23Z</time>
      </trkpt>
      <trkpt lat="25.4485060" lon="-100.8720520">
        <ele>1627.7</ele>
        <time>2022-08-20T17:08:24Z</time>
      </trkpt>
      <trkpt lat="25.4484900" lon="-100.8721650">
        <ele>1627.3</ele>
        <time>2022-08-20T17:08:25Z</time>
      </trkpt>
      <trkpt lat="25.4484740" lon="-100.8722790">
        <ele>1627.0</ele>
        <time>2022-08-20T17:08:26Z</time>
      </trkpt>
      <trkpt lat="25.4484580" lon="-100.8723930">
        <ele>1626.6</ele>
        <time>2022-08-20T17:08:27Z</time>
      </trkpt>
      <trkpt lat="25.4484420" lon="-100.8725060">
        <ele>1626.3</ele>
        <time>2022-08-20T17:08:28Z</time>
      </trkpt>
      <trkpt lat="25.4484250" lon="-100.8726190">
        <ele>1626.0</ele>
        <time>2022-08-20T17:08:29Z</time>
      </trkpt>
      <trkpt lat="25.4484080" lon="-100.8727320">
        <ele>1625.7</ele>
        <time>2022-08-20T17:08:30Z</time>
      </trkpt>
      <trkpt lat="25.4483910" lon="-100.8728460">
        <ele>1625.3</ele>
        <time>2022-08-20T17:08:31Z</time>
      </trkpt>
      <trkpt lat="25.4483740" lon="-100.8729610">
        <ele>1625.0</ele>
        <time>2022-08-20T17:08:32Z</time>
      </trkpt>
      <trkpt lat="25.4483550" lon="-100.8730760">
        <ele>1624.7</ele>
        <time>2022-08-20T17:08:33Z</time>
      </trkpt>
      <trkpt lat="25.4483380" lon="-100.8731910">
        <ele>1624.4</ele>
        <time>2022-08-20T17:08:34Z</time>
      </trkpt>
      <trkpt lat="25.4483210" lon="-100.8733060">
        <ele>1624.0</ele>
        <time>2022-08-20T17:08:35Z</time>
      </trkpt>
      <trkpt lat="25.4483040" lon="-100.8734200">
        <ele>1623.7</ele>
        <time>2022-08-20T17:08:36Z</time>
      </trkpt>
      <trkpt lat="25.4482880" lon="-100.8735340">
        <ele>1623.4</ele>
        <time>2022-08-20T17:08:37Z</time>
      </trkpt>
      <trkpt lat="25.4482720" lon="-100.8736500">
        <ele>1623.1</ele>
        <time>2022-08-20T17:08:38Z</time>
      </trkpt>
      <trkpt lat="25.4482550" lon="-100.8737630">
        <ele>1622.8</ele>
        <time>2022-08-20T17:08:39Z</time>
      </trkpt>
      <trkpt lat="25.4482380" lon="-100.8738770">
        <ele>1622.6</ele>
        <time>2022-08-20T17:08:40Z</time>
      </trkpt>
      <trkpt lat="25.4482230" lon="-100.8739900">
        <ele>1622.5</ele>
        <time>2022-08-20T17:08:41Z</time>
      </trkpt>
      <trkpt lat="25.4482070" lon="-100.8741030">
        <ele>1622.1</ele>
        <time>2022-08-20T17:08:42Z</time>
      </trkpt>
      <trkpt lat="25.4481890" lon="-100.8742180">
        <ele>1621.7</ele>
        <time>2022-08-20T17:08:43Z</time>
      </trkpt>
      <trkpt lat="25.4481710" lon="-100.8743330">
        <ele>1621.4</ele>
        <time>2022-08-20T17:08:44Z</time>
      </trkpt>
      <trkpt lat="25.4481530" lon="-100.8744480">
        <ele>1621.0</ele>
        <time>2022-08-20T17:08:45Z</time>
      </trkpt>
      <trkpt lat="25.4481350" lon="-100.8745660">
        <ele>1620.6</ele>
        <time>2022-08-20T17:08:46Z</time>
      </trkpt>
      <trkpt lat="25.4481170" lon="-100.8746830">
        <ele>1620.2</ele>
        <time>2022-08-20T17:08:47Z</time>
      </trkpt>
      <trkpt lat="25.4480990" lon="-100.8748000">
        <ele>1619.9</ele>
        <time>2022-08-20T17:08:48Z</time>
      </trkpt>
      <trkpt lat="25.4480830" lon="-100.8749180">
        <ele>1619.5</ele>
        <time>2022-08-20T17:08:49Z</time>
      </trkpt>
      <trkpt lat="25.4480670" lon="-100.8750370">
        <ele>1619.1</ele>
        <time>2022-08-20T17:08:50Z</time>
      </trkpt>
      <trkpt lat="25.4480540" lon="-100.8751540">
        <ele>1618.7</ele>
        <time>2022-08-20T17:08:51Z</time>
      </trkpt>
      <trkpt lat="25.4480430" lon="-100.8752720">
        <ele>1618.3</ele>
        <time>2022-08-20T17:08:52Z</time>
      </trkpt>
      <trkpt lat="25.4480330" lon="-100.8753930">
        <ele>1618.0</ele>
        <time>2022-08-20T17:08:53Z</time>
      </trkpt>
      <trkpt lat="25.4480270" lon="-100.8755120">
        <ele>1617.7</ele>
        <time>2022-08-20T17:08:54Z</time>
      </trkpt>
      <trkpt lat="25.4480230" lon="-100.8756310">
        <ele>1617.3</ele>
        <time>2022-08-20T17:08:55Z</time>
      </trkpt>
      <trkpt lat="25.4480190" lon="-100.8757490">
        <ele>1617.0</ele>
        <time>2022-08-20T17:08:56Z</time>
      </trkpt>
      <trkpt lat="25.4480160" lon="-100.8758660">
        <ele>1616.7</ele>
        <time>2022-08-20T17:08:57Z</time>
      </trkpt>
      <trkpt lat="25.4480140" lon="-100.8759840">
        <ele>1616.4</ele>
        <time>2022-08-20T17:08:58Z</time>
      </trkpt>
      <trkpt lat="25.4480180" lon="-100.8760990">
        <ele>1616.2</ele>
        <time>2022-08-20T17:08:59Z</time>
      </trkpt>
      <trkpt lat="25.4480240" lon="-100.8762150">
        <ele>1616.1</ele>
        <time>2022-08-20T17:09:00Z</time>
      </trkpt>
      <trkpt lat="25.4480310" lon="-100.8763310">
        <ele>1615.9</ele>
        <time>2022-08-20T17:09:01Z</time>
      </trkpt>
      <trkpt lat="25.4480390" lon="-100.8764440">
        <ele>1615.6</ele>
        <time>2022-08-20T17:09:02Z</time>
      </trkpt>
      <trkpt lat="25.4480470" lon="-100.8765580">
        <ele>1615.2</ele>
        <time>2022-08-20T17:09:03Z</time>
      </trkpt>
      <trkpt lat="25.4480580" lon="-100.8766720">
        <ele>1614.9</ele>
        <time>2022-08-20T17:09:04Z</time>
      </trkpt>
      <trkpt lat="25.4480700" lon="-100.8767850">
        <ele>1614.6</ele>
        <time>2022-08-20T17:09:05Z</time>
      </trkpt>
      <trkpt lat="25.4480820" lon="-100.8768990">
        <ele>1614.3</ele>
        <time>2022-08-20T17:09:06Z</time>
      </trkpt>
      <trkpt lat="25.4480980" lon="-100.8770130">
        <ele>1614.0</ele>
        <time>2022-08-20T17:09:07Z</time>
      </trkpt>
      <trkpt lat="25.4481150" lon="-100.8771260">
        <ele>1613.8</ele>
        <time>2022-08-20T17:09:08Z</time>
      </trkpt>
      <trkpt lat="25.4481350" lon="-100.8772390">
        <ele>1613.5</ele>
        <time>2022-08-20T17:09:09Z</time>
      </trkpt>
      <trkpt lat="25.4481560" lon="-100.8773500">
        <ele>1613.3</ele>
        <time>2022-08-20T17:09:10Z</time>
      </trkpt>
      <trkpt lat="25.4481780" lon="-100.8774590">
        <ele>1613.0</ele>
        <time>2022-08-20T17:09:11Z</time>
      </trkpt>
      <trkpt lat="25.4482040" lon="-100.8775680">
        <ele>1612.8</ele>
        <time>2022-08-20T17:09:12Z</time>
      </trkpt>
      <trkpt lat="25.4482330" lon="-100.8776780">
        <ele>1612.6</ele>
        <time>2022-08-20T17:09:13Z</time>
      </trkpt>
      <trkpt lat="25.4482640" lon="-100.8777870">
        <ele>1612.3</ele>
        <time>2022-08-20T17:09:14Z</time>
      </trkpt>
      <trkpt lat="25.4482990" lon="-100.8778930">
        <ele>1612.1</ele>
        <time>2022-08-20T17:09:15Z</time>
      </trkpt>
      <trkpt lat="25.4483340" lon="-100.8780000">
        <ele>1611.7</ele>
        <time>2022-08-20T17:09:16Z</time>
      </trkpt>
      <trkpt lat="25.4483700" lon="-100.8781070">
        <ele>1611.4</ele>
        <time>2022-08-20T17:09:17Z</time>
      </trkpt>
      <trkpt lat="25.4484070" lon="-100.8782160">
        <ele>1611.0</ele>
        <time>2022-08-20T17:09:18Z</time>
      </trkpt>
      <trkpt lat="25.4484440" lon="-100.8783230">
        <ele>1610.7</ele>
        <time>2022-08-20T17:09:19Z</time>
      </trkpt>
      <trkpt lat="25.4484820" lon="-100.8784310">
        <ele>1610.4</ele>
        <time>2022-08-20T17:09:20Z</time>
      </trkpt>
      <trkpt lat="25.4485240" lon="-100.8785370">
        <ele>1610.0</ele>
        <time>2022-08-20T17:09:21Z</time>
      </trkpt>
      <trkpt lat="25.4485710" lon="-100.8786410">
        <ele>1609.6</ele>
        <time>2022-08-20T17:09:22Z</time>
      </trkpt>
      <trkpt lat="25.4486200" lon="-100.8787430">
        <ele>1609.2</ele>
        <time>2022-08-20T17:09:23Z</time>
      </trkpt>
      <trkpt lat="25.4486680" lon="-100.8788470">
        <ele>1608.9</ele>
        <time>2022-08-20T17:09:24Z</time>
      </trkpt>
      <trkpt lat="25.4487170" lon="-100.8789510">
        <ele>1608.5</ele>
        <time>2022-08-20T17:09:25Z</time>
      </trkpt>
      <trkpt lat="25.4487690" lon="-100.8790540">
        <ele>1608.1</ele>
        <time>2022-08-20T17:09:26Z</time>
      </trkpt>
      <trkpt lat="25.4488210" lon="-100.8791550">
        <ele>1607.7</ele>
        <time>2022-08-20T17:09:27Z</time>
      </trkpt>
      <trkpt lat="25.4488740" lon="-100.8792560">
        <ele>1607.4</ele>
        <time>2022-08-20T17:09:28Z</time>
      </trkpt>
      <trkpt lat="25.4489260" lon="-100.8793590">
        <ele>1607.1</ele>
        <time>2022-08-20T17:09:29Z</time>
      </trkpt>
      <trkpt lat="25.4489790" lon="-100.8794610">
        <ele>1606.8</ele>
        <time>2022-08-20T17:09:30Z</time>
      </trkpt>
      <trkpt lat="25.4490310" lon="-100.8795630">
        <ele>1606.5</ele>
        <time>2022-08-20T17:09:31Z</time>
      </trkpt>
      <trkpt lat="25.4490830" lon="-100.8796640">
        <ele>1606.3</ele>
        <time>2022-08-20T17:09:32Z</time>
      </trkpt>
      <trkpt lat="25.4491360" lon="-100.8797660">
        <ele>1606.1</ele>
        <time>2022-08-20T17:09:33Z</time>
      </trkpt>
      <trkpt lat="25.4491870" lon="-100.8798670">
        <ele>1605.9</ele>
        <time>2022-08-20T17:09:34Z</time>
      </trkpt>
      <trkpt lat="25.4492380" lon="-100.8799690">
        <ele>1605.8</ele>
        <time>2022-08-20T17:09:35Z</time>
      </trkpt>
      <trkpt lat="25.4492890" lon="-100.8800680">
        <ele>1605.6</ele>
        <time>2022-08-20T17:09:36Z</time>
      </trkpt>
      <trkpt lat="25.4493390" lon="-100.8801660">
        <ele>1605.5</ele>
        <time>2022-08-20T17:09:37Z</time>
      </trkpt>
      <trkpt lat="25.4493900" lon="-100.8802640">
        <ele>1605.4</ele>
        <time>2022-08-20T17:09:38Z</time>
      </trkpt>
      <trkpt lat="25.4494420" lon="-100.8803600">
        <ele>1605.3</ele>
        <time>2022-08-20T17:09:39Z</time>
      </trkpt>
      <trkpt lat="25.4494960" lon="-100.8804530">
        <ele>1605.2</ele>
        <time>2022-08-20T17:09:40Z</time>
      </trkpt>
      <trkpt lat="25.4495490" lon="-100.8805460">
        <ele>1605.1</ele>
        <time>2022-08-20T17:09:41Z</time>
      </trkpt>
      <trkpt lat="25.4496010" lon="-100.8806380">
        <ele>1605.0</ele>
        <time>2022-08-20T17:09:42Z</time>
      </trkpt>
      <trkpt lat="25.4496490" lon="-100.8807310">
        <ele>1604.9</ele>
        <time>2022-08-20T17:09:43Z</time>
      </trkpt>
      <trkpt lat="25.4496970" lon="-100.8808240">
        <ele>1604.7</ele>
        <time>2022-08-20T17:09:44Z</time>
      </trkpt>
      <trkpt lat="25.4497460" lon="-100.8809160">
        <ele>1604.6</ele>
        <time>2022-08-20T17:09:45Z</time>
      </trkpt>
      <trkpt lat="25.4497970" lon="-100.8810080">
        <ele>1604.5</ele>
        <time>2022-08-20T17:09:46Z</time>
      </trkpt>
      <trkpt lat="25.4498500" lon="-100.8811000">
        <ele>1604.4</ele>
        <time>2022-08-20T17:09:47Z</time>
      </trkpt>
      <trkpt lat="25.4499030" lon="-100.8811930">
        <ele>1604.2</ele>
        <time>2022-08-20T17:09:48Z</time>
      </trkpt>
      <trkpt lat="25.4499550" lon="-100.8812860">
        <ele>1603.9</ele>
        <time>2022-08-20T17:09:49Z</time>
      </trkpt>
      <trkpt lat="25.4500060" lon="-100.8813810">
        <ele>1603.7</ele>
        <time>2022-08-20T17:09:50Z</time>
      </trkpt>
      <trkpt lat="25.4500560" lon="-100.8814750">
        <ele>1603.4</ele>
        <time>2022-08-20T17:09:51Z</time>
      </trkpt>
      <trkpt lat="25.4501070" lon="-100.8815690">
        <ele>1603.1</ele>
        <time>2022-08-20T17:09:52Z</time>
      </trkpt>
      <trkpt lat="25.4501560" lon="-100.8816610">
        <ele>1602.8</ele>
        <time>2022-08-20T17:09:53Z</time>
      </trkpt>
      <trkpt lat="25.4502070" lon="-100.8817530">
        <ele>1602.5</ele>
        <time>2022-08-20T17:09:54Z</time>
      </trkpt>
      <trkpt lat="25.4502580" lon="-100.8818450">
        <ele>1602.2</ele>
        <time>2022-08-20T17:09:55Z</time>
      </trkpt>
      <trkpt lat="25.4503070" lon="-100.8819390">
        <ele>1602.0</ele>
        <time>2022-08-20T17:09:56Z</time>
      </trkpt>
      <trkpt lat="25.4503550" lon="-100.8820300">
        <ele>1601.7</ele>
        <time>2022-08-20T17:09:57Z</time>
      </trkpt>
      <trkpt lat="25.4504050" lon="-100.8821240">
        <ele>1601.4</ele>
        <time>2022-08-20T17:09:58Z</time>
      </trkpt>
      <trkpt lat="25.4504540" lon="-100.8822170">
        <ele>1601.1</ele>
        <time>2022-08-20T17:09:59Z</time>
      </trkpt>
      <trkpt lat="25.4505030" lon="-100.8823130">
        <ele>1600.8</ele>
        <time>2022-08-20T17:10:00Z</time>
      </trkpt>
      <trkpt lat="25.4505510" lon="-100.8824090">
        <ele>1600.6</ele>
        <time>2022-08-20T17:10:01Z</time>
      </trkpt>
      <trkpt lat="25.4505980" lon="-100.8825060">
        <ele>1600.4</ele>
        <time>2022-08-20T17:10:02Z</time>
      </trkpt>
      <trkpt lat="25.4506440" lon="-100.8826030">
        <ele>1600.2</ele>
        <time>2022-08-20T17:10:03Z</time>
      </trkpt>
      <trkpt lat="25.4506880" lon="-100.8827010">
        <ele>1600.0</ele>
        <time>2022-08-20T17:10:04Z</time>
      </trkpt>
      <trkpt lat="25.4507310" lon="-100.8828010">
        <ele>1599.7</ele>
        <time>2022-08-20T17:10:05Z</time>
      </trkpt>
      <trkpt lat="25.4507680" lon="-100.8829030">
        <ele>1599.5</ele>
        <time>2022-08-20T17:10:06Z</time>
      </trkpt>
      <trkpt lat="25.4508010" lon="-100.8830080">
        <ele>1599.3</ele>
        <time>2022-08-20T17:10:07Z</time>
      </trkpt>
      <trkpt lat="25.4508260" lon="-100.8831140">
        <ele>1599.0</ele>
        <time>2022-08-20T17:10:08Z</time>
      </trkpt>
      <trkpt lat="25.4508430" lon="-100.8832230">
        <ele>1598.7</ele>
        <time>2022-08-20T17:10:09Z</time>
      </trkpt>
      <trkpt lat="25.4508520" lon="-100.8833340">
        <ele>1598.4</ele>
        <time>2022-08-20T17:10:10Z</time>
      </trkpt>
      <trkpt lat="25.4508570" lon="-100.8834440">
        <ele>1598.1</ele>
        <time>2022-08-20T17:10:11Z</time>
      </trkpt>
      <trkpt lat="25.4508570" lon="-100.8835550">
        <ele>1597.8</ele>
        <time>2022-08-20T17:10:12Z</time>
      </trkpt>
      <trkpt lat="25.4508530" lon="-100.8836690">
        <ele>1597.5</ele>
        <time>2022-08-20T17:10:13Z</time>
      </trkpt>
      <trkpt lat="25.4508430" lon="-100.8837850">
        <ele>1597.1</ele>
        <time>2022-08-20T17:10:14Z</time>
      </trkpt>
      <trkpt lat="25.4508250" lon="-100.8838990">
        <ele>1596.7</ele>
        <time>2022-08-20T17:10:15Z</time>
      </trkpt>
      <trkpt lat="25.4507980" lon="-100.8840130">
        <ele>1596.2</ele>
        <time>2022-08-20T17:10:16Z</time>
      </trkpt>
      <trkpt lat="25.4507640" lon="-100.8841250">
        <ele>1595.7</ele>
        <time>2022-08-20T17:10:17Z</time>
      </trkpt>
      <trkpt lat="25.4507210" lon="-100.8842320">
        <ele>1595.2</ele>
        <time>2022-08-20T17:10:18Z</time>
      </trkpt>
      <trkpt lat="25.4506710" lon="-100.8843360">
        <ele>1594.8</ele>
        <time>2022-08-20T17:10:19Z</time>
      </trkpt>
      <trkpt lat="25.4506180" lon="-100.8844320">
        <ele>1594.3</ele>
        <time>2022-08-20T17:10:20Z</time>
      </trkpt>
      <trkpt lat="25.4505580" lon="-100.8845250">
        <ele>1594.0</ele>
        <time>2022-08-20T17:10:21Z</time>
      </trkpt>
      <trkpt lat="25.4504940" lon="-100.8846170">
        <ele>1593.7</ele>
        <time>2022-08-20T17:10:22Z</time>
      </trkpt>
      <trkpt lat="25.4504250" lon="-100.8847030">
        <ele>1593.3</ele>
        <time>2022-08-20T17:10:23Z</time>
      </trkpt>
      <trkpt lat="25.4503520" lon="-100.8847820">
        <ele>1593.0</ele>
        <time>2022-08-20T17:10:24Z</time>
      </trkpt>
      <trkpt lat="25.4502760" lon="-100.8848570">
        <ele>1592.6</ele>
        <time>2022-08-20T17:10:25Z</time>
      </trkpt>
      <trkpt lat="25.4501970" lon="-100.8849280">
        <ele>1592.4</ele>
        <time>2022-08-20T17:10:26Z</time>
      </trkpt>
      <trkpt lat="25.4501180" lon="-100.8849980">
        <ele>1592.1</ele>
        <time>2022-08-20T17:10:27Z</time>
      </trkpt>
      <trkpt lat="25.4500440" lon="-100.8850670">
        <ele>1591.9</ele>
        <time>2022-08-20T17:10:28Z</time>
      </trkpt>
      <trkpt lat="25.4499720" lon="-100.8851370">
        <ele>1591.8</ele>
        <time>2022-08-20T17:10:29Z</time>
      </trkpt>
      <trkpt lat="25.4499050" lon="-100.8852080">
        <ele>1591.6</ele>
        <time>2022-08-20T17:10:30Z</time>
      </trkpt>
      <trkpt lat="25.4498360" lon="-100.8852810">
        <ele>1591.5</ele>
        <time>2022-08-20T17:10:31Z</time>
      </trkpt>
      <trkpt lat="25.4497670" lon="-100.8853520">
        <ele>1591.3</ele>
        <time>2022-08-20T17:10:32Z</time>
      </trkpt>
      <trkpt lat="25.4496980" lon="-100.8854250">
        <ele>1591.2</ele>
        <time>2022-08-20T17:10:33Z</time>
      </trkpt>
      <trkpt lat="25.4496270" lon="-100.8854990">
        <ele>1591.1</ele>
        <time>2022-08-20T17:10:34Z</time>
      </trkpt>
      <trkpt lat="25.4495560" lon="-100.8855720">
        <ele>1591.0</ele>
        <time>2022-08-20T17:10:35Z</time>
      </trkpt>
      <trkpt lat="25.4494840" lon="-100.8856410">
        <ele>1590.9</ele>
        <time>2022-08-20T17:10:36Z</time>
      </trkpt>
      <trkpt lat="25.4494100" lon="-100.8857100">
        <ele>1590.8</ele>
        <time>2022-08-20T17:10:37Z</time>
      </trkpt>
      <trkpt lat="25.4493370" lon="-100.8857790">
        <ele>1590.7</ele>
        <time>2022-08-20T17:10:38Z</time>
      </trkpt>
      <trkpt lat="25.4492630" lon="-100.8858480">
        <ele>1590.7</ele>
        <time>2022-08-20T17:10:39Z</time>
      </trkpt>
      <trkpt lat="25.4491900" lon="-100.8859190">
        <ele>1590.7</ele>
        <time>2022-08-20T17:10:40Z</time>
      </trkpt>
      <trkpt lat="25.4491190" lon="-100.8859890">
        <ele>1590.7</ele>
        <time>2022-08-20T17:10:41Z</time>
      </trkpt>
      <trkpt lat="25.4490430" lon="-100.8860570">
        <ele>1590.7</ele>
        <time>2022-08-20T17:10:42Z</time>
      </trkpt>
      <trkpt lat="25.4489670" lon="-100.8861240">
        <ele>1590.7</ele>
        <time>2022-08-20T17:10:43Z</time>
      </trkpt>
      <trkpt lat="25.4488980" lon="-100.8861900">
        <ele>1590.7</ele>
        <time>2022-08-20T17:10:44Z</time>
      </trkpt>
      <trkpt lat="25.4488310" lon="-100.8862580">
        <ele>1590.8</ele>
        <time>2022-08-20T17:10:45Z</time>
      </trkpt>
      <trkpt lat="25.4487700" lon="-100.8863240">
        <ele>1590.8</ele>
        <time>2022-08-20T17:10:46Z</time>
      </trkpt>
      <trkpt lat="25.4487100" lon="-100.8863920">
        <ele>1590.8</ele>
        <time>2022-08-20T17:10:47Z</time>
      </trkpt>
      <trkpt lat="25.4486490" lon="-100.8864580">
        <ele>1590.9</ele>
        <time>2022-08-20T17:10:48Z</time>
      </trkpt>
      <trkpt lat="25.4485870" lon="-100.8865240">
        <ele>1591.0</ele>
        <time>2022-08-20T17:10:49Z</time>
      </trkpt>
      <trkpt lat="25.4485260" lon="-100.8865890">
        <ele>1591.1</ele>
        <time>2022-08-20T17:10:50Z</time>
      </trkpt>
      <trkpt lat="25.4484670" lon="-100.8866540">
        <ele>1591.2</ele>
        <time>2022-08-20T17:10:51Z</time>
      </trkpt>
      <trkpt lat="25.4484100" lon="-100.8867200">
        <ele>1591.3</ele>
        <time>2022-08-20T17:10:52Z</time>
      </trkpt>
      <trkpt lat="25.4483540" lon="-100.8867860">
        <ele>1591.4</ele>
        <time>2022-08-20T17:10:53Z</time>
      </trkpt>
      <trkpt lat="25.4483010" lon="-100.8868530">
        <ele>1591.5</ele>
        <time>2022-08-20T17:10:54Z</time>
      </trkpt>
      <trkpt lat="25.4482500" lon="-100.8869210">
        <ele>1591.6</ele>
        <time>2022-08-20T17:10:55Z</time>
      </trkpt>
      <trkpt lat="25.4482000" lon="-100.8869930">
        <ele>1591.8</ele>
        <time>2022-08-20T17:10:56Z</time>
      </trkpt>
      <trkpt lat="25.4481520" lon="-100.8870660">
        <ele>1591.9</ele>
        <time>2022-08-20T17:10:57Z</time>
      </trkpt>
      <trkpt lat="25.4481050" lon="-100.8871410">
        <ele>1592.0</ele>
        <time>2022-08-20T17:10:58Z</time>
      </trkpt>
      <trkpt lat="25.4480590" lon="-100.8872170">
        <ele>1592.1</ele>
        <time>2022-08-20T17:10:59Z</time>
      </trkpt>
      <trkpt lat="25.4480150" lon="-100.8872920">
        <ele>1592.2</ele>
        <time>2022-08-20T17:11:00Z</time>
      </trkpt>
      <trkpt lat="25.4479750" lon="-100.8873660">
        <ele>1592.3</ele>
        <time>2022-08-20T17:11:01Z</time>
      </trkpt>
      <trkpt lat="25.4479380" lon="-100.8874440">
        <ele>1592.4</ele>
        <time>2022-08-20T17:11:02Z</time>
      </trkpt>
      <trkpt lat="25.4479020" lon="-100.8875240">
        <ele>1592.5</ele>
        <time>2022-08-20T17:11:03Z</time>
      </trkpt>
      <trkpt lat="25.4478660" lon="-100.8876020">
        <ele>1592.5</ele>
        <time>2022-08-20T17:11:04Z</time>
      </trkpt>
      <trkpt lat="25.4478310" lon="-100.8876770">
        <ele>1592.6</ele>
        <time>2022-08-20T17:11:05Z</time>
      </trkpt>
      <trkpt lat="25.4477960" lon="-100.8877510">
        <ele>1592.6</ele>
        <time>2022-08-20T17:11:06Z</time>
      </trkpt>
      <trkpt lat="25.4477610" lon="-100.8878270">
        <ele>1592.7</ele>
        <time>2022-08-20T17:11:07Z</time>
      </trkpt>
      <trkpt lat="25.4477250" lon="-100.8879040">
        <ele>1592.8</ele>
        <time>2022-08-20T17:11:08Z</time>
      </trkpt>
      <trkpt lat="25.4476890" lon="-100.8879790">
        <ele>1592.8</ele>
        <time>2022-08-20T17:11:09Z</time>
      </trkpt>
      <trkpt lat="25.4476530" lon="-100.8880560">
        <ele>1592.9</ele>
        <time>2022-08-20T17:11:10Z</time>
      </trkpt>
      <trkpt lat="25.4476170" lon="-100.8881330">
        <ele>1592.9</ele>
        <time>2022-08-20T17:11:11Z</time>
      </trkpt>
      <trkpt lat="25.4475800" lon="-100.8882110">
        <ele>1592.9</ele>
        <time>2022-08-20T17:11:12Z</time>
      </trkpt>
      <trkpt lat="25.4475440" lon="-100.8882910">
        <ele>1592.9</ele>
        <time>2022-08-20T17:11:13Z</time>
      </trkpt>
      <trkpt lat="25.4475070" lon="-100.8883710">
        <ele>1592.9</ele>
        <time>2022-08-20T17:11:14Z</time>
      </trkpt>
      <trkpt lat="25.4474710" lon="-100.8884470">
        <ele>1592.9</ele>
        <time>2022-08-20T17:11:15Z</time>
      </trkpt>
      <trkpt lat="25.4474360" lon="-100.8885260">
        <ele>1592.9</ele>
        <time>2022-08-20T17:11:16Z</time>
      </trkpt>
      <trkpt lat="25.4474010" lon="-100.8886040">
        <ele>1592.9</ele>
        <time>2022-08-20T17:11:17Z</time>
      </trkpt>
      <trkpt lat="25.4473680" lon="-100.8886820">
        <ele>1593.0</ele>
        <time>2022-08-20T17:11:18Z</time>
      </trkpt>
      <trkpt lat="25.4473340" lon="-100.8887600">
        <ele>1593.0</ele>
        <time>2022-08-20T17:11:19Z</time>
      </trkpt>
      <trkpt lat="25.4472990" lon="-100.8888400">
        <ele>1593.0</ele>
        <time>2022-08-20T17:11:20Z</time>
      </trkpt>
      <trkpt lat="25.4472630" lon="-100.8889180">
        <ele>1593.0</ele>
        <time>2022-08-20T17:11:21Z</time>
      </trkpt>
      <trkpt lat="25.4472270" lon="-100.8889990">
        <ele>1592.9</ele>
        <time>2022-08-20T17:11:22Z</time>
      </trkpt>
      <trkpt lat="25.4471910" lon="-100.8890810">
        <ele>1592.9</ele>
        <time>2022-08-20T17:11:23Z</time>
      </trkpt>
      <trkpt lat="25.4471540" lon="-100.8891610">
        <ele>1592.9</ele>
        <time>2022-08-20T17:11:24Z</time>
      </trkpt>
      <trkpt lat="25.4471180" lon="-100.8892430">
        <ele>1592.8</ele>
        <time>2022-08-20T17:11:25Z</time>
      </trkpt>
      <trkpt lat="25.4470820" lon="-100.8893210">
        <ele>1592.8</ele>
        <time>2022-08-20T17:11:26Z</time>
      </trkpt>
      <trkpt lat="25.4470470" lon="-100.8893970">
        <ele>1592.8</ele>
        <time>2022-08-20T17:11:27Z</time>
      </trkpt>
      <trkpt lat="25.4470100" lon="-100.8894720">
        <ele>1592.9</ele>
        <time>2022-08-20T17:11:28Z</time>
      </trkpt>
      <trkpt lat="25.4469740" lon="-100.8895450">
        <ele>1592.9</ele>
        <time>2022-08-20T17:11:29Z</time>
      </trkpt>
      <trkpt lat="25.4469400" lon="-100.8896190">
        <ele>1593.0</ele>
        <time>2022-08-20T17:11:30Z</time>
      </trkpt>
      <trkpt lat="25.4469060" lon="-100.8896910">
        <ele>1593.1</ele>
        <time>2022-08-20T17:11:31Z</time>
      </trkpt>
      <trkpt lat="25.4468730" lon="-100.8897590">
        <ele>1593.1</ele>
        <time>2022-08-20T17:11:32Z</time>
      </trkpt>
      <trkpt lat="25.4468410" lon="-100.8898250">
        <ele>1593.0</ele>
        <time>2022-08-20T17:11:33Z</time>
      </trkpt>
      <trkpt lat="25.4468090" lon="-100.8898910">
        <ele>1593.0</ele>
        <time>2022-08-20T17:11:34Z</time>
      </trkpt>
      <trkpt lat="25.4467780" lon="-100.8899570">
        <ele>1592.9</ele>
        <time>2022-08-20T17:11:35Z</time>
      </trkpt>
      <trkpt lat="25.4467490" lon="-100.8900220">
        <ele>1592.9</ele>
        <time>2022-08-20T17:11:36Z</time>
      </trkpt>
      <trkpt lat="25.4467210" lon="-100.8900880">
        <ele>1592.8</ele>
        <time>2022-08-20T17:11:37Z</time>
      </trkpt>
      <trkpt lat="25.4466920" lon="-100.8901520">
        <ele>1592.7</ele>
        <time>2022-08-20T17:11:38Z</time>
      </trkpt>
      <trkpt lat="25.4466640" lon="-100.8902160">
        <ele>1592.6</ele>
        <time>2022-08-20T17:11:39Z</time>
      </trkpt>
      <trkpt lat="25.4466330" lon="-100.8902790">
        <ele>1592.6</ele>
        <time>2022-08-20T17:11:40Z</time>
      </trkpt>
      <trkpt lat="25.4466020" lon="-100.8903410">
        <ele>1592.5</ele>
        <time>2022-08-20T17:11:41Z</time>
      </trkpt>
      <trkpt lat="25.4465720" lon="-100.8904040">
        <ele>1592.4</ele>
        <time>2022-08-20T17:11:42Z</time>
      </trkpt>
      <trkpt lat="25.4465440" lon="-100.8904670">
        <ele>1592.3</ele>
        <time>2022-08-20T17:11:43Z</time>
      </trkpt>
      <trkpt lat="25.4465160" lon="-100.8905280">
        <ele>1592.2</ele>
        <time>2022-08-20T17:11:44Z</time>
      </trkpt>
      <trkpt lat="25.4464890" lon="-100.8905880">
        <ele>1592.2</ele>
        <time>2022-08-20T17:11:45Z</time>
      </trkpt>
      <trkpt lat="25.4464640" lon="-100.8906450">
        <ele>1592.1</ele>
        <time>2022-08-20T17:11:46Z</time>
      </trkpt>
      <trkpt lat="25.4464410" lon="-100.8906970">
        <ele>1592.0</ele>
        <time>2022-08-20T17:11:47Z</time>
      </trkpt>
      <trkpt lat="25.4464200" lon="-100.8907410">
        <ele>1592.0</ele>
        <time>2022-08-20T17:11:48Z</time>
      </trkpt>
      <trkpt lat="25.4464060" lon="-100.8907720">
        <ele>1592.0</ele>
        <time>2022-08-20T17:11:49Z</time>
      </trkpt>
      <trkpt lat="25.4463900" lon="-100.8908050">
        <ele>1591.9</ele>
        <time>2022-08-20T17:11:50Z</time>
      </trkpt>
      <trkpt lat="25.4463820" lon="-100.8908240">
        <ele>1591.9</ele>
        <time>2022-08-20T17:11:51Z</time>
      </trkpt>
      <trkpt lat="25.4463740" lon="-100.8908410">
        <ele>1591.9</ele>
        <time>2022-08-20T17:11:52Z</time>
      </trkpt>
      <trkpt lat="25.4463720" lon="-100.8908480">
        <ele>1591.9</ele>
        <time>2022-08-20T17:11:53Z</time>
      </trkpt>
      <trkpt lat="25.4463720" lon="-100.8908460">
        <ele>1591.9</ele>
        <time>2022-08-20T17:11:54Z</time>
      </trkpt>
      <trkpt lat="25.4463710" lon="-100.8908420">
        <ele>1591.9</ele>
        <time>2022-08-20T17:11:55Z</time>
      </trkpt>
      <trkpt lat="25.4463720" lon="-100.8908400">
        <ele>1591.9</ele>
        <time>2022-08-20T17:11:56Z</time>
      </trkpt>
      <trkpt lat="25.4463700" lon="-100.8908350">
        <ele>1591.9</ele>
        <time>2022-08-20T17:11:57Z</time>
      </trkpt>
      <trkpt lat="25.4463710" lon="-100.8908330">
        <ele>1591.9</ele>
        <time>2022-08-20T17:11:58Z</time>
      </trkpt>
      <trkpt lat="25.4463720" lon="-100.8908310">
        <ele>1591.9</ele>
        <time>2022-08-20T17:11:59Z</time>
      </trkpt>
      <trkpt lat="25.4463730" lon="-100.8908300">
        <ele>1591.9</ele>
        <time>2022-08-20T17:12:00Z</time>
      </trkpt>
      <trkpt lat="25.4463740" lon="-100.8908290">
        <ele>1591.9</ele>
        <time>2022-08-20T17:12:01Z</time>
      </trkpt>
      <trkpt lat="25.4463730" lon="-100.8908280">
        <ele>1591.9</ele>
        <time>2022-08-20T17:12:02Z</time>
      </trkpt>
      <trkpt lat="25.4463730" lon="-100.8908280">
        <ele>1591.9</ele>
        <time>2022-08-20T17:12:03Z</time>
      </trkpt>
      <trkpt lat="25.4463740" lon="-100.8908280">
        <ele>1591.9</ele>
        <time>2022-08-20T17:12:04Z</time>
      </trkpt>
      <trkpt lat="25.4463730" lon="-100.8908280">
        <ele>1591.9</ele>
        <time>2022-08-20T17:12:05Z</time>
      </trkpt>
      <trkpt lat="25.4463730" lon="-100.8908280">
        <ele>1591.9</ele>
        <time>2022-08-20T17:12:06Z</time>
      </trkpt>
      <trkpt lat="25.4463730" lon="-100.8908270">
        <ele>1591.9</ele>
        <time>2022-08-20T17:12:07Z</time>
      </trkpt>
      <trkpt lat="25.4463740" lon="-100.8908280">
        <ele>1591.9</ele>
        <time>2022-08-20T17:12:08Z</time>
      </trkpt>
      <trkpt lat="25.4463740" lon="-100.8908270">
        <ele>1591.9</ele>
        <time>2022-08-20T17:12:09Z</time>
      </trkpt>
      <trkpt lat="25.4463740" lon="-100.8908270">
        <ele>1591.9</ele>
        <time>2022-08-20T17:12:10Z</time>
      </trkpt>
      <trkpt lat="25.4463700" lon="-100.8908310">
        <ele>1591.9</ele>
        <time>2022-08-20T17:12:11Z</time>
      </trkpt>
      <trkpt lat="25.4463690" lon="-100.8908330">
        <ele>1591.9</ele>
        <time>2022-08-20T17:12:12Z</time>
      </trkpt>
      <trkpt lat="25.4463690" lon="-100.8908330">
        <ele>1591.9</ele>
        <time>2022-08-20T17:12:13Z</time>
      </trkpt>
      <trkpt lat="25.4463690" lon="-100.8908330">
        <ele>1591.9</ele>
        <time>2022-08-20T17:12:14Z</time>
      </trkpt>
      <trkpt lat="25.4463690" lon="-100.8908330">
        <ele>1591.9</ele>
        <time>2022-08-20T17:12:15Z</time>
      </trkpt>
      <trkpt lat="25.4463690" lon="-100.8908330">
        <ele>1591.9</ele>
        <time>2022-08-20T17:12:16Z</time>
      </trkpt>
      <trkpt lat="25.4463690" lon="-100.8908330">
        <ele>1591.9</ele>
        <time>2022-08-20T17:12:17Z</time>
      </trkpt>
      <trkpt lat="25.4463690" lon="-100.8908330">
        <ele>1591.9</ele>
        <time>2022-08-20T17:12:18Z</time>
      </trkpt>
      <trkpt lat="25.4463690" lon="-100.8908330">
        <ele>1591.9</ele>
        <time>2022-08-20T17:12:19Z</time>
      </trkpt>
      <trkpt lat="25.4463690" lon="-100.8908330">
        <ele>1591.9</ele>
        <time>2022-08-20T17:12:20Z</time>
      </trkpt>
      <trkpt lat="25.4463660" lon="-100.8908360">
        <ele>1591.9</ele>
        <time>2022-08-20T17:12:21Z</time>
      </trkpt>
      <trkpt lat="25.4463610" lon="-100.8908480">
        <ele>1591.9</ele>
        <time>2022-08-20T17:12:22Z</time>
      </trkpt>
      <trkpt lat="25.4463530" lon="-100.8908700">
        <ele>1591.9</ele>
        <time>2022-08-20T17:12:23Z</time>
      </trkpt>
      <trkpt lat="25.4463380" lon="-100.8908980">
        <ele>1591.9</ele>
        <time>2022-08-20T17:12:24Z</time>
      </trkpt>
      <trkpt lat="25.4463240" lon="-100.8909330">
        <ele>1591.9</ele>
        <time>2022-08-20T17:12:25Z</time>
      </trkpt>
      <trkpt lat="25.4463100" lon="-100.8909680">
        <ele>1591.9</ele>
        <time>2022-08-20T17:12:26Z</time>
      </trkpt>
      <trkpt lat="25.4462890" lon="-100.8910200">
        <ele>1591.9</ele>
        <time>2022-08-20T17:12:27Z</time>
      </trkpt>
      <trkpt lat="25.4462790" lon="-100.8910450">
        <ele>1591.9</ele>
        <time>2022-08-20T17:12:28Z</time>
      </trkpt>
      <trkpt lat="25.4462600" lon="-100.8910880">
        <ele>1591.9</ele>
        <time>2022-08-20T17:12:29Z</time>
      </trkpt>
      <trkpt lat="25.4462130" lon="-100.8911840">
        <ele>1591.6</ele>
        <time>2022-08-20T17:12:31Z</time>
      </trkpt>
      <trkpt lat="25.4461890" lon="-100.8912390">
        <ele>1591.4</ele>
        <time>2022-08-20T17:12:32Z</time>
      </trkpt>
      <trkpt lat="25.4461630" lon="-100.8912980">
        <ele>1591.2</ele>
        <time>2022-08-20T17:12:33Z</time>
      </trkpt>
      <trkpt lat="25.4461380" lon="-100.8913580">
        <ele>1591.1</ele>
        <time>2022-08-20T17:12:34Z</time>
      </trkpt>
      <trkpt lat="25.4461150" lon="-100.8914210">
        <ele>1591.0</ele>
        <time>2022-08-20T17:12:35Z</time>
      </trkpt>
      <trkpt lat="25.4460900" lon="-100.8914860">
        <ele>1590.9</ele>
        <time>2022-08-20T17:12:36Z</time>
      </trkpt>
      <trkpt lat="25.4460640" lon="-100.8915540">
        <ele>1590.8</ele>
        <time>2022-08-20T17:12:37Z</time>
      </trkpt>
      <trkpt lat="25.4460360" lon="-100.8916240">
        <ele>1590.7</ele>
        <time>2022-08-20T17:12:38Z</time>
      </trkpt>
      <trkpt lat="25.4460050" lon="-100.8916970">
        <ele>1590.7</ele>
        <time>2022-08-20T17:12:39Z</time>
      </trkpt>
      <trkpt lat="25.4459730" lon="-100.8917720">
        <ele>1590.6</ele>
        <time>2022-08-20T17:12:40Z</time>
      </trkpt>
      <trkpt lat="25.4459400" lon="-100.8918470">
        <ele>1590.5</ele>
        <time>2022-08-20T17:12:41Z</time>
      </trkpt>
      <trkpt lat="25.4459080" lon="-100.8919210">
        <ele>1590.4</ele>
        <time>2022-08-20T17:12:42Z</time>
      </trkpt>
      <trkpt lat="25.4458740" lon="-100.8919950">
        <ele>1590.3</ele>
        <time>2022-08-20T17:12:43Z</time>
      </trkpt>
      <trkpt lat="25.4458410" lon="-100.8920680">
        <ele>1590.3</ele>
        <time>2022-08-20T17:12:44Z</time>
      </trkpt>
      <trkpt lat="25.4458090" lon="-100.8921420">
        <ele>1590.3</ele>
        <time>2022-08-20T17:12:45Z</time>
      </trkpt>
      <trkpt lat="25.4457760" lon="-100.8922180">
        <ele>1590.2</ele>
        <time>2022-08-20T17:12:46Z</time>
      </trkpt>
      <trkpt lat="25.4457430" lon="-100.8922950">
        <ele>1590.2</ele>
        <time>2022-08-20T17:12:47Z</time>
      </trkpt>
      <trkpt lat="25.4457100" lon="-100.8923750">
        <ele>1590.2</ele>
        <time>2022-08-20T17:12:48Z</time>
      </trkpt>
      <trkpt lat="25.4456750" lon="-100.8924550">
        <ele>1590.1</ele>
        <time>2022-08-20T17:12:49Z</time>
      </trkpt>
      <trkpt lat="25.4456430" lon="-100.8925360">
        <ele>1590.0</ele>
        <time>2022-08-20T17:12:50Z</time>
      </trkpt>
      <trkpt lat="25.4456120" lon="-100.8926160">
        <ele>1589.9</ele>
        <time>2022-08-20T17:12:51Z</time>
      </trkpt>
      <trkpt lat="25.4455820" lon="-100.8926970">
        <ele>1589.8</ele>
        <time>2022-08-20T17:12:52Z</time>
      </trkpt>
      <trkpt lat="25.4455510" lon="-100.8927770">
        <ele>1589.7</ele>
        <time>2022-08-20T17:12:53Z</time>
      </trkpt>
      <trkpt lat="25.4455230" lon="-100.8928560">
        <ele>1589.6</ele>
        <time>2022-08-20T17:12:54Z</time>
      </trkpt>
      <trkpt lat="25.4454930" lon="-100.8929370">
        <ele>1589.6</ele>
        <time>2022-08-20T17:12:55Z</time>
      </trkpt>
      <trkpt lat="25.4454650" lon="-100.8930160">
        <ele>1589.5</ele>
        <time>2022-08-20T17:12:56Z</time>
      </trkpt>
      <trkpt lat="25.4454360" lon="-100.8930960">
        <ele>1589.4</ele>
        <time>2022-08-20T17:12:57Z</time>
      </trkpt>
      <trkpt lat="25.4454080" lon="-100.8931760">
        <ele>1589.4</ele>
        <time>2022-08-20T17:12:58Z</time>
      </trkpt>
      <trkpt lat="25.4453800" lon="-100.8932580">
        <ele>1589.3</ele>
        <time>2022-08-20T17:12:59Z</time>
      </trkpt>
      <trkpt lat="25.4453540" lon="-100.8933390">
        <ele>1589.2</ele>
        <time>2022-08-20T17:13:00Z</time>
      </trkpt>
      <trkpt lat="25.4453290" lon="-100.8934220">
        <ele>1589.1</ele>
        <time>2022-08-20T17:13:01Z</time>
      </trkpt>
      <trkpt lat="25.4453040" lon="-100.8935060">
        <ele>1589.0</ele>
        <time>2022-08-20T17:13:02Z</time>
      </trkpt>
      <trkpt lat="25.4452800" lon="-100.8935900">
        <ele>1589.0</ele>
        <time>2022-08-20T17:13:03Z</time>
      </trkpt>
      <trkpt lat="25.4452570" lon="-100.8936730">
        <ele>1588.9</ele>
        <time>2022-08-20T17:13:04Z</time>
      </trkpt>
      <trkpt lat="25.4452360" lon="-100.8937560">
        <ele>1588.8</ele>
        <time>2022-08-20T17:13:05Z</time>
      </trkpt>
      <trkpt lat="25.4452150" lon="-100.8938400">
        <ele>1588.7</ele>
        <time>2022-08-20T17:13:06Z</time>
      </trkpt>
      <trkpt lat="25.4451940" lon="-100.8939260">
        <ele>1588.7</ele>
        <time>2022-08-20T17:13:07Z</time>
      </trkpt>
      <trkpt lat="25.4451750" lon="-100.8940100">
        <ele>1588.6</ele>
        <time>2022-08-20T17:13:08Z</time>
      </trkpt>
      <trkpt lat="25.4451550" lon="-100.8940950">
        <ele>1588.5</ele>
        <time>2022-08-20T17:13:09Z</time>
      </trkpt>
      <trkpt lat="25.4451340" lon="-100.8941810">
        <ele>1588.3</ele>
        <time>2022-08-20T17:13:10Z</time>
      </trkpt>
      <trkpt lat="25.4451140" lon="-100.8942680">
        <ele>1588.2</ele>
        <time>2022-08-20T17:13:11Z</time>
      </trkpt>
      <trkpt lat="25.4450970" lon="-100.8943550">
        <ele>1588.1</ele>
        <time>2022-08-20T17:13:12Z</time>
      </trkpt>
      <trkpt lat="25.4450800" lon="-100.8944440">
        <ele>1588.0</ele>
        <time>2022-08-20T17:13:13Z</time>
      </trkpt>
      <trkpt lat="25.4450640" lon="-100.8945350">
        <ele>1587.9</ele>
        <time>2022-08-20T17:13:14Z</time>
      </trkpt>
      <trkpt lat="25.4450470" lon="-100.8946270">
        <ele>1587.8</ele>
        <time>2022-08-20T17:13:15Z</time>
      </trkpt>
      <trkpt lat="25.4450300" lon="-100.8947170">
        <ele>1587.7</ele>
        <time>2022-08-20T17:13:16Z</time>
      </trkpt>
      <trkpt lat="25.4450120" lon="-100.8948060">
        <ele>1587.6</ele>
        <time>2022-08-20T17:13:17Z</time>
      </trkpt>
      <trkpt lat="25.4449960" lon="-100.8948950">
        <ele>1587.6</ele>
        <time>2022-08-20T17:13:18Z</time>
      </trkpt>
      <trkpt lat="25.4449810" lon="-100.8949860">
        <ele>1587.5</ele>
        <time>2022-08-20T17:13:19Z</time>
      </trkpt>
      <trkpt lat="25.4449670" lon="-100.8950770">
        <ele>1587.4</ele>
        <time>2022-08-20T17:13:20Z</time>
      </trkpt>
      <trkpt lat="25.4449530" lon="-100.8951710">
        <ele>1587.3</ele>
        <time>2022-08-20T17:13:21Z</time>
      </trkpt>
      <trkpt lat="25.4449400" lon="-100.8952630">
        <ele>1587.2</ele>
        <time>2022-08-20T17:13:22Z</time>
      </trkpt>
      <trkpt lat="25.4449280" lon="-100.8953570">
        <ele>1587.0</ele>
        <time>2022-08-20T17:13:23Z</time>
      </trkpt>
      <trkpt lat="25.4449180" lon="-100.8954500">
        <ele>1586.9</ele>
        <time>2022-08-20T17:13:24Z</time>
      </trkpt>
      <trkpt lat="25.4449070" lon="-100.8955420">
        <ele>1586.8</ele>
        <time>2022-08-20T17:13:25Z</time>
      </trkpt>
      <trkpt lat="25.4448940" lon="-100.8956350">
        <ele>1586.7</ele>
        <time>2022-08-20T17:13:26Z</time>
      </trkpt>
      <trkpt lat="25.4448800" lon="-100.8957300">
        <ele>1586.6</ele>
        <time>2022-08-20T17:13:27Z</time>
      </trkpt>
      <trkpt lat="25.4448670" lon="-100.8958240">
        <ele>1586.5</ele>
        <time>2022-08-20T17:13:28Z</time>
      </trkpt>
      <trkpt lat="25.4448550" lon="-100.8959170">
        <ele>1586.4</ele>
        <time>2022-08-20T17:13:29Z</time>
      </trkpt>
      <trkpt lat="25.4448430" lon="-100.8960100">
        <ele>1586.4</ele>
        <time>2022-08-20T17:13:30Z</time>
      </trkpt>
      <trkpt lat="25.4448310" lon="-100.8961020">
        <ele>1586.3</ele>
        <time>2022-08-20T17:13:31Z</time>
      </trkpt>
      <trkpt lat="25.4448180" lon="-100.8961950">
        <ele>1586.2</ele>
        <time>2022-08-20T17:13:32Z</time>
      </trkpt>
      <trkpt lat="25.4448030" lon="-100.8962900">
        <ele>1586.1</ele>
        <time>2022-08-20T17:13:33Z</time>
      </trkpt>
      <trkpt lat="25.4447890" lon="-100.8963850">
        <ele>1585.9</ele>
        <time>2022-08-20T17:13:34Z</time>
      </trkpt>
      <trkpt lat="25.4447750" lon="-100.8964790">
        <ele>1585.8</ele>
        <time>2022-08-20T17:13:35Z</time>
      </trkpt>
      <trkpt lat="25.4447620" lon="-100.8965730">
        <ele>1585.7</ele>
        <time>2022-08-20T17:13:36Z</time>
      </trkpt>
      <trkpt lat="25.4447490" lon="-100.8966650">
        <ele>1585.5</ele>
        <time>2022-08-20T17:13:37Z</time>
      </trkpt>
      <trkpt lat="25.4447350" lon="-100.8967570">
        <ele>1585.4</ele>
        <time>2022-08-20T17:13:38Z</time>
      </trkpt>
      <trkpt lat="25.4447210" lon="-100.8968490">
        <ele>1585.3</ele>
        <time>2022-08-20T17:13:39Z</time>
      </trkpt>
      <trkpt lat="25.4447080" lon="-100.8969400">
        <ele>1585.1</ele>
        <time>2022-08-20T17:13:40Z</time>
      </trkpt>
      <trkpt lat="25.4446950" lon="-100.8970310">
        <ele>1585.0</ele>
        <time>2022-08-20T17:13:41Z</time>
      </trkpt>
      <trkpt lat="25.4446810" lon="-100.8971220">
        <ele>1584.8</ele>
        <time>2022-08-20T17:13:42Z</time>
      </trkpt>
      <trkpt lat="25.4446660" lon="-100.8972130">
        <ele>1584.7</ele>
        <time>2022-08-20T17:13:43Z</time>
      </trkpt>
      <trkpt lat="25.4446520" lon="-100.8973040">
        <ele>1584.5</ele>
        <time>2022-08-20T17:13:44Z</time>
      </trkpt>
      <trkpt lat="25.4446370" lon="-100.8973940">
        <ele>1584.3</ele>
        <time>2022-08-20T17:13:45Z</time>
      </trkpt>
      <trkpt lat="25.4446250" lon="-100.8974860">
        <ele>1584.1</ele>
        <time>2022-08-20T17:13:46Z</time>
      </trkpt>
      <trkpt lat="25.4446110" lon="-100.8975780">
        <ele>1583.9</ele>
        <time>2022-08-20T17:13:47Z</time>
      </trkpt>
      <trkpt lat="25.4445960" lon="-100.8976700">
        <ele>1583.8</ele>
        <time>2022-08-20T17:13:48Z</time>
      </trkpt>
      <trkpt lat="25.4445820" lon="-100.8977660">
        <ele>1583.7</ele>
        <time>2022-08-20T17:13:49Z</time>
      </trkpt>
      <trkpt lat="25.4445670" lon="-100.8978620">
        <ele>1583.6</ele>
        <time>2022-08-20T17:13:50Z</time>
      </trkpt>
      <trkpt lat="25.4445520" lon="-100.8979570">
        <ele>1583.5</ele>
        <time>2022-08-20T17:13:51Z</time>
      </trkpt>
      <trkpt lat="25.4445370" lon="-100.8980500">
        <ele>1583.4</ele>
        <time>2022-08-20T17:13:52Z</time>
      </trkpt>
      <trkpt lat="25.4445220" lon="-100.8981430">
        <ele>1583.3</ele>
        <time>2022-08-20T17:13:53Z</time>
      </trkpt>
      <trkpt lat="25.4445100" lon="-100.8982350">
        <ele>1583.1</ele>
        <time>2022-08-20T17:13:54Z</time>
      </trkpt>
      <trkpt lat="25.4445000" lon="-100.8983280">
        <ele>1583.0</ele>
        <time>2022-08-20T17:13:55Z</time>
      </trkpt>
      <trkpt lat="25.4444890" lon="-100.8984240">
        <ele>1582.8</ele>
        <time>2022-08-20T17:13:56Z</time>
      </trkpt>
      <trkpt lat="25.4444770" lon="-100.8985200">
        <ele>1582.6</ele>
        <time>2022-08-20T17:13:57Z</time>
      </trkpt>
      <trkpt lat="25.4444630" lon="-100.8986150">
        <ele>1582.4</ele>
        <time>2022-08-20T17:13:58Z</time>
      </trkpt>
      <trkpt lat="25.4444490" lon="-100.8987090">
        <ele>1582.3</ele>
        <time>2022-08-20T17:13:59Z</time>
      </trkpt>
      <trkpt lat="25.4444360" lon="-100.8988010">
        <ele>1582.1</ele>
        <time>2022-08-20T17:14:00Z</time>
      </trkpt>
      <trkpt lat="25.4444220" lon="-100.8988920">
        <ele>1582.0</ele>
        <time>2022-08-20T17:14:01Z</time>
      </trkpt>
      <trkpt lat="25.4444100" lon="-100.8989830">
        <ele>1581.8</ele>
        <time>2022-08-20T17:14:02Z</time>
      </trkpt>
      <trkpt lat="25.4443980" lon="-100.8990720">
        <ele>1581.7</ele>
        <time>2022-08-20T17:14:03Z</time>
      </trkpt>
      <trkpt lat="25.4443860" lon="-100.8991630">
        <ele>1581.6</ele>
        <time>2022-08-20T17:14:04Z</time>
      </trkpt>
      <trkpt lat="25.4443720" lon="-100.8992530">
        <ele>1581.4</ele>
        <time>2022-08-20T17:14:05Z</time>
      </trkpt>
      <trkpt lat="25.4443570" lon="-100.8993430">
        <ele>1581.4</ele>
        <time>2022-08-20T17:14:06Z</time>
      </trkpt>
      <trkpt lat="25.4443420" lon="-100.8994310">
        <ele>1581.3</ele>
        <time>2022-08-20T17:14:07Z</time>
      </trkpt>
      <trkpt lat="25.4443280" lon="-100.8995210">
        <ele>1581.2</ele>
        <time>2022-08-20T17:14:08Z</time>
      </trkpt>
      <trkpt lat="25.4443150" lon="-100.8996130">
        <ele>1581.1</ele>
        <time>2022-08-20T17:14:09Z</time>
      </trkpt>
      <trkpt lat="25.4443010" lon="-100.8997030">
        <ele>1581.0</ele>
        <time>2022-08-20T17:14:10Z</time>
      </trkpt>
      <trkpt lat="25.4442850" lon="-100.8997950">
        <ele>1580.8</ele>
        <time>2022-08-20T17:14:11Z</time>
      </trkpt>
      <trkpt lat="25.4442710" lon="-100.8998870">
        <ele>1580.8</ele>
        <time>2022-08-20T17:14:12Z</time>
      </trkpt>
      <trkpt lat="25.4442580" lon="-100.8999780">
        <ele>1580.7</ele>
        <time>2022-08-20T17:14:13Z</time>
      </trkpt>
      <trkpt lat="25.4442460" lon="-100.9000690">
        <ele>1580.6</ele>
        <time>2022-08-20T17:14:14Z</time>
      </trkpt>
      <trkpt lat="25.4442320" lon="-100.9001570">
        <ele>1580.6</ele>
        <time>2022-08-20T17:14:15Z</time>
      </trkpt>
      <trkpt lat="25.4442190" lon="-100.9002440">
        <ele>1580.5</ele>
        <time>2022-08-20T17:14:16Z</time>
      </trkpt>
      <trkpt lat="25.4442070" lon="-100.9003330">
        <ele>1580.4</ele>
        <time>2022-08-20T17:14:17Z</time>
      </trkpt>
      <trkpt lat="25.4441950" lon="-100.9004220">
        <ele>1580.4</ele>
        <time>2022-08-20T17:14:18Z</time>
      </trkpt>
      <trkpt lat="25.4441820" lon="-100.9005110">
        <ele>1580.3</ele>
        <time>2022-08-20T17:14:19Z</time>
      </trkpt>
      <trkpt lat="25.4441720" lon="-100.9006000">
        <ele>1580.3</ele>
        <time>2022-08-20T17:14:20Z</time>
      </trkpt>
      <trkpt lat="25.4441610" lon="-100.9006860">
        <ele>1580.3</ele>
        <time>2022-08-20T17:14:21Z</time>
      </trkpt>
      <trkpt lat="25.4441500" lon="-100.9007720">
        <ele>1580.2</ele>
        <time>2022-08-20T17:14:22Z</time>
      </trkpt>
      <trkpt lat="25.4441390" lon="-100.9008570">
        <ele>1580.1</ele>
        <time>2022-08-20T17:14:23Z</time>
      </trkpt>
      <trkpt lat="25.4441260" lon="-100.9009440">
        <ele>1580.0</ele>
        <time>2022-08-20T17:14:24Z</time>
      </trkpt>
      <trkpt lat="25.4441130" lon="-100.9010320">
        <ele>1579.9</ele>
        <time>2022-08-20T17:14:25Z</time>
      </trkpt>
      <trkpt lat="25.4441000" lon="-100.9011200">
        <ele>1579.7</ele>
        <time>2022-08-20T17:14:26Z</time>
      </trkpt>
      <trkpt lat="25.4440890" lon="-100.9012060">
        <ele>1579.6</ele>
        <time>2022-08-20T17:14:27Z</time>
      </trkpt>
      <trkpt lat="25.4440770" lon="-100.9012920">
        <ele>1579.5</ele>
        <time>2022-08-20T17:14:28Z</time>
      </trkpt>
      <trkpt lat="25.4440650" lon="-100.9013790">
        <ele>1579.5</ele>
        <time>2022-08-20T17:14:29Z</time>
      </trkpt>
      <trkpt lat="25.4440520" lon="-100.9014650">
        <ele>1579.4</ele>
        <time>2022-08-20T17:14:30Z</time>
      </trkpt>
      <trkpt lat="25.4440390" lon="-100.9015520">
        <ele>1579.4</ele>
        <time>2022-08-20T17:14:31Z</time>
      </trkpt>
      <trkpt lat="25.4440270" lon="-100.9016400">
        <ele>1579.3</ele>
        <time>2022-08-20T17:14:32Z</time>
      </trkpt>
      <trkpt lat="25.4440150" lon="-100.9017270">
        <ele>1579.2</ele>
        <time>2022-08-20T17:14:33Z</time>
      </trkpt>
      <trkpt lat="25.4440030" lon="-100.9018130">
        <ele>1579.2</ele>
        <time>2022-08-20T17:14:34Z</time>
      </trkpt>
      <trkpt lat="25.4439920" lon="-100.9018980">
        <ele>1579.1</ele>
        <time>2022-08-20T17:14:35Z</time>
      </trkpt>
      <trkpt lat="25.4439820" lon="-100.9019830">
        <ele>1579.0</ele>
        <time>2022-08-20T17:14:36Z</time>
      </trkpt>
      <trkpt lat="25.4439710" lon="-100.9020670">
        <ele>1579.0</ele>
        <time>2022-08-20T17:14:37Z</time>
      </trkpt>
      <trkpt lat="25.4439590" lon="-100.9021530">
        <ele>1578.9</ele>
        <time>2022-08-20T17:14:38Z</time>
      </trkpt>
      <trkpt lat="25.4439470" lon="-100.9022390">
        <ele>1578.8</ele>
        <time>2022-08-20T17:14:39Z</time>
      </trkpt>
      <trkpt lat="25.4439360" lon="-100.9023240">
        <ele>1578.8</ele>
        <time>2022-08-20T17:14:40Z</time>
      </trkpt>
      <trkpt lat="25.4439250" lon="-100.9024110">
        <ele>1578.7</ele>
        <time>2022-08-20T17:14:41Z</time>
      </trkpt>
      <trkpt lat="25.4439140" lon="-100.9024980">
        <ele>1578.7</ele>
        <time>2022-08-20T17:14:42Z</time>
      </trkpt>
      <trkpt lat="25.4439010" lon="-100.9025840">
        <ele>1578.8</ele>
        <time>2022-08-20T17:14:43Z</time>
      </trkpt>
      <trkpt lat="25.4438880" lon="-100.9026670">
        <ele>1578.7</ele>
        <time>2022-08-20T17:14:44Z</time>
      </trkpt>
      <trkpt lat="25.4438750" lon="-100.9027520">
        <ele>1578.7</ele>
        <time>2022-08-20T17:14:45Z</time>
      </trkpt>
      <trkpt lat="25.4438630" lon="-100.9028370">
        <ele>1578.6</ele>
        <time>2022-08-20T17:14:46Z</time>
      </trkpt>
      <trkpt lat="25.4438530" lon="-100.9029220">
        <ele>1578.5</ele>
        <time>2022-08-20T17:14:47Z</time>
      </trkpt>
      <trkpt lat="25.4438410" lon="-100.9030070">
        <ele>1578.4</ele>
        <time>2022-08-20T17:14:48Z</time>
      </trkpt>
      <trkpt lat="25.4438300" lon="-100.9030940">
        <ele>1578.3</ele>
        <time>2022-08-20T17:14:49Z</time>
      </trkpt>
      <trkpt lat="25.4438180" lon="-100.9031790">
        <ele>1578.2</ele>
        <time>2022-08-20T17:14:50Z</time>
      </trkpt>
      <trkpt lat="25.4438060" lon="-100.9032640">
        <ele>1578.2</ele>
        <time>2022-08-20T17:14:51Z</time>
      </trkpt>
      <trkpt lat="25.4437950" lon="-100.9033460">
        <ele>1578.1</ele>
        <time>2022-08-20T17:14:52Z</time>
      </trkpt>
      <trkpt lat="25.4437850" lon="-100.9034270">
        <ele>1578.1</ele>
        <time>2022-08-20T17:14:53Z</time>
      </trkpt>
      <trkpt lat="25.4437740" lon="-100.9035080">
        <ele>1578.0</ele>
        <time>2022-08-20T17:14:54Z</time>
      </trkpt>
      <trkpt lat="25.4437630" lon="-100.9035880">
        <ele>1578.0</ele>
        <time>2022-08-20T17:14:55Z</time>
      </trkpt>
      <trkpt lat="25.4437510" lon="-100.9036690">
        <ele>1577.9</ele>
        <time>2022-08-20T17:14:56Z</time>
      </trkpt>
      <trkpt lat="25.4437390" lon="-100.9037490">
        <ele>1577.8</ele>
        <time>2022-08-20T17:14:57Z</time>
      </trkpt>
      <trkpt lat="25.4437270" lon="-100.9038280">
        <ele>1577.8</ele>
        <time>2022-08-20T17:14:58Z</time>
      </trkpt>
      <trkpt lat="25.4437150" lon="-100.9039080">
        <ele>1577.7</ele>
        <time>2022-08-20T17:14:59Z</time>
      </trkpt>
      <trkpt lat="25.4437020" lon="-100.9039900">
        <ele>1577.7</ele>
        <time>2022-08-20T17:15:00Z</time>
      </trkpt>
      <trkpt lat="25.4436880" lon="-100.9040700">
        <ele>1577.6</ele>
        <time>2022-08-20T17:15:01Z</time>
      </trkpt>
      <trkpt lat="25.4436760" lon="-100.9041520">
        <ele>1577.5</ele>
        <time>2022-08-20T17:15:02Z</time>
      </trkpt>
      <trkpt lat="25.4436640" lon="-100.9042340">
        <ele>1577.5</ele>
        <time>2022-08-20T17:15:03Z</time>
      </trkpt>
      <trkpt lat="25.4436540" lon="-100.9043170">
        <ele>1577.4</ele>
        <time>2022-08-20T17:15:04Z</time>
      </trkpt>
      <trkpt lat="25.4436460" lon="-100.9043980">
        <ele>1577.3</ele>
        <time>2022-08-20T17:15:05Z</time>
      </trkpt>
      <trkpt lat="25.4436370" lon="-100.9044800">
        <ele>1577.3</ele>
        <time>2022-08-20T17:15:06Z</time>
      </trkpt>
      <trkpt lat="25.4436260" lon="-100.9045610">
        <ele>1577.3</ele>
        <time>2022-08-20T17:15:07Z</time>
      </trkpt>
      <trkpt lat="25.4436140" lon="-100.9046390">
        <ele>1577.3</ele>
        <time>2022-08-20T17:15:08Z</time>
      </trkpt>
      <trkpt lat="25.4436040" lon="-100.9047170">
        <ele>1577.2</ele>
        <time>2022-08-20T17:15:09Z</time>
      </trkpt>
      <trkpt lat="25.4435940" lon="-100.9047940">
        <ele>1577.2</ele>
        <time>2022-08-20T17:15:10Z</time>
      </trkpt>
      <trkpt lat="25.4435830" lon="-100.9048710">
        <ele>1577.2</ele>
        <time>2022-08-20T17:15:11Z</time>
      </trkpt>
      <trkpt lat="25.4435720" lon="-100.9049470">
        <ele>1577.2</ele>
        <time>2022-08-20T17:15:12Z</time>
      </trkpt>
      <trkpt lat="25.4435620" lon="-100.9050210">
        <ele>1577.2</ele>
        <time>2022-08-20T17:15:13Z</time>
      </trkpt>
      <trkpt lat="25.4435510" lon="-100.9050970">
        <ele>1577.2</ele>
        <time>2022-08-20T17:15:14Z</time>
      </trkpt>
      <trkpt lat="25.4435420" lon="-100.9051740">
        <ele>1577.1</ele>
        <time>2022-08-20T17:15:15Z</time>
      </trkpt>
      <trkpt lat="25.4435320" lon="-100.9052520">
        <ele>1577.1</ele>
        <time>2022-08-20T17:15:16Z</time>
      </trkpt>
      <trkpt lat="25.4435210" lon="-100.9053300">
        <ele>1576.9</ele>
        <time>2022-08-20T17:15:17Z</time>
      </trkpt>
      <trkpt lat="25.4435080" lon="-100.9054070">
        <ele>1576.8</ele>
        <time>2022-08-20T17:15:18Z</time>
      </trkpt>
      <trkpt lat="25.4434950" lon="-100.9054880">
        <ele>1576.7</ele>
        <time>2022-08-20T17:15:19Z</time>
      </trkpt>
      <trkpt lat="25.4434840" lon="-100.9055680">
        <ele>1576.7</ele>
        <time>2022-08-20T17:15:20Z</time>
      </trkpt>
      <trkpt lat="25.4434750" lon="-100.9056460">
        <ele>1576.6</ele>
        <time>2022-08-20T17:15:21Z</time>
      </trkpt>
      <trkpt lat="25.4434650" lon="-100.9057290">
        <ele>1576.5</ele>
        <time>2022-08-20T17:15:22Z</time>
      </trkpt>
      <trkpt lat="25.4434540" lon="-100.9058100">
        <ele>1576.4</ele>
        <time>2022-08-20T17:15:23Z</time>
      </trkpt>
      <trkpt lat="25.4434420" lon="-100.9058910">
        <ele>1576.4</ele>
        <time>2022-08-20T17:15:24Z</time>
      </trkpt>
      <trkpt lat="25.4434300" lon="-100.9059720">
        <ele>1576.3</ele>
        <time>2022-08-20T17:15:25Z</time>
      </trkpt>
      <trkpt lat="25.4434200" lon="-100.9060510">
        <ele>1576.2</ele>
        <time>2022-08-20T17:15:26Z</time>
      </trkpt>
      <trkpt lat="25.4434110" lon="-100.9061300">
        <ele>1576.1</ele>
        <time>2022-08-20T17:15:27Z</time>
      </trkpt>
      <trkpt lat="25.4434010" lon="-100.9062070">
        <ele>1576.1</ele>
        <time>2022-08-20T17:15:28Z</time>
      </trkpt>
      <trkpt lat="25.4433910" lon="-100.9062860">
        <ele>1576.0</ele>
        <time>2022-08-20T17:15:29Z</time>
      </trkpt>
      <trkpt lat="25.4433790" lon="-100.9063640">
        <ele>1575.9</ele>
        <time>2022-08-20T17:15:30Z</time>
      </trkpt>
      <trkpt lat="25.4433680" lon="-100.9064430">
        <ele>1575.9</ele>
        <time>2022-08-20T17:15:31Z</time>
      </trkpt>
      <trkpt lat="25.4433570" lon="-100.9065240">
        <ele>1575.8</ele>
        <time>2022-08-20T17:15:32Z</time>
      </trkpt>
      <trkpt lat="25.4433450" lon="-100.9066050">
        <ele>1575.8</ele>
        <time>2022-08-20T17:15:33Z</time>
      </trkpt>
      <trkpt lat="25.4433330" lon="-100.9066850">
        <ele>1575.7</ele>
        <time>2022-08-20T17:15:34Z</time>
      </trkpt>
      <trkpt lat="25.4433210" lon="-100.9067650">
        <ele>1575.7</ele>
        <time>2022-08-20T17:15:35Z</time>
      </trkpt>
      <trkpt lat="25.4433060" lon="-100.9068460">
        <ele>1575.6</ele>
        <time>2022-08-20T17:15:36Z</time>
      </trkpt>
      <trkpt lat="25.4432930" lon="-100.9069240">
        <ele>1575.6</ele>
        <time>2022-08-20T17:15:37Z</time>
      </trkpt>
      <trkpt lat="25.4432810" lon="-100.9070030">
        <ele>1575.5</ele>
        <time>2022-08-20T17:15:38Z</time>
      </trkpt>
      <trkpt lat="25.4432680" lon="-100.9070820">
        <ele>1575.5</ele>
        <time>2022-08-20T17:15:39Z</time>
      </trkpt>
      <trkpt lat="25.4432580" lon="-100.9071600">
        <ele>1575.5</ele>
        <time>2022-08-20T17:15:40Z</time>
      </trkpt>
      <trkpt lat="25.4432480" lon="-100.9072410">
        <ele>1575.4</ele>
        <time>2022-08-20T17:15:41Z</time>
      </trkpt>
      <trkpt lat="25.4432360" lon="-100.9073210">
        <ele>1575.4</ele>
        <time>2022-08-20T17:15:42Z</time>
      </trkpt>
      <trkpt lat="25.4432230" lon="-100.9074020">
        <ele>1575.3</ele>
        <time>2022-08-20T17:15:43Z</time>
      </trkpt>
      <trkpt lat="25.4432110" lon="-100.9074830">
        <ele>1575.2</ele>
        <time>2022-08-20T17:15:44Z</time>
      </trkpt>
      <trkpt lat="25.4431990" lon="-100.9075640">
        <ele>1575.1</ele>
        <time>2022-08-20T17:15:45Z</time>
      </trkpt>
      <trkpt lat="25.4431880" lon="-100.9076430">
        <ele>1575.0</ele>
        <time>2022-08-20T17:15:46Z</time>
      </trkpt>
      <trkpt lat="25.4431790" lon="-100.9077240">
        <ele>1574.9</ele>
        <time>2022-08-20T17:15:47Z</time>
      </trkpt>
      <trkpt lat="25.4431680" lon="-100.9078050">
        <ele>1574.9</ele>
        <time>2022-08-20T17:15:48Z</time>
      </trkpt>
      <trkpt lat="25.4431550" lon="-100.9078860">
        <ele>1574.8</ele>
        <time>2022-08-20T17:15:49Z</time>
      </trkpt>
      <trkpt lat="25.4431420" lon="-100.9079690">
        <ele>1574.7</ele>
        <time>2022-08-20T17:15:50Z</time>
      </trkpt>
      <trkpt lat="25.4431290" lon="-100.9080520">
        <ele>1574.7</ele>
        <time>2022-08-20T17:15:51Z</time>
      </trkpt>
      <trkpt lat="25.4431170" lon="-100.9081340">
        <ele>1574.6</ele>
        <time>2022-08-20T17:15:52Z</time>
      </trkpt>
      <trkpt lat="25.4431070" lon="-100.9082150">
        <ele>1574.6</ele>
        <time>2022-08-20T17:15:53Z</time>
      </trkpt>
      <trkpt lat="25.4430990" lon="-100.9082940">
        <ele>1574.5</ele>
        <time>2022-08-20T17:15:54Z</time>
      </trkpt>
      <trkpt lat="25.4430880" lon="-100.9083730">
        <ele>1574.5</ele>
        <time>2022-08-20T17:15:55Z</time>
      </trkpt>
      <trkpt lat="25.4430760" lon="-100.9084530">
        <ele>1574.4</ele>
        <time>2022-08-20T17:15:56Z</time>
      </trkpt>
      <trkpt lat="25.4430650" lon="-100.9085330">
        <ele>1574.4</ele>
        <time>2022-08-20T17:15:57Z</time>
      </trkpt>
      <trkpt lat="25.4430530" lon="-100.9086150">
        <ele>1574.3</ele>
        <time>2022-08-20T17:15:58Z</time>
      </trkpt>
      <trkpt lat="25.4430390" lon="-100.9086970">
        <ele>1574.2</ele>
        <time>2022-08-20T17:15:59Z</time>
      </trkpt>
      <trkpt lat="25.4430250" lon="-100.9087790">
        <ele>1574.2</ele>
        <time>2022-08-20T17:16:00Z</time>
      </trkpt>
      <trkpt lat="25.4430110" lon="-100.9088630">
        <ele>1574.1</ele>
        <time>2022-08-20T17:16:01Z</time>
      </trkpt>
      <trkpt lat="25.4429960" lon="-100.9089480">
        <ele>1574.0</ele>
        <time>2022-08-20T17:16:02Z</time>
      </trkpt>
      <trkpt lat="25.4429810" lon="-100.9090320">
        <ele>1573.9</ele>
        <time>2022-08-20T17:16:03Z</time>
      </trkpt>
      <trkpt lat="25.4429680" lon="-100.9091160">
        <ele>1573.9</ele>
        <time>2022-08-20T17:16:04Z</time>
      </trkpt>
      <trkpt lat="25.4429560" lon="-100.9091990">
        <ele>1573.8</ele>
        <time>2022-08-20T17:16:05Z</time>
      </trkpt>
      <trkpt lat="25.4429440" lon="-100.9092830">
        <ele>1573.7</ele>
        <time>2022-08-20T17:16:06Z</time>
      </trkpt>
      <trkpt lat="25.4429320" lon="-100.9093620">
        <ele>1573.6</ele>
        <time>2022-08-20T17:16:07Z</time>
      </trkpt>
      <trkpt lat="25.4429200" lon="-100.9094420">
        <ele>1573.6</ele>
        <time>2022-08-20T17:16:08Z</time>
      </trkpt>
      <trkpt lat="25.4429080" lon="-100.9095220">
        <ele>1573.5</ele>
        <time>2022-08-20T17:16:09Z</time>
      </trkpt>
      <trkpt lat="25.4428970" lon="-100.9096040">
        <ele>1573.4</ele>
        <time>2022-08-20T17:16:10Z</time>
      </trkpt>
      <trkpt lat="25.4428870" lon="-100.9096860">
        <ele>1573.3</ele>
        <time>2022-08-20T17:16:11Z</time>
      </trkpt>
      <trkpt lat="25.4428770" lon="-100.9097670">
        <ele>1573.3</ele>
        <time>2022-08-20T17:16:12Z</time>
      </trkpt>
      <trkpt lat="25.4428650" lon="-100.9098480">
        <ele>1573.2</ele>
        <time>2022-08-20T17:16:13Z</time>
      </trkpt>
      <trkpt lat="25.4428540" lon="-100.9099300">
        <ele>1573.2</ele>
        <time>2022-08-20T17:16:14Z</time>
      </trkpt>
      <trkpt lat="25.4428430" lon="-100.9100130">
        <ele>1573.1</ele>
        <time>2022-08-20T17:16:15Z</time>
      </trkpt>
      <trkpt lat="25.4428310" lon="-100.9100950">
        <ele>1573.0</ele>
        <time>2022-08-20T17:16:16Z</time>
      </trkpt>
      <trkpt lat="25.4428180" lon="-100.9101780">
        <ele>1572.9</ele>
        <time>2022-08-20T17:16:17Z</time>
      </trkpt>
      <trkpt lat="25.4428050" lon="-100.9102590">
        <ele>1572.8</ele>
        <time>2022-08-20T17:16:18Z</time>
      </trkpt>
      <trkpt lat="25.4427930" lon="-100.9103410">
        <ele>1572.7</ele>
        <time>2022-08-20T17:16:19Z</time>
      </trkpt>
      <trkpt lat="25.4427810" lon="-100.9104240">
        <ele>1572.6</ele>
        <time>2022-08-20T17:16:20Z</time>
      </trkpt>
      <trkpt lat="25.4427710" lon="-100.9105050">
        <ele>1572.5</ele>
        <time>2022-08-20T17:16:21Z</time>
      </trkpt>
      <trkpt lat="25.4427610" lon="-100.9105870">
        <ele>1572.4</ele>
        <time>2022-08-20T17:16:22Z</time>
      </trkpt>
      <trkpt lat="25.4427490" lon="-100.9106690">
        <ele>1572.3</ele>
        <time>2022-08-20T17:16:23Z</time>
      </trkpt>
      <trkpt lat="25.4427350" lon="-100.9107520">
        <ele>1572.2</ele>
        <time>2022-08-20T17:16:24Z</time>
      </trkpt>
      <trkpt lat="25.4427220" lon="-100.9108350">
        <ele>1572.0</ele>
        <time>2022-08-20T17:16:25Z</time>
      </trkpt>
      <trkpt lat="25.4427100" lon="-100.9109170">
        <ele>1571.9</ele>
        <time>2022-08-20T17:16:26Z</time>
      </trkpt>
      <trkpt lat="25.4427000" lon="-100.9110000">
        <ele>1571.8</ele>
        <time>2022-08-20T17:16:27Z</time>
      </trkpt>
      <trkpt lat="25.4426890" lon="-100.9110830">
        <ele>1571.7</ele>
        <time>2022-08-20T17:16:28Z</time>
      </trkpt>
      <trkpt lat="25.4426780" lon="-100.9111650">
        <ele>1571.6</ele>
        <time>2022-08-20T17:16:29Z</time>
      </trkpt>
      <trkpt lat="25.4426640" lon="-100.9112470">
        <ele>1571.5</ele>
        <time>2022-08-20T17:16:30Z</time>
      </trkpt>
      <trkpt lat="25.4426490" lon="-100.9113300">
        <ele>1571.5</ele>
        <time>2022-08-20T17:16:31Z</time>
      </trkpt>
      <trkpt lat="25.4426360" lon="-100.9114160">
        <ele>1571.4</ele>
        <time>2022-08-20T17:16:32Z</time>
      </trkpt>
      <trkpt lat="25.4426230" lon="-100.9115020">
        <ele>1571.2</ele>
        <time>2022-08-20T17:16:33Z</time>
      </trkpt>
      <trkpt lat="25.4426090" lon="-100.9115880">
        <ele>1571.1</ele>
        <time>2022-08-20T17:16:34Z</time>
      </trkpt>
      <trkpt lat="25.4425940" lon="-100.9116730">
        <ele>1571.0</ele>
        <time>2022-08-20T17:16:35Z</time>
      </trkpt>
      <trkpt lat="25.4425810" lon="-100.9117590">
        <ele>1570.9</ele>
        <time>2022-08-20T17:16:36Z</time>
      </trkpt>
      <trkpt lat="25.4425690" lon="-100.9118440">
        <ele>1570.7</ele>
        <time>2022-08-20T17:16:37Z</time>
      </trkpt>
      <trkpt lat="25.4425590" lon="-100.9119280">
        <ele>1570.6</ele>
        <time>2022-08-20T17:16:38Z</time>
      </trkpt>
      <trkpt lat="25.4425470" lon="-100.9120110">
        <ele>1570.5</ele>
        <time>2022-08-20T17:16:39Z</time>
      </trkpt>
      <trkpt lat="25.4425360" lon="-100.9120940">
        <ele>1570.4</ele>
        <time>2022-08-20T17:16:40Z</time>
      </trkpt>
      <trkpt lat="25.4425260" lon="-100.9121770">
        <ele>1570.3</ele>
        <time>2022-08-20T17:16:41Z</time>
      </trkpt>
      <trkpt lat="25.4425160" lon="-100.9122600">
        <ele>1570.3</ele>
        <time>2022-08-20T17:16:42Z</time>
      </trkpt>
      <trkpt lat="25.4425050" lon="-100.9123430">
        <ele>1570.2</ele>
        <time>2022-08-20T17:16:43Z</time>
      </trkpt>
      <trkpt lat="25.4424940" lon="-100.9124250">
        <ele>1570.1</ele>
        <time>2022-08-20T17:16:44Z</time>
      </trkpt>
      <trkpt lat="25.4424820" lon="-100.9125070">
        <ele>1570.0</ele>
        <time>2022-08-20T17:16:45Z</time>
      </trkpt>
      <trkpt lat="25.4424700" lon="-100.9125890">
        <ele>1569.9</ele>
        <time>2022-08-20T17:16:46Z</time>
      </trkpt>
      <trkpt lat="25.4424580" lon="-100.9126720">
        <ele>1569.8</ele>
        <time>2022-08-20T17:16:47Z</time>
      </trkpt>
      <trkpt lat="25.4424460" lon="-100.9127540">
        <ele>1569.7</ele>
        <time>2022-08-20T17:16:48Z</time>
      </trkpt>
      <trkpt lat="25.4424350" lon="-100.9128340">
        <ele>1569.6</ele>
        <time>2022-08-20T17:16:49Z</time>
      </trkpt>
      <trkpt lat="25.4424230" lon="-100.9129140">
        <ele>1569.6</ele>
        <time>2022-08-20T17:16:50Z</time>
      </trkpt>
      <trkpt lat="25.4424100" lon="-100.9129930">
        <ele>1569.5</ele>
        <time>2022-08-20T17:16:51Z</time>
      </trkpt>
      <trkpt lat="25.4423990" lon="-100.9130680">
        <ele>1569.5</ele>
        <time>2022-08-20T17:16:52Z</time>
      </trkpt>
      <trkpt lat="25.4423930" lon="-100.9131430">
        <ele>1569.5</ele>
        <time>2022-08-20T17:16:53Z</time>
      </trkpt>
      <trkpt lat="25.4423860" lon="-100.9132170">
        <ele>1569.5</ele>
        <time>2022-08-20T17:16:54Z</time>
      </trkpt>
      <trkpt lat="25.4423770" lon="-100.9132890">
        <ele>1569.5</ele>
        <time>2022-08-20T17:16:55Z</time>
      </trkpt>
      <trkpt lat="25.4423670" lon="-100.9133600">
        <ele>1569.5</ele>
        <time>2022-08-20T17:16:56Z</time>
      </trkpt>
      <trkpt lat="25.4423570" lon="-100.9134290">
        <ele>1569.5</ele>
        <time>2022-08-20T17:16:57Z</time>
      </trkpt>
      <trkpt lat="25.4423470" lon="-100.9134960">
        <ele>1569.6</ele>
        <time>2022-08-20T17:16:58Z</time>
      </trkpt>
      <trkpt lat="25.4423380" lon="-100.9135600">
        <ele>1569.6</ele>
        <time>2022-08-20T17:16:59Z</time>
      </trkpt>
      <trkpt lat="25.4423270" lon="-100.9136230">
        <ele>1569.7</ele>
        <time>2022-08-20T17:17:00Z</time>
      </trkpt>
      <trkpt lat="25.4423160" lon="-100.9136850">
        <ele>1569.7</ele>
        <time>2022-08-20T17:17:01Z</time>
      </trkpt>
      <trkpt lat="25.4423070" lon="-100.9137440">
        <ele>1569.7</ele>
        <time>2022-08-20T17:17:02Z</time>
      </trkpt>
      <trkpt lat="25.4423000" lon="-100.9137970">
        <ele>1569.6</ele>
        <time>2022-08-20T17:17:03Z</time>
      </trkpt>
      <trkpt lat="25.4422950" lon="-100.9138320">
        <ele>1569.6</ele>
        <time>2022-08-20T17:17:04Z</time>
      </trkpt>
      <trkpt lat="25.4422900" lon="-100.9138710">
        <ele>1569.6</ele>
        <time>2022-08-20T17:17:05Z</time>
      </trkpt>
      <trkpt lat="25.4422840" lon="-100.9139060">
        <ele>1569.6</ele>
        <time>2022-08-20T17:17:06Z</time>
      </trkpt>
      <trkpt lat="25.4422810" lon="-100.9139210">
        <ele>1569.6</ele>
        <time>2022-08-20T17:17:07Z</time>
      </trkpt>
      <trkpt lat="25.4422820" lon="-100.9139480">
        <ele>1569.5</ele>
        <time>2022-08-20T17:17:08Z</time>
      </trkpt>
      <trkpt lat="25.4422830" lon="-100.9139630">
        <ele>1569.5</ele>
        <time>2022-08-20T17:17:09Z</time>
      </trkpt>
      <trkpt lat="25.4422830" lon="-100.9139780">
        <ele>1569.5</ele>
        <time>2022-08-20T17:17:10Z</time>
      </trkpt>
      <trkpt lat="25.4422920" lon="-100.9139820">
        <ele>1569.5</ele>
        <time>2022-08-20T17:17:11Z</time>
      </trkpt>
      <trkpt lat="25.4422980" lon="-100.9139920">
        <ele>1569.5</ele>
        <time>2022-08-20T17:17:12Z</time>
      </trkpt>
      <trkpt lat="25.4422900" lon="-100.9140000">
        <ele>1569.4</ele>
        <time>2022-08-20T17:17:13Z</time>
      </trkpt>
      <trkpt lat="25.4422790" lon="-100.9140090">
        <ele>1569.4</ele>
        <time>2022-08-20T17:17:14Z</time>
      </trkpt>
      <trkpt lat="25.4422750" lon="-100.9140200">
        <ele>1569.4</ele>
        <time>2022-08-20T17:17:15Z</time>
      </trkpt>
      <trkpt lat="25.4422720" lon="-100.9140360">
        <ele>1569.4</ele>
        <time>2022-08-20T17:17:16Z</time>
      </trkpt>
      <trkpt lat="25.4422670" lon="-100.9140590">
        <ele>1569.3</ele>
        <time>2022-08-20T17:17:18Z</time>
      </trkpt>
      <trkpt lat="25.4422630" lon="-100.9140770">
        <ele>1569.3</ele>
        <time>2022-08-20T17:17:19Z</time>
      </trkpt>
      <trkpt lat="25.4422620" lon="-100.9140800">
        <ele>1569.3</ele>
        <time>2022-08-20T17:17:20Z</time>
      </trkpt>
      <trkpt lat="25.4422610" lon="-100.9140830">
        <ele>1569.3</ele>
        <time>2022-08-20T17:17:21Z</time>
      </trkpt>
      <trkpt lat="25.4422600" lon="-100.9140870">
        <ele>1569.2</ele>
        <time>2022-08-20T17:17:22Z</time>
      </trkpt>
      <trkpt lat="25.4422590" lon="-100.9140900">
        <ele>1569.2</ele>
        <time>2022-08-20T17:17:23Z</time>
      </trkpt>
      <trkpt lat="25.4422580" lon="-100.9140930">
        <ele>1569.2</ele>
        <time>2022-08-20T17:17:24Z</time>
      </trkpt>
      <trkpt lat="25.4422570" lon="-100.9140970">
        <ele>1569.2</ele>
        <time>2022-08-20T17:17:25Z</time>
      </trkpt>
      <trkpt lat="25.4422560" lon="-100.9141000">
        <ele>1569.2</ele>
        <time>2022-08-20T17:17:26Z</time>
      </trkpt>
      <trkpt lat="25.4422560" lon="-100.9141030">
        <ele>1569.2</ele>
        <time>2022-08-20T17:17:27Z</time>
      </trkpt>
      <trkpt lat="25.4422550" lon="-100.9141060">
        <ele>1569.2</ele>
        <time>2022-08-20T17:17:28Z</time>
      </trkpt>
      <trkpt lat="25.4422500" lon="-100.9141480">
        <ele>1569.0</ele>
        <time>2022-08-20T17:17:29Z</time>
      </trkpt>
      <trkpt lat="25.4422430" lon="-100.9141930">
        <ele>1568.9</ele>
        <time>2022-08-20T17:17:30Z</time>
      </trkpt>
      <trkpt lat="25.4422360" lon="-100.9142510">
        <ele>1568.7</ele>
        <time>2022-08-20T17:17:31Z</time>
      </trkpt>
      <trkpt lat="25.4422270" lon="-100.9143650">
        <ele>1568.5</ele>
        <time>2022-08-20T17:17:33Z</time>
      </trkpt>
      <trkpt lat="25.4422180" lon="-100.9144310">
        <ele>1568.4</ele>
        <time>2022-08-20T17:17:34Z</time>
      </trkpt>
      <trkpt lat="25.4422090" lon="-100.9145000">
        <ele>1568.3</ele>
        <time>2022-08-20T17:17:35Z</time>
      </trkpt>
      <trkpt lat="25.4422010" lon="-100.9145680">
        <ele>1568.1</ele>
        <time>2022-08-20T17:17:36Z</time>
      </trkpt>
      <trkpt lat="25.4421930" lon="-100.9146360">
        <ele>1567.9</ele>
        <time>2022-08-20T17:17:37Z</time>
      </trkpt>
      <trkpt lat="25.4421850" lon="-100.9147060">
        <ele>1567.8</ele>
        <time>2022-08-20T17:17:38Z</time>
      </trkpt>
      <trkpt lat="25.4421750" lon="-100.9147750">
        <ele>1567.7</ele>
        <time>2022-08-20T17:17:39Z</time>
      </trkpt>
      <trkpt lat="25.4421650" lon="-100.9148440">
        <ele>1567.6</ele>
        <time>2022-08-20T17:17:40Z</time>
      </trkpt>
      <trkpt lat="25.4421550" lon="-100.9149140">
        <ele>1567.5</ele>
        <time>2022-08-20T17:17:41Z</time>
      </trkpt>
      <trkpt lat="25.4421450" lon="-100.9149850">
        <ele>1567.4</ele>
        <time>2022-08-20T17:17:42Z</time>
      </trkpt>
      <trkpt lat="25.4421340" lon="-100.9150590">
        <ele>1567.3</ele>
        <time>2022-08-20T17:17:43Z</time>
      </trkpt>
      <trkpt lat="25.4421240" lon="-100.9151340">
        <ele>1567.2</ele>
        <time>2022-08-20T17:17:44Z</time>
      </trkpt>
      <trkpt lat="25.4421110" lon="-100.9152090">
        <ele>1567.1</ele>
        <time>2022-08-20T17:17:45Z</time>
      </trkpt>
      <trkpt lat="25.4420980" lon="-100.9152840">
        <ele>1566.9</ele>
        <time>2022-08-20T17:17:46Z</time>
      </trkpt>
      <trkpt lat="25.4420860" lon="-100.9153550">
        <ele>1566.8</ele>
        <time>2022-08-20T17:17:47Z</time>
      </trkpt>
      <trkpt lat="25.4420770" lon="-100.9154240">
        <ele>1566.7</ele>
        <time>2022-08-20T17:17:48Z</time>
      </trkpt>
      <trkpt lat="25.4420700" lon="-100.9155010">
        <ele>1566.5</ele>
        <time>2022-08-20T17:17:49Z</time>
      </trkpt>
      <trkpt lat="25.4420660" lon="-100.9155810">
        <ele>1566.4</ele>
        <time>2022-08-20T17:17:50Z</time>
      </trkpt>
      <trkpt lat="25.4420600" lon="-100.9156630">
        <ele>1566.3</ele>
        <time>2022-08-20T17:17:51Z</time>
      </trkpt>
      <trkpt lat="25.4420500" lon="-100.9157450">
        <ele>1566.2</ele>
        <time>2022-08-20T17:17:52Z</time>
      </trkpt>
      <trkpt lat="25.4420380" lon="-100.9158270">
        <ele>1566.1</ele>
        <time>2022-08-20T17:17:53Z</time>
      </trkpt>
      <trkpt lat="25.4420260" lon="-100.9159090">
        <ele>1566.0</ele>
        <time>2022-08-20T17:17:54Z</time>
      </trkpt>
      <trkpt lat="25.4420130" lon="-100.9159910">
        <ele>1565.9</ele>
        <time>2022-08-20T17:17:55Z</time>
      </trkpt>
      <trkpt lat="25.4419990" lon="-100.9160730">
        <ele>1565.8</ele>
        <time>2022-08-20T17:17:56Z</time>
      </trkpt>
      <trkpt lat="25.4419850" lon="-100.9161570">
        <ele>1565.7</ele>
        <time>2022-08-20T17:17:57Z</time>
      </trkpt>
      <trkpt lat="25.4419710" lon="-100.9162400">
        <ele>1565.7</ele>
        <time>2022-08-20T17:17:58Z</time>
      </trkpt>
      <trkpt lat="25.4419560" lon="-100.9163230">
        <ele>1565.6</ele>
        <time>2022-08-20T17:17:59Z</time>
      </trkpt>
      <trkpt lat="25.4419410" lon="-100.9164010">
        <ele>1565.6</ele>
        <time>2022-08-20T17:18:00Z</time>
      </trkpt>
      <trkpt lat="25.4419260" lon="-100.9164810">
        <ele>1565.6</ele>
        <time>2022-08-20T17:18:01Z</time>
      </trkpt>
      <trkpt lat="25.4419140" lon="-100.9165640">
        <ele>1565.5</ele>
        <time>2022-08-20T17:18:02Z</time>
      </trkpt>
      <trkpt lat="25.4419050" lon="-100.9166450">
        <ele>1565.5</ele>
        <time>2022-08-20T17:18:03Z</time>
      </trkpt>
      <trkpt lat="25.4418950" lon="-100.9167270">
        <ele>1565.4</ele>
        <time>2022-08-20T17:18:04Z</time>
      </trkpt>
      <trkpt lat="25.4418790" lon="-100.9168090">
        <ele>1565.4</ele>
        <time>2022-08-20T17:18:05Z</time>
      </trkpt>
      <trkpt lat="25.4418630" lon="-100.9168910">
        <ele>1565.4</ele>
        <time>2022-08-20T17:18:06Z</time>
      </trkpt>
      <trkpt lat="25.4418480" lon="-100.9169740">
        <ele>1565.4</ele>
        <time>2022-08-20T17:18:07Z</time>
      </trkpt>
      <trkpt lat="25.4418340" lon="-100.9170570">
        <ele>1565.4</ele>
        <time>2022-08-20T17:18:08Z</time>
      </trkpt>
      <trkpt lat="25.4418220" lon="-100.9171390">
        <ele>1565.4</ele>
        <time>2022-08-20T17:18:09Z</time>
      </trkpt>
      <trkpt lat="25.4418110" lon="-100.9172210">
        <ele>1565.4</ele>
        <time>2022-08-20T17:18:10Z</time>
      </trkpt>
      <trkpt lat="25.4417990" lon="-100.9173010">
        <ele>1565.4</ele>
        <time>2022-08-20T17:18:11Z</time>
      </trkpt>
      <trkpt lat="25.4417880" lon="-100.9173840">
        <ele>1565.4</ele>
        <time>2022-08-20T17:18:12Z</time>
      </trkpt>
      <trkpt lat="25.4417760" lon="-100.9174660">
        <ele>1565.4</ele>
        <time>2022-08-20T17:18:13Z</time>
      </trkpt>
      <trkpt lat="25.4417640" lon="-100.9175480">
        <ele>1565.4</ele>
        <time>2022-08-20T17:18:14Z</time>
      </trkpt>
      <trkpt lat="25.4417520" lon="-100.9176260">
        <ele>1565.4</ele>
        <time>2022-08-20T17:18:15Z</time>
      </trkpt>
      <trkpt lat="25.4417420" lon="-100.9176990">
        <ele>1565.4</ele>
        <time>2022-08-20T17:18:16Z</time>
      </trkpt>
      <trkpt lat="25.4417330" lon="-100.9177640">
        <ele>1565.3</ele>
        <time>2022-08-20T17:18:17Z</time>
      </trkpt>
      <trkpt lat="25.4417230" lon="-100.9178270">
        <ele>1565.3</ele>
        <time>2022-08-20T17:18:18Z</time>
      </trkpt>
      <trkpt lat="25.4417130" lon="-100.9178930">
        <ele>1565.3</ele>
        <time>2022-08-20T17:18:19Z</time>
      </trkpt>
      <trkpt lat="25.4417040" lon="-100.9179630">
        <ele>1565.3</ele>
        <time>2022-08-20T17:18:20Z</time>
      </trkpt>
      <trkpt lat="25.4416940" lon="-100.9180340">
        <ele>1565.2</ele>
        <time>2022-08-20T17:18:21Z</time>
      </trkpt>
      <trkpt lat="25.4416840" lon="-100.9181080">
        <ele>1565.2</ele>
        <time>2022-08-20T17:18:22Z</time>
      </trkpt>
      <trkpt lat="25.4416720" lon="-100.9181840">
        <ele>1565.2</ele>
        <time>2022-08-20T17:18:23Z</time>
      </trkpt>
      <trkpt lat="25.4416600" lon="-100.9182620">
        <ele>1565.1</ele>
        <time>2022-08-20T17:18:24Z</time>
      </trkpt>
      <trkpt lat="25.4416480" lon="-100.9183420">
        <ele>1565.1</ele>
        <time>2022-08-20T17:18:25Z</time>
      </trkpt>
      <trkpt lat="25.4416350" lon="-100.9184220">
        <ele>1565.1</ele>
        <time>2022-08-20T17:18:26Z</time>
      </trkpt>
      <trkpt lat="25.4416210" lon="-100.9185020">
        <ele>1565.0</ele>
        <time>2022-08-20T17:18:27Z</time>
      </trkpt>
      <trkpt lat="25.4416090" lon="-100.9185830">
        <ele>1564.9</ele>
        <time>2022-08-20T17:18:28Z</time>
      </trkpt>
      <trkpt lat="25.4415970" lon="-100.9186640">
        <ele>1564.9</ele>
        <time>2022-08-20T17:18:29Z</time>
      </trkpt>
      <trkpt lat="25.4415850" lon="-100.9187460">
        <ele>1564.8</ele>
        <time>2022-08-20T17:18:30Z</time>
      </trkpt>
      <trkpt lat="25.4415740" lon="-100.9188270">
        <ele>1564.7</ele>
        <time>2022-08-20T17:18:31Z</time>
      </trkpt>
      <trkpt lat="25.4415620" lon="-100.9189100">
        <ele>1564.6</ele>
        <time>2022-08-20T17:18:32Z</time>
      </trkpt>
      <trkpt lat="25.4415480" lon="-100.9189940">
        <ele>1564.6</ele>
        <time>2022-08-20T17:18:33Z</time>
      </trkpt>
      <trkpt lat="25.4415350" lon="-100.9190770">
        <ele>1564.5</ele>
        <time>2022-08-20T17:18:34Z</time>
      </trkpt>
      <trkpt lat="25.4415240" lon="-100.9191600">
        <ele>1564.5</ele>
        <time>2022-08-20T17:18:35Z</time>
      </trkpt>
      <trkpt lat="25.4415130" lon="-100.9192420">
        <ele>1564.5</ele>
        <time>2022-08-20T17:18:36Z</time>
      </trkpt>
      <trkpt lat="25.4415040" lon="-100.9193230">
        <ele>1564.4</ele>
        <time>2022-08-20T17:18:37Z</time>
      </trkpt>
      <trkpt lat="25.4414940" lon="-100.9194030">
        <ele>1564.4</ele>
        <time>2022-08-20T17:18:38Z</time>
      </trkpt>
      <trkpt lat="25.4414830" lon="-100.9194860">
        <ele>1564.4</ele>
        <time>2022-08-20T17:18:39Z</time>
      </trkpt>
      <trkpt lat="25.4414720" lon="-100.9195690">
        <ele>1564.4</ele>
        <time>2022-08-20T17:18:40Z</time>
      </trkpt>
      <trkpt lat="25.4414610" lon="-100.9196520">
        <ele>1564.4</ele>
        <time>2022-08-20T17:18:41Z</time>
      </trkpt>
      <trkpt lat="25.4414530" lon="-100.9197340">
        <ele>1564.4</ele>
        <time>2022-08-20T17:18:42Z</time>
      </trkpt>
      <trkpt lat="25.4414430" lon="-100.9198160">
        <ele>1564.4</ele>
        <time>2022-08-20T17:18:43Z</time>
      </trkpt>
      <trkpt lat="25.4414320" lon="-100.9198990">
        <ele>1564.4</ele>
        <time>2022-08-20T17:18:44Z</time>
      </trkpt>
      <trkpt lat="25.4414200" lon="-100.9199810">
        <ele>1564.3</ele>
        <time>2022-08-20T17:18:45Z</time>
      </trkpt>
      <trkpt lat="25.4414080" lon="-100.9200630">
        <ele>1564.3</ele>
        <time>2022-08-20T17:18:46Z</time>
      </trkpt>
      <trkpt lat="25.4413960" lon="-100.9201450">
        <ele>1564.3</ele>
        <time>2022-08-20T17:18:47Z</time>
      </trkpt>
      <trkpt lat="25.4413830" lon="-100.9202270">
        <ele>1564.2</ele>
        <time>2022-08-20T17:18:48Z</time>
      </trkpt>
      <trkpt lat="25.4413690" lon="-100.9203080">
        <ele>1564.2</ele>
        <time>2022-08-20T17:18:49Z</time>
      </trkpt>
      <trkpt lat="25.4413570" lon="-100.9203870">
        <ele>1564.2</ele>
        <time>2022-08-20T17:18:50Z</time>
      </trkpt>
      <trkpt lat="25.4413470" lon="-100.9204670">
        <ele>1564.1</ele>
        <time>2022-08-20T17:18:51Z</time>
      </trkpt>
      <trkpt lat="25.4413350" lon="-100.9205460">
        <ele>1564.0</ele>
        <time>2022-08-20T17:18:52Z</time>
      </trkpt>
      <trkpt lat="25.4413210" lon="-100.9206250">
        <ele>1564.0</ele>
        <time>2022-08-20T17:18:53Z</time>
      </trkpt>
      <trkpt lat="25.4413060" lon="-100.9207030">
        <ele>1563.9</ele>
        <time>2022-08-20T17:18:54Z</time>
      </trkpt>
      <trkpt lat="25.4412910" lon="-100.9207810">
        <ele>1563.9</ele>
        <time>2022-08-20T17:18:55Z</time>
      </trkpt>
      <trkpt lat="25.4412770" lon="-100.9208590">
        <ele>1563.8</ele>
        <time>2022-08-20T17:18:56Z</time>
      </trkpt>
      <trkpt lat="25.4412640" lon="-100.9209360">
        <ele>1563.7</ele>
        <time>2022-08-20T17:18:57Z</time>
      </trkpt>
      <trkpt lat="25.4412510" lon="-100.9210150">
        <ele>1563.6</ele>
        <time>2022-08-20T17:18:58Z</time>
      </trkpt>
      <trkpt lat="25.4412380" lon="-100.9210930">
        <ele>1563.5</ele>
        <time>2022-08-20T17:18:59Z</time>
      </trkpt>
      <trkpt lat="25.4412270" lon="-100.9211720">
        <ele>1563.4</ele>
        <time>2022-08-20T17:19:00Z</time>
      </trkpt>
      <trkpt lat="25.4412150" lon="-100.9212500">
        <ele>1563.4</ele>
        <time>2022-08-20T17:19:01Z</time>
      </trkpt>
      <trkpt lat="25.4412040" lon="-100.9213290">
        <ele>1563.4</ele>
        <time>2022-08-20T17:19:02Z</time>
      </trkpt>
      <trkpt lat="25.4411920" lon="-100.9214070">
        <ele>1563.4</ele>
        <time>2022-08-20T17:19:03Z</time>
      </trkpt>
      <trkpt lat="25.4411790" lon="-100.9214830">
        <ele>1563.5</ele>
        <time>2022-08-20T17:19:04Z</time>
      </trkpt>
      <trkpt lat="25.4411660" lon="-100.9215600">
        <ele>1563.5</ele>
        <time>2022-08-20T17:19:05Z</time>
      </trkpt>
      <trkpt lat="25.4411540" lon="-100.9216370">
        <ele>1563.6</ele>
        <time>2022-08-20T17:19:06Z</time>
      </trkpt>
      <trkpt lat="25.4411420" lon="-100.9217120">
        <ele>1563.7</ele>
        <time>2022-08-20T17:19:07Z</time>
      </trkpt>
      <trkpt lat="25.4411290" lon="-100.9217880">
        <ele>1563.7</ele>
        <time>2022-08-20T17:19:08Z</time>
      </trkpt>
      <trkpt lat="25.4411170" lon="-100.9218650">
        <ele>1563.6</ele>
        <time>2022-08-20T17:19:09Z</time>
      </trkpt>
      <trkpt lat="25.4411030" lon="-100.9219420">
        <ele>1563.6</ele>
        <time>2022-08-20T17:19:10Z</time>
      </trkpt>
      <trkpt lat="25.4410910" lon="-100.9220180">
        <ele>1563.5</ele>
        <time>2022-08-20T17:19:11Z</time>
      </trkpt>
      <trkpt lat="25.4410800" lon="-100.9220930">
        <ele>1563.5</ele>
        <time>2022-08-20T17:19:12Z</time>
      </trkpt>
      <trkpt lat="25.4410680" lon="-100.9221680">
        <ele>1563.4</ele>
        <time>2022-08-20T17:19:13Z</time>
      </trkpt>
      <trkpt lat="25.4410560" lon="-100.9222440">
        <ele>1563.3</ele>
        <time>2022-08-20T17:19:14Z</time>
      </trkpt>
      <trkpt lat="25.4410430" lon="-100.9223190">
        <ele>1563.3</ele>
        <time>2022-08-20T17:19:15Z</time>
      </trkpt>
      <trkpt lat="25.4410310" lon="-100.9223940">
        <ele>1563.3</ele>
        <time>2022-08-20T17:19:16Z</time>
      </trkpt>
      <trkpt lat="25.4410200" lon="-100.9224690">
        <ele>1563.3</ele>
        <time>2022-08-20T17:19:17Z</time>
      </trkpt>
      <trkpt lat="25.4410090" lon="-100.9225440">
        <ele>1563.3</ele>
        <time>2022-08-20T17:19:18Z</time>
      </trkpt>
      <trkpt lat="25.4409990" lon="-100.9226200">
        <ele>1563.3</ele>
        <time>2022-08-20T17:19:19Z</time>
      </trkpt>
      <trkpt lat="25.4409880" lon="-100.9226960">
        <ele>1563.2</ele>
        <time>2022-08-20T17:19:20Z</time>
      </trkpt>
      <trkpt lat="25.4409770" lon="-100.9227720">
        <ele>1563.2</ele>
        <time>2022-08-20T17:19:21Z</time>
      </trkpt>
      <trkpt lat="25.4409640" lon="-100.9228500">
        <ele>1563.1</ele>
        <time>2022-08-20T17:19:22Z</time>
      </trkpt>
      <trkpt lat="25.4409540" lon="-100.9229280">
        <ele>1563.1</ele>
        <time>2022-08-20T17:19:23Z</time>
      </trkpt>
      <trkpt lat="25.4409440" lon="-100.9230060">
        <ele>1563.1</ele>
        <time>2022-08-20T17:19:24Z</time>
      </trkpt>
      <trkpt lat="25.4409340" lon="-100.9230840">
        <ele>1563.1</ele>
        <time>2022-08-20T17:19:25Z</time>
      </trkpt>
      <trkpt lat="25.4409250" lon="-100.9231620">
        <ele>1563.1</ele>
        <time>2022-08-20T17:19:26Z</time>
      </trkpt>
      <trkpt lat="25.4409150" lon="-100.9232410">
        <ele>1563.1</ele>
        <time>2022-08-20T17:19:27Z</time>
      </trkpt>
      <trkpt lat="25.4409050" lon="-100.9233200">
        <ele>1563.2</ele>
        <time>2022-08-20T17:19:28Z</time>
      </trkpt>
      <trkpt lat="25.4408960" lon="-100.9233970">
        <ele>1563.2</ele>
        <time>2022-08-20T17:19:29Z</time>
      </trkpt>
      <trkpt lat="25.4408850" lon="-100.9234730">
        <ele>1563.3</ele>
        <time>2022-08-20T17:19:30Z</time>
      </trkpt>
      <trkpt lat="25.4408720" lon="-100.9235500">
        <ele>1563.3</ele>
        <time>2022-08-20T17:19:31Z</time>
      </trkpt>
      <trkpt lat="25.4408600" lon="-100.9236260">
        <ele>1563.3</ele>
        <time>2022-08-20T17:19:32Z</time>
      </trkpt>
      <trkpt lat="25.4408480" lon="-100.9237030">
        <ele>1563.3</ele>
        <time>2022-08-20T17:19:33Z</time>
      </trkpt>
      <trkpt lat="25.4408360" lon="-100.9237810">
        <ele>1563.3</ele>
        <time>2022-08-20T17:19:34Z</time>
      </trkpt>
      <trkpt lat="25.4408240" lon="-100.9238590">
        <ele>1563.3</ele>
        <time>2022-08-20T17:19:35Z</time>
      </trkpt>
      <trkpt lat="25.4408130" lon="-100.9239390">
        <ele>1563.3</ele>
        <time>2022-08-20T17:19:36Z</time>
      </trkpt>
      <trkpt lat="25.4408030" lon="-100.9240200">
        <ele>1563.4</ele>
        <time>2022-08-20T17:19:37Z</time>
      </trkpt>
      <trkpt lat="25.4407920" lon="-100.9241010">
        <ele>1563.3</ele>
        <time>2022-08-20T17:19:38Z</time>
      </trkpt>
      <trkpt lat="25.4407780" lon="-100.9241820">
        <ele>1563.2</ele>
        <time>2022-08-20T17:19:39Z</time>
      </trkpt>
      <trkpt lat="25.4407650" lon="-100.9242620">
        <ele>1563.2</ele>
        <time>2022-08-20T17:19:40Z</time>
      </trkpt>
      <trkpt lat="25.4407520" lon="-100.9243420">
        <ele>1563.1</ele>
        <time>2022-08-20T17:19:41Z</time>
      </trkpt>
      <trkpt lat="25.4407400" lon="-100.9244220">
        <ele>1563.1</ele>
        <time>2022-08-20T17:19:42Z</time>
      </trkpt>
      <trkpt lat="25.4407270" lon="-100.9245030">
        <ele>1563.0</ele>
        <time>2022-08-20T17:19:43Z</time>
      </trkpt>
      <trkpt lat="25.4407160" lon="-100.9245840">
        <ele>1563.0</ele>
        <time>2022-08-20T17:19:44Z</time>
      </trkpt>
      <trkpt lat="25.4407060" lon="-100.9246670">
        <ele>1563.0</ele>
        <time>2022-08-20T17:19:45Z</time>
      </trkpt>
      <trkpt lat="25.4406960" lon="-100.9247500">
        <ele>1563.0</ele>
        <time>2022-08-20T17:19:46Z</time>
      </trkpt>
      <trkpt lat="25.4406860" lon="-100.9248310">
        <ele>1563.0</ele>
        <time>2022-08-20T17:19:47Z</time>
      </trkpt>
      <trkpt lat="25.4406760" lon="-100.9249130">
        <ele>1562.9</ele>
        <time>2022-08-20T17:19:48Z</time>
      </trkpt>
      <trkpt lat="25.4406680" lon="-100.9249940">
        <ele>1562.9</ele>
        <time>2022-08-20T17:19:49Z</time>
      </trkpt>
      <trkpt lat="25.4406590" lon="-100.9250760">
        <ele>1563.0</ele>
        <time>2022-08-20T17:19:50Z</time>
      </trkpt>
      <trkpt lat="25.4406510" lon="-100.9251580">
        <ele>1563.0</ele>
        <time>2022-08-20T17:19:51Z</time>
      </trkpt>
      <trkpt lat="25.4406460" lon="-100.9252380">
        <ele>1563.0</ele>
        <time>2022-08-20T17:19:52Z</time>
      </trkpt>
      <trkpt lat="25.4406430" lon="-100.9253160">
        <ele>1563.1</ele>
        <time>2022-08-20T17:19:53Z</time>
      </trkpt>
      <trkpt lat="25.4406440" lon="-100.9253920">
        <ele>1563.1</ele>
        <time>2022-08-20T17:19:54Z</time>
      </trkpt>
      <trkpt lat="25.4406460" lon="-100.9254680">
        <ele>1563.1</ele>
        <time>2022-08-20T17:19:55Z</time>
      </trkpt>
      <trkpt lat="25.4406480" lon="-100.9255460">
        <ele>1563.1</ele>
        <time>2022-08-20T17:19:56Z</time>
      </trkpt>
      <trkpt lat="25.4406500" lon="-100.9256240">
        <ele>1563.0</ele>
        <time>2022-08-20T17:19:57Z</time>
      </trkpt>
      <trkpt lat="25.4406550" lon="-100.9257010">
        <ele>1563.0</ele>
        <time>2022-08-20T17:19:58Z</time>
      </trkpt>
      <trkpt lat="25.4406660" lon="-100.9257790">
        <ele>1562.9</ele>
        <time>2022-08-20T17:19:59Z</time>
      </trkpt>
      <trkpt lat="25.4406810" lon="-100.9258570">
        <ele>1562.9</ele>
        <time>2022-08-20T17:20:00Z</time>
      </trkpt>
      <trkpt lat="25.4406950" lon="-100.9259330">
        <ele>1562.8</ele>
        <time>2022-08-20T17:20:01Z</time>
      </trkpt>
      <trkpt lat="25.4407120" lon="-100.9260090">
        <ele>1562.8</ele>
        <time>2022-08-20T17:20:02Z</time>
      </trkpt>
      <trkpt lat="25.4407310" lon="-100.9260840">
        <ele>1562.7</ele>
        <time>2022-08-20T17:20:03Z</time>
      </trkpt>
      <trkpt lat="25.4407530" lon="-100.9261590">
        <ele>1562.6</ele>
        <time>2022-08-20T17:20:04Z</time>
      </trkpt>
      <trkpt lat="25.4407780" lon="-100.9262330">
        <ele>1562.6</ele>
        <time>2022-08-20T17:20:05Z</time>
      </trkpt>
      <trkpt lat="25.4408060" lon="-100.9263060">
        <ele>1562.5</ele>
        <time>2022-08-20T17:20:06Z</time>
      </trkpt>
      <trkpt lat="25.4408370" lon="-100.9263760">
        <ele>1562.4</ele>
        <time>2022-08-20T17:20:07Z</time>
      </trkpt>
      <trkpt lat="25.4408700" lon="-100.9264450">
        <ele>1562.3</ele>
        <time>2022-08-20T17:20:08Z</time>
      </trkpt>
      <trkpt lat="25.4409060" lon="-100.9265140">
        <ele>1562.2</ele>
        <time>2022-08-20T17:20:09Z</time>
      </trkpt>
      <trkpt lat="25.4409430" lon="-100.9265840">
        <ele>1562.0</ele>
        <time>2022-08-20T17:20:10Z</time>
      </trkpt>
      <trkpt lat="25.4409800" lon="-100.9266560">
        <ele>1561.9</ele>
        <time>2022-08-20T17:20:11Z</time>
      </trkpt>
      <trkpt lat="25.4410190" lon="-100.9267290">
        <ele>1561.8</ele>
        <time>2022-08-20T17:20:12Z</time>
      </trkpt>
      <trkpt lat="25.4410590" lon="-100.9268010">
        <ele>1561.7</ele>
        <time>2022-08-20T17:20:13Z</time>
      </trkpt>
      <trkpt lat="25.4411020" lon="-100.9268710">
        <ele>1561.6</ele>
        <time>2022-08-20T17:20:14Z</time>
      </trkpt>
      <trkpt lat="25.4411550" lon="-100.9269320">
        <ele>1561.4</ele>
        <time>2022-08-20T17:20:15Z</time>
      </trkpt>
      <trkpt lat="25.4412210" lon="-100.9269720">
        <ele>1560.8</ele>
        <time>2022-08-20T17:20:16Z</time>
      </trkpt>
      <trkpt lat="25.4412960" lon="-100.9269890">
        <ele>1560.4</ele>
        <time>2022-08-20T17:20:17Z</time>
      </trkpt>
      <trkpt lat="25.4413790" lon="-100.9269960">
        <ele>1560.0</ele>
        <time>2022-08-20T17:20:18Z</time>
      </trkpt>
      <trkpt lat="25.4414650" lon="-100.9270020">
        <ele>1559.5</ele>
        <time>2022-08-20T17:20:19Z</time>
      </trkpt>
      <trkpt lat="25.4415510" lon="-100.9270110">
        <ele>1559.1</ele>
        <time>2022-08-20T17:20:20Z</time>
      </trkpt>
      <trkpt lat="25.4416370" lon="-100.9270230">
        <ele>1558.7</ele>
        <time>2022-08-20T17:20:21Z</time>
      </trkpt>
      <trkpt lat="25.4417220" lon="-100.9270400">
        <ele>1558.3</ele>
        <time>2022-08-20T17:20:22Z</time>
      </trkpt>
      <trkpt lat="25.4418070" lon="-100.9270590">
        <ele>1557.9</ele>
        <time>2022-08-20T17:20:23Z</time>
      </trkpt>
      <trkpt lat="25.4418930" lon="-100.9270830">
        <ele>1557.5</ele>
        <time>2022-08-20T17:20:24Z</time>
      </trkpt>
      <trkpt lat="25.4419780" lon="-100.9271110">
        <ele>1557.2</ele>
        <time>2022-08-20T17:20:25Z</time>
      </trkpt>
      <trkpt lat="25.4420630" lon="-100.9271440">
        <ele>1556.8</ele>
        <time>2022-08-20T17:20:26Z</time>
      </trkpt>
      <trkpt lat="25.4421490" lon="-100.9271760">
        <ele>1556.5</ele>
        <time>2022-08-20T17:20:27Z</time>
      </trkpt>
      <trkpt lat="25.4422360" lon="-100.9272070">
        <ele>1556.2</ele>
        <time>2022-08-20T17:20:28Z</time>
      </trkpt>
      <trkpt lat="25.4423220" lon="-100.9272430">
        <ele>1555.9</ele>
        <time>2022-08-20T17:20:29Z</time>
      </trkpt>
      <trkpt lat="25.4424070" lon="-100.9272820">
        <ele>1555.7</ele>
        <time>2022-08-20T17:20:30Z</time>
      </trkpt>
      <trkpt lat="25.4424900" lon="-100.9273230">
        <ele>1555.5</ele>
        <time>2022-08-20T17:20:31Z</time>
      </trkpt>
      <trkpt lat="25.4425720" lon="-100.9273660">
        <ele>1555.3</ele>
        <time>2022-08-20T17:20:32Z</time>
      </trkpt>
      <trkpt lat="25.4426560" lon="-100.9274080">
        <ele>1555.1</ele>
        <time>2022-08-20T17:20:33Z</time>
      </trkpt>
      <trkpt lat="25.4427370" lon="-100.9274500">
        <ele>1555.0</ele>
        <time>2022-08-20T17:20:34Z</time>
      </trkpt>
      <trkpt lat="25.4428170" lon="-100.9274910">
        <ele>1554.8</ele>
        <time>2022-08-20T17:20:35Z</time>
      </trkpt>
      <trkpt lat="25.4428930" lon="-100.9275320">
        <ele>1554.7</ele>
        <time>2022-08-20T17:20:36Z</time>
      </trkpt>
      <trkpt lat="25.4429650" lon="-100.9275690">
        <ele>1554.5</ele>
        <time>2022-08-20T17:20:37Z</time>
      </trkpt>
      <trkpt lat="25.4430380" lon="-100.9276020">
        <ele>1554.3</ele>
        <time>2022-08-20T17:20:38Z</time>
      </trkpt>
      <trkpt lat="25.4431090" lon="-100.9276320">
        <ele>1554.2</ele>
        <time>2022-08-20T17:20:39Z</time>
      </trkpt>
      <trkpt lat="25.4431790" lon="-100.9276640">
        <ele>1554.1</ele>
        <time>2022-08-20T17:20:40Z</time>
      </trkpt>
      <trkpt lat="25.4432490" lon="-100.9276960">
        <ele>1553.9</ele>
        <time>2022-08-20T17:20:41Z</time>
      </trkpt>
      <trkpt lat="25.4433200" lon="-100.9277280">
        <ele>1553.8</ele>
        <time>2022-08-20T17:20:42Z</time>
      </trkpt>
      <trkpt lat="25.4433910" lon="-100.9277600">
        <ele>1553.7</ele>
        <time>2022-08-20T17:20:43Z</time>
      </trkpt>
      <trkpt lat="25.4434610" lon="-100.9277950">
        <ele>1553.5</ele>
        <time>2022-08-20T17:20:44Z</time>
      </trkpt>
      <trkpt lat="25.4435320" lon="-100.9278320">
        <ele>1553.4</ele>
        <time>2022-08-20T17:20:45Z</time>
      </trkpt>
      <trkpt lat="25.4436010" lon="-100.9278690">
        <ele>1553.2</ele>
        <time>2022-08-20T17:20:46Z</time>
      </trkpt>
      <trkpt lat="25.4436700" lon="-100.9279080">
        <ele>1553.0</ele>
        <time>2022-08-20T17:20:47Z</time>
      </trkpt>
      <trkpt lat="25.4437400" lon="-100.9279460">
        <ele>1552.8</ele>
        <time>2022-08-20T17:20:48Z</time>
      </trkpt>
      <trkpt lat="25.4438090" lon="-100.9279840">
        <ele>1552.6</ele>
        <time>2022-08-20T17:20:49Z</time>
      </trkpt>
      <trkpt lat="25.4438770" lon="-100.9280240">
        <ele>1552.5</ele>
        <time>2022-08-20T17:20:50Z</time>
      </trkpt>
      <trkpt lat="25.4439450" lon="-100.9280680">
        <ele>1552.4</ele>
        <time>2022-08-20T17:20:51Z</time>
      </trkpt>
      <trkpt lat="25.4440120" lon="-100.9281120">
        <ele>1552.2</ele>
        <time>2022-08-20T17:20:52Z</time>
      </trkpt>
      <trkpt lat="25.4440800" lon="-100.9281590">
        <ele>1552.1</ele>
        <time>2022-08-20T17:20:53Z</time>
      </trkpt>
      <trkpt lat="25.4441470" lon="-100.9282050">
        <ele>1552.0</ele>
        <time>2022-08-20T17:20:54Z</time>
      </trkpt>
      <trkpt lat="25.4442150" lon="-100.9282530">
        <ele>1551.9</ele>
        <time>2022-08-20T17:20:55Z</time>
      </trkpt>
      <trkpt lat="25.4442820" lon="-100.9283040">
        <ele>1551.8</ele>
        <time>2022-08-20T17:20:56Z</time>
      </trkpt>
      <trkpt lat="25.4443470" lon="-100.9283560">
        <ele>1551.7</ele>
        <time>2022-08-20T17:20:57Z</time>
      </trkpt>
      <trkpt lat="25.4444110" lon="-100.9284100">
        <ele>1551.6</ele>
        <time>2022-08-20T17:20:58Z</time>
      </trkpt>
      <trkpt lat="25.4444760" lon="-100.9284660">
        <ele>1551.5</ele>
        <time>2022-08-20T17:20:59Z</time>
      </trkpt>
      <trkpt lat="25.4445400" lon="-100.9285220">
        <ele>1551.3</ele>
        <time>2022-08-20T17:21:00Z</time>
      </trkpt>
      <trkpt lat="25.4446040" lon="-100.9285790">
        <ele>1551.3</ele>
        <time>2022-08-20T17:21:01Z</time>
      </trkpt>
      <trkpt lat="25.4446650" lon="-100.9286340">
        <ele>1551.2</ele>
        <time>2022-08-20T17:21:02Z</time>
      </trkpt>
      <trkpt lat="25.4447260" lon="-100.9286920">
        <ele>1551.1</ele>
        <time>2022-08-20T17:21:03Z</time>
      </trkpt>
      <trkpt lat="25.4447840" lon="-100.9287510">
        <ele>1551.0</ele>
        <time>2022-08-20T17:21:04Z</time>
      </trkpt>
      <trkpt lat="25.4448440" lon="-100.9288140">
        <ele>1551.0</ele>
        <time>2022-08-20T17:21:05Z</time>
      </trkpt>
      <trkpt lat="25.4449000" lon="-100.9288760">
        <ele>1550.9</ele>
        <time>2022-08-20T17:21:06Z</time>
      </trkpt>
      <trkpt lat="25.4449530" lon="-100.9289340">
        <ele>1550.8</ele>
        <time>2022-08-20T17:21:07Z</time>
      </trkpt>
      <trkpt lat="25.4450060" lon="-100.9289890">
        <ele>1550.7</ele>
        <time>2022-08-20T17:21:08Z</time>
      </trkpt>
      <trkpt lat="25.4450600" lon="-100.9290420">
        <ele>1550.6</ele>
        <time>2022-08-20T17:21:09Z</time>
      </trkpt>
      <trkpt lat="25.4451170" lon="-100.9290980">
        <ele>1550.5</ele>
        <time>2022-08-20T17:21:10Z</time>
      </trkpt>
      <trkpt lat="25.4451750" lon="-100.9291590">
        <ele>1550.4</ele>
        <time>2022-08-20T17:21:11Z</time>
      </trkpt>
      <trkpt lat="25.4452310" lon="-100.9292240">
        <ele>1550.3</ele>
        <time>2022-08-20T17:21:12Z</time>
      </trkpt>
      <trkpt lat="25.4452880" lon="-100.9292920">
        <ele>1550.2</ele>
        <time>2022-08-20T17:21:13Z</time>
      </trkpt>
      <trkpt lat="25.4453430" lon="-100.9293600">
        <ele>1550.1</ele>
        <time>2022-08-20T17:21:14Z</time>
      </trkpt>
      <trkpt lat="25.4454010" lon="-100.9294270">
        <ele>1549.9</ele>
        <time>2022-08-20T17:21:15Z</time>
      </trkpt>
      <trkpt lat="25.4454600" lon="-100.9294950">
        <ele>1549.8</ele>
        <time>2022-08-20T17:21:16Z</time>
      </trkpt>
      <trkpt lat="25.4455190" lon="-100.9295630">
        <ele>1549.7</ele>
        <time>2022-08-20T17:21:17Z</time>
      </trkpt>
      <trkpt lat="25.4455790" lon="-100.9296280">
        <ele>1549.5</ele>
        <time>2022-08-20T17:21:18Z</time>
      </trkpt>
      <trkpt lat="25.4456390" lon="-100.9296900">
        <ele>1549.3</ele>
        <time>2022-08-20T17:21:19Z</time>
      </trkpt>
      <trkpt lat="25.4456990" lon="-100.9297520">
        <ele>1549.2</ele>
        <time>2022-08-20T17:21:20Z</time>
      </trkpt>
      <trkpt lat="25.4457590" lon="-100.9298140">
        <ele>1548.9</ele>
        <time>2022-08-20T17:21:21Z</time>
      </trkpt>
      <trkpt lat="25.4458230" lon="-100.9298700">
        <ele>1548.6</ele>
        <time>2022-08-20T17:21:22Z</time>
      </trkpt>
      <trkpt lat="25.4458920" lon="-100.9299170">
        <ele>1548.2</ele>
        <time>2022-08-20T17:21:23Z</time>
      </trkpt>
      <trkpt lat="25.4459680" lon="-100.9299520">
        <ele>1547.8</ele>
        <time>2022-08-20T17:21:24Z</time>
      </trkpt>
      <trkpt lat="25.4460480" lon="-100.9299840">
        <ele>1547.4</ele>
        <time>2022-08-20T17:21:25Z</time>
      </trkpt>
      <trkpt lat="25.4461310" lon="-100.9300090">
        <ele>1546.9</ele>
        <time>2022-08-20T17:21:26Z</time>
      </trkpt>
      <trkpt lat="25.4462170" lon="-100.9300300">
        <ele>1546.5</ele>
        <time>2022-08-20T17:21:27Z</time>
      </trkpt>
      <trkpt lat="25.4463070" lon="-100.9300590">
        <ele>1545.9</ele>
        <time>2022-08-20T17:21:28Z</time>
      </trkpt>
      <trkpt lat="25.4463970" lon="-100.9300810">
        <ele>1545.5</ele>
        <time>2022-08-20T17:21:29Z</time>
      </trkpt>
      <trkpt lat="25.4464860" lon="-100.9300790">
        <ele>1545.0</ele>
        <time>2022-08-20T17:21:30Z</time>
      </trkpt>
      <trkpt lat="25.4465740" lon="-100.9300680">
        <ele>1544.6</ele>
        <time>2022-08-20T17:21:31Z</time>
      </trkpt>
      <trkpt lat="25.4466650" lon="-100.9300490">
        <ele>1544.3</ele>
        <time>2022-08-20T17:21:32Z</time>
      </trkpt>
      <trkpt lat="25.4467570" lon="-100.9300230">
        <ele>1544.1</ele>
        <time>2022-08-20T17:21:33Z</time>
      </trkpt>
      <trkpt lat="25.4468500" lon="-100.9299940">
        <ele>1543.9</ele>
        <time>2022-08-20T17:21:34Z</time>
      </trkpt>
      <trkpt lat="25.4469440" lon="-100.9299630">
        <ele>1543.7</ele>
        <time>2022-08-20T17:21:35Z</time>
      </trkpt>
      <trkpt lat="25.4470360" lon="-100.9299320">
        <ele>1543.6</ele>
        <time>2022-08-20T17:21:36Z</time>
      </trkpt>
      <trkpt lat="25.4471260" lon="-100.9299040">
        <ele>1543.3</ele>
        <time>2022-08-20T17:21:37Z</time>
      </trkpt>
      <trkpt lat="25.4472140" lon="-100.9298770">
        <ele>1543.1</ele>
        <time>2022-08-20T17:21:38Z</time>
      </trkpt>
      <trkpt lat="25.4473040" lon="-100.9298500">
        <ele>1542.7</ele>
        <time>2022-08-20T17:21:39Z</time>
      </trkpt>
      <trkpt lat="25.4473970" lon="-100.9298230">
        <ele>1542.4</ele>
        <time>2022-08-20T17:21:40Z</time>
      </trkpt>
      <trkpt lat="25.4474920" lon="-100.9298000">
        <ele>1542.1</ele>
        <time>2022-08-20T17:21:41Z</time>
      </trkpt>
      <trkpt lat="25.4475920" lon="-100.9297800">
        <ele>1541.7</ele>
        <time>2022-08-20T17:21:42Z</time>
      </trkpt>
      <trkpt lat="25.4476910" lon="-100.9297650">
        <ele>1541.3</ele>
        <time>2022-08-20T17:21:43Z</time>
      </trkpt>
      <trkpt lat="25.4477890" lon="-100.9297560">
        <ele>1540.9</ele>
        <time>2022-08-20T17:21:44Z</time>
      </trkpt>
      <trkpt lat="25.4478900" lon="-100.9297530">
        <ele>1540.5</ele>
        <time>2022-08-20T17:21:45Z</time>
      </trkpt>
      <trkpt lat="25.4479890" lon="-100.9297560">
        <ele>1539.9</ele>
        <time>2022-08-20T17:21:46Z</time>
      </trkpt>
      <trkpt lat="25.4480910" lon="-100.9297630">
        <ele>1539.3</ele>
        <time>2022-08-20T17:21:47Z</time>
      </trkpt>
      <trkpt lat="25.4481900" lon="-100.9297740">
        <ele>1538.8</ele>
        <time>2022-08-20T17:21:48Z</time>
      </trkpt>
      <trkpt lat="25.4482930" lon="-100.9297870">
        <ele>1538.2</ele>
        <time>2022-08-20T17:21:49Z</time>
      </trkpt>
      <trkpt lat="25.4483960" lon="-100.9298040">
        <ele>1537.6</ele>
        <time>2022-08-20T17:21:50Z</time>
      </trkpt>
      <trkpt lat="25.4485000" lon="-100.9298260">
        <ele>1537.0</ele>
        <time>2022-08-20T17:21:51Z</time>
      </trkpt>
      <trkpt lat="25.4486050" lon="-100.9298530">
        <ele>1536.3</ele>
        <time>2022-08-20T17:21:52Z</time>
      </trkpt>
      <trkpt lat="25.4487110" lon="-100.9298830">
        <ele>1535.7</ele>
        <time>2022-08-20T17:21:53Z</time>
      </trkpt>
      <trkpt lat="25.4488180" lon="-100.9299120">
        <ele>1535.0</ele>
        <time>2022-08-20T17:21:54Z</time>
      </trkpt>
      <trkpt lat="25.4489220" lon="-100.9299410">
        <ele>1534.4</ele>
        <time>2022-08-20T17:21:55Z</time>
      </trkpt>
      <trkpt lat="25.4490250" lon="-100.9299700">
        <ele>1533.9</ele>
        <time>2022-08-20T17:21:56Z</time>
      </trkpt>
      <trkpt lat="25.4491280" lon="-100.9299990">
        <ele>1533.5</ele>
        <time>2022-08-20T17:21:57Z</time>
      </trkpt>
      <trkpt lat="25.4492310" lon="-100.9300270">
        <ele>1533.3</ele>
        <time>2022-08-20T17:21:58Z</time>
      </trkpt>
      <trkpt lat="25.4493330" lon="-100.9300520">
        <ele>1533.0</ele>
        <time>2022-08-20T17:21:59Z</time>
      </trkpt>
      <trkpt lat="25.4494370" lon="-100.9300760">
        <ele>1532.8</ele>
        <time>2022-08-20T17:22:00Z</time>
      </trkpt>
      <trkpt lat="25.4495400" lon="-100.9300960">
        <ele>1532.6</ele>
        <time>2022-08-20T17:22:01Z</time>
      </trkpt>
      <trkpt lat="25.4496400" lon="-100.9301130">
        <ele>1532.4</ele>
        <time>2022-08-20T17:22:02Z</time>
      </trkpt>
      <trkpt lat="25.4497410" lon="-100.9301240">
        <ele>1532.1</ele>
        <time>2022-08-20T17:22:03Z</time>
      </trkpt>
      <trkpt lat="25.4498400" lon="-100.9301300">
        <ele>1531.8</ele>
        <time>2022-08-20T17:22:04Z</time>
      </trkpt>
      <trkpt lat="25.4499400" lon="-100.9301340">
        <ele>1531.5</ele>
        <time>2022-08-20T17:22:05Z</time>
      </trkpt>
      <trkpt lat="25.4500400" lon="-100.9301350">
        <ele>1531.3</ele>
        <time>2022-08-20T17:22:06Z</time>
      </trkpt>
      <trkpt lat="25.4501400" lon="-100.9301320">
        <ele>1531.0</ele>
        <time>2022-08-20T17:22:07Z</time>
      </trkpt>
      <trkpt lat="25.4502420" lon="-100.9301250">
        <ele>1530.8</ele>
        <time>2022-08-20T17:22:08Z</time>
      </trkpt>
      <trkpt lat="25.4503430" lon="-100.9301140">
        <ele>1530.6</ele>
        <time>2022-08-20T17:22:09Z</time>
      </trkpt>
      <trkpt lat="25.4504450" lon="-100.9301020">
        <ele>1530.4</ele>
        <time>2022-08-20T17:22:10Z</time>
      </trkpt>
      <trkpt lat="25.4505470" lon="-100.9300920">
        <ele>1530.3</ele>
        <time>2022-08-20T17:22:11Z</time>
      </trkpt>
      <trkpt lat="25.4506470" lon="-100.9300830">
        <ele>1530.2</ele>
        <time>2022-08-20T17:22:12Z</time>
      </trkpt>
      <trkpt lat="25.4507470" lon="-100.9300750">
        <ele>1530.0</ele>
        <time>2022-08-20T17:22:13Z</time>
      </trkpt>
      <trkpt lat="25.4508470" lon="-100.9300700">
        <ele>1529.8</ele>
        <time>2022-08-20T17:22:14Z</time>
      </trkpt>
      <trkpt lat="25.4509490" lon="-100.9300690">
        <ele>1529.6</ele>
        <time>2022-08-20T17:22:15Z</time>
      </trkpt>
      <trkpt lat="25.4510520" lon="-100.9300720">
        <ele>1529.4</ele>
        <time>2022-08-20T17:22:16Z</time>
      </trkpt>
      <trkpt lat="25.4511540" lon="-100.9300800">
        <ele>1529.2</ele>
        <time>2022-08-20T17:22:17Z</time>
      </trkpt>
      <trkpt lat="25.4512540" lon="-100.9300860">
        <ele>1528.9</ele>
        <time>2022-08-20T17:22:18Z</time>
      </trkpt>
      <trkpt lat="25.4513560" lon="-100.9300980">
        <ele>1528.6</ele>
        <time>2022-08-20T17:22:19Z</time>
      </trkpt>
      <trkpt lat="25.4514580" lon="-100.9301160">
        <ele>1528.3</ele>
        <time>2022-08-20T17:22:20Z</time>
      </trkpt>
      <trkpt lat="25.4515590" lon="-100.9301400">
        <ele>1527.9</ele>
        <time>2022-08-20T17:22:21Z</time>
      </trkpt>
      <trkpt lat="25.4516610" lon="-100.9301670">
        <ele>1527.5</ele>
        <time>2022-08-20T17:22:22Z</time>
      </trkpt>
      <trkpt lat="25.4517620" lon="-100.9301980">
        <ele>1527.1</ele>
        <time>2022-08-20T17:22:23Z</time>
      </trkpt>
      <trkpt lat="25.4518620" lon="-100.9302290">
        <ele>1526.6</ele>
        <time>2022-08-20T17:22:24Z</time>
      </trkpt>
      <trkpt lat="25.4519580" lon="-100.9302650">
        <ele>1526.1</ele>
        <time>2022-08-20T17:22:25Z</time>
      </trkpt>
      <trkpt lat="25.4520520" lon="-100.9303110">
        <ele>1525.6</ele>
        <time>2022-08-20T17:22:26Z</time>
      </trkpt>
      <trkpt lat="25.4521470" lon="-100.9303600">
        <ele>1525.2</ele>
        <time>2022-08-20T17:22:27Z</time>
      </trkpt>
      <trkpt lat="25.4522400" lon="-100.9304120">
        <ele>1524.7</ele>
        <time>2022-08-20T17:22:28Z</time>
      </trkpt>
      <trkpt lat="25.4523340" lon="-100.9304660">
        <ele>1524.3</ele>
        <time>2022-08-20T17:22:29Z</time>
      </trkpt>
      <trkpt lat="25.4524270" lon="-100.9305160">
        <ele>1523.8</ele>
        <time>2022-08-20T17:22:30Z</time>
      </trkpt>
      <trkpt lat="25.4525220" lon="-100.9305610">
        <ele>1523.5</ele>
        <time>2022-08-20T17:22:31Z</time>
      </trkpt>
      <trkpt lat="25.4526200" lon="-100.9305980">
        <ele>1523.1</ele>
        <time>2022-08-20T17:22:32Z</time>
      </trkpt>
      <trkpt lat="25.4527200" lon="-100.9306290">
        <ele>1522.7</ele>
        <time>2022-08-20T17:22:33Z</time>
      </trkpt>
      <trkpt lat="25.4528210" lon="-100.9306530">
        <ele>1522.4</ele>
        <time>2022-08-20T17:22:34Z</time>
      </trkpt>
      <trkpt lat="25.4529220" lon="-100.9306730">
        <ele>1522.1</ele>
        <time>2022-08-20T17:22:35Z</time>
      </trkpt>
      <trkpt lat="25.4530220" lon="-100.9306870">
        <ele>1521.7</ele>
        <time>2022-08-20T17:22:36Z</time>
      </trkpt>
      <trkpt lat="25.4531250" lon="-100.9306970">
        <ele>1521.5</ele>
        <time>2022-08-20T17:22:37Z</time>
      </trkpt>
      <trkpt lat="25.4532260" lon="-100.9307000">
        <ele>1521.2</ele>
        <time>2022-08-20T17:22:38Z</time>
      </trkpt>
      <trkpt lat="25.4533270" lon="-100.9306970">
        <ele>1521.0</ele>
        <time>2022-08-20T17:22:39Z</time>
      </trkpt>
      <trkpt lat="25.4534280" lon="-100.9306920">
        <ele>1520.7</ele>
        <time>2022-08-20T17:22:40Z</time>
      </trkpt>
      <trkpt lat="25.4535280" lon="-100.9306870">
        <ele>1520.5</ele>
        <time>2022-08-20T17:22:41Z</time>
      </trkpt>
      <trkpt lat="25.4536270" lon="-100.9306790">
        <ele>1520.3</ele>
        <time>2022-08-20T17:22:42Z</time>
      </trkpt>
      <trkpt lat="25.4537260" lon="-100.9306670">
        <ele>1520.1</ele>
        <time>2022-08-20T17:22:43Z</time>
      </trkpt>
      <trkpt lat="25.4538260" lon="-100.9306560">
        <ele>1519.9</ele>
        <time>2022-08-20T17:22:44Z</time>
      </trkpt>
      <trkpt lat="25.4539260" lon="-100.9306470">
        <ele>1519.7</ele>
        <time>2022-08-20T17:22:45Z</time>
      </trkpt>
      <trkpt lat="25.4540250" lon="-100.9306380">
        <ele>1519.5</ele>
        <time>2022-08-20T17:22:46Z</time>
      </trkpt>
      <trkpt lat="25.4541250" lon="-100.9306280">
        <ele>1519.4</ele>
        <time>2022-08-20T17:22:47Z</time>
      </trkpt>
      <trkpt lat="25.4542230" lon="-100.9306180">
        <ele>1519.2</ele>
        <time>2022-08-20T17:22:48Z</time>
      </trkpt>
      <trkpt lat="25.4543220" lon="-100.9306050">
        <ele>1519.1</ele>
        <time>2022-08-20T17:22:49Z</time>
      </trkpt>
      <trkpt lat="25.4544240" lon="-100.9305920">
        <ele>1518.9</ele>
        <time>2022-08-20T17:22:50Z</time>
      </trkpt>
      <trkpt lat="25.4545270" lon="-100.9305790">
        <ele>1518.8</ele>
        <time>2022-08-20T17:22:51Z</time>
      </trkpt>
      <trkpt lat="25.4546320" lon="-100.9305660">
        <ele>1518.6</ele>
        <time>2022-08-20T17:22:52Z</time>
      </trkpt>
      <trkpt lat="25.4547380" lon="-100.9305570">
        <ele>1518.4</ele>
        <time>2022-08-20T17:22:53Z</time>
      </trkpt>
      <trkpt lat="25.4548410" lon="-100.9305480">
        <ele>1518.3</ele>
        <time>2022-08-20T17:22:54Z</time>
      </trkpt>
      <trkpt lat="25.4549440" lon="-100.9305410">
        <ele>1518.1</ele>
        <time>2022-08-20T17:22:55Z</time>
      </trkpt>
      <trkpt lat="25.4550470" lon="-100.9305330">
        <ele>1517.9</ele>
        <time>2022-08-20T17:22:56Z</time>
      </trkpt>
      <trkpt lat="25.4551470" lon="-100.9305250">
        <ele>1517.7</ele>
        <time>2022-08-20T17:22:57Z</time>
      </trkpt>
      <trkpt lat="25.4552470" lon="-100.9305180">
        <ele>1517.6</ele>
        <time>2022-08-20T17:22:58Z</time>
      </trkpt>
      <trkpt lat="25.4553460" lon="-100.9305090">
        <ele>1517.5</ele>
        <time>2022-08-20T17:22:59Z</time>
      </trkpt>
      <trkpt lat="25.4554470" lon="-100.9305010">
        <ele>1517.4</ele>
        <time>2022-08-20T17:23:00Z</time>
      </trkpt>
      <trkpt lat="25.4555470" lon="-100.9304940">
        <ele>1517.4</ele>
        <time>2022-08-20T17:23:01Z</time>
      </trkpt>
      <trkpt lat="25.4556460" lon="-100.9304890">
        <ele>1517.3</ele>
        <time>2022-08-20T17:23:02Z</time>
      </trkpt>
      <trkpt lat="25.4557440" lon="-100.9304830">
        <ele>1517.2</ele>
        <time>2022-08-20T17:23:03Z</time>
      </trkpt>
      <trkpt lat="25.4558390" lon="-100.9304780">
        <ele>1517.1</ele>
        <time>2022-08-20T17:23:04Z</time>
      </trkpt>
      <trkpt lat="25.4559310" lon="-100.9304750">
        <ele>1517.0</ele>
        <time>2022-08-20T17:23:05Z</time>
      </trkpt>
      <trkpt lat="25.4560200" lon="-100.9304750">
        <ele>1516.9</ele>
        <time>2022-08-20T17:23:06Z</time>
      </trkpt>
      <trkpt lat="25.4561080" lon="-100.9304780">
        <ele>1516.9</ele>
        <time>2022-08-20T17:23:07Z</time>
      </trkpt>
      <trkpt lat="25.4561920" lon="-100.9304830">
        <ele>1516.8</ele>
        <time>2022-08-20T17:23:08Z</time>
      </trkpt>
      <trkpt lat="25.4562760" lon="-100.9304890">
        <ele>1516.7</ele>
        <time>2022-08-20T17:23:09Z</time>
      </trkpt>
      <trkpt lat="25.4563610" lon="-100.9304970">
        <ele>1516.6</ele>
        <time>2022-08-20T17:23:10Z</time>
      </trkpt>
      <trkpt lat="25.4564410" lon="-100.9305050">
        <ele>1516.5</ele>
        <time>2022-08-20T17:23:11Z</time>
      </trkpt>
      <trkpt lat="25.4565200" lon="-100.9305130">
        <ele>1516.4</ele>
        <time>2022-08-20T17:23:12Z</time>
      </trkpt>
      <trkpt lat="25.4565980" lon="-100.9305200">
        <ele>1516.3</ele>
        <time>2022-08-20T17:23:13Z</time>
      </trkpt>
      <trkpt lat="25.4566750" lon="-100.9305250">
        <ele>1516.2</ele>
        <time>2022-08-20T17:23:14Z</time>
      </trkpt>
      <trkpt lat="25.4567530" lon="-100.9305280">
        <ele>1516.1</ele>
        <time>2022-08-20T17:23:15Z</time>
      </trkpt>
      <trkpt lat="25.4568320" lon="-100.9305290">
        <ele>1516.0</ele>
        <time>2022-08-20T17:23:16Z</time>
      </trkpt>
      <trkpt lat="25.4569100" lon="-100.9305310">
        <ele>1515.9</ele>
        <time>2022-08-20T17:23:17Z</time>
      </trkpt>
      <trkpt lat="25.4569830" lon="-100.9305360">
        <ele>1515.9</ele>
        <time>2022-08-20T17:23:18Z</time>
      </trkpt>
      <trkpt lat="25.4570550" lon="-100.9305380">
        <ele>1515.8</ele>
        <time>2022-08-20T17:23:19Z</time>
      </trkpt>
      <trkpt lat="25.4571250" lon="-100.9305400">
        <ele>1515.7</ele>
        <time>2022-08-20T17:23:20Z</time>
      </trkpt>
      <trkpt lat="25.4571930" lon="-100.9305430">
        <ele>1515.6</ele>
        <time>2022-08-20T17:23:21Z</time>
      </trkpt>
      <trkpt lat="25.4572600" lon="-100.9305500">
        <ele>1515.6</ele>
        <time>2022-08-20T17:23:22Z</time>
      </trkpt>
      <trkpt lat="25.4573270" lon="-100.9305590">
        <ele>1515.5</ele>
        <time>2022-08-20T17:23:23Z</time>
      </trkpt>
      <trkpt lat="25.4573940" lon="-100.9305700">
        <ele>1515.4</ele>
        <time>2022-08-20T17:23:24Z</time>
      </trkpt>
      <trkpt lat="25.4574620" lon="-100.9305800">
        <ele>1515.3</ele>
        <time>2022-08-20T17:23:25Z</time>
      </trkpt>
      <trkpt lat="25.4575310" lon="-100.9305880">
        <ele>1515.2</ele>
        <time>2022-08-20T17:23:26Z</time>
      </trkpt>
      <trkpt lat="25.4576010" lon="-100.9305950">
        <ele>1515.1</ele>
        <time>2022-08-20T17:23:27Z</time>
      </trkpt>
      <trkpt lat="25.4576730" lon="-100.9306000">
        <ele>1515.1</ele>
        <time>2022-08-20T17:23:28Z</time>
      </trkpt>
      <trkpt lat="25.4577450" lon="-100.9306070">
        <ele>1515.0</ele>
        <time>2022-08-20T17:23:29Z</time>
      </trkpt>
      <trkpt lat="25.4578150" lon="-100.9306170">
        <ele>1514.9</ele>
        <time>2022-08-20T17:23:30Z</time>
      </trkpt>
      <trkpt lat="25.4578860" lon="-100.9306330">
        <ele>1514.8</ele>
        <time>2022-08-20T17:23:31Z</time>
      </trkpt>
      <trkpt lat="25.4579580" lon="-100.9306560">
        <ele>1514.6</ele>
        <time>2022-08-20T17:23:32Z</time>
      </trkpt>
      <trkpt lat="25.4580280" lon="-100.9306880">
        <ele>1514.5</ele>
        <time>2022-08-20T17:23:33Z</time>
      </trkpt>
      <trkpt lat="25.4580980" lon="-100.9307250">
        <ele>1514.3</ele>
        <time>2022-08-20T17:23:34Z</time>
      </trkpt>
      <trkpt lat="25.4581670" lon="-100.9307650">
        <ele>1514.2</ele>
        <time>2022-08-20T17:23:35Z</time>
      </trkpt>
      <trkpt lat="25.4582360" lon="-100.9308100">
        <ele>1514.0</ele>
        <time>2022-08-20T17:23:36Z</time>
      </trkpt>
      <trkpt lat="25.4583040" lon="-100.9308620">
        <ele>1513.9</ele>
        <time>2022-08-20T17:23:37Z</time>
      </trkpt>
      <trkpt lat="25.4583700" lon="-100.9309190">
        <ele>1513.7</ele>
        <time>2022-08-20T17:23:38Z</time>
      </trkpt>
      <trkpt lat="25.4584370" lon="-100.9309810">
        <ele>1513.5</ele>
        <time>2022-08-20T17:23:39Z</time>
      </trkpt>
      <trkpt lat="25.4585010" lon="-100.9310520">
        <ele>1513.2</ele>
        <time>2022-08-20T17:23:40Z</time>
      </trkpt>
      <trkpt lat="25.4585540" lon="-100.9311260">
        <ele>1513.0</ele>
        <time>2022-08-20T17:23:41Z</time>
      </trkpt>
      <trkpt lat="25.4585980" lon="-100.9312040">
        <ele>1512.8</ele>
        <time>2022-08-20T17:23:42Z</time>
      </trkpt>
      <trkpt lat="25.4586400" lon="-100.9312800">
        <ele>1512.5</ele>
        <time>2022-08-20T17:23:43Z</time>
      </trkpt>
      <trkpt lat="25.4586810" lon="-100.9313580">
        <ele>1512.3</ele>
        <time>2022-08-20T17:23:44Z</time>
      </trkpt>
      <trkpt lat="25.4587200" lon="-100.9314360">
        <ele>1512.0</ele>
        <time>2022-08-20T17:23:45Z</time>
      </trkpt>
      <trkpt lat="25.4587580" lon="-100.9315160">
        <ele>1511.8</ele>
        <time>2022-08-20T17:23:46Z</time>
      </trkpt>
      <trkpt lat="25.4587950" lon="-100.9315980">
        <ele>1511.5</ele>
        <time>2022-08-20T17:23:47Z</time>
      </trkpt>
      <trkpt lat="25.4588330" lon="-100.9316790">
        <ele>1511.3</ele>
        <time>2022-08-20T17:23:48Z</time>
      </trkpt>
      <trkpt lat="25.4588710" lon="-100.9317600">
        <ele>1511.0</ele>
        <time>2022-08-20T17:23:49Z</time>
      </trkpt>
      <trkpt lat="25.4589100" lon="-100.9318410">
        <ele>1510.8</ele>
        <time>2022-08-20T17:23:50Z</time>
      </trkpt>
      <trkpt lat="25.4589490" lon="-100.9319220">
        <ele>1510.5</ele>
        <time>2022-08-20T17:23:51Z</time>
      </trkpt>
      <trkpt lat="25.4589890" lon="-100.9320040">
        <ele>1510.3</ele>
        <time>2022-08-20T17:23:52Z</time>
      </trkpt>
      <trkpt lat="25.4590280" lon="-100.9320860">
        <ele>1510.0</ele>
        <time>2022-08-20T17:23:53Z</time>
      </trkpt>
      <trkpt lat="25.4590660" lon="-100.9321680">
        <ele>1509.7</ele>
        <time>2022-08-20T17:23:54Z</time>
      </trkpt>
      <trkpt lat="25.4591070" lon="-100.9322490">
        <ele>1509.4</ele>
        <time>2022-08-20T17:23:55Z</time>
      </trkpt>
      <trkpt lat="25.4591480" lon="-100.9323300">
        <ele>1509.1</ele>
        <time>2022-08-20T17:23:56Z</time>
      </trkpt>
      <trkpt lat="25.4591880" lon="-100.9324110">
        <ele>1508.8</ele>
        <time>2022-08-20T17:23:57Z</time>
      </trkpt>
      <trkpt lat="25.4592270" lon="-100.9324930">
        <ele>1508.5</ele>
        <time>2022-08-20T17:23:58Z</time>
      </trkpt>
      <trkpt lat="25.4592660" lon="-100.9325740">
        <ele>1508.2</ele>
        <time>2022-08-20T17:23:59Z</time>
      </trkpt>
      <trkpt lat="25.4593080" lon="-100.9326570">
        <ele>1507.9</ele>
        <time>2022-08-20T17:24:00Z</time>
      </trkpt>
      <trkpt lat="25.4593480" lon="-100.9327400">
        <ele>1507.6</ele>
        <time>2022-08-20T17:24:01Z</time>
      </trkpt>
      <trkpt lat="25.4593870" lon="-100.9328260">
        <ele>1507.4</ele>
        <time>2022-08-20T17:24:02Z</time>
      </trkpt>
      <trkpt lat="25.4594240" lon="-100.9329120">
        <ele>1507.1</ele>
        <time>2022-08-20T17:24:03Z</time>
      </trkpt>
      <trkpt lat="25.4594650" lon="-100.9329960">
        <ele>1506.9</ele>
        <time>2022-08-20T17:24:04Z</time>
      </trkpt>
      <trkpt lat="25.4595110" lon="-100.9330770">
        <ele>1506.6</ele>
        <time>2022-08-20T17:24:05Z</time>
      </trkpt>
      <trkpt lat="25.4595570" lon="-100.9331600">
        <ele>1506.3</ele>
        <time>2022-08-20T17:24:06Z</time>
      </trkpt>
      <trkpt lat="25.4596010" lon="-100.9332490">
        <ele>1506.1</ele>
        <time>2022-08-20T17:24:07Z</time>
      </trkpt>
      <trkpt lat="25.4596440" lon="-100.9333380">
        <ele>1506.0</ele>
        <time>2022-08-20T17:24:08Z</time>
      </trkpt>
      <trkpt lat="25.4596890" lon="-100.9334280">
        <ele>1505.8</ele>
        <time>2022-08-20T17:24:09Z</time>
      </trkpt>
      <trkpt lat="25.4597340" lon="-100.9335210">
        <ele>1505.5</ele>
        <time>2022-08-20T17:24:10Z</time>
      </trkpt>
      <trkpt lat="25.4597750" lon="-100.9336120">
        <ele>1505.2</ele>
        <time>2022-08-20T17:24:11Z</time>
      </trkpt>
      <trkpt lat="25.4598150" lon="-100.9337020">
        <ele>1504.9</ele>
        <time>2022-08-20T17:24:12Z</time>
      </trkpt>
      <trkpt lat="25.4598530" lon="-100.9337880">
        <ele>1504.6</ele>
        <time>2022-08-20T17:24:13Z</time>
      </trkpt>
      <trkpt lat="25.4598920" lon="-100.9338740">
        <ele>1504.4</ele>
        <time>2022-08-20T17:24:14Z</time>
      </trkpt>
      <trkpt lat="25.4599320" lon="-100.9339590">
        <ele>1504.1</ele>
        <time>2022-08-20T17:24:15Z</time>
      </trkpt>
      <trkpt lat="25.4599710" lon="-100.9340430">
        <ele>1503.9</ele>
        <time>2022-08-20T17:24:16Z</time>
      </trkpt>
      <trkpt lat="25.4600080" lon="-100.9341250">
        <ele>1503.7</ele>
        <time>2022-08-20T17:24:17Z</time>
      </trkpt>
      <trkpt lat="25.4600450" lon="-100.9342050">
        <ele>1503.5</ele>
        <time>2022-08-20T17:24:18Z</time>
      </trkpt>
      <trkpt lat="25.4600820" lon="-100.9342830">
        <ele>1503.3</ele>
        <time>2022-08-20T17:24:19Z</time>
      </trkpt>
      <trkpt lat="25.4601170" lon="-100.9343580">
        <ele>1503.1</ele>
        <time>2022-08-20T17:24:20Z</time>
      </trkpt>
      <trkpt lat="25.4601520" lon="-100.9344320">
        <ele>1503.0</ele>
        <time>2022-08-20T17:24:21Z</time>
      </trkpt>
      <trkpt lat="25.4601850" lon="-100.9345050">
        <ele>1502.9</ele>
        <time>2022-08-20T17:24:22Z</time>
      </trkpt>
      <trkpt lat="25.4602170" lon="-100.9345770">
        <ele>1502.7</ele>
        <time>2022-08-20T17:24:23Z</time>
      </trkpt>
      <trkpt lat="25.4602490" lon="-100.9346470">
        <ele>1502.6</ele>
        <time>2022-08-20T17:24:24Z</time>
      </trkpt>
      <trkpt lat="25.4602790" lon="-100.9347150">
        <ele>1502.5</ele>
        <time>2022-08-20T17:24:25Z</time>
      </trkpt>
      <trkpt lat="25.4603080" lon="-100.9347790">
        <ele>1502.5</ele>
        <time>2022-08-20T17:24:26Z</time>
      </trkpt>
      <trkpt lat="25.4603340" lon="-100.9348360">
        <ele>1502.4</ele>
        <time>2022-08-20T17:24:27Z</time>
      </trkpt>
      <trkpt lat="25.4603580" lon="-100.9348890">
        <ele>1502.3</ele>
        <time>2022-08-20T17:24:28Z</time>
      </trkpt>
      <trkpt lat="25.4603790" lon="-100.9349360">
        <ele>1502.3</ele>
        <time>2022-08-20T17:24:29Z</time>
      </trkpt>
      <trkpt lat="25.4603930" lon="-100.9349670">
        <ele>1502.2</ele>
        <time>2022-08-20T17:24:30Z</time>
      </trkpt>
      <trkpt lat="25.4604100" lon="-100.9350110">
        <ele>1502.2</ele>
        <time>2022-08-20T17:24:31Z</time>
      </trkpt>
      <trkpt lat="25.4604220" lon="-100.9350410">
        <ele>1502.1</ele>
        <time>2022-08-20T17:24:32Z</time>
      </trkpt>
      <trkpt lat="25.4604290" lon="-100.9350610">
        <ele>1502.1</ele>
        <time>2022-08-20T17:24:33Z</time>
      </trkpt>
      <trkpt lat="25.4604320" lon="-100.9350720">
        <ele>1502.0</ele>
        <time>2022-08-20T17:24:34Z</time>
      </trkpt>
      <trkpt lat="25.4604350" lon="-100.9350800">
        <ele>1502.0</ele>
        <time>2022-08-20T17:24:35Z</time>
      </trkpt>
      <trkpt lat="25.4604380" lon="-100.9350850">
        <ele>1502.0</ele>
        <time>2022-08-20T17:24:36Z</time>
      </trkpt>
      <trkpt lat="25.4604380" lon="-100.9350870">
        <ele>1502.0</ele>
        <time>2022-08-20T17:24:37Z</time>
      </trkpt>
      <trkpt lat="25.4604390" lon="-100.9350870">
        <ele>1502.0</ele>
        <time>2022-08-20T17:24:38Z</time>
      </trkpt>
      <trkpt lat="25.4604390" lon="-100.9350870">
        <ele>1502.0</ele>
        <time>2022-08-20T17:24:39Z</time>
      </trkpt>
      <trkpt lat="25.4604410" lon="-100.9350890">
        <ele>1502.0</ele>
        <time>2022-08-20T17:24:40Z</time>
      </trkpt>
      <trkpt lat="25.4604420" lon="-100.9350900">
        <ele>1502.0</ele>
        <time>2022-08-20T17:24:41Z</time>
      </trkpt>
      <trkpt lat="25.4604500" lon="-100.9351020">
        <ele>1502.0</ele>
        <time>2022-08-20T17:24:42Z</time>
      </trkpt>
      <trkpt lat="25.4604770" lon="-100.9351380">
        <ele>1501.9</ele>
        <time>2022-08-20T17:24:44Z</time>
      </trkpt>
      <trkpt lat="25.4605020" lon="-100.9352090">
        <ele>1501.7</ele>
        <time>2022-08-20T17:24:45Z</time>
      </trkpt>
      <trkpt lat="25.4605420" lon="-100.9353050">
        <ele>1501.4</ele>
        <time>2022-08-20T17:24:47Z</time>
      </trkpt>
      <trkpt lat="25.4605700" lon="-100.9353580">
        <ele>1501.2</ele>
        <time>2022-08-20T17:24:48Z</time>
      </trkpt>
      <trkpt lat="25.4605970" lon="-100.9354100">
        <ele>1501.1</ele>
        <time>2022-08-20T17:24:49Z</time>
      </trkpt>
      <trkpt lat="25.4606240" lon="-100.9354680">
        <ele>1501.0</ele>
        <time>2022-08-20T17:24:50Z</time>
      </trkpt>
      <trkpt lat="25.4606550" lon="-100.9355280">
        <ele>1500.9</ele>
        <time>2022-08-20T17:24:51Z</time>
      </trkpt>
      <trkpt lat="25.4606860" lon="-100.9355890">
        <ele>1500.7</ele>
        <time>2022-08-20T17:24:52Z</time>
      </trkpt>
      <trkpt lat="25.4607180" lon="-100.9356530">
        <ele>1500.6</ele>
        <time>2022-08-20T17:24:53Z</time>
      </trkpt>
      <trkpt lat="25.4607500" lon="-100.9357190">
        <ele>1500.4</ele>
        <time>2022-08-20T17:24:54Z</time>
      </trkpt>
      <trkpt lat="25.4607820" lon="-100.9357870">
        <ele>1500.3</ele>
        <time>2022-08-20T17:24:55Z</time>
      </trkpt>
      <trkpt lat="25.4608150" lon="-100.9358560">
        <ele>1500.1</ele>
        <time>2022-08-20T17:24:56Z</time>
      </trkpt>
      <trkpt lat="25.4608480" lon="-100.9359220">
        <ele>1500.0</ele>
        <time>2022-08-20T17:24:57Z</time>
      </trkpt>
      <trkpt lat="25.4608820" lon="-100.9359910">
        <ele>1499.9</ele>
        <time>2022-08-20T17:24:58Z</time>
      </trkpt>
      <trkpt lat="25.4609140" lon="-100.9360590">
        <ele>1499.7</ele>
        <time>2022-08-20T17:24:59Z</time>
      </trkpt>
      <trkpt lat="25.4609450" lon="-100.9361270">
        <ele>1499.6</ele>
        <time>2022-08-20T17:25:00Z</time>
      </trkpt>
      <trkpt lat="25.4609760" lon="-100.9361930">
        <ele>1499.5</ele>
        <time>2022-08-20T17:25:01Z</time>
      </trkpt>
      <trkpt lat="25.4610070" lon="-100.9362600">
        <ele>1499.4</ele>
        <time>2022-08-20T17:25:02Z</time>
      </trkpt>
      <trkpt lat="25.4610570" lon="-100.9363570">
        <ele>1499.3</ele>
        <time>2022-08-20T17:25:03Z</time>
      </trkpt>
      <trkpt lat="25.4610740" lon="-100.9363890">
        <ele>1499.2</ele>
        <time>2022-08-20T17:25:04Z</time>
      </trkpt>
      <trkpt lat="25.4611050" lon="-100.9364530">
        <ele>1499.1</ele>
        <time>2022-08-20T17:25:05Z</time>
      </trkpt>
      <trkpt lat="25.4611380" lon="-100.9365190">
        <ele>1499.0</ele>
        <time>2022-08-20T17:25:06Z</time>
      </trkpt>
      <trkpt lat="25.4611710" lon="-100.9365870">
        <ele>1498.9</ele>
        <time>2022-08-20T17:25:07Z</time>
      </trkpt>
      <trkpt lat="25.4612040" lon="-100.9366570">
        <ele>1498.7</ele>
        <time>2022-08-20T17:25:08Z</time>
      </trkpt>
      <trkpt lat="25.4612390" lon="-100.9367290">
        <ele>1498.6</ele>
        <time>2022-08-20T17:25:09Z</time>
      </trkpt>
      <trkpt lat="25.4612730" lon="-100.9368000">
        <ele>1498.4</ele>
        <time>2022-08-20T17:25:10Z</time>
      </trkpt>
      <trkpt lat="25.4613070" lon="-100.9368730">
        <ele>1498.1</ele>
        <time>2022-08-20T17:25:11Z</time>
      </trkpt>
      <trkpt lat="25.4613410" lon="-100.9369460">
        <ele>1497.9</ele>
        <time>2022-08-20T17:25:12Z</time>
      </trkpt>
      <trkpt lat="25.4613750" lon="-100.9370210">
        <ele>1497.7</ele>
        <time>2022-08-20T17:25:13Z</time>
      </trkpt>
      <trkpt lat="25.4614130" lon="-100.9370950">
        <ele>1497.4</ele>
        <time>2022-08-20T17:25:14Z</time>
      </trkpt>
      <trkpt lat="25.4614560" lon="-100.9371660">
        <ele>1497.2</ele>
        <time>2022-08-20T17:25:15Z</time>
      </trkpt>
      <trkpt lat="25.4615030" lon="-100.9372310">
        <ele>1496.9</ele>
        <time>2022-08-20T17:25:16Z</time>
      </trkpt>
      <trkpt lat="25.4615570" lon="-100.9372920">
        <ele>1496.7</ele>
        <time>2022-08-20T17:25:17Z</time>
      </trkpt>
      <trkpt lat="25.4616170" lon="-100.9373500">
        <ele>1496.5</ele>
        <time>2022-08-20T17:25:18Z</time>
      </trkpt>
      <trkpt lat="25.4616810" lon="-100.9374040">
        <ele>1496.3</ele>
        <time>2022-08-20T17:25:19Z</time>
      </trkpt>
      <trkpt lat="25.4617500" lon="-100.9374530">
        <ele>1496.2</ele>
        <time>2022-08-20T17:25:20Z</time>
      </trkpt>
      <trkpt lat="25.4618210" lon="-100.9374990">
        <ele>1496.0</ele>
        <time>2022-08-20T17:25:21Z</time>
      </trkpt>
      <trkpt lat="25.4618940" lon="-100.9375380">
        <ele>1495.9</ele>
        <time>2022-08-20T17:25:22Z</time>
      </trkpt>
      <trkpt lat="25.4619660" lon="-100.9375720">
        <ele>1495.8</ele>
        <time>2022-08-20T17:25:23Z</time>
      </trkpt>
      <trkpt lat="25.4620410" lon="-100.9376010">
        <ele>1495.7</ele>
        <time>2022-08-20T17:25:24Z</time>
      </trkpt>
      <trkpt lat="25.4621150" lon="-100.9376260">
        <ele>1495.7</ele>
        <time>2022-08-20T17:25:25Z</time>
      </trkpt>
      <trkpt lat="25.4621890" lon="-100.9376500">
        <ele>1495.6</ele>
        <time>2022-08-20T17:25:26Z</time>
      </trkpt>
      <trkpt lat="25.4622640" lon="-100.9376750">
        <ele>1495.5</ele>
        <time>2022-08-20T17:25:27Z</time>
      </trkpt>
      <trkpt lat="25.4623400" lon="-100.9377000">
        <ele>1495.5</ele>
        <time>2022-08-20T17:25:28Z</time>
      </trkpt>
      <trkpt lat="25.4624170" lon="-100.9377240">
        <ele>1495.4</ele>
        <time>2022-08-20T17:25:29Z</time>
      </trkpt>
      <trkpt lat="25.4624940" lon="-100.9377500">
        <ele>1495.3</ele>
        <time>2022-08-20T17:25:30Z</time>
      </trkpt>
      <trkpt lat="25.4625690" lon="-100.9377740">
        <ele>1495.1</ele>
        <time>2022-08-20T17:25:31Z</time>
      </trkpt>
      <trkpt lat="25.4626420" lon="-100.9377970">
        <ele>1495.0</ele>
        <time>2022-08-20T17:25:32Z</time>
      </trkpt>
      <trkpt lat="25.4627150" lon="-100.9378210">
        <ele>1494.9</ele>
        <time>2022-08-20T17:25:33Z</time>
      </trkpt>
      <trkpt lat="25.4627870" lon="-100.9378470">
        <ele>1494.7</ele>
        <time>2022-08-20T17:25:34Z</time>
      </trkpt>
      <trkpt lat="25.4628610" lon="-100.9378730">
        <ele>1494.6</ele>
        <time>2022-08-20T17:25:35Z</time>
      </trkpt>
      <trkpt lat="25.4629370" lon="-100.9378980">
        <ele>1494.5</ele>
        <time>2022-08-20T17:25:36Z</time>
      </trkpt>
      <trkpt lat="25.4630150" lon="-100.9379220">
        <ele>1494.3</ele>
        <time>2022-08-20T17:25:37Z</time>
      </trkpt>
      <trkpt lat="25.4630940" lon="-100.9379460">
        <ele>1494.2</ele>
        <time>2022-08-20T17:25:38Z</time>
      </trkpt>
      <trkpt lat="25.4631720" lon="-100.9379710">
        <ele>1494.1</ele>
        <time>2022-08-20T17:25:39Z</time>
      </trkpt>
      <trkpt lat="25.4632490" lon="-100.9379970">
        <ele>1494.0</ele>
        <time>2022-08-20T17:25:40Z</time>
      </trkpt>
      <trkpt lat="25.4633250" lon="-100.9380230">
        <ele>1493.8</ele>
        <time>2022-08-20T17:25:41Z</time>
      </trkpt>
      <trkpt lat="25.4634020" lon="-100.9380470">
        <ele>1493.7</ele>
        <time>2022-08-20T17:25:42Z</time>
      </trkpt>
      <trkpt lat="25.4634790" lon="-100.9380720">
        <ele>1493.6</ele>
        <time>2022-08-20T17:25:43Z</time>
      </trkpt>
      <trkpt lat="25.4635550" lon="-100.9380970">
        <ele>1493.5</ele>
        <time>2022-08-20T17:25:44Z</time>
      </trkpt>
      <trkpt lat="25.4636310" lon="-100.9381220">
        <ele>1493.4</ele>
        <time>2022-08-20T17:25:45Z</time>
      </trkpt>
      <trkpt lat="25.4637080" lon="-100.9381480">
        <ele>1493.3</ele>
        <time>2022-08-20T17:25:46Z</time>
      </trkpt>
      <trkpt lat="25.4637840" lon="-100.9381730">
        <ele>1493.3</ele>
        <time>2022-08-20T17:25:47Z</time>
      </trkpt>
      <trkpt lat="25.4638610" lon="-100.9381970">
        <ele>1493.2</ele>
        <time>2022-08-20T17:25:48Z</time>
      </trkpt>
      <trkpt lat="25.4639360" lon="-100.9382230">
        <ele>1493.1</ele>
        <time>2022-08-20T17:25:49Z</time>
      </trkpt>
      <trkpt lat="25.4640100" lon="-100.9382510">
        <ele>1493.0</ele>
        <time>2022-08-20T17:25:50Z</time>
      </trkpt>
      <trkpt lat="25.4640850" lon="-100.9382810">
        <ele>1492.9</ele>
        <time>2022-08-20T17:25:51Z</time>
      </trkpt>
      <trkpt lat="25.4641590" lon="-100.9383140">
        <ele>1492.9</ele>
        <time>2022-08-20T17:25:52Z</time>
      </trkpt>
      <trkpt lat="25.4642290" lon="-100.9383490">
        <ele>1492.8</ele>
        <time>2022-08-20T17:25:53Z</time>
      </trkpt>
      <trkpt lat="25.4642980" lon="-100.9383890">
        <ele>1492.7</ele>
        <time>2022-08-20T17:25:54Z</time>
      </trkpt>
      <trkpt lat="25.4643660" lon="-100.9384330">
        <ele>1492.5</ele>
        <time>2022-08-20T17:25:55Z</time>
      </trkpt>
      <trkpt lat="25.4644320" lon="-100.9384800">
        <ele>1492.3</ele>
        <time>2022-08-20T17:25:56Z</time>
      </trkpt>
      <trkpt lat="25.4644990" lon="-100.9385330">
        <ele>1492.1</ele>
        <time>2022-08-20T17:25:57Z</time>
      </trkpt>
      <trkpt lat="25.4645640" lon="-100.9385920">
        <ele>1491.9</ele>
        <time>2022-08-20T17:25:58Z</time>
      </trkpt>
      <trkpt lat="25.4646250" lon="-100.9386550">
        <ele>1491.7</ele>
        <time>2022-08-20T17:25:59Z</time>
      </trkpt>
      <trkpt lat="25.4646850" lon="-100.9387210">
        <ele>1491.6</ele>
        <time>2022-08-20T17:26:00Z</time>
      </trkpt>
      <trkpt lat="25.4647450" lon="-100.9387870">
        <ele>1491.4</ele>
        <time>2022-08-20T17:26:01Z</time>
      </trkpt>
      <trkpt lat="25.4648030" lon="-100.9388570">
        <ele>1491.3</ele>
        <time>2022-08-20T17:26:02Z</time>
      </trkpt>
      <trkpt lat="25.4648590" lon="-100.9389320">
        <ele>1491.1</ele>
        <time>2022-08-20T17:26:03Z</time>
      </trkpt>
      <trkpt lat="25.4649080" lon="-100.9390060">
        <ele>1491.1</ele>
        <time>2022-08-20T17:26:04Z</time>
      </trkpt>
      <trkpt lat="25.4649530" lon="-100.9390820">
        <ele>1491.0</ele>
        <time>2022-08-20T17:26:05Z</time>
      </trkpt>
      <trkpt lat="25.4649940" lon="-100.9391600">
        <ele>1490.9</ele>
        <time>2022-08-20T17:26:06Z</time>
      </trkpt>
      <trkpt lat="25.4650320" lon="-100.9392400">
        <ele>1490.7</ele>
        <time>2022-08-20T17:26:07Z</time>
      </trkpt>
      <trkpt lat="25.4650680" lon="-100.9393200">
        <ele>1490.6</ele>
        <time>2022-08-20T17:26:08Z</time>
      </trkpt>
      <trkpt lat="25.4651070" lon="-100.9393990">
        <ele>1490.5</ele>
        <time>2022-08-20T17:26:09Z</time>
      </trkpt>
      <trkpt lat="25.4651460" lon="-100.9394790">
        <ele>1490.3</ele>
        <time>2022-08-20T17:26:10Z</time>
      </trkpt>
      <trkpt lat="25.4651870" lon="-100.9395610">
        <ele>1490.2</ele>
        <time>2022-08-20T17:26:11Z</time>
      </trkpt>
      <trkpt lat="25.4652270" lon="-100.9396430">
        <ele>1490.0</ele>
        <time>2022-08-20T17:26:12Z</time>
      </trkpt>
      <trkpt lat="25.4652650" lon="-100.9397270">
        <ele>1489.8</ele>
        <time>2022-08-20T17:26:13Z</time>
      </trkpt>
      <trkpt lat="25.4653040" lon="-100.9398130">
        <ele>1489.6</ele>
        <time>2022-08-20T17:26:14Z</time>
      </trkpt>
      <trkpt lat="25.4653460" lon="-100.9398990">
        <ele>1489.5</ele>
        <time>2022-08-20T17:26:15Z</time>
      </trkpt>
      <trkpt lat="25.4653880" lon="-100.9399850">
        <ele>1489.4</ele>
        <time>2022-08-20T17:26:16Z</time>
      </trkpt>
      <trkpt lat="25.4654280" lon="-100.9400710">
        <ele>1489.2</ele>
        <time>2022-08-20T17:26:17Z</time>
      </trkpt>
      <trkpt lat="25.4654680" lon="-100.9401550">
        <ele>1489.1</ele>
        <time>2022-08-20T17:26:18Z</time>
      </trkpt>
      <trkpt lat="25.4655070" lon="-100.9402380">
        <ele>1489.0</ele>
        <time>2022-08-20T17:26:19Z</time>
      </trkpt>
      <trkpt lat="25.4655460" lon="-100.9403210">
        <ele>1488.9</ele>
        <time>2022-08-20T17:26:20Z</time>
      </trkpt>
      <trkpt lat="25.4655830" lon="-100.9404060">
        <ele>1488.8</ele>
        <time>2022-08-20T17:26:21Z</time>
      </trkpt>
      <trkpt lat="25.4656170" lon="-100.9404920">
        <ele>1488.6</ele>
        <time>2022-08-20T17:26:22Z</time>
      </trkpt>
      <trkpt lat="25.4656490" lon="-100.9405790">
        <ele>1488.4</ele>
        <time>2022-08-20T17:26:23Z</time>
      </trkpt>
      <trkpt lat="25.4656790" lon="-100.9406680">
        <ele>1488.2</ele>
        <time>2022-08-20T17:26:24Z</time>
      </trkpt>
      <trkpt lat="25.4657060" lon="-100.9407580">
        <ele>1488.0</ele>
        <time>2022-08-20T17:26:25Z</time>
      </trkpt>
      <trkpt lat="25.4657320" lon="-100.9408490">
        <ele>1487.8</ele>
        <time>2022-08-20T17:26:26Z</time>
      </trkpt>
      <trkpt lat="25.4657560" lon="-100.9409420">
        <ele>1487.6</ele>
        <time>2022-08-20T17:26:27Z</time>
      </trkpt>
      <trkpt lat="25.4657770" lon="-100.9410370">
        <ele>1487.4</ele>
        <time>2022-08-20T17:26:28Z</time>
      </trkpt>
      <trkpt lat="25.4657950" lon="-100.9411320">
        <ele>1487.1</ele>
        <time>2022-08-20T17:26:29Z</time>
      </trkpt>
      <trkpt lat="25.4658100" lon="-100.9412260">
        <ele>1486.9</ele>
        <time>2022-08-20T17:26:30Z</time>
      </trkpt>
      <trkpt lat="25.4658230" lon="-100.9413200">
        <ele>1486.8</ele>
        <time>2022-08-20T17:26:31Z</time>
      </trkpt>
      <trkpt lat="25.4658340" lon="-100.9414150">
        <ele>1486.6</ele>
        <time>2022-08-20T17:26:32Z</time>
      </trkpt>
      <trkpt lat="25.4658430" lon="-100.9415110">
        <ele>1486.5</ele>
        <time>2022-08-20T17:26:33Z</time>
      </trkpt>
      <trkpt lat="25.4658480" lon="-100.9416080">
        <ele>1486.4</ele>
        <time>2022-08-20T17:26:34Z</time>
      </trkpt>
      <trkpt lat="25.4658500" lon="-100.9417050">
        <ele>1486.3</ele>
        <time>2022-08-20T17:26:35Z</time>
      </trkpt>
      <trkpt lat="25.4658480" lon="-100.9418010">
        <ele>1486.2</ele>
        <time>2022-08-20T17:26:36Z</time>
      </trkpt>
      <trkpt lat="25.4658440" lon="-100.9418970">
        <ele>1486.1</ele>
        <time>2022-08-20T17:26:37Z</time>
      </trkpt>
      <trkpt lat="25.4658390" lon="-100.9419940">
        <ele>1486.0</ele>
        <time>2022-08-20T17:26:38Z</time>
      </trkpt>
      <trkpt lat="25.4658300" lon="-100.9420910">
        <ele>1485.8</ele>
        <time>2022-08-20T17:26:39Z</time>
      </trkpt>
      <trkpt lat="25.4658180" lon="-100.9421880">
        <ele>1485.6</ele>
        <time>2022-08-20T17:26:40Z</time>
      </trkpt>
      <trkpt lat="25.4658040" lon="-100.9422840">
        <ele>1485.5</ele>
        <time>2022-08-20T17:26:41Z</time>
      </trkpt>
      <trkpt lat="25.4657850" lon="-100.9423820">
        <ele>1485.3</ele>
        <time>2022-08-20T17:26:42Z</time>
      </trkpt>
      <trkpt lat="25.4657630" lon="-100.9424800">
        <ele>1485.2</ele>
        <time>2022-08-20T17:26:43Z</time>
      </trkpt>
      <trkpt lat="25.4657390" lon="-100.9425750">
        <ele>1485.1</ele>
        <time>2022-08-20T17:26:44Z</time>
      </trkpt>
      <trkpt lat="25.4657120" lon="-100.9426690">
        <ele>1484.9</ele>
        <time>2022-08-20T17:26:45Z</time>
      </trkpt>
      <trkpt lat="25.4656820" lon="-100.9427630">
        <ele>1484.8</ele>
        <time>2022-08-20T17:26:46Z</time>
      </trkpt>
      <trkpt lat="25.4656470" lon="-100.9428570">
        <ele>1484.6</ele>
        <time>2022-08-20T17:26:47Z</time>
      </trkpt>
      <trkpt lat="25.4656100" lon="-100.9429490">
        <ele>1484.4</ele>
        <time>2022-08-20T17:26:48Z</time>
      </trkpt>
      <trkpt lat="25.4655710" lon="-100.9430390">
        <ele>1484.2</ele>
        <time>2022-08-20T17:26:49Z</time>
      </trkpt>
      <trkpt lat="25.4655290" lon="-100.9431280">
        <ele>1484.0</ele>
        <time>2022-08-20T17:26:50Z</time>
      </trkpt>
      <trkpt lat="25.4654840" lon="-100.9432180">
        <ele>1483.9</ele>
        <time>2022-08-20T17:26:51Z</time>
      </trkpt>
      <trkpt lat="25.4654370" lon="-100.9433080">
        <ele>1483.7</ele>
        <time>2022-08-20T17:26:52Z</time>
      </trkpt>
      <trkpt lat="25.4653860" lon="-100.9433980">
        <ele>1483.6</ele>
        <time>2022-08-20T17:26:53Z</time>
      </trkpt>
      <trkpt lat="25.4653380" lon="-100.9434830">
        <ele>1483.4</ele>
        <time>2022-08-20T17:26:54Z</time>
      </trkpt>
      <trkpt lat="25.4652880" lon="-100.9435670">
        <ele>1483.3</ele>
        <time>2022-08-20T17:26:55Z</time>
      </trkpt>
      <trkpt lat="25.4652310" lon="-100.9436480">
        <ele>1483.3</ele>
        <time>2022-08-20T17:26:56Z</time>
      </trkpt>
      <trkpt lat="25.4651700" lon="-100.9437260">
        <ele>1483.3</ele>
        <time>2022-08-20T17:26:57Z</time>
      </trkpt>
      <trkpt lat="25.4651070" lon="-100.9438010">
        <ele>1483.4</ele>
        <time>2022-08-20T17:26:58Z</time>
      </trkpt>
      <trkpt lat="25.4650400" lon="-100.9438730">
        <ele>1483.5</ele>
        <time>2022-08-20T17:26:59Z</time>
      </trkpt>
      <trkpt lat="25.4649750" lon="-100.9439370">
        <ele>1483.6</ele>
        <time>2022-08-20T17:27:00Z</time>
      </trkpt>
      <trkpt lat="25.4649060" lon="-100.9439970">
        <ele>1483.8</ele>
        <time>2022-08-20T17:27:01Z</time>
      </trkpt>
      <trkpt lat="25.4648360" lon="-100.9440560">
        <ele>1483.9</ele>
        <time>2022-08-20T17:27:02Z</time>
      </trkpt>
      <trkpt lat="25.4647660" lon="-100.9441150">
        <ele>1484.0</ele>
        <time>2022-08-20T17:27:03Z</time>
      </trkpt>
      <trkpt lat="25.4646960" lon="-100.9441700">
        <ele>1484.0</ele>
        <time>2022-08-20T17:27:04Z</time>
      </trkpt>
      <trkpt lat="25.4646250" lon="-100.9442240">
        <ele>1484.1</ele>
        <time>2022-08-20T17:27:05Z</time>
      </trkpt>
      <trkpt lat="25.4645510" lon="-100.9442800">
        <ele>1484.2</ele>
        <time>2022-08-20T17:27:06Z</time>
      </trkpt>
      <trkpt lat="25.4644750" lon="-100.9443390">
        <ele>1484.3</ele>
        <time>2022-08-20T17:27:07Z</time>
      </trkpt>
      <trkpt lat="25.4644010" lon="-100.9443970">
        <ele>1484.4</ele>
        <time>2022-08-20T17:27:08Z</time>
      </trkpt>
      <trkpt lat="25.4643280" lon="-100.9444530">
        <ele>1484.4</ele>
        <time>2022-08-20T17:27:09Z</time>
      </trkpt>
      <trkpt lat="25.4642570" lon="-100.9445090">
        <ele>1484.5</ele>
        <time>2022-08-20T17:27:10Z</time>
      </trkpt>
      <trkpt lat="25.4641880" lon="-100.9445640">
        <ele>1484.6</ele>
        <time>2022-08-20T17:27:11Z</time>
      </trkpt>
      <trkpt lat="25.4641200" lon="-100.9446150">
        <ele>1484.7</ele>
        <time>2022-08-20T17:27:12Z</time>
      </trkpt>
      <trkpt lat="25.4640540" lon="-100.9446660">
        <ele>1484.8</ele>
        <time>2022-08-20T17:27:13Z</time>
      </trkpt>
      <trkpt lat="25.4639870" lon="-100.9447170">
        <ele>1484.8</ele>
        <time>2022-08-20T17:27:14Z</time>
      </trkpt>
      <trkpt lat="25.4639190" lon="-100.9447660">
        <ele>1484.9</ele>
        <time>2022-08-20T17:27:15Z</time>
      </trkpt>
      <trkpt lat="25.4638510" lon="-100.9448170">
        <ele>1485.0</ele>
        <time>2022-08-20T17:27:16Z</time>
      </trkpt>
      <trkpt lat="25.4637860" lon="-100.9448670">
        <ele>1485.1</ele>
        <time>2022-08-20T17:27:17Z</time>
      </trkpt>
      <trkpt lat="25.4637230" lon="-100.9449170">
        <ele>1485.2</ele>
        <time>2022-08-20T17:27:18Z</time>
      </trkpt>
      <trkpt lat="25.4636580" lon="-100.9449650">
        <ele>1485.3</ele>
        <time>2022-08-20T17:27:19Z</time>
      </trkpt>
      <trkpt lat="25.4635920" lon="-100.9450130">
        <ele>1485.5</ele>
        <time>2022-08-20T17:27:20Z</time>
      </trkpt>
      <trkpt lat="25.4635280" lon="-100.9450620">
        <ele>1485.6</ele>
        <time>2022-08-20T17:27:21Z</time>
      </trkpt>
      <trkpt lat="25.4634670" lon="-100.9451120">
        <ele>1485.7</ele>
        <time>2022-08-20T17:27:22Z</time>
      </trkpt>
      <trkpt lat="25.4634070" lon="-100.9451640">
        <ele>1485.9</ele>
        <time>2022-08-20T17:27:23Z</time>
      </trkpt>
      <trkpt lat="25.4633500" lon="-100.9452170">
        <ele>1486.0</ele>
        <time>2022-08-20T17:27:24Z</time>
      </trkpt>
      <trkpt lat="25.4632950" lon="-100.9452720">
        <ele>1486.2</ele>
        <time>2022-08-20T17:27:25Z</time>
      </trkpt>
      <trkpt lat="25.4632410" lon="-100.9453270">
        <ele>1486.4</ele>
        <time>2022-08-20T17:27:26Z</time>
      </trkpt>
      <trkpt lat="25.4631860" lon="-100.9453810">
        <ele>1486.5</ele>
        <time>2022-08-20T17:27:27Z</time>
      </trkpt>
      <trkpt lat="25.4631320" lon="-100.9454350">
        <ele>1486.7</ele>
        <time>2022-08-20T17:27:28Z</time>
      </trkpt>
      <trkpt lat="25.4630790" lon="-100.9454890">
        <ele>1486.9</ele>
        <time>2022-08-20T17:27:29Z</time>
      </trkpt>
      <trkpt lat="25.4630290" lon="-100.9455420">
        <ele>1487.0</ele>
        <time>2022-08-20T17:27:30Z</time>
      </trkpt>
      <trkpt lat="25.4629800" lon="-100.9455960">
        <ele>1487.1</ele>
        <time>2022-08-20T17:27:31Z</time>
      </trkpt>
      <trkpt lat="25.4629300" lon="-100.9456500">
        <ele>1487.1</ele>
        <time>2022-08-20T17:27:32Z</time>
      </trkpt>
      <trkpt lat="25.4628820" lon="-100.9457000">
        <ele>1487.2</ele>
        <time>2022-08-20T17:27:33Z</time>
      </trkpt>
      <trkpt lat="25.4628360" lon="-100.9457500">
        <ele>1487.3</ele>
        <time>2022-08-20T17:27:34Z</time>
      </trkpt>
      <trkpt lat="25.4627910" lon="-100.9458010">
        <ele>1487.4</ele>
        <time>2022-08-20T17:27:35Z</time>
      </trkpt>
      <trkpt lat="25.4627460" lon="-100.9458530">
        <ele>1487.5</ele>
        <time>2022-08-20T17:27:36Z</time>
      </trkpt>
      <trkpt lat="25.4627000" lon="-100.9459040">
        <ele>1487.6</ele>
        <time>2022-08-20T17:27:37Z</time>
      </trkpt>
      <trkpt lat="25.4626530" lon="-100.9459550">
        <ele>1487.7</ele>
        <time>2022-08-20T17:27:38Z</time>
      </trkpt>
      <trkpt lat="25.4626060" lon="-100.9460030">
        <ele>1487.8</ele>
        <time>2022-08-20T17:27:39Z</time>
      </trkpt>
      <trkpt lat="25.4625600" lon="-100.9460520">
        <ele>1487.9</ele>
        <time>2022-08-20T17:27:40Z</time>
      </trkpt>
      <trkpt lat="25.4625140" lon="-100.9461020">
        <ele>1488.0</ele>
        <time>2022-08-20T17:27:41Z</time>
      </trkpt>
      <trkpt lat="25.4624680" lon="-100.9461510">
        <ele>1488.1</ele>
        <time>2022-08-20T17:27:42Z</time>
      </trkpt>
      <trkpt lat="25.4624230" lon="-100.9462000">
        <ele>1488.2</ele>
        <time>2022-08-20T17:27:43Z</time>
      </trkpt>
      <trkpt lat="25.4623790" lon="-100.9462500">
        <ele>1488.3</ele>
        <time>2022-08-20T17:27:44Z</time>
      </trkpt>
      <trkpt lat="25.4623350" lon="-100.9462990">
        <ele>1488.4</ele>
        <time>2022-08-20T17:27:45Z</time>
      </trkpt>
      <trkpt lat="25.4622910" lon="-100.9463470">
        <ele>1488.6</ele>
        <time>2022-08-20T17:27:46Z</time>
      </trkpt>
      <trkpt lat="25.4622480" lon="-100.9463950">
        <ele>1488.7</ele>
        <time>2022-08-20T17:27:47Z</time>
      </trkpt>
      <trkpt lat="25.4622050" lon="-100.9464450">
        <ele>1488.8</ele>
        <time>2022-08-20T17:27:48Z</time>
      </trkpt>
      <trkpt lat="25.4621620" lon="-100.9464960">
        <ele>1488.9</ele>
        <time>2022-08-20T17:27:49Z</time>
      </trkpt>
      <trkpt lat="25.4621180" lon="-100.9465470">
        <ele>1489.0</ele>
        <time>2022-08-20T17:27:50Z</time>
      </trkpt>
      <trkpt lat="25.4620730" lon="-100.9465980">
        <ele>1489.0</ele>
        <time>2022-08-20T17:27:51Z</time>
      </trkpt>
      <trkpt lat="25.4620260" lon="-100.9466480">
        <ele>1489.1</ele>
        <time>2022-08-20T17:27:52Z</time>
      </trkpt>
      <trkpt lat="25.4619790" lon="-100.9466990">
        <ele>1489.3</ele>
        <time>2022-08-20T17:27:53Z</time>
      </trkpt>
      <trkpt lat="25.4619310" lon="-100.9467510">
        <ele>1489.4</ele>
        <time>2022-08-20T17:27:54Z</time>
      </trkpt>
      <trkpt lat="25.4618840" lon="-100.9468040">
        <ele>1489.5</ele>
        <time>2022-08-20T17:27:55Z</time>
      </trkpt>
      <trkpt lat="25.4618370" lon="-100.9468570">
        <ele>1489.6</ele>
        <time>2022-08-20T17:27:56Z</time>
      </trkpt>
      <trkpt lat="25.4617900" lon="-100.9469090">
        <ele>1489.7</ele>
        <time>2022-08-20T17:27:57Z</time>
      </trkpt>
      <trkpt lat="25.4617400" lon="-100.9469600">
        <ele>1489.8</ele>
        <time>2022-08-20T17:27:58Z</time>
      </trkpt>
      <trkpt lat="25.4616900" lon="-100.9470100">
        <ele>1489.9</ele>
        <time>2022-08-20T17:27:59Z</time>
      </trkpt>
      <trkpt lat="25.4616430" lon="-100.9470600">
        <ele>1490.0</ele>
        <time>2022-08-20T17:28:00Z</time>
      </trkpt>
      <trkpt lat="25.4615980" lon="-100.9471110">
        <ele>1490.1</ele>
        <time>2022-08-20T17:28:01Z</time>
      </trkpt>
      <trkpt lat="25.4615540" lon="-100.9471660">
        <ele>1490.2</ele>
        <time>2022-08-20T17:28:02Z</time>
      </trkpt>
      <trkpt lat="25.4615150" lon="-100.9472230">
        <ele>1490.4</ele>
        <time>2022-08-20T17:28:03Z</time>
      </trkpt>
      <trkpt lat="25.4614770" lon="-100.9472830">
        <ele>1490.5</ele>
        <time>2022-08-20T17:28:04Z</time>
      </trkpt>
      <trkpt lat="25.4614440" lon="-100.9473460">
        <ele>1490.6</ele>
        <time>2022-08-20T17:28:05Z</time>
      </trkpt>
      <trkpt lat="25.4614140" lon="-100.9474110">
        <ele>1490.7</ele>
        <time>2022-08-20T17:28:06Z</time>
      </trkpt>
      <trkpt lat="25.4613880" lon="-100.9474790">
        <ele>1490.9</ele>
        <time>2022-08-20T17:28:07Z</time>
      </trkpt>
      <trkpt lat="25.4613660" lon="-100.9475470">
        <ele>1491.1</ele>
        <time>2022-08-20T17:28:08Z</time>
      </trkpt>
      <trkpt lat="25.4613480" lon="-100.9476140">
        <ele>1491.2</ele>
        <time>2022-08-20T17:28:09Z</time>
      </trkpt>
      <trkpt lat="25.4613330" lon="-100.9476810">
        <ele>1491.4</ele>
        <time>2022-08-20T17:28:10Z</time>
      </trkpt>
      <trkpt lat="25.4613210" lon="-100.9477500">
        <ele>1491.6</ele>
        <time>2022-08-20T17:28:11Z</time>
      </trkpt>
      <trkpt lat="25.4613140" lon="-100.9478200">
        <ele>1491.7</ele>
        <time>2022-08-20T17:28:12Z</time>
      </trkpt>
      <trkpt lat="25.4613130" lon="-100.9478920">
        <ele>1491.9</ele>
        <time>2022-08-20T17:28:13Z</time>
      </trkpt>
      <trkpt lat="25.4613140" lon="-100.9479620">
        <ele>1492.0</ele>
        <time>2022-08-20T17:28:14Z</time>
      </trkpt>
      <trkpt lat="25.4613190" lon="-100.9480310">
        <ele>1492.1</ele>
        <time>2022-08-20T17:28:15Z</time>
      </trkpt>
      <trkpt lat="25.4613270" lon="-100.9481030">
        <ele>1492.2</ele>
        <time>2022-08-20T17:28:16Z</time>
      </trkpt>
      <trkpt lat="25.4613380" lon="-100.9481740">
        <ele>1492.3</ele>
        <time>2022-08-20T17:28:17Z</time>
      </trkpt>
      <trkpt lat="25.4613510" lon="-100.9482430">
        <ele>1492.4</ele>
        <time>2022-08-20T17:28:18Z</time>
      </trkpt>
      <trkpt lat="25.4613680" lon="-100.9483100">
        <ele>1492.5</ele>
        <time>2022-08-20T17:28:19Z</time>
      </trkpt>
      <trkpt lat="25.4613880" lon="-100.9483760">
        <ele>1492.6</ele>
        <time>2022-08-20T17:28:20Z</time>
      </trkpt>
      <trkpt lat="25.4614100" lon="-100.9484430">
        <ele>1492.6</ele>
        <time>2022-08-20T17:28:21Z</time>
      </trkpt>
      <trkpt lat="25.4614350" lon="-100.9485100">
        <ele>1492.7</ele>
        <time>2022-08-20T17:28:22Z</time>
      </trkpt>
      <trkpt lat="25.4614640" lon="-100.9485750">
        <ele>1492.8</ele>
        <time>2022-08-20T17:28:23Z</time>
      </trkpt>
      <trkpt lat="25.4614960" lon="-100.9486380">
        <ele>1492.8</ele>
        <time>2022-08-20T17:28:24Z</time>
      </trkpt>
      <trkpt lat="25.4615310" lon="-100.9487000">
        <ele>1492.9</ele>
        <time>2022-08-20T17:28:25Z</time>
      </trkpt>
      <trkpt lat="25.4615670" lon="-100.9487590">
        <ele>1493.0</ele>
        <time>2022-08-20T17:28:26Z</time>
      </trkpt>
      <trkpt lat="25.4616040" lon="-100.9488110">
        <ele>1493.0</ele>
        <time>2022-08-20T17:28:27Z</time>
      </trkpt>
      <trkpt lat="25.4616450" lon="-100.9488580">
        <ele>1493.0</ele>
        <time>2022-08-20T17:28:28Z</time>
      </trkpt>
      <trkpt lat="25.4616900" lon="-100.9489040">
        <ele>1493.0</ele>
        <time>2022-08-20T17:28:29Z</time>
      </trkpt>
      <trkpt lat="25.4617400" lon="-100.9489490">
        <ele>1493.0</ele>
        <time>2022-08-20T17:28:30Z</time>
      </trkpt>
      <trkpt lat="25.4617920" lon="-100.9489930">
        <ele>1493.0</ele>
        <time>2022-08-20T17:28:31Z</time>
      </trkpt>
      <trkpt lat="25.4618430" lon="-100.9490350">
        <ele>1493.0</ele>
        <time>2022-08-20T17:28:32Z</time>
      </trkpt>
      <trkpt lat="25.4618970" lon="-100.9490790">
        <ele>1493.0</ele>
        <time>2022-08-20T17:28:33Z</time>
      </trkpt>
      <trkpt lat="25.4619500" lon="-100.9491240">
        <ele>1493.1</ele>
        <time>2022-08-20T17:28:34Z</time>
      </trkpt>
      <trkpt lat="25.4620020" lon="-100.9491670">
        <ele>1493.1</ele>
        <time>2022-08-20T17:28:35Z</time>
      </trkpt>
      <trkpt lat="25.4620520" lon="-100.9492080">
        <ele>1493.2</ele>
        <time>2022-08-20T17:28:36Z</time>
      </trkpt>
      <trkpt lat="25.4620980" lon="-100.9492570">
        <ele>1493.3</ele>
        <time>2022-08-20T17:28:37Z</time>
      </trkpt>
      <trkpt lat="25.4621440" lon="-100.9493070">
        <ele>1493.4</ele>
        <time>2022-08-20T17:28:38Z</time>
      </trkpt>
      <trkpt lat="25.4621930" lon="-100.9493500">
        <ele>1493.4</ele>
        <time>2022-08-20T17:28:39Z</time>
      </trkpt>
      <trkpt lat="25.4622410" lon="-100.9493930">
        <ele>1493.4</ele>
        <time>2022-08-20T17:28:40Z</time>
      </trkpt>
      <trkpt lat="25.4622870" lon="-100.9494410">
        <ele>1493.5</ele>
        <time>2022-08-20T17:28:41Z</time>
      </trkpt>
      <trkpt lat="25.4623330" lon="-100.9494910">
        <ele>1493.5</ele>
        <time>2022-08-20T17:28:42Z</time>
      </trkpt>
      <trkpt lat="25.4623800" lon="-100.9495410">
        <ele>1493.5</ele>
        <time>2022-08-20T17:28:43Z</time>
      </trkpt>
      <trkpt lat="25.4624280" lon="-100.9495880">
        <ele>1493.5</ele>
        <time>2022-08-20T17:28:44Z</time>
      </trkpt>
      <trkpt lat="25.4624780" lon="-100.9496340">
        <ele>1493.5</ele>
        <time>2022-08-20T17:28:45Z</time>
      </trkpt>
      <trkpt lat="25.4625260" lon="-100.9496860">
        <ele>1493.6</ele>
        <time>2022-08-20T17:28:46Z</time>
      </trkpt>
      <trkpt lat="25.4625700" lon="-100.9497440">
        <ele>1493.6</ele>
        <time>2022-08-20T17:28:47Z</time>
      </trkpt>
      <trkpt lat="25.4626120" lon="-100.9498050">
        <ele>1493.6</ele>
        <time>2022-08-20T17:28:48Z</time>
      </trkpt>
      <trkpt lat="25.4626490" lon="-100.9498690">
        <ele>1493.5</ele>
        <time>2022-08-20T17:28:49Z</time>
      </trkpt>
      <trkpt lat="25.4626840" lon="-100.9499330">
        <ele>1493.4</ele>
        <time>2022-08-20T17:28:50Z</time>
      </trkpt>
      <trkpt lat="25.4627200" lon="-100.9499970">
        <ele>1493.4</ele>
        <time>2022-08-20T17:28:51Z</time>
      </trkpt>
      <trkpt lat="25.4627580" lon="-100.9500620">
        <ele>1493.3</ele>
        <time>2022-08-20T17:28:52Z</time>
      </trkpt>
      <trkpt lat="25.4627970" lon="-100.9501290">
        <ele>1493.2</ele>
        <time>2022-08-20T17:28:53Z</time>
      </trkpt>
      <trkpt lat="25.4628370" lon="-100.9501960">
        <ele>1493.2</ele>
        <time>2022-08-20T17:28:54Z</time>
      </trkpt>
      <trkpt lat="25.4628780" lon="-100.9502620">
        <ele>1493.1</ele>
        <time>2022-08-20T17:28:55Z</time>
      </trkpt>
      <trkpt lat="25.4629170" lon="-100.9503270">
        <ele>1493.1</ele>
        <time>2022-08-20T17:28:56Z</time>
      </trkpt>
      <trkpt lat="25.4629550" lon="-100.9503910">
        <ele>1493.1</ele>
        <time>2022-08-20T17:28:57Z</time>
      </trkpt>
      <trkpt lat="25.4629940" lon="-100.9504540">
        <ele>1493.1</ele>
        <time>2022-08-20T17:28:58Z</time>
      </trkpt>
      <trkpt lat="25.4630320" lon="-100.9505170">
        <ele>1493.1</ele>
        <time>2022-08-20T17:28:59Z</time>
      </trkpt>
      <trkpt lat="25.4630700" lon="-100.9505800">
        <ele>1493.1</ele>
        <time>2022-08-20T17:29:00Z</time>
      </trkpt>
      <trkpt lat="25.4631060" lon="-100.9506450">
        <ele>1493.1</ele>
        <time>2022-08-20T17:29:01Z</time>
      </trkpt>
      <trkpt lat="25.4631410" lon="-100.9507110">
        <ele>1493.2</ele>
        <time>2022-08-20T17:29:02Z</time>
      </trkpt>
      <trkpt lat="25.4631780" lon="-100.9507780">
        <ele>1493.2</ele>
        <time>2022-08-20T17:29:03Z</time>
      </trkpt>
      <trkpt lat="25.4632150" lon="-100.9508440">
        <ele>1493.3</ele>
        <time>2022-08-20T17:29:04Z</time>
      </trkpt>
      <trkpt lat="25.4632520" lon="-100.9509090">
        <ele>1493.3</ele>
        <time>2022-08-20T17:29:05Z</time>
      </trkpt>
      <trkpt lat="25.4632870" lon="-100.9509730">
        <ele>1493.3</ele>
        <time>2022-08-20T17:29:06Z</time>
      </trkpt>
      <trkpt lat="25.4633240" lon="-100.9510380">
        <ele>1493.4</ele>
        <time>2022-08-20T17:29:07Z</time>
      </trkpt>
      <trkpt lat="25.4633630" lon="-100.9511010">
        <ele>1493.4</ele>
        <time>2022-08-20T17:29:08Z</time>
      </trkpt>
      <trkpt lat="25.4634020" lon="-100.9511650">
        <ele>1493.4</ele>
        <time>2022-08-20T17:29:09Z</time>
      </trkpt>
      <trkpt lat="25.4634400" lon="-100.9512270">
        <ele>1493.5</ele>
        <time>2022-08-20T17:29:10Z</time>
      </trkpt>
      <trkpt lat="25.4634780" lon="-100.9512890">
        <ele>1493.5</ele>
        <time>2022-08-20T17:29:11Z</time>
      </trkpt>
      <trkpt lat="25.4635170" lon="-100.9513480">
        <ele>1493.5</ele>
        <time>2022-08-20T17:29:12Z</time>
      </trkpt>
      <trkpt lat="25.4635520" lon="-100.9514040">
        <ele>1493.6</ele>
        <time>2022-08-20T17:29:13Z</time>
      </trkpt>
      <trkpt lat="25.4635870" lon="-100.9514580">
        <ele>1493.6</ele>
        <time>2022-08-20T17:29:14Z</time>
      </trkpt>
      <trkpt lat="25.4636200" lon="-100.9515120">
        <ele>1493.6</ele>
        <time>2022-08-20T17:29:15Z</time>
      </trkpt>
      <trkpt lat="25.4636510" lon="-100.9515650">
        <ele>1493.6</ele>
        <time>2022-08-20T17:29:16Z</time>
      </trkpt>
      <trkpt lat="25.4636790" lon="-100.9516160">
        <ele>1493.6</ele>
        <time>2022-08-20T17:29:17Z</time>
      </trkpt>
      <trkpt lat="25.4637070" lon="-100.9516640">
        <ele>1493.7</ele>
        <time>2022-08-20T17:29:18Z</time>
      </trkpt>
      <trkpt lat="25.4637290" lon="-100.9517060">
        <ele>1493.7</ele>
        <time>2022-08-20T17:29:19Z</time>
      </trkpt>
      <trkpt lat="25.4637490" lon="-100.9517370">
        <ele>1493.7</ele>
        <time>2022-08-20T17:29:20Z</time>
      </trkpt>
      <trkpt lat="25.4637570" lon="-100.9517480">
        <ele>1493.7</ele>
        <time>2022-08-20T17:29:21Z</time>
      </trkpt>
      <trkpt lat="25.4637660" lon="-100.9517630">
        <ele>1493.7</ele>
        <time>2022-08-20T17:29:22Z</time>
      </trkpt>
      <trkpt lat="25.4637670" lon="-100.9517710">
        <ele>1493.7</ele>
        <time>2022-08-20T17:29:23Z</time>
      </trkpt>
      <trkpt lat="25.4637680" lon="-100.9517710">
        <ele>1493.7</ele>
        <time>2022-08-20T17:29:24Z</time>
      </trkpt>
      <trkpt lat="25.4637680" lon="-100.9517710">
        <ele>1493.7</ele>
        <time>2022-08-20T17:29:25Z</time>
      </trkpt>
      <trkpt lat="25.4637680" lon="-100.9517720">
        <ele>1493.7</ele>
        <time>2022-08-20T17:29:26Z</time>
      </trkpt>
      <trkpt lat="25.4637680" lon="-100.9517720">
        <ele>1493.7</ele>
        <time>2022-08-20T17:29:27Z</time>
      </trkpt>
      <trkpt lat="25.4637680" lon="-100.9517730">
        <ele>1493.7</ele>
        <time>2022-08-20T17:29:28Z</time>
      </trkpt>
      <trkpt lat="25.4637700" lon="-100.9517720">
        <ele>1493.7</ele>
        <time>2022-08-20T17:29:29Z</time>
      </trkpt>
      <trkpt lat="25.4637720" lon="-100.9517710">
        <ele>1493.7</ele>
        <time>2022-08-20T17:29:30Z</time>
      </trkpt>
      <trkpt lat="25.4637730" lon="-100.9517720">
        <ele>1493.7</ele>
        <time>2022-08-20T17:29:31Z</time>
      </trkpt>
      <trkpt lat="25.4637740" lon="-100.9517720">
        <ele>1493.7</ele>
        <time>2022-08-20T17:29:32Z</time>
      </trkpt>
      <trkpt lat="25.4637740" lon="-100.9517720">
        <ele>1493.7</ele>
        <time>2022-08-20T17:29:33Z</time>
      </trkpt>
      <trkpt lat="25.4637750" lon="-100.9517720">
        <ele>1493.7</ele>
        <time>2022-08-20T17:29:34Z</time>
      </trkpt>
      <trkpt lat="25.4637760" lon="-100.9517720">
        <ele>1493.7</ele>
        <time>2022-08-20T17:29:35Z</time>
      </trkpt>
      <trkpt lat="25.4637750" lon="-100.9517720">
        <ele>1493.7</ele>
        <time>2022-08-20T17:29:36Z</time>
      </trkpt>
      <trkpt lat="25.4637750" lon="-100.9517720">
        <ele>1493.7</ele>
        <time>2022-08-20T17:29:37Z</time>
      </trkpt>
      <trkpt lat="25.4637760" lon="-100.9517720">
        <ele>1493.7</ele>
        <time>2022-08-20T17:29:38Z</time>
      </trkpt>
      <trkpt lat="25.4637750" lon="-100.9517710">
        <ele>1493.7</ele>
        <time>2022-08-20T17:29:39Z</time>
      </trkpt>
      <trkpt lat="25.4637750" lon="-100.9517710">
        <ele>1493.7</ele>
        <time>2022-08-20T17:29:40Z</time>
      </trkpt>
      <trkpt lat="25.4637760" lon="-100.9517700">
        <ele>1493.7</ele>
        <time>2022-08-20T17:29:41Z</time>
      </trkpt>
      <trkpt lat="25.4637760" lon="-100.9517700">
        <ele>1493.7</ele>
        <time>2022-08-20T17:29:42Z</time>
      </trkpt>
      <trkpt lat="25.4637720" lon="-100.9517700">
        <ele>1493.7</ele>
        <time>2022-08-20T17:29:43Z</time>
      </trkpt>
      <trkpt lat="25.4637700" lon="-100.9517710">
        <ele>1493.7</ele>
        <time>2022-08-20T17:29:44Z</time>
      </trkpt>
      <trkpt lat="25.4637690" lon="-100.9517710">
        <ele>1493.7</ele>
        <time>2022-08-20T17:29:45Z</time>
      </trkpt>
      <trkpt lat="25.4637680" lon="-100.9517710">
        <ele>1493.7</ele>
        <time>2022-08-20T17:29:46Z</time>
      </trkpt>
      <trkpt lat="25.4637680" lon="-100.9517710">
        <ele>1493.7</ele>
        <time>2022-08-20T17:29:47Z</time>
      </trkpt>
      <trkpt lat="25.4637680" lon="-100.9517710">
        <ele>1493.7</ele>
        <time>2022-08-20T17:29:48Z</time>
      </trkpt>
      <trkpt lat="25.4637680" lon="-100.9517710">
        <ele>1493.7</ele>
        <time>2022-08-20T17:29:49Z</time>
      </trkpt>
      <trkpt lat="25.4637680" lon="-100.9517710">
        <ele>1493.7</ele>
        <time>2022-08-20T17:29:50Z</time>
      </trkpt>
      <trkpt lat="25.4637680" lon="-100.9517710">
        <ele>1493.7</ele>
        <time>2022-08-20T17:29:51Z</time>
      </trkpt>
      <trkpt lat="25.4637680" lon="-100.9517710">
        <ele>1493.7</ele>
        <time>2022-08-20T17:29:52Z</time>
      </trkpt>
      <trkpt lat="25.4637680" lon="-100.9517710">
        <ele>1493.7</ele>
        <time>2022-08-20T17:29:53Z</time>
      </trkpt>
      <trkpt lat="25.4637680" lon="-100.9517710">
        <ele>1493.7</ele>
        <time>2022-08-20T17:29:54Z</time>
      </trkpt>
      <trkpt lat="25.4637680" lon="-100.9517710">
        <ele>1493.7</ele>
        <time>2022-08-20T17:29:55Z</time>
      </trkpt>
      <trkpt lat="25.4637680" lon="-100.9517710">
        <ele>1493.7</ele>
        <time>2022-08-20T17:29:56Z</time>
      </trkpt>
      <trkpt lat="25.4637680" lon="-100.9517710">
        <ele>1493.7</ele>
        <time>2022-08-20T17:29:57Z</time>
      </trkpt>
      <trkpt lat="25.4637680" lon="-100.9517710">
        <ele>1493.7</ele>
        <time>2022-08-20T17:29:58Z</time>
      </trkpt>
      <trkpt lat="25.4637680" lon="-100.9517710">
        <ele>1493.7</ele>
        <time>2022-08-20T17:29:59Z</time>
      </trkpt>
      <trkpt lat="25.4637680" lon="-100.9517710">
        <ele>1493.7</ele>
        <time>2022-08-20T17:30:00Z</time>
      </trkpt>
      <trkpt lat="25.4637680" lon="-100.9517710">
        <ele>1493.7</ele>
        <time>2022-08-20T17:30:01Z</time>
      </trkpt>
      <trkpt lat="25.4637680" lon="-100.9517710">
        <ele>1493.7</ele>
        <time>2022-08-20T17:30:02Z</time>
      </trkpt>
      <trkpt lat="25.4637680" lon="-100.9517710">
        <ele>1493.7</ele>
        <time>2022-08-20T17:30:03Z</time>
      </trkpt>
      <trkpt lat="25.4637680" lon="-100.9517710">
        <ele>1493.7</ele>
        <time>2022-08-20T17:30:04Z</time>
      </trkpt>
      <trkpt lat="25.4637680" lon="-100.9517710">
        <ele>1493.7</ele>
        <time>2022-08-20T17:30:05Z</time>
      </trkpt>
      <trkpt lat="25.4637680" lon="-100.9517710">
        <ele>1493.7</ele>
        <time>2022-08-20T17:30:06Z</time>
      </trkpt>
      <trkpt lat="25.4637680" lon="-100.9517710">
        <ele>1493.7</ele>
        <time>2022-08-20T17:30:07Z</time>
      </trkpt>
      <trkpt lat="25.4637680" lon="-100.9517710">
        <ele>1493.7</ele>
        <time>2022-08-20T17:30:08Z</time>
      </trkpt>
      <trkpt lat="25.4637680" lon="-100.9517710">
        <ele>1493.7</ele>
        <time>2022-08-20T17:30:09Z</time>
      </trkpt>
      <trkpt lat="25.4637680" lon="-100.9517710">
        <ele>1493.7</ele>
        <time>2022-08-20T17:30:10Z</time>
      </trkpt>
      <trkpt lat="25.4637680" lon="-100.9517710">
        <ele>1493.7</ele>
        <time>2022-08-20T17:30:11Z</time>
      </trkpt>
      <trkpt lat="25.4637680" lon="-100.9517710">
        <ele>1493.7</ele>
        <time>2022-08-20T17:30:12Z</time>
      </trkpt>
      <trkpt lat="25.4637680" lon="-100.9517710">
        <ele>1493.7</ele>
        <time>2022-08-20T17:30:13Z</time>
      </trkpt>
      <trkpt lat="25.4637680" lon="-100.9517710">
        <ele>1493.7</ele>
        <time>2022-08-20T17:30:14Z</time>
      </trkpt>
      <trkpt lat="25.4637680" lon="-100.9517710">
        <ele>1493.7</ele>
        <time>2022-08-20T17:30:15Z</time>
      </trkpt>
      <trkpt lat="25.4637680" lon="-100.9517710">
        <ele>1493.7</ele>
        <time>2022-08-20T17:30:16Z</time>
      </trkpt>
      <trkpt lat="25.4637680" lon="-100.9517710">
        <ele>1493.7</ele>
        <time>2022-08-20T17:30:17Z</time>
      </trkpt>
      <trkpt lat="25.4637680" lon="-100.9517710">
        <ele>1493.7</ele>
        <time>2022-08-20T17:30:18Z</time>
      </trkpt>
      <trkpt lat="25.4637680" lon="-100.9517710">
        <ele>1493.7</ele>
        <time>2022-08-20T17:30:19Z</time>
      </trkpt>
      <trkpt lat="25.4637680" lon="-100.9517710">
        <ele>1493.7</ele>
        <time>2022-08-20T17:30:20Z</time>
      </trkpt>
      <trkpt lat="25.4637680" lon="-100.9517710">
        <ele>1493.7</ele>
        <time>2022-08-20T17:30:21Z</time>
      </trkpt>
      <trkpt lat="25.4637680" lon="-100.9517710">
        <ele>1493.7</ele>
        <time>2022-08-20T17:30:22Z</time>
      </trkpt>
      <trkpt lat="25.4637680" lon="-100.9517710">
        <ele>1493.7</ele>
        <time>2022-08-20T17:30:23Z</time>
      </trkpt>
      <trkpt lat="25.4637690" lon="-100.9517780">
        <ele>1493.7</ele>
        <time>2022-08-20T17:30:24Z</time>
      </trkpt>
      <trkpt lat="25.4637790" lon="-100.9518030">
        <ele>1493.7</ele>
        <time>2022-08-20T17:30:25Z</time>
      </trkpt>
      <trkpt lat="25.4638000" lon="-100.9518430">
        <ele>1493.7</ele>
        <time>2022-08-20T17:30:26Z</time>
      </trkpt>
      <trkpt lat="25.4638600" lon="-100.9519360">
        <ele>1493.5</ele>
        <time>2022-08-20T17:30:28Z</time>
      </trkpt>
      <trkpt lat="25.4638930" lon="-100.9519880">
        <ele>1493.6</ele>
        <time>2022-08-20T17:30:29Z</time>
      </trkpt>
      <trkpt lat="25.4639260" lon="-100.9520420">
        <ele>1493.6</ele>
        <time>2022-08-20T17:30:30Z</time>
      </trkpt>
      <trkpt lat="25.4639540" lon="-100.9520950">
        <ele>1493.7</ele>
        <time>2022-08-20T17:30:31Z</time>
      </trkpt>
      <trkpt lat="25.4639810" lon="-100.9521480">
        <ele>1493.6</ele>
        <time>2022-08-20T17:30:32Z</time>
      </trkpt>
      <trkpt lat="25.4640100" lon="-100.9521990">
        <ele>1493.6</ele>
        <time>2022-08-20T17:30:33Z</time>
      </trkpt>
      <trkpt lat="25.4640400" lon="-100.9522510">
        <ele>1493.5</ele>
        <time>2022-08-20T17:30:34Z</time>
      </trkpt>
      <trkpt lat="25.4640690" lon="-100.9523070">
        <ele>1493.5</ele>
        <time>2022-08-20T17:30:35Z</time>
      </trkpt>
      <trkpt lat="25.4640980" lon="-100.9523630">
        <ele>1493.4</ele>
        <time>2022-08-20T17:30:36Z</time>
      </trkpt>
      <trkpt lat="25.4641300" lon="-100.9524210">
        <ele>1493.4</ele>
        <time>2022-08-20T17:30:37Z</time>
      </trkpt>
      <trkpt lat="25.4641610" lon="-100.9524790">
        <ele>1493.4</ele>
        <time>2022-08-20T17:30:38Z</time>
      </trkpt>
      <trkpt lat="25.4641930" lon="-100.9525370">
        <ele>1493.3</ele>
        <time>2022-08-20T17:30:39Z</time>
      </trkpt>
      <trkpt lat="25.4642260" lon="-100.9525950">
        <ele>1493.3</ele>
        <time>2022-08-20T17:30:40Z</time>
      </trkpt>
      <trkpt lat="25.4642590" lon="-100.9526560">
        <ele>1493.3</ele>
        <time>2022-08-20T17:30:41Z</time>
      </trkpt>
      <trkpt lat="25.4642910" lon="-100.9527210">
        <ele>1493.3</ele>
        <time>2022-08-20T17:30:42Z</time>
      </trkpt>
      <trkpt lat="25.4643250" lon="-100.9527900">
        <ele>1493.2</ele>
        <time>2022-08-20T17:30:43Z</time>
      </trkpt>
      <trkpt lat="25.4643590" lon="-100.9528600">
        <ele>1493.2</ele>
        <time>2022-08-20T17:30:44Z</time>
      </trkpt>
      <trkpt lat="25.4643950" lon="-100.9529290">
        <ele>1493.1</ele>
        <time>2022-08-20T17:30:45Z</time>
      </trkpt>
      <trkpt lat="25.4644320" lon="-100.9529980">
        <ele>1493.1</ele>
        <time>2022-08-20T17:30:46Z</time>
      </trkpt>
      <trkpt lat="25.4644680" lon="-100.9530660">
        <ele>1493.1</ele>
        <time>2022-08-20T17:30:47Z</time>
      </trkpt>
      <trkpt lat="25.4645030" lon="-100.9531330">
        <ele>1493.1</ele>
        <time>2022-08-20T17:30:48Z</time>
      </trkpt>
      <trkpt lat="25.4645390" lon="-100.9532020">
        <ele>1493.1</ele>
        <time>2022-08-20T17:30:49Z</time>
      </trkpt>
      <trkpt lat="25.4645740" lon="-100.9532730">
        <ele>1493.0</ele>
        <time>2022-08-20T17:30:50Z</time>
      </trkpt>
      <trkpt lat="25.4646090" lon="-100.9533440">
        <ele>1493.0</ele>
        <time>2022-08-20T17:30:51Z</time>
      </trkpt>
      <trkpt lat="25.4646450" lon="-100.9534150">
        <ele>1492.9</ele>
        <time>2022-08-20T17:30:52Z</time>
      </trkpt>
      <trkpt lat="25.4646840" lon="-100.9534850">
        <ele>1492.8</ele>
        <time>2022-08-20T17:30:53Z</time>
      </trkpt>
      <trkpt lat="25.4647240" lon="-100.9535570">
        <ele>1492.7</ele>
        <time>2022-08-20T17:30:54Z</time>
      </trkpt>
      <trkpt lat="25.4647640" lon="-100.9536270">
        <ele>1492.7</ele>
        <time>2022-08-20T17:30:55Z</time>
      </trkpt>
      <trkpt lat="25.4648070" lon="-100.9536940">
        <ele>1492.6</ele>
        <time>2022-08-20T17:30:56Z</time>
      </trkpt>
      <trkpt lat="25.4648530" lon="-100.9537550">
        <ele>1492.5</ele>
        <time>2022-08-20T17:30:57Z</time>
      </trkpt>
      <trkpt lat="25.4649020" lon="-100.9538090">
        <ele>1492.4</ele>
        <time>2022-08-20T17:30:58Z</time>
      </trkpt>
      <trkpt lat="25.4649560" lon="-100.9538630">
        <ele>1492.4</ele>
        <time>2022-08-20T17:30:59Z</time>
      </trkpt>
      <trkpt lat="25.4650150" lon="-100.9539190">
        <ele>1492.3</ele>
        <time>2022-08-20T17:31:00Z</time>
      </trkpt>
      <trkpt lat="25.4650750" lon="-100.9539740">
        <ele>1492.3</ele>
        <time>2022-08-20T17:31:01Z</time>
      </trkpt>
      <trkpt lat="25.4651340" lon="-100.9540280">
        <ele>1492.2</ele>
        <time>2022-08-20T17:31:02Z</time>
      </trkpt>
      <trkpt lat="25.4651910" lon="-100.9540810">
        <ele>1492.2</ele>
        <time>2022-08-20T17:31:03Z</time>
      </trkpt>
      <trkpt lat="25.4652480" lon="-100.9541310">
        <ele>1492.1</ele>
        <time>2022-08-20T17:31:04Z</time>
      </trkpt>
      <trkpt lat="25.4653040" lon="-100.9541820">
        <ele>1492.0</ele>
        <time>2022-08-20T17:31:05Z</time>
      </trkpt>
      <trkpt lat="25.4653580" lon="-100.9542340">
        <ele>1492.0</ele>
        <time>2022-08-20T17:31:06Z</time>
      </trkpt>
      <trkpt lat="25.4654140" lon="-100.9542870">
        <ele>1491.9</ele>
        <time>2022-08-20T17:31:07Z</time>
      </trkpt>
      <trkpt lat="25.4654700" lon="-100.9543420">
        <ele>1491.8</ele>
        <time>2022-08-20T17:31:08Z</time>
      </trkpt>
      <trkpt lat="25.4655260" lon="-100.9543970">
        <ele>1491.8</ele>
        <time>2022-08-20T17:31:09Z</time>
      </trkpt>
      <trkpt lat="25.4655830" lon="-100.9544530">
        <ele>1491.7</ele>
        <time>2022-08-20T17:31:10Z</time>
      </trkpt>
      <trkpt lat="25.4656410" lon="-100.9545090">
        <ele>1491.7</ele>
        <time>2022-08-20T17:31:11Z</time>
      </trkpt>
      <trkpt lat="25.4656970" lon="-100.9545630">
        <ele>1491.6</ele>
        <time>2022-08-20T17:31:12Z</time>
      </trkpt>
      <trkpt lat="25.4657510" lon="-100.9546190">
        <ele>1491.6</ele>
        <time>2022-08-20T17:31:13Z</time>
      </trkpt>
      <trkpt lat="25.4658030" lon="-100.9546760">
        <ele>1491.5</ele>
        <time>2022-08-20T17:31:14Z</time>
      </trkpt>
      <trkpt lat="25.4658560" lon="-100.9547300">
        <ele>1491.5</ele>
        <time>2022-08-20T17:31:15Z</time>
      </trkpt>
      <trkpt lat="25.4659080" lon="-100.9547860">
        <ele>1491.5</ele>
        <time>2022-08-20T17:31:16Z</time>
      </trkpt>
      <trkpt lat="25.4659610" lon="-100.9548430">
        <ele>1491.4</ele>
        <time>2022-08-20T17:31:17Z</time>
      </trkpt>
      <trkpt lat="25.4660170" lon="-100.9548980">
        <ele>1491.4</ele>
        <time>2022-08-20T17:31:18Z</time>
      </trkpt>
      <trkpt lat="25.4660760" lon="-100.9549530">
        <ele>1491.4</ele>
        <time>2022-08-20T17:31:19Z</time>
      </trkpt>
      <trkpt lat="25.4661340" lon="-100.9550090">
        <ele>1491.3</ele>
        <time>2022-08-20T17:31:20Z</time>
      </trkpt>
      <trkpt lat="25.4661880" lon="-100.9550660">
        <ele>1491.3</ele>
        <time>2022-08-20T17:31:21Z</time>
      </trkpt>
      <trkpt lat="25.4662410" lon="-100.9551250">
        <ele>1491.3</ele>
        <time>2022-08-20T17:31:22Z</time>
      </trkpt>
      <trkpt lat="25.4662940" lon="-100.9551810">
        <ele>1491.3</ele>
        <time>2022-08-20T17:31:23Z</time>
      </trkpt>
      <trkpt lat="25.4663460" lon="-100.9552380">
        <ele>1491.2</ele>
        <time>2022-08-20T17:31:24Z</time>
      </trkpt>
      <trkpt lat="25.4663960" lon="-100.9552970">
        <ele>1491.2</ele>
        <time>2022-08-20T17:31:25Z</time>
      </trkpt>
      <trkpt lat="25.4664470" lon="-100.9553580">
        <ele>1491.1</ele>
        <time>2022-08-20T17:31:26Z</time>
      </trkpt>
      <trkpt lat="25.4664990" lon="-100.9554170">
        <ele>1491.1</ele>
        <time>2022-08-20T17:31:27Z</time>
      </trkpt>
      <trkpt lat="25.4665510" lon="-100.9554750">
        <ele>1491.0</ele>
        <time>2022-08-20T17:31:28Z</time>
      </trkpt>
      <trkpt lat="25.4666030" lon="-100.9555310">
        <ele>1491.0</ele>
        <time>2022-08-20T17:31:29Z</time>
      </trkpt>
      <trkpt lat="25.4666560" lon="-100.9555900">
        <ele>1491.0</ele>
        <time>2022-08-20T17:31:30Z</time>
      </trkpt>
      <trkpt lat="25.4667080" lon="-100.9556480">
        <ele>1490.9</ele>
        <time>2022-08-20T17:31:31Z</time>
      </trkpt>
      <trkpt lat="25.4667610" lon="-100.9557060">
        <ele>1490.8</ele>
        <time>2022-08-20T17:31:32Z</time>
      </trkpt>
      <trkpt lat="25.4668150" lon="-100.9557650">
        <ele>1490.8</ele>
        <time>2022-08-20T17:31:33Z</time>
      </trkpt>
      <trkpt lat="25.4668720" lon="-100.9558230">
        <ele>1490.7</ele>
        <time>2022-08-20T17:31:34Z</time>
      </trkpt>
      <trkpt lat="25.4669300" lon="-100.9558780">
        <ele>1490.7</ele>
        <time>2022-08-20T17:31:35Z</time>
      </trkpt>
      <trkpt lat="25.4669890" lon="-100.9559360">
        <ele>1490.7</ele>
        <time>2022-08-20T17:31:36Z</time>
      </trkpt>
      <trkpt lat="25.4670430" lon="-100.9559950">
        <ele>1490.6</ele>
        <time>2022-08-20T17:31:37Z</time>
      </trkpt>
      <trkpt lat="25.4670950" lon="-100.9560570">
        <ele>1490.5</ele>
        <time>2022-08-20T17:31:38Z</time>
      </trkpt>
      <trkpt lat="25.4671500" lon="-100.9561210">
        <ele>1490.4</ele>
        <time>2022-08-20T17:31:39Z</time>
      </trkpt>
      <trkpt lat="25.4672050" lon="-100.9561850">
        <ele>1490.4</ele>
        <time>2022-08-20T17:31:40Z</time>
      </trkpt>
      <trkpt lat="25.4672600" lon="-100.9562460">
        <ele>1490.3</ele>
        <time>2022-08-20T17:31:41Z</time>
      </trkpt>
      <trkpt lat="25.4673140" lon="-100.9563070">
        <ele>1490.2</ele>
        <time>2022-08-20T17:31:42Z</time>
      </trkpt>
      <trkpt lat="25.4673680" lon="-100.9563700">
        <ele>1490.1</ele>
        <time>2022-08-20T17:31:43Z</time>
      </trkpt>
      <trkpt lat="25.4674230" lon="-100.9564320">
        <ele>1490.1</ele>
        <time>2022-08-20T17:31:44Z</time>
      </trkpt>
      <trkpt lat="25.4674780" lon="-100.9564940">
        <ele>1490.0</ele>
        <time>2022-08-20T17:31:45Z</time>
      </trkpt>
      <trkpt lat="25.4675310" lon="-100.9565540">
        <ele>1489.9</ele>
        <time>2022-08-20T17:31:46Z</time>
      </trkpt>
      <trkpt lat="25.4675830" lon="-100.9566150">
        <ele>1489.8</ele>
        <time>2022-08-20T17:31:47Z</time>
      </trkpt>
      <trkpt lat="25.4676340" lon="-100.9566750">
        <ele>1489.8</ele>
        <time>2022-08-20T17:31:48Z</time>
      </trkpt>
      <trkpt lat="25.4676870" lon="-100.9567340">
        <ele>1489.7</ele>
        <time>2022-08-20T17:31:49Z</time>
      </trkpt>
      <trkpt lat="25.4677410" lon="-100.9567940">
        <ele>1489.7</ele>
        <time>2022-08-20T17:31:50Z</time>
      </trkpt>
      <trkpt lat="25.4677950" lon="-100.9568550">
        <ele>1489.6</ele>
        <time>2022-08-20T17:31:51Z</time>
      </trkpt>
      <trkpt lat="25.4678500" lon="-100.9569130">
        <ele>1489.6</ele>
        <time>2022-08-20T17:31:52Z</time>
      </trkpt>
      <trkpt lat="25.4679060" lon="-100.9569690">
        <ele>1489.5</ele>
        <time>2022-08-20T17:31:53Z</time>
      </trkpt>
      <trkpt lat="25.4679610" lon="-100.9570270">
        <ele>1489.4</ele>
        <time>2022-08-20T17:31:54Z</time>
      </trkpt>
      <trkpt lat="25.4680170" lon="-100.9570880">
        <ele>1489.4</ele>
        <time>2022-08-20T17:31:55Z</time>
      </trkpt>
      <trkpt lat="25.4680740" lon="-100.9571490">
        <ele>1489.3</ele>
        <time>2022-08-20T17:31:56Z</time>
      </trkpt>
      <trkpt lat="25.4681320" lon="-100.9572100">
        <ele>1489.3</ele>
        <time>2022-08-20T17:31:57Z</time>
      </trkpt>
      <trkpt lat="25.4681870" lon="-100.9572690">
        <ele>1489.2</ele>
        <time>2022-08-20T17:31:58Z</time>
      </trkpt>
      <trkpt lat="25.4682430" lon="-100.9573300">
        <ele>1489.2</ele>
        <time>2022-08-20T17:31:59Z</time>
      </trkpt>
      <trkpt lat="25.4682980" lon="-100.9573910">
        <ele>1489.1</ele>
        <time>2022-08-20T17:32:00Z</time>
      </trkpt>
      <trkpt lat="25.4683520" lon="-100.9574540">
        <ele>1489.0</ele>
        <time>2022-08-20T17:32:01Z</time>
      </trkpt>
      <trkpt lat="25.4684120" lon="-100.9575170">
        <ele>1488.9</ele>
        <time>2022-08-20T17:32:02Z</time>
      </trkpt>
      <trkpt lat="25.4684720" lon="-100.9575780">
        <ele>1488.9</ele>
        <time>2022-08-20T17:32:03Z</time>
      </trkpt>
      <trkpt lat="25.4685330" lon="-100.9576340">
        <ele>1488.8</ele>
        <time>2022-08-20T17:32:04Z</time>
      </trkpt>
      <trkpt lat="25.4685930" lon="-100.9576900">
        <ele>1488.7</ele>
        <time>2022-08-20T17:32:05Z</time>
      </trkpt>
      <trkpt lat="25.4686520" lon="-100.9577490">
        <ele>1488.6</ele>
        <time>2022-08-20T17:32:06Z</time>
      </trkpt>
      <trkpt lat="25.4687100" lon="-100.9578080">
        <ele>1488.5</ele>
        <time>2022-08-20T17:32:07Z</time>
      </trkpt>
      <trkpt lat="25.4687670" lon="-100.9578680">
        <ele>1488.4</ele>
        <time>2022-08-20T17:32:08Z</time>
      </trkpt>
      <trkpt lat="25.4688240" lon="-100.9579290">
        <ele>1488.4</ele>
        <time>2022-08-20T17:32:09Z</time>
      </trkpt>
      <trkpt lat="25.4688800" lon="-100.9579920">
        <ele>1488.3</ele>
        <time>2022-08-20T17:32:10Z</time>
      </trkpt>
      <trkpt lat="25.4689370" lon="-100.9580570">
        <ele>1488.1</ele>
        <time>2022-08-20T17:32:11Z</time>
      </trkpt>
      <trkpt lat="25.4689940" lon="-100.9581210">
        <ele>1488.1</ele>
        <time>2022-08-20T17:32:12Z</time>
      </trkpt>
      <trkpt lat="25.4690510" lon="-100.9581850">
        <ele>1488.0</ele>
        <time>2022-08-20T17:32:13Z</time>
      </trkpt>
      <trkpt lat="25.4691070" lon="-100.9582490">
        <ele>1487.9</ele>
        <time>2022-08-20T17:32:14Z</time>
      </trkpt>
      <trkpt lat="25.4691630" lon="-100.9583150">
        <ele>1487.8</ele>
        <time>2022-08-20T17:32:15Z</time>
      </trkpt>
      <trkpt lat="25.4692180" lon="-100.9583810">
        <ele>1487.7</ele>
        <time>2022-08-20T17:32:16Z</time>
      </trkpt>
      <trkpt lat="25.4692700" lon="-100.9584480">
        <ele>1487.6</ele>
        <time>2022-08-20T17:32:17Z</time>
      </trkpt>
      <trkpt lat="25.4693220" lon="-100.9585180">
        <ele>1487.5</ele>
        <time>2022-08-20T17:32:18Z</time>
      </trkpt>
      <trkpt lat="25.4693770" lon="-100.9585810">
        <ele>1487.4</ele>
        <time>2022-08-20T17:32:19Z</time>
      </trkpt>
      <trkpt lat="25.4694320" lon="-100.9586440">
        <ele>1487.3</ele>
        <time>2022-08-20T17:32:20Z</time>
      </trkpt>
      <trkpt lat="25.4694880" lon="-100.9587090">
        <ele>1487.2</ele>
        <time>2022-08-20T17:32:21Z</time>
      </trkpt>
      <trkpt lat="25.4695430" lon="-100.9587750">
        <ele>1487.1</ele>
        <time>2022-08-20T17:32:22Z</time>
      </trkpt>
      <trkpt lat="25.4695960" lon="-100.9588420">
        <ele>1487.0</ele>
        <time>2022-08-20T17:32:23Z</time>
      </trkpt>
      <trkpt lat="25.4696480" lon="-100.9589100">
        <ele>1487.0</ele>
        <time>2022-08-20T17:32:24Z</time>
      </trkpt>
      <trkpt lat="25.4697010" lon="-100.9589740">
        <ele>1486.9</ele>
        <time>2022-08-20T17:32:25Z</time>
      </trkpt>
      <trkpt lat="25.4697550" lon="-100.9590380">
        <ele>1486.8</ele>
        <time>2022-08-20T17:32:26Z</time>
      </trkpt>
      <trkpt lat="25.4698110" lon="-100.9591010">
        <ele>1486.8</ele>
        <time>2022-08-20T17:32:27Z</time>
      </trkpt>
      <trkpt lat="25.4698670" lon="-100.9591630">
        <ele>1486.7</ele>
        <time>2022-08-20T17:32:28Z</time>
      </trkpt>
      <trkpt lat="25.4699220" lon="-100.9592250">
        <ele>1486.6</ele>
        <time>2022-08-20T17:32:29Z</time>
      </trkpt>
      <trkpt lat="25.4699780" lon="-100.9592860">
        <ele>1486.5</ele>
        <time>2022-08-20T17:32:30Z</time>
      </trkpt>
      <trkpt lat="25.4700350" lon="-100.9593420">
        <ele>1486.4</ele>
        <time>2022-08-20T17:32:31Z</time>
      </trkpt>
      <trkpt lat="25.4700910" lon="-100.9594000">
        <ele>1486.4</ele>
        <time>2022-08-20T17:32:32Z</time>
      </trkpt>
      <trkpt lat="25.4701470" lon="-100.9594590">
        <ele>1486.3</ele>
        <time>2022-08-20T17:32:33Z</time>
      </trkpt>
      <trkpt lat="25.4702030" lon="-100.9595180">
        <ele>1486.3</ele>
        <time>2022-08-20T17:32:34Z</time>
      </trkpt>
      <trkpt lat="25.4702600" lon="-100.9595750">
        <ele>1486.2</ele>
        <time>2022-08-20T17:32:35Z</time>
      </trkpt>
      <trkpt lat="25.4703150" lon="-100.9596330">
        <ele>1486.2</ele>
        <time>2022-08-20T17:32:36Z</time>
      </trkpt>
      <trkpt lat="25.4703680" lon="-100.9596900">
        <ele>1486.2</ele>
        <time>2022-08-20T17:32:37Z</time>
      </trkpt>
      <trkpt lat="25.4704180" lon="-100.9597470">
        <ele>1486.2</ele>
        <time>2022-08-20T17:32:38Z</time>
      </trkpt>
      <trkpt lat="25.4704680" lon="-100.9598040">
        <ele>1486.1</ele>
        <time>2022-08-20T17:32:39Z</time>
      </trkpt>
      <trkpt lat="25.4705200" lon="-100.9598610">
        <ele>1486.1</ele>
        <time>2022-08-20T17:32:40Z</time>
      </trkpt>
      <trkpt lat="25.4705730" lon="-100.9599200">
        <ele>1486.1</ele>
        <time>2022-08-20T17:32:41Z</time>
      </trkpt>
      <trkpt lat="25.4706280" lon="-100.9599780">
        <ele>1486.0</ele>
        <time>2022-08-20T17:32:42Z</time>
      </trkpt>
      <trkpt lat="25.4706840" lon="-100.9600370">
        <ele>1486.0</ele>
        <time>2022-08-20T17:32:43Z</time>
      </trkpt>
      <trkpt lat="25.4707420" lon="-100.9600970">
        <ele>1485.9</ele>
        <time>2022-08-20T17:32:44Z</time>
      </trkpt>
      <trkpt lat="25.4708000" lon="-100.9601590">
        <ele>1485.9</ele>
        <time>2022-08-20T17:32:45Z</time>
      </trkpt>
      <trkpt lat="25.4708610" lon="-100.9602220">
        <ele>1485.9</ele>
        <time>2022-08-20T17:32:46Z</time>
      </trkpt>
      <trkpt lat="25.4709240" lon="-100.9602880">
        <ele>1485.8</ele>
        <time>2022-08-20T17:32:47Z</time>
      </trkpt>
      <trkpt lat="25.4709900" lon="-100.9603560">
        <ele>1485.8</ele>
        <time>2022-08-20T17:32:48Z</time>
      </trkpt>
      <trkpt lat="25.4710550" lon="-100.9604250">
        <ele>1485.9</ele>
        <time>2022-08-20T17:32:49Z</time>
      </trkpt>
      <trkpt lat="25.4711220" lon="-100.9604950">
        <ele>1485.9</ele>
        <time>2022-08-20T17:32:50Z</time>
      </trkpt>
      <trkpt lat="25.4711860" lon="-100.9605650">
        <ele>1485.9</ele>
        <time>2022-08-20T17:32:51Z</time>
      </trkpt>
      <trkpt lat="25.4712500" lon="-100.9606350">
        <ele>1485.8</ele>
        <time>2022-08-20T17:32:52Z</time>
      </trkpt>
      <trkpt lat="25.4713150" lon="-100.9607020">
        <ele>1485.7</ele>
        <time>2022-08-20T17:32:53Z</time>
      </trkpt>
      <trkpt lat="25.4713810" lon="-100.9607670">
        <ele>1485.5</ele>
        <time>2022-08-20T17:32:54Z</time>
      </trkpt>
      <trkpt lat="25.4714450" lon="-100.9608320">
        <ele>1485.2</ele>
        <time>2022-08-20T17:32:55Z</time>
      </trkpt>
      <trkpt lat="25.4715090" lon="-100.9608980">
        <ele>1485.1</ele>
        <time>2022-08-20T17:32:56Z</time>
      </trkpt>
      <trkpt lat="25.4715710" lon="-100.9609640">
        <ele>1485.1</ele>
        <time>2022-08-20T17:32:57Z</time>
      </trkpt>
      <trkpt lat="25.4716330" lon="-100.9610310">
        <ele>1485.1</ele>
        <time>2022-08-20T17:32:58Z</time>
      </trkpt>
      <trkpt lat="25.4716920" lon="-100.9610990">
        <ele>1485.2</ele>
        <time>2022-08-20T17:32:59Z</time>
      </trkpt>
      <trkpt lat="25.4717460" lon="-100.9611700">
        <ele>1485.2</ele>
        <time>2022-08-20T17:33:00Z</time>
      </trkpt>
      <trkpt lat="25.4717940" lon="-100.9612430">
        <ele>1485.3</ele>
        <time>2022-08-20T17:33:01Z</time>
      </trkpt>
      <trkpt lat="25.4718350" lon="-100.9613180">
        <ele>1485.3</ele>
        <time>2022-08-20T17:33:02Z</time>
      </trkpt>
      <trkpt lat="25.4718720" lon="-100.9613950">
        <ele>1485.4</ele>
        <time>2022-08-20T17:33:03Z</time>
      </trkpt>
      <trkpt lat="25.4719070" lon="-100.9614720">
        <ele>1485.5</ele>
        <time>2022-08-20T17:33:04Z</time>
      </trkpt>
      <trkpt lat="25.4719390" lon="-100.9615470">
        <ele>1485.6</ele>
        <time>2022-08-20T17:33:05Z</time>
      </trkpt>
      <trkpt lat="25.4719710" lon="-100.9616230">
        <ele>1485.7</ele>
        <time>2022-08-20T17:33:06Z</time>
      </trkpt>
      <trkpt lat="25.4720050" lon="-100.9616990">
        <ele>1485.8</ele>
        <time>2022-08-20T17:33:07Z</time>
      </trkpt>
      <trkpt lat="25.4720400" lon="-100.9617740">
        <ele>1486.0</ele>
        <time>2022-08-20T17:33:08Z</time>
      </trkpt>
      <trkpt lat="25.4720750" lon="-100.9618430">
        <ele>1486.1</ele>
        <time>2022-08-20T17:33:09Z</time>
      </trkpt>
      <trkpt lat="25.4721100" lon="-100.9619100">
        <ele>1486.2</ele>
        <time>2022-08-20T17:33:10Z</time>
      </trkpt>
      <trkpt lat="25.4721450" lon="-100.9619800">
        <ele>1486.3</ele>
        <time>2022-08-20T17:33:11Z</time>
      </trkpt>
      <trkpt lat="25.4721770" lon="-100.9620540">
        <ele>1486.5</ele>
        <time>2022-08-20T17:33:12Z</time>
      </trkpt>
      <trkpt lat="25.4722100" lon="-100.9621270">
        <ele>1486.5</ele>
        <time>2022-08-20T17:33:13Z</time>
      </trkpt>
      <trkpt lat="25.4722420" lon="-100.9622000">
        <ele>1486.5</ele>
        <time>2022-08-20T17:33:14Z</time>
      </trkpt>
      <trkpt lat="25.4722750" lon="-100.9622710">
        <ele>1486.5</ele>
        <time>2022-08-20T17:33:15Z</time>
      </trkpt>
      <trkpt lat="25.4723080" lon="-100.9623440">
        <ele>1486.4</ele>
        <time>2022-08-20T17:33:16Z</time>
      </trkpt>
      <trkpt lat="25.4723400" lon="-100.9624170">
        <ele>1486.4</ele>
        <time>2022-08-20T17:33:17Z</time>
      </trkpt>
      <trkpt lat="25.4723700" lon="-100.9624880">
        <ele>1486.4</ele>
        <time>2022-08-20T17:33:18Z</time>
      </trkpt>
      <trkpt lat="25.4724020" lon="-100.9625590">
        <ele>1486.3</ele>
        <time>2022-08-20T17:33:19Z</time>
      </trkpt>
      <trkpt lat="25.4724380" lon="-100.9626310">
        <ele>1486.3</ele>
        <time>2022-08-20T17:33:20Z</time>
      </trkpt>
      <trkpt lat="25.4724720" lon="-100.9627040">
        <ele>1486.2</ele>
        <time>2022-08-20T17:33:21Z</time>
      </trkpt>
      <trkpt lat="25.4725060" lon="-100.9627800">
        <ele>1486.2</ele>
        <time>2022-08-20T17:33:22Z</time>
      </trkpt>
      <trkpt lat="25.4725400" lon="-100.9628550">
        <ele>1486.1</ele>
        <time>2022-08-20T17:33:23Z</time>
      </trkpt>
      <trkpt lat="25.4725740" lon="-100.9629300">
        <ele>1486.1</ele>
        <time>2022-08-20T17:33:24Z</time>
      </trkpt>
      <trkpt lat="25.4726110" lon="-100.9630040">
        <ele>1486.0</ele>
        <time>2022-08-20T17:33:25Z</time>
      </trkpt>
      <trkpt lat="25.4726490" lon="-100.9630780">
        <ele>1486.0</ele>
        <time>2022-08-20T17:33:26Z</time>
      </trkpt>
      <trkpt lat="25.4726840" lon="-100.9631540">
        <ele>1485.9</ele>
        <time>2022-08-20T17:33:27Z</time>
      </trkpt>
      <trkpt lat="25.4727180" lon="-100.9632280">
        <ele>1485.9</ele>
        <time>2022-08-20T17:33:28Z</time>
      </trkpt>
      <trkpt lat="25.4727510" lon="-100.9633010">
        <ele>1485.8</ele>
        <time>2022-08-20T17:33:29Z</time>
      </trkpt>
      <trkpt lat="25.4727830" lon="-100.9633750">
        <ele>1485.8</ele>
        <time>2022-08-20T17:33:30Z</time>
      </trkpt>
      <trkpt lat="25.4728160" lon="-100.9634490">
        <ele>1485.8</ele>
        <time>2022-08-20T17:33:31Z</time>
      </trkpt>
      <trkpt lat="25.4728470" lon="-100.9635230">
        <ele>1485.8</ele>
        <time>2022-08-20T17:33:32Z</time>
      </trkpt>
      <trkpt lat="25.4728790" lon="-100.9635980">
        <ele>1485.7</ele>
        <time>2022-08-20T17:33:33Z</time>
      </trkpt>
      <trkpt lat="25.4729150" lon="-100.9636720">
        <ele>1485.7</ele>
        <time>2022-08-20T17:33:34Z</time>
      </trkpt>
      <trkpt lat="25.4729530" lon="-100.9637460">
        <ele>1485.6</ele>
        <time>2022-08-20T17:33:35Z</time>
      </trkpt>
      <trkpt lat="25.4729900" lon="-100.9638240">
        <ele>1485.6</ele>
        <time>2022-08-20T17:33:36Z</time>
      </trkpt>
      <trkpt lat="25.4730260" lon="-100.9638970">
        <ele>1485.6</ele>
        <time>2022-08-20T17:33:37Z</time>
      </trkpt>
      <trkpt lat="25.4730620" lon="-100.9639720">
        <ele>1485.6</ele>
        <time>2022-08-20T17:33:38Z</time>
      </trkpt>
      <trkpt lat="25.4730980" lon="-100.9640460">
        <ele>1485.6</ele>
        <time>2022-08-20T17:33:39Z</time>
      </trkpt>
      <trkpt lat="25.4731340" lon="-100.9641200">
        <ele>1485.5</ele>
        <time>2022-08-20T17:33:40Z</time>
      </trkpt>
      <trkpt lat="25.4731680" lon="-100.9641940">
        <ele>1485.5</ele>
        <time>2022-08-20T17:33:41Z</time>
      </trkpt>
      <trkpt lat="25.4732010" lon="-100.9642670">
        <ele>1485.5</ele>
        <time>2022-08-20T17:33:42Z</time>
      </trkpt>
      <trkpt lat="25.4732350" lon="-100.9643380">
        <ele>1485.4</ele>
        <time>2022-08-20T17:33:43Z</time>
      </trkpt>
      <trkpt lat="25.4732700" lon="-100.9644090">
        <ele>1485.4</ele>
        <time>2022-08-20T17:33:44Z</time>
      </trkpt>
      <trkpt lat="25.4733040" lon="-100.9644790">
        <ele>1485.3</ele>
        <time>2022-08-20T17:33:45Z</time>
      </trkpt>
      <trkpt lat="25.4733370" lon="-100.9645490">
        <ele>1485.3</ele>
        <time>2022-08-20T17:33:46Z</time>
      </trkpt>
      <trkpt lat="25.4733700" lon="-100.9646180">
        <ele>1485.2</ele>
        <time>2022-08-20T17:33:47Z</time>
      </trkpt>
      <trkpt lat="25.4734050" lon="-100.9646820">
        <ele>1485.1</ele>
        <time>2022-08-20T17:33:48Z</time>
      </trkpt>
      <trkpt lat="25.4734360" lon="-100.9647430">
        <ele>1485.0</ele>
        <time>2022-08-20T17:33:49Z</time>
      </trkpt>
      <trkpt lat="25.4734670" lon="-100.9648040">
        <ele>1485.0</ele>
        <time>2022-08-20T17:33:50Z</time>
      </trkpt>
      <trkpt lat="25.4734940" lon="-100.9648630">
        <ele>1484.9</ele>
        <time>2022-08-20T17:33:51Z</time>
      </trkpt>
      <trkpt lat="25.4735150" lon="-100.9649170">
        <ele>1484.9</ele>
        <time>2022-08-20T17:33:52Z</time>
      </trkpt>
      <trkpt lat="25.4735310" lon="-100.9649640">
        <ele>1484.8</ele>
        <time>2022-08-20T17:33:53Z</time>
      </trkpt>
      <trkpt lat="25.4735420" lon="-100.9649930">
        <ele>1484.8</ele>
        <time>2022-08-20T17:33:54Z</time>
      </trkpt>
      <trkpt lat="25.4735570" lon="-100.9650280">
        <ele>1484.8</ele>
        <time>2022-08-20T17:33:55Z</time>
      </trkpt>
      <trkpt lat="25.4735740" lon="-100.9650570">
        <ele>1484.7</ele>
        <time>2022-08-20T17:33:56Z</time>
      </trkpt>
      <trkpt lat="25.4735790" lon="-100.9650640">
        <ele>1484.7</ele>
        <time>2022-08-20T17:33:57Z</time>
      </trkpt>
      <trkpt lat="25.4735880" lon="-100.9650740">
        <ele>1484.7</ele>
        <time>2022-08-20T17:33:58Z</time>
      </trkpt>
      <trkpt lat="25.4735900" lon="-100.9650750">
        <ele>1484.7</ele>
        <time>2022-08-20T17:33:59Z</time>
      </trkpt>
      <trkpt lat="25.4735910" lon="-100.9650770">
        <ele>1484.7</ele>
        <time>2022-08-20T17:34:00Z</time>
      </trkpt>
      <trkpt lat="25.4735930" lon="-100.9650790">
        <ele>1484.7</ele>
        <time>2022-08-20T17:34:01Z</time>
      </trkpt>
      <trkpt lat="25.4735940" lon="-100.9650810">
        <ele>1484.7</ele>
        <time>2022-08-20T17:34:02Z</time>
      </trkpt>
      <trkpt lat="25.4735960" lon="-100.9650820">
        <ele>1484.7</ele>
        <time>2022-08-20T17:34:03Z</time>
      </trkpt>
      <trkpt lat="25.4735970" lon="-100.9650840">
        <ele>1484.7</ele>
        <time>2022-08-20T17:34:04Z</time>
      </trkpt>
      <trkpt lat="25.4735990" lon="-100.9650860">
        <ele>1484.7</ele>
        <time>2022-08-20T17:34:05Z</time>
      </trkpt>
      <trkpt lat="25.4736000" lon="-100.9650880">
        <ele>1484.7</ele>
        <time>2022-08-20T17:34:06Z</time>
      </trkpt>
      <trkpt lat="25.4736020" lon="-100.9650890">
        <ele>1484.7</ele>
        <time>2022-08-20T17:34:07Z</time>
      </trkpt>
      <trkpt lat="25.4736030" lon="-100.9650910">
        <ele>1484.7</ele>
        <time>2022-08-20T17:34:08Z</time>
      </trkpt>
      <trkpt lat="25.4736050" lon="-100.9650930">
        <ele>1484.7</ele>
        <time>2022-08-20T17:34:09Z</time>
      </trkpt>
      <trkpt lat="25.4736060" lon="-100.9650950">
        <ele>1484.7</ele>
        <time>2022-08-20T17:34:10Z</time>
      </trkpt>
      <trkpt lat="25.4736270" lon="-100.9651280">
        <ele>1484.6</ele>
        <time>2022-08-20T17:34:11Z</time>
      </trkpt>
      <trkpt lat="25.4736340" lon="-100.9651400">
        <ele>1484.6</ele>
        <time>2022-08-20T17:34:12Z</time>
      </trkpt>
      <trkpt lat="25.4736610" lon="-100.9651960">
        <ele>1484.5</ele>
        <time>2022-08-20T17:34:13Z</time>
      </trkpt>
      <trkpt lat="25.4736850" lon="-100.9652500">
        <ele>1484.5</ele>
        <time>2022-08-20T17:34:14Z</time>
      </trkpt>
      <trkpt lat="25.4737070" lon="-100.9653070">
        <ele>1484.4</ele>
        <time>2022-08-20T17:34:15Z</time>
      </trkpt>
      <trkpt lat="25.4737280" lon="-100.9653670">
        <ele>1484.4</ele>
        <time>2022-08-20T17:34:16Z</time>
      </trkpt>
      <trkpt lat="25.4737470" lon="-100.9654290">
        <ele>1484.3</ele>
        <time>2022-08-20T17:34:17Z</time>
      </trkpt>
      <trkpt lat="25.4737640" lon="-100.9654940">
        <ele>1484.3</ele>
        <time>2022-08-20T17:34:18Z</time>
      </trkpt>
      <trkpt lat="25.4737810" lon="-100.9655610">
        <ele>1484.2</ele>
        <time>2022-08-20T17:34:19Z</time>
      </trkpt>
      <trkpt lat="25.4737960" lon="-100.9656290">
        <ele>1484.2</ele>
        <time>2022-08-20T17:34:20Z</time>
      </trkpt>
      <trkpt lat="25.4738080" lon="-100.9656980">
        <ele>1484.2</ele>
        <time>2022-08-20T17:34:21Z</time>
      </trkpt>
      <trkpt lat="25.4738200" lon="-100.9657660">
        <ele>1484.2</ele>
        <time>2022-08-20T17:34:22Z</time>
      </trkpt>
      <trkpt lat="25.4738290" lon="-100.9658340">
        <ele>1484.2</ele>
        <time>2022-08-20T17:34:23Z</time>
      </trkpt>
      <trkpt lat="25.4738350" lon="-100.9659020">
        <ele>1484.2</ele>
        <time>2022-08-20T17:34:24Z</time>
      </trkpt>
      <trkpt lat="25.4738370" lon="-100.9659720">
        <ele>1484.2</ele>
        <time>2022-08-20T17:34:25Z</time>
      </trkpt>
      <trkpt lat="25.4738400" lon="-100.9660410">
        <ele>1484.2</ele>
        <time>2022-08-20T17:34:26Z</time>
      </trkpt>
      <trkpt lat="25.4738440" lon="-100.9661090">
        <ele>1484.2</ele>
        <time>2022-08-20T17:34:27Z</time>
      </trkpt>
      <trkpt lat="25.4738470" lon="-100.9661780">
        <ele>1484.2</ele>
        <time>2022-08-20T17:34:28Z</time>
      </trkpt>
      <trkpt lat="25.4738510" lon="-100.9662460">
        <ele>1484.3</ele>
        <time>2022-08-20T17:34:29Z</time>
      </trkpt>
      <trkpt lat="25.4738550" lon="-100.9663140">
        <ele>1484.3</ele>
        <time>2022-08-20T17:34:30Z</time>
      </trkpt>
      <trkpt lat="25.4738590" lon="-100.9663810">
        <ele>1484.3</ele>
        <time>2022-08-20T17:34:31Z</time>
      </trkpt>
      <trkpt lat="25.4738640" lon="-100.9664490">
        <ele>1484.3</ele>
        <time>2022-08-20T17:34:32Z</time>
      </trkpt>
      <trkpt lat="25.4738720" lon="-100.9665180">
        <ele>1484.4</ele>
        <time>2022-08-20T17:34:33Z</time>
      </trkpt>
      <trkpt lat="25.4738840" lon="-100.9665870">
        <ele>1484.4</ele>
        <time>2022-08-20T17:34:34Z</time>
      </trkpt>
      <trkpt lat="25.4738990" lon="-100.9666550">
        <ele>1484.5</ele>
        <time>2022-08-20T17:34:35Z</time>
      </trkpt>
      <trkpt lat="25.4739180" lon="-100.9667220">
        <ele>1484.5</ele>
        <time>2022-08-20T17:34:36Z</time>
      </trkpt>
      <trkpt lat="25.4739410" lon="-100.9667900">
        <ele>1484.6</ele>
        <time>2022-08-20T17:34:37Z</time>
      </trkpt>
      <trkpt lat="25.4739660" lon="-100.9668560">
        <ele>1484.6</ele>
        <time>2022-08-20T17:34:38Z</time>
      </trkpt>
      <trkpt lat="25.4739920" lon="-100.9669220">
        <ele>1484.7</ele>
        <time>2022-08-20T17:34:39Z</time>
      </trkpt>
      <trkpt lat="25.4740190" lon="-100.9669870">
        <ele>1484.8</ele>
        <time>2022-08-20T17:34:40Z</time>
      </trkpt>
      <trkpt lat="25.4740500" lon="-100.9670510">
        <ele>1484.8</ele>
        <time>2022-08-20T17:34:41Z</time>
      </trkpt>
      <trkpt lat="25.4740840" lon="-100.9671130">
        <ele>1484.9</ele>
        <time>2022-08-20T17:34:42Z</time>
      </trkpt>
      <trkpt lat="25.4741200" lon="-100.9671720">
        <ele>1484.9</ele>
        <time>2022-08-20T17:34:43Z</time>
      </trkpt>
      <trkpt lat="25.4741580" lon="-100.9672290">
        <ele>1484.9</ele>
        <time>2022-08-20T17:34:44Z</time>
      </trkpt>
      <trkpt lat="25.4741960" lon="-100.9672880">
        <ele>1484.9</ele>
        <time>2022-08-20T17:34:45Z</time>
      </trkpt>
      <trkpt lat="25.4742340" lon="-100.9673470">
        <ele>1485.0</ele>
        <time>2022-08-20T17:34:46Z</time>
      </trkpt>
      <trkpt lat="25.4742710" lon="-100.9674050">
        <ele>1485.0</ele>
        <time>2022-08-20T17:34:47Z</time>
      </trkpt>
      <trkpt lat="25.4743060" lon="-100.9674640">
        <ele>1485.1</ele>
        <time>2022-08-20T17:34:48Z</time>
      </trkpt>
      <trkpt lat="25.4743410" lon="-100.9675260">
        <ele>1485.1</ele>
        <time>2022-08-20T17:34:49Z</time>
      </trkpt>
      <trkpt lat="25.4743770" lon="-100.9675870">
        <ele>1485.2</ele>
        <time>2022-08-20T17:34:50Z</time>
      </trkpt>
      <trkpt lat="25.4744150" lon="-100.9676470">
        <ele>1485.2</ele>
        <time>2022-08-20T17:34:51Z</time>
      </trkpt>
      <trkpt lat="25.4744530" lon="-100.9677070">
        <ele>1485.2</ele>
        <time>2022-08-20T17:34:52Z</time>
      </trkpt>
      <trkpt lat="25.4744900" lon="-100.9677650">
        <ele>1485.2</ele>
        <time>2022-08-20T17:34:53Z</time>
      </trkpt>
      <trkpt lat="25.4745270" lon="-100.9678240">
        <ele>1485.3</ele>
        <time>2022-08-20T17:34:54Z</time>
      </trkpt>
      <trkpt lat="25.4745660" lon="-100.9678830">
        <ele>1485.3</ele>
        <time>2022-08-20T17:34:55Z</time>
      </trkpt>
      <trkpt lat="25.4746020" lon="-100.9679420">
        <ele>1485.3</ele>
        <time>2022-08-20T17:34:56Z</time>
      </trkpt>
      <trkpt lat="25.4746390" lon="-100.9680010">
        <ele>1485.3</ele>
        <time>2022-08-20T17:34:57Z</time>
      </trkpt>
      <trkpt lat="25.4746760" lon="-100.9680610">
        <ele>1485.3</ele>
        <time>2022-08-20T17:34:58Z</time>
      </trkpt>
      <trkpt lat="25.4747130" lon="-100.9681210">
        <ele>1485.3</ele>
        <time>2022-08-20T17:34:59Z</time>
      </trkpt>
      <trkpt lat="25.4747500" lon="-100.9681800">
        <ele>1485.3</ele>
        <time>2022-08-20T17:35:00Z</time>
      </trkpt>
      <trkpt lat="25.4747850" lon="-100.9682400">
        <ele>1485.3</ele>
        <time>2022-08-20T17:35:01Z</time>
      </trkpt>
      <trkpt lat="25.4748210" lon="-100.9683000">
        <ele>1485.3</ele>
        <time>2022-08-20T17:35:02Z</time>
      </trkpt>
      <trkpt lat="25.4748570" lon="-100.9683600">
        <ele>1485.4</ele>
        <time>2022-08-20T17:35:03Z</time>
      </trkpt>
      <trkpt lat="25.4748930" lon="-100.9684200">
        <ele>1485.4</ele>
        <time>2022-08-20T17:35:04Z</time>
      </trkpt>
      <trkpt lat="25.4749300" lon="-100.9684820">
        <ele>1485.4</ele>
        <time>2022-08-20T17:35:05Z</time>
      </trkpt>
      <trkpt lat="25.4749650" lon="-100.9685440">
        <ele>1485.4</ele>
        <time>2022-08-20T17:35:06Z</time>
      </trkpt>
      <trkpt lat="25.4750010" lon="-100.9686080">
        <ele>1485.4</ele>
        <time>2022-08-20T17:35:07Z</time>
      </trkpt>
      <trkpt lat="25.4750360" lon="-100.9686710">
        <ele>1485.5</ele>
        <time>2022-08-20T17:35:08Z</time>
      </trkpt>
      <trkpt lat="25.4750700" lon="-100.9687340">
        <ele>1485.5</ele>
        <time>2022-08-20T17:35:09Z</time>
      </trkpt>
      <trkpt lat="25.4751060" lon="-100.9687980">
        <ele>1485.5</ele>
        <time>2022-08-20T17:35:10Z</time>
      </trkpt>
      <trkpt lat="25.4751430" lon="-100.9688620">
        <ele>1485.4</ele>
        <time>2022-08-20T17:35:11Z</time>
      </trkpt>
      <trkpt lat="25.4751800" lon="-100.9689270">
        <ele>1485.4</ele>
        <time>2022-08-20T17:35:12Z</time>
      </trkpt>
      <trkpt lat="25.4752180" lon="-100.9689930">
        <ele>1485.4</ele>
        <time>2022-08-20T17:35:13Z</time>
      </trkpt>
      <trkpt lat="25.4752560" lon="-100.9690570">
        <ele>1485.4</ele>
        <time>2022-08-20T17:35:14Z</time>
      </trkpt>
      <trkpt lat="25.4752960" lon="-100.9691210">
        <ele>1485.4</ele>
        <time>2022-08-20T17:35:15Z</time>
      </trkpt>
      <trkpt lat="25.4753330" lon="-100.9691850">
        <ele>1485.4</ele>
        <time>2022-08-20T17:35:16Z</time>
      </trkpt>
      <trkpt lat="25.4753710" lon="-100.9692490">
        <ele>1485.5</ele>
        <time>2022-08-20T17:35:17Z</time>
      </trkpt>
      <trkpt lat="25.4754080" lon="-100.9693130">
        <ele>1485.5</ele>
        <time>2022-08-20T17:35:18Z</time>
      </trkpt>
      <trkpt lat="25.4754450" lon="-100.9693780">
        <ele>1485.5</ele>
        <time>2022-08-20T17:35:19Z</time>
      </trkpt>
      <trkpt lat="25.4754820" lon="-100.9694430">
        <ele>1485.5</ele>
        <time>2022-08-20T17:35:20Z</time>
      </trkpt>
      <trkpt lat="25.4755170" lon="-100.9695080">
        <ele>1485.5</ele>
        <time>2022-08-20T17:35:21Z</time>
      </trkpt>
      <trkpt lat="25.4755500" lon="-100.9695750">
        <ele>1485.5</ele>
        <time>2022-08-20T17:35:22Z</time>
      </trkpt>
      <trkpt lat="25.4755800" lon="-100.9696410">
        <ele>1485.5</ele>
        <time>2022-08-20T17:35:23Z</time>
      </trkpt>
      <trkpt lat="25.4756080" lon="-100.9697070">
        <ele>1485.5</ele>
        <time>2022-08-20T17:35:24Z</time>
      </trkpt>
      <trkpt lat="25.4756360" lon="-100.9697730">
        <ele>1485.4</ele>
        <time>2022-08-20T17:35:25Z</time>
      </trkpt>
      <trkpt lat="25.4756640" lon="-100.9698400">
        <ele>1485.4</ele>
        <time>2022-08-20T17:35:26Z</time>
      </trkpt>
      <trkpt lat="25.4756890" lon="-100.9699090">
        <ele>1485.5</ele>
        <time>2022-08-20T17:35:27Z</time>
      </trkpt>
      <trkpt lat="25.4757140" lon="-100.9699790">
        <ele>1485.5</ele>
        <time>2022-08-20T17:35:28Z</time>
      </trkpt>
      <trkpt lat="25.4757380" lon="-100.9700490">
        <ele>1485.5</ele>
        <time>2022-08-20T17:35:29Z</time>
      </trkpt>
      <trkpt lat="25.4757610" lon="-100.9701210">
        <ele>1485.5</ele>
        <time>2022-08-20T17:35:30Z</time>
      </trkpt>
      <trkpt lat="25.4757830" lon="-100.9701930">
        <ele>1485.5</ele>
        <time>2022-08-20T17:35:31Z</time>
      </trkpt>
      <trkpt lat="25.4758010" lon="-100.9702660">
        <ele>1485.4</ele>
        <time>2022-08-20T17:35:32Z</time>
      </trkpt>
      <trkpt lat="25.4758170" lon="-100.9703380">
        <ele>1485.4</ele>
        <time>2022-08-20T17:35:33Z</time>
      </trkpt>
      <trkpt lat="25.4758300" lon="-100.9704090">
        <ele>1485.4</ele>
        <time>2022-08-20T17:35:34Z</time>
      </trkpt>
      <trkpt lat="25.4758450" lon="-100.9704810">
        <ele>1485.4</ele>
        <time>2022-08-20T17:35:35Z</time>
      </trkpt>
      <trkpt lat="25.4758600" lon="-100.9705520">
        <ele>1485.4</ele>
        <time>2022-08-20T17:35:36Z</time>
      </trkpt>
      <trkpt lat="25.4758730" lon="-100.9706230">
        <ele>1485.4</ele>
        <time>2022-08-20T17:35:37Z</time>
      </trkpt>
      <trkpt lat="25.4758870" lon="-100.9706940">
        <ele>1485.4</ele>
        <time>2022-08-20T17:35:38Z</time>
      </trkpt>
      <trkpt lat="25.4758980" lon="-100.9707650">
        <ele>1485.4</ele>
        <time>2022-08-20T17:35:39Z</time>
      </trkpt>
      <trkpt lat="25.4759080" lon="-100.9708360">
        <ele>1485.4</ele>
        <time>2022-08-20T17:35:40Z</time>
      </trkpt>
      <trkpt lat="25.4759150" lon="-100.9709080">
        <ele>1485.3</ele>
        <time>2022-08-20T17:35:41Z</time>
      </trkpt>
      <trkpt lat="25.4759230" lon="-100.9709820">
        <ele>1485.3</ele>
        <time>2022-08-20T17:35:42Z</time>
      </trkpt>
      <trkpt lat="25.4759290" lon="-100.9710570">
        <ele>1485.3</ele>
        <time>2022-08-20T17:35:43Z</time>
      </trkpt>
      <trkpt lat="25.4759350" lon="-100.9711340">
        <ele>1485.2</ele>
        <time>2022-08-20T17:35:44Z</time>
      </trkpt>
      <trkpt lat="25.4759400" lon="-100.9712100">
        <ele>1485.2</ele>
        <time>2022-08-20T17:35:45Z</time>
      </trkpt>
      <trkpt lat="25.4759460" lon="-100.9712850">
        <ele>1485.1</ele>
        <time>2022-08-20T17:35:46Z</time>
      </trkpt>
      <trkpt lat="25.4759530" lon="-100.9713580">
        <ele>1485.1</ele>
        <time>2022-08-20T17:35:47Z</time>
      </trkpt>
      <trkpt lat="25.4759600" lon="-100.9714300">
        <ele>1485.0</ele>
        <time>2022-08-20T17:35:48Z</time>
      </trkpt>
      <trkpt lat="25.4759670" lon="-100.9715020">
        <ele>1485.0</ele>
        <time>2022-08-20T17:35:49Z</time>
      </trkpt>
      <trkpt lat="25.4759740" lon="-100.9715730">
        <ele>1484.9</ele>
        <time>2022-08-20T17:35:50Z</time>
      </trkpt>
      <trkpt lat="25.4759800" lon="-100.9716430">
        <ele>1484.9</ele>
        <time>2022-08-20T17:35:51Z</time>
      </trkpt>
      <trkpt lat="25.4759870" lon="-100.9717130">
        <ele>1484.9</ele>
        <time>2022-08-20T17:35:52Z</time>
      </trkpt>
      <trkpt lat="25.4759950" lon="-100.9717840">
        <ele>1484.8</ele>
        <time>2022-08-20T17:35:53Z</time>
      </trkpt>
      <trkpt lat="25.4760040" lon="-100.9718550">
        <ele>1484.8</ele>
        <time>2022-08-20T17:35:54Z</time>
      </trkpt>
      <trkpt lat="25.4760130" lon="-100.9719270">
        <ele>1484.7</ele>
        <time>2022-08-20T17:35:55Z</time>
      </trkpt>
      <trkpt lat="25.4760210" lon="-100.9719980">
        <ele>1484.6</ele>
        <time>2022-08-20T17:35:56Z</time>
      </trkpt>
      <trkpt lat="25.4760280" lon="-100.9720680">
        <ele>1484.5</ele>
        <time>2022-08-20T17:35:57Z</time>
      </trkpt>
      <trkpt lat="25.4760350" lon="-100.9721370">
        <ele>1484.5</ele>
        <time>2022-08-20T17:35:58Z</time>
      </trkpt>
      <trkpt lat="25.4760390" lon="-100.9722040">
        <ele>1484.4</ele>
        <time>2022-08-20T17:35:59Z</time>
      </trkpt>
      <trkpt lat="25.4760450" lon="-100.9722690">
        <ele>1484.4</ele>
        <time>2022-08-20T17:36:00Z</time>
      </trkpt>
      <trkpt lat="25.4760530" lon="-100.9723330">
        <ele>1484.3</ele>
        <time>2022-08-20T17:36:01Z</time>
      </trkpt>
      <trkpt lat="25.4760590" lon="-100.9723960">
        <ele>1484.3</ele>
        <time>2022-08-20T17:36:02Z</time>
      </trkpt>
      <trkpt lat="25.4760650" lon="-100.9724590">
        <ele>1484.2</ele>
        <time>2022-08-20T17:36:03Z</time>
      </trkpt>
      <trkpt lat="25.4760710" lon="-100.9725200">
        <ele>1484.2</ele>
        <time>2022-08-20T17:36:04Z</time>
      </trkpt>
      <trkpt lat="25.4760780" lon="-100.9725780">
        <ele>1484.1</ele>
        <time>2022-08-20T17:36:05Z</time>
      </trkpt>
      <trkpt lat="25.4760850" lon="-100.9726310">
        <ele>1484.1</ele>
        <time>2022-08-20T17:36:06Z</time>
      </trkpt>
      <trkpt lat="25.4760920" lon="-100.9726830">
        <ele>1484.1</ele>
        <time>2022-08-20T17:36:07Z</time>
      </trkpt>
      <trkpt lat="25.4760990" lon="-100.9727340">
        <ele>1484.0</ele>
        <time>2022-08-20T17:36:08Z</time>
      </trkpt>
      <trkpt lat="25.4761070" lon="-100.9727850">
        <ele>1484.0</ele>
        <time>2022-08-20T17:36:09Z</time>
      </trkpt>
      <trkpt lat="25.4761130" lon="-100.9728340">
        <ele>1483.9</ele>
        <time>2022-08-20T17:36:10Z</time>
      </trkpt>
      <trkpt lat="25.4761180" lon="-100.9728710">
        <ele>1483.9</ele>
        <time>2022-08-20T17:36:11Z</time>
      </trkpt>
      <trkpt lat="25.4761270" lon="-100.9729260">
        <ele>1483.9</ele>
        <time>2022-08-20T17:36:12Z</time>
      </trkpt>
      <trkpt lat="25.4761360" lon="-100.9729780">
        <ele>1483.8</ele>
        <time>2022-08-20T17:36:13Z</time>
      </trkpt>
      <trkpt lat="25.4761460" lon="-100.9730250">
        <ele>1483.8</ele>
        <time>2022-08-20T17:36:14Z</time>
      </trkpt>
      <trkpt lat="25.4761540" lon="-100.9730550">
        <ele>1483.7</ele>
        <time>2022-08-20T17:36:15Z</time>
      </trkpt>
      <trkpt lat="25.4761690" lon="-100.9731070">
        <ele>1483.7</ele>
        <time>2022-08-20T17:36:16Z</time>
      </trkpt>
      <trkpt lat="25.4761970" lon="-100.9731880">
        <ele>1483.6</ele>
        <time>2022-08-20T17:36:17Z</time>
      </trkpt>
      <trkpt lat="25.4762260" lon="-100.9731900">
        <ele>1483.6</ele>
        <time>2022-08-20T17:36:18Z</time>
      </trkpt>
      <trkpt lat="25.4762610" lon="-100.9732150">
        <ele>1483.5</ele>
        <time>2022-08-20T17:36:19Z</time>
      </trkpt>
      <trkpt lat="25.4762690" lon="-100.9732650">
        <ele>1483.5</ele>
        <time>2022-08-20T17:36:20Z</time>
      </trkpt>
      <trkpt lat="25.4762760" lon="-100.9733090">
        <ele>1483.4</ele>
        <time>2022-08-20T17:36:21Z</time>
      </trkpt>
      <trkpt lat="25.4762830" lon="-100.9733470">
        <ele>1483.4</ele>
        <time>2022-08-20T17:36:22Z</time>
      </trkpt>
      <trkpt lat="25.4762920" lon="-100.9733850">
        <ele>1483.4</ele>
        <time>2022-08-20T17:36:23Z</time>
      </trkpt>
      <trkpt lat="25.4763040" lon="-100.9734220">
        <ele>1483.3</ele>
        <time>2022-08-20T17:36:24Z</time>
      </trkpt>
      <trkpt lat="25.4763190" lon="-100.9734550">
        <ele>1483.3</ele>
        <time>2022-08-20T17:36:25Z</time>
      </trkpt>
      <trkpt lat="25.4763370" lon="-100.9734890">
        <ele>1483.3</ele>
        <time>2022-08-20T17:36:26Z</time>
      </trkpt>
      <trkpt lat="25.4763520" lon="-100.9735260">
        <ele>1483.3</ele>
        <time>2022-08-20T17:36:27Z</time>
      </trkpt>
      <trkpt lat="25.4763610" lon="-100.9735560">
        <ele>1483.2</ele>
        <time>2022-08-20T17:36:28Z</time>
      </trkpt>
      <trkpt lat="25.4763980" lon="-100.9736240">
        <ele>1483.2</ele>
        <time>2022-08-20T17:36:30Z</time>
      </trkpt>
      <trkpt lat="25.4764240" lon="-100.9736560">
        <ele>1483.2</ele>
        <time>2022-08-20T17:36:31Z</time>
      </trkpt>
      <trkpt lat="25.4764490" lon="-100.9737020">
        <ele>1483.2</ele>
        <time>2022-08-20T17:36:32Z</time>
      </trkpt>
      <trkpt lat="25.4764710" lon="-100.9737390">
        <ele>1483.2</ele>
        <time>2022-08-20T17:36:33Z</time>
      </trkpt>
      <trkpt lat="25.4765160" lon="-100.9738330">
        <ele>1483.2</ele>
        <time>2022-08-20T17:36:35Z</time>
      </trkpt>
      <trkpt lat="25.4765390" lon="-100.9738770">
        <ele>1483.2</ele>
        <time>2022-08-20T17:36:36Z</time>
      </trkpt>
      <trkpt lat="25.4765600" lon="-100.9739210">
        <ele>1483.2</ele>
        <time>2022-08-20T17:36:37Z</time>
      </trkpt>
      <trkpt lat="25.4765810" lon="-100.9739660">
        <ele>1483.2</ele>
        <time>2022-08-20T17:36:38Z</time>
      </trkpt>
      <trkpt lat="25.4766030" lon="-100.9740110">
        <ele>1483.2</ele>
        <time>2022-08-20T17:36:39Z</time>
      </trkpt>
      <trkpt lat="25.4766260" lon="-100.9740530">
        <ele>1483.2</ele>
        <time>2022-08-20T17:36:40Z</time>
      </trkpt>
      <trkpt lat="25.4766500" lon="-100.9740960">
        <ele>1483.2</ele>
        <time>2022-08-20T17:36:41Z</time>
      </trkpt>
      <trkpt lat="25.4766790" lon="-100.9741420">
        <ele>1483.2</ele>
        <time>2022-08-20T17:36:42Z</time>
      </trkpt>
      <trkpt lat="25.4766980" lon="-100.9741680">
        <ele>1483.2</ele>
        <time>2022-08-20T17:36:43Z</time>
      </trkpt>
      <trkpt lat="25.4767270" lon="-100.9742150">
        <ele>1483.2</ele>
        <time>2022-08-20T17:36:44Z</time>
      </trkpt>
      <trkpt lat="25.4767550" lon="-100.9742600">
        <ele>1483.3</ele>
        <time>2022-08-20T17:36:45Z</time>
      </trkpt>
      <trkpt lat="25.4767810" lon="-100.9743040">
        <ele>1483.3</ele>
        <time>2022-08-20T17:36:46Z</time>
      </trkpt>
      <trkpt lat="25.4768020" lon="-100.9743310">
        <ele>1483.4</ele>
        <time>2022-08-20T17:36:47Z</time>
      </trkpt>
      <trkpt lat="25.4768360" lon="-100.9743510">
        <ele>1483.4</ele>
        <time>2022-08-20T17:36:48Z</time>
      </trkpt>
      <trkpt lat="25.4768720" lon="-100.9744450">
        <ele>1483.5</ele>
        <time>2022-08-20T17:36:49Z</time>
      </trkpt>
      <trkpt lat="25.4768910" lon="-100.9744920">
        <ele>1483.6</ele>
        <time>2022-08-20T17:36:51Z</time>
      </trkpt>
      <trkpt lat="25.4769090" lon="-100.9745310">
        <ele>1483.7</ele>
        <time>2022-08-20T17:36:52Z</time>
      </trkpt>
      <trkpt lat="25.4769280" lon="-100.9745640">
        <ele>1483.7</ele>
        <time>2022-08-20T17:36:53Z</time>
      </trkpt>
      <trkpt lat="25.4769450" lon="-100.9745990">
        <ele>1483.7</ele>
        <time>2022-08-20T17:36:54Z</time>
      </trkpt>
      <trkpt lat="25.4769610" lon="-100.9746300">
        <ele>1483.7</ele>
        <time>2022-08-20T17:36:55Z</time>
      </trkpt>
      <trkpt lat="25.4769790" lon="-100.9746550">
        <ele>1483.8</ele>
        <time>2022-08-20T17:36:56Z</time>
      </trkpt>
      <trkpt lat="25.4770090" lon="-100.9747000">
        <ele>1483.8</ele>
        <time>2022-08-20T17:36:57Z</time>
      </trkpt>
      <trkpt lat="25.4770210" lon="-100.9747170">
        <ele>1483.8</ele>
        <time>2022-08-20T17:36:58Z</time>
      </trkpt>
      <trkpt lat="25.4770290" lon="-100.9747340">
        <ele>1483.8</ele>
        <time>2022-08-20T17:37:00Z</time>
      </trkpt>
      <trkpt lat="25.4770380" lon="-100.9747450">
        <ele>1483.8</ele>
        <time>2022-08-20T17:37:01Z</time>
      </trkpt>
      <trkpt lat="25.4770420" lon="-100.9747430">
        <ele>1483.8</ele>
        <time>2022-08-20T17:37:02Z</time>
      </trkpt>
      <trkpt lat="25.4770480" lon="-100.9747380">
        <ele>1483.8</ele>
        <time>2022-08-20T17:37:03Z</time>
      </trkpt>
      <trkpt lat="25.4770480" lon="-100.9747380">
        <ele>1483.8</ele>
        <time>2022-08-20T17:37:05Z</time>
      </trkpt>
      <trkpt lat="25.4770450" lon="-100.9747380">
        <ele>1483.8</ele>
        <time>2022-08-20T17:37:06Z</time>
      </trkpt>
      <trkpt lat="25.4770430" lon="-100.9747380">
        <ele>1483.8</ele>
        <time>2022-08-20T17:37:07Z</time>
      </trkpt>
      <trkpt lat="25.4770440" lon="-100.9747390">
        <ele>1483.8</ele>
        <time>2022-08-20T17:37:08Z</time>
      </trkpt>
      <trkpt lat="25.4770540" lon="-100.9747450">
        <ele>1483.8</ele>
        <time>2022-08-20T17:37:09Z</time>
      </trkpt>
      <trkpt lat="25.4770770" lon="-100.9747700">
        <ele>1483.8</ele>
        <time>2022-08-20T17:37:10Z</time>
      </trkpt>
      <trkpt lat="25.4770850" lon="-100.9747810">
        <ele>1483.8</ele>
        <time>2022-08-20T17:37:11Z</time>
      </trkpt>
      <trkpt lat="25.4771040" lon="-100.9748080">
        <ele>1483.9</ele>
        <time>2022-08-20T17:37:12Z</time>
      </trkpt>
      <trkpt lat="25.4771410" lon="-100.9748620">
        <ele>1483.9</ele>
        <time>2022-08-20T17:37:14Z</time>
      </trkpt>
      <trkpt lat="25.4771580" lon="-100.9748880">
        <ele>1483.9</ele>
        <time>2022-08-20T17:37:15Z</time>
      </trkpt>
      <trkpt lat="25.4771830" lon="-100.9749120">
        <ele>1483.9</ele>
        <time>2022-08-20T17:37:16Z</time>
      </trkpt>
      <trkpt lat="25.4771880" lon="-100.9749200">
        <ele>1483.9</ele>
        <time>2022-08-20T17:37:17Z</time>
      </trkpt>
      <trkpt lat="25.4771920" lon="-100.9749240">
        <ele>1483.9</ele>
        <time>2022-08-20T17:37:18Z</time>
      </trkpt>
      <trkpt lat="25.4771950" lon="-100.9749320">
        <ele>1483.9</ele>
        <time>2022-08-20T17:37:19Z</time>
      </trkpt>
      <trkpt lat="25.4771990" lon="-100.9749300">
        <ele>1483.9</ele>
        <time>2022-08-20T17:37:20Z</time>
      </trkpt>
      <trkpt lat="25.4772030" lon="-100.9749290">
        <ele>1483.9</ele>
        <time>2022-08-20T17:37:22Z</time>
      </trkpt>
      <trkpt lat="25.4772050" lon="-100.9749260">
        <ele>1483.9</ele>
        <time>2022-08-20T17:37:23Z</time>
      </trkpt>
      <trkpt lat="25.4772060" lon="-100.9749240">
        <ele>1483.9</ele>
        <time>2022-08-20T17:37:24Z</time>
      </trkpt>
      <trkpt lat="25.4772090" lon="-100.9749300">
        <ele>1483.9</ele>
        <time>2022-08-20T17:37:25Z</time>
      </trkpt>
      <trkpt lat="25.4772100" lon="-100.9749360">
        <ele>1483.9</ele>
        <time>2022-08-20T17:37:26Z</time>
      </trkpt>
      <trkpt lat="25.4772110" lon="-100.9749430">
        <ele>1483.9</ele>
        <time>2022-08-20T17:37:27Z</time>
      </trkpt>
      <trkpt lat="25.4772150" lon="-100.9749490">
        <ele>1483.9</ele>
        <time>2022-08-20T17:37:28Z</time>
      </trkpt>
      <trkpt lat="25.4772180" lon="-100.9749530">
        <ele>1483.9</ele>
        <time>2022-08-20T17:37:29Z</time>
      </trkpt>
      <trkpt lat="25.4772180" lon="-100.9749540">
        <ele>1483.9</ele>
        <time>2022-08-20T17:37:30Z</time>
      </trkpt>
      <trkpt lat="25.4772200" lon="-100.9749550">
        <ele>1483.9</ele>
        <time>2022-08-20T17:37:31Z</time>
      </trkpt>
      <trkpt lat="25.4772210" lon="-100.9749570">
        <ele>1483.9</ele>
        <time>2022-08-20T17:37:32Z</time>
      </trkpt>
      <trkpt lat="25.4772220" lon="-100.9749590">
        <ele>1483.9</ele>
        <time>2022-08-20T17:37:33Z</time>
      </trkpt>
      <trkpt lat="25.4772230" lon="-100.9749590">
        <ele>1483.9</ele>
        <time>2022-08-20T17:37:34Z</time>
      </trkpt>
      <trkpt lat="25.4772250" lon="-100.9749580">
        <ele>1483.9</ele>
        <time>2022-08-20T17:37:35Z</time>
      </trkpt>
      <trkpt lat="25.4772290" lon="-100.9749570">
        <ele>1483.9</ele>
        <time>2022-08-20T17:37:36Z</time>
      </trkpt>
      <trkpt lat="25.4772310" lon="-100.9749650">
        <ele>1483.9</ele>
        <time>2022-08-20T17:37:37Z</time>
      </trkpt>
      <trkpt lat="25.4772320" lon="-100.9749690">
        <ele>1483.9</ele>
        <time>2022-08-20T17:37:39Z</time>
      </trkpt>
      <trkpt lat="25.4772340" lon="-100.9749700">
        <ele>1483.9</ele>
        <time>2022-08-20T17:37:40Z</time>
      </trkpt>
      <trkpt lat="25.4772340" lon="-100.9749740">
        <ele>1483.9</ele>
        <time>2022-08-20T17:37:42Z</time>
      </trkpt>
      <trkpt lat="25.4772360" lon="-100.9749900">
        <ele>1483.9</ele>
        <time>2022-08-20T17:37:44Z</time>
      </trkpt>
      <trkpt lat="25.4772370" lon="-100.9749980">
        <ele>1483.9</ele>
        <time>2022-08-20T17:37:45Z</time>
      </trkpt>
      <trkpt lat="25.4772500" lon="-100.9750400">
        <ele>1483.9</ele>
        <time>2022-08-20T17:37:46Z</time>
      </trkpt>
      <trkpt lat="25.4772570" lon="-100.9750600">
        <ele>1483.8</ele>
        <time>2022-08-20T17:37:47Z</time>
      </trkpt>
      <trkpt lat="25.4772660" lon="-100.9750920">
        <ele>1483.8</ele>
        <time>2022-08-20T17:37:48Z</time>
      </trkpt>
      <trkpt lat="25.4772700" lon="-100.9751430">
        <ele>1483.8</ele>
        <time>2022-08-20T17:37:50Z</time>
      </trkpt>
      <trkpt lat="25.4772660" lon="-100.9751600">
        <ele>1483.8</ele>
        <time>2022-08-20T17:37:51Z</time>
      </trkpt>
      <trkpt lat="25.4772600" lon="-100.9751680">
        <ele>1483.8</ele>
        <time>2022-08-20T17:37:52Z</time>
      </trkpt>
      <trkpt lat="25.4772570" lon="-100.9751690">
        <ele>1483.8</ele>
        <time>2022-08-20T17:37:53Z</time>
      </trkpt>
      <trkpt lat="25.4772560" lon="-100.9751710">
        <ele>1483.8</ele>
        <time>2022-08-20T17:37:54Z</time>
      </trkpt>
      <trkpt lat="25.4772540" lon="-100.9751720">
        <ele>1483.8</ele>
        <time>2022-08-20T17:37:55Z</time>
      </trkpt>
      <trkpt lat="25.4772550" lon="-100.9751720">
        <ele>1483.8</ele>
        <time>2022-08-20T17:37:56Z</time>
      </trkpt>
      <trkpt lat="25.4772540" lon="-100.9751720">
        <ele>1483.8</ele>
        <time>2022-08-20T17:37:57Z</time>
      </trkpt>
      <trkpt lat="25.4772530" lon="-100.9751720">
        <ele>1483.8</ele>
        <time>2022-08-20T17:37:58Z</time>
      </trkpt>
      <trkpt lat="25.4772530" lon="-100.9751710">
        <ele>1483.8</ele>
        <time>2022-08-20T17:37:59Z</time>
      </trkpt>
      <trkpt lat="25.4772530" lon="-100.9751710">
        <ele>1483.8</ele>
        <time>2022-08-20T17:38:00Z</time>
      </trkpt>
      <trkpt lat="25.4772520" lon="-100.9751710">
        <ele>1483.8</ele>
        <time>2022-08-20T17:38:01Z</time>
      </trkpt>
      <trkpt lat="25.4772510" lon="-100.9751710">
        <ele>1483.8</ele>
        <time>2022-08-20T17:38:02Z</time>
      </trkpt>
      <trkpt lat="25.4772510" lon="-100.9751700">
        <ele>1483.8</ele>
        <time>2022-08-20T17:38:03Z</time>
      </trkpt>
      <trkpt lat="25.4772510" lon="-100.9751700">
        <ele>1483.8</ele>
        <time>2022-08-20T17:38:04Z</time>
      </trkpt>
      <trkpt lat="25.4772510" lon="-100.9751700">
        <ele>1483.8</ele>
        <time>2022-08-20T17:38:05Z</time>
      </trkpt>
      <trkpt lat="25.4772500" lon="-100.9751700">
        <ele>1483.8</ele>
        <time>2022-08-20T17:38:06Z</time>
      </trkpt>
      <trkpt lat="25.4772500" lon="-100.9751690">
        <ele>1483.8</ele>
        <time>2022-08-20T17:38:07Z</time>
      </trkpt>
      <trkpt lat="25.4772480" lon="-100.9751690">
        <ele>1483.8</ele>
        <time>2022-08-20T17:38:08Z</time>
      </trkpt>
      <trkpt lat="25.4772440" lon="-100.9751690">
        <ele>1483.8</ele>
        <time>2022-08-20T17:38:09Z</time>
      </trkpt>
      <trkpt lat="25.4772000" lon="-100.9751740">
        <ele>1483.9</ele>
        <time>2022-08-20T17:38:11Z</time>
      </trkpt>
      <trkpt lat="25.4771500" lon="-100.9751820">
        <ele>1484.6</ele>
        <time>2022-08-20T17:38:12Z</time>
      </trkpt>
      <trkpt lat="25.4770590" lon="-100.9752030">
        <ele>1484.7</ele>
        <time>2022-08-20T17:38:13Z</time>
      </trkpt>
      <trkpt lat="25.4770030" lon="-100.9752210">
        <ele>1484.8</ele>
        <time>2022-08-20T17:38:14Z</time>
      </trkpt>
      <trkpt lat="25.4769510" lon="-100.9752400">
        <ele>1484.9</ele>
        <time>2022-08-20T17:38:15Z</time>
      </trkpt>
      <trkpt lat="25.4769030" lon="-100.9752590">
        <ele>1485.1</ele>
        <time>2022-08-20T17:38:16Z</time>
      </trkpt>
      <trkpt lat="25.4768580" lon="-100.9752790">
        <ele>1485.3</ele>
        <time>2022-08-20T17:38:17Z</time>
      </trkpt>
      <trkpt lat="25.4768130" lon="-100.9753000">
        <ele>1485.3</ele>
        <time>2022-08-20T17:38:18Z</time>
      </trkpt>
      <trkpt lat="25.4767680" lon="-100.9753220">
        <ele>1485.3</ele>
        <time>2022-08-20T17:38:19Z</time>
      </trkpt>
      <trkpt lat="25.4767230" lon="-100.9753460">
        <ele>1485.3</ele>
        <time>2022-08-20T17:38:20Z</time>
      </trkpt>
      <trkpt lat="25.4766800" lon="-100.9753730">
        <ele>1485.3</ele>
        <time>2022-08-20T17:38:21Z</time>
      </trkpt>
      <trkpt lat="25.4766360" lon="-100.9753990">
        <ele>1485.3</ele>
        <time>2022-08-20T17:38:22Z</time>
      </trkpt>
      <trkpt lat="25.4765950" lon="-100.9754220">
        <ele>1485.4</ele>
        <time>2022-08-20T17:38:23Z</time>
      </trkpt>
      <trkpt lat="25.4765530" lon="-100.9754420">
        <ele>1485.4</ele>
        <time>2022-08-20T17:38:24Z</time>
      </trkpt>
      <trkpt lat="25.4765100" lon="-100.9754610">
        <ele>1485.5</ele>
        <time>2022-08-20T17:38:25Z</time>
      </trkpt>
      <trkpt lat="25.4764680" lon="-100.9754810">
        <ele>1485.5</ele>
        <time>2022-08-20T17:38:26Z</time>
      </trkpt>
      <trkpt lat="25.4764280" lon="-100.9755030">
        <ele>1485.6</ele>
        <time>2022-08-20T17:38:27Z</time>
      </trkpt>
      <trkpt lat="25.4763850" lon="-100.9755240">
        <ele>1485.7</ele>
        <time>2022-08-20T17:38:28Z</time>
      </trkpt>
      <trkpt lat="25.4763410" lon="-100.9755440">
        <ele>1485.8</ele>
        <time>2022-08-20T17:38:29Z</time>
      </trkpt>
      <trkpt lat="25.4762970" lon="-100.9755650">
        <ele>1485.9</ele>
        <time>2022-08-20T17:38:30Z</time>
      </trkpt>
      <trkpt lat="25.4762540" lon="-100.9755900">
        <ele>1486.0</ele>
        <time>2022-08-20T17:38:31Z</time>
      </trkpt>
      <trkpt lat="25.4762110" lon="-100.9756160">
        <ele>1486.1</ele>
        <time>2022-08-20T17:38:32Z</time>
      </trkpt>
      <trkpt lat="25.4761670" lon="-100.9756410">
        <ele>1486.2</ele>
        <time>2022-08-20T17:38:33Z</time>
      </trkpt>
      <trkpt lat="25.4761240" lon="-100.9756640">
        <ele>1486.3</ele>
        <time>2022-08-20T17:38:34Z</time>
      </trkpt>
      <trkpt lat="25.4760810" lon="-100.9756830">
        <ele>1486.3</ele>
        <time>2022-08-20T17:38:35Z</time>
      </trkpt>
      <trkpt lat="25.4760390" lon="-100.9757040">
        <ele>1486.4</ele>
        <time>2022-08-20T17:38:36Z</time>
      </trkpt>
      <trkpt lat="25.4760010" lon="-100.9757260">
        <ele>1486.5</ele>
        <time>2022-08-20T17:38:37Z</time>
      </trkpt>
      <trkpt lat="25.4759690" lon="-100.9757490">
        <ele>1486.6</ele>
        <time>2022-08-20T17:38:38Z</time>
      </trkpt>
      <trkpt lat="25.4759300" lon="-100.9757810">
        <ele>1486.7</ele>
        <time>2022-08-20T17:38:39Z</time>
      </trkpt>
      <trkpt lat="25.4758870" lon="-100.9758120">
        <ele>1486.7</ele>
        <time>2022-08-20T17:38:40Z</time>
      </trkpt>
      <trkpt lat="25.4758440" lon="-100.9758400">
        <ele>1486.8</ele>
        <time>2022-08-20T17:38:41Z</time>
      </trkpt>
      <trkpt lat="25.4758100" lon="-100.9758640">
        <ele>1486.9</ele>
        <time>2022-08-20T17:38:42Z</time>
      </trkpt>
      <trkpt lat="25.4757770" lon="-100.9758910">
        <ele>1487.0</ele>
        <time>2022-08-20T17:38:43Z</time>
      </trkpt>
      <trkpt lat="25.4757410" lon="-100.9759160">
        <ele>1487.1</ele>
        <time>2022-08-20T17:38:44Z</time>
      </trkpt>
      <trkpt lat="25.4756980" lon="-100.9759590">
        <ele>1487.3</ele>
        <time>2022-08-20T17:38:45Z</time>
      </trkpt>
      <trkpt lat="25.4756630" lon="-100.9759970">
        <ele>1487.4</ele>
        <time>2022-08-20T17:38:47Z</time>
      </trkpt>
      <trkpt lat="25.4756310" lon="-100.9760230">
        <ele>1487.4</ele>
        <time>2022-08-20T17:38:48Z</time>
      </trkpt>
      <trkpt lat="25.4755860" lon="-100.9760390">
        <ele>1487.5</ele>
        <time>2022-08-20T17:38:49Z</time>
      </trkpt>
      <trkpt lat="25.4755470" lon="-100.9760530">
        <ele>1487.6</ele>
        <time>2022-08-20T17:38:50Z</time>
      </trkpt>
      <trkpt lat="25.4755040" lon="-100.9761000">
        <ele>1487.7</ele>
        <time>2022-08-20T17:38:51Z</time>
      </trkpt>
      <trkpt lat="25.4755120" lon="-100.9761560">
        <ele>1482.1</ele>
        <time>2022-08-20T17:38:53Z</time>
      </trkpt>
      <trkpt lat="25.4755300" lon="-100.9761910">
        <ele>1481.2</ele>
        <time>2022-08-20T17:38:54Z</time>
      </trkpt>
      <trkpt lat="25.4755490" lon="-100.9762230">
        <ele>1481.0</ele>
        <time>2022-08-20T17:38:55Z</time>
      </trkpt>
      <trkpt lat="25.4755670" lon="-100.9762540">
        <ele>1481.0</ele>
        <time>2022-08-20T17:38:56Z</time>
      </trkpt>
      <trkpt lat="25.4755860" lon="-100.9762850">
        <ele>1481.0</ele>
        <time>2022-08-20T17:38:57Z</time>
      </trkpt>
      <trkpt lat="25.4756320" lon="-100.9763320">
        <ele>1481.0</ele>
        <time>2022-08-20T17:38:59Z</time>
      </trkpt>
      <trkpt lat="25.4756600" lon="-100.9763410">
        <ele>1481.1</ele>
        <time>2022-08-20T17:39:00Z</time>
      </trkpt>
      <trkpt lat="25.4756870" lon="-100.9763390">
        <ele>1481.1</ele>
        <time>2022-08-20T17:39:01Z</time>
      </trkpt>
      <trkpt lat="25.4757350" lon="-100.9763170">
        <ele>1481.1</ele>
        <time>2022-08-20T17:39:02Z</time>
      </trkpt>
      <trkpt lat="25.4757570" lon="-100.9762970">
        <ele>1481.1</ele>
        <time>2022-08-20T17:39:04Z</time>
      </trkpt>
      <trkpt lat="25.4758000" lon="-100.9762780">
        <ele>1481.1</ele>
        <time>2022-08-20T17:39:05Z</time>
      </trkpt>
      <trkpt lat="25.4758220" lon="-100.9762710">
        <ele>1481.1</ele>
        <time>2022-08-20T17:39:06Z</time>
      </trkpt>
      <trkpt lat="25.4758590" lon="-100.9762680">
        <ele>1481.1</ele>
        <time>2022-08-20T17:39:08Z</time>
      </trkpt>
      <trkpt lat="25.4758730" lon="-100.9762790">
        <ele>1481.1</ele>
        <time>2022-08-20T17:39:10Z</time>
      </trkpt>
      <trkpt lat="25.4758770" lon="-100.9762850">
        <ele>1481.1</ele>
        <time>2022-08-20T17:39:11Z</time>
      </trkpt>
      <trkpt lat="25.4758840" lon="-100.9762990">
        <ele>1481.1</ele>
        <time>2022-08-20T17:39:12Z</time>
      </trkpt>
      <trkpt lat="25.4758850" lon="-100.9763300">
        <ele>1481.1</ele>
        <time>2022-08-20T17:39:14Z</time>
      </trkpt>
      <trkpt lat="25.4758580" lon="-100.9763450">
        <ele>1481.1</ele>
        <time>2022-08-20T17:39:15Z</time>
      </trkpt>
      <trkpt lat="25.4758510" lon="-100.9763460">
        <ele>1481.1</ele>
        <time>2022-08-20T17:39:16Z</time>
      </trkpt>
      <trkpt lat="25.4758430" lon="-100.9763430">
        <ele>1481.1</ele>
        <time>2022-08-20T17:39:17Z</time>
      </trkpt>
      <trkpt lat="25.4758530" lon="-100.9763250">
        <ele>1481.1</ele>
        <time>2022-08-20T17:39:18Z</time>
      </trkpt>
      <trkpt lat="25.4758520" lon="-100.9763180">
        <ele>1481.1</ele>
        <time>2022-08-20T17:39:19Z</time>
      </trkpt>
      <trkpt lat="25.4758500" lon="-100.9763170">
        <ele>1481.1</ele>
        <time>2022-08-20T17:39:20Z</time>
      </trkpt>
      <trkpt lat="25.4758500" lon="-100.9763160">
        <ele>1481.1</ele>
        <time>2022-08-20T17:39:21Z</time>
      </trkpt>
      <trkpt lat="25.4758490" lon="-100.9763150">
        <ele>1481.1</ele>
        <time>2022-08-20T17:39:22Z</time>
      </trkpt>
      <trkpt lat="25.4758500" lon="-100.9763150">
        <ele>1481.1</ele>
        <time>2022-08-20T17:39:23Z</time>
      </trkpt>
      <trkpt lat="25.4758500" lon="-100.9763150">
        <ele>1481.1</ele>
        <time>2022-08-20T17:39:24Z</time>
      </trkpt>
      <trkpt lat="25.4758500" lon="-100.9763170">
        <ele>1481.1</ele>
        <time>2022-08-20T17:39:25Z</time>
      </trkpt>
      <trkpt lat="25.4758500" lon="-100.9763180">
        <ele>1481.1</ele>
        <time>2022-08-20T17:39:26Z</time>
      </trkpt>
      <trkpt lat="25.4758510" lon="-100.9763200">
        <ele>1481.1</ele>
        <time>2022-08-20T17:39:27Z</time>
      </trkpt>
      <trkpt lat="25.4758520" lon="-100.9763210">
        <ele>1481.1</ele>
        <time>2022-08-20T17:39:28Z</time>
      </trkpt>
      <trkpt lat="25.4758440" lon="-100.9763260">
        <ele>1481.1</ele>
        <time>2022-08-20T17:39:29Z</time>
      </trkpt>
      <trkpt lat="25.4758440" lon="-100.9763280">
        <ele>1481.1</ele>
        <time>2022-08-20T17:39:30Z</time>
      </trkpt>
      <trkpt lat="25.4758560" lon="-100.9763220">
        <ele>1481.1</ele>
        <time>2022-08-20T17:39:31Z</time>
      </trkpt>
      <trkpt lat="25.4758600" lon="-100.9763210">
        <ele>1481.1</ele>
        <time>2022-08-20T17:39:32Z</time>
      </trkpt>
      <trkpt lat="25.4758610" lon="-100.9763200">
        <ele>1481.1</ele>
        <time>2022-08-20T17:39:33Z</time>
      </trkpt>
      <trkpt lat="25.4758610" lon="-100.9763200">
        <ele>1481.1</ele>
        <time>2022-08-20T17:39:34Z</time>
      </trkpt>
      <trkpt lat="25.4758610" lon="-100.9763200">
        <ele>1481.1</ele>
        <time>2022-08-20T17:39:35Z</time>
      </trkpt>
      <trkpt lat="25.4758610" lon="-100.9763200">
        <ele>1481.1</ele>
        <time>2022-08-20T17:39:36Z</time>
      </trkpt>
      <trkpt lat="25.4758610" lon="-100.9763200">
        <ele>1481.1</ele>
        <time>2022-08-20T17:39:37Z</time>
      </trkpt>
      <trkpt lat="25.4758590" lon="-100.9763190">
        <ele>1481.1</ele>
        <time>2022-08-20T17:39:38Z</time>
      </trkpt>
      <trkpt lat="25.4758390" lon="-100.9763420">
        <ele>1481.1</ele>
        <time>2022-08-20T17:39:39Z</time>
      </trkpt>
      <trkpt lat="25.4758350" lon="-100.9763450">
        <ele>1481.1</ele>
        <time>2022-08-20T17:39:40Z</time>
      </trkpt>
      <trkpt lat="25.4758300" lon="-100.9763530">
        <ele>1481.1</ele>
        <time>2022-08-20T17:39:42Z</time>
      </trkpt>
      <trkpt lat="25.4758290" lon="-100.9763550">
        <ele>1481.1</ele>
        <time>2022-08-20T17:39:43Z</time>
      </trkpt>
      <trkpt lat="25.4758190" lon="-100.9763560">
        <ele>1481.1</ele>
        <time>2022-08-20T17:39:44Z</time>
      </trkpt>
      <trkpt lat="25.4758190" lon="-100.9763550">
        <ele>1481.1</ele>
        <time>2022-08-20T17:39:45Z</time>
      </trkpt>
      <trkpt lat="25.4758170" lon="-100.9763560">
        <ele>1481.2</ele>
        <time>2022-08-20T17:39:46Z</time>
      </trkpt>
      <trkpt lat="25.4758150" lon="-100.9763560">
        <ele>1481.2</ele>
        <time>2022-08-20T17:39:47Z</time>
      </trkpt>
      <trkpt lat="25.4758150" lon="-100.9763570">
        <ele>1481.2</ele>
        <time>2022-08-20T17:39:48Z</time>
      </trkpt>
      <trkpt lat="25.4758160" lon="-100.9763610">
        <ele>1481.2</ele>
        <time>2022-08-20T17:39:50Z</time>
      </trkpt>
      <trkpt lat="25.4758170" lon="-100.9763650">
        <ele>1481.2</ele>
        <time>2022-08-20T17:39:51Z</time>
      </trkpt>
      <trkpt lat="25.4758150" lon="-100.9763690">
        <ele>1481.2</ele>
        <time>2022-08-20T17:39:52Z</time>
      </trkpt>
      <trkpt lat="25.4758120" lon="-100.9763710">
        <ele>1481.2</ele>
        <time>2022-08-20T17:39:53Z</time>
      </trkpt>
      <trkpt lat="25.4757920" lon="-100.9763700">
        <ele>1481.2</ele>
        <time>2022-08-20T17:39:54Z</time>
      </trkpt>
      <trkpt lat="25.4757840" lon="-100.9763710">
        <ele>1481.2</ele>
        <time>2022-08-20T17:39:56Z</time>
      </trkpt>
      <trkpt lat="25.4757770" lon="-100.9763750">
        <ele>1481.2</ele>
        <time>2022-08-20T17:39:58Z</time>
      </trkpt>
      <trkpt lat="25.4757770" lon="-100.9763820">
        <ele>1481.2</ele>
        <time>2022-08-20T17:39:59Z</time>
      </trkpt>
      <trkpt lat="25.4757790" lon="-100.9763810">
        <ele>1481.2</ele>
        <time>2022-08-20T17:40:00Z</time>
      </trkpt>
      <trkpt lat="25.4757800" lon="-100.9763810">
        <ele>1481.2</ele>
        <time>2022-08-20T17:40:01Z</time>
      </trkpt>
      <trkpt lat="25.4757820" lon="-100.9763800">
        <ele>1481.2</ele>
        <time>2022-08-20T17:40:02Z</time>
      </trkpt>
      <trkpt lat="25.4757850" lon="-100.9763800">
        <ele>1481.2</ele>
        <time>2022-08-20T17:40:03Z</time>
      </trkpt>
      <trkpt lat="25.4757840" lon="-100.9763800">
        <ele>1481.2</ele>
        <time>2022-08-20T17:40:05Z</time>
      </trkpt>
      <trkpt lat="25.4757840" lon="-100.9763790">
        <ele>1481.2</ele>
        <time>2022-08-20T17:40:06Z</time>
      </trkpt>
      <trkpt lat="25.4757830" lon="-100.9763790">
        <ele>1481.2</ele>
        <time>2022-08-20T17:40:07Z</time>
      </trkpt>
      <trkpt lat="25.4757840" lon="-100.9763790">
        <ele>1481.2</ele>
        <time>2022-08-20T17:40:08Z</time>
      </trkpt>
      <trkpt lat="25.4757820" lon="-100.9763790">
        <ele>1481.2</ele>
        <time>2022-08-20T17:40:10Z</time>
      </trkpt>
      <trkpt lat="25.4757820" lon="-100.9763800">
        <ele>1481.2</ele>
        <time>2022-08-20T17:40:11Z</time>
      </trkpt>
      <trkpt lat="25.4757840" lon="-100.9763800">
        <ele>1481.2</ele>
        <time>2022-08-20T17:40:13Z</time>
      </trkpt>
      <trkpt lat="25.4757850" lon="-100.9763830">
        <ele>1481.2</ele>
        <time>2022-08-20T17:40:15Z</time>
      </trkpt>
      <trkpt lat="25.4757840" lon="-100.9763850">
        <ele>1481.2</ele>
        <time>2022-08-20T17:40:16Z</time>
      </trkpt>
      <trkpt lat="25.4757840" lon="-100.9763860">
        <ele>1481.2</ele>
        <time>2022-08-20T17:40:17Z</time>
      </trkpt>
      <trkpt lat="25.4757840" lon="-100.9763870">
        <ele>1481.2</ele>
        <time>2022-08-20T17:40:18Z</time>
      </trkpt>
      <trkpt lat="25.4757840" lon="-100.9763890">
        <ele>1481.2</ele>
        <time>2022-08-20T17:40:19Z</time>
      </trkpt>
      <trkpt lat="25.4757810" lon="-100.9763920">
        <ele>1481.2</ele>
        <time>2022-08-20T17:40:20Z</time>
      </trkpt>
      <trkpt lat="25.4757800" lon="-100.9763930">
        <ele>1481.2</ele>
        <time>2022-08-20T17:40:21Z</time>
      </trkpt>
      <trkpt lat="25.4757800" lon="-100.9763930">
        <ele>1481.2</ele>
        <time>2022-08-20T17:40:22Z</time>
      </trkpt>
      <trkpt lat="25.4757800" lon="-100.9763940">
        <ele>1481.2</ele>
        <time>2022-08-20T17:40:23Z</time>
      </trkpt>
      <trkpt lat="25.4757800" lon="-100.9763940">
        <ele>1481.2</ele>
        <time>2022-08-20T17:40:24Z</time>
      </trkpt>
      <trkpt lat="25.4757800" lon="-100.9763950">
        <ele>1481.2</ele>
        <time>2022-08-20T17:40:25Z</time>
      </trkpt>
      <trkpt lat="25.4757790" lon="-100.9763960">
        <ele>1481.2</ele>
        <time>2022-08-20T17:40:26Z</time>
      </trkpt>
      <trkpt lat="25.4757780" lon="-100.9763950">
        <ele>1481.2</ele>
        <time>2022-08-20T17:40:28Z</time>
      </trkpt>
      <trkpt lat="25.4757780" lon="-100.9763960">
        <ele>1481.2</ele>
        <time>2022-08-20T17:40:29Z</time>
      </trkpt>
      <trkpt lat="25.4757750" lon="-100.9763950">
        <ele>1481.2</ele>
        <time>2022-08-20T17:40:30Z</time>
      </trkpt>
      <trkpt lat="25.4757740" lon="-100.9763970">
        <ele>1481.2</ele>
        <time>2022-08-20T17:40:31Z</time>
      </trkpt>
      <trkpt lat="25.4757730" lon="-100.9763990">
        <ele>1481.2</ele>
        <time>2022-08-20T17:40:32Z</time>
      </trkpt>
      <trkpt lat="25.4757720" lon="-100.9763990">
        <ele>1481.2</ele>
        <time>2022-08-20T17:40:33Z</time>
      </trkpt>
      <trkpt lat="25.4758230" lon="-100.9766370">
        <ele>1481.2</ele>
        <time>2022-08-20T17:40:39Z</time>
      </trkpt>
      <trkpt lat="25.4757350" lon="-100.9766680">
        <ele>1481.2</ele>
        <time>2022-08-20T17:40:40Z</time>
      </trkpt>
      <trkpt lat="25.4757570" lon="-100.9764010">
        <ele>1481.2</ele>
        <time>2022-08-20T17:40:41Z</time>
      </trkpt>
      <trkpt lat="25.4757570" lon="-100.9763960">
        <ele>1481.2</ele>
        <time>2022-08-20T17:40:42Z</time>
      </trkpt>
      <trkpt lat="25.4757570" lon="-100.9763930">
        <ele>1481.2</ele>
        <time>2022-08-20T17:40:43Z</time>
      </trkpt>
      <trkpt lat="25.4757580" lon="-100.9763900">
        <ele>1481.2</ele>
        <time>2022-08-20T17:40:44Z</time>
      </trkpt>
      <trkpt lat="25.4757610" lon="-100.9763900">
        <ele>1481.2</ele>
        <time>2022-08-20T17:40:45Z</time>
      </trkpt>
    </trkseg>
  </trk>
</gpx>
